<?xml version="1.0" encoding="UTF-8" standalone="no" ?>
<gpx xmlns="http://www.topografix.com/GPX/1/1" xmlns:xsi="http://www.w3.org/2001/XMLSchema-instance" xsi:schemaLocation="http://www.topografix.com/GPX/1/1 http://www.topografix.com/GPX/1/1/gpx.xsd" version="1.1" creator="VisuGPX - https://www.visugpx.com">
  <metadata>
    <name>Rando 84,5 KMS</name>
  </metadata>
  <trk>
    <name><![CDATA[Rando 84,5 KMS_1]]></name>
    <trkseg>
      <trkpt lat="50.47867" lon="2.67301">
        <ele>43.0853184</ele>
        <time>2017-09-03T07:26:03Z</time>
      </trkpt>
      <trkpt lat="50.47859" lon="2.67335">
        <ele>43.08562924</ele>
        <time>2017-09-03T07:26:07Z</time>
      </trkpt>
      <trkpt lat="50.47853" lon="2.67374">
        <ele>41.08588284</ele>
        <time>2017-09-03T07:26:12Z</time>
      </trkpt>
      <trkpt lat="50.47845" lon="2.67406">
        <ele>42.08619968</ele>
        <time>2017-09-03T07:26:16Z</time>
      </trkpt>
      <trkpt lat="50.47838" lon="2.67438">
        <ele>42.0864904</ele>
        <time>2017-09-03T07:26:20Z</time>
      </trkpt>
      <trkpt lat="50.47829" lon="2.6747">
        <ele>43.08683832</ele>
        <time>2017-09-03T07:26:24Z</time>
      </trkpt>
      <trkpt lat="50.4782" lon="2.67503">
        <ele>43.08721832</ele>
        <time>2017-09-03T07:26:28Z</time>
      </trkpt>
      <trkpt lat="50.47811" lon="2.6754">
        <ele>44.08757296</ele>
        <time>2017-09-03T07:26:33Z</time>
      </trkpt>
      <trkpt lat="50.47803" lon="2.67571">
        <ele>44.08788344</ele>
        <time>2017-09-03T07:26:37Z</time>
      </trkpt>
      <trkpt lat="50.47784" lon="2.67568">
        <ele>45.08866064</ele>
        <time>2017-09-03T07:26:41Z</time>
      </trkpt>
      <trkpt lat="50.47767" lon="2.67555">
        <ele>46.0893088</ele>
        <time>2017-09-03T07:26:45Z</time>
      </trkpt>
      <trkpt lat="50.47746" lon="2.6754">
        <ele>46.0901616</ele>
        <time>2017-09-03T07:26:50Z</time>
      </trkpt>
      <trkpt lat="50.47728" lon="2.67528">
        <ele>48.09087112</ele>
        <time>2017-09-03T07:26:54Z</time>
      </trkpt>
      <trkpt lat="50.47707" lon="2.67512">
        <ele>48.0917206</ele>
        <time>2017-09-03T07:26:59Z</time>
      </trkpt>
      <trkpt lat="50.47694" lon="2.67492">
        <ele>49.09225176</ele>
        <time>2017-09-03T07:27:03Z</time>
      </trkpt>
      <trkpt lat="50.47677" lon="2.67471">
        <ele>48.09292228</ele>
        <time>2017-09-03T07:27:07Z</time>
      </trkpt>
      <trkpt lat="50.47654" lon="2.67456">
        <ele>47.09385268</ele>
        <time>2017-09-03T07:27:12Z</time>
      </trkpt>
      <trkpt lat="50.47631" lon="2.67441">
        <ele>46.09477484</ele>
        <time>2017-09-03T07:27:17Z</time>
      </trkpt>
      <trkpt lat="50.47609" lon="2.67426">
        <ele>47.0956306</ele>
        <time>2017-09-03T07:27:22Z</time>
      </trkpt>
      <trkpt lat="50.47595" lon="2.67415">
        <ele>49.09620828</ele>
        <time>2017-09-03T07:27:26Z</time>
      </trkpt>
      <trkpt lat="50.47579" lon="2.67402">
        <ele>50.096849</ele>
        <time>2017-09-03T07:27:30Z</time>
      </trkpt>
      <trkpt lat="50.47556" lon="2.67383">
        <ele>50.09778048</ele>
        <time>2017-09-03T07:27:35Z</time>
      </trkpt>
      <trkpt lat="50.47536" lon="2.6738">
        <ele>50.09858104</ele>
        <time>2017-09-03T07:27:39Z</time>
      </trkpt>
      <trkpt lat="50.47521" lon="2.67404">
        <ele>49.09914324</ele>
        <time>2017-09-03T07:27:43Z</time>
      </trkpt>
      <trkpt lat="50.47508" lon="2.67427">
        <ele>48.09969908</ele>
        <time>2017-09-03T07:27:47Z</time>
      </trkpt>
      <trkpt lat="50.475" lon="2.67453">
        <ele>48.10001348</ele>
        <time>2017-09-03T07:27:51Z</time>
      </trkpt>
      <trkpt lat="50.47475" lon="2.67443">
        <ele>47.10098508</ele>
        <time>2017-09-03T07:27:56Z</time>
      </trkpt>
      <trkpt lat="50.47457" lon="2.67417">
        <ele>48.10173988</ele>
        <time>2017-09-03T07:28:01Z</time>
      </trkpt>
      <trkpt lat="50.47446" lon="2.674">
        <ele>48.10216824</ele>
        <time>2017-09-03T07:28:04Z</time>
      </trkpt>
      <trkpt lat="50.47433" lon="2.67375">
        <ele>48.10269364</ele>
        <time>2017-09-03T07:28:08Z</time>
      </trkpt>
      <trkpt lat="50.47421" lon="2.67347">
        <ele>48.10314336</ele>
        <time>2017-09-03T07:28:13Z</time>
      </trkpt>
      <trkpt lat="50.47405" lon="2.67327">
        <ele>50.10380996</ele>
        <time>2017-09-03T07:28:17Z</time>
      </trkpt>
      <trkpt lat="50.47383" lon="2.67347">
        <ele>51.10467184</ele>
        <time>2017-09-03T07:28:22Z</time>
      </trkpt>
      <trkpt lat="50.47369" lon="2.67363">
        <ele>50.1052238</ele>
        <time>2017-09-03T07:28:26Z</time>
      </trkpt>
      <trkpt lat="50.47366" lon="2.67341">
        <ele>50.10536956</ele>
        <time>2017-09-03T07:28:31Z</time>
      </trkpt>
      <trkpt lat="50.47372" lon="2.67314">
        <ele>50.10512832</ele>
        <time>2017-09-03T07:28:35Z</time>
      </trkpt>
      <trkpt lat="50.47377" lon="2.67283">
        <ele>51.10491748</ele>
        <time>2017-09-03T07:28:40Z</time>
      </trkpt>
      <trkpt lat="50.47373" lon="2.6727">
        <ele>52.10509632</ele>
        <time>2017-09-03T07:28:43Z</time>
      </trkpt>
      <trkpt lat="50.47363" lon="2.67246">
        <ele>54.10546592</ele>
        <time>2017-09-03T07:28:48Z</time>
      </trkpt>
      <trkpt lat="50.47358" lon="2.67224">
        <ele>55.10568092</ele>
        <time>2017-09-03T07:28:52Z</time>
      </trkpt>
      <trkpt lat="50.47345" lon="2.672">
        <ele>57.10619328</ele>
        <time>2017-09-03T07:28:57Z</time>
      </trkpt>
      <trkpt lat="50.47336" lon="2.67182">
        <ele>57.10655404</ele>
        <time>2017-09-03T07:29:01Z</time>
      </trkpt>
      <trkpt lat="50.47327" lon="2.67172">
        <ele>62.10693852</ele>
        <time>2017-09-03T07:29:05Z</time>
      </trkpt>
      <trkpt lat="50.47312" lon="2.67155">
        <ele>58.10751068</ele>
        <time>2017-09-03T07:29:09Z</time>
      </trkpt>
      <trkpt lat="50.47301" lon="2.67144">
        <ele>60.10795912</ele>
        <time>2017-09-03T07:29:13Z</time>
      </trkpt>
      <trkpt lat="50.47289" lon="2.67136">
        <ele>64.10845296</ele>
        <time>2017-09-03T07:29:18Z</time>
      </trkpt>
      <trkpt lat="50.47282" lon="2.67129">
        <ele>69.10873192</ele>
        <time>2017-09-03T07:29:23Z</time>
      </trkpt>
      <trkpt lat="50.47275" lon="2.6712">
        <ele>72.10900496</ele>
        <time>2017-09-03T07:29:27Z</time>
      </trkpt>
      <trkpt lat="50.47266" lon="2.67109">
        <ele>71.1093796</ele>
        <time>2017-09-03T07:29:31Z</time>
      </trkpt>
      <trkpt lat="50.47258" lon="2.67101">
        <ele>70.10967288</ele>
        <time>2017-09-03T07:29:35Z</time>
      </trkpt>
      <trkpt lat="50.47249" lon="2.67099">
        <ele>68.11005524</ele>
        <time>2017-09-03T07:29:40Z</time>
      </trkpt>
      <trkpt lat="50.47242" lon="2.67104">
        <ele>67.11033136</ele>
        <time>2017-09-03T07:29:44Z</time>
      </trkpt>
      <trkpt lat="50.47237" lon="2.67108">
        <ele>67.11052232</ele>
        <time>2017-09-03T07:29:47Z</time>
      </trkpt>
      <trkpt lat="50.4723" lon="2.67111">
        <ele>68.11081936</ele>
        <time>2017-09-03T07:29:52Z</time>
      </trkpt>
      <trkpt lat="50.47224" lon="2.67115">
        <ele>71.11106104</ele>
        <time>2017-09-03T07:29:56Z</time>
      </trkpt>
      <trkpt lat="50.4722" lon="2.67126">
        <ele>75.11121232</ele>
        <time>2017-09-03T07:30:03Z</time>
      </trkpt>
      <trkpt lat="50.47219" lon="2.6714">
        <ele>75.11125476</ele>
        <time>2017-09-03T07:30:08Z</time>
      </trkpt>
      <trkpt lat="50.4722" lon="2.67152">
        <ele>75.11121184</ele>
        <time>2017-09-03T07:30:12Z</time>
      </trkpt>
      <trkpt lat="50.4722" lon="2.67167">
        <ele>76.11121012</ele>
        <time>2017-09-03T07:30:16Z</time>
      </trkpt>
      <trkpt lat="50.47211" lon="2.67178">
        <ele>76.11157464</ele>
        <time>2017-09-03T07:30:21Z</time>
      </trkpt>
      <trkpt lat="50.47202" lon="2.67182">
        <ele>79.11191452</ele>
        <time>2017-09-03T07:30:25Z</time>
      </trkpt>
      <trkpt lat="50.4718" lon="2.67178">
        <ele>74.11280528</ele>
        <time>2017-09-03T07:30:30Z</time>
      </trkpt>
      <trkpt lat="50.47165" lon="2.6718">
        <ele>74.1134126</ele>
        <time>2017-09-03T07:30:34Z</time>
      </trkpt>
      <trkpt lat="50.47146" lon="2.67189">
        <ele>70.11416992</ele>
        <time>2017-09-03T07:30:39Z</time>
      </trkpt>
      <trkpt lat="50.47133" lon="2.67206">
        <ele>69.11467956</ele>
        <time>2017-09-03T07:30:43Z</time>
      </trkpt>
      <trkpt lat="50.47147" lon="2.67237">
        <ele>70.11412252</ele>
        <time>2017-09-03T07:30:48Z</time>
      </trkpt>
      <trkpt lat="50.47158" lon="2.67274">
        <ele>69.1136946</ele>
        <time>2017-09-03T07:30:52Z</time>
      </trkpt>
      <trkpt lat="50.47173" lon="2.67304">
        <ele>71.11307416</ele>
        <time>2017-09-03T07:30:56Z</time>
      </trkpt>
      <trkpt lat="50.47177" lon="2.67352">
        <ele>68.1129098</ele>
        <time>2017-09-03T07:31:01Z</time>
      </trkpt>
      <trkpt lat="50.47177" lon="2.67385">
        <ele>64.11291368</ele>
        <time>2017-09-03T07:31:05Z</time>
      </trkpt>
      <trkpt lat="50.47183" lon="2.6741">
        <ele>56.112698</ele>
        <time>2017-09-03T07:31:09Z</time>
      </trkpt>
      <trkpt lat="50.47186" lon="2.67432">
        <ele>54.11257856</ele>
        <time>2017-09-03T07:31:13Z</time>
      </trkpt>
      <trkpt lat="50.47197" lon="2.67449">
        <ele>60.112141</ele>
        <time>2017-09-03T07:31:18Z</time>
      </trkpt>
      <trkpt lat="50.47204" lon="2.67468">
        <ele>62.11183352</ele>
        <time>2017-09-03T07:31:22Z</time>
      </trkpt>
      <trkpt lat="50.47201" lon="2.6749">
        <ele>65.1119446</ele>
        <time>2017-09-03T07:31:26Z</time>
      </trkpt>
      <trkpt lat="50.47198" lon="2.67511">
        <ele>67.11209808</ele>
        <time>2017-09-03T07:31:31Z</time>
      </trkpt>
      <trkpt lat="50.47193" lon="2.67523">
        <ele>66.11228736</ele>
        <time>2017-09-03T07:31:35Z</time>
      </trkpt>
      <trkpt lat="50.47194" lon="2.67551">
        <ele>66.11225456</ele>
        <time>2017-09-03T07:31:40Z</time>
      </trkpt>
      <trkpt lat="50.47196" lon="2.67576">
        <ele>66.11215804</ele>
        <time>2017-09-03T07:31:44Z</time>
      </trkpt>
      <trkpt lat="50.47197" lon="2.67606">
        <ele>63.11211276</ele>
        <time>2017-09-03T07:31:49Z</time>
      </trkpt>
      <trkpt lat="50.47195" lon="2.67635">
        <ele>59.11218864</ele>
        <time>2017-09-03T07:31:54Z</time>
      </trkpt>
      <trkpt lat="50.47199" lon="2.67658">
        <ele>62.11202784</ele>
        <time>2017-09-03T07:31:59Z</time>
      </trkpt>
      <trkpt lat="50.47206" lon="2.67692">
        <ele>56.11174752</ele>
        <time>2017-09-03T07:32:04Z</time>
      </trkpt>
      <trkpt lat="50.47215" lon="2.67715">
        <ele>57.11140484</ele>
        <time>2017-09-03T07:32:08Z</time>
      </trkpt>
      <trkpt lat="50.47229" lon="2.67734">
        <ele>56.11085852</ele>
        <time>2017-09-03T07:32:12Z</time>
      </trkpt>
      <trkpt lat="50.47241" lon="2.67752">
        <ele>55.1103732</ele>
        <time>2017-09-03T07:32:16Z</time>
      </trkpt>
      <trkpt lat="50.4726" lon="2.67774">
        <ele>56.10961748</ele>
        <time>2017-09-03T07:32:21Z</time>
      </trkpt>
      <trkpt lat="50.4727" lon="2.67789">
        <ele>54.10918652</ele>
        <time>2017-09-03T07:32:25Z</time>
      </trkpt>
      <trkpt lat="50.47263" lon="2.67808">
        <ele>57.10948972</ele>
        <time>2017-09-03T07:32:29Z</time>
      </trkpt>
      <trkpt lat="50.47257" lon="2.67837">
        <ele>57.1097182</ele>
        <time>2017-09-03T07:32:34Z</time>
      </trkpt>
      <trkpt lat="50.47271" lon="2.67863">
        <ele>59.10914556</ele>
        <time>2017-09-03T07:32:39Z</time>
      </trkpt>
      <trkpt lat="50.4728" lon="2.67892">
        <ele>60.10881892</ele>
        <time>2017-09-03T07:32:43Z</time>
      </trkpt>
      <trkpt lat="50.47285" lon="2.67919">
        <ele>60.10860616</ele>
        <time>2017-09-03T07:32:47Z</time>
      </trkpt>
      <trkpt lat="50.47283" lon="2.67947">
        <ele>58.108688</ele>
        <time>2017-09-03T07:32:50Z</time>
      </trkpt>
      <trkpt lat="50.47275" lon="2.6798">
        <ele>57.1089942</ele>
        <time>2017-09-03T07:32:54Z</time>
      </trkpt>
      <trkpt lat="50.47261" lon="2.68007">
        <ele>56.1095794</ele>
        <time>2017-09-03T07:32:58Z</time>
      </trkpt>
      <trkpt lat="50.47239" lon="2.6803">
        <ele>54.11045356</ele>
        <time>2017-09-03T07:33:03Z</time>
      </trkpt>
      <trkpt lat="50.47224" lon="2.68039">
        <ele>55.11104616</ele>
        <time>2017-09-03T07:33:07Z</time>
      </trkpt>
      <trkpt lat="50.47216" lon="2.68039">
        <ele>55.11134688</ele>
        <time>2017-09-03T07:33:11Z</time>
      </trkpt>
      <trkpt lat="50.47205" lon="2.68037">
        <ele>56.1118014</ele>
        <time>2017-09-03T07:33:16Z</time>
      </trkpt>
      <trkpt lat="50.47194" lon="2.6804">
        <ele>57.11225552</ele>
        <time>2017-09-03T07:33:21Z</time>
      </trkpt>
      <trkpt lat="50.47186" lon="2.68042">
        <ele>58.11256244</ele>
        <time>2017-09-03T07:33:26Z</time>
      </trkpt>
      <trkpt lat="50.47178" lon="2.68043">
        <ele>61.1128992</ele>
        <time>2017-09-03T07:33:31Z</time>
      </trkpt>
      <trkpt lat="50.47169" lon="2.68043">
        <ele>63.11324692</ele>
        <time>2017-09-03T07:33:36Z</time>
      </trkpt>
      <trkpt lat="50.4716" lon="2.68042">
        <ele>66.11361908</ele>
        <time>2017-09-03T07:33:41Z</time>
      </trkpt>
      <trkpt lat="50.47152" lon="2.68042">
        <ele>68.11391536</ele>
        <time>2017-09-03T07:33:45Z</time>
      </trkpt>
      <trkpt lat="50.47142" lon="2.68042">
        <ele>70.11431852</ele>
        <time>2017-09-03T07:33:50Z</time>
      </trkpt>
      <trkpt lat="50.47133" lon="2.68045">
        <ele>69.11469892</ele>
        <time>2017-09-03T07:33:54Z</time>
      </trkpt>
      <trkpt lat="50.47121" lon="2.68049">
        <ele>68.11515852</ele>
        <time>2017-09-03T07:33:59Z</time>
      </trkpt>
      <trkpt lat="50.47111" lon="2.68054">
        <ele>69.11556104</ele>
        <time>2017-09-03T07:34:04Z</time>
      </trkpt>
      <trkpt lat="50.47098" lon="2.6806">
        <ele>67.11606268</ele>
        <time>2017-09-03T07:34:08Z</time>
      </trkpt>
      <trkpt lat="50.47088" lon="2.68091">
        <ele>64.11646684</ele>
        <time>2017-09-03T07:34:13Z</time>
      </trkpt>
      <trkpt lat="50.4708" lon="2.6813">
        <ele>60.11681244</ele>
        <time>2017-09-03T07:34:17Z</time>
      </trkpt>
      <trkpt lat="50.47068" lon="2.68165">
        <ele>58.11727848</ele>
        <time>2017-09-03T07:34:22Z</time>
      </trkpt>
      <trkpt lat="50.47055" lon="2.68161">
        <ele>60.11780552</ele>
        <time>2017-09-03T07:34:27Z</time>
      </trkpt>
      <trkpt lat="50.47052" lon="2.68171">
        <ele>61.11793944</ele>
        <time>2017-09-03T07:34:31Z</time>
      </trkpt>
      <trkpt lat="50.47047" lon="2.68187">
        <ele>65.11812932</ele>
        <time>2017-09-03T07:34:36Z</time>
      </trkpt>
      <trkpt lat="50.4704" lon="2.68201">
        <ele>66.11840476</ele>
        <time>2017-09-03T07:34:41Z</time>
      </trkpt>
      <trkpt lat="50.47034" lon="2.68207">
        <ele>68.118646</ele>
        <time>2017-09-03T07:34:44Z</time>
      </trkpt>
      <trkpt lat="50.47025" lon="2.68213">
        <ele>67.11898368</ele>
        <time>2017-09-03T07:34:48Z</time>
      </trkpt>
      <trkpt lat="50.47014" lon="2.6822">
        <ele>68.11945632</ele>
        <time>2017-09-03T07:34:53Z</time>
      </trkpt>
      <trkpt lat="50.47005" lon="2.68223">
        <ele>68.11980416</ele>
        <time>2017-09-03T07:34:57Z</time>
      </trkpt>
      <trkpt lat="50.46994" lon="2.68218">
        <ele>69.1202416</ele>
        <time>2017-09-03T07:35:02Z</time>
      </trkpt>
      <trkpt lat="50.46986" lon="2.68213">
        <ele>71.12057476</ele>
        <time>2017-09-03T07:35:06Z</time>
      </trkpt>
      <trkpt lat="50.46979" lon="2.68198">
        <ele>70.12085044</ele>
        <time>2017-09-03T07:35:11Z</time>
      </trkpt>
      <trkpt lat="50.46973" lon="2.68186">
        <ele>70.12107696</ele>
        <time>2017-09-03T07:35:15Z</time>
      </trkpt>
      <trkpt lat="50.46963" lon="2.68182">
        <ele>69.1214878</ele>
        <time>2017-09-03T07:35:19Z</time>
      </trkpt>
      <trkpt lat="50.4694" lon="2.68186">
        <ele>69.12238632</ele>
        <time>2017-09-03T07:35:24Z</time>
      </trkpt>
      <trkpt lat="50.46932" lon="2.68176">
        <ele>69.12270556</ele>
        <time>2017-09-03T07:35:27Z</time>
      </trkpt>
      <trkpt lat="50.46926" lon="2.6816">
        <ele>69.12297644</ele>
        <time>2017-09-03T07:35:31Z</time>
      </trkpt>
      <trkpt lat="50.46923" lon="2.68153">
        <ele>70.12308752</ele>
        <time>2017-09-03T07:35:33Z</time>
      </trkpt>
      <trkpt lat="50.46915" lon="2.68136">
        <ele>69.12338424</ele>
        <time>2017-09-03T07:35:37Z</time>
      </trkpt>
      <trkpt lat="50.46905" lon="2.68117">
        <ele>68.12381896</ele>
        <time>2017-09-03T07:35:42Z</time>
      </trkpt>
      <trkpt lat="50.46899" lon="2.68106">
        <ele>68.12405884</ele>
        <time>2017-09-03T07:35:46Z</time>
      </trkpt>
      <trkpt lat="50.46895" lon="2.68118">
        <ele>67.12421944</ele>
        <time>2017-09-03T07:35:52Z</time>
      </trkpt>
      <trkpt lat="50.46894" lon="2.68135">
        <ele>62.124246</ele>
        <time>2017-09-03T07:35:56Z</time>
      </trkpt>
      <trkpt lat="50.46891" lon="2.68165">
        <ele>59.12437596</ele>
        <time>2017-09-03T07:36:01Z</time>
      </trkpt>
      <trkpt lat="50.46901" lon="2.68174">
        <ele>63.12394488</ele>
        <time>2017-09-03T07:36:05Z</time>
      </trkpt>
      <trkpt lat="50.46901" lon="2.68193">
        <ele>68.12394708</ele>
        <time>2017-09-03T07:36:09Z</time>
      </trkpt>
      <trkpt lat="50.4689" lon="2.6822">
        <ele>59.12438292</ele>
        <time>2017-09-03T07:36:14Z</time>
      </trkpt>
      <trkpt lat="50.46881" lon="2.6825">
        <ele>58.1247512</ele>
        <time>2017-09-03T07:36:18Z</time>
      </trkpt>
      <trkpt lat="50.46867" lon="2.68287">
        <ele>56.12531604</ele>
        <time>2017-09-03T07:36:23Z</time>
      </trkpt>
      <trkpt lat="50.46855" lon="2.68318">
        <ele>55.12578892</ele>
        <time>2017-09-03T07:36:27Z</time>
      </trkpt>
      <trkpt lat="50.46839" lon="2.68357">
        <ele>54.1264344</ele>
        <time>2017-09-03T07:36:32Z</time>
      </trkpt>
      <trkpt lat="50.46829" lon="2.68388">
        <ele>55.12685332</ele>
        <time>2017-09-03T07:36:36Z</time>
      </trkpt>
      <trkpt lat="50.4681" lon="2.6843">
        <ele>51.12758784</ele>
        <time>2017-09-03T07:36:41Z</time>
      </trkpt>
      <trkpt lat="50.46797" lon="2.68466">
        <ele>48.12812312</ele>
        <time>2017-09-03T07:36:45Z</time>
      </trkpt>
      <trkpt lat="50.46784" lon="2.68501">
        <ele>44.12865908</ele>
        <time>2017-09-03T07:36:49Z</time>
      </trkpt>
      <trkpt lat="50.46765" lon="2.68523">
        <ele>46.12939676</ele>
        <time>2017-09-03T07:36:54Z</time>
      </trkpt>
      <trkpt lat="50.4675" lon="2.68504">
        <ele>48.1300084</ele>
        <time>2017-09-03T07:36:58Z</time>
      </trkpt>
      <trkpt lat="50.46734" lon="2.68505">
        <ele>50.13062736</ele>
        <time>2017-09-03T07:37:03Z</time>
      </trkpt>
      <trkpt lat="50.46722" lon="2.68528">
        <ele>49.13110368</ele>
        <time>2017-09-03T07:37:07Z</time>
      </trkpt>
      <trkpt lat="50.46709" lon="2.68524">
        <ele>48.13162876</ele>
        <time>2017-09-03T07:37:11Z</time>
      </trkpt>
      <trkpt lat="50.46702" lon="2.68506">
        <ele>47.13190816</ele>
        <time>2017-09-03T07:37:14Z</time>
      </trkpt>
      <trkpt lat="50.46692" lon="2.68481">
        <ele>48.1323324</ele>
        <time>2017-09-03T07:37:18Z</time>
      </trkpt>
      <trkpt lat="50.46675" lon="2.68455">
        <ele>46.133021</ele>
        <time>2017-09-03T07:37:23Z</time>
      </trkpt>
      <trkpt lat="50.46658" lon="2.68432">
        <ele>44.13369176</ele>
        <time>2017-09-03T07:37:27Z</time>
      </trkpt>
      <trkpt lat="50.46646" lon="2.68408">
        <ele>44.13416484</ele>
        <time>2017-09-03T07:37:31Z</time>
      </trkpt>
      <trkpt lat="50.46632" lon="2.68384">
        <ele>44.13471056</ele>
        <time>2017-09-03T07:37:35Z</time>
      </trkpt>
      <trkpt lat="50.46621" lon="2.68359">
        <ele>45.13518012</ele>
        <time>2017-09-03T07:37:39Z</time>
      </trkpt>
      <trkpt lat="50.46607" lon="2.68332">
        <ele>44.13571876</ele>
        <time>2017-09-03T07:37:44Z</time>
      </trkpt>
      <trkpt lat="50.46595" lon="2.68312">
        <ele>43.13618312</ele>
        <time>2017-09-03T07:37:48Z</time>
      </trkpt>
      <trkpt lat="50.46584" lon="2.68289">
        <ele>45.13665868</ele>
        <time>2017-09-03T07:37:53Z</time>
      </trkpt>
      <trkpt lat="50.46579" lon="2.68282">
        <ele>47.13685692</ele>
        <time>2017-09-03T07:38:33Z</time>
      </trkpt>
      <trkpt lat="50.46569" lon="2.68255">
        <ele>46.13722816</ele>
        <time>2017-09-03T07:38:38Z</time>
      </trkpt>
      <trkpt lat="50.46557" lon="2.68226">
        <ele>47.13771928</ele>
        <time>2017-09-03T07:38:42Z</time>
      </trkpt>
      <trkpt lat="50.46541" lon="2.68187">
        <ele>47.1383556</ele>
        <time>2017-09-03T07:38:47Z</time>
      </trkpt>
      <trkpt lat="50.46523" lon="2.68148">
        <ele>47.1390976</ele>
        <time>2017-09-03T07:38:52Z</time>
      </trkpt>
      <trkpt lat="50.46507" lon="2.6812">
        <ele>48.1397394</ele>
        <time>2017-09-03T07:38:56Z</time>
      </trkpt>
      <trkpt lat="50.4649" lon="2.68093">
        <ele>48.14039156</ele>
        <time>2017-09-03T07:39:01Z</time>
      </trkpt>
      <trkpt lat="50.46471" lon="2.68058">
        <ele>48.14118144</ele>
        <time>2017-09-03T07:39:05Z</time>
      </trkpt>
      <trkpt lat="50.4645" lon="2.68023">
        <ele>47.1420108</ele>
        <time>2017-09-03T07:39:10Z</time>
      </trkpt>
      <trkpt lat="50.46435" lon="2.67994">
        <ele>47.1426118</ele>
        <time>2017-09-03T07:39:14Z</time>
      </trkpt>
      <trkpt lat="50.46418" lon="2.67967">
        <ele>47.14326344</ele>
        <time>2017-09-03T07:39:18Z</time>
      </trkpt>
      <trkpt lat="50.46403" lon="2.67942">
        <ele>48.14389572</ele>
        <time>2017-09-03T07:39:23Z</time>
      </trkpt>
      <trkpt lat="50.46392" lon="2.67923">
        <ele>48.144317</ele>
        <time>2017-09-03T07:39:28Z</time>
      </trkpt>
      <trkpt lat="50.46385" lon="2.67907">
        <ele>49.14461188</ele>
        <time>2017-09-03T07:39:32Z</time>
      </trkpt>
      <trkpt lat="50.46371" lon="2.67906">
        <ele>51.14514928</ele>
        <time>2017-09-03T07:39:36Z</time>
      </trkpt>
      <trkpt lat="50.46349" lon="2.67938">
        <ele>48.14603116</ele>
        <time>2017-09-03T07:39:41Z</time>
      </trkpt>
      <trkpt lat="50.46324" lon="2.67981">
        <ele>46.14705636</ele>
        <time>2017-09-03T07:39:46Z</time>
      </trkpt>
      <trkpt lat="50.46311" lon="2.68021">
        <ele>46.14755604</ele>
        <time>2017-09-03T07:39:50Z</time>
      </trkpt>
      <trkpt lat="50.463" lon="2.68043">
        <ele>47.14800656</ele>
        <time>2017-09-03T07:39:54Z</time>
      </trkpt>
      <trkpt lat="50.46294" lon="2.68051">
        <ele>47.1482544</ele>
        <time>2017-09-03T07:40:01Z</time>
      </trkpt>
      <trkpt lat="50.4628" lon="2.68073">
        <ele>49.14878496</ele>
        <time>2017-09-03T07:40:06Z</time>
      </trkpt>
      <trkpt lat="50.4627" lon="2.6809">
        <ele>51.14918332</ele>
        <time>2017-09-03T07:40:10Z</time>
      </trkpt>
      <trkpt lat="50.46261" lon="2.68107">
        <ele>52.14957272</ele>
        <time>2017-09-03T07:40:14Z</time>
      </trkpt>
      <trkpt lat="50.4625" lon="2.68125">
        <ele>53.14999556</ele>
        <time>2017-09-03T07:40:18Z</time>
      </trkpt>
      <trkpt lat="50.46241" lon="2.68141">
        <ele>54.15036984</ele>
        <time>2017-09-03T07:40:22Z</time>
      </trkpt>
      <trkpt lat="50.46228" lon="2.68164">
        <ele>56.15088168</ele>
        <time>2017-09-03T07:40:27Z</time>
      </trkpt>
      <trkpt lat="50.46219" lon="2.68181">
        <ele>57.15123908</ele>
        <time>2017-09-03T07:40:31Z</time>
      </trkpt>
      <trkpt lat="50.46209" lon="2.68197">
        <ele>57.15164264</ele>
        <time>2017-09-03T07:40:35Z</time>
      </trkpt>
      <trkpt lat="50.46196" lon="2.68221">
        <ele>57.15217568</ele>
        <time>2017-09-03T07:40:40Z</time>
      </trkpt>
      <trkpt lat="50.46182" lon="2.68246">
        <ele>56.15271504</ele>
        <time>2017-09-03T07:40:45Z</time>
      </trkpt>
      <trkpt lat="50.46171" lon="2.68265">
        <ele>56.1531424</ele>
        <time>2017-09-03T07:40:49Z</time>
      </trkpt>
      <trkpt lat="50.4616" lon="2.68282">
        <ele>58.15358548</ele>
        <time>2017-09-03T07:40:53Z</time>
      </trkpt>
      <trkpt lat="50.46149" lon="2.68305">
        <ele>59.1540524</ele>
        <time>2017-09-03T07:40:58Z</time>
      </trkpt>
      <trkpt lat="50.46138" lon="2.68323">
        <ele>59.15447024</ele>
        <time>2017-09-03T07:41:02Z</time>
      </trkpt>
      <trkpt lat="50.46124" lon="2.68347">
        <ele>59.15504064</ele>
        <time>2017-09-03T07:41:07Z</time>
      </trkpt>
      <trkpt lat="50.46116" lon="2.68361">
        <ele>59.15536264</ele>
        <time>2017-09-03T07:41:11Z</time>
      </trkpt>
      <trkpt lat="50.46102" lon="2.68384">
        <ele>59.15592884</ele>
        <time>2017-09-03T07:41:15Z</time>
      </trkpt>
      <trkpt lat="50.46091" lon="2.68402">
        <ele>59.1563458</ele>
        <time>2017-09-03T07:41:19Z</time>
      </trkpt>
      <trkpt lat="50.4608" lon="2.68422">
        <ele>60.15679832</ele>
        <time>2017-09-03T07:41:24Z</time>
      </trkpt>
      <trkpt lat="50.46071" lon="2.68439">
        <ele>60.1571568</ele>
        <time>2017-09-03T07:41:28Z</time>
      </trkpt>
      <trkpt lat="50.46061" lon="2.68455">
        <ele>60.1575788</ele>
        <time>2017-09-03T07:41:32Z</time>
      </trkpt>
      <trkpt lat="50.46049" lon="2.68478">
        <ele>61.1580534</ele>
        <time>2017-09-03T07:41:37Z</time>
      </trkpt>
      <trkpt lat="50.46038" lon="2.68496">
        <ele>61.15848936</ele>
        <time>2017-09-03T07:41:41Z</time>
      </trkpt>
      <trkpt lat="50.46024" lon="2.6852">
        <ele>61.15903092</ele>
        <time>2017-09-03T07:41:46Z</time>
      </trkpt>
      <trkpt lat="50.46013" lon="2.6854">
        <ele>60.15947836</ele>
        <time>2017-09-03T07:41:50Z</time>
      </trkpt>
      <trkpt lat="50.45998" lon="2.68565">
        <ele>60.16009916</ele>
        <time>2017-09-03T07:41:55Z</time>
      </trkpt>
      <trkpt lat="50.45983" lon="2.68592">
        <ele>59.1606632</ele>
        <time>2017-09-03T07:42:00Z</time>
      </trkpt>
      <trkpt lat="50.45967" lon="2.68619">
        <ele>59.16130684</ele>
        <time>2017-09-03T07:42:05Z</time>
      </trkpt>
      <trkpt lat="50.45954" lon="2.6864">
        <ele>60.16184944</ele>
        <time>2017-09-03T07:42:09Z</time>
      </trkpt>
      <trkpt lat="50.45936" lon="2.68669">
        <ele>59.16254616</ele>
        <time>2017-09-03T07:42:14Z</time>
      </trkpt>
      <trkpt lat="50.45922" lon="2.68694">
        <ele>59.16310436</ele>
        <time>2017-09-03T07:42:18Z</time>
      </trkpt>
      <trkpt lat="50.45908" lon="2.68718">
        <ele>59.16367028</ele>
        <time>2017-09-03T07:42:22Z</time>
      </trkpt>
      <trkpt lat="50.45889" lon="2.68751">
        <ele>58.16443008</ele>
        <time>2017-09-03T07:42:27Z</time>
      </trkpt>
      <trkpt lat="50.45874" lon="2.68778">
        <ele>59.16502456</ele>
        <time>2017-09-03T07:42:31Z</time>
      </trkpt>
      <trkpt lat="50.45858" lon="2.68804">
        <ele>58.1656818</ele>
        <time>2017-09-03T07:42:35Z</time>
      </trkpt>
      <trkpt lat="50.45838" lon="2.68834">
        <ele>56.16646676</ele>
        <time>2017-09-03T07:42:40Z</time>
      </trkpt>
      <trkpt lat="50.45822" lon="2.68843">
        <ele>56.1671364</ele>
        <time>2017-09-03T07:42:45Z</time>
      </trkpt>
      <trkpt lat="50.45804" lon="2.68842">
        <ele>56.16785968</ele>
        <time>2017-09-03T07:42:49Z</time>
      </trkpt>
      <trkpt lat="50.45784" lon="2.6884">
        <ele>56.16863172</ele>
        <time>2017-09-03T07:42:53Z</time>
      </trkpt>
      <trkpt lat="50.45764" lon="2.68838">
        <ele>56.16943636</ele>
        <time>2017-09-03T07:42:57Z</time>
      </trkpt>
      <trkpt lat="50.45738" lon="2.68834">
        <ele>56.17046596</ele>
        <time>2017-09-03T07:43:02Z</time>
      </trkpt>
      <trkpt lat="50.45714" lon="2.68828">
        <ele>57.17145016</ele>
        <time>2017-09-03T07:43:07Z</time>
      </trkpt>
      <trkpt lat="50.45699" lon="2.68823">
        <ele>57.17203376</ele>
        <time>2017-09-03T07:43:11Z</time>
      </trkpt>
      <trkpt lat="50.45676" lon="2.68811">
        <ele>56.17297772</ele>
        <time>2017-09-03T07:43:15Z</time>
      </trkpt>
      <trkpt lat="50.45655" lon="2.68799">
        <ele>56.17379108</ele>
        <time>2017-09-03T07:43:19Z</time>
      </trkpt>
      <trkpt lat="50.45632" lon="2.68784">
        <ele>56.17473792</ele>
        <time>2017-09-03T07:43:24Z</time>
      </trkpt>
      <trkpt lat="50.45607" lon="2.68767">
        <ele>56.1757418</ele>
        <time>2017-09-03T07:43:29Z</time>
      </trkpt>
      <trkpt lat="50.45589" lon="2.68752">
        <ele>56.17645444</ele>
        <time>2017-09-03T07:43:33Z</time>
      </trkpt>
      <trkpt lat="50.45571" lon="2.6873">
        <ele>56.1771458</ele>
        <time>2017-09-03T07:43:38Z</time>
      </trkpt>
      <trkpt lat="50.45561" lon="2.68716">
        <ele>56.17757936</ele>
        <time>2017-09-03T07:43:41Z</time>
      </trkpt>
      <trkpt lat="50.45542" lon="2.68695">
        <ele>56.17832936</ele>
        <time>2017-09-03T07:43:46Z</time>
      </trkpt>
      <trkpt lat="50.45527" lon="2.68677">
        <ele>56.1789048</ele>
        <time>2017-09-03T07:43:50Z</time>
      </trkpt>
      <trkpt lat="50.45515" lon="2.68663">
        <ele>56.17938368</ele>
        <time>2017-09-03T07:43:53Z</time>
      </trkpt>
      <trkpt lat="50.455" lon="2.68645">
        <ele>55.18000848</ele>
        <time>2017-09-03T07:43:57Z</time>
      </trkpt>
      <trkpt lat="50.45485" lon="2.68624">
        <ele>55.18061548</ele>
        <time>2017-09-03T07:44:01Z</time>
      </trkpt>
      <trkpt lat="50.45465" lon="2.68599">
        <ele>55.18140112</ele>
        <time>2017-09-03T07:44:06Z</time>
      </trkpt>
      <trkpt lat="50.45451" lon="2.68577">
        <ele>54.18194312</ele>
        <time>2017-09-03T07:44:10Z</time>
      </trkpt>
      <trkpt lat="50.45433" lon="2.68551">
        <ele>54.18267632</ele>
        <time>2017-09-03T07:44:15Z</time>
      </trkpt>
      <trkpt lat="50.45418" lon="2.68533">
        <ele>54.183285</ele>
        <time>2017-09-03T07:44:19Z</time>
      </trkpt>
      <trkpt lat="50.45398" lon="2.68511">
        <ele>54.18408632</ele>
        <time>2017-09-03T07:44:24Z</time>
      </trkpt>
      <trkpt lat="50.45384" lon="2.685">
        <ele>53.18464936</ele>
        <time>2017-09-03T07:44:28Z</time>
      </trkpt>
      <trkpt lat="50.45376" lon="2.68494">
        <ele>53.18494232</ele>
        <time>2017-09-03T07:44:32Z</time>
      </trkpt>
      <trkpt lat="50.45366" lon="2.68489">
        <ele>56.18537508</ele>
        <time>2017-09-03T07:44:36Z</time>
      </trkpt>
      <trkpt lat="50.45352" lon="2.68477">
        <ele>55.1859168</ele>
        <time>2017-09-03T07:44:40Z</time>
      </trkpt>
      <trkpt lat="50.45337" lon="2.68463">
        <ele>55.18650216</ele>
        <time>2017-09-03T07:44:44Z</time>
      </trkpt>
      <trkpt lat="50.4532" lon="2.68447">
        <ele>55.18719768</ele>
        <time>2017-09-03T07:44:49Z</time>
      </trkpt>
      <trkpt lat="50.45304" lon="2.68435">
        <ele>55.18782368</ele>
        <time>2017-09-03T07:44:53Z</time>
      </trkpt>
      <trkpt lat="50.45284" lon="2.68419">
        <ele>55.188633</ele>
        <time>2017-09-03T07:44:58Z</time>
      </trkpt>
      <trkpt lat="50.45269" lon="2.68406">
        <ele>54.18926092</ele>
        <time>2017-09-03T07:45:02Z</time>
      </trkpt>
      <trkpt lat="50.45249" lon="2.6839">
        <ele>55.19005152</ele>
        <time>2017-09-03T07:45:07Z</time>
      </trkpt>
      <trkpt lat="50.45233" lon="2.68377">
        <ele>54.1906668</ele>
        <time>2017-09-03T07:45:11Z</time>
      </trkpt>
      <trkpt lat="50.45227" lon="2.68359">
        <ele>55.19092892</ele>
        <time>2017-09-03T07:45:15Z</time>
      </trkpt>
      <trkpt lat="50.45233" lon="2.68332">
        <ele>55.19066368</ele>
        <time>2017-09-03T07:45:19Z</time>
      </trkpt>
      <trkpt lat="50.4524" lon="2.68305">
        <ele>55.19041968</ele>
        <time>2017-09-03T07:45:23Z</time>
      </trkpt>
      <trkpt lat="50.45247" lon="2.6827">
        <ele>55.1901272</ele>
        <time>2017-09-03T07:45:28Z</time>
      </trkpt>
      <trkpt lat="50.45253" lon="2.68242">
        <ele>56.18989308</ele>
        <time>2017-09-03T07:45:32Z</time>
      </trkpt>
      <trkpt lat="50.45264" lon="2.6821">
        <ele>57.18945004</ele>
        <time>2017-09-03T07:45:37Z</time>
      </trkpt>
      <trkpt lat="50.45276" lon="2.68185">
        <ele>57.18897244</ele>
        <time>2017-09-03T07:45:41Z</time>
      </trkpt>
      <trkpt lat="50.45291" lon="2.68153">
        <ele>58.18835932</ele>
        <time>2017-09-03T07:45:46Z</time>
      </trkpt>
      <trkpt lat="50.45304" lon="2.68128">
        <ele>58.1878482</ele>
        <time>2017-09-03T07:45:50Z</time>
      </trkpt>
      <trkpt lat="50.45319" lon="2.68097">
        <ele>57.18723904</ele>
        <time>2017-09-03T07:45:55Z</time>
      </trkpt>
      <trkpt lat="50.45333" lon="2.68071">
        <ele>57.18666716</ele>
        <time>2017-09-03T07:45:59Z</time>
      </trkpt>
      <trkpt lat="50.4535" lon="2.68041">
        <ele>57.1860126</ele>
        <time>2017-09-03T07:46:04Z</time>
      </trkpt>
      <trkpt lat="50.45365" lon="2.6801">
        <ele>58.18540128</ele>
        <time>2017-09-03T07:46:09Z</time>
      </trkpt>
      <trkpt lat="50.45377" lon="2.67983">
        <ele>58.18492896</ele>
        <time>2017-09-03T07:46:13Z</time>
      </trkpt>
      <trkpt lat="50.45387" lon="2.67947">
        <ele>59.18451772</ele>
        <time>2017-09-03T07:46:18Z</time>
      </trkpt>
      <trkpt lat="50.45394" lon="2.67918">
        <ele>60.18425992</ele>
        <time>2017-09-03T07:46:22Z</time>
      </trkpt>
      <trkpt lat="50.454" lon="2.67881">
        <ele>61.18400856</ele>
        <time>2017-09-03T07:46:27Z</time>
      </trkpt>
      <trkpt lat="50.45403" lon="2.67858">
        <ele>62.18387448</ele>
        <time>2017-09-03T07:46:31Z</time>
      </trkpt>
      <trkpt lat="50.45408" lon="2.67819">
        <ele>63.1836692</ele>
        <time>2017-09-03T07:46:35Z</time>
      </trkpt>
      <trkpt lat="50.45412" lon="2.67788">
        <ele>63.18351316</ele>
        <time>2017-09-03T07:46:39Z</time>
      </trkpt>
      <trkpt lat="50.45415" lon="2.67749">
        <ele>64.18338516</ele>
        <time>2017-09-03T07:46:44Z</time>
      </trkpt>
      <trkpt lat="50.45421" lon="2.6771">
        <ele>64.18317312</ele>
        <time>2017-09-03T07:46:49Z</time>
      </trkpt>
      <trkpt lat="50.45426" lon="2.67677">
        <ele>65.18295308</ele>
        <time>2017-09-03T07:46:53Z</time>
      </trkpt>
      <trkpt lat="50.45437" lon="2.67638">
        <ele>65.1825162</ele>
        <time>2017-09-03T07:46:58Z</time>
      </trkpt>
      <trkpt lat="50.45448" lon="2.67595">
        <ele>64.18209784</ele>
        <time>2017-09-03T07:47:03Z</time>
      </trkpt>
      <trkpt lat="50.45459" lon="2.67549">
        <ele>64.18165456</ele>
        <time>2017-09-03T07:47:08Z</time>
      </trkpt>
      <trkpt lat="50.45466" lon="2.67512">
        <ele>63.18134504</ele>
        <time>2017-09-03T07:47:12Z</time>
      </trkpt>
      <trkpt lat="50.45474" lon="2.67475">
        <ele>62.18103876</ele>
        <time>2017-09-03T07:47:16Z</time>
      </trkpt>
      <trkpt lat="50.45485" lon="2.6743">
        <ele>60.1806088</ele>
        <time>2017-09-03T07:47:21Z</time>
      </trkpt>
      <trkpt lat="50.45501" lon="2.67384">
        <ele>59.17995104</ele>
        <time>2017-09-03T07:47:26Z</time>
      </trkpt>
      <trkpt lat="50.45514" lon="2.67348">
        <ele>59.17943356</ele>
        <time>2017-09-03T07:47:30Z</time>
      </trkpt>
      <trkpt lat="50.45525" lon="2.67309">
        <ele>58.17900032</ele>
        <time>2017-09-03T07:47:34Z</time>
      </trkpt>
      <trkpt lat="50.45534" lon="2.6727">
        <ele>56.17864616</ele>
        <time>2017-09-03T07:47:38Z</time>
      </trkpt>
      <trkpt lat="50.45542" lon="2.6723">
        <ele>56.17833608</ele>
        <time>2017-09-03T07:47:42Z</time>
      </trkpt>
      <trkpt lat="50.45551" lon="2.6718">
        <ele>55.17796096</ele>
        <time>2017-09-03T07:47:47Z</time>
      </trkpt>
      <trkpt lat="50.45557" lon="2.67141">
        <ele>55.17772692</ele>
        <time>2017-09-03T07:47:51Z</time>
      </trkpt>
      <trkpt lat="50.45561" lon="2.67094">
        <ele>54.17756788</ele>
        <time>2017-09-03T07:47:56Z</time>
      </trkpt>
      <trkpt lat="50.4556" lon="2.67046">
        <ele>54.17760072</ele>
        <time>2017-09-03T07:48:01Z</time>
      </trkpt>
      <trkpt lat="50.45548" lon="2.67015">
        <ele>54.17807292</ele>
        <time>2017-09-03T07:48:05Z</time>
      </trkpt>
      <trkpt lat="50.45532" lon="2.66989">
        <ele>53.17870692</ele>
        <time>2017-09-03T07:48:10Z</time>
      </trkpt>
      <trkpt lat="50.45521" lon="2.66967">
        <ele>53.17916256</ele>
        <time>2017-09-03T07:48:14Z</time>
      </trkpt>
      <trkpt lat="50.45511" lon="2.66944">
        <ele>54.17954864</ele>
        <time>2017-09-03T07:48:18Z</time>
      </trkpt>
      <trkpt lat="50.45499" lon="2.66919">
        <ele>52.18003996</ele>
        <time>2017-09-03T07:48:22Z</time>
      </trkpt>
      <trkpt lat="50.45484" lon="2.66889">
        <ele>52.18064744</ele>
        <time>2017-09-03T07:48:27Z</time>
      </trkpt>
      <trkpt lat="50.45471" lon="2.66864">
        <ele>53.18115056</ele>
        <time>2017-09-03T07:48:31Z</time>
      </trkpt>
      <trkpt lat="50.45459" lon="2.66841">
        <ele>54.18162276</ele>
        <time>2017-09-03T07:48:35Z</time>
      </trkpt>
      <trkpt lat="50.45446" lon="2.66818">
        <ele>54.182156</ele>
        <time>2017-09-03T07:48:39Z</time>
      </trkpt>
      <trkpt lat="50.4543" lon="2.66787">
        <ele>54.1828204</ele>
        <time>2017-09-03T07:48:44Z</time>
      </trkpt>
      <trkpt lat="50.45408" lon="2.66766">
        <ele>55.18368588</ele>
        <time>2017-09-03T07:48:49Z</time>
      </trkpt>
      <trkpt lat="50.45395" lon="2.66745">
        <ele>56.18419312</ele>
        <time>2017-09-03T07:48:53Z</time>
      </trkpt>
      <trkpt lat="50.45385" lon="2.66716">
        <ele>56.18460088</ele>
        <time>2017-09-03T07:48:58Z</time>
      </trkpt>
      <trkpt lat="50.45368" lon="2.66702">
        <ele>55.18529344</ele>
        <time>2017-09-03T07:49:02Z</time>
      </trkpt>
      <trkpt lat="50.45347" lon="2.66677">
        <ele>56.186128</ele>
        <time>2017-09-03T07:49:07Z</time>
      </trkpt>
      <trkpt lat="50.45327" lon="2.66649">
        <ele>56.18693336</ele>
        <time>2017-09-03T07:49:12Z</time>
      </trkpt>
      <trkpt lat="50.45311" lon="2.66627">
        <ele>56.187555</ele>
        <time>2017-09-03T07:49:16Z</time>
      </trkpt>
      <trkpt lat="50.45292" lon="2.66598">
        <ele>57.188319</ele>
        <time>2017-09-03T07:49:21Z</time>
      </trkpt>
      <trkpt lat="50.45277" lon="2.66577">
        <ele>57.18893228</ele>
        <time>2017-09-03T07:49:25Z</time>
      </trkpt>
      <trkpt lat="50.45257" lon="2.66553">
        <ele>60.18973544</ele>
        <time>2017-09-03T07:49:30Z</time>
      </trkpt>
      <trkpt lat="50.45238" lon="2.66529">
        <ele>60.190467</ele>
        <time>2017-09-03T07:49:35Z</time>
      </trkpt>
      <trkpt lat="50.45223" lon="2.6651">
        <ele>59.19109528</ele>
        <time>2017-09-03T07:49:39Z</time>
      </trkpt>
      <trkpt lat="50.45206" lon="2.66495">
        <ele>59.19177468</ele>
        <time>2017-09-03T07:49:43Z</time>
      </trkpt>
      <trkpt lat="50.45184" lon="2.66477">
        <ele>61.19264688</ele>
        <time>2017-09-03T07:49:48Z</time>
      </trkpt>
      <trkpt lat="50.45166" lon="2.66466">
        <ele>62.19337212</ele>
        <time>2017-09-03T07:49:52Z</time>
      </trkpt>
      <trkpt lat="50.45148" lon="2.66454">
        <ele>63.1940856</ele>
        <time>2017-09-03T07:49:56Z</time>
      </trkpt>
      <trkpt lat="50.45125" lon="2.66441">
        <ele>63.19501568</ele>
        <time>2017-09-03T07:50:01Z</time>
      </trkpt>
      <trkpt lat="50.45106" lon="2.66431">
        <ele>64.195759</ele>
        <time>2017-09-03T07:50:05Z</time>
      </trkpt>
      <trkpt lat="50.45083" lon="2.66416">
        <ele>65.19666684</ele>
        <time>2017-09-03T07:50:10Z</time>
      </trkpt>
      <trkpt lat="50.45065" lon="2.66406">
        <ele>65.1974118</ele>
        <time>2017-09-03T07:50:14Z</time>
      </trkpt>
      <trkpt lat="50.45046" lon="2.66396">
        <ele>65.19816936</ele>
        <time>2017-09-03T07:50:18Z</time>
      </trkpt>
      <trkpt lat="50.45027" lon="2.66388">
        <ele>66.19892324</ele>
        <time>2017-09-03T07:50:22Z</time>
      </trkpt>
      <trkpt lat="50.45008" lon="2.6638">
        <ele>67.19969964</ele>
        <time>2017-09-03T07:50:26Z</time>
      </trkpt>
      <trkpt lat="50.44983" lon="2.66369">
        <ele>67.2006676</ele>
        <time>2017-09-03T07:50:31Z</time>
      </trkpt>
      <trkpt lat="50.44963" lon="2.66361">
        <ele>68.20147208</ele>
        <time>2017-09-03T07:50:35Z</time>
      </trkpt>
      <trkpt lat="50.44939" lon="2.66351">
        <ele>69.20244836</ele>
        <time>2017-09-03T07:50:40Z</time>
      </trkpt>
      <trkpt lat="50.44919" lon="2.66343">
        <ele>69.20324764</ele>
        <time>2017-09-03T07:50:44Z</time>
      </trkpt>
      <trkpt lat="50.44899" lon="2.66334">
        <ele>70.20404208</ele>
        <time>2017-09-03T07:50:48Z</time>
      </trkpt>
      <trkpt lat="50.44874" lon="2.66325">
        <ele>70.20502272</ele>
        <time>2017-09-03T07:50:53Z</time>
      </trkpt>
      <trkpt lat="50.44855" lon="2.66318">
        <ele>71.20578656</ele>
        <time>2017-09-03T07:50:57Z</time>
      </trkpt>
      <trkpt lat="50.44833" lon="2.6631">
        <ele>71.20669484</ele>
        <time>2017-09-03T07:51:02Z</time>
      </trkpt>
      <trkpt lat="50.44809" lon="2.66302">
        <ele>72.20765916</ele>
        <time>2017-09-03T07:51:07Z</time>
      </trkpt>
      <trkpt lat="50.44784" lon="2.66294">
        <ele>72.20862652</ele>
        <time>2017-09-03T07:51:12Z</time>
      </trkpt>
      <trkpt lat="50.44765" lon="2.66288">
        <ele>72.20941856</ele>
        <time>2017-09-03T07:51:16Z</time>
      </trkpt>
      <trkpt lat="50.4474" lon="2.66282">
        <ele>71.2104186</ele>
        <time>2017-09-03T07:51:21Z</time>
      </trkpt>
      <trkpt lat="50.44719" lon="2.66278">
        <ele>71.21123928</ele>
        <time>2017-09-03T07:51:25Z</time>
      </trkpt>
      <trkpt lat="50.44693" lon="2.66271">
        <ele>69.21227364</ele>
        <time>2017-09-03T07:51:30Z</time>
      </trkpt>
      <trkpt lat="50.44673" lon="2.66264">
        <ele>70.21306356</ele>
        <time>2017-09-03T07:51:34Z</time>
      </trkpt>
      <trkpt lat="50.44654" lon="2.66253">
        <ele>71.21383084</ele>
        <time>2017-09-03T07:51:38Z</time>
      </trkpt>
      <trkpt lat="50.44635" lon="2.66242">
        <ele>71.21459268</ele>
        <time>2017-09-03T07:51:42Z</time>
      </trkpt>
      <trkpt lat="50.44621" lon="2.66234">
        <ele>71.2151686</ele>
        <time>2017-09-03T07:51:45Z</time>
      </trkpt>
      <trkpt lat="50.44599" lon="2.66217">
        <ele>71.21603956</ele>
        <time>2017-09-03T07:51:50Z</time>
      </trkpt>
      <trkpt lat="50.44582" lon="2.66201">
        <ele>72.21672756</ele>
        <time>2017-09-03T07:51:54Z</time>
      </trkpt>
      <trkpt lat="50.44567" lon="2.66183">
        <ele>73.21731668</ele>
        <time>2017-09-03T07:51:58Z</time>
      </trkpt>
      <trkpt lat="50.44552" lon="2.66166">
        <ele>73.21792404</ele>
        <time>2017-09-03T07:52:02Z</time>
      </trkpt>
      <trkpt lat="50.44545" lon="2.66149">
        <ele>73.2181964</ele>
        <time>2017-09-03T07:52:06Z</time>
      </trkpt>
      <trkpt lat="50.4454" lon="2.66136">
        <ele>73.21841568</ele>
        <time>2017-09-03T07:52:11Z</time>
      </trkpt>
      <trkpt lat="50.44532" lon="2.66129">
        <ele>73.218713</ele>
        <time>2017-09-03T07:52:15Z</time>
      </trkpt>
      <trkpt lat="50.44523" lon="2.66122">
        <ele>74.21908944</ele>
        <time>2017-09-03T07:52:19Z</time>
      </trkpt>
      <trkpt lat="50.44509" lon="2.66107">
        <ele>75.21963008</ele>
        <time>2017-09-03T07:52:24Z</time>
      </trkpt>
      <trkpt lat="50.44499" lon="2.66092">
        <ele>77.2200552</ele>
        <time>2017-09-03T07:52:28Z</time>
      </trkpt>
      <trkpt lat="50.44484" lon="2.66071">
        <ele>77.2206252</ele>
        <time>2017-09-03T07:52:33Z</time>
      </trkpt>
      <trkpt lat="50.44479" lon="2.6605">
        <ele>74.2208518</ele>
        <time>2017-09-03T07:52:37Z</time>
      </trkpt>
      <trkpt lat="50.44475" lon="2.66033">
        <ele>75.22101228</ele>
        <time>2017-09-03T07:52:41Z</time>
      </trkpt>
      <trkpt lat="50.44469" lon="2.66013">
        <ele>74.22122912</ele>
        <time>2017-09-03T07:52:45Z</time>
      </trkpt>
      <trkpt lat="50.4446" lon="2.65989">
        <ele>75.22160012</ele>
        <time>2017-09-03T07:52:49Z</time>
      </trkpt>
      <trkpt lat="50.44451" lon="2.65956">
        <ele>76.22194396</ele>
        <time>2017-09-03T07:52:54Z</time>
      </trkpt>
      <trkpt lat="50.44446" lon="2.65927">
        <ele>73.22216936</ele>
        <time>2017-09-03T07:52:58Z</time>
      </trkpt>
      <trkpt lat="50.44441" lon="2.65909">
        <ele>75.22236656</ele>
        <time>2017-09-03T07:53:02Z</time>
      </trkpt>
      <trkpt lat="50.44433" lon="2.65895">
        <ele>77.22269512</ele>
        <time>2017-09-03T07:53:06Z</time>
      </trkpt>
      <trkpt lat="50.44428" lon="2.65889">
        <ele>79.22289204</ele>
        <time>2017-09-03T07:53:11Z</time>
      </trkpt>
      <trkpt lat="50.44421" lon="2.65882">
        <ele>79.22316704</ele>
        <time>2017-09-03T07:53:16Z</time>
      </trkpt>
      <trkpt lat="50.44413" lon="2.65881">
        <ele>81.2234828</ele>
        <time>2017-09-03T07:53:21Z</time>
      </trkpt>
      <trkpt lat="50.44404" lon="2.65879">
        <ele>82.2238268</ele>
        <time>2017-09-03T07:53:42Z</time>
      </trkpt>
      <trkpt lat="50.44396" lon="2.65873">
        <ele>85.2241464</ele>
        <time>2017-09-03T07:53:47Z</time>
      </trkpt>
      <trkpt lat="50.44389" lon="2.65867">
        <ele>85.22445968</ele>
        <time>2017-09-03T07:53:52Z</time>
      </trkpt>
      <trkpt lat="50.44383" lon="2.65858">
        <ele>85.22467848</ele>
        <time>2017-09-03T07:54:04Z</time>
      </trkpt>
      <trkpt lat="50.44377" lon="2.65849">
        <ele>85.22492032</ele>
        <time>2017-09-03T07:54:09Z</time>
      </trkpt>
      <trkpt lat="50.44367" lon="2.65839">
        <ele>86.22532656</ele>
        <time>2017-09-03T07:54:14Z</time>
      </trkpt>
      <trkpt lat="50.44358" lon="2.6583">
        <ele>85.22567192</ele>
        <time>2017-09-03T07:54:18Z</time>
      </trkpt>
      <trkpt lat="50.44345" lon="2.65821">
        <ele>86.22618644</ele>
        <time>2017-09-03T07:54:23Z</time>
      </trkpt>
      <trkpt lat="50.44332" lon="2.65818">
        <ele>87.2267028</ele>
        <time>2017-09-03T07:54:27Z</time>
      </trkpt>
      <trkpt lat="50.44315" lon="2.65817">
        <ele>86.22742008</ele>
        <time>2017-09-03T07:54:32Z</time>
      </trkpt>
      <trkpt lat="50.44303" lon="2.6582">
        <ele>86.22789304</ele>
        <time>2017-09-03T07:54:35Z</time>
      </trkpt>
      <trkpt lat="50.44287" lon="2.65824">
        <ele>87.22852096</ele>
        <time>2017-09-03T07:54:39Z</time>
      </trkpt>
      <trkpt lat="50.44269" lon="2.65833">
        <ele>87.22922356</ele>
        <time>2017-09-03T07:54:44Z</time>
      </trkpt>
      <trkpt lat="50.44258" lon="2.65842">
        <ele>87.2296804</ele>
        <time>2017-09-03T07:54:49Z</time>
      </trkpt>
      <trkpt lat="50.4425" lon="2.65849">
        <ele>89.23000412</ele>
        <time>2017-09-03T07:54:54Z</time>
      </trkpt>
      <trkpt lat="50.44243" lon="2.6586">
        <ele>90.2302872</ele>
        <time>2017-09-03T07:54:58Z</time>
      </trkpt>
      <trkpt lat="50.44235" lon="2.65872">
        <ele>91.23061492</ele>
        <time>2017-09-03T07:55:03Z</time>
      </trkpt>
      <trkpt lat="50.44241" lon="2.65866">
        <ele>91.23035444</ele>
        <time>2017-09-03T07:55:23Z</time>
      </trkpt>
      <trkpt lat="50.44255" lon="2.65849">
        <ele>91.22981472</ele>
        <time>2017-09-03T07:55:27Z</time>
      </trkpt>
      <trkpt lat="50.44275" lon="2.65834">
        <ele>89.22901868</ele>
        <time>2017-09-03T07:55:32Z</time>
      </trkpt>
      <trkpt lat="50.44293" lon="2.65825">
        <ele>89.22828508</ele>
        <time>2017-09-03T07:55:36Z</time>
      </trkpt>
      <trkpt lat="50.44303" lon="2.65825">
        <ele>89.22787448</ele>
        <time>2017-09-03T07:55:40Z</time>
      </trkpt>
      <trkpt lat="50.44302" lon="2.65839">
        <ele>89.22793524</ele>
        <time>2017-09-03T07:55:47Z</time>
      </trkpt>
      <trkpt lat="50.44304" lon="2.65858">
        <ele>85.2278576</ele>
        <time>2017-09-03T07:55:52Z</time>
      </trkpt>
      <trkpt lat="50.44313" lon="2.65893">
        <ele>83.22747108</ele>
        <time>2017-09-03T07:55:56Z</time>
      </trkpt>
      <trkpt lat="50.44324" lon="2.65912">
        <ele>82.2270472</ele>
        <time>2017-09-03T07:56:00Z</time>
      </trkpt>
      <trkpt lat="50.4433" lon="2.65905">
        <ele>82.22680704</ele>
        <time>2017-09-03T07:56:04Z</time>
      </trkpt>
      <trkpt lat="50.44331" lon="2.65883">
        <ele>81.22676088</ele>
        <time>2017-09-03T07:56:09Z</time>
      </trkpt>
      <trkpt lat="50.44336" lon="2.65865">
        <ele>83.22655744</ele>
        <time>2017-09-03T07:56:14Z</time>
      </trkpt>
      <trkpt lat="50.44339" lon="2.65854">
        <ele>85.22644796</ele>
        <time>2017-09-03T07:56:18Z</time>
      </trkpt>
      <trkpt lat="50.44343" lon="2.65841">
        <ele>88.22629968</ele>
        <time>2017-09-03T07:56:24Z</time>
      </trkpt>
      <trkpt lat="50.44349" lon="2.65833">
        <ele>89.22604564</ele>
        <time>2017-09-03T07:56:29Z</time>
      </trkpt>
      <trkpt lat="50.44359" lon="2.65836">
        <ele>91.22563308</ele>
        <time>2017-09-03T07:56:34Z</time>
      </trkpt>
      <trkpt lat="50.44367" lon="2.65833">
        <ele>91.22531828</ele>
        <time>2017-09-03T07:56:38Z</time>
      </trkpt>
      <trkpt lat="50.44379" lon="2.65823">
        <ele>88.22485956</ele>
        <time>2017-09-03T07:56:43Z</time>
      </trkpt>
      <trkpt lat="50.44392" lon="2.65811">
        <ele>84.22430976</ele>
        <time>2017-09-03T07:56:48Z</time>
      </trkpt>
      <trkpt lat="50.44389" lon="2.65796">
        <ele>84.2244416</ele>
        <time>2017-09-03T07:56:53Z</time>
      </trkpt>
      <trkpt lat="50.44384" lon="2.65784">
        <ele>83.22462508</ele>
        <time>2017-09-03T07:56:57Z</time>
      </trkpt>
      <trkpt lat="50.44379" lon="2.65768">
        <ele>83.2248316</ele>
        <time>2017-09-03T07:57:02Z</time>
      </trkpt>
      <trkpt lat="50.44379" lon="2.65756">
        <ele>86.22485896</ele>
        <time>2017-09-03T07:57:09Z</time>
      </trkpt>
      <trkpt lat="50.44379" lon="2.65744">
        <ele>84.22484324</ele>
        <time>2017-09-03T07:57:14Z</time>
      </trkpt>
      <trkpt lat="50.44383" lon="2.65731">
        <ele>87.22468488</ele>
        <time>2017-09-03T07:57:18Z</time>
      </trkpt>
      <trkpt lat="50.44378" lon="2.65713">
        <ele>82.22488476</ele>
        <time>2017-09-03T07:57:22Z</time>
      </trkpt>
      <trkpt lat="50.44376" lon="2.65694">
        <ele>81.22495976</ele>
        <time>2017-09-03T07:57:26Z</time>
      </trkpt>
      <trkpt lat="50.44365" lon="2.6566">
        <ele>81.22538356</ele>
        <time>2017-09-03T07:57:31Z</time>
      </trkpt>
      <trkpt lat="50.44358" lon="2.65627">
        <ele>82.22568348</ele>
        <time>2017-09-03T07:57:36Z</time>
      </trkpt>
      <trkpt lat="50.44356" lon="2.65599">
        <ele>81.22578012</ele>
        <time>2017-09-03T07:57:40Z</time>
      </trkpt>
      <trkpt lat="50.4435" lon="2.65568">
        <ele>82.22600916</ele>
        <time>2017-09-03T07:57:45Z</time>
      </trkpt>
      <trkpt lat="50.44346" lon="2.65542">
        <ele>81.22617308</ele>
        <time>2017-09-03T07:57:49Z</time>
      </trkpt>
      <trkpt lat="50.4434" lon="2.65507">
        <ele>79.22640476</ele>
        <time>2017-09-03T07:57:54Z</time>
      </trkpt>
      <trkpt lat="50.44335" lon="2.65475">
        <ele>79.2266006</ele>
        <time>2017-09-03T07:57:58Z</time>
      </trkpt>
      <trkpt lat="50.4433" lon="2.65446">
        <ele>79.22680108</ele>
        <time>2017-09-03T07:58:02Z</time>
      </trkpt>
      <trkpt lat="50.44329" lon="2.65418">
        <ele>80.22684376</ele>
        <time>2017-09-03T07:58:06Z</time>
      </trkpt>
      <trkpt lat="50.44332" lon="2.65388">
        <ele>81.22672736</ele>
        <time>2017-09-03T07:58:10Z</time>
      </trkpt>
      <trkpt lat="50.44338" lon="2.65351">
        <ele>82.22648848</ele>
        <time>2017-09-03T07:58:15Z</time>
      </trkpt>
      <trkpt lat="50.4434" lon="2.65328">
        <ele>87.22641276</ele>
        <time>2017-09-03T07:58:19Z</time>
      </trkpt>
      <trkpt lat="50.44343" lon="2.65289">
        <ele>86.2262658</ele>
        <time>2017-09-03T07:58:24Z</time>
      </trkpt>
      <trkpt lat="50.44349" lon="2.65259">
        <ele>86.22603456</ele>
        <time>2017-09-03T07:58:28Z</time>
      </trkpt>
      <trkpt lat="50.44353" lon="2.65224">
        <ele>85.22586536</ele>
        <time>2017-09-03T07:58:33Z</time>
      </trkpt>
      <trkpt lat="50.44358" lon="2.65194">
        <ele>85.22569996</ele>
        <time>2017-09-03T07:58:37Z</time>
      </trkpt>
      <trkpt lat="50.44364" lon="2.65163">
        <ele>84.22545516</ele>
        <time>2017-09-03T07:58:41Z</time>
      </trkpt>
      <trkpt lat="50.44369" lon="2.65122">
        <ele>86.22525732</ele>
        <time>2017-09-03T07:58:46Z</time>
      </trkpt>
      <trkpt lat="50.44371" lon="2.65089">
        <ele>87.22516844</ele>
        <time>2017-09-03T07:58:50Z</time>
      </trkpt>
      <trkpt lat="50.44377" lon="2.65048">
        <ele>86.22492356</ele>
        <time>2017-09-03T07:58:55Z</time>
      </trkpt>
      <trkpt lat="50.44383" lon="2.65017">
        <ele>87.22469196</ele>
        <time>2017-09-03T07:58:59Z</time>
      </trkpt>
      <trkpt lat="50.44388" lon="2.64976">
        <ele>86.2244986</ele>
        <time>2017-09-03T07:59:04Z</time>
      </trkpt>
      <trkpt lat="50.4439" lon="2.64936">
        <ele>85.22438564</ele>
        <time>2017-09-03T07:59:09Z</time>
      </trkpt>
      <trkpt lat="50.44396" lon="2.64898">
        <ele>85.22415528</ele>
        <time>2017-09-03T07:59:14Z</time>
      </trkpt>
      <trkpt lat="50.44404" lon="2.64852">
        <ele>82.22384104</ele>
        <time>2017-09-03T07:59:19Z</time>
      </trkpt>
      <trkpt lat="50.44413" lon="2.64818">
        <ele>81.22349136</ele>
        <time>2017-09-03T07:59:23Z</time>
      </trkpt>
      <trkpt lat="50.44422" lon="2.64784">
        <ele>80.22312652</ele>
        <time>2017-09-03T07:59:27Z</time>
      </trkpt>
      <trkpt lat="50.4443" lon="2.64749">
        <ele>80.22279968</ele>
        <time>2017-09-03T07:59:31Z</time>
      </trkpt>
      <trkpt lat="50.44442" lon="2.64709">
        <ele>82.22233108</ele>
        <time>2017-09-03T07:59:36Z</time>
      </trkpt>
      <trkpt lat="50.44443" lon="2.64693">
        <ele>84.22227224</ele>
        <time>2017-09-03T07:59:38Z</time>
      </trkpt>
      <trkpt lat="50.44454" lon="2.64651">
        <ele>79.22183668</ele>
        <time>2017-09-03T07:59:43Z</time>
      </trkpt>
      <trkpt lat="50.44466" lon="2.64621">
        <ele>78.22136212</ele>
        <time>2017-09-03T07:59:47Z</time>
      </trkpt>
      <trkpt lat="50.44474" lon="2.64592">
        <ele>78.22104292</ele>
        <time>2017-09-03T07:59:51Z</time>
      </trkpt>
      <trkpt lat="50.44484" lon="2.64551">
        <ele>79.22062604</ele>
        <time>2017-09-03T07:59:56Z</time>
      </trkpt>
      <trkpt lat="50.44497" lon="2.6451">
        <ele>78.22012768</ele>
        <time>2017-09-03T08:00:01Z</time>
      </trkpt>
      <trkpt lat="50.44507" lon="2.64479">
        <ele>79.21973448</ele>
        <time>2017-09-03T08:00:05Z</time>
      </trkpt>
      <trkpt lat="50.44519" lon="2.64439">
        <ele>79.21922556</ele>
        <time>2017-09-03T08:00:10Z</time>
      </trkpt>
      <trkpt lat="50.4453" lon="2.6441">
        <ele>76.21879064</ele>
        <time>2017-09-03T08:00:15Z</time>
      </trkpt>
      <trkpt lat="50.44522" lon="2.64395">
        <ele>76.21912884</ele>
        <time>2017-09-03T08:00:19Z</time>
      </trkpt>
      <trkpt lat="50.44506" lon="2.64382">
        <ele>77.21977208</ele>
        <time>2017-09-03T08:00:23Z</time>
      </trkpt>
      <trkpt lat="50.4449" lon="2.64368">
        <ele>79.22042196</ele>
        <time>2017-09-03T08:00:27Z</time>
      </trkpt>
      <trkpt lat="50.44468" lon="2.6435">
        <ele>78.2212638</ele>
        <time>2017-09-03T08:00:32Z</time>
      </trkpt>
      <trkpt lat="50.44446" lon="2.64332">
        <ele>78.2221498</ele>
        <time>2017-09-03T08:00:37Z</time>
      </trkpt>
      <trkpt lat="50.4443" lon="2.64316">
        <ele>78.22279384</ele>
        <time>2017-09-03T08:00:41Z</time>
      </trkpt>
      <trkpt lat="50.44412" lon="2.64297">
        <ele>80.22352572</ele>
        <time>2017-09-03T08:00:46Z</time>
      </trkpt>
      <trkpt lat="50.44392" lon="2.64278">
        <ele>80.2243376</ele>
        <time>2017-09-03T08:00:51Z</time>
      </trkpt>
      <trkpt lat="50.4437" lon="2.64259">
        <ele>80.22522064</ele>
        <time>2017-09-03T08:00:56Z</time>
      </trkpt>
      <trkpt lat="50.44354" lon="2.64247">
        <ele>80.22583784</ele>
        <time>2017-09-03T08:01:00Z</time>
      </trkpt>
      <trkpt lat="50.44339" lon="2.64236">
        <ele>80.22645756</ele>
        <time>2017-09-03T08:01:04Z</time>
      </trkpt>
      <trkpt lat="50.44329" lon="2.64227">
        <ele>79.22682436</ele>
        <time>2017-09-03T08:01:08Z</time>
      </trkpt>
      <trkpt lat="50.4432" lon="2.64235">
        <ele>79.22719832</ele>
        <time>2017-09-03T08:01:11Z</time>
      </trkpt>
      <trkpt lat="50.44307" lon="2.64256">
        <ele>78.22773992</ele>
        <time>2017-09-03T08:01:16Z</time>
      </trkpt>
      <trkpt lat="50.44294" lon="2.64248">
        <ele>80.22822548</ele>
        <time>2017-09-03T08:01:20Z</time>
      </trkpt>
      <trkpt lat="50.44289" lon="2.6424">
        <ele>80.22845652</ele>
        <time>2017-09-03T08:01:25Z</time>
      </trkpt>
      <trkpt lat="50.44277" lon="2.64223">
        <ele>78.22891412</ele>
        <time>2017-09-03T08:01:30Z</time>
      </trkpt>
      <trkpt lat="50.4427" lon="2.64214">
        <ele>83.22918452</ele>
        <time>2017-09-03T08:01:41Z</time>
      </trkpt>
      <trkpt lat="50.44265" lon="2.64206">
        <ele>80.22938616</ele>
        <time>2017-09-03T08:01:53Z</time>
      </trkpt>
      <trkpt lat="50.4425" lon="2.64191">
        <ele>81.22999568</ele>
        <time>2017-09-03T08:01:58Z</time>
      </trkpt>
      <trkpt lat="50.44236" lon="2.64177">
        <ele>81.23056608</ele>
        <time>2017-09-03T08:02:02Z</time>
      </trkpt>
      <trkpt lat="50.44222" lon="2.64161">
        <ele>81.23112424</ele>
        <time>2017-09-03T08:02:06Z</time>
      </trkpt>
      <trkpt lat="50.44208" lon="2.64146">
        <ele>83.2317008</ele>
        <time>2017-09-03T08:02:10Z</time>
      </trkpt>
      <trkpt lat="50.44191" lon="2.64124">
        <ele>84.23236828</ele>
        <time>2017-09-03T08:02:15Z</time>
      </trkpt>
      <trkpt lat="50.44177" lon="2.64105">
        <ele>85.2329334</ele>
        <time>2017-09-03T08:02:19Z</time>
      </trkpt>
      <trkpt lat="50.44164" lon="2.6408">
        <ele>85.23344908</ele>
        <time>2017-09-03T08:02:24Z</time>
      </trkpt>
      <trkpt lat="50.44155" lon="2.64054">
        <ele>86.23381044</ele>
        <time>2017-09-03T08:02:29Z</time>
      </trkpt>
      <trkpt lat="50.44145" lon="2.64023">
        <ele>87.23420644</ele>
        <time>2017-09-03T08:02:34Z</time>
      </trkpt>
      <trkpt lat="50.44136" lon="2.63999">
        <ele>87.23457588</ele>
        <time>2017-09-03T08:02:39Z</time>
      </trkpt>
      <trkpt lat="50.44131" lon="2.63982">
        <ele>87.23474456</ele>
        <time>2017-09-03T08:02:42Z</time>
      </trkpt>
      <trkpt lat="50.44122" lon="2.63963">
        <ele>89.235109</ele>
        <time>2017-09-03T08:02:47Z</time>
      </trkpt>
      <trkpt lat="50.44111" lon="2.63951">
        <ele>91.2355622</ele>
        <time>2017-09-03T08:02:51Z</time>
      </trkpt>
      <trkpt lat="50.44097" lon="2.63941">
        <ele>91.2361074</ele>
        <time>2017-09-03T08:02:55Z</time>
      </trkpt>
      <trkpt lat="50.44084" lon="2.63933">
        <ele>90.23663648</ele>
        <time>2017-09-03T08:02:59Z</time>
      </trkpt>
      <trkpt lat="50.44068" lon="2.63924">
        <ele>89.23729972</ele>
        <time>2017-09-03T08:03:04Z</time>
      </trkpt>
      <trkpt lat="50.44051" lon="2.6392">
        <ele>89.23794384</ele>
        <time>2017-09-03T08:03:08Z</time>
      </trkpt>
      <trkpt lat="50.44035" lon="2.63916">
        <ele>89.23861404</ele>
        <time>2017-09-03T08:03:12Z</time>
      </trkpt>
      <trkpt lat="50.44015" lon="2.63912">
        <ele>90.23940912</ele>
        <time>2017-09-03T08:03:17Z</time>
      </trkpt>
      <trkpt lat="50.44" lon="2.63903">
        <ele>91.2399896</ele>
        <time>2017-09-03T08:03:21Z</time>
      </trkpt>
      <trkpt lat="50.43986" lon="2.63891">
        <ele>91.24058028</ele>
        <time>2017-09-03T08:03:25Z</time>
      </trkpt>
      <trkpt lat="50.43972" lon="2.6388">
        <ele>92.241126</ele>
        <time>2017-09-03T08:03:29Z</time>
      </trkpt>
      <trkpt lat="50.43956" lon="2.63873">
        <ele>94.24175468</ele>
        <time>2017-09-03T08:03:33Z</time>
      </trkpt>
      <trkpt lat="50.43937" lon="2.63863">
        <ele>94.24251828</ele>
        <time>2017-09-03T08:03:38Z</time>
      </trkpt>
      <trkpt lat="50.43924" lon="2.63856">
        <ele>94.24304648</ele>
        <time>2017-09-03T08:03:42Z</time>
      </trkpt>
      <trkpt lat="50.43908" lon="2.63847">
        <ele>95.24369272</ele>
        <time>2017-09-03T08:03:47Z</time>
      </trkpt>
      <trkpt lat="50.43896" lon="2.63831">
        <ele>94.24415764</ele>
        <time>2017-09-03T08:03:51Z</time>
      </trkpt>
      <trkpt lat="50.43884" lon="2.63805">
        <ele>91.24466068</ele>
        <time>2017-09-03T08:03:56Z</time>
      </trkpt>
      <trkpt lat="50.43872" lon="2.63792">
        <ele>93.24513</ele>
        <time>2017-09-03T08:04:00Z</time>
      </trkpt>
      <trkpt lat="50.43865" lon="2.63779">
        <ele>94.24541788</ele>
        <time>2017-09-03T08:04:04Z</time>
      </trkpt>
      <trkpt lat="50.43849" lon="2.6376">
        <ele>97.24602452</ele>
        <time>2017-09-03T08:04:09Z</time>
      </trkpt>
      <trkpt lat="50.43838" lon="2.63746">
        <ele>97.2464734</ele>
        <time>2017-09-03T08:04:13Z</time>
      </trkpt>
      <trkpt lat="50.43825" lon="2.63728">
        <ele>101.24701964</ele>
        <time>2017-09-03T08:04:18Z</time>
      </trkpt>
      <trkpt lat="50.43816" lon="2.63716">
        <ele>103.2473756</ele>
        <time>2017-09-03T08:04:22Z</time>
      </trkpt>
      <trkpt lat="50.43801" lon="2.63698">
        <ele>102.24795452</ele>
        <time>2017-09-03T08:04:27Z</time>
      </trkpt>
      <trkpt lat="50.4379" lon="2.63683">
        <ele>107.2484122</ele>
        <time>2017-09-03T08:04:32Z</time>
      </trkpt>
      <trkpt lat="50.43779" lon="2.6367">
        <ele>108.24882772</ele>
        <time>2017-09-03T08:04:36Z</time>
      </trkpt>
      <trkpt lat="50.43767" lon="2.63657">
        <ele>103.24933388</ele>
        <time>2017-09-03T08:04:40Z</time>
      </trkpt>
      <trkpt lat="50.43752" lon="2.63648">
        <ele>103.24991316</ele>
        <time>2017-09-03T08:04:45Z</time>
      </trkpt>
      <trkpt lat="50.43742" lon="2.6364">
        <ele>108.25033176</ele>
        <time>2017-09-03T08:04:49Z</time>
      </trkpt>
      <trkpt lat="50.43728" lon="2.63632">
        <ele>108.25086856</ele>
        <time>2017-09-03T08:04:54Z</time>
      </trkpt>
      <trkpt lat="50.43714" lon="2.6362">
        <ele>104.25142844</ele>
        <time>2017-09-03T08:04:59Z</time>
      </trkpt>
      <trkpt lat="50.43704" lon="2.63607">
        <ele>102.25184608</ele>
        <time>2017-09-03T08:05:03Z</time>
      </trkpt>
      <trkpt lat="50.43693" lon="2.63592">
        <ele>102.2522736</ele>
        <time>2017-09-03T08:05:08Z</time>
      </trkpt>
      <trkpt lat="50.43681" lon="2.63581">
        <ele>105.25277028</ele>
        <time>2017-09-03T08:05:12Z</time>
      </trkpt>
      <trkpt lat="50.43671" lon="2.63568">
        <ele>108.2531536</ele>
        <time>2017-09-03T08:05:17Z</time>
      </trkpt>
      <trkpt lat="50.43663" lon="2.6356">
        <ele>108.25347692</ele>
        <time>2017-09-03T08:05:21Z</time>
      </trkpt>
      <trkpt lat="50.43658" lon="2.63548">
        <ele>109.25366932</ele>
        <time>2017-09-03T08:05:25Z</time>
      </trkpt>
      <trkpt lat="50.4365" lon="2.6354">
        <ele>110.25399312</ele>
        <time>2017-09-03T08:05:30Z</time>
      </trkpt>
      <trkpt lat="50.43643" lon="2.63534">
        <ele>112.25430012</ele>
        <time>2017-09-03T08:05:34Z</time>
      </trkpt>
      <trkpt lat="50.43634" lon="2.63526">
        <ele>115.25463704</ele>
        <time>2017-09-03T08:05:39Z</time>
      </trkpt>
      <trkpt lat="50.43624" lon="2.63517">
        <ele>116.25502412</ele>
        <time>2017-09-03T08:05:44Z</time>
      </trkpt>
      <trkpt lat="50.43616" lon="2.63512">
        <ele>118.25534332</ele>
        <time>2017-09-03T08:05:48Z</time>
      </trkpt>
      <trkpt lat="50.4361" lon="2.63504">
        <ele>117.25561544</ele>
        <time>2017-09-03T08:05:53Z</time>
      </trkpt>
      <trkpt lat="50.436" lon="2.635">
        <ele>122.25601984</ele>
        <time>2017-09-03T08:05:58Z</time>
      </trkpt>
      <trkpt lat="50.43592" lon="2.63494">
        <ele>122.256302</ele>
        <time>2017-09-03T08:06:02Z</time>
      </trkpt>
      <trkpt lat="50.43584" lon="2.63488">
        <ele>124.25665988</ele>
        <time>2017-09-03T08:06:06Z</time>
      </trkpt>
      <trkpt lat="50.43571" lon="2.63488">
        <ele>132.25716988</ele>
        <time>2017-09-03T08:06:11Z</time>
      </trkpt>
      <trkpt lat="50.43559" lon="2.63472">
        <ele>128.25765376</ele>
        <time>2017-09-03T08:06:16Z</time>
      </trkpt>
      <trkpt lat="50.4355" lon="2.63461">
        <ele>123.25801664</ele>
        <time>2017-09-03T08:06:20Z</time>
      </trkpt>
      <trkpt lat="50.43544" lon="2.63449">
        <ele>121.25822808</ele>
        <time>2017-09-03T08:06:24Z</time>
      </trkpt>
      <trkpt lat="50.43535" lon="2.63439">
        <ele>116.25861344</ele>
        <time>2017-09-03T08:06:28Z</time>
      </trkpt>
      <trkpt lat="50.43523" lon="2.63426">
        <ele>111.25907996</ele>
        <time>2017-09-03T08:06:33Z</time>
      </trkpt>
      <trkpt lat="50.43515" lon="2.63415">
        <ele>112.25939008</ele>
        <time>2017-09-03T08:06:37Z</time>
      </trkpt>
      <trkpt lat="50.43508" lon="2.63408">
        <ele>116.25967616</ele>
        <time>2017-09-03T08:06:41Z</time>
      </trkpt>
      <trkpt lat="50.43498" lon="2.63401">
        <ele>118.2600804</ele>
        <time>2017-09-03T08:06:45Z</time>
      </trkpt>
      <trkpt lat="50.43491" lon="2.6339">
        <ele>118.26034684</ele>
        <time>2017-09-03T08:06:49Z</time>
      </trkpt>
      <trkpt lat="50.43481" lon="2.63379">
        <ele>119.26077228</ele>
        <time>2017-09-03T08:06:54Z</time>
      </trkpt>
      <trkpt lat="50.4347" lon="2.63369">
        <ele>120.26120496</ele>
        <time>2017-09-03T08:06:59Z</time>
      </trkpt>
      <trkpt lat="50.43458" lon="2.63367">
        <ele>119.261674</ele>
        <time>2017-09-03T08:07:03Z</time>
      </trkpt>
      <trkpt lat="50.43442" lon="2.63365">
        <ele>123.26233124</ele>
        <time>2017-09-03T08:07:08Z</time>
      </trkpt>
      <trkpt lat="50.43429" lon="2.63362">
        <ele>122.2628258</ele>
        <time>2017-09-03T08:07:12Z</time>
      </trkpt>
      <trkpt lat="50.43413" lon="2.63355">
        <ele>123.263494</ele>
        <time>2017-09-03T08:07:17Z</time>
      </trkpt>
      <trkpt lat="50.434" lon="2.63349">
        <ele>123.2640218</ele>
        <time>2017-09-03T08:07:21Z</time>
      </trkpt>
      <trkpt lat="50.43383" lon="2.63339">
        <ele>123.26469544</ele>
        <time>2017-09-03T08:07:26Z</time>
      </trkpt>
      <trkpt lat="50.4337" lon="2.63328">
        <ele>123.26518872</ele>
        <time>2017-09-03T08:07:30Z</time>
      </trkpt>
      <trkpt lat="50.43358" lon="2.63312">
        <ele>123.26567384</ele>
        <time>2017-09-03T08:07:34Z</time>
      </trkpt>
      <trkpt lat="50.43345" lon="2.6329">
        <ele>124.26619772</ele>
        <time>2017-09-03T08:07:39Z</time>
      </trkpt>
      <trkpt lat="50.43335" lon="2.63273">
        <ele>124.26658596</ele>
        <time>2017-09-03T08:07:43Z</time>
      </trkpt>
      <trkpt lat="50.43324" lon="2.63255">
        <ele>125.267027</ele>
        <time>2017-09-03T08:07:47Z</time>
      </trkpt>
      <trkpt lat="50.43311" lon="2.63239">
        <ele>126.26755176</ele>
        <time>2017-09-03T08:07:51Z</time>
      </trkpt>
      <trkpt lat="50.43299" lon="2.63227">
        <ele>127.26805912</ele>
        <time>2017-09-03T08:07:55Z</time>
      </trkpt>
      <trkpt lat="50.43282" lon="2.63215">
        <ele>128.26870616</ele>
        <time>2017-09-03T08:08:00Z</time>
      </trkpt>
      <trkpt lat="50.43268" lon="2.63205">
        <ele>129.26928872</ele>
        <time>2017-09-03T08:08:04Z</time>
      </trkpt>
      <trkpt lat="50.43254" lon="2.63196">
        <ele>130.2698434</ele>
        <time>2017-09-03T08:08:08Z</time>
      </trkpt>
      <trkpt lat="50.43243" lon="2.63208">
        <ele>132.27028988</ele>
        <time>2017-09-03T08:08:13Z</time>
      </trkpt>
      <trkpt lat="50.4324" lon="2.63221">
        <ele>137.27038888</ele>
        <time>2017-09-03T08:10:23Z</time>
      </trkpt>
      <trkpt lat="50.43236" lon="2.63246">
        <ele>137.27054576</ele>
        <time>2017-09-03T08:10:27Z</time>
      </trkpt>
      <trkpt lat="50.43228" lon="2.63285">
        <ele>139.27087668</ele>
        <time>2017-09-03T08:10:32Z</time>
      </trkpt>
      <trkpt lat="50.43219" lon="2.63313">
        <ele>140.27124824</ele>
        <time>2017-09-03T08:10:36Z</time>
      </trkpt>
      <trkpt lat="50.43206" lon="2.63339">
        <ele>142.27174844</ele>
        <time>2017-09-03T08:10:41Z</time>
      </trkpt>
      <trkpt lat="50.43196" lon="2.6336">
        <ele>141.27215328</ele>
        <time>2017-09-03T08:10:45Z</time>
      </trkpt>
      <trkpt lat="50.4319" lon="2.63395">
        <ele>142.27242128</ele>
        <time>2017-09-03T08:10:50Z</time>
      </trkpt>
      <trkpt lat="50.43187" lon="2.63438">
        <ele>142.27253024</ele>
        <time>2017-09-03T08:10:55Z</time>
      </trkpt>
      <trkpt lat="50.43173" lon="2.6347">
        <ele>142.27310088</ele>
        <time>2017-09-03T08:11:00Z</time>
      </trkpt>
      <trkpt lat="50.43166" lon="2.63496">
        <ele>139.27335428</ele>
        <time>2017-09-03T08:11:04Z</time>
      </trkpt>
      <trkpt lat="50.43147" lon="2.63526">
        <ele>141.27413892</ele>
        <time>2017-09-03T08:11:09Z</time>
      </trkpt>
      <trkpt lat="50.4313" lon="2.63551">
        <ele>138.27480872</ele>
        <time>2017-09-03T08:11:13Z</time>
      </trkpt>
      <trkpt lat="50.4311" lon="2.63578">
        <ele>138.27561964</ele>
        <time>2017-09-03T08:11:18Z</time>
      </trkpt>
      <trkpt lat="50.43096" lon="2.63598">
        <ele>138.2761452</ele>
        <time>2017-09-03T08:11:22Z</time>
      </trkpt>
      <trkpt lat="50.4309" lon="2.63607">
        <ele>136.27640824</ele>
        <time>2017-09-03T08:11:27Z</time>
      </trkpt>
      <trkpt lat="50.43082" lon="2.63599">
        <ele>137.27673128</ele>
        <time>2017-09-03T08:11:31Z</time>
      </trkpt>
      <trkpt lat="50.4307" lon="2.63591">
        <ele>138.27720032</ele>
        <time>2017-09-03T08:11:36Z</time>
      </trkpt>
      <trkpt lat="50.43056" lon="2.63593">
        <ele>141.27777808</ele>
        <time>2017-09-03T08:11:41Z</time>
      </trkpt>
      <trkpt lat="50.43045" lon="2.63596">
        <ele>146.27821772</ele>
        <time>2017-09-03T08:11:45Z</time>
      </trkpt>
      <trkpt lat="50.43033" lon="2.63597">
        <ele>147.2786968</ele>
        <time>2017-09-03T08:11:49Z</time>
      </trkpt>
      <trkpt lat="50.43028" lon="2.63586">
        <ele>143.27887808</ele>
        <time>2017-09-03T08:12:22Z</time>
      </trkpt>
      <trkpt lat="50.43021" lon="2.63583">
        <ele>151.27918176</ele>
        <time>2017-09-03T08:12:33Z</time>
      </trkpt>
      <trkpt lat="50.43012" lon="2.63578">
        <ele>152.27950564</ele>
        <time>2017-09-03T08:13:00Z</time>
      </trkpt>
      <trkpt lat="50.43004" lon="2.63571">
        <ele>152.27984392</ele>
        <time>2017-09-03T08:13:04Z</time>
      </trkpt>
      <trkpt lat="50.42996" lon="2.63565">
        <ele>149.280168</ele>
        <time>2017-09-03T08:13:09Z</time>
      </trkpt>
      <trkpt lat="50.42991" lon="2.63556">
        <ele>150.2803636</ele>
        <time>2017-09-03T08:13:14Z</time>
      </trkpt>
      <trkpt lat="50.42984" lon="2.63551">
        <ele>152.28064332</ele>
        <time>2017-09-03T08:13:19Z</time>
      </trkpt>
      <trkpt lat="50.42977" lon="2.63547">
        <ele>163.28093856</ele>
        <time>2017-09-03T08:13:26Z</time>
      </trkpt>
      <trkpt lat="50.42969" lon="2.63542">
        <ele>170.28126</ele>
        <time>2017-09-03T08:13:34Z</time>
      </trkpt>
      <trkpt lat="50.42961" lon="2.63538">
        <ele>169.28154768</ele>
        <time>2017-09-03T08:13:40Z</time>
      </trkpt>
      <trkpt lat="50.42955" lon="2.63531">
        <ele>169.28181176</ele>
        <time>2017-09-03T08:13:47Z</time>
      </trkpt>
      <trkpt lat="50.42948" lon="2.63526">
        <ele>167.28208952</ele>
        <time>2017-09-03T08:13:53Z</time>
      </trkpt>
      <trkpt lat="50.4294" lon="2.63524">
        <ele>171.28239808</ele>
        <time>2017-09-03T08:14:00Z</time>
      </trkpt>
      <trkpt lat="50.42932" lon="2.63522">
        <ele>173.28272972</ele>
        <time>2017-09-03T08:14:07Z</time>
      </trkpt>
      <trkpt lat="50.42924" lon="2.63516">
        <ele>178.28305344</ele>
        <time>2017-09-03T08:14:14Z</time>
      </trkpt>
      <trkpt lat="50.42912" lon="2.63517">
        <ele>183.28351264</ele>
        <time>2017-09-03T08:14:19Z</time>
      </trkpt>
      <trkpt lat="50.42905" lon="2.63516">
        <ele>185.283804</ele>
        <time>2017-09-03T08:14:23Z</time>
      </trkpt>
      <trkpt lat="50.42897" lon="2.63514">
        <ele>185.28413244</ele>
        <time>2017-09-03T08:14:29Z</time>
      </trkpt>
      <trkpt lat="50.42888" lon="2.63514">
        <ele>187.28446324</ele>
        <time>2017-09-03T08:14:35Z</time>
      </trkpt>
      <trkpt lat="50.42878" lon="2.63513">
        <ele>187.28488804</ele>
        <time>2017-09-03T08:14:40Z</time>
      </trkpt>
      <trkpt lat="50.42869" lon="2.63513">
        <ele>185.28524132</ele>
        <time>2017-09-03T08:14:45Z</time>
      </trkpt>
      <trkpt lat="50.42859" lon="2.63512">
        <ele>186.2856352</ele>
        <time>2017-09-03T08:14:50Z</time>
      </trkpt>
      <trkpt lat="50.42846" lon="2.63512">
        <ele>187.28616624</ele>
        <time>2017-09-03T08:14:55Z</time>
      </trkpt>
      <trkpt lat="50.42828" lon="2.63513">
        <ele>187.28687428</ele>
        <time>2017-09-03T08:15:00Z</time>
      </trkpt>
      <trkpt lat="50.42814" lon="2.63509">
        <ele>186.28744436</ele>
        <time>2017-09-03T08:15:04Z</time>
      </trkpt>
      <trkpt lat="50.42801" lon="2.63505">
        <ele>188.28794756</ele>
        <time>2017-09-03T08:15:08Z</time>
      </trkpt>
      <trkpt lat="50.42782" lon="2.63496">
        <ele>181.28871604</ele>
        <time>2017-09-03T08:15:13Z</time>
      </trkpt>
      <trkpt lat="50.42771" lon="2.63487">
        <ele>186.2891722</ele>
        <time>2017-09-03T08:15:17Z</time>
      </trkpt>
      <trkpt lat="50.4276" lon="2.63476">
        <ele>189.28962136</ele>
        <time>2017-09-03T08:15:22Z</time>
      </trkpt>
      <trkpt lat="50.42751" lon="2.63473">
        <ele>183.28997304</ele>
        <time>2017-09-03T08:15:37Z</time>
      </trkpt>
      <trkpt lat="50.42744" lon="2.63469">
        <ele>184.29026016</ele>
        <time>2017-09-03T08:15:55Z</time>
      </trkpt>
      <trkpt lat="50.42743" lon="2.63487">
        <ele>185.29027652</ele>
        <time>2017-09-03T08:16:00Z</time>
      </trkpt>
      <trkpt lat="50.42745" lon="2.63511">
        <ele>184.29019844</ele>
        <time>2017-09-03T08:16:04Z</time>
      </trkpt>
      <trkpt lat="50.42749" lon="2.63543">
        <ele>183.2900552</ele>
        <time>2017-09-03T08:16:09Z</time>
      </trkpt>
      <trkpt lat="50.42744" lon="2.63558">
        <ele>183.29023276</ele>
        <time>2017-09-03T08:16:13Z</time>
      </trkpt>
      <trkpt lat="50.42735" lon="2.63564">
        <ele>182.29060824</ele>
        <time>2017-09-03T08:16:17Z</time>
      </trkpt>
      <trkpt lat="50.42729" lon="2.63581">
        <ele>185.29085924</ele>
        <time>2017-09-03T08:16:22Z</time>
      </trkpt>
      <trkpt lat="50.4272" lon="2.63595">
        <ele>188.29120664</ele>
        <time>2017-09-03T08:16:26Z</time>
      </trkpt>
      <trkpt lat="50.42711" lon="2.6362">
        <ele>188.291565</ele>
        <time>2017-09-03T08:16:31Z</time>
      </trkpt>
      <trkpt lat="50.42708" lon="2.63644">
        <ele>189.2917016</ele>
        <time>2017-09-03T08:16:35Z</time>
      </trkpt>
      <trkpt lat="50.42693" lon="2.63671">
        <ele>189.29227228</ele>
        <time>2017-09-03T08:16:40Z</time>
      </trkpt>
      <trkpt lat="50.4269" lon="2.63699">
        <ele>183.29239772</ele>
        <time>2017-09-03T08:16:44Z</time>
      </trkpt>
      <trkpt lat="50.42685" lon="2.6373">
        <ele>183.29260028</ele>
        <time>2017-09-03T08:16:49Z</time>
      </trkpt>
      <trkpt lat="50.42678" lon="2.63752">
        <ele>185.29287516</ele>
        <time>2017-09-03T08:16:53Z</time>
      </trkpt>
      <trkpt lat="50.4267" lon="2.63782">
        <ele>187.29321172</ele>
        <time>2017-09-03T08:16:58Z</time>
      </trkpt>
      <trkpt lat="50.42662" lon="2.6381">
        <ele>190.29351232</ele>
        <time>2017-09-03T08:17:03Z</time>
      </trkpt>
      <trkpt lat="50.42655" lon="2.63837">
        <ele>188.2938218</ele>
        <time>2017-09-03T08:17:07Z</time>
      </trkpt>
      <trkpt lat="50.42648" lon="2.63853">
        <ele>189.2940698</ele>
        <time>2017-09-03T08:17:11Z</time>
      </trkpt>
      <trkpt lat="50.42647" lon="2.63879">
        <ele>185.2941088</ele>
        <time>2017-09-03T08:17:15Z</time>
      </trkpt>
      <trkpt lat="50.42651" lon="2.6391">
        <ele>182.29397412</ele>
        <time>2017-09-03T08:17:20Z</time>
      </trkpt>
      <trkpt lat="50.42657" lon="2.63928">
        <ele>180.29372636</ele>
        <time>2017-09-03T08:17:23Z</time>
      </trkpt>
      <trkpt lat="50.42656" lon="2.6394">
        <ele>180.29375668</ele>
        <time>2017-09-03T08:17:27Z</time>
      </trkpt>
      <trkpt lat="50.4266" lon="2.63962">
        <ele>181.29358208</ele>
        <time>2017-09-03T08:17:31Z</time>
      </trkpt>
      <trkpt lat="50.4267" lon="2.63983">
        <ele>181.29320768</ele>
        <time>2017-09-03T08:17:35Z</time>
      </trkpt>
      <trkpt lat="50.42679" lon="2.64006">
        <ele>178.29282916</ele>
        <time>2017-09-03T08:17:40Z</time>
      </trkpt>
      <trkpt lat="50.42696" lon="2.64025">
        <ele>177.29217184</ele>
        <time>2017-09-03T08:17:44Z</time>
      </trkpt>
      <trkpt lat="50.42703" lon="2.64046">
        <ele>175.29189016</ele>
        <time>2017-09-03T08:17:48Z</time>
      </trkpt>
      <trkpt lat="50.42717" lon="2.64064">
        <ele>175.29130696</ele>
        <time>2017-09-03T08:17:52Z</time>
      </trkpt>
      <trkpt lat="50.42744" lon="2.64091">
        <ele>172.29023304</ele>
        <time>2017-09-03T08:17:57Z</time>
      </trkpt>
      <trkpt lat="50.42768" lon="2.64081">
        <ele>176.28927256</ele>
        <time>2017-09-03T08:18:02Z</time>
      </trkpt>
      <trkpt lat="50.42783" lon="2.64066">
        <ele>175.28866676</ele>
        <time>2017-09-03T08:18:06Z</time>
      </trkpt>
      <trkpt lat="50.42798" lon="2.64056">
        <ele>175.28810172</ele>
        <time>2017-09-03T08:18:10Z</time>
      </trkpt>
      <trkpt lat="50.42803" lon="2.6407">
        <ele>179.28788092</ele>
        <time>2017-09-03T08:18:15Z</time>
      </trkpt>
      <trkpt lat="50.42802" lon="2.64101">
        <ele>176.28793488</ele>
        <time>2017-09-03T08:18:20Z</time>
      </trkpt>
      <trkpt lat="50.42812" lon="2.64125">
        <ele>176.2875136</ele>
        <time>2017-09-03T08:18:24Z</time>
      </trkpt>
      <trkpt lat="50.42824" lon="2.64148">
        <ele>176.28703396</ele>
        <time>2017-09-03T08:18:28Z</time>
      </trkpt>
      <trkpt lat="50.42838" lon="2.64177">
        <ele>173.28648828</ele>
        <time>2017-09-03T08:18:33Z</time>
      </trkpt>
      <trkpt lat="50.42856" lon="2.64205">
        <ele>179.28576884</ele>
        <time>2017-09-03T08:18:38Z</time>
      </trkpt>
      <trkpt lat="50.42886" lon="2.64238">
        <ele>177.28454676</ele>
        <time>2017-09-03T08:18:43Z</time>
      </trkpt>
      <trkpt lat="50.42895" lon="2.64266">
        <ele>175.2841822</ele>
        <time>2017-09-03T08:18:47Z</time>
      </trkpt>
      <trkpt lat="50.42913" lon="2.64286">
        <ele>173.28348088</ele>
        <time>2017-09-03T08:18:52Z</time>
      </trkpt>
      <trkpt lat="50.42936" lon="2.64304">
        <ele>171.28257164</ele>
        <time>2017-09-03T08:18:57Z</time>
      </trkpt>
      <trkpt lat="50.42948" lon="2.64312">
        <ele>173.28208052</ele>
        <time>2017-09-03T08:19:02Z</time>
      </trkpt>
      <trkpt lat="50.42957" lon="2.64321">
        <ele>170.28174144</ele>
        <time>2017-09-03T08:19:06Z</time>
      </trkpt>
      <trkpt lat="50.42969" lon="2.64324">
        <ele>164.28124996</ele>
        <time>2017-09-03T08:19:10Z</time>
      </trkpt>
      <trkpt lat="50.42989" lon="2.64321">
        <ele>161.28046128</ele>
        <time>2017-09-03T08:19:15Z</time>
      </trkpt>
      <trkpt lat="50.43" lon="2.64307">
        <ele>156.2800158</ele>
        <time>2017-09-03T08:19:19Z</time>
      </trkpt>
      <trkpt lat="50.43011" lon="2.64293">
        <ele>149.27956216</ele>
        <time>2017-09-03T08:19:24Z</time>
      </trkpt>
      <trkpt lat="50.43024" lon="2.64291">
        <ele>148.27903612</ele>
        <time>2017-09-03T08:19:28Z</time>
      </trkpt>
      <trkpt lat="50.43045" lon="2.64283">
        <ele>142.2782058</ele>
        <time>2017-09-03T08:19:32Z</time>
      </trkpt>
      <trkpt lat="50.43071" lon="2.64287">
        <ele>131.27715564</ele>
        <time>2017-09-03T08:19:37Z</time>
      </trkpt>
      <trkpt lat="50.43093" lon="2.64304">
        <ele>127.276296</ele>
        <time>2017-09-03T08:19:42Z</time>
      </trkpt>
      <trkpt lat="50.43107" lon="2.64315">
        <ele>123.27570984</ele>
        <time>2017-09-03T08:19:46Z</time>
      </trkpt>
      <trkpt lat="50.43123" lon="2.64325">
        <ele>122.27506708</ele>
        <time>2017-09-03T08:19:50Z</time>
      </trkpt>
      <trkpt lat="50.43143" lon="2.64338">
        <ele>121.27430156</ele>
        <time>2017-09-03T08:19:55Z</time>
      </trkpt>
      <trkpt lat="50.4315" lon="2.64354">
        <ele>122.27402112</ele>
        <time>2017-09-03T08:19:59Z</time>
      </trkpt>
      <trkpt lat="50.43152" lon="2.64385">
        <ele>123.2739388</ele>
        <time>2017-09-03T08:20:04Z</time>
      </trkpt>
      <trkpt lat="50.4315" lon="2.6441">
        <ele>124.27400608</ele>
        <time>2017-09-03T08:20:08Z</time>
      </trkpt>
      <trkpt lat="50.43165" lon="2.64436">
        <ele>122.27339248</ele>
        <time>2017-09-03T08:20:13Z</time>
      </trkpt>
      <trkpt lat="50.43186" lon="2.64452">
        <ele>122.27257</ele>
        <time>2017-09-03T08:20:17Z</time>
      </trkpt>
      <trkpt lat="50.43209" lon="2.64469">
        <ele>121.27163008</ele>
        <time>2017-09-03T08:20:22Z</time>
      </trkpt>
      <trkpt lat="50.43224" lon="2.64481">
        <ele>123.2710606</ele>
        <time>2017-09-03T08:20:25Z</time>
      </trkpt>
      <trkpt lat="50.43229" lon="2.64484">
        <ele>123.27082492</ele>
        <time>2017-09-03T08:20:31Z</time>
      </trkpt>
      <trkpt lat="50.43265" lon="2.64531">
        <ele>122.2694182</ele>
        <time>2017-09-03T08:20:35Z</time>
      </trkpt>
      <trkpt lat="50.4328" lon="2.64558">
        <ele>122.2688034</ele>
        <time>2017-09-03T08:20:39Z</time>
      </trkpt>
      <trkpt lat="50.43295" lon="2.64591">
        <ele>123.26818528</ele>
        <time>2017-09-03T08:20:44Z</time>
      </trkpt>
      <trkpt lat="50.43304" lon="2.64612">
        <ele>121.26783744</ele>
        <time>2017-09-03T08:20:48Z</time>
      </trkpt>
      <trkpt lat="50.43285" lon="2.64637">
        <ele>119.26862116</ele>
        <time>2017-09-03T08:20:53Z</time>
      </trkpt>
      <trkpt lat="50.43262" lon="2.64649">
        <ele>117.269522</ele>
        <time>2017-09-03T08:20:57Z</time>
      </trkpt>
      <trkpt lat="50.43233" lon="2.64655">
        <ele>114.27070124</ele>
        <time>2017-09-03T08:21:02Z</time>
      </trkpt>
      <trkpt lat="50.43206" lon="2.64664">
        <ele>116.27175816</ele>
        <time>2017-09-03T08:21:07Z</time>
      </trkpt>
      <trkpt lat="50.43184" lon="2.64677">
        <ele>116.27265564</ele>
        <time>2017-09-03T08:21:11Z</time>
      </trkpt>
      <trkpt lat="50.43163" lon="2.64684">
        <ele>117.27346372</ele>
        <time>2017-09-03T08:21:15Z</time>
      </trkpt>
      <trkpt lat="50.43142" lon="2.64693">
        <ele>114.27431808</ele>
        <time>2017-09-03T08:21:19Z</time>
      </trkpt>
      <trkpt lat="50.43118" lon="2.64698">
        <ele>112.27528384</ele>
        <time>2017-09-03T08:21:24Z</time>
      </trkpt>
      <trkpt lat="50.43097" lon="2.64703">
        <ele>115.27610232</ele>
        <time>2017-09-03T08:21:28Z</time>
      </trkpt>
      <trkpt lat="50.43073" lon="2.6472">
        <ele>116.27708048</ele>
        <time>2017-09-03T08:21:33Z</time>
      </trkpt>
      <trkpt lat="50.43056" lon="2.64742">
        <ele>116.27775456</ele>
        <time>2017-09-03T08:21:37Z</time>
      </trkpt>
      <trkpt lat="50.43037" lon="2.64771">
        <ele>113.27851256</ele>
        <time>2017-09-03T08:21:42Z</time>
      </trkpt>
      <trkpt lat="50.4302" lon="2.64788">
        <ele>116.2791888</ele>
        <time>2017-09-03T08:21:46Z</time>
      </trkpt>
      <trkpt lat="50.43007" lon="2.64804">
        <ele>118.2797412</ele>
        <time>2017-09-03T08:21:50Z</time>
      </trkpt>
      <trkpt lat="50.42989" lon="2.64818">
        <ele>120.28042368</ele>
        <time>2017-09-03T08:21:55Z</time>
      </trkpt>
      <trkpt lat="50.42974" lon="2.64825">
        <ele>122.2810448</ele>
        <time>2017-09-03T08:21:59Z</time>
      </trkpt>
      <trkpt lat="50.42956" lon="2.6483">
        <ele>123.281775</ele>
        <time>2017-09-03T08:22:04Z</time>
      </trkpt>
      <trkpt lat="50.42942" lon="2.64825">
        <ele>123.28231444</ele>
        <time>2017-09-03T08:22:08Z</time>
      </trkpt>
      <trkpt lat="50.42928" lon="2.6482">
        <ele>124.28286336</ele>
        <time>2017-09-03T08:22:12Z</time>
      </trkpt>
      <trkpt lat="50.42914" lon="2.64815">
        <ele>125.28346156</ele>
        <time>2017-09-03T08:22:17Z</time>
      </trkpt>
      <trkpt lat="50.429" lon="2.64808">
        <ele>127.28400164</ele>
        <time>2017-09-03T08:22:22Z</time>
      </trkpt>
      <trkpt lat="50.42889" lon="2.64804">
        <ele>127.28442796</ele>
        <time>2017-09-03T08:22:26Z</time>
      </trkpt>
      <trkpt lat="50.42877" lon="2.648">
        <ele>128.28491772</ele>
        <time>2017-09-03T08:22:31Z</time>
      </trkpt>
      <trkpt lat="50.42867" lon="2.64795">
        <ele>129.28530612</ele>
        <time>2017-09-03T08:22:35Z</time>
      </trkpt>
      <trkpt lat="50.42858" lon="2.64794">
        <ele>129.285686</ele>
        <time>2017-09-03T08:22:39Z</time>
      </trkpt>
      <trkpt lat="50.42849" lon="2.64792">
        <ele>130.2860496</ele>
        <time>2017-09-03T08:22:44Z</time>
      </trkpt>
      <trkpt lat="50.42842" lon="2.64789">
        <ele>130.286337</ele>
        <time>2017-09-03T08:22:50Z</time>
      </trkpt>
      <trkpt lat="50.42834" lon="2.64785">
        <ele>132.2866292</ele>
        <time>2017-09-03T08:22:57Z</time>
      </trkpt>
      <trkpt lat="50.42826" lon="2.64783">
        <ele>133.2869474</ele>
        <time>2017-09-03T08:23:04Z</time>
      </trkpt>
      <trkpt lat="50.42819" lon="2.64784">
        <ele>134.2872418</ele>
        <time>2017-09-03T08:23:20Z</time>
      </trkpt>
      <trkpt lat="50.42811" lon="2.64776">
        <ele>134.287579</ele>
        <time>2017-09-03T08:23:25Z</time>
      </trkpt>
      <trkpt lat="50.42804" lon="2.64775">
        <ele>135.28784536</ele>
        <time>2017-09-03T08:23:29Z</time>
      </trkpt>
      <trkpt lat="50.42791" lon="2.64772">
        <ele>134.28836304</ele>
        <time>2017-09-03T08:23:33Z</time>
      </trkpt>
      <trkpt lat="50.42783" lon="2.64774">
        <ele>141.28870008</ele>
        <time>2017-09-03T08:23:42Z</time>
      </trkpt>
      <trkpt lat="50.42775" lon="2.64768">
        <ele>140.28901816</ele>
        <time>2017-09-03T08:23:50Z</time>
      </trkpt>
      <trkpt lat="50.42767" lon="2.64761">
        <ele>139.28930972</ele>
        <time>2017-09-03T08:23:56Z</time>
      </trkpt>
      <trkpt lat="50.42759" lon="2.64759">
        <ele>142.28964368</ele>
        <time>2017-09-03T08:24:04Z</time>
      </trkpt>
      <trkpt lat="50.42751" lon="2.64758">
        <ele>151.28996172</ele>
        <time>2017-09-03T08:24:11Z</time>
      </trkpt>
      <trkpt lat="50.42743" lon="2.64754">
        <ele>153.29029908</ele>
        <time>2017-09-03T08:24:19Z</time>
      </trkpt>
      <trkpt lat="50.42736" lon="2.64751">
        <ele>155.2905758</ele>
        <time>2017-09-03T08:24:24Z</time>
      </trkpt>
      <trkpt lat="50.42727" lon="2.64754">
        <ele>154.29092272</ele>
        <time>2017-09-03T08:24:29Z</time>
      </trkpt>
      <trkpt lat="50.42717" lon="2.64755">
        <ele>152.29132688</ele>
        <time>2017-09-03T08:24:34Z</time>
      </trkpt>
      <trkpt lat="50.42708" lon="2.64754">
        <ele>150.29166464</ele>
        <time>2017-09-03T08:24:38Z</time>
      </trkpt>
      <trkpt lat="50.427" lon="2.6475">
        <ele>151.29200736</ele>
        <time>2017-09-03T08:24:45Z</time>
      </trkpt>
      <trkpt lat="50.42691" lon="2.64748">
        <ele>149.29235216</ele>
        <time>2017-09-03T08:24:52Z</time>
      </trkpt>
      <trkpt lat="50.42683" lon="2.64745">
        <ele>150.29267768</ele>
        <time>2017-09-03T08:24:58Z</time>
      </trkpt>
      <trkpt lat="50.42675" lon="2.64742">
        <ele>149.29298296</ele>
        <time>2017-09-03T08:25:06Z</time>
      </trkpt>
      <trkpt lat="50.42667" lon="2.6474">
        <ele>155.29331184</ele>
        <time>2017-09-03T08:25:14Z</time>
      </trkpt>
      <trkpt lat="50.4266" lon="2.64737">
        <ele>159.29361136</ele>
        <time>2017-09-03T08:25:20Z</time>
      </trkpt>
      <trkpt lat="50.42653" lon="2.64737">
        <ele>160.29389004</ele>
        <time>2017-09-03T08:25:40Z</time>
      </trkpt>
      <trkpt lat="50.42641" lon="2.64735">
        <ele>159.29437504</ele>
        <time>2017-09-03T08:25:45Z</time>
      </trkpt>
      <trkpt lat="50.42633" lon="2.64732">
        <ele>158.29468124</ele>
        <time>2017-09-03T08:25:52Z</time>
      </trkpt>
      <trkpt lat="50.42627" lon="2.64731">
        <ele>159.29493008</ele>
        <time>2017-09-03T08:26:31Z</time>
      </trkpt>
      <trkpt lat="50.42617" lon="2.64733">
        <ele>164.29533452</ele>
        <time>2017-09-03T08:26:35Z</time>
      </trkpt>
      <trkpt lat="50.4261" lon="2.64726">
        <ele>164.29559572</ele>
        <time>2017-09-03T08:26:40Z</time>
      </trkpt>
      <trkpt lat="50.42603" lon="2.64725">
        <ele>162.29589272</ele>
        <time>2017-09-03T08:26:46Z</time>
      </trkpt>
      <trkpt lat="50.42594" lon="2.64725">
        <ele>169.29625012</ele>
        <time>2017-09-03T08:26:53Z</time>
      </trkpt>
      <trkpt lat="50.42587" lon="2.64722">
        <ele>173.29653548</ele>
        <time>2017-09-03T08:27:01Z</time>
      </trkpt>
      <trkpt lat="50.42579" lon="2.64719">
        <ele>172.29686076</ele>
        <time>2017-09-03T08:27:10Z</time>
      </trkpt>
      <trkpt lat="50.4257" lon="2.64717">
        <ele>172.29721604</ele>
        <time>2017-09-03T08:27:21Z</time>
      </trkpt>
      <trkpt lat="50.42561" lon="2.64714">
        <ele>172.29756108</ele>
        <time>2017-09-03T08:27:42Z</time>
      </trkpt>
      <trkpt lat="50.42552" lon="2.64711">
        <ele>171.29791376</ele>
        <time>2017-09-03T08:27:58Z</time>
      </trkpt>
      <trkpt lat="50.42544" lon="2.6471">
        <ele>172.2982428</ele>
        <time>2017-09-03T08:28:06Z</time>
      </trkpt>
      <trkpt lat="50.42536" lon="2.64705">
        <ele>173.2985658</ele>
        <time>2017-09-03T08:28:24Z</time>
      </trkpt>
      <trkpt lat="50.42527" lon="2.64701">
        <ele>173.2989104</ele>
        <time>2017-09-03T08:28:32Z</time>
      </trkpt>
      <trkpt lat="50.42519" lon="2.647">
        <ele>174.29924448</ele>
        <time>2017-09-03T08:28:51Z</time>
      </trkpt>
      <trkpt lat="50.42511" lon="2.64699">
        <ele>177.29955424</ele>
        <time>2017-09-03T08:28:57Z</time>
      </trkpt>
      <trkpt lat="50.42503" lon="2.64695">
        <ele>177.29987076</ele>
        <time>2017-09-03T08:29:07Z</time>
      </trkpt>
      <trkpt lat="50.42495" lon="2.64693">
        <ele>178.30022132</ele>
        <time>2017-09-03T08:29:14Z</time>
      </trkpt>
      <trkpt lat="50.42486" lon="2.64691">
        <ele>178.30055232</ele>
        <time>2017-09-03T08:29:19Z</time>
      </trkpt>
      <trkpt lat="50.42478" lon="2.6469">
        <ele>180.30088132</ele>
        <time>2017-09-03T08:29:25Z</time>
      </trkpt>
      <trkpt lat="50.42471" lon="2.64688">
        <ele>181.30116544</ele>
        <time>2017-09-03T08:29:29Z</time>
      </trkpt>
      <trkpt lat="50.42462" lon="2.64686">
        <ele>179.30150388</ele>
        <time>2017-09-03T08:29:33Z</time>
      </trkpt>
      <trkpt lat="50.42454" lon="2.64685">
        <ele>181.30184228</ele>
        <time>2017-09-03T08:29:37Z</time>
      </trkpt>
      <trkpt lat="50.42444" lon="2.64684">
        <ele>182.30223176</ele>
        <time>2017-09-03T08:29:42Z</time>
      </trkpt>
      <trkpt lat="50.42433" lon="2.64682">
        <ele>183.30267476</ele>
        <time>2017-09-03T08:29:47Z</time>
      </trkpt>
      <trkpt lat="50.42425" lon="2.64682">
        <ele>184.3029984</ele>
        <time>2017-09-03T08:29:51Z</time>
      </trkpt>
      <trkpt lat="50.42417" lon="2.6468">
        <ele>184.30330716</ele>
        <time>2017-09-03T08:29:55Z</time>
      </trkpt>
      <trkpt lat="50.42408" lon="2.64676">
        <ele>185.30368816</ele>
        <time>2017-09-03T08:30:00Z</time>
      </trkpt>
      <trkpt lat="50.42394" lon="2.64673">
        <ele>184.30423348</ele>
        <time>2017-09-03T08:30:05Z</time>
      </trkpt>
      <trkpt lat="50.42383" lon="2.64669">
        <ele>184.30466576</ele>
        <time>2017-09-03T08:30:09Z</time>
      </trkpt>
      <trkpt lat="50.42375" lon="2.64666">
        <ele>185.30501348</ele>
        <time>2017-09-03T08:30:17Z</time>
      </trkpt>
      <trkpt lat="50.42351" lon="2.64654">
        <ele>185.30594968</ele>
        <time>2017-09-03T08:30:21Z</time>
      </trkpt>
      <trkpt lat="50.42343" lon="2.64655">
        <ele>184.30628648</ele>
        <time>2017-09-03T08:30:26Z</time>
      </trkpt>
      <trkpt lat="50.42344" lon="2.64638">
        <ele>174.30622944</ele>
        <time>2017-09-03T10:22:43Z</time>
      </trkpt>
      <trkpt lat="50.42352" lon="2.6462">
        <ele>175.30593752</ele>
        <time>2017-09-03T10:22:47Z</time>
      </trkpt>
      <trkpt lat="50.42358" lon="2.64601">
        <ele>175.30570024</ele>
        <time>2017-09-03T10:22:51Z</time>
      </trkpt>
      <trkpt lat="50.42365" lon="2.64578">
        <ele>176.30539116</ele>
        <time>2017-09-03T10:22:55Z</time>
      </trkpt>
      <trkpt lat="50.42376" lon="2.64549">
        <ele>176.30496136</ele>
        <time>2017-09-03T10:23:00Z</time>
      </trkpt>
      <trkpt lat="50.42385" lon="2.64517">
        <ele>177.30460796</ele>
        <time>2017-09-03T10:23:05Z</time>
      </trkpt>
      <trkpt lat="50.42392" lon="2.64493">
        <ele>177.30431208</ele>
        <time>2017-09-03T10:23:09Z</time>
      </trkpt>
      <trkpt lat="50.42397" lon="2.64475">
        <ele>177.3041322</ele>
        <time>2017-09-03T10:23:14Z</time>
      </trkpt>
      <trkpt lat="50.42404" lon="2.64459">
        <ele>177.30383672</ele>
        <time>2017-09-03T10:23:18Z</time>
      </trkpt>
      <trkpt lat="50.42412" lon="2.64428">
        <ele>177.3035208</ele>
        <time>2017-09-03T10:23:22Z</time>
      </trkpt>
      <trkpt lat="50.42419" lon="2.64403">
        <ele>177.30322776</ele>
        <time>2017-09-03T10:23:27Z</time>
      </trkpt>
      <trkpt lat="50.42427" lon="2.64379">
        <ele>177.3029248</ele>
        <time>2017-09-03T10:23:31Z</time>
      </trkpt>
      <trkpt lat="50.42435" lon="2.64353">
        <ele>177.30259808</ele>
        <time>2017-09-03T10:23:35Z</time>
      </trkpt>
      <trkpt lat="50.42444" lon="2.6432">
        <ele>177.30222544</ele>
        <time>2017-09-03T10:23:39Z</time>
      </trkpt>
      <trkpt lat="50.42451" lon="2.64292">
        <ele>177.30196924</ele>
        <time>2017-09-03T10:23:44Z</time>
      </trkpt>
      <trkpt lat="50.42465" lon="2.64259">
        <ele>176.30140652</ele>
        <time>2017-09-03T10:23:49Z</time>
      </trkpt>
      <trkpt lat="50.42479" lon="2.64233">
        <ele>176.30082808</ele>
        <time>2017-09-03T10:23:54Z</time>
      </trkpt>
      <trkpt lat="50.42482" lon="2.64212">
        <ele>177.3007336</ele>
        <time>2017-09-03T10:23:58Z</time>
      </trkpt>
      <trkpt lat="50.42466" lon="2.64193">
        <ele>177.30136852</ele>
        <time>2017-09-03T10:24:03Z</time>
      </trkpt>
      <trkpt lat="50.4245" lon="2.64181">
        <ele>177.30199572</ele>
        <time>2017-09-03T10:24:07Z</time>
      </trkpt>
      <trkpt lat="50.4244" lon="2.64159">
        <ele>178.30240944</ele>
        <time>2017-09-03T10:24:11Z</time>
      </trkpt>
      <trkpt lat="50.42433" lon="2.64125">
        <ele>179.30267604</ele>
        <time>2017-09-03T10:24:16Z</time>
      </trkpt>
      <trkpt lat="50.42425" lon="2.64099">
        <ele>179.30298588</ele>
        <time>2017-09-03T10:24:20Z</time>
      </trkpt>
      <trkpt lat="50.42418" lon="2.64071">
        <ele>178.30329964</ele>
        <time>2017-09-03T10:24:24Z</time>
      </trkpt>
      <trkpt lat="50.42409" lon="2.64035">
        <ele>179.30365036</ele>
        <time>2017-09-03T10:24:29Z</time>
      </trkpt>
      <trkpt lat="50.42404" lon="2.64012">
        <ele>178.30385716</ele>
        <time>2017-09-03T10:24:33Z</time>
      </trkpt>
      <trkpt lat="50.42396" lon="2.63986">
        <ele>178.30415024</ele>
        <time>2017-09-03T10:24:37Z</time>
      </trkpt>
      <trkpt lat="50.42388" lon="2.63952">
        <ele>178.3044846</ele>
        <time>2017-09-03T10:24:41Z</time>
      </trkpt>
      <trkpt lat="50.4238" lon="2.63925">
        <ele>178.30479504</ele>
        <time>2017-09-03T10:24:45Z</time>
      </trkpt>
      <trkpt lat="50.42373" lon="2.63897">
        <ele>177.3050628</ele>
        <time>2017-09-03T10:24:50Z</time>
      </trkpt>
      <trkpt lat="50.42366" lon="2.6387">
        <ele>177.3053736</ele>
        <time>2017-09-03T10:24:54Z</time>
      </trkpt>
      <trkpt lat="50.42357" lon="2.63835">
        <ele>177.305726</ele>
        <time>2017-09-03T10:24:59Z</time>
      </trkpt>
      <trkpt lat="50.4235" lon="2.63806">
        <ele>177.30599216</ele>
        <time>2017-09-03T10:25:03Z</time>
      </trkpt>
      <trkpt lat="50.42349" lon="2.63772">
        <ele>176.3060394</ele>
        <time>2017-09-03T10:25:07Z</time>
      </trkpt>
      <trkpt lat="50.42347" lon="2.63728">
        <ele>175.30610372</ele>
        <time>2017-09-03T10:25:11Z</time>
      </trkpt>
      <trkpt lat="50.42344" lon="2.63695">
        <ele>175.30624756</ele>
        <time>2017-09-03T10:25:16Z</time>
      </trkpt>
      <trkpt lat="50.42334" lon="2.63655">
        <ele>174.30662672</ele>
        <time>2017-09-03T10:25:20Z</time>
      </trkpt>
      <trkpt lat="50.42325" lon="2.63624">
        <ele>174.306988</ele>
        <time>2017-09-03T10:25:25Z</time>
      </trkpt>
      <trkpt lat="50.42317" lon="2.63591">
        <ele>173.3073266</ele>
        <time>2017-09-03T10:25:29Z</time>
      </trkpt>
      <trkpt lat="50.4231" lon="2.6356">
        <ele>173.30758652</ele>
        <time>2017-09-03T10:25:33Z</time>
      </trkpt>
      <trkpt lat="50.42307" lon="2.63526">
        <ele>173.30771972</ele>
        <time>2017-09-03T10:25:37Z</time>
      </trkpt>
      <trkpt lat="50.42307" lon="2.63482">
        <ele>172.30772216</ele>
        <time>2017-09-03T10:25:42Z</time>
      </trkpt>
      <trkpt lat="50.42312" lon="2.6344">
        <ele>171.3075314</ele>
        <time>2017-09-03T10:25:47Z</time>
      </trkpt>
      <trkpt lat="50.42316" lon="2.63406">
        <ele>170.30734916</ele>
        <time>2017-09-03T10:25:51Z</time>
      </trkpt>
      <trkpt lat="50.4232" lon="2.63375">
        <ele>170.30722024</ele>
        <time>2017-09-03T10:25:56Z</time>
      </trkpt>
      <trkpt lat="50.4233" lon="2.63369">
        <ele>169.3068066</ele>
        <time>2017-09-03T10:26:00Z</time>
      </trkpt>
      <trkpt lat="50.4235" lon="2.63365">
        <ele>169.306</ele>
        <time>2017-09-03T10:26:04Z</time>
      </trkpt>
      <trkpt lat="50.42377" lon="2.63363">
        <ele>169.30491956</ele>
        <time>2017-09-03T10:26:08Z</time>
      </trkpt>
      <trkpt lat="50.42402" lon="2.63363">
        <ele>168.30391684</ele>
        <time>2017-09-03T10:26:12Z</time>
      </trkpt>
      <trkpt lat="50.42427" lon="2.63367">
        <ele>168.30291344</ele>
        <time>2017-09-03T10:26:16Z</time>
      </trkpt>
      <trkpt lat="50.42457" lon="2.63374">
        <ele>169.30174076</ele>
        <time>2017-09-03T10:26:20Z</time>
      </trkpt>
      <trkpt lat="50.42481" lon="2.63378">
        <ele>169.3007668</ele>
        <time>2017-09-03T10:26:25Z</time>
      </trkpt>
      <trkpt lat="50.4251" lon="2.63385">
        <ele>169.299613</ele>
        <time>2017-09-03T10:26:30Z</time>
      </trkpt>
      <trkpt lat="50.42531" lon="2.63388">
        <ele>168.29876836</ele>
        <time>2017-09-03T10:26:34Z</time>
      </trkpt>
      <trkpt lat="50.42551" lon="2.63391">
        <ele>168.2979734</ele>
        <time>2017-09-03T10:26:38Z</time>
      </trkpt>
      <trkpt lat="50.42573" lon="2.63395">
        <ele>168.29707408</ele>
        <time>2017-09-03T10:26:43Z</time>
      </trkpt>
      <trkpt lat="50.42586" lon="2.63374">
        <ele>169.2965676</ele>
        <time>2017-09-03T10:26:48Z</time>
      </trkpt>
      <trkpt lat="50.42592" lon="2.63344">
        <ele>169.29632532</ele>
        <time>2017-09-03T10:26:52Z</time>
      </trkpt>
      <trkpt lat="50.42598" lon="2.63312">
        <ele>170.29607348</ele>
        <time>2017-09-03T10:26:56Z</time>
      </trkpt>
      <trkpt lat="50.42606" lon="2.63283">
        <ele>170.29574668</ele>
        <time>2017-09-03T10:27:00Z</time>
      </trkpt>
      <trkpt lat="50.42614" lon="2.6325">
        <ele>170.29545496</ele>
        <time>2017-09-03T10:27:04Z</time>
      </trkpt>
      <trkpt lat="50.42618" lon="2.63219">
        <ele>170.29527936</ele>
        <time>2017-09-03T10:27:09Z</time>
      </trkpt>
      <trkpt lat="50.42619" lon="2.63202">
        <ele>170.29523104</ele>
        <time>2017-09-03T10:27:13Z</time>
      </trkpt>
      <trkpt lat="50.42619" lon="2.63172">
        <ele>171.29526128</ele>
        <time>2017-09-03T10:27:18Z</time>
      </trkpt>
      <trkpt lat="50.42616" lon="2.63134">
        <ele>173.29537184</ele>
        <time>2017-09-03T10:27:22Z</time>
      </trkpt>
      <trkpt lat="50.42617" lon="2.63105">
        <ele>173.29531356</ele>
        <time>2017-09-03T10:27:27Z</time>
      </trkpt>
      <trkpt lat="50.42619" lon="2.63066">
        <ele>173.29525368</ele>
        <time>2017-09-03T10:27:32Z</time>
      </trkpt>
      <trkpt lat="50.4262" lon="2.63036">
        <ele>173.29522124</ele>
        <time>2017-09-03T10:27:36Z</time>
      </trkpt>
      <trkpt lat="50.42623" lon="2.62996">
        <ele>173.29507032</ele>
        <time>2017-09-03T10:27:41Z</time>
      </trkpt>
      <trkpt lat="50.42627" lon="2.62965">
        <ele>174.29493148</ele>
        <time>2017-09-03T10:27:45Z</time>
      </trkpt>
      <trkpt lat="50.42629" lon="2.62936">
        <ele>174.2948372</ele>
        <time>2017-09-03T10:27:49Z</time>
      </trkpt>
      <trkpt lat="50.4263" lon="2.62905">
        <ele>174.29480104</ele>
        <time>2017-09-03T10:27:53Z</time>
      </trkpt>
      <trkpt lat="50.42635" lon="2.62874">
        <ele>175.29460232</ele>
        <time>2017-09-03T10:27:57Z</time>
      </trkpt>
      <trkpt lat="50.42637" lon="2.6285">
        <ele>175.29453032</ele>
        <time>2017-09-03T10:28:00Z</time>
      </trkpt>
      <trkpt lat="50.42641" lon="2.62809">
        <ele>175.29438104</ele>
        <time>2017-09-03T10:28:05Z</time>
      </trkpt>
      <trkpt lat="50.42644" lon="2.62777">
        <ele>175.29423348</ele>
        <time>2017-09-03T10:28:09Z</time>
      </trkpt>
      <trkpt lat="50.42647" lon="2.62747">
        <ele>173.2941062</ele>
        <time>2017-09-03T10:28:13Z</time>
      </trkpt>
      <trkpt lat="50.42654" lon="2.62709">
        <ele>173.29382764</ele>
        <time>2017-09-03T10:28:18Z</time>
      </trkpt>
      <trkpt lat="50.4266" lon="2.6268">
        <ele>173.29360976</ele>
        <time>2017-09-03T10:28:22Z</time>
      </trkpt>
      <trkpt lat="50.42664" lon="2.62641">
        <ele>174.29342412</ele>
        <time>2017-09-03T10:28:27Z</time>
      </trkpt>
      <trkpt lat="50.42667" lon="2.62611">
        <ele>173.29330616</ele>
        <time>2017-09-03T10:28:31Z</time>
      </trkpt>
      <trkpt lat="50.42669" lon="2.62583">
        <ele>174.29325016</ele>
        <time>2017-09-03T10:28:35Z</time>
      </trkpt>
      <trkpt lat="50.4267" lon="2.62548">
        <ele>174.2931964</ele>
        <time>2017-09-03T10:28:40Z</time>
      </trkpt>
      <trkpt lat="50.42672" lon="2.62517">
        <ele>174.29314008</ele>
        <time>2017-09-03T10:28:44Z</time>
      </trkpt>
      <trkpt lat="50.42674" lon="2.62484">
        <ele>174.29303192</ele>
        <time>2017-09-03T10:28:48Z</time>
      </trkpt>
      <trkpt lat="50.42679" lon="2.62442">
        <ele>173.29283756</ele>
        <time>2017-09-03T10:28:53Z</time>
      </trkpt>
      <trkpt lat="50.42684" lon="2.62409">
        <ele>173.29264184</ele>
        <time>2017-09-03T10:28:57Z</time>
      </trkpt>
      <trkpt lat="50.42694" lon="2.6238">
        <ele>173.29223092</ele>
        <time>2017-09-03T10:29:01Z</time>
      </trkpt>
      <trkpt lat="50.42706" lon="2.62343">
        <ele>173.2917682</ele>
        <time>2017-09-03T10:29:06Z</time>
      </trkpt>
      <trkpt lat="50.42718" lon="2.62307">
        <ele>174.29128496</ele>
        <time>2017-09-03T10:29:11Z</time>
      </trkpt>
      <trkpt lat="50.42728" lon="2.6227">
        <ele>174.29087404</ele>
        <time>2017-09-03T10:29:16Z</time>
      </trkpt>
      <trkpt lat="50.42741" lon="2.62237">
        <ele>176.29034948</ele>
        <time>2017-09-03T10:29:21Z</time>
      </trkpt>
      <trkpt lat="50.42753" lon="2.62201">
        <ele>175.2898998</ele>
        <time>2017-09-03T10:29:26Z</time>
      </trkpt>
      <trkpt lat="50.42765" lon="2.62166">
        <ele>175.28939716</ele>
        <time>2017-09-03T10:29:30Z</time>
      </trkpt>
      <trkpt lat="50.42779" lon="2.62135">
        <ele>175.28885908</ele>
        <time>2017-09-03T10:29:35Z</time>
      </trkpt>
      <trkpt lat="50.42776" lon="2.62122">
        <ele>176.288966</ele>
        <time>2017-09-03T10:29:40Z</time>
      </trkpt>
      <trkpt lat="50.42759" lon="2.62106">
        <ele>177.28962236</ele>
        <time>2017-09-03T10:29:44Z</time>
      </trkpt>
      <trkpt lat="50.42745" lon="2.62091">
        <ele>176.29019336</ele>
        <time>2017-09-03T10:29:49Z</time>
      </trkpt>
      <trkpt lat="50.42726" lon="2.62071">
        <ele>174.29096488</ele>
        <time>2017-09-03T10:29:54Z</time>
      </trkpt>
      <trkpt lat="50.42711" lon="2.62056">
        <ele>174.2915794</ele>
        <time>2017-09-03T10:29:58Z</time>
      </trkpt>
      <trkpt lat="50.42696" lon="2.6204">
        <ele>173.29216656</ele>
        <time>2017-09-03T10:30:02Z</time>
      </trkpt>
      <trkpt lat="50.42682" lon="2.62024">
        <ele>172.29272504</ele>
        <time>2017-09-03T10:30:06Z</time>
      </trkpt>
      <trkpt lat="50.4267" lon="2.61998">
        <ele>173.2932146</ele>
        <time>2017-09-03T10:30:11Z</time>
      </trkpt>
      <trkpt lat="50.42664" lon="2.61973">
        <ele>173.29342968</ele>
        <time>2017-09-03T10:30:15Z</time>
      </trkpt>
      <trkpt lat="50.42658" lon="2.61944">
        <ele>174.29367816</ele>
        <time>2017-09-03T10:30:19Z</time>
      </trkpt>
      <trkpt lat="50.4265" lon="2.61913">
        <ele>172.29399496</ele>
        <time>2017-09-03T10:30:23Z</time>
      </trkpt>
      <trkpt lat="50.42647" lon="2.61881">
        <ele>173.29412884</ele>
        <time>2017-09-03T10:30:28Z</time>
      </trkpt>
      <trkpt lat="50.42641" lon="2.61849">
        <ele>173.29436548</ele>
        <time>2017-09-03T10:30:32Z</time>
      </trkpt>
      <trkpt lat="50.42634" lon="2.61805">
        <ele>172.29465328</ele>
        <time>2017-09-03T10:30:37Z</time>
      </trkpt>
      <trkpt lat="50.4263" lon="2.61777">
        <ele>173.29480612</ele>
        <time>2017-09-03T10:30:41Z</time>
      </trkpt>
      <trkpt lat="50.42627" lon="2.61753">
        <ele>174.29490716</ele>
        <time>2017-09-03T10:30:45Z</time>
      </trkpt>
      <trkpt lat="50.42622" lon="2.61737">
        <ele>171.29510304</ele>
        <time>2017-09-03T10:30:50Z</time>
      </trkpt>
      <trkpt lat="50.4261" lon="2.61729">
        <ele>170.295616</ele>
        <time>2017-09-03T10:30:54Z</time>
      </trkpt>
      <trkpt lat="50.42589" lon="2.61725">
        <ele>170.2964498</ele>
        <time>2017-09-03T10:30:58Z</time>
      </trkpt>
      <trkpt lat="50.42568" lon="2.61713">
        <ele>171.29727504</ele>
        <time>2017-09-03T10:31:02Z</time>
      </trkpt>
      <trkpt lat="50.4255" lon="2.61699">
        <ele>170.29801304</ele>
        <time>2017-09-03T10:31:06Z</time>
      </trkpt>
      <trkpt lat="50.42533" lon="2.61682">
        <ele>170.29867108</ele>
        <time>2017-09-03T10:31:10Z</time>
      </trkpt>
      <trkpt lat="50.42517" lon="2.61662">
        <ele>171.29931036</ele>
        <time>2017-09-03T10:31:14Z</time>
      </trkpt>
      <trkpt lat="50.42498" lon="2.61631">
        <ele>172.30008216</ele>
        <time>2017-09-03T10:31:19Z</time>
      </trkpt>
      <trkpt lat="50.4248" lon="2.6161">
        <ele>172.30082008</ele>
        <time>2017-09-03T10:31:23Z</time>
      </trkpt>
      <trkpt lat="50.42455" lon="2.61586">
        <ele>170.30180944</ele>
        <time>2017-09-03T10:31:28Z</time>
      </trkpt>
      <trkpt lat="50.42433" lon="2.61564">
        <ele>172.30267432</ele>
        <time>2017-09-03T10:31:33Z</time>
      </trkpt>
      <trkpt lat="50.42411" lon="2.6154">
        <ele>173.30357808</ele>
        <time>2017-09-03T10:31:37Z</time>
      </trkpt>
      <trkpt lat="50.42393" lon="2.6152">
        <ele>174.30427348</ele>
        <time>2017-09-03T10:31:42Z</time>
      </trkpt>
      <trkpt lat="50.42376" lon="2.615">
        <ele>173.3049686</ele>
        <time>2017-09-03T10:31:46Z</time>
      </trkpt>
      <trkpt lat="50.42357" lon="2.61481">
        <ele>172.3057076</ele>
        <time>2017-09-03T10:31:50Z</time>
      </trkpt>
      <trkpt lat="50.42334" lon="2.61455">
        <ele>173.30662932</ele>
        <time>2017-09-03T10:31:55Z</time>
      </trkpt>
      <trkpt lat="50.42311" lon="2.61432">
        <ele>174.30755312</ele>
        <time>2017-09-03T10:32:00Z</time>
      </trkpt>
      <trkpt lat="50.42293" lon="2.61413">
        <ele>175.30828344</ele>
        <time>2017-09-03T10:32:04Z</time>
      </trkpt>
      <trkpt lat="50.42269" lon="2.61389">
        <ele>174.30923332</ele>
        <time>2017-09-03T10:32:09Z</time>
      </trkpt>
      <trkpt lat="50.42253" lon="2.6137">
        <ele>173.30990124</ele>
        <time>2017-09-03T10:32:13Z</time>
      </trkpt>
      <trkpt lat="50.42237" lon="2.61351">
        <ele>173.31053992</ele>
        <time>2017-09-03T10:32:18Z</time>
      </trkpt>
      <trkpt lat="50.42235" lon="2.61338">
        <ele>179.31061228</ele>
        <time>2017-09-03T10:33:33Z</time>
      </trkpt>
      <trkpt lat="50.42227" lon="2.61336">
        <ele>175.3109388</ele>
        <time>2017-09-03T10:37:17Z</time>
      </trkpt>
      <trkpt lat="50.4221" lon="2.61321">
        <ele>174.31161296</ele>
        <time>2017-09-03T10:37:21Z</time>
      </trkpt>
      <trkpt lat="50.42186" lon="2.61295">
        <ele>175.31257092</ele>
        <time>2017-09-03T10:37:26Z</time>
      </trkpt>
      <trkpt lat="50.42167" lon="2.61274">
        <ele>175.31333524</ele>
        <time>2017-09-03T10:37:30Z</time>
      </trkpt>
      <trkpt lat="50.42144" lon="2.6125">
        <ele>175.31424408</ele>
        <time>2017-09-03T10:37:35Z</time>
      </trkpt>
      <trkpt lat="50.42123" lon="2.61228">
        <ele>174.31509236</ele>
        <time>2017-09-03T10:37:40Z</time>
      </trkpt>
      <trkpt lat="50.42104" lon="2.61209">
        <ele>174.31583616</ele>
        <time>2017-09-03T10:37:44Z</time>
      </trkpt>
      <trkpt lat="50.42086" lon="2.61188">
        <ele>174.31657796</ele>
        <time>2017-09-03T10:37:48Z</time>
      </trkpt>
      <trkpt lat="50.42063" lon="2.61161">
        <ele>174.31748732</ele>
        <time>2017-09-03T10:37:53Z</time>
      </trkpt>
      <trkpt lat="50.42043" lon="2.61133">
        <ele>174.31827716</ele>
        <time>2017-09-03T10:37:58Z</time>
      </trkpt>
      <trkpt lat="50.42033" lon="2.61106">
        <ele>174.31867772</ele>
        <time>2017-09-03T10:38:02Z</time>
      </trkpt>
      <trkpt lat="50.42029" lon="2.61079">
        <ele>172.31882924</ele>
        <time>2017-09-03T10:38:06Z</time>
      </trkpt>
      <trkpt lat="50.42029" lon="2.61051">
        <ele>173.31882284</ele>
        <time>2017-09-03T10:38:11Z</time>
      </trkpt>
      <trkpt lat="50.42028" lon="2.61024">
        <ele>175.31886392</ele>
        <time>2017-09-03T10:38:15Z</time>
      </trkpt>
      <trkpt lat="50.42027" lon="2.60996">
        <ele>175.31893084</ele>
        <time>2017-09-03T10:38:19Z</time>
      </trkpt>
      <trkpt lat="50.42026" lon="2.60966">
        <ele>175.31897768</ele>
        <time>2017-09-03T10:38:24Z</time>
      </trkpt>
      <trkpt lat="50.4202" lon="2.60947">
        <ele>176.31921908</ele>
        <time>2017-09-03T10:38:28Z</time>
      </trkpt>
      <trkpt lat="50.42014" lon="2.60917">
        <ele>175.31944848</ele>
        <time>2017-09-03T10:38:32Z</time>
      </trkpt>
      <trkpt lat="50.42009" lon="2.60883">
        <ele>177.3196448</ele>
        <time>2017-09-03T10:38:36Z</time>
      </trkpt>
      <trkpt lat="50.42004" lon="2.60854">
        <ele>180.31983688</ele>
        <time>2017-09-03T10:38:40Z</time>
      </trkpt>
      <trkpt lat="50.41998" lon="2.60817">
        <ele>183.32008888</ele>
        <time>2017-09-03T10:38:45Z</time>
      </trkpt>
      <trkpt lat="50.41999" lon="2.60774">
        <ele>182.3200566</ele>
        <time>2017-09-03T10:38:50Z</time>
      </trkpt>
      <trkpt lat="50.41996" lon="2.60758">
        <ele>179.32016688</ele>
        <time>2017-09-03T10:38:54Z</time>
      </trkpt>
      <trkpt lat="50.41999" lon="2.60745">
        <ele>179.32004492</ele>
        <time>2017-09-03T10:39:02Z</time>
      </trkpt>
      <trkpt lat="50.41998" lon="2.60728">
        <ele>180.32007312</ele>
        <time>2017-09-03T10:39:07Z</time>
      </trkpt>
      <trkpt lat="50.42005" lon="2.60704">
        <ele>180.31979652</ele>
        <time>2017-09-03T10:39:12Z</time>
      </trkpt>
      <trkpt lat="50.42019" lon="2.60682">
        <ele>179.31924644</ele>
        <time>2017-09-03T10:39:17Z</time>
      </trkpt>
      <trkpt lat="50.42025" lon="2.60662">
        <ele>184.3189876</ele>
        <time>2017-09-03T10:39:21Z</time>
      </trkpt>
      <trkpt lat="50.42036" lon="2.60634">
        <ele>181.31855404</ele>
        <time>2017-09-03T10:39:26Z</time>
      </trkpt>
      <trkpt lat="50.42046" lon="2.60618">
        <ele>181.3181602</ele>
        <time>2017-09-03T10:39:31Z</time>
      </trkpt>
      <trkpt lat="50.42052" lon="2.60597">
        <ele>177.31790372</ele>
        <time>2017-09-03T10:39:35Z</time>
      </trkpt>
      <trkpt lat="50.42061" lon="2.60567">
        <ele>177.317573</ele>
        <time>2017-09-03T10:39:40Z</time>
      </trkpt>
      <trkpt lat="50.42071" lon="2.60542">
        <ele>177.31714708</ele>
        <time>2017-09-03T10:39:44Z</time>
      </trkpt>
      <trkpt lat="50.42082" lon="2.60521">
        <ele>177.3167254</ele>
        <time>2017-09-03T10:39:49Z</time>
      </trkpt>
      <trkpt lat="50.42093" lon="2.605">
        <ele>178.31628172</ele>
        <time>2017-09-03T10:39:53Z</time>
      </trkpt>
      <trkpt lat="50.421" lon="2.60482">
        <ele>178.31601608</ele>
        <time>2017-09-03T10:39:57Z</time>
      </trkpt>
      <trkpt lat="50.42109" lon="2.60458">
        <ele>180.315637</ele>
        <time>2017-09-03T10:40:00Z</time>
      </trkpt>
      <trkpt lat="50.4212" lon="2.60444">
        <ele>180.31521876</ele>
        <time>2017-09-03T10:40:05Z</time>
      </trkpt>
      <trkpt lat="50.42124" lon="2.60425">
        <ele>175.31505056</ele>
        <time>2017-09-03T10:40:09Z</time>
      </trkpt>
      <trkpt lat="50.42126" lon="2.60396">
        <ele>174.31497388</ele>
        <time>2017-09-03T10:40:14Z</time>
      </trkpt>
      <trkpt lat="50.42139" lon="2.60378">
        <ele>174.31443712</ele>
        <time>2017-09-03T10:40:19Z</time>
      </trkpt>
      <trkpt lat="50.42145" lon="2.60358">
        <ele>173.31421724</ele>
        <time>2017-09-03T10:40:23Z</time>
      </trkpt>
      <trkpt lat="50.42148" lon="2.60347">
        <ele>173.31409692</ele>
        <time>2017-09-03T10:40:27Z</time>
      </trkpt>
      <trkpt lat="50.42152" lon="2.60331">
        <ele>174.31390232</ele>
        <time>2017-09-03T10:40:32Z</time>
      </trkpt>
      <trkpt lat="50.42158" lon="2.60324">
        <ele>172.31368492</ele>
        <time>2017-09-03T10:40:36Z</time>
      </trkpt>
      <trkpt lat="50.42164" lon="2.60309">
        <ele>169.31343348</ele>
        <time>2017-09-03T10:40:40Z</time>
      </trkpt>
      <trkpt lat="50.42169" lon="2.60282">
        <ele>166.3132246</ele>
        <time>2017-09-03T10:40:45Z</time>
      </trkpt>
      <trkpt lat="50.42185" lon="2.60255">
        <ele>170.31258912</ele>
        <time>2017-09-03T10:40:50Z</time>
      </trkpt>
      <trkpt lat="50.42189" lon="2.60242">
        <ele>169.31242604</ele>
        <time>2017-09-03T10:40:53Z</time>
      </trkpt>
      <trkpt lat="50.4219" lon="2.60228">
        <ele>165.3123836</ele>
        <time>2017-09-03T10:41:09Z</time>
      </trkpt>
      <trkpt lat="50.42197" lon="2.60212">
        <ele>162.31212312</ele>
        <time>2017-09-03T10:41:13Z</time>
      </trkpt>
      <trkpt lat="50.42207" lon="2.60207">
        <ele>158.31172536</ele>
        <time>2017-09-03T10:41:18Z</time>
      </trkpt>
      <trkpt lat="50.42218" lon="2.60211">
        <ele>160.31130048</ele>
        <time>2017-09-03T10:41:22Z</time>
      </trkpt>
      <trkpt lat="50.42236" lon="2.60214">
        <ele>162.31057908</ele>
        <time>2017-09-03T10:41:27Z</time>
      </trkpt>
      <trkpt lat="50.42249" lon="2.60227">
        <ele>163.31003608</ele>
        <time>2017-09-03T10:41:32Z</time>
      </trkpt>
      <trkpt lat="50.42264" lon="2.60235">
        <ele>160.30945268</ele>
        <time>2017-09-03T10:41:37Z</time>
      </trkpt>
      <trkpt lat="50.42282" lon="2.60229">
        <ele>160.30873876</ele>
        <time>2017-09-03T10:41:42Z</time>
      </trkpt>
      <trkpt lat="50.4229" lon="2.60232">
        <ele>158.30840052</ele>
        <time>2017-09-03T10:41:46Z</time>
      </trkpt>
      <trkpt lat="50.423" lon="2.60237">
        <ele>154.30800152</ele>
        <time>2017-09-03T10:41:50Z</time>
      </trkpt>
      <trkpt lat="50.42309" lon="2.60245">
        <ele>153.30764832</ele>
        <time>2017-09-03T10:41:54Z</time>
      </trkpt>
      <trkpt lat="50.42324" lon="2.60254">
        <ele>149.30702904</ele>
        <time>2017-09-03T10:41:58Z</time>
      </trkpt>
      <trkpt lat="50.42338" lon="2.6026">
        <ele>150.30649728</ele>
        <time>2017-09-03T10:42:03Z</time>
      </trkpt>
      <trkpt lat="50.42346" lon="2.60252">
        <ele>146.30616608</ele>
        <time>2017-09-03T10:42:07Z</time>
      </trkpt>
      <trkpt lat="50.42356" lon="2.60238">
        <ele>146.3057686</ele>
        <time>2017-09-03T10:42:12Z</time>
      </trkpt>
      <trkpt lat="50.42362" lon="2.60212">
        <ele>148.30550248</ele>
        <time>2017-09-03T10:42:16Z</time>
      </trkpt>
      <trkpt lat="50.42374" lon="2.6017">
        <ele>146.30503856</ele>
        <time>2017-09-03T10:42:21Z</time>
      </trkpt>
      <trkpt lat="50.42381" lon="2.6014">
        <ele>144.30477488</ele>
        <time>2017-09-03T10:42:25Z</time>
      </trkpt>
      <trkpt lat="50.42389" lon="2.60114">
        <ele>141.3044556</ele>
        <time>2017-09-03T10:42:29Z</time>
      </trkpt>
      <trkpt lat="50.42395" lon="2.6008">
        <ele>138.30419576</ele>
        <time>2017-09-03T10:42:34Z</time>
      </trkpt>
      <trkpt lat="50.42403" lon="2.60053">
        <ele>133.30390004</ele>
        <time>2017-09-03T10:42:38Z</time>
      </trkpt>
      <trkpt lat="50.42416" lon="2.60013">
        <ele>127.30335472</ele>
        <time>2017-09-03T10:42:43Z</time>
      </trkpt>
      <trkpt lat="50.42431" lon="2.59962">
        <ele>124.30278088</ele>
        <time>2017-09-03T10:42:48Z</time>
      </trkpt>
      <trkpt lat="50.4244" lon="2.59926">
        <ele>122.30241776</ele>
        <time>2017-09-03T10:42:52Z</time>
      </trkpt>
      <trkpt lat="50.42445" lon="2.59904">
        <ele>122.30221872</ele>
        <time>2017-09-03T10:42:56Z</time>
      </trkpt>
      <trkpt lat="50.42441" lon="2.59881">
        <ele>123.30235272</ele>
        <time>2017-09-03T10:43:00Z</time>
      </trkpt>
      <trkpt lat="50.42434" lon="2.59844">
        <ele>120.30265656</ele>
        <time>2017-09-03T10:43:05Z</time>
      </trkpt>
      <trkpt lat="50.42439" lon="2.59804">
        <ele>118.30245716</ele>
        <time>2017-09-03T10:43:09Z</time>
      </trkpt>
      <trkpt lat="50.42444" lon="2.59777">
        <ele>113.30223996</ele>
        <time>2017-09-03T10:43:13Z</time>
      </trkpt>
      <trkpt lat="50.42452" lon="2.59747">
        <ele>111.3019402</ele>
        <time>2017-09-03T10:43:18Z</time>
      </trkpt>
      <trkpt lat="50.42464" lon="2.59708">
        <ele>108.3014468</ele>
        <time>2017-09-03T10:43:23Z</time>
      </trkpt>
      <trkpt lat="50.42475" lon="2.59683">
        <ele>106.30099592</ele>
        <time>2017-09-03T10:43:26Z</time>
      </trkpt>
      <trkpt lat="50.42493" lon="2.59656">
        <ele>105.30028028</ele>
        <time>2017-09-03T10:43:31Z</time>
      </trkpt>
      <trkpt lat="50.42514" lon="2.59643">
        <ele>104.29945996</ele>
        <time>2017-09-03T10:43:36Z</time>
      </trkpt>
      <trkpt lat="50.42539" lon="2.59633">
        <ele>104.29844936</ele>
        <time>2017-09-03T10:43:41Z</time>
      </trkpt>
      <trkpt lat="50.42555" lon="2.59624">
        <ele>104.29780776</ele>
        <time>2017-09-03T10:43:45Z</time>
      </trkpt>
      <trkpt lat="50.42563" lon="2.59594">
        <ele>104.29748928</ele>
        <time>2017-09-03T10:43:50Z</time>
      </trkpt>
      <trkpt lat="50.42561" lon="2.59555">
        <ele>102.29754256</ele>
        <time>2017-09-03T10:43:54Z</time>
      </trkpt>
      <trkpt lat="50.42558" lon="2.59501">
        <ele>100.29766888</ele>
        <time>2017-09-03T10:43:59Z</time>
      </trkpt>
      <trkpt lat="50.42555" lon="2.59441">
        <ele>97.29778688</ele>
        <time>2017-09-03T10:44:04Z</time>
      </trkpt>
      <trkpt lat="50.42547" lon="2.5939">
        <ele>95.29813808</ele>
        <time>2017-09-03T10:44:08Z</time>
      </trkpt>
      <trkpt lat="50.42537" lon="2.59353">
        <ele>95.29852784</ele>
        <time>2017-09-03T10:44:11Z</time>
      </trkpt>
      <trkpt lat="50.42515" lon="2.59298">
        <ele>93.2994208</ele>
        <time>2017-09-03T10:44:16Z</time>
      </trkpt>
      <trkpt lat="50.42496" lon="2.59262">
        <ele>92.30015648</ele>
        <time>2017-09-03T10:44:20Z</time>
      </trkpt>
      <trkpt lat="50.42494" lon="2.5924">
        <ele>92.30025208</ele>
        <time>2017-09-03T10:44:24Z</time>
      </trkpt>
      <trkpt lat="50.42487" lon="2.59233">
        <ele>90.3005182</ele>
        <time>2017-09-03T10:44:29Z</time>
      </trkpt>
      <trkpt lat="50.42492" lon="2.59221">
        <ele>91.3003072</ele>
        <time>2017-09-03T10:44:34Z</time>
      </trkpt>
      <trkpt lat="50.42507" lon="2.59207">
        <ele>90.29973</ele>
        <time>2017-09-03T10:44:38Z</time>
      </trkpt>
      <trkpt lat="50.42524" lon="2.59188">
        <ele>90.29906184</ele>
        <time>2017-09-03T10:44:42Z</time>
      </trkpt>
      <trkpt lat="50.42543" lon="2.5916">
        <ele>90.29829036</ele>
        <time>2017-09-03T10:44:47Z</time>
      </trkpt>
      <trkpt lat="50.42558" lon="2.59137">
        <ele>90.29767</ele>
        <time>2017-09-03T10:44:51Z</time>
      </trkpt>
      <trkpt lat="50.42574" lon="2.59115">
        <ele>90.29705412</ele>
        <time>2017-09-03T10:44:55Z</time>
      </trkpt>
      <trkpt lat="50.42589" lon="2.59095">
        <ele>90.29644044</ele>
        <time>2017-09-03T10:44:59Z</time>
      </trkpt>
      <trkpt lat="50.42608" lon="2.59074">
        <ele>90.295673</ele>
        <time>2017-09-03T10:45:04Z</time>
      </trkpt>
      <trkpt lat="50.42624" lon="2.59059">
        <ele>90.2950584</ele>
        <time>2017-09-03T10:45:08Z</time>
      </trkpt>
      <trkpt lat="50.42645" lon="2.59049">
        <ele>92.29420072</ele>
        <time>2017-09-03T10:45:12Z</time>
      </trkpt>
      <trkpt lat="50.4266" lon="2.59046">
        <ele>91.29361548</ele>
        <time>2017-09-03T10:45:17Z</time>
      </trkpt>
      <trkpt lat="50.42673" lon="2.59045">
        <ele>91.2930706</ele>
        <time>2017-09-03T10:45:22Z</time>
      </trkpt>
      <trkpt lat="50.42686" lon="2.59043">
        <ele>93.2925506</ele>
        <time>2017-09-03T10:45:27Z</time>
      </trkpt>
      <trkpt lat="50.42695" lon="2.59043">
        <ele>94.29219224</ele>
        <time>2017-09-03T10:45:31Z</time>
      </trkpt>
      <trkpt lat="50.42704" lon="2.59042">
        <ele>94.2918378</ele>
        <time>2017-09-03T10:45:35Z</time>
      </trkpt>
      <trkpt lat="50.42713" lon="2.59044">
        <ele>95.2914734</ele>
        <time>2017-09-03T10:45:39Z</time>
      </trkpt>
      <trkpt lat="50.42721" lon="2.59044">
        <ele>95.29115096</ele>
        <time>2017-09-03T10:45:43Z</time>
      </trkpt>
      <trkpt lat="50.42729" lon="2.59043">
        <ele>95.290847</ele>
        <time>2017-09-03T10:45:47Z</time>
      </trkpt>
      <trkpt lat="50.42738" lon="2.59045">
        <ele>96.29049648</ele>
        <time>2017-09-03T10:45:52Z</time>
      </trkpt>
      <trkpt lat="50.42746" lon="2.59044">
        <ele>97.29016528</ele>
        <time>2017-09-03T10:47:58Z</time>
      </trkpt>
      <trkpt lat="50.42755" lon="2.59047">
        <ele>98.28982172</ele>
        <time>2017-09-03T10:48:03Z</time>
      </trkpt>
      <trkpt lat="50.42761" lon="2.59054">
        <ele>99.28955144</ele>
        <time>2017-09-03T10:48:07Z</time>
      </trkpt>
      <trkpt lat="50.42768" lon="2.5906">
        <ele>101.28929456</ele>
        <time>2017-09-03T10:48:11Z</time>
      </trkpt>
      <trkpt lat="50.42776" lon="2.59065">
        <ele>102.2889542</ele>
        <time>2017-09-03T10:48:16Z</time>
      </trkpt>
      <trkpt lat="50.42783" lon="2.59068">
        <ele>103.28866896</ele>
        <time>2017-09-03T10:48:21Z</time>
      </trkpt>
      <trkpt lat="50.42791" lon="2.59072">
        <ele>105.28835892</ele>
        <time>2017-09-03T10:48:25Z</time>
      </trkpt>
      <trkpt lat="50.42799" lon="2.59072">
        <ele>106.28804676</ele>
        <time>2017-09-03T10:48:31Z</time>
      </trkpt>
      <trkpt lat="50.42808" lon="2.59074">
        <ele>107.28769872</ele>
        <time>2017-09-03T10:48:37Z</time>
      </trkpt>
      <trkpt lat="50.42815" lon="2.59077">
        <ele>109.28739612</ele>
        <time>2017-09-03T10:48:42Z</time>
      </trkpt>
      <trkpt lat="50.42824" lon="2.59077">
        <ele>110.28704988</ele>
        <time>2017-09-03T10:48:48Z</time>
      </trkpt>
      <trkpt lat="50.42832" lon="2.5908">
        <ele>112.28672412</ele>
        <time>2017-09-03T10:48:54Z</time>
      </trkpt>
      <trkpt lat="50.4284" lon="2.59082">
        <ele>113.28640024</ele>
        <time>2017-09-03T10:49:00Z</time>
      </trkpt>
      <trkpt lat="50.42848" lon="2.59083">
        <ele>113.28609396</ele>
        <time>2017-09-03T10:49:06Z</time>
      </trkpt>
      <trkpt lat="50.42855" lon="2.59085">
        <ele>114.28580196</ele>
        <time>2017-09-03T10:49:10Z</time>
      </trkpt>
      <trkpt lat="50.42863" lon="2.59086">
        <ele>116.28549552</ele>
        <time>2017-09-03T10:49:15Z</time>
      </trkpt>
      <trkpt lat="50.42871" lon="2.59088">
        <ele>116.28515704</ele>
        <time>2017-09-03T10:49:20Z</time>
      </trkpt>
      <trkpt lat="50.42879" lon="2.59088">
        <ele>117.2848232</ele>
        <time>2017-09-03T10:49:25Z</time>
      </trkpt>
      <trkpt lat="50.42888" lon="2.59089">
        <ele>119.28447752</ele>
        <time>2017-09-03T10:49:30Z</time>
      </trkpt>
      <trkpt lat="50.42896" lon="2.59089">
        <ele>120.28416024</ele>
        <time>2017-09-03T10:49:36Z</time>
      </trkpt>
      <trkpt lat="50.42904" lon="2.59092">
        <ele>121.28384044</ele>
        <time>2017-09-03T10:49:41Z</time>
      </trkpt>
      <trkpt lat="50.42911" lon="2.59094">
        <ele>122.28354984</ele>
        <time>2017-09-03T10:49:45Z</time>
      </trkpt>
      <trkpt lat="50.42919" lon="2.59094">
        <ele>122.28323884</ele>
        <time>2017-09-03T10:49:50Z</time>
      </trkpt>
      <trkpt lat="50.42928" lon="2.59093">
        <ele>124.28289616</ele>
        <time>2017-09-03T10:49:54Z</time>
      </trkpt>
      <trkpt lat="50.42935" lon="2.59095">
        <ele>126.28259764</ele>
        <time>2017-09-03T10:50:00Z</time>
      </trkpt>
      <trkpt lat="50.42943" lon="2.59095">
        <ele>125.28229536</ele>
        <time>2017-09-03T10:50:05Z</time>
      </trkpt>
      <trkpt lat="50.4295" lon="2.59096">
        <ele>125.28199664</ele>
        <time>2017-09-03T10:50:09Z</time>
      </trkpt>
      <trkpt lat="50.42959" lon="2.59096">
        <ele>126.28164436</ele>
        <time>2017-09-03T10:50:14Z</time>
      </trkpt>
      <trkpt lat="50.42967" lon="2.59097">
        <ele>126.281307</ele>
        <time>2017-09-03T10:50:19Z</time>
      </trkpt>
      <trkpt lat="50.42976" lon="2.59099">
        <ele>127.2809784</ele>
        <time>2017-09-03T10:50:24Z</time>
      </trkpt>
      <trkpt lat="50.42984" lon="2.59099">
        <ele>130.28064548</ele>
        <time>2017-09-03T10:50:30Z</time>
      </trkpt>
      <trkpt lat="50.42992" lon="2.591">
        <ele>133.28030532</ele>
        <time>2017-09-03T10:50:36Z</time>
      </trkpt>
      <trkpt lat="50.43" lon="2.59101">
        <ele>134.2799824</ele>
        <time>2017-09-03T10:50:41Z</time>
      </trkpt>
      <trkpt lat="50.43009" lon="2.59104">
        <ele>133.27965552</ele>
        <time>2017-09-03T10:50:45Z</time>
      </trkpt>
      <trkpt lat="50.43016" lon="2.59105">
        <ele>135.27936796</ele>
        <time>2017-09-03T10:50:49Z</time>
      </trkpt>
      <trkpt lat="50.43025" lon="2.59104">
        <ele>136.27902116</ele>
        <time>2017-09-03T10:50:55Z</time>
      </trkpt>
      <trkpt lat="50.43032" lon="2.59103">
        <ele>137.27871692</ele>
        <time>2017-09-03T10:51:00Z</time>
      </trkpt>
      <trkpt lat="50.43041" lon="2.59105">
        <ele>137.27834672</ele>
        <time>2017-09-03T10:51:05Z</time>
      </trkpt>
      <trkpt lat="50.43049" lon="2.59107">
        <ele>137.27804088</ele>
        <time>2017-09-03T10:51:10Z</time>
      </trkpt>
      <trkpt lat="50.43056" lon="2.59108">
        <ele>138.27774376</ele>
        <time>2017-09-03T10:51:15Z</time>
      </trkpt>
      <trkpt lat="50.43065" lon="2.59107">
        <ele>137.27741256</ele>
        <time>2017-09-03T10:51:20Z</time>
      </trkpt>
      <trkpt lat="50.43073" lon="2.59108">
        <ele>138.27706932</ele>
        <time>2017-09-03T10:51:25Z</time>
      </trkpt>
      <trkpt lat="50.43082" lon="2.59111">
        <ele>139.276733</ele>
        <time>2017-09-03T10:51:29Z</time>
      </trkpt>
      <trkpt lat="50.43089" lon="2.59117">
        <ele>140.27645976</ele>
        <time>2017-09-03T10:51:34Z</time>
      </trkpt>
      <trkpt lat="50.43095" lon="2.59122">
        <ele>140.27619356</ele>
        <time>2017-09-03T10:51:38Z</time>
      </trkpt>
      <trkpt lat="50.43102" lon="2.59127">
        <ele>141.2759168</ele>
        <time>2017-09-03T10:51:42Z</time>
      </trkpt>
      <trkpt lat="50.4311" lon="2.59135">
        <ele>142.27561048</ele>
        <time>2017-09-03T10:51:47Z</time>
      </trkpt>
      <trkpt lat="50.43116" lon="2.59144">
        <ele>141.27536268</ele>
        <time>2017-09-03T10:51:52Z</time>
      </trkpt>
      <trkpt lat="50.43123" lon="2.59149">
        <ele>142.27507208</ele>
        <time>2017-09-03T10:51:57Z</time>
      </trkpt>
      <trkpt lat="50.43132" lon="2.59153">
        <ele>142.27473808</ele>
        <time>2017-09-03T10:52:02Z</time>
      </trkpt>
      <trkpt lat="50.43139" lon="2.59153">
        <ele>143.27443564</ele>
        <time>2017-09-03T10:52:07Z</time>
      </trkpt>
      <trkpt lat="50.43147" lon="2.59153">
        <ele>143.27412516</ele>
        <time>2017-09-03T10:52:11Z</time>
      </trkpt>
      <trkpt lat="50.43155" lon="2.59151">
        <ele>143.27379424</ele>
        <time>2017-09-03T10:52:16Z</time>
      </trkpt>
      <trkpt lat="50.43164" lon="2.59148">
        <ele>146.27345592</ele>
        <time>2017-09-03T10:52:21Z</time>
      </trkpt>
      <trkpt lat="50.43172" lon="2.59146">
        <ele>147.2731336</ele>
        <time>2017-09-03T10:52:25Z</time>
      </trkpt>
      <trkpt lat="50.43179" lon="2.5914">
        <ele>149.27282436</ele>
        <time>2017-09-03T10:52:31Z</time>
      </trkpt>
      <trkpt lat="50.43187" lon="2.59133">
        <ele>150.27250548</ele>
        <time>2017-09-03T10:52:36Z</time>
      </trkpt>
      <trkpt lat="50.43195" lon="2.59129">
        <ele>151.27218524</ele>
        <time>2017-09-03T10:52:41Z</time>
      </trkpt>
      <trkpt lat="50.43203" lon="2.59122">
        <ele>155.27189752</ele>
        <time>2017-09-03T10:52:47Z</time>
      </trkpt>
      <trkpt lat="50.43209" lon="2.59115">
        <ele>156.271652</ele>
        <time>2017-09-03T10:52:52Z</time>
      </trkpt>
      <trkpt lat="50.43214" lon="2.59109">
        <ele>156.27142976</ele>
        <time>2017-09-03T10:52:56Z</time>
      </trkpt>
      <trkpt lat="50.43222" lon="2.59102">
        <ele>158.27114112</ele>
        <time>2017-09-03T10:53:01Z</time>
      </trkpt>
      <trkpt lat="50.43227" lon="2.59094">
        <ele>158.27090952</ele>
        <time>2017-09-03T10:53:05Z</time>
      </trkpt>
      <trkpt lat="50.43229" lon="2.59082">
        <ele>157.27083984</ele>
        <time>2017-09-03T10:53:09Z</time>
      </trkpt>
      <trkpt lat="50.43235" lon="2.59071">
        <ele>159.27061504</ele>
        <time>2017-09-03T10:53:15Z</time>
      </trkpt>
      <trkpt lat="50.43239" lon="2.5906">
        <ele>159.2704382</ele>
        <time>2017-09-03T10:53:22Z</time>
      </trkpt>
      <trkpt lat="50.43244" lon="2.59053">
        <ele>157.2702338</ele>
        <time>2017-09-03T10:53:26Z</time>
      </trkpt>
      <trkpt lat="50.4325" lon="2.59042">
        <ele>159.2700138</ele>
        <time>2017-09-03T10:53:32Z</time>
      </trkpt>
      <trkpt lat="50.43251" lon="2.59029">
        <ele>163.2699456</ele>
        <time>2017-09-03T10:53:38Z</time>
      </trkpt>
      <trkpt lat="50.43257" lon="2.59019">
        <ele>162.26971056</ele>
        <time>2017-09-03T10:53:44Z</time>
      </trkpt>
      <trkpt lat="50.43258" lon="2.59007">
        <ele>165.269678</ele>
        <time>2017-09-03T10:53:49Z</time>
      </trkpt>
      <trkpt lat="50.43258" lon="2.58994">
        <ele>168.26969716</ele>
        <time>2017-09-03T10:53:55Z</time>
      </trkpt>
      <trkpt lat="50.43258" lon="2.5898">
        <ele>171.26967152</ele>
        <time>2017-09-03T10:54:01Z</time>
      </trkpt>
      <trkpt lat="50.43262" lon="2.58968">
        <ele>169.2695076</ele>
        <time>2017-09-03T10:54:08Z</time>
      </trkpt>
      <trkpt lat="50.43266" lon="2.58958">
        <ele>173.26936416</ele>
        <time>2017-09-03T10:54:14Z</time>
      </trkpt>
      <trkpt lat="50.43271" lon="2.58947">
        <ele>179.26915132</ele>
        <time>2017-09-03T10:54:22Z</time>
      </trkpt>
      <trkpt lat="50.43274" lon="2.58935">
        <ele>179.269032</ele>
        <time>2017-09-03T10:54:26Z</time>
      </trkpt>
      <trkpt lat="50.43281" lon="2.58925">
        <ele>182.2687666</ele>
        <time>2017-09-03T10:54:31Z</time>
      </trkpt>
      <trkpt lat="50.43293" lon="2.58913">
        <ele>176.26827688</ele>
        <time>2017-09-03T10:54:35Z</time>
      </trkpt>
      <trkpt lat="50.43298" lon="2.58901">
        <ele>178.26808136</ele>
        <time>2017-09-03T10:54:39Z</time>
      </trkpt>
      <trkpt lat="50.43307" lon="2.58885">
        <ele>184.26770796</ele>
        <time>2017-09-03T10:54:43Z</time>
      </trkpt>
      <trkpt lat="50.43319" lon="2.58871">
        <ele>180.2672506</ele>
        <time>2017-09-03T10:54:48Z</time>
      </trkpt>
      <trkpt lat="50.43326" lon="2.58856">
        <ele>179.2669678</ele>
        <time>2017-09-03T10:54:53Z</time>
      </trkpt>
      <trkpt lat="50.43332" lon="2.58845">
        <ele>181.2667126</ele>
        <time>2017-09-03T10:54:57Z</time>
      </trkpt>
      <trkpt lat="50.43341" lon="2.58828">
        <ele>181.26635</ele>
        <time>2017-09-03T10:55:02Z</time>
      </trkpt>
      <trkpt lat="50.43345" lon="2.58821">
        <ele>181.26621908</ele>
        <time>2017-09-03T10:55:04Z</time>
      </trkpt>
      <trkpt lat="50.43347" lon="2.5881">
        <ele>181.26610512</ele>
        <time>2017-09-03T10:55:08Z</time>
      </trkpt>
      <trkpt lat="50.43359" lon="2.58788">
        <ele>183.26564144</ele>
        <time>2017-09-03T10:55:13Z</time>
      </trkpt>
      <trkpt lat="50.43367" lon="2.58765">
        <ele>180.26534068</ele>
        <time>2017-09-03T10:55:18Z</time>
      </trkpt>
      <trkpt lat="50.43374" lon="2.58751">
        <ele>180.26505404</ele>
        <time>2017-09-03T10:55:21Z</time>
      </trkpt>
      <trkpt lat="50.43383" lon="2.58735">
        <ele>180.26467496</ele>
        <time>2017-09-03T10:55:25Z</time>
      </trkpt>
      <trkpt lat="50.43392" lon="2.58719">
        <ele>183.26432376</ele>
        <time>2017-09-03T10:55:30Z</time>
      </trkpt>
      <trkpt lat="50.43398" lon="2.58709">
        <ele>186.26406704</ele>
        <time>2017-09-03T10:55:35Z</time>
      </trkpt>
      <trkpt lat="50.43412" lon="2.58691">
        <ele>189.26351392</ele>
        <time>2017-09-03T10:55:39Z</time>
      </trkpt>
      <trkpt lat="50.43425" lon="2.58677">
        <ele>188.2630106</ele>
        <time>2017-09-03T10:55:44Z</time>
      </trkpt>
      <trkpt lat="50.4344" lon="2.58681">
        <ele>183.2624156</ele>
        <time>2017-09-03T10:55:48Z</time>
      </trkpt>
      <trkpt lat="50.43454" lon="2.58692">
        <ele>180.26183784</ele>
        <time>2017-09-03T10:55:52Z</time>
      </trkpt>
      <trkpt lat="50.4347" lon="2.58709">
        <ele>180.26121228</ele>
        <time>2017-09-03T10:55:57Z</time>
      </trkpt>
      <trkpt lat="50.43482" lon="2.58724">
        <ele>181.26071144</ele>
        <time>2017-09-03T10:56:01Z</time>
      </trkpt>
      <trkpt lat="50.43496" lon="2.58735">
        <ele>182.26016692</ele>
        <time>2017-09-03T10:56:05Z</time>
      </trkpt>
      <trkpt lat="50.43515" lon="2.5875">
        <ele>183.2593936</ele>
        <time>2017-09-03T10:56:10Z</time>
      </trkpt>
      <trkpt lat="50.43531" lon="2.58764">
        <ele>181.2587674</ele>
        <time>2017-09-03T10:56:14Z</time>
      </trkpt>
      <trkpt lat="50.43548" lon="2.58783">
        <ele>182.25808716</ele>
        <time>2017-09-03T10:56:19Z</time>
      </trkpt>
      <trkpt lat="50.43562" lon="2.588">
        <ele>183.25751804</ele>
        <time>2017-09-03T10:56:23Z</time>
      </trkpt>
      <trkpt lat="50.43577" lon="2.58802">
        <ele>184.25690484</ele>
        <time>2017-09-03T10:56:27Z</time>
      </trkpt>
      <trkpt lat="50.43589" lon="2.58803">
        <ele>182.25642564</ele>
        <time>2017-09-03T10:56:32Z</time>
      </trkpt>
      <trkpt lat="50.43607" lon="2.58818">
        <ele>182.25570276</ele>
        <time>2017-09-03T10:56:37Z</time>
      </trkpt>
      <trkpt lat="50.43623" lon="2.58834">
        <ele>182.2550666</ele>
        <time>2017-09-03T10:56:41Z</time>
      </trkpt>
      <trkpt lat="50.43645" lon="2.58852">
        <ele>181.2541944</ele>
        <time>2017-09-03T10:56:46Z</time>
      </trkpt>
      <trkpt lat="50.43667" lon="2.58867">
        <ele>183.2533238</ele>
        <time>2017-09-03T10:56:51Z</time>
      </trkpt>
      <trkpt lat="50.43689" lon="2.58885">
        <ele>181.2524568</ele>
        <time>2017-09-03T10:56:55Z</time>
      </trkpt>
      <trkpt lat="50.43705" lon="2.58911">
        <ele>178.25179976</ele>
        <time>2017-09-03T10:56:59Z</time>
      </trkpt>
      <trkpt lat="50.43723" lon="2.58933">
        <ele>176.25108756</ele>
        <time>2017-09-03T10:57:04Z</time>
      </trkpt>
      <trkpt lat="50.4374" lon="2.58951">
        <ele>175.2503886</ele>
        <time>2017-09-03T10:57:08Z</time>
      </trkpt>
      <trkpt lat="50.43766" lon="2.5897">
        <ele>172.24935088</ele>
        <time>2017-09-03T10:57:13Z</time>
      </trkpt>
      <trkpt lat="50.43784" lon="2.58987">
        <ele>171.2486312</ele>
        <time>2017-09-03T10:57:17Z</time>
      </trkpt>
      <trkpt lat="50.43808" lon="2.59005">
        <ele>168.2476908</ele>
        <time>2017-09-03T10:57:21Z</time>
      </trkpt>
      <trkpt lat="50.4383" lon="2.59022">
        <ele>168.2467826</ele>
        <time>2017-09-03T10:57:25Z</time>
      </trkpt>
      <trkpt lat="50.43852" lon="2.59042">
        <ele>165.24594152</ele>
        <time>2017-09-03T10:57:29Z</time>
      </trkpt>
      <trkpt lat="50.43871" lon="2.59059">
        <ele>164.24516988</ele>
        <time>2017-09-03T10:57:33Z</time>
      </trkpt>
      <trkpt lat="50.43888" lon="2.59074">
        <ele>161.24449792</ele>
        <time>2017-09-03T10:57:37Z</time>
      </trkpt>
      <trkpt lat="50.43907" lon="2.59088">
        <ele>159.24373088</ele>
        <time>2017-09-03T10:57:41Z</time>
      </trkpt>
      <trkpt lat="50.43928" lon="2.59108">
        <ele>157.24290008</ele>
        <time>2017-09-03T10:57:46Z</time>
      </trkpt>
      <trkpt lat="50.43949" lon="2.59124">
        <ele>154.24205672</ele>
        <time>2017-09-03T10:57:50Z</time>
      </trkpt>
      <trkpt lat="50.4396" lon="2.59133">
        <ele>153.24160088</ele>
        <time>2017-09-03T10:57:55Z</time>
      </trkpt>
      <trkpt lat="50.43966" lon="2.5914">
        <ele>153.24135004</ele>
        <time>2017-09-03T10:58:04Z</time>
      </trkpt>
      <trkpt lat="50.43978" lon="2.59146">
        <ele>154.24090052</ele>
        <time>2017-09-03T10:58:08Z</time>
      </trkpt>
      <trkpt lat="50.43998" lon="2.59141">
        <ele>153.24007932</ele>
        <time>2017-09-03T10:58:13Z</time>
      </trkpt>
      <trkpt lat="50.44014" lon="2.59137">
        <ele>156.23946</ele>
        <time>2017-09-03T10:58:17Z</time>
      </trkpt>
      <trkpt lat="50.44041" lon="2.59147">
        <ele>150.2383548</ele>
        <time>2017-09-03T10:58:22Z</time>
      </trkpt>
      <trkpt lat="50.44062" lon="2.59145">
        <ele>149.23750944</ele>
        <time>2017-09-03T10:58:27Z</time>
      </trkpt>
      <trkpt lat="50.44085" lon="2.59145">
        <ele>150.23661452</ele>
        <time>2017-09-03T10:58:31Z</time>
      </trkpt>
      <trkpt lat="50.44117" lon="2.5915">
        <ele>143.23532984</ele>
        <time>2017-09-03T10:58:36Z</time>
      </trkpt>
      <trkpt lat="50.4414" lon="2.59149">
        <ele>143.23439996</ele>
        <time>2017-09-03T10:58:40Z</time>
      </trkpt>
      <trkpt lat="50.44155" lon="2.5916">
        <ele>139.23379576</ele>
        <time>2017-09-03T10:58:44Z</time>
      </trkpt>
      <trkpt lat="50.44158" lon="2.5917">
        <ele>137.23368628</ele>
        <time>2017-09-03T10:58:48Z</time>
      </trkpt>
      <trkpt lat="50.44152" lon="2.59191">
        <ele>134.2339172</ele>
        <time>2017-09-03T10:58:53Z</time>
      </trkpt>
      <trkpt lat="50.44144" lon="2.59209">
        <ele>136.234259</ele>
        <time>2017-09-03T10:58:58Z</time>
      </trkpt>
      <trkpt lat="50.44134" lon="2.59226">
        <ele>136.23464944</ele>
        <time>2017-09-03T10:59:03Z</time>
      </trkpt>
      <trkpt lat="50.44124" lon="2.59242">
        <ele>137.2350592</ele>
        <time>2017-09-03T10:59:08Z</time>
      </trkpt>
      <trkpt lat="50.44117" lon="2.59255">
        <ele>134.2353122</ele>
        <time>2017-09-03T10:59:12Z</time>
      </trkpt>
      <trkpt lat="50.4411" lon="2.59265">
        <ele>136.23559208</ele>
        <time>2017-09-03T10:59:16Z</time>
      </trkpt>
      <trkpt lat="50.44104" lon="2.59278">
        <ele>139.23585452</ele>
        <time>2017-09-03T10:59:20Z</time>
      </trkpt>
      <trkpt lat="50.44095" lon="2.5929">
        <ele>144.23618552</ele>
        <time>2017-09-03T10:59:24Z</time>
      </trkpt>
      <trkpt lat="50.44088" lon="2.59309">
        <ele>145.23649084</ele>
        <time>2017-09-03T10:59:28Z</time>
      </trkpt>
      <trkpt lat="50.4408" lon="2.59322">
        <ele>145.2367968</ele>
        <time>2017-09-03T10:59:32Z</time>
      </trkpt>
      <trkpt lat="50.44074" lon="2.59334">
        <ele>145.23703796</ele>
        <time>2017-09-03T10:59:36Z</time>
      </trkpt>
      <trkpt lat="50.44063" lon="2.59351">
        <ele>147.23746836</ele>
        <time>2017-09-03T10:59:40Z</time>
      </trkpt>
      <trkpt lat="50.44055" lon="2.59363">
        <ele>145.23779276</ele>
        <time>2017-09-03T10:59:45Z</time>
      </trkpt>
      <trkpt lat="50.44044" lon="2.59383">
        <ele>152.23823064</ele>
        <time>2017-09-03T10:59:49Z</time>
      </trkpt>
      <trkpt lat="50.44037" lon="2.59396">
        <ele>153.23850544</ele>
        <time>2017-09-03T10:59:54Z</time>
      </trkpt>
      <trkpt lat="50.44029" lon="2.5942">
        <ele>156.23882364</ele>
        <time>2017-09-03T10:59:59Z</time>
      </trkpt>
      <trkpt lat="50.4402" lon="2.59436">
        <ele>155.23920812</ele>
        <time>2017-09-03T11:00:03Z</time>
      </trkpt>
      <trkpt lat="50.44006" lon="2.59457">
        <ele>154.23977184</ele>
        <time>2017-09-03T11:00:07Z</time>
      </trkpt>
      <trkpt lat="50.43995" lon="2.59475">
        <ele>154.24022168</ele>
        <time>2017-09-03T11:00:12Z</time>
      </trkpt>
      <trkpt lat="50.4398" lon="2.59502">
        <ele>154.24080644</ele>
        <time>2017-09-03T11:00:17Z</time>
      </trkpt>
      <trkpt lat="50.43965" lon="2.59525">
        <ele>153.24141996</ele>
        <time>2017-09-03T11:00:21Z</time>
      </trkpt>
      <trkpt lat="50.43946" lon="2.59562">
        <ele>151.24214984</ele>
        <time>2017-09-03T11:00:26Z</time>
      </trkpt>
      <trkpt lat="50.43941" lon="2.59598">
        <ele>151.24236628</ele>
        <time>2017-09-03T11:00:30Z</time>
      </trkpt>
      <trkpt lat="50.43937" lon="2.5963">
        <ele>152.24251936</ele>
        <time>2017-09-03T11:00:34Z</time>
      </trkpt>
      <trkpt lat="50.43934" lon="2.59655">
        <ele>153.24263184</ele>
        <time>2017-09-03T11:00:38Z</time>
      </trkpt>
      <trkpt lat="50.43927" lon="2.59684">
        <ele>150.24293268</ele>
        <time>2017-09-03T11:00:43Z</time>
      </trkpt>
      <trkpt lat="50.43923" lon="2.59707">
        <ele>153.24309284</ele>
        <time>2017-09-03T11:00:47Z</time>
      </trkpt>
      <trkpt lat="50.43919" lon="2.59739">
        <ele>153.24324608</ele>
        <time>2017-09-03T11:00:52Z</time>
      </trkpt>
      <trkpt lat="50.43911" lon="2.59768">
        <ele>154.24356212</ele>
        <time>2017-09-03T11:00:57Z</time>
      </trkpt>
      <trkpt lat="50.43907" lon="2.59789">
        <ele>155.24371004</ele>
        <time>2017-09-03T11:01:01Z</time>
      </trkpt>
      <trkpt lat="50.43901" lon="2.59806">
        <ele>160.24397952</ele>
        <time>2017-09-03T11:01:06Z</time>
      </trkpt>
      <trkpt lat="50.43895" lon="2.59818">
        <ele>160.24418468</ele>
        <time>2017-09-03T11:01:10Z</time>
      </trkpt>
      <trkpt lat="50.43892" lon="2.59829">
        <ele>162.24434156</ele>
        <time>2017-09-03T11:01:14Z</time>
      </trkpt>
      <trkpt lat="50.43888" lon="2.59841">
        <ele>165.24447336</ele>
        <time>2017-09-03T11:01:18Z</time>
      </trkpt>
      <trkpt lat="50.43884" lon="2.59855">
        <ele>164.24463836</ele>
        <time>2017-09-03T11:01:22Z</time>
      </trkpt>
      <trkpt lat="50.43876" lon="2.59871">
        <ele>163.24494768</ele>
        <time>2017-09-03T11:01:27Z</time>
      </trkpt>
      <trkpt lat="50.43872" lon="2.59884">
        <ele>163.2451374</ele>
        <time>2017-09-03T11:01:31Z</time>
      </trkpt>
      <trkpt lat="50.43866" lon="2.59905">
        <ele>166.24535068</ele>
        <time>2017-09-03T11:01:36Z</time>
      </trkpt>
      <trkpt lat="50.43862" lon="2.59925">
        <ele>167.24550748</ele>
        <time>2017-09-03T11:01:40Z</time>
      </trkpt>
      <trkpt lat="50.4386" lon="2.5994">
        <ele>169.2455978</ele>
        <time>2017-09-03T11:01:45Z</time>
      </trkpt>
      <trkpt lat="50.43857" lon="2.59961">
        <ele>169.24570576</ele>
        <time>2017-09-03T11:01:49Z</time>
      </trkpt>
      <trkpt lat="50.43851" lon="2.59981">
        <ele>169.24597072</ele>
        <time>2017-09-03T11:01:54Z</time>
      </trkpt>
      <trkpt lat="50.43856" lon="2.59997">
        <ele>169.24576828</ele>
        <time>2017-09-03T11:01:58Z</time>
      </trkpt>
      <trkpt lat="50.43858" lon="2.60015">
        <ele>169.24568568</ele>
        <time>2017-09-03T11:02:03Z</time>
      </trkpt>
      <trkpt lat="50.43864" lon="2.60043">
        <ele>165.24544192</ele>
        <time>2017-09-03T11:02:07Z</time>
      </trkpt>
      <trkpt lat="50.43867" lon="2.60068">
        <ele>169.24530272</ele>
        <time>2017-09-03T11:02:11Z</time>
      </trkpt>
      <trkpt lat="50.43879" lon="2.60106">
        <ele>168.24484744</ele>
        <time>2017-09-03T11:02:16Z</time>
      </trkpt>
      <trkpt lat="50.43886" lon="2.60131">
        <ele>166.24454476</ele>
        <time>2017-09-03T11:02:20Z</time>
      </trkpt>
      <trkpt lat="50.43906" lon="2.60148">
        <ele>164.24376412</ele>
        <time>2017-09-03T11:02:25Z</time>
      </trkpt>
      <trkpt lat="50.43932" lon="2.60163">
        <ele>162.24270804</ele>
        <time>2017-09-03T11:02:30Z</time>
      </trkpt>
      <trkpt lat="50.43942" lon="2.60165">
        <ele>163.24232972</ele>
        <time>2017-09-03T11:02:34Z</time>
      </trkpt>
      <trkpt lat="50.43967" lon="2.60178">
        <ele>159.24130904</ele>
        <time>2017-09-03T11:02:39Z</time>
      </trkpt>
      <trkpt lat="50.43999" lon="2.60196">
        <ele>157.2400592</ele>
        <time>2017-09-03T11:02:44Z</time>
      </trkpt>
      <trkpt lat="50.44023" lon="2.60219">
        <ele>153.23906656</ele>
        <time>2017-09-03T11:02:48Z</time>
      </trkpt>
      <trkpt lat="50.44035" lon="2.6023">
        <ele>152.23860168</ele>
        <time>2017-09-03T11:02:50Z</time>
      </trkpt>
      <trkpt lat="50.44044" lon="2.6025">
        <ele>147.23823072</ele>
        <time>2017-09-03T11:02:55Z</time>
      </trkpt>
      <trkpt lat="50.44038" lon="2.60276">
        <ele>140.23849408</ele>
        <time>2017-09-03T11:02:59Z</time>
      </trkpt>
      <trkpt lat="50.44031" lon="2.60292">
        <ele>139.23875928</ele>
        <time>2017-09-03T11:03:03Z</time>
      </trkpt>
      <trkpt lat="50.44024" lon="2.60297">
        <ele>138.2390296</ele>
        <time>2017-09-03T11:03:06Z</time>
      </trkpt>
      <trkpt lat="50.4402" lon="2.60311">
        <ele>138.23919836</ele>
        <time>2017-09-03T11:03:11Z</time>
      </trkpt>
      <trkpt lat="50.44019" lon="2.60331">
        <ele>137.2392318</ele>
        <time>2017-09-03T11:03:15Z</time>
      </trkpt>
      <trkpt lat="50.44015" lon="2.60348">
        <ele>139.239402</ele>
        <time>2017-09-03T11:03:20Z</time>
      </trkpt>
      <trkpt lat="50.44006" lon="2.60369">
        <ele>140.23976468</ele>
        <time>2017-09-03T11:03:25Z</time>
      </trkpt>
      <trkpt lat="50.44003" lon="2.60384">
        <ele>141.23988444</ele>
        <time>2017-09-03T11:03:29Z</time>
      </trkpt>
      <trkpt lat="50.44006" lon="2.6041">
        <ele>142.23974308</ele>
        <time>2017-09-03T11:03:34Z</time>
      </trkpt>
      <trkpt lat="50.44013" lon="2.60432">
        <ele>141.23948912</ele>
        <time>2017-09-03T11:03:38Z</time>
      </trkpt>
      <trkpt lat="50.44012" lon="2.60467">
        <ele>140.23951972</ele>
        <time>2017-09-03T11:03:42Z</time>
      </trkpt>
      <trkpt lat="50.44007" lon="2.60493">
        <ele>138.23973728</ele>
        <time>2017-09-03T11:03:47Z</time>
      </trkpt>
      <trkpt lat="50.44" lon="2.60526">
        <ele>135.23998656</ele>
        <time>2017-09-03T11:03:52Z</time>
      </trkpt>
      <trkpt lat="50.43991" lon="2.60539">
        <ele>134.24034968</ele>
        <time>2017-09-03T11:03:55Z</time>
      </trkpt>
      <trkpt lat="50.43978" lon="2.60578">
        <ele>133.24089428</ele>
        <time>2017-09-03T11:04:00Z</time>
      </trkpt>
      <trkpt lat="50.43973" lon="2.60618">
        <ele>131.24109392</ele>
        <time>2017-09-03T11:04:05Z</time>
      </trkpt>
      <trkpt lat="50.43964" lon="2.60631">
        <ele>130.24146016</ele>
        <time>2017-09-03T11:04:08Z</time>
      </trkpt>
      <trkpt lat="50.4395" lon="2.60652">
        <ele>129.24198428</ele>
        <time>2017-09-03T11:04:13Z</time>
      </trkpt>
      <trkpt lat="50.4394" lon="2.60669">
        <ele>128.24238336</ele>
        <time>2017-09-03T11:04:17Z</time>
      </trkpt>
      <trkpt lat="50.4393" lon="2.60687">
        <ele>129.24279104</ele>
        <time>2017-09-03T11:04:22Z</time>
      </trkpt>
      <trkpt lat="50.43919" lon="2.6069">
        <ele>129.24322692</ele>
        <time>2017-09-03T11:04:26Z</time>
      </trkpt>
      <trkpt lat="50.43911" lon="2.60693">
        <ele>132.24354544</ele>
        <time>2017-09-03T11:04:31Z</time>
      </trkpt>
      <trkpt lat="50.43903" lon="2.60694">
        <ele>132.24389</ele>
        <time>2017-09-03T11:04:35Z</time>
      </trkpt>
      <trkpt lat="50.43893" lon="2.60695">
        <ele>135.24428764</ele>
        <time>2017-09-03T11:04:40Z</time>
      </trkpt>
      <trkpt lat="50.43886" lon="2.60699">
        <ele>137.24455404</ele>
        <time>2017-09-03T11:04:46Z</time>
      </trkpt>
      <trkpt lat="50.43877" lon="2.60701">
        <ele>139.2449064</ele>
        <time>2017-09-03T11:04:52Z</time>
      </trkpt>
      <trkpt lat="50.43869" lon="2.60701">
        <ele>141.24525496</ele>
        <time>2017-09-03T11:05:01Z</time>
      </trkpt>
      <trkpt lat="50.4386" lon="2.60703">
        <ele>145.24558808</ele>
        <time>2017-09-03T11:05:07Z</time>
      </trkpt>
      <trkpt lat="50.43852" lon="2.60705">
        <ele>144.2459416</ele>
        <time>2017-09-03T11:05:12Z</time>
      </trkpt>
      <trkpt lat="50.43843" lon="2.60706">
        <ele>146.246296</ele>
        <time>2017-09-03T11:05:19Z</time>
      </trkpt>
      <trkpt lat="50.43837" lon="2.60708">
        <ele>147.24653456</ele>
        <time>2017-09-03T11:05:25Z</time>
      </trkpt>
      <trkpt lat="50.43829" lon="2.60709">
        <ele>147.2468454</ele>
        <time>2017-09-03T11:05:29Z</time>
      </trkpt>
      <trkpt lat="50.43822" lon="2.60709">
        <ele>148.24711544</ele>
        <time>2017-09-03T11:05:33Z</time>
      </trkpt>
      <trkpt lat="50.43815" lon="2.6071">
        <ele>149.24741636</ele>
        <time>2017-09-03T11:05:38Z</time>
      </trkpt>
      <trkpt lat="50.43806" lon="2.6071">
        <ele>147.2477754</ele>
        <time>2017-09-03T11:05:43Z</time>
      </trkpt>
      <trkpt lat="50.43797" lon="2.60712">
        <ele>154.24811492</ele>
        <time>2017-09-03T11:05:51Z</time>
      </trkpt>
      <trkpt lat="50.43788" lon="2.60713">
        <ele>155.2484704</ele>
        <time>2017-09-03T11:05:55Z</time>
      </trkpt>
      <trkpt lat="50.43779" lon="2.60714">
        <ele>159.24882784</ele>
        <time>2017-09-03T11:06:03Z</time>
      </trkpt>
      <trkpt lat="50.43771" lon="2.60715">
        <ele>162.24914688</ele>
        <time>2017-09-03T11:06:27Z</time>
      </trkpt>
      <trkpt lat="50.43763" lon="2.60715">
        <ele>163.2494806</ele>
        <time>2017-09-03T11:06:38Z</time>
      </trkpt>
      <trkpt lat="50.43754" lon="2.60716">
        <ele>165.24983524</ele>
        <time>2017-09-03T11:06:48Z</time>
      </trkpt>
      <trkpt lat="50.43746" lon="2.60718">
        <ele>167.25017948</ele>
        <time>2017-09-03T11:06:57Z</time>
      </trkpt>
      <trkpt lat="50.43737" lon="2.60718">
        <ele>165.25053328</ele>
        <time>2017-09-03T11:07:02Z</time>
      </trkpt>
      <trkpt lat="50.43728" lon="2.60722">
        <ele>166.25086212</ele>
        <time>2017-09-03T11:07:11Z</time>
      </trkpt>
      <trkpt lat="50.4372" lon="2.60724">
        <ele>173.25118244</ele>
        <time>2017-09-03T11:07:46Z</time>
      </trkpt>
      <trkpt lat="50.43715" lon="2.60727">
        <ele>178.25140788</ele>
        <time>2017-09-03T11:07:51Z</time>
      </trkpt>
      <trkpt lat="50.43707" lon="2.60729">
        <ele>178.25170452</ele>
        <time>2017-09-03T11:07:56Z</time>
      </trkpt>
      <trkpt lat="50.43699" lon="2.60728">
        <ele>180.25203136</ele>
        <time>2017-09-03T11:08:01Z</time>
      </trkpt>
      <trkpt lat="50.43686" lon="2.60729">
        <ele>179.25255584</ele>
        <time>2017-09-03T11:08:06Z</time>
      </trkpt>
      <trkpt lat="50.43678" lon="2.6073">
        <ele>178.25289152</ele>
        <time>2017-09-03T11:08:11Z</time>
      </trkpt>
      <trkpt lat="50.43671" lon="2.60733">
        <ele>183.25316984</ele>
        <time>2017-09-03T11:08:17Z</time>
      </trkpt>
      <trkpt lat="50.43662" lon="2.60736">
        <ele>185.25353472</ele>
        <time>2017-09-03T11:08:22Z</time>
      </trkpt>
      <trkpt lat="50.43655" lon="2.60738">
        <ele>182.25379764</ele>
        <time>2017-09-03T11:08:27Z</time>
      </trkpt>
      <trkpt lat="50.43645" lon="2.60742">
        <ele>184.2542182</ele>
        <time>2017-09-03T11:08:32Z</time>
      </trkpt>
      <trkpt lat="50.43635" lon="2.60742">
        <ele>185.25459776</ele>
        <time>2017-09-03T11:08:36Z</time>
      </trkpt>
      <trkpt lat="50.43628" lon="2.60742">
        <ele>186.2548874</ele>
        <time>2017-09-03T11:08:41Z</time>
      </trkpt>
      <trkpt lat="50.43619" lon="2.60742">
        <ele>186.255259</ele>
        <time>2017-09-03T11:08:45Z</time>
      </trkpt>
      <trkpt lat="50.4361" lon="2.60743">
        <ele>186.25559648</ele>
        <time>2017-09-03T11:08:50Z</time>
      </trkpt>
      <trkpt lat="50.43602" lon="2.60744">
        <ele>186.25592296</ele>
        <time>2017-09-03T11:08:54Z</time>
      </trkpt>
      <trkpt lat="50.43592" lon="2.60746">
        <ele>187.25631812</ele>
        <time>2017-09-03T11:08:58Z</time>
      </trkpt>
      <trkpt lat="50.43585" lon="2.60746">
        <ele>187.2565888</ele>
        <time>2017-09-03T11:09:03Z</time>
      </trkpt>
      <trkpt lat="50.43571" lon="2.60746">
        <ele>184.25714224</ele>
        <time>2017-09-03T11:09:08Z</time>
      </trkpt>
      <trkpt lat="50.43556" lon="2.60747">
        <ele>182.25778152</ele>
        <time>2017-09-03T11:09:12Z</time>
      </trkpt>
      <trkpt lat="50.43546" lon="2.6074">
        <ele>182.25814732</ele>
        <time>2017-09-03T11:09:17Z</time>
      </trkpt>
      <trkpt lat="50.43532" lon="2.60735">
        <ele>185.25872212</ele>
        <time>2017-09-03T11:09:21Z</time>
      </trkpt>
      <trkpt lat="50.43519" lon="2.60735">
        <ele>185.25923912</ele>
        <time>2017-09-03T11:09:26Z</time>
      </trkpt>
      <trkpt lat="50.4351" lon="2.60732">
        <ele>184.25961728</ele>
        <time>2017-09-03T11:09:30Z</time>
      </trkpt>
      <trkpt lat="50.43496" lon="2.60726">
        <ele>185.26015572</ele>
        <time>2017-09-03T11:09:35Z</time>
      </trkpt>
      <trkpt lat="50.43478" lon="2.60721">
        <ele>188.26089004</ele>
        <time>2017-09-03T11:09:39Z</time>
      </trkpt>
      <trkpt lat="50.43467" lon="2.60717">
        <ele>186.26131936</ele>
        <time>2017-09-03T11:09:43Z</time>
      </trkpt>
      <trkpt lat="50.43449" lon="2.60708">
        <ele>187.2620272</ele>
        <time>2017-09-03T11:09:47Z</time>
      </trkpt>
      <trkpt lat="50.43437" lon="2.60718">
        <ele>187.26252664</ele>
        <time>2017-09-03T11:09:51Z</time>
      </trkpt>
      <trkpt lat="50.43426" lon="2.60739">
        <ele>185.26297448</ele>
        <time>2017-09-03T11:09:56Z</time>
      </trkpt>
      <trkpt lat="50.43414" lon="2.60759">
        <ele>185.26344724</ele>
        <time>2017-09-03T11:10:00Z</time>
      </trkpt>
      <trkpt lat="50.43403" lon="2.60779">
        <ele>183.26389252</ele>
        <time>2017-09-03T11:10:04Z</time>
      </trkpt>
      <trkpt lat="50.43391" lon="2.60797">
        <ele>183.26436004</ele>
        <time>2017-09-03T11:10:08Z</time>
      </trkpt>
      <trkpt lat="50.43378" lon="2.60814">
        <ele>181.26490004</ele>
        <time>2017-09-03T11:10:13Z</time>
      </trkpt>
      <trkpt lat="50.43368" lon="2.6083">
        <ele>178.2652982</ele>
        <time>2017-09-03T11:10:17Z</time>
      </trkpt>
      <trkpt lat="50.43358" lon="2.60846">
        <ele>176.2656974</ele>
        <time>2017-09-03T11:10:20Z</time>
      </trkpt>
      <trkpt lat="50.43339" lon="2.60875">
        <ele>175.2664292</ele>
        <time>2017-09-03T11:10:25Z</time>
      </trkpt>
      <trkpt lat="50.43322" lon="2.60902">
        <ele>175.26713076</ele>
        <time>2017-09-03T11:10:29Z</time>
      </trkpt>
      <trkpt lat="50.43303" lon="2.60933">
        <ele>175.26786652</ele>
        <time>2017-09-03T11:10:34Z</time>
      </trkpt>
      <trkpt lat="50.43284" lon="2.60967">
        <ele>174.26863888</ele>
        <time>2017-09-03T11:10:37Z</time>
      </trkpt>
      <trkpt lat="50.43268" lon="2.61002">
        <ele>175.26926588</ele>
        <time>2017-09-03T11:10:42Z</time>
      </trkpt>
      <trkpt lat="50.4326" lon="2.61021">
        <ele>171.26958688</ele>
        <time>2017-09-03T11:10:44Z</time>
      </trkpt>
      <trkpt lat="50.43251" lon="2.61045">
        <ele>172.26996716</ele>
        <time>2017-09-03T11:10:48Z</time>
      </trkpt>
      <trkpt lat="50.43245" lon="2.61059">
        <ele>174.27021516</ele>
        <time>2017-09-03T11:10:52Z</time>
      </trkpt>
      <trkpt lat="50.43242" lon="2.61073">
        <ele>176.27032828</ele>
        <time>2017-09-03T11:10:57Z</time>
      </trkpt>
      <trkpt lat="50.43241" lon="2.61086">
        <ele>175.27035536</ele>
        <time>2017-09-03T11:11:01Z</time>
      </trkpt>
      <trkpt lat="50.43245" lon="2.61099">
        <ele>171.27019008</ele>
        <time>2017-09-03T11:11:05Z</time>
      </trkpt>
      <trkpt lat="50.43251" lon="2.61108">
        <ele>170.26994892</ele>
        <time>2017-09-03T11:11:10Z</time>
      </trkpt>
      <trkpt lat="50.43271" lon="2.61094">
        <ele>169.26917776</ele>
        <time>2017-09-03T11:11:14Z</time>
      </trkpt>
      <trkpt lat="50.43289" lon="2.61089">
        <ele>168.26845948</ele>
        <time>2017-09-03T11:11:19Z</time>
      </trkpt>
      <trkpt lat="50.43308" lon="2.61078">
        <ele>170.26767568</ele>
        <time>2017-09-03T11:11:24Z</time>
      </trkpt>
      <trkpt lat="50.43324" lon="2.61059">
        <ele>168.26706096</ele>
        <time>2017-09-03T11:11:29Z</time>
      </trkpt>
      <trkpt lat="50.43336" lon="2.6104">
        <ele>166.26656304</ele>
        <time>2017-09-03T11:11:32Z</time>
      </trkpt>
      <trkpt lat="50.43348" lon="2.61034">
        <ele>162.26607684</ele>
        <time>2017-09-03T11:11:37Z</time>
      </trkpt>
      <trkpt lat="50.43366" lon="2.61043">
        <ele>158.26535752</ele>
        <time>2017-09-03T11:11:41Z</time>
      </trkpt>
      <trkpt lat="50.43387" lon="2.61046">
        <ele>154.26453372</ele>
        <time>2017-09-03T11:11:46Z</time>
      </trkpt>
      <trkpt lat="50.43402" lon="2.6105">
        <ele>151.26392376</ele>
        <time>2017-09-03T11:11:51Z</time>
      </trkpt>
      <trkpt lat="50.43433" lon="2.61058">
        <ele>141.262696</ele>
        <time>2017-09-03T11:11:55Z</time>
      </trkpt>
      <trkpt lat="50.43457" lon="2.61061">
        <ele>140.2617266</ele>
        <time>2017-09-03T11:11:59Z</time>
      </trkpt>
      <trkpt lat="50.43482" lon="2.61072">
        <ele>139.26071088</ele>
        <time>2017-09-03T11:12:03Z</time>
      </trkpt>
      <trkpt lat="50.43512" lon="2.61095">
        <ele>142.25951804</ele>
        <time>2017-09-03T11:12:08Z</time>
      </trkpt>
      <trkpt lat="50.43529" lon="2.61092">
        <ele>138.25882444</ele>
        <time>2017-09-03T11:12:13Z</time>
      </trkpt>
      <trkpt lat="50.43546" lon="2.611">
        <ele>140.258155</ele>
        <time>2017-09-03T11:12:18Z</time>
      </trkpt>
      <trkpt lat="50.43562" lon="2.61108">
        <ele>138.25753248</ele>
        <time>2017-09-03T11:12:22Z</time>
      </trkpt>
      <trkpt lat="50.43576" lon="2.61115">
        <ele>138.25697004</ele>
        <time>2017-09-03T11:12:26Z</time>
      </trkpt>
      <trkpt lat="50.43586" lon="2.61122">
        <ele>137.25654708</ele>
        <time>2017-09-03T11:12:31Z</time>
      </trkpt>
      <trkpt lat="50.43601" lon="2.61136">
        <ele>139.25596704</ele>
        <time>2017-09-03T11:12:35Z</time>
      </trkpt>
      <trkpt lat="50.4362" lon="2.6115">
        <ele>137.25519192</ele>
        <time>2017-09-03T11:12:40Z</time>
      </trkpt>
      <trkpt lat="50.43635" lon="2.61162">
        <ele>138.2546068</ele>
        <time>2017-09-03T11:12:44Z</time>
      </trkpt>
      <trkpt lat="50.43651" lon="2.61171">
        <ele>135.25394824</ele>
        <time>2017-09-03T11:12:49Z</time>
      </trkpt>
      <trkpt lat="50.4367" lon="2.61177">
        <ele>132.25321628</ele>
        <time>2017-09-03T11:12:53Z</time>
      </trkpt>
      <trkpt lat="50.43684" lon="2.61174">
        <ele>131.25265276</ele>
        <time>2017-09-03T11:12:58Z</time>
      </trkpt>
      <trkpt lat="50.43694" lon="2.6118">
        <ele>128.25224976</ele>
        <time>2017-09-03T11:13:01Z</time>
      </trkpt>
      <trkpt lat="50.43711" lon="2.61167">
        <ele>127.25154732</ele>
        <time>2017-09-03T11:13:06Z</time>
      </trkpt>
      <trkpt lat="50.4373" lon="2.61167">
        <ele>126.25078636</ele>
        <time>2017-09-03T11:13:10Z</time>
      </trkpt>
      <trkpt lat="50.43749" lon="2.61168">
        <ele>126.25005776</ele>
        <time>2017-09-03T11:13:14Z</time>
      </trkpt>
      <trkpt lat="50.43764" lon="2.61171">
        <ele>125.24943968</ele>
        <time>2017-09-03T11:13:18Z</time>
      </trkpt>
      <trkpt lat="50.43786" lon="2.6117">
        <ele>131.24854344</ele>
        <time>2017-09-03T11:13:23Z</time>
      </trkpt>
      <trkpt lat="50.43804" lon="2.61177">
        <ele>130.24783232</ele>
        <time>2017-09-03T11:13:27Z</time>
      </trkpt>
      <trkpt lat="50.43822" lon="2.61177">
        <ele>129.2471054</ele>
        <time>2017-09-03T11:13:32Z</time>
      </trkpt>
      <trkpt lat="50.43845" lon="2.61171">
        <ele>131.24621456</ele>
        <time>2017-09-03T11:13:36Z</time>
      </trkpt>
      <trkpt lat="50.43866" lon="2.61167">
        <ele>130.24536216</ele>
        <time>2017-09-03T11:13:40Z</time>
      </trkpt>
      <trkpt lat="50.43895" lon="2.61162">
        <ele>127.24420456</ele>
        <time>2017-09-03T11:13:44Z</time>
      </trkpt>
      <trkpt lat="50.43924" lon="2.61159">
        <ele>122.24302604</ele>
        <time>2017-09-03T11:13:49Z</time>
      </trkpt>
      <trkpt lat="50.43949" lon="2.61154">
        <ele>124.2420536</ele>
        <time>2017-09-03T11:13:54Z</time>
      </trkpt>
      <trkpt lat="50.43966" lon="2.61155">
        <ele>126.24136824</ele>
        <time>2017-09-03T11:13:58Z</time>
      </trkpt>
      <trkpt lat="50.4398" lon="2.61157">
        <ele>126.24081312</ele>
        <time>2017-09-03T11:14:03Z</time>
      </trkpt>
      <trkpt lat="50.44002" lon="2.61154">
        <ele>128.2399292</ele>
        <time>2017-09-03T11:14:07Z</time>
      </trkpt>
      <trkpt lat="50.44018" lon="2.61149">
        <ele>127.23929928</ele>
        <time>2017-09-03T11:14:12Z</time>
      </trkpt>
      <trkpt lat="50.44031" lon="2.61135">
        <ele>130.23875208</ele>
        <time>2017-09-03T11:14:15Z</time>
      </trkpt>
      <trkpt lat="50.44042" lon="2.6112">
        <ele>128.23830604</ele>
        <time>2017-09-03T11:14:20Z</time>
      </trkpt>
      <trkpt lat="50.4406" lon="2.6111">
        <ele>126.23759944</ele>
        <time>2017-09-03T11:14:25Z</time>
      </trkpt>
      <trkpt lat="50.44077" lon="2.61111">
        <ele>124.23691808</ele>
        <time>2017-09-03T11:14:29Z</time>
      </trkpt>
      <trkpt lat="50.44095" lon="2.61106">
        <ele>122.23619856</ele>
        <time>2017-09-03T11:14:33Z</time>
      </trkpt>
      <trkpt lat="50.4412" lon="2.61096">
        <ele>123.235221</ele>
        <time>2017-09-03T11:14:37Z</time>
      </trkpt>
      <trkpt lat="50.4414" lon="2.61094">
        <ele>123.23441984</ele>
        <time>2017-09-03T11:14:42Z</time>
      </trkpt>
      <trkpt lat="50.44157" lon="2.61088">
        <ele>123.23372532</ele>
        <time>2017-09-03T11:14:45Z</time>
      </trkpt>
      <trkpt lat="50.44174" lon="2.61087">
        <ele>119.2330332</ele>
        <time>2017-09-03T11:14:50Z</time>
      </trkpt>
      <trkpt lat="50.44187" lon="2.61103">
        <ele>114.23252592</ele>
        <time>2017-09-03T11:14:55Z</time>
      </trkpt>
      <trkpt lat="50.44194" lon="2.61122">
        <ele>115.2322548</ele>
        <time>2017-09-03T11:14:58Z</time>
      </trkpt>
      <trkpt lat="50.44199" lon="2.61135">
        <ele>112.23204456</ele>
        <time>2017-09-03T11:15:02Z</time>
      </trkpt>
      <trkpt lat="50.44203" lon="2.61158">
        <ele>110.23188332</ele>
        <time>2017-09-03T11:15:06Z</time>
      </trkpt>
      <trkpt lat="50.44201" lon="2.61195">
        <ele>109.23197208</ele>
        <time>2017-09-03T11:15:11Z</time>
      </trkpt>
      <trkpt lat="50.44194" lon="2.61247">
        <ele>106.2322264</ele>
        <time>2017-09-03T11:15:15Z</time>
      </trkpt>
      <trkpt lat="50.44186" lon="2.61305">
        <ele>105.2325534</ele>
        <time>2017-09-03T11:15:20Z</time>
      </trkpt>
      <trkpt lat="50.44185" lon="2.61344">
        <ele>102.23260392</ele>
        <time>2017-09-03T11:15:25Z</time>
      </trkpt>
      <trkpt lat="50.44203" lon="2.61365">
        <ele>101.23186712</ele>
        <time>2017-09-03T11:15:29Z</time>
      </trkpt>
      <trkpt lat="50.4422" lon="2.61391">
        <ele>101.23121732</ele>
        <time>2017-09-03T11:15:33Z</time>
      </trkpt>
      <trkpt lat="50.44221" lon="2.61418">
        <ele>102.23116756</ele>
        <time>2017-09-03T11:15:38Z</time>
      </trkpt>
      <trkpt lat="50.4422" lon="2.61429">
        <ele>103.23120028</ele>
        <time>2017-09-03T11:15:40Z</time>
      </trkpt>
      <trkpt lat="50.4423" lon="2.61453">
        <ele>104.23081588</ele>
        <time>2017-09-03T11:15:45Z</time>
      </trkpt>
      <trkpt lat="50.4423" lon="2.6148">
        <ele>105.23082164</ele>
        <time>2017-09-03T11:15:49Z</time>
      </trkpt>
      <trkpt lat="50.44231" lon="2.615">
        <ele>106.23077232</ele>
        <time>2017-09-03T11:15:53Z</time>
      </trkpt>
      <trkpt lat="50.44234" lon="2.61542">
        <ele>105.23064256</ele>
        <time>2017-09-03T11:15:57Z</time>
      </trkpt>
      <trkpt lat="50.44236" lon="2.61572">
        <ele>104.23054396</ele>
        <time>2017-09-03T11:16:02Z</time>
      </trkpt>
      <trkpt lat="50.44237" lon="2.61599">
        <ele>103.2305354</ele>
        <time>2017-09-03T11:16:06Z</time>
      </trkpt>
      <trkpt lat="50.44226" lon="2.61629">
        <ele>105.23096864</ele>
        <time>2017-09-03T11:16:10Z</time>
      </trkpt>
      <trkpt lat="50.44217" lon="2.61652">
        <ele>104.23131448</ele>
        <time>2017-09-03T11:16:15Z</time>
      </trkpt>
      <trkpt lat="50.44211" lon="2.61686">
        <ele>103.23154972</ele>
        <time>2017-09-03T11:16:20Z</time>
      </trkpt>
      <trkpt lat="50.44201" lon="2.61718">
        <ele>107.231968</ele>
        <time>2017-09-03T11:16:24Z</time>
      </trkpt>
      <trkpt lat="50.44195" lon="2.61736">
        <ele>108.23221904</ele>
        <time>2017-09-03T11:16:29Z</time>
      </trkpt>
      <trkpt lat="50.44183" lon="2.61759">
        <ele>110.23266424</ele>
        <time>2017-09-03T11:16:33Z</time>
      </trkpt>
      <trkpt lat="50.44176" lon="2.61779">
        <ele>112.23295072</ele>
        <time>2017-09-03T11:16:37Z</time>
      </trkpt>
      <trkpt lat="50.44168" lon="2.61799">
        <ele>109.233279</ele>
        <time>2017-09-03T11:16:42Z</time>
      </trkpt>
      <trkpt lat="50.44161" lon="2.61815">
        <ele>110.2335798</ele>
        <time>2017-09-03T11:16:46Z</time>
      </trkpt>
      <trkpt lat="50.4415" lon="2.61833">
        <ele>111.23400276</ele>
        <time>2017-09-03T11:16:50Z</time>
      </trkpt>
      <trkpt lat="50.44142" lon="2.61858">
        <ele>111.23431848</ele>
        <time>2017-09-03T11:16:54Z</time>
      </trkpt>
      <trkpt lat="50.44145" lon="2.61891">
        <ele>113.23421708</ele>
        <time>2017-09-03T11:16:59Z</time>
      </trkpt>
      <trkpt lat="50.44141" lon="2.61939">
        <ele>112.23436144</ele>
        <time>2017-09-03T11:17:03Z</time>
      </trkpt>
      <trkpt lat="50.44128" lon="2.61967">
        <ele>109.2348786</ele>
        <time>2017-09-03T11:17:08Z</time>
      </trkpt>
      <trkpt lat="50.44116" lon="2.61993">
        <ele>108.23535808</ele>
        <time>2017-09-03T11:17:12Z</time>
      </trkpt>
      <trkpt lat="50.44105" lon="2.62024">
        <ele>106.235809</ele>
        <time>2017-09-03T11:17:16Z</time>
      </trkpt>
      <trkpt lat="50.44092" lon="2.62055">
        <ele>104.23630288</ele>
        <time>2017-09-03T11:17:19Z</time>
      </trkpt>
      <trkpt lat="50.44077" lon="2.62082">
        <ele>105.23690344</ele>
        <time>2017-09-03T11:17:23Z</time>
      </trkpt>
      <trkpt lat="50.44081" lon="2.6211">
        <ele>104.23677648</ele>
        <time>2017-09-03T11:17:27Z</time>
      </trkpt>
      <trkpt lat="50.44096" lon="2.62131">
        <ele>101.23617576</ele>
        <time>2017-09-03T11:17:31Z</time>
      </trkpt>
      <trkpt lat="50.44114" lon="2.62152">
        <ele>100.23544796</ele>
        <time>2017-09-03T11:17:36Z</time>
      </trkpt>
      <trkpt lat="50.44128" lon="2.62182">
        <ele>98.2348828</ele>
        <time>2017-09-03T11:17:40Z</time>
      </trkpt>
      <trkpt lat="50.44127" lon="2.62232">
        <ele>97.23493392</ele>
        <time>2017-09-03T11:17:45Z</time>
      </trkpt>
      <trkpt lat="50.4411" lon="2.6227">
        <ele>98.23560532</ele>
        <time>2017-09-03T11:17:50Z</time>
      </trkpt>
      <trkpt lat="50.44089" lon="2.62289">
        <ele>100.2364404</ele>
        <time>2017-09-03T11:17:55Z</time>
      </trkpt>
      <trkpt lat="50.44075" lon="2.62299">
        <ele>101.23699332</ele>
        <time>2017-09-03T11:17:59Z</time>
      </trkpt>
      <trkpt lat="50.44066" lon="2.62309">
        <ele>102.2373656</ele>
        <time>2017-09-03T11:18:03Z</time>
      </trkpt>
      <trkpt lat="50.44059" lon="2.62325">
        <ele>104.23765012</ele>
        <time>2017-09-03T11:18:08Z</time>
      </trkpt>
      <trkpt lat="50.4406" lon="2.62345">
        <ele>104.23761224</ele>
        <time>2017-09-03T11:18:12Z</time>
      </trkpt>
      <trkpt lat="50.44064" lon="2.62364">
        <ele>105.23744088</ele>
        <time>2017-09-03T11:18:16Z</time>
      </trkpt>
      <trkpt lat="50.44073" lon="2.62381">
        <ele>105.23706204</ele>
        <time>2017-09-03T11:18:21Z</time>
      </trkpt>
      <trkpt lat="50.44087" lon="2.62406">
        <ele>104.2365308</ele>
        <time>2017-09-03T11:18:26Z</time>
      </trkpt>
      <trkpt lat="50.44103" lon="2.62431">
        <ele>105.23589536</ele>
        <time>2017-09-03T11:18:31Z</time>
      </trkpt>
      <trkpt lat="50.44108" lon="2.62464">
        <ele>106.2356658</ele>
        <time>2017-09-03T11:18:35Z</time>
      </trkpt>
      <trkpt lat="50.44105" lon="2.6249">
        <ele>108.23580508</ele>
        <time>2017-09-03T11:18:39Z</time>
      </trkpt>
      <trkpt lat="50.44099" lon="2.62515">
        <ele>107.23604348</ele>
        <time>2017-09-03T11:18:43Z</time>
      </trkpt>
      <trkpt lat="50.44093" lon="2.62539">
        <ele>108.236275</ele>
        <time>2017-09-03T11:18:48Z</time>
      </trkpt>
      <trkpt lat="50.44086" lon="2.62567">
        <ele>110.236543</ele>
        <time>2017-09-03T11:18:52Z</time>
      </trkpt>
      <trkpt lat="50.44082" lon="2.62593">
        <ele>112.2367204</ele>
        <time>2017-09-03T11:18:57Z</time>
      </trkpt>
      <trkpt lat="50.44074" lon="2.62619">
        <ele>111.23702344</ele>
        <time>2017-09-03T11:19:02Z</time>
      </trkpt>
      <trkpt lat="50.44065" lon="2.62637">
        <ele>112.23741764</ele>
        <time>2017-09-03T11:19:06Z</time>
      </trkpt>
      <trkpt lat="50.44057" lon="2.62649">
        <ele>112.23773848</ele>
        <time>2017-09-03T11:19:10Z</time>
      </trkpt>
      <trkpt lat="50.44052" lon="2.62679">
        <ele>111.23791424</ele>
        <time>2017-09-03T11:19:15Z</time>
      </trkpt>
      <trkpt lat="50.44055" lon="2.62705">
        <ele>111.23779832</ele>
        <time>2017-09-03T11:19:19Z</time>
      </trkpt>
      <trkpt lat="50.44065" lon="2.62741">
        <ele>110.23739428</ele>
        <time>2017-09-03T11:19:24Z</time>
      </trkpt>
      <trkpt lat="50.44073" lon="2.62766">
        <ele>109.2370894</ele>
        <time>2017-09-03T11:19:28Z</time>
      </trkpt>
      <trkpt lat="50.44085" lon="2.62808">
        <ele>107.23660216</ele>
        <time>2017-09-03T11:19:33Z</time>
      </trkpt>
      <trkpt lat="50.44096" lon="2.62862">
        <ele>104.23617944</ele>
        <time>2017-09-03T11:19:38Z</time>
      </trkpt>
      <trkpt lat="50.44104" lon="2.6291">
        <ele>102.23582864</ele>
        <time>2017-09-03T11:19:42Z</time>
      </trkpt>
      <trkpt lat="50.44112" lon="2.62958">
        <ele>102.23550856</ele>
        <time>2017-09-03T11:19:46Z</time>
      </trkpt>
      <trkpt lat="50.44127" lon="2.62999">
        <ele>100.23490396</ele>
        <time>2017-09-03T11:19:50Z</time>
      </trkpt>
      <trkpt lat="50.44147" lon="2.63036">
        <ele>98.23411476</ele>
        <time>2017-09-03T11:19:54Z</time>
      </trkpt>
      <trkpt lat="50.44174" lon="2.63084">
        <ele>97.23304244</ele>
        <time>2017-09-03T11:19:59Z</time>
      </trkpt>
      <trkpt lat="50.44195" lon="2.63122">
        <ele>96.23219612</ele>
        <time>2017-09-03T11:20:03Z</time>
      </trkpt>
      <trkpt lat="50.44218" lon="2.63159">
        <ele>95.23128012</ele>
        <time>2017-09-03T11:20:07Z</time>
      </trkpt>
      <trkpt lat="50.44242" lon="2.63189">
        <ele>94.23032244</ele>
        <time>2017-09-03T11:20:11Z</time>
      </trkpt>
      <trkpt lat="50.44266" lon="2.6322">
        <ele>93.2293512</ele>
        <time>2017-09-03T11:20:16Z</time>
      </trkpt>
      <trkpt lat="50.44287" lon="2.6326">
        <ele>91.22853756</ele>
        <time>2017-09-03T11:20:20Z</time>
      </trkpt>
      <trkpt lat="50.44306" lon="2.63315">
        <ele>90.22777808</ele>
        <time>2017-09-03T11:20:24Z</time>
      </trkpt>
      <trkpt lat="50.44324" lon="2.63356">
        <ele>89.22704668</ele>
        <time>2017-09-03T11:20:29Z</time>
      </trkpt>
      <trkpt lat="50.44347" lon="2.63401">
        <ele>88.22610948</ele>
        <time>2017-09-03T11:20:34Z</time>
      </trkpt>
      <trkpt lat="50.44364" lon="2.63428">
        <ele>88.22542264</ele>
        <time>2017-09-03T11:20:38Z</time>
      </trkpt>
      <trkpt lat="50.44375" lon="2.63441">
        <ele>88.22499316</ele>
        <time>2017-09-03T11:20:42Z</time>
      </trkpt>
      <trkpt lat="50.44391" lon="2.63465">
        <ele>88.22437784</ele>
        <time>2017-09-03T11:20:46Z</time>
      </trkpt>
      <trkpt lat="50.44413" lon="2.63495">
        <ele>88.2234892</ele>
        <time>2017-09-03T11:20:50Z</time>
      </trkpt>
      <trkpt lat="50.44431" lon="2.63521">
        <ele>89.2227776</ele>
        <time>2017-09-03T11:20:55Z</time>
      </trkpt>
      <trkpt lat="50.44448" lon="2.63545">
        <ele>88.2220772</ele>
        <time>2017-09-03T11:20:59Z</time>
      </trkpt>
      <trkpt lat="50.44467" lon="2.63582">
        <ele>88.22130304</ele>
        <time>2017-09-03T11:21:04Z</time>
      </trkpt>
      <trkpt lat="50.44475" lon="2.63625">
        <ele>85.2210182</ele>
        <time>2017-09-03T11:21:07Z</time>
      </trkpt>
      <trkpt lat="50.4447" lon="2.63668">
        <ele>85.22122108</ele>
        <time>2017-09-03T11:21:11Z</time>
      </trkpt>
      <trkpt lat="50.44487" lon="2.63705">
        <ele>83.22054116</ele>
        <time>2017-09-03T11:21:16Z</time>
      </trkpt>
      <trkpt lat="50.44508" lon="2.63741">
        <ele>81.2196694</ele>
        <time>2017-09-03T11:21:20Z</time>
      </trkpt>
      <trkpt lat="50.44534" lon="2.63799">
        <ele>78.21863796</ele>
        <time>2017-09-03T11:21:25Z</time>
      </trkpt>
      <trkpt lat="50.44564" lon="2.63836">
        <ele>77.21744312</ele>
        <time>2017-09-03T11:21:29Z</time>
      </trkpt>
      <trkpt lat="50.44601" lon="2.63873">
        <ele>76.21596644</ele>
        <time>2017-09-03T11:21:33Z</time>
      </trkpt>
      <trkpt lat="50.44633" lon="2.63905">
        <ele>75.21466348</ele>
        <time>2017-09-03T11:21:38Z</time>
      </trkpt>
      <trkpt lat="50.44654" lon="2.63934">
        <ele>75.21382784</ele>
        <time>2017-09-03T11:21:43Z</time>
      </trkpt>
      <trkpt lat="50.44667" lon="2.63982">
        <ele>77.21332868</ele>
        <time>2017-09-03T11:21:48Z</time>
      </trkpt>
      <trkpt lat="50.44681" lon="2.63997">
        <ele>77.21275932</ele>
        <time>2017-09-03T11:21:53Z</time>
      </trkpt>
      <trkpt lat="50.44697" lon="2.6399">
        <ele>76.21211096</ele>
        <time>2017-09-03T11:21:57Z</time>
      </trkpt>
      <trkpt lat="50.4472" lon="2.6399">
        <ele>75.2112</ele>
        <time>2017-09-03T11:22:01Z</time>
      </trkpt>
      <trkpt lat="50.44731" lon="2.63978">
        <ele>76.21077824</ele>
        <time>2017-09-03T11:22:05Z</time>
      </trkpt>
      <trkpt lat="50.44738" lon="2.63963">
        <ele>76.2104896</ele>
        <time>2017-09-03T11:22:10Z</time>
      </trkpt>
      <trkpt lat="50.44751" lon="2.63939">
        <ele>77.2099746</ele>
        <time>2017-09-03T11:22:14Z</time>
      </trkpt>
      <trkpt lat="50.44763" lon="2.63918">
        <ele>76.20949816</ele>
        <time>2017-09-03T11:22:18Z</time>
      </trkpt>
      <trkpt lat="50.44776" lon="2.63899">
        <ele>77.2089462</ele>
        <time>2017-09-03T11:22:22Z</time>
      </trkpt>
      <trkpt lat="50.44795" lon="2.63876">
        <ele>77.20821944</ele>
        <time>2017-09-03T11:22:27Z</time>
      </trkpt>
      <trkpt lat="50.44812" lon="2.63854">
        <ele>78.20752628</ele>
        <time>2017-09-03T11:22:32Z</time>
      </trkpt>
      <trkpt lat="50.44828" lon="2.6384">
        <ele>77.20688388</ele>
        <time>2017-09-03T11:22:37Z</time>
      </trkpt>
      <trkpt lat="50.4485" lon="2.6382">
        <ele>78.20600468</ele>
        <time>2017-09-03T11:22:42Z</time>
      </trkpt>
      <trkpt lat="50.44868" lon="2.63803">
        <ele>79.2052966</ele>
        <time>2017-09-03T11:22:46Z</time>
      </trkpt>
      <trkpt lat="50.44884" lon="2.63784">
        <ele>78.20462452</ele>
        <time>2017-09-03T11:22:50Z</time>
      </trkpt>
      <trkpt lat="50.44901" lon="2.63765">
        <ele>79.20396204</ele>
        <time>2017-09-03T11:22:53Z</time>
      </trkpt>
      <trkpt lat="50.44918" lon="2.63743">
        <ele>77.20329444</ele>
        <time>2017-09-03T11:22:57Z</time>
      </trkpt>
      <trkpt lat="50.44934" lon="2.63722">
        <ele>77.202634</ele>
        <time>2017-09-03T11:23:02Z</time>
      </trkpt>
      <trkpt lat="50.44953" lon="2.6369">
        <ele>77.20187192</ele>
        <time>2017-09-03T11:23:06Z</time>
      </trkpt>
      <trkpt lat="50.4496" lon="2.63675">
        <ele>77.20158444</ele>
        <time>2017-09-03T11:23:11Z</time>
      </trkpt>
      <trkpt lat="50.44976" lon="2.63653">
        <ele>76.20096728</ele>
        <time>2017-09-03T11:23:15Z</time>
      </trkpt>
      <trkpt lat="50.4498" lon="2.63643">
        <ele>76.20079724</ele>
        <time>2017-09-03T11:23:19Z</time>
      </trkpt>
      <trkpt lat="50.44987" lon="2.63627">
        <ele>77.2005144</ele>
        <time>2017-09-03T11:23:24Z</time>
      </trkpt>
      <trkpt lat="50.45001" lon="2.636">
        <ele>77.19996988</ele>
        <time>2017-09-03T11:23:28Z</time>
      </trkpt>
      <trkpt lat="50.45014" lon="2.63574">
        <ele>76.19943452</ele>
        <time>2017-09-03T11:23:32Z</time>
      </trkpt>
      <trkpt lat="50.45031" lon="2.63539">
        <ele>75.19875304</ele>
        <time>2017-09-03T11:23:37Z</time>
      </trkpt>
      <trkpt lat="50.45044" lon="2.63509">
        <ele>76.19825232</ele>
        <time>2017-09-03T11:23:41Z</time>
      </trkpt>
      <trkpt lat="50.45058" lon="2.6348">
        <ele>75.197681</ele>
        <time>2017-09-03T11:23:46Z</time>
      </trkpt>
      <trkpt lat="50.45072" lon="2.63447">
        <ele>76.19711868</ele>
        <time>2017-09-03T11:23:50Z</time>
      </trkpt>
      <trkpt lat="50.45088" lon="2.63416">
        <ele>74.19649516</ele>
        <time>2017-09-03T11:23:54Z</time>
      </trkpt>
      <trkpt lat="50.45106" lon="2.63381">
        <ele>74.19574948</ele>
        <time>2017-09-03T11:23:58Z</time>
      </trkpt>
      <trkpt lat="50.45121" lon="2.63346">
        <ele>74.19514248</ele>
        <time>2017-09-03T11:24:03Z</time>
      </trkpt>
      <trkpt lat="50.45139" lon="2.63306">
        <ele>76.19442308</ele>
        <time>2017-09-03T11:24:08Z</time>
      </trkpt>
      <trkpt lat="50.45162" lon="2.63271">
        <ele>76.193519</ele>
        <time>2017-09-03T11:24:12Z</time>
      </trkpt>
      <trkpt lat="50.4518" lon="2.63249">
        <ele>76.19281184</ele>
        <time>2017-09-03T11:24:16Z</time>
      </trkpt>
      <trkpt lat="50.45198" lon="2.63225">
        <ele>74.1920832</ele>
        <time>2017-09-03T11:24:21Z</time>
      </trkpt>
      <trkpt lat="50.45207" lon="2.63216">
        <ele>74.19172176</ele>
        <time>2017-09-03T11:24:26Z</time>
      </trkpt>
      <trkpt lat="50.45225" lon="2.63209">
        <ele>73.19099156</ele>
        <time>2017-09-03T11:24:30Z</time>
      </trkpt>
      <trkpt lat="50.45241" lon="2.63208">
        <ele>72.19034968</ele>
        <time>2017-09-03T11:24:35Z</time>
      </trkpt>
      <trkpt lat="50.45264" lon="2.63202">
        <ele>69.18943236</ele>
        <time>2017-09-03T11:24:39Z</time>
      </trkpt>
      <trkpt lat="50.453" lon="2.63188">
        <ele>68.18800608</ele>
        <time>2017-09-03T11:24:43Z</time>
      </trkpt>
      <trkpt lat="50.45338" lon="2.63169">
        <ele>66.18649076</ele>
        <time>2017-09-03T11:24:48Z</time>
      </trkpt>
      <trkpt lat="50.45374" lon="2.63149">
        <ele>66.18505436</ele>
        <time>2017-09-03T11:24:53Z</time>
      </trkpt>
      <trkpt lat="50.45401" lon="2.63134">
        <ele>65.18394628</ele>
        <time>2017-09-03T11:24:58Z</time>
      </trkpt>
      <trkpt lat="50.45422" lon="2.63144">
        <ele>65.1831036</ele>
        <time>2017-09-03T11:25:03Z</time>
      </trkpt>
      <trkpt lat="50.45433" lon="2.63155">
        <ele>63.18266584</ele>
        <time>2017-09-03T11:25:07Z</time>
      </trkpt>
      <trkpt lat="50.45437" lon="2.63179">
        <ele>63.18252696</ele>
        <time>2017-09-03T11:25:11Z</time>
      </trkpt>
      <trkpt lat="50.45431" lon="2.63204">
        <ele>65.1827536</ele>
        <time>2017-09-03T11:25:15Z</time>
      </trkpt>
      <trkpt lat="50.45418" lon="2.63228">
        <ele>65.1832656</ele>
        <time>2017-09-03T11:25:20Z</time>
      </trkpt>
      <trkpt lat="50.45403" lon="2.63255">
        <ele>65.18387668</ele>
        <time>2017-09-03T11:25:24Z</time>
      </trkpt>
      <trkpt lat="50.45393" lon="2.63271">
        <ele>65.18426716</ele>
        <time>2017-09-03T11:25:28Z</time>
      </trkpt>
      <trkpt lat="50.45405" lon="2.63282">
        <ele>63.18380492</ele>
        <time>2017-09-03T11:25:33Z</time>
      </trkpt>
      <trkpt lat="50.45434" lon="2.63296">
        <ele>62.18265752</ele>
        <time>2017-09-03T11:25:37Z</time>
      </trkpt>
      <trkpt lat="50.45466" lon="2.63309">
        <ele>62.18136372</ele>
        <time>2017-09-03T11:25:42Z</time>
      </trkpt>
      <trkpt lat="50.4549" lon="2.63326">
        <ele>61.18040456</ele>
        <time>2017-09-03T11:25:47Z</time>
      </trkpt>
      <trkpt lat="50.45507" lon="2.63339">
        <ele>61.1797252</ele>
        <time>2017-09-03T11:25:50Z</time>
      </trkpt>
      <trkpt lat="50.45533" lon="2.63363">
        <ele>59.17866964</ele>
        <time>2017-09-03T11:25:55Z</time>
      </trkpt>
      <trkpt lat="50.45562" lon="2.63391">
        <ele>59.17751612</ele>
        <time>2017-09-03T11:25:59Z</time>
      </trkpt>
      <trkpt lat="50.4558" lon="2.6341">
        <ele>59.17679912</ele>
        <time>2017-09-03T11:26:02Z</time>
      </trkpt>
      <trkpt lat="50.45603" lon="2.63432">
        <ele>58.17588204</ele>
        <time>2017-09-03T11:26:06Z</time>
      </trkpt>
      <trkpt lat="50.45628" lon="2.63451">
        <ele>57.17490104</ele>
        <time>2017-09-03T11:26:11Z</time>
      </trkpt>
      <trkpt lat="50.45652" lon="2.63472">
        <ele>57.17391832</ele>
        <time>2017-09-03T11:26:15Z</time>
      </trkpt>
      <trkpt lat="50.45675" lon="2.63494">
        <ele>56.17298932</ele>
        <time>2017-09-03T11:26:19Z</time>
      </trkpt>
      <trkpt lat="50.45705" lon="2.63524">
        <ele>56.17181224</ele>
        <time>2017-09-03T11:26:24Z</time>
      </trkpt>
      <trkpt lat="50.45723" lon="2.63544">
        <ele>56.17108472</ele>
        <time>2017-09-03T11:26:27Z</time>
      </trkpt>
      <trkpt lat="50.45747" lon="2.63569">
        <ele>55.1701072</ele>
        <time>2017-09-03T11:26:30Z</time>
      </trkpt>
      <trkpt lat="50.45772" lon="2.63595">
        <ele>54.16911636</ele>
        <time>2017-09-03T11:26:34Z</time>
      </trkpt>
      <trkpt lat="50.45797" lon="2.63622">
        <ele>54.16811988</ele>
        <time>2017-09-03T11:26:39Z</time>
      </trkpt>
      <trkpt lat="50.45827" lon="2.63658">
        <ele>54.1669394</ele>
        <time>2017-09-03T11:26:43Z</time>
      </trkpt>
      <trkpt lat="50.45849" lon="2.63685">
        <ele>54.166047</ele>
        <time>2017-09-03T11:26:48Z</time>
      </trkpt>
      <trkpt lat="50.45871" lon="2.6371">
        <ele>53.16517052</ele>
        <time>2017-09-03T11:26:51Z</time>
      </trkpt>
      <trkpt lat="50.45893" lon="2.63736">
        <ele>53.1642754</ele>
        <time>2017-09-03T11:26:56Z</time>
      </trkpt>
      <trkpt lat="50.45917" lon="2.63773">
        <ele>53.16331312</ele>
        <time>2017-09-03T11:27:01Z</time>
      </trkpt>
      <trkpt lat="50.45938" lon="2.63813">
        <ele>52.16250164</ele>
        <time>2017-09-03T11:27:06Z</time>
      </trkpt>
      <trkpt lat="50.45953" lon="2.63842">
        <ele>52.16189968</ele>
        <time>2017-09-03T11:27:10Z</time>
      </trkpt>
      <trkpt lat="50.45967" lon="2.63872">
        <ele>52.16133076</ele>
        <time>2017-09-03T11:27:14Z</time>
      </trkpt>
      <trkpt lat="50.45985" lon="2.63907">
        <ele>51.16058304</ele>
        <time>2017-09-03T11:27:19Z</time>
      </trkpt>
      <trkpt lat="50.46005" lon="2.63936">
        <ele>50.15980124</ele>
        <time>2017-09-03T11:27:23Z</time>
      </trkpt>
      <trkpt lat="50.46024" lon="2.63962">
        <ele>50.1590442</ele>
        <time>2017-09-03T11:27:28Z</time>
      </trkpt>
      <trkpt lat="50.46048" lon="2.63993">
        <ele>50.15807604</ele>
        <time>2017-09-03T11:27:33Z</time>
      </trkpt>
      <trkpt lat="50.46069" lon="2.64028">
        <ele>50.15724072</ele>
        <time>2017-09-03T11:27:37Z</time>
      </trkpt>
      <trkpt lat="50.46086" lon="2.64052">
        <ele>50.15657856</ele>
        <time>2017-09-03T11:27:41Z</time>
      </trkpt>
      <trkpt lat="50.46101" lon="2.64075">
        <ele>49.1559674</ele>
        <time>2017-09-03T11:27:45Z</time>
      </trkpt>
      <trkpt lat="50.46117" lon="2.64097">
        <ele>49.15531844</ele>
        <time>2017-09-03T11:27:50Z</time>
      </trkpt>
      <trkpt lat="50.46135" lon="2.64119">
        <ele>48.1545938</ele>
        <time>2017-09-03T11:27:53Z</time>
      </trkpt>
      <trkpt lat="50.46154" lon="2.64142">
        <ele>48.15386088</ele>
        <time>2017-09-03T11:27:58Z</time>
      </trkpt>
      <trkpt lat="50.46178" lon="2.64173">
        <ele>49.152881</ele>
        <time>2017-09-03T11:28:02Z</time>
      </trkpt>
      <trkpt lat="50.46199" lon="2.64197">
        <ele>49.15204612</ele>
        <time>2017-09-03T11:28:07Z</time>
      </trkpt>
      <trkpt lat="50.46225" lon="2.64226">
        <ele>48.15099156</ele>
        <time>2017-09-03T11:28:11Z</time>
      </trkpt>
      <trkpt lat="50.46243" lon="2.64249">
        <ele>48.1502674</ele>
        <time>2017-09-03T11:28:15Z</time>
      </trkpt>
      <trkpt lat="50.46236" lon="2.64242">
        <ele>48.15057296</ele>
        <time>2017-09-03T11:28:50Z</time>
      </trkpt>
      <trkpt lat="50.46242" lon="2.64249">
        <ele>48.15030596</ele>
        <time>2017-09-03T11:29:10Z</time>
      </trkpt>
      <trkpt lat="50.46249" lon="2.64258">
        <ele>48.1500448</ele>
        <time>2017-09-03T11:29:15Z</time>
      </trkpt>
      <trkpt lat="50.46254" lon="2.64251">
        <ele>48.14984872</ele>
        <time>2017-09-03T11:29:21Z</time>
      </trkpt>
      <trkpt lat="50.46255" lon="2.64222">
        <ele>49.14980108</ele>
        <time>2017-09-03T11:29:26Z</time>
      </trkpt>
      <trkpt lat="50.46258" lon="2.64196">
        <ele>49.14966548</ele>
        <time>2017-09-03T11:29:30Z</time>
      </trkpt>
      <trkpt lat="50.46262" lon="2.64168">
        <ele>49.14950476</ele>
        <time>2017-09-03T11:29:34Z</time>
      </trkpt>
      <trkpt lat="50.46266" lon="2.64132">
        <ele>50.1493602</ele>
        <time>2017-09-03T11:29:39Z</time>
      </trkpt>
      <trkpt lat="50.46268" lon="2.64097">
        <ele>51.1492912</ele>
        <time>2017-09-03T11:29:43Z</time>
      </trkpt>
      <trkpt lat="50.46267" lon="2.64066">
        <ele>52.1493204</ele>
        <time>2017-09-03T11:29:48Z</time>
      </trkpt>
      <trkpt lat="50.46266" lon="2.64044">
        <ele>52.14936268</ele>
        <time>2017-09-03T11:29:53Z</time>
      </trkpt>
      <trkpt lat="50.46265" lon="2.64017">
        <ele>53.14939416</ele>
        <time>2017-09-03T11:29:58Z</time>
      </trkpt>
      <trkpt lat="50.46265" lon="2.63992">
        <ele>53.14941756</ele>
        <time>2017-09-03T11:30:02Z</time>
      </trkpt>
      <trkpt lat="50.46264" lon="2.63972">
        <ele>54.14943944</ele>
        <time>2017-09-03T11:30:07Z</time>
      </trkpt>
      <trkpt lat="50.46264" lon="2.63949">
        <ele>55.14946092</ele>
        <time>2017-09-03T11:30:11Z</time>
      </trkpt>
      <trkpt lat="50.46263" lon="2.63931">
        <ele>56.14946548</ele>
        <time>2017-09-03T11:30:16Z</time>
      </trkpt>
      <trkpt lat="50.46263" lon="2.63914">
        <ele>57.14948856</ele>
        <time>2017-09-03T11:30:20Z</time>
      </trkpt>
      <trkpt lat="50.46262" lon="2.63892">
        <ele>57.14950464</ele>
        <time>2017-09-03T11:30:24Z</time>
      </trkpt>
      <trkpt lat="50.46262" lon="2.63874">
        <ele>58.14951952</ele>
        <time>2017-09-03T11:30:29Z</time>
      </trkpt>
      <trkpt lat="50.46262" lon="2.63854">
        <ele>60.14952268</ele>
        <time>2017-09-03T11:30:33Z</time>
      </trkpt>
      <trkpt lat="50.46262" lon="2.63839">
        <ele>61.14952204</ele>
        <time>2017-09-03T11:30:38Z</time>
      </trkpt>
      <trkpt lat="50.46263" lon="2.63823">
        <ele>62.149498</ele>
        <time>2017-09-03T11:30:42Z</time>
      </trkpt>
      <trkpt lat="50.46264" lon="2.63811">
        <ele>63.14946092</ele>
        <time>2017-09-03T11:30:46Z</time>
      </trkpt>
      <trkpt lat="50.46265" lon="2.63798">
        <ele>64.14939564</ele>
        <time>2017-09-03T11:30:50Z</time>
      </trkpt>
      <trkpt lat="50.46268" lon="2.63781">
        <ele>65.14929856</ele>
        <time>2017-09-03T11:30:55Z</time>
      </trkpt>
      <trkpt lat="50.46272" lon="2.63762">
        <ele>65.14912676</ele>
        <time>2017-09-03T11:30:59Z</time>
      </trkpt>
      <trkpt lat="50.46276" lon="2.63735">
        <ele>66.148961</ele>
        <time>2017-09-03T11:31:04Z</time>
      </trkpt>
      <trkpt lat="50.4628" lon="2.63708">
        <ele>66.14879048</ele>
        <time>2017-09-03T11:31:09Z</time>
      </trkpt>
      <trkpt lat="50.46284" lon="2.63683">
        <ele>66.14864748</ele>
        <time>2017-09-03T11:31:13Z</time>
      </trkpt>
      <trkpt lat="50.46287" lon="2.63664">
        <ele>67.14852164</ele>
        <time>2017-09-03T11:31:17Z</time>
      </trkpt>
      <trkpt lat="50.4629" lon="2.63644">
        <ele>67.14839348</ele>
        <time>2017-09-03T11:31:22Z</time>
      </trkpt>
      <trkpt lat="50.46295" lon="2.63617">
        <ele>68.14819244</ele>
        <time>2017-09-03T11:31:26Z</time>
      </trkpt>
      <trkpt lat="50.46299" lon="2.63594">
        <ele>68.14802864</ele>
        <time>2017-09-03T11:31:31Z</time>
      </trkpt>
      <trkpt lat="50.46304" lon="2.63572">
        <ele>68.14786104</ele>
        <time>2017-09-03T11:31:35Z</time>
      </trkpt>
      <trkpt lat="50.46309" lon="2.63541">
        <ele>67.1476362</ele>
        <time>2017-09-03T11:31:39Z</time>
      </trkpt>
      <trkpt lat="50.46315" lon="2.63514">
        <ele>67.14738936</ele>
        <time>2017-09-03T11:31:44Z</time>
      </trkpt>
      <trkpt lat="50.46324" lon="2.63479">
        <ele>67.14702468</ele>
        <time>2017-09-03T11:31:48Z</time>
      </trkpt>
      <trkpt lat="50.46335" lon="2.63451">
        <ele>66.14661144</ele>
        <time>2017-09-03T11:31:52Z</time>
      </trkpt>
      <trkpt lat="50.46343" lon="2.63421">
        <ele>65.14626752</ele>
        <time>2017-09-03T11:31:56Z</time>
      </trkpt>
      <trkpt lat="50.46357" lon="2.63385">
        <ele>65.14572192</ele>
        <time>2017-09-03T11:32:01Z</time>
      </trkpt>
      <trkpt lat="50.46366" lon="2.63357">
        <ele>65.14536836</ele>
        <time>2017-09-03T11:32:06Z</time>
      </trkpt>
      <trkpt lat="50.46375" lon="2.63327">
        <ele>65.14502164</ele>
        <time>2017-09-03T11:32:10Z</time>
      </trkpt>
      <trkpt lat="50.46385" lon="2.63289">
        <ele>65.14458952</ele>
        <time>2017-09-03T11:32:15Z</time>
      </trkpt>
      <trkpt lat="50.46397" lon="2.63252">
        <ele>65.14412532</ele>
        <time>2017-09-03T11:32:19Z</time>
      </trkpt>
      <trkpt lat="50.46403" lon="2.6323">
        <ele>65.14387124</ele>
        <time>2017-09-03T11:32:23Z</time>
      </trkpt>
      <trkpt lat="50.4641" lon="2.6319">
        <ele>65.14360912</ele>
        <time>2017-09-03T11:32:27Z</time>
      </trkpt>
      <trkpt lat="50.46415" lon="2.63158">
        <ele>65.14341748</ele>
        <time>2017-09-03T11:32:31Z</time>
      </trkpt>
      <trkpt lat="50.46418" lon="2.63125">
        <ele>66.14327176</ele>
        <time>2017-09-03T11:32:35Z</time>
      </trkpt>
      <trkpt lat="50.46423" lon="2.63093">
        <ele>65.14306212</ele>
        <time>2017-09-03T11:32:40Z</time>
      </trkpt>
      <trkpt lat="50.46431" lon="2.63052">
        <ele>65.14274712</ele>
        <time>2017-09-03T11:32:44Z</time>
      </trkpt>
      <trkpt lat="50.46437" lon="2.63018">
        <ele>66.14253408</ele>
        <time>2017-09-03T11:32:49Z</time>
      </trkpt>
      <trkpt lat="50.46441" lon="2.62994">
        <ele>66.14234368</ele>
        <time>2017-09-03T11:32:52Z</time>
      </trkpt>
      <trkpt lat="50.46448" lon="2.62969">
        <ele>65.14208292</ele>
        <time>2017-09-03T11:32:55Z</time>
      </trkpt>
      <trkpt lat="50.46454" lon="2.6295">
        <ele>64.14182756</ele>
        <time>2017-09-03T11:33:00Z</time>
      </trkpt>
      <trkpt lat="50.46473" lon="2.6296">
        <ele>64.14109972</ele>
        <time>2017-09-03T11:33:04Z</time>
      </trkpt>
      <trkpt lat="50.46495" lon="2.62979">
        <ele>63.14021948</ele>
        <time>2017-09-03T11:33:09Z</time>
      </trkpt>
      <trkpt lat="50.46523" lon="2.63001">
        <ele>63.13908892</ele>
        <time>2017-09-03T11:33:14Z</time>
      </trkpt>
      <trkpt lat="50.4655" lon="2.63009">
        <ele>63.1379944</ele>
        <time>2017-09-03T11:33:19Z</time>
      </trkpt>
      <trkpt lat="50.46576" lon="2.63013">
        <ele>62.136942</ele>
        <time>2017-09-03T11:33:24Z</time>
      </trkpt>
      <trkpt lat="50.46605" lon="2.63021">
        <ele>62.13578688</ele>
        <time>2017-09-03T11:33:28Z</time>
      </trkpt>
      <trkpt lat="50.4663" lon="2.63016">
        <ele>62.1348108</ele>
        <time>2017-09-03T11:33:33Z</time>
      </trkpt>
      <trkpt lat="50.46656" lon="2.63009">
        <ele>62.13377232</ele>
        <time>2017-09-03T11:33:37Z</time>
      </trkpt>
      <trkpt lat="50.46683" lon="2.62985">
        <ele>62.13266608</ele>
        <time>2017-09-03T11:33:41Z</time>
      </trkpt>
      <trkpt lat="50.46707" lon="2.62974">
        <ele>61.131718</ele>
        <time>2017-09-03T11:33:46Z</time>
      </trkpt>
      <trkpt lat="50.46739" lon="2.62972">
        <ele>61.13042208</ele>
        <time>2017-09-03T11:33:51Z</time>
      </trkpt>
      <trkpt lat="50.46772" lon="2.6297">
        <ele>61.12911228</ele>
        <time>2017-09-03T11:33:55Z</time>
      </trkpt>
      <trkpt lat="50.46797" lon="2.62971">
        <ele>62.12813692</ele>
        <time>2017-09-03T11:34:00Z</time>
      </trkpt>
      <trkpt lat="50.46828" lon="2.62973">
        <ele>61.126883</ele>
        <time>2017-09-03T11:34:04Z</time>
      </trkpt>
      <trkpt lat="50.46854" lon="2.62973">
        <ele>61.1258564</ele>
        <time>2017-09-03T11:34:08Z</time>
      </trkpt>
      <trkpt lat="50.4688" lon="2.62971">
        <ele>61.12482172</ele>
        <time>2017-09-03T11:34:12Z</time>
      </trkpt>
      <trkpt lat="50.46903" lon="2.62969">
        <ele>61.12389928</ele>
        <time>2017-09-03T11:34:16Z</time>
      </trkpt>
      <trkpt lat="50.46927" lon="2.62965">
        <ele>61.12290504</ele>
        <time>2017-09-03T11:34:20Z</time>
      </trkpt>
      <trkpt lat="50.46961" lon="2.62961">
        <ele>60.121545</ele>
        <time>2017-09-03T11:34:25Z</time>
      </trkpt>
      <trkpt lat="50.46989" lon="2.62956">
        <ele>60.12043508</ele>
        <time>2017-09-03T11:34:30Z</time>
      </trkpt>
      <trkpt lat="50.4702" lon="2.62953">
        <ele>59.11919344</ele>
        <time>2017-09-03T11:34:35Z</time>
      </trkpt>
      <trkpt lat="50.47043" lon="2.6295">
        <ele>60.1182902</ele>
        <time>2017-09-03T11:34:39Z</time>
      </trkpt>
      <trkpt lat="50.47072" lon="2.62952">
        <ele>61.117102</ele>
        <time>2017-09-03T11:34:43Z</time>
      </trkpt>
      <trkpt lat="50.47103" lon="2.62962">
        <ele>61.11587256</ele>
        <time>2017-09-03T11:34:48Z</time>
      </trkpt>
      <trkpt lat="50.47127" lon="2.62972">
        <ele>61.11490556</ele>
        <time>2017-09-03T11:34:53Z</time>
      </trkpt>
      <trkpt lat="50.47151" lon="2.6298">
        <ele>61.11395604</ele>
        <time>2017-09-03T11:34:57Z</time>
      </trkpt>
      <trkpt lat="50.47177" lon="2.62987">
        <ele>60.1129022</ele>
        <time>2017-09-03T11:35:01Z</time>
      </trkpt>
      <trkpt lat="50.47193" lon="2.62992">
        <ele>61.11229976</ele>
        <time>2017-09-03T11:35:05Z</time>
      </trkpt>
      <trkpt lat="50.4722" lon="2.63002">
        <ele>61.11119624</ele>
        <time>2017-09-03T11:35:10Z</time>
      </trkpt>
      <trkpt lat="50.47242" lon="2.6301">
        <ele>62.11030668</ele>
        <time>2017-09-03T11:35:13Z</time>
      </trkpt>
      <trkpt lat="50.47266" lon="2.63018">
        <ele>61.10936304</ele>
        <time>2017-09-03T11:35:18Z</time>
      </trkpt>
      <trkpt lat="50.47289" lon="2.63025">
        <ele>62.10844296</ele>
        <time>2017-09-03T11:35:21Z</time>
      </trkpt>
      <trkpt lat="50.4731" lon="2.63035">
        <ele>63.10759196</ele>
        <time>2017-09-03T11:35:26Z</time>
      </trkpt>
      <trkpt lat="50.47336" lon="2.63052">
        <ele>62.10657756</ele>
        <time>2017-09-03T11:35:30Z</time>
      </trkpt>
      <trkpt lat="50.47354" lon="2.63062">
        <ele>62.10584888</ele>
        <time>2017-09-03T11:35:34Z</time>
      </trkpt>
      <trkpt lat="50.47372" lon="2.63074">
        <ele>62.10511208</ele>
        <time>2017-09-03T11:35:39Z</time>
      </trkpt>
      <trkpt lat="50.47391" lon="2.63083">
        <ele>62.10434648</ele>
        <time>2017-09-03T11:35:43Z</time>
      </trkpt>
      <trkpt lat="50.47414" lon="2.63088">
        <ele>62.10342344</ele>
        <time>2017-09-03T11:35:47Z</time>
      </trkpt>
      <trkpt lat="50.47431" lon="2.63084">
        <ele>61.10276996</ele>
        <time>2017-09-03T11:35:51Z</time>
      </trkpt>
      <trkpt lat="50.47447" lon="2.63078">
        <ele>61.10214024</ele>
        <time>2017-09-03T11:35:56Z</time>
      </trkpt>
      <trkpt lat="50.47461" lon="2.63074">
        <ele>60.10156132</ele>
        <time>2017-09-03T11:36:00Z</time>
      </trkpt>
      <trkpt lat="50.47486" lon="2.6307">
        <ele>60.10057776</ele>
        <time>2017-09-03T11:36:04Z</time>
      </trkpt>
      <trkpt lat="50.47499" lon="2.63073">
        <ele>59.100029</ele>
        <time>2017-09-03T11:36:09Z</time>
      </trkpt>
      <trkpt lat="50.47515" lon="2.63077">
        <ele>59.09940292</ele>
        <time>2017-09-03T11:36:13Z</time>
      </trkpt>
      <trkpt lat="50.47532" lon="2.63083">
        <ele>60.09871284</ele>
        <time>2017-09-03T11:36:18Z</time>
      </trkpt>
      <trkpt lat="50.47552" lon="2.63089">
        <ele>59.09792112</ele>
        <time>2017-09-03T11:36:23Z</time>
      </trkpt>
      <trkpt lat="50.47574" lon="2.63097">
        <ele>59.09703808</ele>
        <time>2017-09-03T11:36:28Z</time>
      </trkpt>
      <trkpt lat="50.4759" lon="2.63104">
        <ele>58.09641512</ele>
        <time>2017-09-03T11:36:32Z</time>
      </trkpt>
      <trkpt lat="50.47605" lon="2.63113">
        <ele>57.0958124</ele>
        <time>2017-09-03T11:36:35Z</time>
      </trkpt>
      <trkpt lat="50.47629" lon="2.6313">
        <ele>57.0948408</ele>
        <time>2017-09-03T11:36:40Z</time>
      </trkpt>
      <trkpt lat="50.47649" lon="2.6314">
        <ele>55.094031</ele>
        <time>2017-09-03T11:36:45Z</time>
      </trkpt>
      <trkpt lat="50.47671" lon="2.63151">
        <ele>55.09314316</ele>
        <time>2017-09-03T11:36:50Z</time>
      </trkpt>
      <trkpt lat="50.47682" lon="2.63159">
        <ele>56.09271256</ele>
        <time>2017-09-03T11:36:52Z</time>
      </trkpt>
      <trkpt lat="50.47699" lon="2.63166">
        <ele>52.0920514</ele>
        <time>2017-09-03T11:36:56Z</time>
      </trkpt>
      <trkpt lat="50.47719" lon="2.6317">
        <ele>55.3</ele>
      </trkpt>
      <trkpt lat="50.47724" lon="2.63075">
        <ele>55.6</ele>
      </trkpt>
      <trkpt lat="50.4773" lon="2.62879">
        <ele>56.5</ele>
      </trkpt>
      <trkpt lat="50.47735" lon="2.62738">
        <ele>56.2</ele>
      </trkpt>
      <trkpt lat="50.47748" lon="2.62605">
        <ele>55.3</ele>
      </trkpt>
      <trkpt lat="50.47749" lon="2.62533">
        <ele>55</ele>
      </trkpt>
      <trkpt lat="50.478" lon="2.62278">
        <ele>54.5</ele>
      </trkpt>
      <trkpt lat="50.47832" lon="2.62154">
        <ele>53.7</ele>
      </trkpt>
      <trkpt lat="50.47834" lon="2.62145">
        <ele>53.5</ele>
      </trkpt>
      <trkpt lat="50.47834" lon="2.62132">
        <ele>53.2</ele>
      </trkpt>
      <trkpt lat="50.47838" lon="2.62131">
        <ele>53.3</ele>
      </trkpt>
      <trkpt lat="50.47851" lon="2.62119">
        <ele>53.5</ele>
      </trkpt>
      <trkpt lat="50.47852" lon="2.62111">
        <ele>53.4</ele>
      </trkpt>
      <trkpt lat="50.47854" lon="2.62099">
        <ele>53.3</ele>
      </trkpt>
      <trkpt lat="50.47853" lon="2.62096">
        <ele>53.2</ele>
      </trkpt>
      <trkpt lat="50.47851" lon="2.62086">
        <ele>52.9</ele>
      </trkpt>
      <trkpt lat="50.47851" lon="2.62056">
        <ele>52.6</ele>
      </trkpt>
      <trkpt lat="50.4785" lon="2.62046">
        <ele>52.4</ele>
      </trkpt>
      <trkpt lat="50.47856" lon="2.61953">
        <ele>51.8</ele>
      </trkpt>
      <trkpt lat="50.47857" lon="2.61888">
        <ele>51.4</ele>
      </trkpt>
      <trkpt lat="50.47852" lon="2.61712">
        <ele>49.4</ele>
      </trkpt>
      <trkpt lat="50.47854" lon="2.61648">
        <ele>48.5</ele>
      </trkpt>
      <trkpt lat="50.4786" lon="2.61597">
        <ele>47.3</ele>
      </trkpt>
      <trkpt lat="50.4789" lon="2.61459">
        <ele>45.7</ele>
      </trkpt>
      <trkpt lat="50.479" lon="2.61414">
        <ele>45</ele>
      </trkpt>
      <trkpt lat="50.47902" lon="2.61393">
        <ele>44.8</ele>
      </trkpt>
      <trkpt lat="50.47901" lon="2.61381">
        <ele>44.7</ele>
      </trkpt>
      <trkpt lat="50.47905" lon="2.61378">
        <ele>44.6</ele>
      </trkpt>
      <trkpt lat="50.4791" lon="2.61367">
        <ele>44.5</ele>
      </trkpt>
      <trkpt lat="50.47914" lon="2.61354">
        <ele>44.3</ele>
      </trkpt>
      <trkpt lat="50.47935" lon="2.61262">
        <ele>43.3</ele>
      </trkpt>
      <trkpt lat="50.47941" lon="2.61231">
        <ele>43.3</ele>
      </trkpt>
      <trkpt lat="50.47972" lon="2.60991">
        <ele>46.8</ele>
      </trkpt>
      <trkpt lat="50.47986" lon="2.60925">
        <ele>47.9</ele>
      </trkpt>
      <trkpt lat="50.48001" lon="2.60877">
        <ele>48.5</ele>
      </trkpt>
      <trkpt lat="50.48062" lon="2.60623">
        <ele>47.7</ele>
      </trkpt>
      <trkpt lat="50.48085" lon="2.60517">
        <ele>47.9</ele>
      </trkpt>
      <trkpt lat="50.48089" lon="2.60493">
        <ele>47.6</ele>
      </trkpt>
      <trkpt lat="50.48093" lon="2.6044">
        <ele>46.3</ele>
      </trkpt>
      <trkpt lat="50.48097" lon="2.60409">
        <ele>45.6</ele>
      </trkpt>
      <trkpt lat="50.48112" lon="2.60334">
        <ele>44.7</ele>
      </trkpt>
      <trkpt lat="50.4812" lon="2.60259">
        <ele>43.7</ele>
      </trkpt>
      <trkpt lat="50.48122" lon="2.602">
        <ele>43.5</ele>
      </trkpt>
      <trkpt lat="50.48114" lon="2.60029">
        <ele>41.3</ele>
      </trkpt>
      <trkpt lat="50.48114" lon="2.59941">
        <ele>40.7</ele>
      </trkpt>
      <trkpt lat="50.48117" lon="2.59874">
        <ele>40.4</ele>
      </trkpt>
      <trkpt lat="50.4812" lon="2.59846">
        <ele>40.2</ele>
      </trkpt>
      <trkpt lat="50.48113" lon="2.59626">
        <ele>45</ele>
        <time>2021-06-24T18:07:17Z</time>
        <extensions>
          <gpxtpx:TrackPointExtension xmlns:gpxtpx="http://www.garmin.com/xmlschemas/TrackPointExtension/v1">
            <gpxtpx:hr>141</gpxtpx:hr>
          </gpxtpx:TrackPointExtension>
        </extensions>
      </trkpt>
      <trkpt lat="50.48112" lon="2.59619">
        <ele>44.8</ele>
        <time>2021-06-24T18:07:18Z</time>
        <extensions>
          <gpxtpx:TrackPointExtension xmlns:gpxtpx="http://www.garmin.com/xmlschemas/TrackPointExtension/v1">
            <gpxtpx:hr>141</gpxtpx:hr>
          </gpxtpx:TrackPointExtension>
        </extensions>
      </trkpt>
      <trkpt lat="50.48112" lon="2.59612">
        <ele>44.8</ele>
        <time>2021-06-24T18:07:19Z</time>
        <extensions>
          <gpxtpx:TrackPointExtension xmlns:gpxtpx="http://www.garmin.com/xmlschemas/TrackPointExtension/v1">
            <gpxtpx:hr>141</gpxtpx:hr>
          </gpxtpx:TrackPointExtension>
        </extensions>
      </trkpt>
      <trkpt lat="50.48111" lon="2.59605">
        <ele>44.6</ele>
        <time>2021-06-24T18:07:20Z</time>
        <extensions>
          <gpxtpx:TrackPointExtension xmlns:gpxtpx="http://www.garmin.com/xmlschemas/TrackPointExtension/v1">
            <gpxtpx:hr>141</gpxtpx:hr>
          </gpxtpx:TrackPointExtension>
        </extensions>
      </trkpt>
      <trkpt lat="50.48111" lon="2.59598">
        <ele>44.6</ele>
        <time>2021-06-24T18:07:21Z</time>
        <extensions>
          <gpxtpx:TrackPointExtension xmlns:gpxtpx="http://www.garmin.com/xmlschemas/TrackPointExtension/v1">
            <gpxtpx:hr>140</gpxtpx:hr>
          </gpxtpx:TrackPointExtension>
        </extensions>
      </trkpt>
      <trkpt lat="50.48111" lon="2.5959">
        <ele>44.6</ele>
        <time>2021-06-24T18:07:22Z</time>
        <extensions>
          <gpxtpx:TrackPointExtension xmlns:gpxtpx="http://www.garmin.com/xmlschemas/TrackPointExtension/v1">
            <gpxtpx:hr>140</gpxtpx:hr>
          </gpxtpx:TrackPointExtension>
        </extensions>
      </trkpt>
      <trkpt lat="50.48111" lon="2.59583">
        <ele>44.4</ele>
        <time>2021-06-24T18:07:23Z</time>
        <extensions>
          <gpxtpx:TrackPointExtension xmlns:gpxtpx="http://www.garmin.com/xmlschemas/TrackPointExtension/v1">
            <gpxtpx:hr>140</gpxtpx:hr>
          </gpxtpx:TrackPointExtension>
        </extensions>
      </trkpt>
      <trkpt lat="50.48111" lon="2.59576">
        <ele>44.4</ele>
        <time>2021-06-24T18:07:24Z</time>
        <extensions>
          <gpxtpx:TrackPointExtension xmlns:gpxtpx="http://www.garmin.com/xmlschemas/TrackPointExtension/v1">
            <gpxtpx:hr>140</gpxtpx:hr>
          </gpxtpx:TrackPointExtension>
        </extensions>
      </trkpt>
      <trkpt lat="50.48111" lon="2.59568">
        <ele>44.2</ele>
        <time>2021-06-24T18:07:25Z</time>
        <extensions>
          <gpxtpx:TrackPointExtension xmlns:gpxtpx="http://www.garmin.com/xmlschemas/TrackPointExtension/v1">
            <gpxtpx:hr>140</gpxtpx:hr>
          </gpxtpx:TrackPointExtension>
        </extensions>
      </trkpt>
      <trkpt lat="50.48111" lon="2.59561">
        <ele>44.2</ele>
        <time>2021-06-24T18:07:26Z</time>
        <extensions>
          <gpxtpx:TrackPointExtension xmlns:gpxtpx="http://www.garmin.com/xmlschemas/TrackPointExtension/v1">
            <gpxtpx:hr>140</gpxtpx:hr>
          </gpxtpx:TrackPointExtension>
        </extensions>
      </trkpt>
      <trkpt lat="50.48111" lon="2.59554">
        <ele>44.2</ele>
        <time>2021-06-24T18:07:27Z</time>
        <extensions>
          <gpxtpx:TrackPointExtension xmlns:gpxtpx="http://www.garmin.com/xmlschemas/TrackPointExtension/v1">
            <gpxtpx:hr>139</gpxtpx:hr>
          </gpxtpx:TrackPointExtension>
        </extensions>
      </trkpt>
      <trkpt lat="50.4811" lon="2.59546">
        <ele>44.2</ele>
        <time>2021-06-24T18:07:28Z</time>
        <extensions>
          <gpxtpx:TrackPointExtension xmlns:gpxtpx="http://www.garmin.com/xmlschemas/TrackPointExtension/v1">
            <gpxtpx:hr>139</gpxtpx:hr>
          </gpxtpx:TrackPointExtension>
        </extensions>
      </trkpt>
      <trkpt lat="50.48111" lon="2.59539">
        <ele>44</ele>
        <time>2021-06-24T18:07:29Z</time>
        <extensions>
          <gpxtpx:TrackPointExtension xmlns:gpxtpx="http://www.garmin.com/xmlschemas/TrackPointExtension/v1">
            <gpxtpx:hr>139</gpxtpx:hr>
          </gpxtpx:TrackPointExtension>
        </extensions>
      </trkpt>
      <trkpt lat="50.48111" lon="2.59532">
        <ele>44</ele>
        <time>2021-06-24T18:07:30Z</time>
        <extensions>
          <gpxtpx:TrackPointExtension xmlns:gpxtpx="http://www.garmin.com/xmlschemas/TrackPointExtension/v1">
            <gpxtpx:hr>139</gpxtpx:hr>
          </gpxtpx:TrackPointExtension>
        </extensions>
      </trkpt>
      <trkpt lat="50.48111" lon="2.59524">
        <ele>44</ele>
        <time>2021-06-24T18:07:31Z</time>
        <extensions>
          <gpxtpx:TrackPointExtension xmlns:gpxtpx="http://www.garmin.com/xmlschemas/TrackPointExtension/v1">
            <gpxtpx:hr>139</gpxtpx:hr>
          </gpxtpx:TrackPointExtension>
        </extensions>
      </trkpt>
      <trkpt lat="50.48111" lon="2.59516">
        <ele>44</ele>
        <time>2021-06-24T18:07:32Z</time>
        <extensions>
          <gpxtpx:TrackPointExtension xmlns:gpxtpx="http://www.garmin.com/xmlschemas/TrackPointExtension/v1">
            <gpxtpx:hr>139</gpxtpx:hr>
          </gpxtpx:TrackPointExtension>
        </extensions>
      </trkpt>
      <trkpt lat="50.48111" lon="2.59509">
        <ele>44</ele>
        <time>2021-06-24T18:07:33Z</time>
        <extensions>
          <gpxtpx:TrackPointExtension xmlns:gpxtpx="http://www.garmin.com/xmlschemas/TrackPointExtension/v1">
            <gpxtpx:hr>140</gpxtpx:hr>
          </gpxtpx:TrackPointExtension>
        </extensions>
      </trkpt>
      <trkpt lat="50.48112" lon="2.59502">
        <ele>44</ele>
        <time>2021-06-24T18:07:34Z</time>
        <extensions>
          <gpxtpx:TrackPointExtension xmlns:gpxtpx="http://www.garmin.com/xmlschemas/TrackPointExtension/v1">
            <gpxtpx:hr>140</gpxtpx:hr>
          </gpxtpx:TrackPointExtension>
        </extensions>
      </trkpt>
      <trkpt lat="50.48113" lon="2.59495">
        <ele>43.8</ele>
        <time>2021-06-24T18:07:35Z</time>
        <extensions>
          <gpxtpx:TrackPointExtension xmlns:gpxtpx="http://www.garmin.com/xmlschemas/TrackPointExtension/v1">
            <gpxtpx:hr>140</gpxtpx:hr>
          </gpxtpx:TrackPointExtension>
        </extensions>
      </trkpt>
      <trkpt lat="50.48113" lon="2.59487">
        <ele>43.8</ele>
        <time>2021-06-24T18:07:36Z</time>
        <extensions>
          <gpxtpx:TrackPointExtension xmlns:gpxtpx="http://www.garmin.com/xmlschemas/TrackPointExtension/v1">
            <gpxtpx:hr>140</gpxtpx:hr>
          </gpxtpx:TrackPointExtension>
        </extensions>
      </trkpt>
      <trkpt lat="50.48114" lon="2.59479">
        <ele>43.8</ele>
        <time>2021-06-24T18:07:37Z</time>
        <extensions>
          <gpxtpx:TrackPointExtension xmlns:gpxtpx="http://www.garmin.com/xmlschemas/TrackPointExtension/v1">
            <gpxtpx:hr>140</gpxtpx:hr>
          </gpxtpx:TrackPointExtension>
        </extensions>
      </trkpt>
      <trkpt lat="50.48115" lon="2.59472">
        <ele>43.8</ele>
        <time>2021-06-24T18:07:38Z</time>
        <extensions>
          <gpxtpx:TrackPointExtension xmlns:gpxtpx="http://www.garmin.com/xmlschemas/TrackPointExtension/v1">
            <gpxtpx:hr>140</gpxtpx:hr>
          </gpxtpx:TrackPointExtension>
        </extensions>
      </trkpt>
      <trkpt lat="50.48116" lon="2.59465">
        <ele>43.8</ele>
        <time>2021-06-24T18:07:39Z</time>
        <extensions>
          <gpxtpx:TrackPointExtension xmlns:gpxtpx="http://www.garmin.com/xmlschemas/TrackPointExtension/v1">
            <gpxtpx:hr>140</gpxtpx:hr>
          </gpxtpx:TrackPointExtension>
        </extensions>
      </trkpt>
      <trkpt lat="50.48117" lon="2.59457">
        <ele>43.6</ele>
        <time>2021-06-24T18:07:40Z</time>
        <extensions>
          <gpxtpx:TrackPointExtension xmlns:gpxtpx="http://www.garmin.com/xmlschemas/TrackPointExtension/v1">
            <gpxtpx:hr>140</gpxtpx:hr>
          </gpxtpx:TrackPointExtension>
        </extensions>
      </trkpt>
      <trkpt lat="50.48117" lon="2.5945">
        <ele>43.8</ele>
        <time>2021-06-24T18:07:41Z</time>
        <extensions>
          <gpxtpx:TrackPointExtension xmlns:gpxtpx="http://www.garmin.com/xmlschemas/TrackPointExtension/v1">
            <gpxtpx:hr>139</gpxtpx:hr>
          </gpxtpx:TrackPointExtension>
        </extensions>
      </trkpt>
      <trkpt lat="50.48119" lon="2.59443">
        <ele>43.8</ele>
        <time>2021-06-24T18:07:42Z</time>
        <extensions>
          <gpxtpx:TrackPointExtension xmlns:gpxtpx="http://www.garmin.com/xmlschemas/TrackPointExtension/v1">
            <gpxtpx:hr>139</gpxtpx:hr>
          </gpxtpx:TrackPointExtension>
        </extensions>
      </trkpt>
      <trkpt lat="50.48119" lon="2.59436">
        <ele>43.6</ele>
        <time>2021-06-24T18:07:43Z</time>
        <extensions>
          <gpxtpx:TrackPointExtension xmlns:gpxtpx="http://www.garmin.com/xmlschemas/TrackPointExtension/v1">
            <gpxtpx:hr>138</gpxtpx:hr>
          </gpxtpx:TrackPointExtension>
        </extensions>
      </trkpt>
      <trkpt lat="50.48121" lon="2.59429">
        <ele>43.6</ele>
        <time>2021-06-24T18:07:44Z</time>
        <extensions>
          <gpxtpx:TrackPointExtension xmlns:gpxtpx="http://www.garmin.com/xmlschemas/TrackPointExtension/v1">
            <gpxtpx:hr>137</gpxtpx:hr>
          </gpxtpx:TrackPointExtension>
        </extensions>
      </trkpt>
      <trkpt lat="50.48122" lon="2.59423">
        <ele>43.6</ele>
        <time>2021-06-24T18:07:45Z</time>
        <extensions>
          <gpxtpx:TrackPointExtension xmlns:gpxtpx="http://www.garmin.com/xmlschemas/TrackPointExtension/v1">
            <gpxtpx:hr>136</gpxtpx:hr>
          </gpxtpx:TrackPointExtension>
        </extensions>
      </trkpt>
      <trkpt lat="50.48123" lon="2.59416">
        <ele>43.6</ele>
        <time>2021-06-24T18:07:46Z</time>
        <extensions>
          <gpxtpx:TrackPointExtension xmlns:gpxtpx="http://www.garmin.com/xmlschemas/TrackPointExtension/v1">
            <gpxtpx:hr>135</gpxtpx:hr>
          </gpxtpx:TrackPointExtension>
        </extensions>
      </trkpt>
      <trkpt lat="50.48124" lon="2.59409">
        <ele>43.6</ele>
        <time>2021-06-24T18:07:47Z</time>
        <extensions>
          <gpxtpx:TrackPointExtension xmlns:gpxtpx="http://www.garmin.com/xmlschemas/TrackPointExtension/v1">
            <gpxtpx:hr>134</gpxtpx:hr>
          </gpxtpx:TrackPointExtension>
        </extensions>
      </trkpt>
      <trkpt lat="50.48125" lon="2.59402">
        <ele>43.6</ele>
        <time>2021-06-24T18:07:48Z</time>
        <extensions>
          <gpxtpx:TrackPointExtension xmlns:gpxtpx="http://www.garmin.com/xmlschemas/TrackPointExtension/v1">
            <gpxtpx:hr>134</gpxtpx:hr>
          </gpxtpx:TrackPointExtension>
        </extensions>
      </trkpt>
      <trkpt lat="50.48126" lon="2.59396">
        <ele>43.6</ele>
        <time>2021-06-24T18:07:49Z</time>
        <extensions>
          <gpxtpx:TrackPointExtension xmlns:gpxtpx="http://www.garmin.com/xmlschemas/TrackPointExtension/v1">
            <gpxtpx:hr>135</gpxtpx:hr>
          </gpxtpx:TrackPointExtension>
        </extensions>
      </trkpt>
      <trkpt lat="50.48127" lon="2.59388">
        <ele>43.6</ele>
        <time>2021-06-24T18:07:50Z</time>
        <extensions>
          <gpxtpx:TrackPointExtension xmlns:gpxtpx="http://www.garmin.com/xmlschemas/TrackPointExtension/v1">
            <gpxtpx:hr>137</gpxtpx:hr>
          </gpxtpx:TrackPointExtension>
        </extensions>
      </trkpt>
      <trkpt lat="50.48128" lon="2.59381">
        <ele>43.6</ele>
        <time>2021-06-24T18:07:51Z</time>
        <extensions>
          <gpxtpx:TrackPointExtension xmlns:gpxtpx="http://www.garmin.com/xmlschemas/TrackPointExtension/v1">
            <gpxtpx:hr>138</gpxtpx:hr>
          </gpxtpx:TrackPointExtension>
        </extensions>
      </trkpt>
      <trkpt lat="50.48129" lon="2.59374">
        <ele>43.6</ele>
        <time>2021-06-24T18:07:52Z</time>
        <extensions>
          <gpxtpx:TrackPointExtension xmlns:gpxtpx="http://www.garmin.com/xmlschemas/TrackPointExtension/v1">
            <gpxtpx:hr>140</gpxtpx:hr>
          </gpxtpx:TrackPointExtension>
        </extensions>
      </trkpt>
      <trkpt lat="50.4813" lon="2.59368">
        <ele>43.6</ele>
        <time>2021-06-24T18:07:53Z</time>
        <extensions>
          <gpxtpx:TrackPointExtension xmlns:gpxtpx="http://www.garmin.com/xmlschemas/TrackPointExtension/v1">
            <gpxtpx:hr>143</gpxtpx:hr>
          </gpxtpx:TrackPointExtension>
        </extensions>
      </trkpt>
      <trkpt lat="50.48131" lon="2.5936">
        <ele>43.6</ele>
        <time>2021-06-24T18:07:54Z</time>
        <extensions>
          <gpxtpx:TrackPointExtension xmlns:gpxtpx="http://www.garmin.com/xmlschemas/TrackPointExtension/v1">
            <gpxtpx:hr>145</gpxtpx:hr>
          </gpxtpx:TrackPointExtension>
        </extensions>
      </trkpt>
      <trkpt lat="50.48131" lon="2.59353">
        <ele>43.6</ele>
        <time>2021-06-24T18:07:55Z</time>
        <extensions>
          <gpxtpx:TrackPointExtension xmlns:gpxtpx="http://www.garmin.com/xmlschemas/TrackPointExtension/v1">
            <gpxtpx:hr>147</gpxtpx:hr>
          </gpxtpx:TrackPointExtension>
        </extensions>
      </trkpt>
      <trkpt lat="50.48132" lon="2.59346">
        <ele>43.6</ele>
        <time>2021-06-24T18:07:56Z</time>
        <extensions>
          <gpxtpx:TrackPointExtension xmlns:gpxtpx="http://www.garmin.com/xmlschemas/TrackPointExtension/v1">
            <gpxtpx:hr>148</gpxtpx:hr>
          </gpxtpx:TrackPointExtension>
        </extensions>
      </trkpt>
      <trkpt lat="50.48133" lon="2.59339">
        <ele>43.6</ele>
        <time>2021-06-24T18:07:57Z</time>
      </trkpt>
      <trkpt lat="50.48133" lon="2.59332">
        <ele>43.6</ele>
        <time>2021-06-24T18:07:58Z</time>
        <extensions>
          <gpxtpx:TrackPointExtension xmlns:gpxtpx="http://www.garmin.com/xmlschemas/TrackPointExtension/v1">
            <gpxtpx:hr>148</gpxtpx:hr>
          </gpxtpx:TrackPointExtension>
        </extensions>
      </trkpt>
      <trkpt lat="50.48133" lon="2.59325">
        <ele>43.4</ele>
        <time>2021-06-24T18:07:59Z</time>
        <extensions>
          <gpxtpx:TrackPointExtension xmlns:gpxtpx="http://www.garmin.com/xmlschemas/TrackPointExtension/v1">
            <gpxtpx:hr>149</gpxtpx:hr>
          </gpxtpx:TrackPointExtension>
        </extensions>
      </trkpt>
      <trkpt lat="50.48133" lon="2.59319">
        <ele>43.6</ele>
        <time>2021-06-24T18:08:00Z</time>
        <extensions>
          <gpxtpx:TrackPointExtension xmlns:gpxtpx="http://www.garmin.com/xmlschemas/TrackPointExtension/v1">
            <gpxtpx:hr>149</gpxtpx:hr>
          </gpxtpx:TrackPointExtension>
        </extensions>
      </trkpt>
      <trkpt lat="50.48133" lon="2.59313">
        <ele>43.6</ele>
        <time>2021-06-24T18:08:01Z</time>
        <extensions>
          <gpxtpx:TrackPointExtension xmlns:gpxtpx="http://www.garmin.com/xmlschemas/TrackPointExtension/v1">
            <gpxtpx:hr>149</gpxtpx:hr>
          </gpxtpx:TrackPointExtension>
        </extensions>
      </trkpt>
      <trkpt lat="50.48134" lon="2.59307">
        <ele>43.6</ele>
        <time>2021-06-24T18:08:02Z</time>
        <extensions>
          <gpxtpx:TrackPointExtension xmlns:gpxtpx="http://www.garmin.com/xmlschemas/TrackPointExtension/v1">
            <gpxtpx:hr>149</gpxtpx:hr>
          </gpxtpx:TrackPointExtension>
        </extensions>
      </trkpt>
      <trkpt lat="50.48134" lon="2.59301">
        <ele>43.6</ele>
        <time>2021-06-24T18:08:03Z</time>
        <extensions>
          <gpxtpx:TrackPointExtension xmlns:gpxtpx="http://www.garmin.com/xmlschemas/TrackPointExtension/v1">
            <gpxtpx:hr>149</gpxtpx:hr>
          </gpxtpx:TrackPointExtension>
        </extensions>
      </trkpt>
      <trkpt lat="50.48134" lon="2.59294">
        <ele>43.8</ele>
        <time>2021-06-24T18:08:04Z</time>
        <extensions>
          <gpxtpx:TrackPointExtension xmlns:gpxtpx="http://www.garmin.com/xmlschemas/TrackPointExtension/v1">
            <gpxtpx:hr>149</gpxtpx:hr>
          </gpxtpx:TrackPointExtension>
        </extensions>
      </trkpt>
      <trkpt lat="50.48134" lon="2.59288">
        <ele>43.8</ele>
        <time>2021-06-24T18:08:05Z</time>
        <extensions>
          <gpxtpx:TrackPointExtension xmlns:gpxtpx="http://www.garmin.com/xmlschemas/TrackPointExtension/v1">
            <gpxtpx:hr>150</gpxtpx:hr>
          </gpxtpx:TrackPointExtension>
        </extensions>
      </trkpt>
      <trkpt lat="50.48133" lon="2.59281">
        <ele>43.8</ele>
        <time>2021-06-24T18:08:06Z</time>
        <extensions>
          <gpxtpx:TrackPointExtension xmlns:gpxtpx="http://www.garmin.com/xmlschemas/TrackPointExtension/v1">
            <gpxtpx:hr>150</gpxtpx:hr>
          </gpxtpx:TrackPointExtension>
        </extensions>
      </trkpt>
      <trkpt lat="50.48133" lon="2.59275">
        <ele>43.8</ele>
        <time>2021-06-24T18:08:07Z</time>
        <extensions>
          <gpxtpx:TrackPointExtension xmlns:gpxtpx="http://www.garmin.com/xmlschemas/TrackPointExtension/v1">
            <gpxtpx:hr>150</gpxtpx:hr>
          </gpxtpx:TrackPointExtension>
        </extensions>
      </trkpt>
      <trkpt lat="50.48134" lon="2.59268">
        <ele>43.8</ele>
        <time>2021-06-24T18:08:08Z</time>
        <extensions>
          <gpxtpx:TrackPointExtension xmlns:gpxtpx="http://www.garmin.com/xmlschemas/TrackPointExtension/v1">
            <gpxtpx:hr>150</gpxtpx:hr>
          </gpxtpx:TrackPointExtension>
        </extensions>
      </trkpt>
      <trkpt lat="50.48135" lon="2.59262">
        <ele>44</ele>
        <time>2021-06-24T18:08:09Z</time>
        <extensions>
          <gpxtpx:TrackPointExtension xmlns:gpxtpx="http://www.garmin.com/xmlschemas/TrackPointExtension/v1">
            <gpxtpx:hr>150</gpxtpx:hr>
          </gpxtpx:TrackPointExtension>
        </extensions>
      </trkpt>
      <trkpt lat="50.48135" lon="2.59256">
        <ele>44</ele>
        <time>2021-06-24T18:08:10Z</time>
        <extensions>
          <gpxtpx:TrackPointExtension xmlns:gpxtpx="http://www.garmin.com/xmlschemas/TrackPointExtension/v1">
            <gpxtpx:hr>150</gpxtpx:hr>
          </gpxtpx:TrackPointExtension>
        </extensions>
      </trkpt>
      <trkpt lat="50.48137" lon="2.59249">
        <ele>44</ele>
        <time>2021-06-24T18:08:11Z</time>
        <extensions>
          <gpxtpx:TrackPointExtension xmlns:gpxtpx="http://www.garmin.com/xmlschemas/TrackPointExtension/v1">
            <gpxtpx:hr>150</gpxtpx:hr>
          </gpxtpx:TrackPointExtension>
        </extensions>
      </trkpt>
      <trkpt lat="50.48138" lon="2.59243">
        <ele>44</ele>
        <time>2021-06-24T18:08:12Z</time>
        <extensions>
          <gpxtpx:TrackPointExtension xmlns:gpxtpx="http://www.garmin.com/xmlschemas/TrackPointExtension/v1">
            <gpxtpx:hr>150</gpxtpx:hr>
          </gpxtpx:TrackPointExtension>
        </extensions>
      </trkpt>
      <trkpt lat="50.48139" lon="2.59238">
        <ele>44</ele>
        <time>2021-06-24T18:08:13Z</time>
        <extensions>
          <gpxtpx:TrackPointExtension xmlns:gpxtpx="http://www.garmin.com/xmlschemas/TrackPointExtension/v1">
            <gpxtpx:hr>150</gpxtpx:hr>
          </gpxtpx:TrackPointExtension>
        </extensions>
      </trkpt>
      <trkpt lat="50.48141" lon="2.59233">
        <ele>44</ele>
        <time>2021-06-24T18:08:14Z</time>
        <extensions>
          <gpxtpx:TrackPointExtension xmlns:gpxtpx="http://www.garmin.com/xmlschemas/TrackPointExtension/v1">
            <gpxtpx:hr>149</gpxtpx:hr>
          </gpxtpx:TrackPointExtension>
        </extensions>
      </trkpt>
      <trkpt lat="50.48143" lon="2.59229">
        <ele>44</ele>
        <time>2021-06-24T18:08:15Z</time>
        <extensions>
          <gpxtpx:TrackPointExtension xmlns:gpxtpx="http://www.garmin.com/xmlschemas/TrackPointExtension/v1">
            <gpxtpx:hr>149</gpxtpx:hr>
          </gpxtpx:TrackPointExtension>
        </extensions>
      </trkpt>
      <trkpt lat="50.48144" lon="2.59225">
        <ele>44</ele>
        <time>2021-06-24T18:08:16Z</time>
        <extensions>
          <gpxtpx:TrackPointExtension xmlns:gpxtpx="http://www.garmin.com/xmlschemas/TrackPointExtension/v1">
            <gpxtpx:hr>149</gpxtpx:hr>
          </gpxtpx:TrackPointExtension>
        </extensions>
      </trkpt>
      <trkpt lat="50.48147" lon="2.59222">
        <ele>44</ele>
        <time>2021-06-24T18:08:17Z</time>
        <extensions>
          <gpxtpx:TrackPointExtension xmlns:gpxtpx="http://www.garmin.com/xmlschemas/TrackPointExtension/v1">
            <gpxtpx:hr>149</gpxtpx:hr>
          </gpxtpx:TrackPointExtension>
        </extensions>
      </trkpt>
      <trkpt lat="50.48149" lon="2.59219">
        <ele>44</ele>
        <time>2021-06-24T18:08:18Z</time>
        <extensions>
          <gpxtpx:TrackPointExtension xmlns:gpxtpx="http://www.garmin.com/xmlschemas/TrackPointExtension/v1">
            <gpxtpx:hr>148</gpxtpx:hr>
          </gpxtpx:TrackPointExtension>
        </extensions>
      </trkpt>
      <trkpt lat="50.48151" lon="2.59217">
        <ele>44</ele>
        <time>2021-06-24T18:08:19Z</time>
        <extensions>
          <gpxtpx:TrackPointExtension xmlns:gpxtpx="http://www.garmin.com/xmlschemas/TrackPointExtension/v1">
            <gpxtpx:hr>148</gpxtpx:hr>
          </gpxtpx:TrackPointExtension>
        </extensions>
      </trkpt>
      <trkpt lat="50.48153" lon="2.59216">
        <ele>44</ele>
        <time>2021-06-24T18:08:20Z</time>
        <extensions>
          <gpxtpx:TrackPointExtension xmlns:gpxtpx="http://www.garmin.com/xmlschemas/TrackPointExtension/v1">
            <gpxtpx:hr>147</gpxtpx:hr>
          </gpxtpx:TrackPointExtension>
        </extensions>
      </trkpt>
      <trkpt lat="50.48158" lon="2.59214">
        <ele>44.2</ele>
        <time>2021-06-24T18:08:26Z</time>
        <extensions>
          <gpxtpx:TrackPointExtension xmlns:gpxtpx="http://www.garmin.com/xmlschemas/TrackPointExtension/v1">
            <gpxtpx:hr>145</gpxtpx:hr>
          </gpxtpx:TrackPointExtension>
        </extensions>
      </trkpt>
      <trkpt lat="50.48161" lon="2.59211">
        <ele>44.2</ele>
        <time>2021-06-24T18:08:28Z</time>
        <extensions>
          <gpxtpx:TrackPointExtension xmlns:gpxtpx="http://www.garmin.com/xmlschemas/TrackPointExtension/v1">
            <gpxtpx:hr>144</gpxtpx:hr>
          </gpxtpx:TrackPointExtension>
        </extensions>
      </trkpt>
      <trkpt lat="50.48163" lon="2.5921">
        <ele>44.2</ele>
        <time>2021-06-24T18:08:29Z</time>
        <extensions>
          <gpxtpx:TrackPointExtension xmlns:gpxtpx="http://www.garmin.com/xmlschemas/TrackPointExtension/v1">
            <gpxtpx:hr>143</gpxtpx:hr>
          </gpxtpx:TrackPointExtension>
        </extensions>
      </trkpt>
      <trkpt lat="50.48166" lon="2.59209">
        <ele>44.2</ele>
        <time>2021-06-24T18:08:30Z</time>
        <extensions>
          <gpxtpx:TrackPointExtension xmlns:gpxtpx="http://www.garmin.com/xmlschemas/TrackPointExtension/v1">
            <gpxtpx:hr>142</gpxtpx:hr>
          </gpxtpx:TrackPointExtension>
        </extensions>
      </trkpt>
      <trkpt lat="50.48168" lon="2.59209">
        <ele>44.2</ele>
        <time>2021-06-24T18:08:31Z</time>
        <extensions>
          <gpxtpx:TrackPointExtension xmlns:gpxtpx="http://www.garmin.com/xmlschemas/TrackPointExtension/v1">
            <gpxtpx:hr>141</gpxtpx:hr>
          </gpxtpx:TrackPointExtension>
        </extensions>
      </trkpt>
      <trkpt lat="50.4817" lon="2.59208">
        <ele>44.4</ele>
        <time>2021-06-24T18:08:32Z</time>
        <extensions>
          <gpxtpx:TrackPointExtension xmlns:gpxtpx="http://www.garmin.com/xmlschemas/TrackPointExtension/v1">
            <gpxtpx:hr>141</gpxtpx:hr>
          </gpxtpx:TrackPointExtension>
        </extensions>
      </trkpt>
      <trkpt lat="50.48172" lon="2.59208">
        <ele>44.4</ele>
        <time>2021-06-24T18:08:33Z</time>
        <extensions>
          <gpxtpx:TrackPointExtension xmlns:gpxtpx="http://www.garmin.com/xmlschemas/TrackPointExtension/v1">
            <gpxtpx:hr>140</gpxtpx:hr>
          </gpxtpx:TrackPointExtension>
        </extensions>
      </trkpt>
      <trkpt lat="50.48173" lon="2.59207">
        <ele>44.4</ele>
        <time>2021-06-24T18:08:34Z</time>
        <extensions>
          <gpxtpx:TrackPointExtension xmlns:gpxtpx="http://www.garmin.com/xmlschemas/TrackPointExtension/v1">
            <gpxtpx:hr>140</gpxtpx:hr>
          </gpxtpx:TrackPointExtension>
        </extensions>
      </trkpt>
      <trkpt lat="50.48177" lon="2.59206">
        <ele>44.6</ele>
        <time>2021-06-24T18:08:36Z</time>
        <extensions>
          <gpxtpx:TrackPointExtension xmlns:gpxtpx="http://www.garmin.com/xmlschemas/TrackPointExtension/v1">
            <gpxtpx:hr>140</gpxtpx:hr>
          </gpxtpx:TrackPointExtension>
        </extensions>
      </trkpt>
      <trkpt lat="50.48178" lon="2.59206">
        <ele>44.6</ele>
        <time>2021-06-24T18:08:37Z</time>
        <extensions>
          <gpxtpx:TrackPointExtension xmlns:gpxtpx="http://www.garmin.com/xmlschemas/TrackPointExtension/v1">
            <gpxtpx:hr>140</gpxtpx:hr>
          </gpxtpx:TrackPointExtension>
        </extensions>
      </trkpt>
      <trkpt lat="50.48179" lon="2.59204">
        <ele>44.8</ele>
        <time>2021-06-24T18:08:38Z</time>
        <extensions>
          <gpxtpx:TrackPointExtension xmlns:gpxtpx="http://www.garmin.com/xmlschemas/TrackPointExtension/v1">
            <gpxtpx:hr>140</gpxtpx:hr>
          </gpxtpx:TrackPointExtension>
        </extensions>
      </trkpt>
      <trkpt lat="50.4818" lon="2.59203">
        <ele>45</ele>
        <time>2021-06-24T18:08:39Z</time>
        <extensions>
          <gpxtpx:TrackPointExtension xmlns:gpxtpx="http://www.garmin.com/xmlschemas/TrackPointExtension/v1">
            <gpxtpx:hr>140</gpxtpx:hr>
          </gpxtpx:TrackPointExtension>
        </extensions>
      </trkpt>
      <trkpt lat="50.48182" lon="2.59202">
        <ele>45.2</ele>
        <time>2021-06-24T18:08:41Z</time>
        <extensions>
          <gpxtpx:TrackPointExtension xmlns:gpxtpx="http://www.garmin.com/xmlschemas/TrackPointExtension/v1">
            <gpxtpx:hr>140</gpxtpx:hr>
          </gpxtpx:TrackPointExtension>
        </extensions>
      </trkpt>
      <trkpt lat="50.48184" lon="2.59202">
        <ele>46.6</ele>
        <time>2021-06-24T18:08:48Z</time>
        <extensions>
          <gpxtpx:TrackPointExtension xmlns:gpxtpx="http://www.garmin.com/xmlschemas/TrackPointExtension/v1">
            <gpxtpx:hr>138</gpxtpx:hr>
          </gpxtpx:TrackPointExtension>
        </extensions>
      </trkpt>
      <trkpt lat="50.48187" lon="2.59205">
        <ele>47</ele>
        <time>2021-06-24T18:08:52Z</time>
        <extensions>
          <gpxtpx:TrackPointExtension xmlns:gpxtpx="http://www.garmin.com/xmlschemas/TrackPointExtension/v1">
            <gpxtpx:hr>136</gpxtpx:hr>
          </gpxtpx:TrackPointExtension>
        </extensions>
      </trkpt>
      <trkpt lat="50.48187" lon="2.59206">
        <ele>47</ele>
        <time>2021-06-24T18:08:53Z</time>
        <extensions>
          <gpxtpx:TrackPointExtension xmlns:gpxtpx="http://www.garmin.com/xmlschemas/TrackPointExtension/v1">
            <gpxtpx:hr>136</gpxtpx:hr>
          </gpxtpx:TrackPointExtension>
        </extensions>
      </trkpt>
      <trkpt lat="50.4819" lon="2.59196">
        <ele>48.8</ele>
        <time>2021-06-24T18:09:07Z</time>
        <extensions>
          <gpxtpx:TrackPointExtension xmlns:gpxtpx="http://www.garmin.com/xmlschemas/TrackPointExtension/v1">
            <gpxtpx:hr>137</gpxtpx:hr>
          </gpxtpx:TrackPointExtension>
        </extensions>
      </trkpt>
      <trkpt lat="50.48193" lon="2.59195">
        <ele>48.8</ele>
        <time>2021-06-24T18:09:09Z</time>
        <extensions>
          <gpxtpx:TrackPointExtension xmlns:gpxtpx="http://www.garmin.com/xmlschemas/TrackPointExtension/v1">
            <gpxtpx:hr>138</gpxtpx:hr>
          </gpxtpx:TrackPointExtension>
        </extensions>
      </trkpt>
      <trkpt lat="50.48194" lon="2.59195">
        <ele>48.8</ele>
        <time>2021-06-24T18:09:10Z</time>
        <extensions>
          <gpxtpx:TrackPointExtension xmlns:gpxtpx="http://www.garmin.com/xmlschemas/TrackPointExtension/v1">
            <gpxtpx:hr>138</gpxtpx:hr>
          </gpxtpx:TrackPointExtension>
        </extensions>
      </trkpt>
      <trkpt lat="50.48196" lon="2.59194">
        <ele>48.8</ele>
        <time>2021-06-24T18:09:12Z</time>
        <extensions>
          <gpxtpx:TrackPointExtension xmlns:gpxtpx="http://www.garmin.com/xmlschemas/TrackPointExtension/v1">
            <gpxtpx:hr>139</gpxtpx:hr>
          </gpxtpx:TrackPointExtension>
        </extensions>
      </trkpt>
      <trkpt lat="50.48198" lon="2.59193">
        <ele>49</ele>
        <time>2021-06-24T18:09:14Z</time>
        <extensions>
          <gpxtpx:TrackPointExtension xmlns:gpxtpx="http://www.garmin.com/xmlschemas/TrackPointExtension/v1">
            <gpxtpx:hr>141</gpxtpx:hr>
          </gpxtpx:TrackPointExtension>
        </extensions>
      </trkpt>
      <trkpt lat="50.48201" lon="2.59192">
        <ele>49</ele>
        <time>2021-06-24T18:09:16Z</time>
        <extensions>
          <gpxtpx:TrackPointExtension xmlns:gpxtpx="http://www.garmin.com/xmlschemas/TrackPointExtension/v1">
            <gpxtpx:hr>142</gpxtpx:hr>
          </gpxtpx:TrackPointExtension>
        </extensions>
      </trkpt>
      <trkpt lat="50.48203" lon="2.59191">
        <ele>49.2</ele>
        <time>2021-06-24T18:09:18Z</time>
        <extensions>
          <gpxtpx:TrackPointExtension xmlns:gpxtpx="http://www.garmin.com/xmlschemas/TrackPointExtension/v1">
            <gpxtpx:hr>142</gpxtpx:hr>
          </gpxtpx:TrackPointExtension>
        </extensions>
      </trkpt>
      <trkpt lat="50.48205" lon="2.5919">
        <ele>49.6</ele>
        <time>2021-06-24T18:09:20Z</time>
        <extensions>
          <gpxtpx:TrackPointExtension xmlns:gpxtpx="http://www.garmin.com/xmlschemas/TrackPointExtension/v1">
            <gpxtpx:hr>142</gpxtpx:hr>
          </gpxtpx:TrackPointExtension>
        </extensions>
      </trkpt>
      <trkpt lat="50.48205" lon="2.59189">
        <ele>49.8</ele>
        <time>2021-06-24T18:09:21Z</time>
        <extensions>
          <gpxtpx:TrackPointExtension xmlns:gpxtpx="http://www.garmin.com/xmlschemas/TrackPointExtension/v1">
            <gpxtpx:hr>142</gpxtpx:hr>
          </gpxtpx:TrackPointExtension>
        </extensions>
      </trkpt>
      <trkpt lat="50.48207" lon="2.5919">
        <ele>50.4</ele>
        <time>2021-06-24T18:09:26Z</time>
        <extensions>
          <gpxtpx:TrackPointExtension xmlns:gpxtpx="http://www.garmin.com/xmlschemas/TrackPointExtension/v1">
            <gpxtpx:hr>140</gpxtpx:hr>
          </gpxtpx:TrackPointExtension>
        </extensions>
      </trkpt>
      <trkpt lat="50.48208" lon="2.5919">
        <ele>52.2</ele>
        <time>2021-06-24T18:10:04Z</time>
        <extensions>
          <gpxtpx:TrackPointExtension xmlns:gpxtpx="http://www.garmin.com/xmlschemas/TrackPointExtension/v1">
            <gpxtpx:hr>141</gpxtpx:hr>
          </gpxtpx:TrackPointExtension>
        </extensions>
      </trkpt>
      <trkpt lat="50.4821" lon="2.59189">
        <ele>52.2</ele>
        <time>2021-06-24T18:10:05Z</time>
        <extensions>
          <gpxtpx:TrackPointExtension xmlns:gpxtpx="http://www.garmin.com/xmlschemas/TrackPointExtension/v1">
            <gpxtpx:hr>140</gpxtpx:hr>
          </gpxtpx:TrackPointExtension>
        </extensions>
      </trkpt>
      <trkpt lat="50.48212" lon="2.59188">
        <ele>52.2</ele>
        <time>2021-06-24T18:10:06Z</time>
        <extensions>
          <gpxtpx:TrackPointExtension xmlns:gpxtpx="http://www.garmin.com/xmlschemas/TrackPointExtension/v1">
            <gpxtpx:hr>140</gpxtpx:hr>
          </gpxtpx:TrackPointExtension>
        </extensions>
      </trkpt>
      <trkpt lat="50.48214" lon="2.59187">
        <ele>52.2</ele>
        <time>2021-06-24T18:10:07Z</time>
        <extensions>
          <gpxtpx:TrackPointExtension xmlns:gpxtpx="http://www.garmin.com/xmlschemas/TrackPointExtension/v1">
            <gpxtpx:hr>140</gpxtpx:hr>
          </gpxtpx:TrackPointExtension>
        </extensions>
      </trkpt>
      <trkpt lat="50.48217" lon="2.59186">
        <ele>52.2</ele>
        <time>2021-06-24T18:10:08Z</time>
        <extensions>
          <gpxtpx:TrackPointExtension xmlns:gpxtpx="http://www.garmin.com/xmlschemas/TrackPointExtension/v1">
            <gpxtpx:hr>139</gpxtpx:hr>
          </gpxtpx:TrackPointExtension>
        </extensions>
      </trkpt>
      <trkpt lat="50.4822" lon="2.59185">
        <ele>52.4</ele>
        <time>2021-06-24T18:10:09Z</time>
        <extensions>
          <gpxtpx:TrackPointExtension xmlns:gpxtpx="http://www.garmin.com/xmlschemas/TrackPointExtension/v1">
            <gpxtpx:hr>139</gpxtpx:hr>
          </gpxtpx:TrackPointExtension>
        </extensions>
      </trkpt>
      <trkpt lat="50.48222" lon="2.59184">
        <ele>52.4</ele>
        <time>2021-06-24T18:10:10Z</time>
        <extensions>
          <gpxtpx:TrackPointExtension xmlns:gpxtpx="http://www.garmin.com/xmlschemas/TrackPointExtension/v1">
            <gpxtpx:hr>138</gpxtpx:hr>
          </gpxtpx:TrackPointExtension>
        </extensions>
      </trkpt>
      <trkpt lat="50.48225" lon="2.59183">
        <ele>52.4</ele>
        <time>2021-06-24T18:10:11Z</time>
        <extensions>
          <gpxtpx:TrackPointExtension xmlns:gpxtpx="http://www.garmin.com/xmlschemas/TrackPointExtension/v1">
            <gpxtpx:hr>137</gpxtpx:hr>
          </gpxtpx:TrackPointExtension>
        </extensions>
      </trkpt>
      <trkpt lat="50.48228" lon="2.59182">
        <ele>52.4</ele>
        <time>2021-06-24T18:10:12Z</time>
        <extensions>
          <gpxtpx:TrackPointExtension xmlns:gpxtpx="http://www.garmin.com/xmlschemas/TrackPointExtension/v1">
            <gpxtpx:hr>135</gpxtpx:hr>
          </gpxtpx:TrackPointExtension>
        </extensions>
      </trkpt>
      <trkpt lat="50.48231" lon="2.59181">
        <ele>52.4</ele>
        <time>2021-06-24T18:10:13Z</time>
        <extensions>
          <gpxtpx:TrackPointExtension xmlns:gpxtpx="http://www.garmin.com/xmlschemas/TrackPointExtension/v1">
            <gpxtpx:hr>134</gpxtpx:hr>
          </gpxtpx:TrackPointExtension>
        </extensions>
      </trkpt>
      <trkpt lat="50.48234" lon="2.5918">
        <ele>52.4</ele>
        <time>2021-06-24T18:10:14Z</time>
        <extensions>
          <gpxtpx:TrackPointExtension xmlns:gpxtpx="http://www.garmin.com/xmlschemas/TrackPointExtension/v1">
            <gpxtpx:hr>133</gpxtpx:hr>
          </gpxtpx:TrackPointExtension>
        </extensions>
      </trkpt>
      <trkpt lat="50.48237" lon="2.59179">
        <ele>52.4</ele>
        <time>2021-06-24T18:10:15Z</time>
        <extensions>
          <gpxtpx:TrackPointExtension xmlns:gpxtpx="http://www.garmin.com/xmlschemas/TrackPointExtension/v1">
            <gpxtpx:hr>132</gpxtpx:hr>
          </gpxtpx:TrackPointExtension>
        </extensions>
      </trkpt>
      <trkpt lat="50.4824" lon="2.59178">
        <ele>52.6</ele>
        <time>2021-06-24T18:10:16Z</time>
        <extensions>
          <gpxtpx:TrackPointExtension xmlns:gpxtpx="http://www.garmin.com/xmlschemas/TrackPointExtension/v1">
            <gpxtpx:hr>131</gpxtpx:hr>
          </gpxtpx:TrackPointExtension>
        </extensions>
      </trkpt>
      <trkpt lat="50.48243" lon="2.59178">
        <ele>52.6</ele>
        <time>2021-06-24T18:10:17Z</time>
        <extensions>
          <gpxtpx:TrackPointExtension xmlns:gpxtpx="http://www.garmin.com/xmlschemas/TrackPointExtension/v1">
            <gpxtpx:hr>130</gpxtpx:hr>
          </gpxtpx:TrackPointExtension>
        </extensions>
      </trkpt>
      <trkpt lat="50.48246" lon="2.59177">
        <ele>52.8</ele>
        <time>2021-06-24T18:10:18Z</time>
        <extensions>
          <gpxtpx:TrackPointExtension xmlns:gpxtpx="http://www.garmin.com/xmlschemas/TrackPointExtension/v1">
            <gpxtpx:hr>129</gpxtpx:hr>
          </gpxtpx:TrackPointExtension>
        </extensions>
      </trkpt>
      <trkpt lat="50.4825" lon="2.59176">
        <ele>52.8</ele>
        <time>2021-06-24T18:10:19Z</time>
        <extensions>
          <gpxtpx:TrackPointExtension xmlns:gpxtpx="http://www.garmin.com/xmlschemas/TrackPointExtension/v1">
            <gpxtpx:hr>129</gpxtpx:hr>
          </gpxtpx:TrackPointExtension>
        </extensions>
      </trkpt>
      <trkpt lat="50.48254" lon="2.59175">
        <ele>52.8</ele>
        <time>2021-06-24T18:10:20Z</time>
        <extensions>
          <gpxtpx:TrackPointExtension xmlns:gpxtpx="http://www.garmin.com/xmlschemas/TrackPointExtension/v1">
            <gpxtpx:hr>129</gpxtpx:hr>
          </gpxtpx:TrackPointExtension>
        </extensions>
      </trkpt>
      <trkpt lat="50.48257" lon="2.59174">
        <ele>53</ele>
        <time>2021-06-24T18:10:21Z</time>
        <extensions>
          <gpxtpx:TrackPointExtension xmlns:gpxtpx="http://www.garmin.com/xmlschemas/TrackPointExtension/v1">
            <gpxtpx:hr>129</gpxtpx:hr>
          </gpxtpx:TrackPointExtension>
        </extensions>
      </trkpt>
      <trkpt lat="50.48261" lon="2.59173">
        <ele>53</ele>
        <time>2021-06-24T18:10:22Z</time>
        <extensions>
          <gpxtpx:TrackPointExtension xmlns:gpxtpx="http://www.garmin.com/xmlschemas/TrackPointExtension/v1">
            <gpxtpx:hr>129</gpxtpx:hr>
          </gpxtpx:TrackPointExtension>
        </extensions>
      </trkpt>
      <trkpt lat="50.48264" lon="2.59171">
        <ele>53</ele>
        <time>2021-06-24T18:10:23Z</time>
        <extensions>
          <gpxtpx:TrackPointExtension xmlns:gpxtpx="http://www.garmin.com/xmlschemas/TrackPointExtension/v1">
            <gpxtpx:hr>129</gpxtpx:hr>
          </gpxtpx:TrackPointExtension>
        </extensions>
      </trkpt>
      <trkpt lat="50.48268" lon="2.5917">
        <ele>53</ele>
        <time>2021-06-24T18:10:24Z</time>
        <extensions>
          <gpxtpx:TrackPointExtension xmlns:gpxtpx="http://www.garmin.com/xmlschemas/TrackPointExtension/v1">
            <gpxtpx:hr>129</gpxtpx:hr>
          </gpxtpx:TrackPointExtension>
        </extensions>
      </trkpt>
      <trkpt lat="50.48272" lon="2.59168">
        <ele>53</ele>
        <time>2021-06-24T18:10:25Z</time>
        <extensions>
          <gpxtpx:TrackPointExtension xmlns:gpxtpx="http://www.garmin.com/xmlschemas/TrackPointExtension/v1">
            <gpxtpx:hr>129</gpxtpx:hr>
          </gpxtpx:TrackPointExtension>
        </extensions>
      </trkpt>
      <trkpt lat="50.48276" lon="2.59167">
        <ele>53.2</ele>
        <time>2021-06-24T18:10:26Z</time>
        <extensions>
          <gpxtpx:TrackPointExtension xmlns:gpxtpx="http://www.garmin.com/xmlschemas/TrackPointExtension/v1">
            <gpxtpx:hr>129</gpxtpx:hr>
          </gpxtpx:TrackPointExtension>
        </extensions>
      </trkpt>
      <trkpt lat="50.4828" lon="2.59166">
        <ele>53.2</ele>
        <time>2021-06-24T18:10:27Z</time>
        <extensions>
          <gpxtpx:TrackPointExtension xmlns:gpxtpx="http://www.garmin.com/xmlschemas/TrackPointExtension/v1">
            <gpxtpx:hr>130</gpxtpx:hr>
          </gpxtpx:TrackPointExtension>
        </extensions>
      </trkpt>
      <trkpt lat="50.48284" lon="2.59164">
        <ele>53.2</ele>
        <time>2021-06-24T18:10:28Z</time>
        <extensions>
          <gpxtpx:TrackPointExtension xmlns:gpxtpx="http://www.garmin.com/xmlschemas/TrackPointExtension/v1">
            <gpxtpx:hr>130</gpxtpx:hr>
          </gpxtpx:TrackPointExtension>
        </extensions>
      </trkpt>
      <trkpt lat="50.48289" lon="2.59163">
        <ele>53.2</ele>
        <time>2021-06-24T18:10:29Z</time>
        <extensions>
          <gpxtpx:TrackPointExtension xmlns:gpxtpx="http://www.garmin.com/xmlschemas/TrackPointExtension/v1">
            <gpxtpx:hr>130</gpxtpx:hr>
          </gpxtpx:TrackPointExtension>
        </extensions>
      </trkpt>
      <trkpt lat="50.48294" lon="2.59162">
        <ele>53.2</ele>
        <time>2021-06-24T18:10:30Z</time>
        <extensions>
          <gpxtpx:TrackPointExtension xmlns:gpxtpx="http://www.garmin.com/xmlschemas/TrackPointExtension/v1">
            <gpxtpx:hr>130</gpxtpx:hr>
          </gpxtpx:TrackPointExtension>
        </extensions>
      </trkpt>
      <trkpt lat="50.48298" lon="2.59161">
        <ele>53.4</ele>
        <time>2021-06-24T18:10:31Z</time>
        <extensions>
          <gpxtpx:TrackPointExtension xmlns:gpxtpx="http://www.garmin.com/xmlschemas/TrackPointExtension/v1">
            <gpxtpx:hr>130</gpxtpx:hr>
          </gpxtpx:TrackPointExtension>
        </extensions>
      </trkpt>
      <trkpt lat="50.48308" lon="2.59158">
        <ele>53.4</ele>
        <time>2021-06-24T18:10:33Z</time>
        <extensions>
          <gpxtpx:TrackPointExtension xmlns:gpxtpx="http://www.garmin.com/xmlschemas/TrackPointExtension/v1">
            <gpxtpx:hr>131</gpxtpx:hr>
          </gpxtpx:TrackPointExtension>
        </extensions>
      </trkpt>
      <trkpt lat="50.48312" lon="2.59156">
        <ele>53.4</ele>
        <time>2021-06-24T18:10:34Z</time>
        <extensions>
          <gpxtpx:TrackPointExtension xmlns:gpxtpx="http://www.garmin.com/xmlschemas/TrackPointExtension/v1">
            <gpxtpx:hr>131</gpxtpx:hr>
          </gpxtpx:TrackPointExtension>
        </extensions>
      </trkpt>
      <trkpt lat="50.48317" lon="2.59155">
        <ele>53.4</ele>
        <time>2021-06-24T18:10:35Z</time>
        <extensions>
          <gpxtpx:TrackPointExtension xmlns:gpxtpx="http://www.garmin.com/xmlschemas/TrackPointExtension/v1">
            <gpxtpx:hr>131</gpxtpx:hr>
          </gpxtpx:TrackPointExtension>
        </extensions>
      </trkpt>
      <trkpt lat="50.48322" lon="2.59153">
        <ele>53.4</ele>
        <time>2021-06-24T18:10:36Z</time>
        <extensions>
          <gpxtpx:TrackPointExtension xmlns:gpxtpx="http://www.garmin.com/xmlschemas/TrackPointExtension/v1">
            <gpxtpx:hr>130</gpxtpx:hr>
          </gpxtpx:TrackPointExtension>
        </extensions>
      </trkpt>
      <trkpt lat="50.48327" lon="2.59151">
        <ele>53.4</ele>
        <time>2021-06-24T18:10:37Z</time>
        <extensions>
          <gpxtpx:TrackPointExtension xmlns:gpxtpx="http://www.garmin.com/xmlschemas/TrackPointExtension/v1">
            <gpxtpx:hr>130</gpxtpx:hr>
          </gpxtpx:TrackPointExtension>
        </extensions>
      </trkpt>
      <trkpt lat="50.48332" lon="2.5915">
        <ele>53.4</ele>
        <time>2021-06-24T18:10:38Z</time>
        <extensions>
          <gpxtpx:TrackPointExtension xmlns:gpxtpx="http://www.garmin.com/xmlschemas/TrackPointExtension/v1">
            <gpxtpx:hr>130</gpxtpx:hr>
          </gpxtpx:TrackPointExtension>
        </extensions>
      </trkpt>
      <trkpt lat="50.48336" lon="2.59148">
        <ele>53.6</ele>
        <time>2021-06-24T18:10:39Z</time>
        <extensions>
          <gpxtpx:TrackPointExtension xmlns:gpxtpx="http://www.garmin.com/xmlschemas/TrackPointExtension/v1">
            <gpxtpx:hr>129</gpxtpx:hr>
          </gpxtpx:TrackPointExtension>
        </extensions>
      </trkpt>
      <trkpt lat="50.48341" lon="2.59147">
        <ele>53.6</ele>
        <time>2021-06-24T18:10:40Z</time>
        <extensions>
          <gpxtpx:TrackPointExtension xmlns:gpxtpx="http://www.garmin.com/xmlschemas/TrackPointExtension/v1">
            <gpxtpx:hr>129</gpxtpx:hr>
          </gpxtpx:TrackPointExtension>
        </extensions>
      </trkpt>
      <trkpt lat="50.48346" lon="2.59145">
        <ele>53.6</ele>
        <time>2021-06-24T18:10:41Z</time>
        <extensions>
          <gpxtpx:TrackPointExtension xmlns:gpxtpx="http://www.garmin.com/xmlschemas/TrackPointExtension/v1">
            <gpxtpx:hr>130</gpxtpx:hr>
          </gpxtpx:TrackPointExtension>
        </extensions>
      </trkpt>
      <trkpt lat="50.48351" lon="2.59143">
        <ele>53.6</ele>
        <time>2021-06-24T18:10:42Z</time>
        <extensions>
          <gpxtpx:TrackPointExtension xmlns:gpxtpx="http://www.garmin.com/xmlschemas/TrackPointExtension/v1">
            <gpxtpx:hr>130</gpxtpx:hr>
          </gpxtpx:TrackPointExtension>
        </extensions>
      </trkpt>
      <trkpt lat="50.48357" lon="2.59141">
        <ele>53.6</ele>
        <time>2021-06-24T18:10:43Z</time>
        <extensions>
          <gpxtpx:TrackPointExtension xmlns:gpxtpx="http://www.garmin.com/xmlschemas/TrackPointExtension/v1">
            <gpxtpx:hr>131</gpxtpx:hr>
          </gpxtpx:TrackPointExtension>
        </extensions>
      </trkpt>
      <trkpt lat="50.48361" lon="2.59139">
        <ele>53.6</ele>
        <time>2021-06-24T18:10:44Z</time>
        <extensions>
          <gpxtpx:TrackPointExtension xmlns:gpxtpx="http://www.garmin.com/xmlschemas/TrackPointExtension/v1">
            <gpxtpx:hr>132</gpxtpx:hr>
          </gpxtpx:TrackPointExtension>
        </extensions>
      </trkpt>
      <trkpt lat="50.48364" lon="2.59138">
        <ele>53.6</ele>
        <time>2021-06-24T18:10:45Z</time>
        <extensions>
          <gpxtpx:TrackPointExtension xmlns:gpxtpx="http://www.garmin.com/xmlschemas/TrackPointExtension/v1">
            <gpxtpx:hr>132</gpxtpx:hr>
          </gpxtpx:TrackPointExtension>
        </extensions>
      </trkpt>
      <trkpt lat="50.4837" lon="2.59135">
        <ele>53.8</ele>
        <time>2021-06-24T18:10:46Z</time>
        <extensions>
          <gpxtpx:TrackPointExtension xmlns:gpxtpx="http://www.garmin.com/xmlschemas/TrackPointExtension/v1">
            <gpxtpx:hr>133</gpxtpx:hr>
          </gpxtpx:TrackPointExtension>
        </extensions>
      </trkpt>
      <trkpt lat="50.48374" lon="2.59134">
        <ele>53.8</ele>
        <time>2021-06-24T18:10:47Z</time>
        <extensions>
          <gpxtpx:TrackPointExtension xmlns:gpxtpx="http://www.garmin.com/xmlschemas/TrackPointExtension/v1">
            <gpxtpx:hr>133</gpxtpx:hr>
          </gpxtpx:TrackPointExtension>
        </extensions>
      </trkpt>
      <trkpt lat="50.4838" lon="2.59132">
        <ele>53.8</ele>
        <time>2021-06-24T18:10:48Z</time>
        <extensions>
          <gpxtpx:TrackPointExtension xmlns:gpxtpx="http://www.garmin.com/xmlschemas/TrackPointExtension/v1">
            <gpxtpx:hr>133</gpxtpx:hr>
          </gpxtpx:TrackPointExtension>
        </extensions>
      </trkpt>
      <trkpt lat="50.48384" lon="2.59131">
        <ele>53.8</ele>
        <time>2021-06-24T18:10:49Z</time>
        <extensions>
          <gpxtpx:TrackPointExtension xmlns:gpxtpx="http://www.garmin.com/xmlschemas/TrackPointExtension/v1">
            <gpxtpx:hr>133</gpxtpx:hr>
          </gpxtpx:TrackPointExtension>
        </extensions>
      </trkpt>
      <trkpt lat="50.48389" lon="2.59129">
        <ele>53.8</ele>
        <time>2021-06-24T18:10:50Z</time>
        <extensions>
          <gpxtpx:TrackPointExtension xmlns:gpxtpx="http://www.garmin.com/xmlschemas/TrackPointExtension/v1">
            <gpxtpx:hr>134</gpxtpx:hr>
          </gpxtpx:TrackPointExtension>
        </extensions>
      </trkpt>
      <trkpt lat="50.48395" lon="2.59128">
        <ele>53.8</ele>
        <time>2021-06-24T18:10:51Z</time>
        <extensions>
          <gpxtpx:TrackPointExtension xmlns:gpxtpx="http://www.garmin.com/xmlschemas/TrackPointExtension/v1">
            <gpxtpx:hr>134</gpxtpx:hr>
          </gpxtpx:TrackPointExtension>
        </extensions>
      </trkpt>
      <trkpt lat="50.48401" lon="2.59127">
        <ele>53.6</ele>
        <time>2021-06-24T18:10:52Z</time>
        <extensions>
          <gpxtpx:TrackPointExtension xmlns:gpxtpx="http://www.garmin.com/xmlschemas/TrackPointExtension/v1">
            <gpxtpx:hr>134</gpxtpx:hr>
          </gpxtpx:TrackPointExtension>
        </extensions>
      </trkpt>
      <trkpt lat="50.48407" lon="2.59125">
        <ele>53.6</ele>
        <time>2021-06-24T18:10:53Z</time>
        <extensions>
          <gpxtpx:TrackPointExtension xmlns:gpxtpx="http://www.garmin.com/xmlschemas/TrackPointExtension/v1">
            <gpxtpx:hr>134</gpxtpx:hr>
          </gpxtpx:TrackPointExtension>
        </extensions>
      </trkpt>
      <trkpt lat="50.48411" lon="2.59124">
        <ele>53.6</ele>
        <time>2021-06-24T18:10:54Z</time>
        <extensions>
          <gpxtpx:TrackPointExtension xmlns:gpxtpx="http://www.garmin.com/xmlschemas/TrackPointExtension/v1">
            <gpxtpx:hr>134</gpxtpx:hr>
          </gpxtpx:TrackPointExtension>
        </extensions>
      </trkpt>
      <trkpt lat="50.48417" lon="2.59123">
        <ele>53.6</ele>
        <time>2021-06-24T18:10:55Z</time>
        <extensions>
          <gpxtpx:TrackPointExtension xmlns:gpxtpx="http://www.garmin.com/xmlschemas/TrackPointExtension/v1">
            <gpxtpx:hr>134</gpxtpx:hr>
          </gpxtpx:TrackPointExtension>
        </extensions>
      </trkpt>
      <trkpt lat="50.48423" lon="2.59121">
        <ele>53.6</ele>
        <time>2021-06-24T18:10:56Z</time>
        <extensions>
          <gpxtpx:TrackPointExtension xmlns:gpxtpx="http://www.garmin.com/xmlschemas/TrackPointExtension/v1">
            <gpxtpx:hr>134</gpxtpx:hr>
          </gpxtpx:TrackPointExtension>
        </extensions>
      </trkpt>
      <trkpt lat="50.48427" lon="2.59121">
        <ele>53.6</ele>
        <time>2021-06-24T18:10:57Z</time>
        <extensions>
          <gpxtpx:TrackPointExtension xmlns:gpxtpx="http://www.garmin.com/xmlschemas/TrackPointExtension/v1">
            <gpxtpx:hr>134</gpxtpx:hr>
          </gpxtpx:TrackPointExtension>
        </extensions>
      </trkpt>
      <trkpt lat="50.48433" lon="2.59119">
        <ele>53.6</ele>
        <time>2021-06-24T18:10:58Z</time>
        <extensions>
          <gpxtpx:TrackPointExtension xmlns:gpxtpx="http://www.garmin.com/xmlschemas/TrackPointExtension/v1">
            <gpxtpx:hr>135</gpxtpx:hr>
          </gpxtpx:TrackPointExtension>
        </extensions>
      </trkpt>
      <trkpt lat="50.48439" lon="2.59118">
        <ele>53.6</ele>
        <time>2021-06-24T18:10:59Z</time>
        <extensions>
          <gpxtpx:TrackPointExtension xmlns:gpxtpx="http://www.garmin.com/xmlschemas/TrackPointExtension/v1">
            <gpxtpx:hr>135</gpxtpx:hr>
          </gpxtpx:TrackPointExtension>
        </extensions>
      </trkpt>
      <trkpt lat="50.48443" lon="2.59117">
        <ele>53.6</ele>
        <time>2021-06-24T18:11:00Z</time>
        <extensions>
          <gpxtpx:TrackPointExtension xmlns:gpxtpx="http://www.garmin.com/xmlschemas/TrackPointExtension/v1">
            <gpxtpx:hr>135</gpxtpx:hr>
          </gpxtpx:TrackPointExtension>
        </extensions>
      </trkpt>
      <trkpt lat="50.48449" lon="2.59116">
        <ele>53.6</ele>
        <time>2021-06-24T18:11:01Z</time>
        <extensions>
          <gpxtpx:TrackPointExtension xmlns:gpxtpx="http://www.garmin.com/xmlschemas/TrackPointExtension/v1">
            <gpxtpx:hr>134</gpxtpx:hr>
          </gpxtpx:TrackPointExtension>
        </extensions>
      </trkpt>
      <trkpt lat="50.48455" lon="2.59115">
        <ele>53.6</ele>
        <time>2021-06-24T18:11:02Z</time>
        <extensions>
          <gpxtpx:TrackPointExtension xmlns:gpxtpx="http://www.garmin.com/xmlschemas/TrackPointExtension/v1">
            <gpxtpx:hr>134</gpxtpx:hr>
          </gpxtpx:TrackPointExtension>
        </extensions>
      </trkpt>
      <trkpt lat="50.48461" lon="2.59113">
        <ele>53.6</ele>
        <time>2021-06-24T18:11:03Z</time>
        <extensions>
          <gpxtpx:TrackPointExtension xmlns:gpxtpx="http://www.garmin.com/xmlschemas/TrackPointExtension/v1">
            <gpxtpx:hr>134</gpxtpx:hr>
          </gpxtpx:TrackPointExtension>
        </extensions>
      </trkpt>
      <trkpt lat="50.48466" lon="2.59112">
        <ele>53.6</ele>
        <time>2021-06-24T18:11:04Z</time>
        <extensions>
          <gpxtpx:TrackPointExtension xmlns:gpxtpx="http://www.garmin.com/xmlschemas/TrackPointExtension/v1">
            <gpxtpx:hr>135</gpxtpx:hr>
          </gpxtpx:TrackPointExtension>
        </extensions>
      </trkpt>
      <trkpt lat="50.48472" lon="2.59111">
        <ele>53.6</ele>
        <time>2021-06-24T18:11:05Z</time>
        <extensions>
          <gpxtpx:TrackPointExtension xmlns:gpxtpx="http://www.garmin.com/xmlschemas/TrackPointExtension/v1">
            <gpxtpx:hr>135</gpxtpx:hr>
          </gpxtpx:TrackPointExtension>
        </extensions>
      </trkpt>
      <trkpt lat="50.48477" lon="2.59109">
        <ele>53.6</ele>
        <time>2021-06-24T18:11:06Z</time>
        <extensions>
          <gpxtpx:TrackPointExtension xmlns:gpxtpx="http://www.garmin.com/xmlschemas/TrackPointExtension/v1">
            <gpxtpx:hr>135</gpxtpx:hr>
          </gpxtpx:TrackPointExtension>
        </extensions>
      </trkpt>
      <trkpt lat="50.48484" lon="2.59107">
        <ele>53.6</ele>
        <time>2021-06-24T18:11:07Z</time>
        <extensions>
          <gpxtpx:TrackPointExtension xmlns:gpxtpx="http://www.garmin.com/xmlschemas/TrackPointExtension/v1">
            <gpxtpx:hr>135</gpxtpx:hr>
          </gpxtpx:TrackPointExtension>
        </extensions>
      </trkpt>
      <trkpt lat="50.4849" lon="2.59105">
        <ele>53.4</ele>
        <time>2021-06-24T18:11:08Z</time>
        <extensions>
          <gpxtpx:TrackPointExtension xmlns:gpxtpx="http://www.garmin.com/xmlschemas/TrackPointExtension/v1">
            <gpxtpx:hr>136</gpxtpx:hr>
          </gpxtpx:TrackPointExtension>
        </extensions>
      </trkpt>
      <trkpt lat="50.48495" lon="2.59104">
        <ele>53.4</ele>
        <time>2021-06-24T18:11:09Z</time>
        <extensions>
          <gpxtpx:TrackPointExtension xmlns:gpxtpx="http://www.garmin.com/xmlschemas/TrackPointExtension/v1">
            <gpxtpx:hr>136</gpxtpx:hr>
          </gpxtpx:TrackPointExtension>
        </extensions>
      </trkpt>
      <trkpt lat="50.485" lon="2.59102">
        <ele>53.4</ele>
        <time>2021-06-24T18:11:10Z</time>
        <extensions>
          <gpxtpx:TrackPointExtension xmlns:gpxtpx="http://www.garmin.com/xmlschemas/TrackPointExtension/v1">
            <gpxtpx:hr>136</gpxtpx:hr>
          </gpxtpx:TrackPointExtension>
        </extensions>
      </trkpt>
      <trkpt lat="50.48506" lon="2.59101">
        <ele>53.2</ele>
        <time>2021-06-24T18:11:11Z</time>
        <extensions>
          <gpxtpx:TrackPointExtension xmlns:gpxtpx="http://www.garmin.com/xmlschemas/TrackPointExtension/v1">
            <gpxtpx:hr>136</gpxtpx:hr>
          </gpxtpx:TrackPointExtension>
        </extensions>
      </trkpt>
      <trkpt lat="50.48513" lon="2.59099">
        <ele>53.2</ele>
        <time>2021-06-24T18:11:12Z</time>
        <extensions>
          <gpxtpx:TrackPointExtension xmlns:gpxtpx="http://www.garmin.com/xmlschemas/TrackPointExtension/v1">
            <gpxtpx:hr>136</gpxtpx:hr>
          </gpxtpx:TrackPointExtension>
        </extensions>
      </trkpt>
      <trkpt lat="50.48518" lon="2.59098">
        <ele>53</ele>
        <time>2021-06-24T18:11:13Z</time>
        <extensions>
          <gpxtpx:TrackPointExtension xmlns:gpxtpx="http://www.garmin.com/xmlschemas/TrackPointExtension/v1">
            <gpxtpx:hr>135</gpxtpx:hr>
          </gpxtpx:TrackPointExtension>
        </extensions>
      </trkpt>
      <trkpt lat="50.48524" lon="2.59097">
        <ele>53</ele>
        <time>2021-06-24T18:11:14Z</time>
        <extensions>
          <gpxtpx:TrackPointExtension xmlns:gpxtpx="http://www.garmin.com/xmlschemas/TrackPointExtension/v1">
            <gpxtpx:hr>135</gpxtpx:hr>
          </gpxtpx:TrackPointExtension>
        </extensions>
      </trkpt>
      <trkpt lat="50.4853" lon="2.59097">
        <ele>52.8</ele>
        <time>2021-06-24T18:11:15Z</time>
        <extensions>
          <gpxtpx:TrackPointExtension xmlns:gpxtpx="http://www.garmin.com/xmlschemas/TrackPointExtension/v1">
            <gpxtpx:hr>135</gpxtpx:hr>
          </gpxtpx:TrackPointExtension>
        </extensions>
      </trkpt>
      <trkpt lat="50.48537" lon="2.59095">
        <ele>52.6</ele>
        <time>2021-06-24T18:11:16Z</time>
        <extensions>
          <gpxtpx:TrackPointExtension xmlns:gpxtpx="http://www.garmin.com/xmlschemas/TrackPointExtension/v1">
            <gpxtpx:hr>135</gpxtpx:hr>
          </gpxtpx:TrackPointExtension>
        </extensions>
      </trkpt>
      <trkpt lat="50.48542" lon="2.59094">
        <ele>52.4</ele>
        <time>2021-06-24T18:11:17Z</time>
        <extensions>
          <gpxtpx:TrackPointExtension xmlns:gpxtpx="http://www.garmin.com/xmlschemas/TrackPointExtension/v1">
            <gpxtpx:hr>135</gpxtpx:hr>
          </gpxtpx:TrackPointExtension>
        </extensions>
      </trkpt>
      <trkpt lat="50.48548" lon="2.59093">
        <ele>52.4</ele>
        <time>2021-06-24T18:11:18Z</time>
        <extensions>
          <gpxtpx:TrackPointExtension xmlns:gpxtpx="http://www.garmin.com/xmlschemas/TrackPointExtension/v1">
            <gpxtpx:hr>135</gpxtpx:hr>
          </gpxtpx:TrackPointExtension>
        </extensions>
      </trkpt>
      <trkpt lat="50.48554" lon="2.59091">
        <ele>52.2</ele>
        <time>2021-06-24T18:11:19Z</time>
        <extensions>
          <gpxtpx:TrackPointExtension xmlns:gpxtpx="http://www.garmin.com/xmlschemas/TrackPointExtension/v1">
            <gpxtpx:hr>135</gpxtpx:hr>
          </gpxtpx:TrackPointExtension>
        </extensions>
      </trkpt>
      <trkpt lat="50.4856" lon="2.5909">
        <ele>52.2</ele>
        <time>2021-06-24T18:11:20Z</time>
        <extensions>
          <gpxtpx:TrackPointExtension xmlns:gpxtpx="http://www.garmin.com/xmlschemas/TrackPointExtension/v1">
            <gpxtpx:hr>136</gpxtpx:hr>
          </gpxtpx:TrackPointExtension>
        </extensions>
      </trkpt>
      <trkpt lat="50.48566" lon="2.59088">
        <ele>52</ele>
        <time>2021-06-24T18:11:21Z</time>
        <extensions>
          <gpxtpx:TrackPointExtension xmlns:gpxtpx="http://www.garmin.com/xmlschemas/TrackPointExtension/v1">
            <gpxtpx:hr>136</gpxtpx:hr>
          </gpxtpx:TrackPointExtension>
        </extensions>
      </trkpt>
      <trkpt lat="50.48571" lon="2.59087">
        <ele>52</ele>
        <time>2021-06-24T18:11:22Z</time>
        <extensions>
          <gpxtpx:TrackPointExtension xmlns:gpxtpx="http://www.garmin.com/xmlschemas/TrackPointExtension/v1">
            <gpxtpx:hr>136</gpxtpx:hr>
          </gpxtpx:TrackPointExtension>
        </extensions>
      </trkpt>
      <trkpt lat="50.48576" lon="2.59085">
        <ele>52</ele>
        <time>2021-06-24T18:11:23Z</time>
        <extensions>
          <gpxtpx:TrackPointExtension xmlns:gpxtpx="http://www.garmin.com/xmlschemas/TrackPointExtension/v1">
            <gpxtpx:hr>136</gpxtpx:hr>
          </gpxtpx:TrackPointExtension>
        </extensions>
      </trkpt>
      <trkpt lat="50.48582" lon="2.59084">
        <ele>51.8</ele>
        <time>2021-06-24T18:11:24Z</time>
        <extensions>
          <gpxtpx:TrackPointExtension xmlns:gpxtpx="http://www.garmin.com/xmlschemas/TrackPointExtension/v1">
            <gpxtpx:hr>136</gpxtpx:hr>
          </gpxtpx:TrackPointExtension>
        </extensions>
      </trkpt>
      <trkpt lat="50.48589" lon="2.59082">
        <ele>51.8</ele>
        <time>2021-06-24T18:11:25Z</time>
        <extensions>
          <gpxtpx:TrackPointExtension xmlns:gpxtpx="http://www.garmin.com/xmlschemas/TrackPointExtension/v1">
            <gpxtpx:hr>136</gpxtpx:hr>
          </gpxtpx:TrackPointExtension>
        </extensions>
      </trkpt>
      <trkpt lat="50.48594" lon="2.59081">
        <ele>51.6</ele>
        <time>2021-06-24T18:11:26Z</time>
        <extensions>
          <gpxtpx:TrackPointExtension xmlns:gpxtpx="http://www.garmin.com/xmlschemas/TrackPointExtension/v1">
            <gpxtpx:hr>135</gpxtpx:hr>
          </gpxtpx:TrackPointExtension>
        </extensions>
      </trkpt>
      <trkpt lat="50.486" lon="2.5908">
        <ele>51.6</ele>
        <time>2021-06-24T18:11:27Z</time>
        <extensions>
          <gpxtpx:TrackPointExtension xmlns:gpxtpx="http://www.garmin.com/xmlschemas/TrackPointExtension/v1">
            <gpxtpx:hr>135</gpxtpx:hr>
          </gpxtpx:TrackPointExtension>
        </extensions>
      </trkpt>
      <trkpt lat="50.48605" lon="2.59078">
        <ele>51.4</ele>
        <time>2021-06-24T18:11:28Z</time>
        <extensions>
          <gpxtpx:TrackPointExtension xmlns:gpxtpx="http://www.garmin.com/xmlschemas/TrackPointExtension/v1">
            <gpxtpx:hr>135</gpxtpx:hr>
          </gpxtpx:TrackPointExtension>
        </extensions>
      </trkpt>
      <trkpt lat="50.48612" lon="2.59076">
        <ele>51.4</ele>
        <time>2021-06-24T18:11:29Z</time>
        <extensions>
          <gpxtpx:TrackPointExtension xmlns:gpxtpx="http://www.garmin.com/xmlschemas/TrackPointExtension/v1">
            <gpxtpx:hr>135</gpxtpx:hr>
          </gpxtpx:TrackPointExtension>
        </extensions>
      </trkpt>
      <trkpt lat="50.48617" lon="2.59075">
        <ele>51.2</ele>
        <time>2021-06-24T18:11:30Z</time>
        <extensions>
          <gpxtpx:TrackPointExtension xmlns:gpxtpx="http://www.garmin.com/xmlschemas/TrackPointExtension/v1">
            <gpxtpx:hr>135</gpxtpx:hr>
          </gpxtpx:TrackPointExtension>
        </extensions>
      </trkpt>
      <trkpt lat="50.48622" lon="2.59073">
        <ele>51.2</ele>
        <time>2021-06-24T18:11:31Z</time>
        <extensions>
          <gpxtpx:TrackPointExtension xmlns:gpxtpx="http://www.garmin.com/xmlschemas/TrackPointExtension/v1">
            <gpxtpx:hr>135</gpxtpx:hr>
          </gpxtpx:TrackPointExtension>
        </extensions>
      </trkpt>
      <trkpt lat="50.48628" lon="2.59072">
        <ele>51</ele>
        <time>2021-06-24T18:11:32Z</time>
        <extensions>
          <gpxtpx:TrackPointExtension xmlns:gpxtpx="http://www.garmin.com/xmlschemas/TrackPointExtension/v1">
            <gpxtpx:hr>135</gpxtpx:hr>
          </gpxtpx:TrackPointExtension>
        </extensions>
      </trkpt>
      <trkpt lat="50.48634" lon="2.5907">
        <ele>51</ele>
        <time>2021-06-24T18:11:33Z</time>
        <extensions>
          <gpxtpx:TrackPointExtension xmlns:gpxtpx="http://www.garmin.com/xmlschemas/TrackPointExtension/v1">
            <gpxtpx:hr>135</gpxtpx:hr>
          </gpxtpx:TrackPointExtension>
        </extensions>
      </trkpt>
      <trkpt lat="50.48641" lon="2.59068">
        <ele>50.8</ele>
        <time>2021-06-24T18:11:34Z</time>
        <extensions>
          <gpxtpx:TrackPointExtension xmlns:gpxtpx="http://www.garmin.com/xmlschemas/TrackPointExtension/v1">
            <gpxtpx:hr>135</gpxtpx:hr>
          </gpxtpx:TrackPointExtension>
        </extensions>
      </trkpt>
      <trkpt lat="50.48645" lon="2.59067">
        <ele>50.8</ele>
        <time>2021-06-24T18:11:35Z</time>
        <extensions>
          <gpxtpx:TrackPointExtension xmlns:gpxtpx="http://www.garmin.com/xmlschemas/TrackPointExtension/v1">
            <gpxtpx:hr>136</gpxtpx:hr>
          </gpxtpx:TrackPointExtension>
        </extensions>
      </trkpt>
      <trkpt lat="50.48652" lon="2.59065">
        <ele>50.6</ele>
        <time>2021-06-24T18:11:36Z</time>
        <extensions>
          <gpxtpx:TrackPointExtension xmlns:gpxtpx="http://www.garmin.com/xmlschemas/TrackPointExtension/v1">
            <gpxtpx:hr>135</gpxtpx:hr>
          </gpxtpx:TrackPointExtension>
        </extensions>
      </trkpt>
      <trkpt lat="50.48657" lon="2.59063">
        <ele>50.6</ele>
        <time>2021-06-24T18:11:37Z</time>
        <extensions>
          <gpxtpx:TrackPointExtension xmlns:gpxtpx="http://www.garmin.com/xmlschemas/TrackPointExtension/v1">
            <gpxtpx:hr>135</gpxtpx:hr>
          </gpxtpx:TrackPointExtension>
        </extensions>
      </trkpt>
      <trkpt lat="50.48663" lon="2.59062">
        <ele>50.4</ele>
        <time>2021-06-24T18:11:38Z</time>
        <extensions>
          <gpxtpx:TrackPointExtension xmlns:gpxtpx="http://www.garmin.com/xmlschemas/TrackPointExtension/v1">
            <gpxtpx:hr>135</gpxtpx:hr>
          </gpxtpx:TrackPointExtension>
        </extensions>
      </trkpt>
      <trkpt lat="50.4867" lon="2.59059">
        <ele>50.4</ele>
        <time>2021-06-24T18:11:39Z</time>
        <extensions>
          <gpxtpx:TrackPointExtension xmlns:gpxtpx="http://www.garmin.com/xmlschemas/TrackPointExtension/v1">
            <gpxtpx:hr>135</gpxtpx:hr>
          </gpxtpx:TrackPointExtension>
        </extensions>
      </trkpt>
      <trkpt lat="50.48676" lon="2.59058">
        <ele>50.4</ele>
        <time>2021-06-24T18:11:40Z</time>
        <extensions>
          <gpxtpx:TrackPointExtension xmlns:gpxtpx="http://www.garmin.com/xmlschemas/TrackPointExtension/v1">
            <gpxtpx:hr>135</gpxtpx:hr>
          </gpxtpx:TrackPointExtension>
        </extensions>
      </trkpt>
      <trkpt lat="50.48681" lon="2.59056">
        <ele>50.4</ele>
        <time>2021-06-24T18:11:41Z</time>
        <extensions>
          <gpxtpx:TrackPointExtension xmlns:gpxtpx="http://www.garmin.com/xmlschemas/TrackPointExtension/v1">
            <gpxtpx:hr>135</gpxtpx:hr>
          </gpxtpx:TrackPointExtension>
        </extensions>
      </trkpt>
      <trkpt lat="50.48687" lon="2.59055">
        <ele>50.4</ele>
        <time>2021-06-24T18:11:42Z</time>
        <extensions>
          <gpxtpx:TrackPointExtension xmlns:gpxtpx="http://www.garmin.com/xmlschemas/TrackPointExtension/v1">
            <gpxtpx:hr>135</gpxtpx:hr>
          </gpxtpx:TrackPointExtension>
        </extensions>
      </trkpt>
      <trkpt lat="50.48695" lon="2.59052">
        <ele>50.4</ele>
        <time>2021-06-24T18:11:43Z</time>
        <extensions>
          <gpxtpx:TrackPointExtension xmlns:gpxtpx="http://www.garmin.com/xmlschemas/TrackPointExtension/v1">
            <gpxtpx:hr>135</gpxtpx:hr>
          </gpxtpx:TrackPointExtension>
        </extensions>
      </trkpt>
      <trkpt lat="50.48701" lon="2.59051">
        <ele>50.4</ele>
        <time>2021-06-24T18:11:44Z</time>
        <extensions>
          <gpxtpx:TrackPointExtension xmlns:gpxtpx="http://www.garmin.com/xmlschemas/TrackPointExtension/v1">
            <gpxtpx:hr>136</gpxtpx:hr>
          </gpxtpx:TrackPointExtension>
        </extensions>
      </trkpt>
      <trkpt lat="50.48707" lon="2.59049">
        <ele>50.4</ele>
        <time>2021-06-24T18:11:45Z</time>
        <extensions>
          <gpxtpx:TrackPointExtension xmlns:gpxtpx="http://www.garmin.com/xmlschemas/TrackPointExtension/v1">
            <gpxtpx:hr>136</gpxtpx:hr>
          </gpxtpx:TrackPointExtension>
        </extensions>
      </trkpt>
      <trkpt lat="50.48712" lon="2.59048">
        <ele>50.4</ele>
        <time>2021-06-24T18:11:46Z</time>
        <extensions>
          <gpxtpx:TrackPointExtension xmlns:gpxtpx="http://www.garmin.com/xmlschemas/TrackPointExtension/v1">
            <gpxtpx:hr>136</gpxtpx:hr>
          </gpxtpx:TrackPointExtension>
        </extensions>
      </trkpt>
      <trkpt lat="50.48719" lon="2.59046">
        <ele>50.4</ele>
        <time>2021-06-24T18:11:47Z</time>
        <extensions>
          <gpxtpx:TrackPointExtension xmlns:gpxtpx="http://www.garmin.com/xmlschemas/TrackPointExtension/v1">
            <gpxtpx:hr>136</gpxtpx:hr>
          </gpxtpx:TrackPointExtension>
        </extensions>
      </trkpt>
      <trkpt lat="50.48725" lon="2.59045">
        <ele>50.4</ele>
        <time>2021-06-24T18:11:48Z</time>
        <extensions>
          <gpxtpx:TrackPointExtension xmlns:gpxtpx="http://www.garmin.com/xmlschemas/TrackPointExtension/v1">
            <gpxtpx:hr>136</gpxtpx:hr>
          </gpxtpx:TrackPointExtension>
        </extensions>
      </trkpt>
      <trkpt lat="50.48731" lon="2.59043">
        <ele>50.4</ele>
        <time>2021-06-24T18:11:49Z</time>
        <extensions>
          <gpxtpx:TrackPointExtension xmlns:gpxtpx="http://www.garmin.com/xmlschemas/TrackPointExtension/v1">
            <gpxtpx:hr>137</gpxtpx:hr>
          </gpxtpx:TrackPointExtension>
        </extensions>
      </trkpt>
      <trkpt lat="50.48737" lon="2.59042">
        <ele>50.4</ele>
        <time>2021-06-24T18:11:50Z</time>
        <extensions>
          <gpxtpx:TrackPointExtension xmlns:gpxtpx="http://www.garmin.com/xmlschemas/TrackPointExtension/v1">
            <gpxtpx:hr>137</gpxtpx:hr>
          </gpxtpx:TrackPointExtension>
        </extensions>
      </trkpt>
      <trkpt lat="50.48742" lon="2.5904">
        <ele>50.4</ele>
        <time>2021-06-24T18:11:51Z</time>
        <extensions>
          <gpxtpx:TrackPointExtension xmlns:gpxtpx="http://www.garmin.com/xmlschemas/TrackPointExtension/v1">
            <gpxtpx:hr>137</gpxtpx:hr>
          </gpxtpx:TrackPointExtension>
        </extensions>
      </trkpt>
      <trkpt lat="50.48749" lon="2.59039">
        <ele>50.4</ele>
        <time>2021-06-24T18:11:52Z</time>
        <extensions>
          <gpxtpx:TrackPointExtension xmlns:gpxtpx="http://www.garmin.com/xmlschemas/TrackPointExtension/v1">
            <gpxtpx:hr>137</gpxtpx:hr>
          </gpxtpx:TrackPointExtension>
        </extensions>
      </trkpt>
      <trkpt lat="50.48754" lon="2.59038">
        <ele>50.6</ele>
        <time>2021-06-24T18:11:53Z</time>
        <extensions>
          <gpxtpx:TrackPointExtension xmlns:gpxtpx="http://www.garmin.com/xmlschemas/TrackPointExtension/v1">
            <gpxtpx:hr>137</gpxtpx:hr>
          </gpxtpx:TrackPointExtension>
        </extensions>
      </trkpt>
      <trkpt lat="50.48761" lon="2.59035">
        <ele>50.6</ele>
        <time>2021-06-24T18:11:54Z</time>
        <extensions>
          <gpxtpx:TrackPointExtension xmlns:gpxtpx="http://www.garmin.com/xmlschemas/TrackPointExtension/v1">
            <gpxtpx:hr>138</gpxtpx:hr>
          </gpxtpx:TrackPointExtension>
        </extensions>
      </trkpt>
      <trkpt lat="50.48765" lon="2.59034">
        <ele>50.6</ele>
        <time>2021-06-24T18:11:55Z</time>
        <extensions>
          <gpxtpx:TrackPointExtension xmlns:gpxtpx="http://www.garmin.com/xmlschemas/TrackPointExtension/v1">
            <gpxtpx:hr>138</gpxtpx:hr>
          </gpxtpx:TrackPointExtension>
        </extensions>
      </trkpt>
      <trkpt lat="50.48772" lon="2.59031">
        <ele>50.6</ele>
        <time>2021-06-24T18:11:56Z</time>
        <extensions>
          <gpxtpx:TrackPointExtension xmlns:gpxtpx="http://www.garmin.com/xmlschemas/TrackPointExtension/v1">
            <gpxtpx:hr>138</gpxtpx:hr>
          </gpxtpx:TrackPointExtension>
        </extensions>
      </trkpt>
      <trkpt lat="50.48779" lon="2.59029">
        <ele>50.6</ele>
        <time>2021-06-24T18:11:57Z</time>
        <extensions>
          <gpxtpx:TrackPointExtension xmlns:gpxtpx="http://www.garmin.com/xmlschemas/TrackPointExtension/v1">
            <gpxtpx:hr>138</gpxtpx:hr>
          </gpxtpx:TrackPointExtension>
        </extensions>
      </trkpt>
      <trkpt lat="50.48785" lon="2.59027">
        <ele>50.6</ele>
        <time>2021-06-24T18:11:58Z</time>
        <extensions>
          <gpxtpx:TrackPointExtension xmlns:gpxtpx="http://www.garmin.com/xmlschemas/TrackPointExtension/v1">
            <gpxtpx:hr>138</gpxtpx:hr>
          </gpxtpx:TrackPointExtension>
        </extensions>
      </trkpt>
      <trkpt lat="50.48795" lon="2.59023">
        <ele>50.6</ele>
        <time>2021-06-24T18:12:00Z</time>
        <extensions>
          <gpxtpx:TrackPointExtension xmlns:gpxtpx="http://www.garmin.com/xmlschemas/TrackPointExtension/v1">
            <gpxtpx:hr>138</gpxtpx:hr>
          </gpxtpx:TrackPointExtension>
        </extensions>
      </trkpt>
      <trkpt lat="50.48801" lon="2.59021">
        <ele>50.6</ele>
        <time>2021-06-24T18:12:01Z</time>
        <extensions>
          <gpxtpx:TrackPointExtension xmlns:gpxtpx="http://www.garmin.com/xmlschemas/TrackPointExtension/v1">
            <gpxtpx:hr>138</gpxtpx:hr>
          </gpxtpx:TrackPointExtension>
        </extensions>
      </trkpt>
      <trkpt lat="50.48807" lon="2.59019">
        <ele>50.6</ele>
        <time>2021-06-24T18:12:02Z</time>
        <extensions>
          <gpxtpx:TrackPointExtension xmlns:gpxtpx="http://www.garmin.com/xmlschemas/TrackPointExtension/v1">
            <gpxtpx:hr>138</gpxtpx:hr>
          </gpxtpx:TrackPointExtension>
        </extensions>
      </trkpt>
      <trkpt lat="50.48813" lon="2.59017">
        <ele>50.6</ele>
        <time>2021-06-24T18:12:03Z</time>
        <extensions>
          <gpxtpx:TrackPointExtension xmlns:gpxtpx="http://www.garmin.com/xmlschemas/TrackPointExtension/v1">
            <gpxtpx:hr>138</gpxtpx:hr>
          </gpxtpx:TrackPointExtension>
        </extensions>
      </trkpt>
      <trkpt lat="50.48818" lon="2.59016">
        <ele>50.6</ele>
        <time>2021-06-24T18:12:04Z</time>
        <extensions>
          <gpxtpx:TrackPointExtension xmlns:gpxtpx="http://www.garmin.com/xmlschemas/TrackPointExtension/v1">
            <gpxtpx:hr>138</gpxtpx:hr>
          </gpxtpx:TrackPointExtension>
        </extensions>
      </trkpt>
      <trkpt lat="50.48825" lon="2.59014">
        <ele>50.6</ele>
        <time>2021-06-24T18:12:05Z</time>
        <extensions>
          <gpxtpx:TrackPointExtension xmlns:gpxtpx="http://www.garmin.com/xmlschemas/TrackPointExtension/v1">
            <gpxtpx:hr>138</gpxtpx:hr>
          </gpxtpx:TrackPointExtension>
        </extensions>
      </trkpt>
      <trkpt lat="50.48831" lon="2.59012">
        <ele>50.6</ele>
        <time>2021-06-24T18:12:06Z</time>
        <extensions>
          <gpxtpx:TrackPointExtension xmlns:gpxtpx="http://www.garmin.com/xmlschemas/TrackPointExtension/v1">
            <gpxtpx:hr>138</gpxtpx:hr>
          </gpxtpx:TrackPointExtension>
        </extensions>
      </trkpt>
      <trkpt lat="50.48836" lon="2.59011">
        <ele>50.6</ele>
        <time>2021-06-24T18:12:07Z</time>
        <extensions>
          <gpxtpx:TrackPointExtension xmlns:gpxtpx="http://www.garmin.com/xmlschemas/TrackPointExtension/v1">
            <gpxtpx:hr>137</gpxtpx:hr>
          </gpxtpx:TrackPointExtension>
        </extensions>
      </trkpt>
      <trkpt lat="50.48844" lon="2.59009">
        <ele>50.6</ele>
        <time>2021-06-24T18:12:08Z</time>
        <extensions>
          <gpxtpx:TrackPointExtension xmlns:gpxtpx="http://www.garmin.com/xmlschemas/TrackPointExtension/v1">
            <gpxtpx:hr>137</gpxtpx:hr>
          </gpxtpx:TrackPointExtension>
        </extensions>
      </trkpt>
      <trkpt lat="50.48848" lon="2.59007">
        <ele>50.6</ele>
        <time>2021-06-24T18:12:09Z</time>
        <extensions>
          <gpxtpx:TrackPointExtension xmlns:gpxtpx="http://www.garmin.com/xmlschemas/TrackPointExtension/v1">
            <gpxtpx:hr>137</gpxtpx:hr>
          </gpxtpx:TrackPointExtension>
        </extensions>
      </trkpt>
      <trkpt lat="50.48856" lon="2.59004">
        <ele>50.4</ele>
        <time>2021-06-24T18:12:10Z</time>
        <extensions>
          <gpxtpx:TrackPointExtension xmlns:gpxtpx="http://www.garmin.com/xmlschemas/TrackPointExtension/v1">
            <gpxtpx:hr>137</gpxtpx:hr>
          </gpxtpx:TrackPointExtension>
        </extensions>
      </trkpt>
      <trkpt lat="50.48862" lon="2.59003">
        <ele>50.4</ele>
        <time>2021-06-24T18:12:11Z</time>
        <extensions>
          <gpxtpx:TrackPointExtension xmlns:gpxtpx="http://www.garmin.com/xmlschemas/TrackPointExtension/v1">
            <gpxtpx:hr>138</gpxtpx:hr>
          </gpxtpx:TrackPointExtension>
        </extensions>
      </trkpt>
      <trkpt lat="50.48868" lon="2.59002">
        <ele>50.4</ele>
        <time>2021-06-24T18:12:12Z</time>
        <extensions>
          <gpxtpx:TrackPointExtension xmlns:gpxtpx="http://www.garmin.com/xmlschemas/TrackPointExtension/v1">
            <gpxtpx:hr>138</gpxtpx:hr>
          </gpxtpx:TrackPointExtension>
        </extensions>
      </trkpt>
      <trkpt lat="50.48874" lon="2.59001">
        <ele>50.4</ele>
        <time>2021-06-24T18:12:13Z</time>
        <extensions>
          <gpxtpx:TrackPointExtension xmlns:gpxtpx="http://www.garmin.com/xmlschemas/TrackPointExtension/v1">
            <gpxtpx:hr>138</gpxtpx:hr>
          </gpxtpx:TrackPointExtension>
        </extensions>
      </trkpt>
      <trkpt lat="50.48879" lon="2.59">
        <ele>50.4</ele>
        <time>2021-06-24T18:12:14Z</time>
        <extensions>
          <gpxtpx:TrackPointExtension xmlns:gpxtpx="http://www.garmin.com/xmlschemas/TrackPointExtension/v1">
            <gpxtpx:hr>138</gpxtpx:hr>
          </gpxtpx:TrackPointExtension>
        </extensions>
      </trkpt>
      <trkpt lat="50.48886" lon="2.58998">
        <ele>50.4</ele>
        <time>2021-06-24T18:12:15Z</time>
        <extensions>
          <gpxtpx:TrackPointExtension xmlns:gpxtpx="http://www.garmin.com/xmlschemas/TrackPointExtension/v1">
            <gpxtpx:hr>138</gpxtpx:hr>
          </gpxtpx:TrackPointExtension>
        </extensions>
      </trkpt>
      <trkpt lat="50.48891" lon="2.58997">
        <ele>50.2</ele>
        <time>2021-06-24T18:12:16Z</time>
        <extensions>
          <gpxtpx:TrackPointExtension xmlns:gpxtpx="http://www.garmin.com/xmlschemas/TrackPointExtension/v1">
            <gpxtpx:hr>139</gpxtpx:hr>
          </gpxtpx:TrackPointExtension>
        </extensions>
      </trkpt>
      <trkpt lat="50.48897" lon="2.58997">
        <ele>50.2</ele>
        <time>2021-06-24T18:12:17Z</time>
        <extensions>
          <gpxtpx:TrackPointExtension xmlns:gpxtpx="http://www.garmin.com/xmlschemas/TrackPointExtension/v1">
            <gpxtpx:hr>139</gpxtpx:hr>
          </gpxtpx:TrackPointExtension>
        </extensions>
      </trkpt>
      <trkpt lat="50.48903" lon="2.58997">
        <ele>50.2</ele>
        <time>2021-06-24T18:12:18Z</time>
        <extensions>
          <gpxtpx:TrackPointExtension xmlns:gpxtpx="http://www.garmin.com/xmlschemas/TrackPointExtension/v1">
            <gpxtpx:hr>139</gpxtpx:hr>
          </gpxtpx:TrackPointExtension>
        </extensions>
      </trkpt>
      <trkpt lat="50.4891" lon="2.58997">
        <ele>50.2</ele>
        <time>2021-06-24T18:12:19Z</time>
        <extensions>
          <gpxtpx:TrackPointExtension xmlns:gpxtpx="http://www.garmin.com/xmlschemas/TrackPointExtension/v1">
            <gpxtpx:hr>139</gpxtpx:hr>
          </gpxtpx:TrackPointExtension>
        </extensions>
      </trkpt>
      <trkpt lat="50.48914" lon="2.58996">
        <ele>50.2</ele>
        <time>2021-06-24T18:12:20Z</time>
        <extensions>
          <gpxtpx:TrackPointExtension xmlns:gpxtpx="http://www.garmin.com/xmlschemas/TrackPointExtension/v1">
            <gpxtpx:hr>139</gpxtpx:hr>
          </gpxtpx:TrackPointExtension>
        </extensions>
      </trkpt>
      <trkpt lat="50.4892" lon="2.58994">
        <ele>50.4</ele>
        <time>2021-06-24T18:12:21Z</time>
        <extensions>
          <gpxtpx:TrackPointExtension xmlns:gpxtpx="http://www.garmin.com/xmlschemas/TrackPointExtension/v1">
            <gpxtpx:hr>139</gpxtpx:hr>
          </gpxtpx:TrackPointExtension>
        </extensions>
      </trkpt>
      <trkpt lat="50.4893" lon="2.58987">
        <ele>50.4</ele>
        <time>2021-06-24T18:12:23Z</time>
        <extensions>
          <gpxtpx:TrackPointExtension xmlns:gpxtpx="http://www.garmin.com/xmlschemas/TrackPointExtension/v1">
            <gpxtpx:hr>139</gpxtpx:hr>
          </gpxtpx:TrackPointExtension>
        </extensions>
      </trkpt>
      <trkpt lat="50.48934" lon="2.58984">
        <ele>50.4</ele>
        <time>2021-06-24T18:12:24Z</time>
        <extensions>
          <gpxtpx:TrackPointExtension xmlns:gpxtpx="http://www.garmin.com/xmlschemas/TrackPointExtension/v1">
            <gpxtpx:hr>139</gpxtpx:hr>
          </gpxtpx:TrackPointExtension>
        </extensions>
      </trkpt>
      <trkpt lat="50.48939" lon="2.58983">
        <ele>50.4</ele>
        <time>2021-06-24T18:12:25Z</time>
        <extensions>
          <gpxtpx:TrackPointExtension xmlns:gpxtpx="http://www.garmin.com/xmlschemas/TrackPointExtension/v1">
            <gpxtpx:hr>139</gpxtpx:hr>
          </gpxtpx:TrackPointExtension>
        </extensions>
      </trkpt>
      <trkpt lat="50.48944" lon="2.58982">
        <ele>50.4</ele>
        <time>2021-06-24T18:12:26Z</time>
        <extensions>
          <gpxtpx:TrackPointExtension xmlns:gpxtpx="http://www.garmin.com/xmlschemas/TrackPointExtension/v1">
            <gpxtpx:hr>139</gpxtpx:hr>
          </gpxtpx:TrackPointExtension>
        </extensions>
      </trkpt>
      <trkpt lat="50.48948" lon="2.5898">
        <ele>50.4</ele>
        <time>2021-06-24T18:12:27Z</time>
        <extensions>
          <gpxtpx:TrackPointExtension xmlns:gpxtpx="http://www.garmin.com/xmlschemas/TrackPointExtension/v1">
            <gpxtpx:hr>140</gpxtpx:hr>
          </gpxtpx:TrackPointExtension>
        </extensions>
      </trkpt>
      <trkpt lat="50.48953" lon="2.58979">
        <ele>50.2</ele>
        <time>2021-06-24T18:12:28Z</time>
        <extensions>
          <gpxtpx:TrackPointExtension xmlns:gpxtpx="http://www.garmin.com/xmlschemas/TrackPointExtension/v1">
            <gpxtpx:hr>141</gpxtpx:hr>
          </gpxtpx:TrackPointExtension>
        </extensions>
      </trkpt>
      <trkpt lat="50.48957" lon="2.58978">
        <ele>50.2</ele>
        <time>2021-06-24T18:12:29Z</time>
        <extensions>
          <gpxtpx:TrackPointExtension xmlns:gpxtpx="http://www.garmin.com/xmlschemas/TrackPointExtension/v1">
            <gpxtpx:hr>141</gpxtpx:hr>
          </gpxtpx:TrackPointExtension>
        </extensions>
      </trkpt>
      <trkpt lat="50.48962" lon="2.58977">
        <ele>50.2</ele>
        <time>2021-06-24T18:12:30Z</time>
        <extensions>
          <gpxtpx:TrackPointExtension xmlns:gpxtpx="http://www.garmin.com/xmlschemas/TrackPointExtension/v1">
            <gpxtpx:hr>142</gpxtpx:hr>
          </gpxtpx:TrackPointExtension>
        </extensions>
      </trkpt>
      <trkpt lat="50.48966" lon="2.58976">
        <ele>50.2</ele>
        <time>2021-06-24T18:12:31Z</time>
        <extensions>
          <gpxtpx:TrackPointExtension xmlns:gpxtpx="http://www.garmin.com/xmlschemas/TrackPointExtension/v1">
            <gpxtpx:hr>142</gpxtpx:hr>
          </gpxtpx:TrackPointExtension>
        </extensions>
      </trkpt>
      <trkpt lat="50.48971" lon="2.58974">
        <ele>50.2</ele>
        <time>2021-06-24T18:12:32Z</time>
        <extensions>
          <gpxtpx:TrackPointExtension xmlns:gpxtpx="http://www.garmin.com/xmlschemas/TrackPointExtension/v1">
            <gpxtpx:hr>141</gpxtpx:hr>
          </gpxtpx:TrackPointExtension>
        </extensions>
      </trkpt>
      <trkpt lat="50.48976" lon="2.58973">
        <ele>50.2</ele>
        <time>2021-06-24T18:12:33Z</time>
        <extensions>
          <gpxtpx:TrackPointExtension xmlns:gpxtpx="http://www.garmin.com/xmlschemas/TrackPointExtension/v1">
            <gpxtpx:hr>141</gpxtpx:hr>
          </gpxtpx:TrackPointExtension>
        </extensions>
      </trkpt>
      <trkpt lat="50.4898" lon="2.58971">
        <ele>50</ele>
        <time>2021-06-24T18:12:34Z</time>
        <extensions>
          <gpxtpx:TrackPointExtension xmlns:gpxtpx="http://www.garmin.com/xmlschemas/TrackPointExtension/v1">
            <gpxtpx:hr>140</gpxtpx:hr>
          </gpxtpx:TrackPointExtension>
        </extensions>
      </trkpt>
      <trkpt lat="50.48985" lon="2.5897">
        <ele>50</ele>
        <time>2021-06-24T18:12:35Z</time>
        <extensions>
          <gpxtpx:TrackPointExtension xmlns:gpxtpx="http://www.garmin.com/xmlschemas/TrackPointExtension/v1">
            <gpxtpx:hr>139</gpxtpx:hr>
          </gpxtpx:TrackPointExtension>
        </extensions>
      </trkpt>
      <trkpt lat="50.48994" lon="2.58967">
        <ele>49.8</ele>
        <time>2021-06-24T18:12:37Z</time>
        <extensions>
          <gpxtpx:TrackPointExtension xmlns:gpxtpx="http://www.garmin.com/xmlschemas/TrackPointExtension/v1">
            <gpxtpx:hr>136</gpxtpx:hr>
          </gpxtpx:TrackPointExtension>
        </extensions>
      </trkpt>
      <trkpt lat="50.49001" lon="2.58965">
        <ele>49.6</ele>
        <time>2021-06-24T18:12:39Z</time>
        <extensions>
          <gpxtpx:TrackPointExtension xmlns:gpxtpx="http://www.garmin.com/xmlschemas/TrackPointExtension/v1">
            <gpxtpx:hr>135</gpxtpx:hr>
          </gpxtpx:TrackPointExtension>
        </extensions>
      </trkpt>
      <trkpt lat="50.49005" lon="2.58963">
        <ele>49.6</ele>
        <time>2021-06-24T18:12:40Z</time>
        <extensions>
          <gpxtpx:TrackPointExtension xmlns:gpxtpx="http://www.garmin.com/xmlschemas/TrackPointExtension/v1">
            <gpxtpx:hr>134</gpxtpx:hr>
          </gpxtpx:TrackPointExtension>
        </extensions>
      </trkpt>
      <trkpt lat="50.49009" lon="2.58962">
        <ele>49.4</ele>
        <time>2021-06-24T18:12:41Z</time>
        <extensions>
          <gpxtpx:TrackPointExtension xmlns:gpxtpx="http://www.garmin.com/xmlschemas/TrackPointExtension/v1">
            <gpxtpx:hr>134</gpxtpx:hr>
          </gpxtpx:TrackPointExtension>
        </extensions>
      </trkpt>
      <trkpt lat="50.49013" lon="2.58961">
        <ele>49.4</ele>
        <time>2021-06-24T18:12:42Z</time>
        <extensions>
          <gpxtpx:TrackPointExtension xmlns:gpxtpx="http://www.garmin.com/xmlschemas/TrackPointExtension/v1">
            <gpxtpx:hr>133</gpxtpx:hr>
          </gpxtpx:TrackPointExtension>
        </extensions>
      </trkpt>
      <trkpt lat="50.49017" lon="2.58959">
        <ele>49.4</ele>
        <time>2021-06-24T18:12:43Z</time>
        <extensions>
          <gpxtpx:TrackPointExtension xmlns:gpxtpx="http://www.garmin.com/xmlschemas/TrackPointExtension/v1">
            <gpxtpx:hr>133</gpxtpx:hr>
          </gpxtpx:TrackPointExtension>
        </extensions>
      </trkpt>
      <trkpt lat="50.4902" lon="2.58957">
        <ele>49.4</ele>
        <time>2021-06-24T18:12:44Z</time>
        <extensions>
          <gpxtpx:TrackPointExtension xmlns:gpxtpx="http://www.garmin.com/xmlschemas/TrackPointExtension/v1">
            <gpxtpx:hr>132</gpxtpx:hr>
          </gpxtpx:TrackPointExtension>
        </extensions>
      </trkpt>
      <trkpt lat="50.49023" lon="2.58955">
        <ele>49.4</ele>
        <time>2021-06-24T18:12:45Z</time>
        <extensions>
          <gpxtpx:TrackPointExtension xmlns:gpxtpx="http://www.garmin.com/xmlschemas/TrackPointExtension/v1">
            <gpxtpx:hr>131</gpxtpx:hr>
          </gpxtpx:TrackPointExtension>
        </extensions>
      </trkpt>
      <trkpt lat="50.49025" lon="2.58953">
        <ele>49.4</ele>
        <time>2021-06-24T18:12:46Z</time>
        <extensions>
          <gpxtpx:TrackPointExtension xmlns:gpxtpx="http://www.garmin.com/xmlschemas/TrackPointExtension/v1">
            <gpxtpx:hr>131</gpxtpx:hr>
          </gpxtpx:TrackPointExtension>
        </extensions>
      </trkpt>
      <trkpt lat="50.49032" lon="2.58948">
        <ele>49.4</ele>
        <time>2021-06-24T18:12:48Z</time>
        <extensions>
          <gpxtpx:TrackPointExtension xmlns:gpxtpx="http://www.garmin.com/xmlschemas/TrackPointExtension/v1">
            <gpxtpx:hr>130</gpxtpx:hr>
          </gpxtpx:TrackPointExtension>
        </extensions>
      </trkpt>
      <trkpt lat="50.49036" lon="2.58946">
        <ele>49.4</ele>
        <time>2021-06-24T18:12:49Z</time>
        <extensions>
          <gpxtpx:TrackPointExtension xmlns:gpxtpx="http://www.garmin.com/xmlschemas/TrackPointExtension/v1">
            <gpxtpx:hr>130</gpxtpx:hr>
          </gpxtpx:TrackPointExtension>
        </extensions>
      </trkpt>
      <trkpt lat="50.4904" lon="2.58943">
        <ele>49.4</ele>
        <time>2021-06-24T18:12:50Z</time>
        <extensions>
          <gpxtpx:TrackPointExtension xmlns:gpxtpx="http://www.garmin.com/xmlschemas/TrackPointExtension/v1">
            <gpxtpx:hr>130</gpxtpx:hr>
          </gpxtpx:TrackPointExtension>
        </extensions>
      </trkpt>
      <trkpt lat="50.49045" lon="2.5894">
        <ele>49.4</ele>
        <time>2021-06-24T18:12:51Z</time>
        <extensions>
          <gpxtpx:TrackPointExtension xmlns:gpxtpx="http://www.garmin.com/xmlschemas/TrackPointExtension/v1">
            <gpxtpx:hr>130</gpxtpx:hr>
          </gpxtpx:TrackPointExtension>
        </extensions>
      </trkpt>
      <trkpt lat="50.49055" lon="2.58934">
        <ele>49.6</ele>
        <time>2021-06-24T18:12:53Z</time>
        <extensions>
          <gpxtpx:TrackPointExtension xmlns:gpxtpx="http://www.garmin.com/xmlschemas/TrackPointExtension/v1">
            <gpxtpx:hr>131</gpxtpx:hr>
          </gpxtpx:TrackPointExtension>
        </extensions>
      </trkpt>
      <trkpt lat="50.4906" lon="2.58931">
        <ele>49.6</ele>
        <time>2021-06-24T18:12:54Z</time>
        <extensions>
          <gpxtpx:TrackPointExtension xmlns:gpxtpx="http://www.garmin.com/xmlschemas/TrackPointExtension/v1">
            <gpxtpx:hr>131</gpxtpx:hr>
          </gpxtpx:TrackPointExtension>
        </extensions>
      </trkpt>
      <trkpt lat="50.49064" lon="2.58929">
        <ele>49.6</ele>
        <time>2021-06-24T18:12:55Z</time>
        <extensions>
          <gpxtpx:TrackPointExtension xmlns:gpxtpx="http://www.garmin.com/xmlschemas/TrackPointExtension/v1">
            <gpxtpx:hr>131</gpxtpx:hr>
          </gpxtpx:TrackPointExtension>
        </extensions>
      </trkpt>
      <trkpt lat="50.49069" lon="2.58926">
        <ele>49.6</ele>
        <time>2021-06-24T18:12:56Z</time>
        <extensions>
          <gpxtpx:TrackPointExtension xmlns:gpxtpx="http://www.garmin.com/xmlschemas/TrackPointExtension/v1">
            <gpxtpx:hr>131</gpxtpx:hr>
          </gpxtpx:TrackPointExtension>
        </extensions>
      </trkpt>
      <trkpt lat="50.49073" lon="2.58923">
        <ele>49.6</ele>
        <time>2021-06-24T18:12:57Z</time>
        <extensions>
          <gpxtpx:TrackPointExtension xmlns:gpxtpx="http://www.garmin.com/xmlschemas/TrackPointExtension/v1">
            <gpxtpx:hr>132</gpxtpx:hr>
          </gpxtpx:TrackPointExtension>
        </extensions>
      </trkpt>
      <trkpt lat="50.49077" lon="2.58921">
        <ele>49.4</ele>
        <time>2021-06-24T18:12:58Z</time>
        <extensions>
          <gpxtpx:TrackPointExtension xmlns:gpxtpx="http://www.garmin.com/xmlschemas/TrackPointExtension/v1">
            <gpxtpx:hr>132</gpxtpx:hr>
          </gpxtpx:TrackPointExtension>
        </extensions>
      </trkpt>
      <trkpt lat="50.49085" lon="2.58915">
        <ele>49.4</ele>
        <time>2021-06-24T18:13:00Z</time>
        <extensions>
          <gpxtpx:TrackPointExtension xmlns:gpxtpx="http://www.garmin.com/xmlschemas/TrackPointExtension/v1">
            <gpxtpx:hr>132</gpxtpx:hr>
          </gpxtpx:TrackPointExtension>
        </extensions>
      </trkpt>
      <trkpt lat="50.4909" lon="2.58912">
        <ele>49.2</ele>
        <time>2021-06-24T18:13:01Z</time>
        <extensions>
          <gpxtpx:TrackPointExtension xmlns:gpxtpx="http://www.garmin.com/xmlschemas/TrackPointExtension/v1">
            <gpxtpx:hr>131</gpxtpx:hr>
          </gpxtpx:TrackPointExtension>
        </extensions>
      </trkpt>
      <trkpt lat="50.49095" lon="2.58909">
        <ele>49.2</ele>
        <time>2021-06-24T18:13:02Z</time>
        <extensions>
          <gpxtpx:TrackPointExtension xmlns:gpxtpx="http://www.garmin.com/xmlschemas/TrackPointExtension/v1">
            <gpxtpx:hr>131</gpxtpx:hr>
          </gpxtpx:TrackPointExtension>
        </extensions>
      </trkpt>
      <trkpt lat="50.49103" lon="2.58902">
        <ele>49</ele>
        <time>2021-06-24T18:13:04Z</time>
        <extensions>
          <gpxtpx:TrackPointExtension xmlns:gpxtpx="http://www.garmin.com/xmlschemas/TrackPointExtension/v1">
            <gpxtpx:hr>130</gpxtpx:hr>
          </gpxtpx:TrackPointExtension>
        </extensions>
      </trkpt>
      <trkpt lat="50.49111" lon="2.58895">
        <ele>49</ele>
        <time>2021-06-24T18:13:06Z</time>
        <extensions>
          <gpxtpx:TrackPointExtension xmlns:gpxtpx="http://www.garmin.com/xmlschemas/TrackPointExtension/v1">
            <gpxtpx:hr>130</gpxtpx:hr>
          </gpxtpx:TrackPointExtension>
        </extensions>
      </trkpt>
      <trkpt lat="50.49116" lon="2.58891">
        <ele>48.8</ele>
        <time>2021-06-24T18:13:07Z</time>
        <extensions>
          <gpxtpx:TrackPointExtension xmlns:gpxtpx="http://www.garmin.com/xmlschemas/TrackPointExtension/v1">
            <gpxtpx:hr>130</gpxtpx:hr>
          </gpxtpx:TrackPointExtension>
        </extensions>
      </trkpt>
      <trkpt lat="50.4912" lon="2.58887">
        <ele>48.8</ele>
        <time>2021-06-24T18:13:08Z</time>
        <extensions>
          <gpxtpx:TrackPointExtension xmlns:gpxtpx="http://www.garmin.com/xmlschemas/TrackPointExtension/v1">
            <gpxtpx:hr>131</gpxtpx:hr>
          </gpxtpx:TrackPointExtension>
        </extensions>
      </trkpt>
      <trkpt lat="50.49124" lon="2.58883">
        <ele>48.8</ele>
        <time>2021-06-24T18:13:09Z</time>
        <extensions>
          <gpxtpx:TrackPointExtension xmlns:gpxtpx="http://www.garmin.com/xmlschemas/TrackPointExtension/v1">
            <gpxtpx:hr>131</gpxtpx:hr>
          </gpxtpx:TrackPointExtension>
        </extensions>
      </trkpt>
      <trkpt lat="50.49128" lon="2.58878">
        <ele>48.8</ele>
        <time>2021-06-24T18:13:10Z</time>
        <extensions>
          <gpxtpx:TrackPointExtension xmlns:gpxtpx="http://www.garmin.com/xmlschemas/TrackPointExtension/v1">
            <gpxtpx:hr>132</gpxtpx:hr>
          </gpxtpx:TrackPointExtension>
        </extensions>
      </trkpt>
      <trkpt lat="50.49132" lon="2.58874">
        <ele>48.8</ele>
        <time>2021-06-24T18:13:11Z</time>
        <extensions>
          <gpxtpx:TrackPointExtension xmlns:gpxtpx="http://www.garmin.com/xmlschemas/TrackPointExtension/v1">
            <gpxtpx:hr>133</gpxtpx:hr>
          </gpxtpx:TrackPointExtension>
        </extensions>
      </trkpt>
      <trkpt lat="50.49137" lon="2.58869">
        <ele>48.6</ele>
        <time>2021-06-24T18:13:12Z</time>
        <extensions>
          <gpxtpx:TrackPointExtension xmlns:gpxtpx="http://www.garmin.com/xmlschemas/TrackPointExtension/v1">
            <gpxtpx:hr>133</gpxtpx:hr>
          </gpxtpx:TrackPointExtension>
        </extensions>
      </trkpt>
      <trkpt lat="50.49141" lon="2.58864">
        <ele>48.6</ele>
        <time>2021-06-24T18:13:13Z</time>
        <extensions>
          <gpxtpx:TrackPointExtension xmlns:gpxtpx="http://www.garmin.com/xmlschemas/TrackPointExtension/v1">
            <gpxtpx:hr>133</gpxtpx:hr>
          </gpxtpx:TrackPointExtension>
        </extensions>
      </trkpt>
      <trkpt lat="50.49145" lon="2.5886">
        <ele>48.6</ele>
        <time>2021-06-24T18:13:14Z</time>
        <extensions>
          <gpxtpx:TrackPointExtension xmlns:gpxtpx="http://www.garmin.com/xmlschemas/TrackPointExtension/v1">
            <gpxtpx:hr>133</gpxtpx:hr>
          </gpxtpx:TrackPointExtension>
        </extensions>
      </trkpt>
      <trkpt lat="50.49148" lon="2.58856">
        <ele>48.4</ele>
        <time>2021-06-24T18:13:15Z</time>
        <extensions>
          <gpxtpx:TrackPointExtension xmlns:gpxtpx="http://www.garmin.com/xmlschemas/TrackPointExtension/v1">
            <gpxtpx:hr>133</gpxtpx:hr>
          </gpxtpx:TrackPointExtension>
        </extensions>
      </trkpt>
      <trkpt lat="50.49151" lon="2.58852">
        <ele>48.4</ele>
        <time>2021-06-24T18:13:16Z</time>
        <extensions>
          <gpxtpx:TrackPointExtension xmlns:gpxtpx="http://www.garmin.com/xmlschemas/TrackPointExtension/v1">
            <gpxtpx:hr>133</gpxtpx:hr>
          </gpxtpx:TrackPointExtension>
        </extensions>
      </trkpt>
      <trkpt lat="50.49154" lon="2.58849">
        <ele>48.2</ele>
        <time>2021-06-24T18:13:17Z</time>
        <extensions>
          <gpxtpx:TrackPointExtension xmlns:gpxtpx="http://www.garmin.com/xmlschemas/TrackPointExtension/v1">
            <gpxtpx:hr>132</gpxtpx:hr>
          </gpxtpx:TrackPointExtension>
        </extensions>
      </trkpt>
      <trkpt lat="50.49158" lon="2.58845">
        <ele>48.2</ele>
        <time>2021-06-24T18:13:19Z</time>
        <extensions>
          <gpxtpx:TrackPointExtension xmlns:gpxtpx="http://www.garmin.com/xmlschemas/TrackPointExtension/v1">
            <gpxtpx:hr>132</gpxtpx:hr>
          </gpxtpx:TrackPointExtension>
        </extensions>
      </trkpt>
      <trkpt lat="50.4916" lon="2.58844">
        <ele>47.8</ele>
        <time>2021-06-24T18:13:25Z</time>
        <extensions>
          <gpxtpx:TrackPointExtension xmlns:gpxtpx="http://www.garmin.com/xmlschemas/TrackPointExtension/v1">
            <gpxtpx:hr>130</gpxtpx:hr>
          </gpxtpx:TrackPointExtension>
        </extensions>
      </trkpt>
      <trkpt lat="50.49167" lon="2.58845">
        <ele>46.8</ele>
        <time>2021-06-24T18:13:36Z</time>
        <extensions>
          <gpxtpx:TrackPointExtension xmlns:gpxtpx="http://www.garmin.com/xmlschemas/TrackPointExtension/v1">
            <gpxtpx:hr>128</gpxtpx:hr>
          </gpxtpx:TrackPointExtension>
        </extensions>
      </trkpt>
      <trkpt lat="50.49172" lon="2.58842">
        <ele>46.8</ele>
        <time>2021-06-24T18:13:47Z</time>
        <extensions>
          <gpxtpx:TrackPointExtension xmlns:gpxtpx="http://www.garmin.com/xmlschemas/TrackPointExtension/v1">
            <gpxtpx:hr>124</gpxtpx:hr>
          </gpxtpx:TrackPointExtension>
        </extensions>
      </trkpt>
      <trkpt lat="50.49172" lon="2.58842">
        <ele>45.4</ele>
        <time>2021-06-24T18:14:32Z</time>
        <extensions>
          <gpxtpx:TrackPointExtension xmlns:gpxtpx="http://www.garmin.com/xmlschemas/TrackPointExtension/v1">
            <gpxtpx:hr>77</gpxtpx:hr>
          </gpxtpx:TrackPointExtension>
        </extensions>
      </trkpt>
      <trkpt lat="50.49169" lon="2.58838">
        <ele>45.4</ele>
        <time>2021-06-24T18:14:34Z</time>
        <extensions>
          <gpxtpx:TrackPointExtension xmlns:gpxtpx="http://www.garmin.com/xmlschemas/TrackPointExtension/v1">
            <gpxtpx:hr>76</gpxtpx:hr>
          </gpxtpx:TrackPointExtension>
        </extensions>
      </trkpt>
      <trkpt lat="50.49167" lon="2.58836">
        <ele>45.4</ele>
        <time>2021-06-24T18:14:35Z</time>
        <extensions>
          <gpxtpx:TrackPointExtension xmlns:gpxtpx="http://www.garmin.com/xmlschemas/TrackPointExtension/v1">
            <gpxtpx:hr>76</gpxtpx:hr>
          </gpxtpx:TrackPointExtension>
        </extensions>
      </trkpt>
      <trkpt lat="50.49165" lon="2.58833">
        <ele>45.2</ele>
        <time>2021-06-24T18:14:36Z</time>
        <extensions>
          <gpxtpx:TrackPointExtension xmlns:gpxtpx="http://www.garmin.com/xmlschemas/TrackPointExtension/v1">
            <gpxtpx:hr>77</gpxtpx:hr>
          </gpxtpx:TrackPointExtension>
        </extensions>
      </trkpt>
      <trkpt lat="50.49164" lon="2.58831">
        <ele>45.2</ele>
        <time>2021-06-24T18:14:37Z</time>
        <extensions>
          <gpxtpx:TrackPointExtension xmlns:gpxtpx="http://www.garmin.com/xmlschemas/TrackPointExtension/v1">
            <gpxtpx:hr>78</gpxtpx:hr>
          </gpxtpx:TrackPointExtension>
        </extensions>
      </trkpt>
      <trkpt lat="50.49162" lon="2.58827">
        <ele>45.2</ele>
        <time>2021-06-24T18:14:38Z</time>
        <extensions>
          <gpxtpx:TrackPointExtension xmlns:gpxtpx="http://www.garmin.com/xmlschemas/TrackPointExtension/v1">
            <gpxtpx:hr>79</gpxtpx:hr>
          </gpxtpx:TrackPointExtension>
        </extensions>
      </trkpt>
      <trkpt lat="50.4916" lon="2.58823">
        <ele>45.2</ele>
        <time>2021-06-24T18:14:39Z</time>
        <extensions>
          <gpxtpx:TrackPointExtension xmlns:gpxtpx="http://www.garmin.com/xmlschemas/TrackPointExtension/v1">
            <gpxtpx:hr>81</gpxtpx:hr>
          </gpxtpx:TrackPointExtension>
        </extensions>
      </trkpt>
      <trkpt lat="50.49158" lon="2.5882">
        <ele>45</ele>
        <time>2021-06-24T18:14:40Z</time>
        <extensions>
          <gpxtpx:TrackPointExtension xmlns:gpxtpx="http://www.garmin.com/xmlschemas/TrackPointExtension/v1">
            <gpxtpx:hr>83</gpxtpx:hr>
          </gpxtpx:TrackPointExtension>
        </extensions>
      </trkpt>
      <trkpt lat="50.49156" lon="2.58816">
        <ele>45</ele>
        <time>2021-06-24T18:14:41Z</time>
        <extensions>
          <gpxtpx:TrackPointExtension xmlns:gpxtpx="http://www.garmin.com/xmlschemas/TrackPointExtension/v1">
            <gpxtpx:hr>84</gpxtpx:hr>
          </gpxtpx:TrackPointExtension>
        </extensions>
      </trkpt>
      <trkpt lat="50.49154" lon="2.58812">
        <ele>44.8</ele>
        <time>2021-06-24T18:14:42Z</time>
        <extensions>
          <gpxtpx:TrackPointExtension xmlns:gpxtpx="http://www.garmin.com/xmlschemas/TrackPointExtension/v1">
            <gpxtpx:hr>86</gpxtpx:hr>
          </gpxtpx:TrackPointExtension>
        </extensions>
      </trkpt>
      <trkpt lat="50.49152" lon="2.58809">
        <ele>44.8</ele>
        <time>2021-06-24T18:14:43Z</time>
        <extensions>
          <gpxtpx:TrackPointExtension xmlns:gpxtpx="http://www.garmin.com/xmlschemas/TrackPointExtension/v1">
            <gpxtpx:hr>87</gpxtpx:hr>
          </gpxtpx:TrackPointExtension>
        </extensions>
      </trkpt>
      <trkpt lat="50.4915" lon="2.58804">
        <ele>44.8</ele>
        <time>2021-06-24T18:14:44Z</time>
        <extensions>
          <gpxtpx:TrackPointExtension xmlns:gpxtpx="http://www.garmin.com/xmlschemas/TrackPointExtension/v1">
            <gpxtpx:hr>88</gpxtpx:hr>
          </gpxtpx:TrackPointExtension>
        </extensions>
      </trkpt>
      <trkpt lat="50.49148" lon="2.588">
        <ele>44.8</ele>
        <time>2021-06-24T18:14:45Z</time>
        <extensions>
          <gpxtpx:TrackPointExtension xmlns:gpxtpx="http://www.garmin.com/xmlschemas/TrackPointExtension/v1">
            <gpxtpx:hr>88</gpxtpx:hr>
          </gpxtpx:TrackPointExtension>
        </extensions>
      </trkpt>
      <trkpt lat="50.49146" lon="2.58795">
        <ele>44.8</ele>
        <time>2021-06-24T18:14:46Z</time>
        <extensions>
          <gpxtpx:TrackPointExtension xmlns:gpxtpx="http://www.garmin.com/xmlschemas/TrackPointExtension/v1">
            <gpxtpx:hr>89</gpxtpx:hr>
          </gpxtpx:TrackPointExtension>
        </extensions>
      </trkpt>
      <trkpt lat="50.49144" lon="2.5879">
        <ele>44.6</ele>
        <time>2021-06-24T18:14:47Z</time>
        <extensions>
          <gpxtpx:TrackPointExtension xmlns:gpxtpx="http://www.garmin.com/xmlschemas/TrackPointExtension/v1">
            <gpxtpx:hr>90</gpxtpx:hr>
          </gpxtpx:TrackPointExtension>
        </extensions>
      </trkpt>
      <trkpt lat="50.49141" lon="2.58785">
        <ele>44.6</ele>
        <time>2021-06-24T18:14:48Z</time>
        <extensions>
          <gpxtpx:TrackPointExtension xmlns:gpxtpx="http://www.garmin.com/xmlschemas/TrackPointExtension/v1">
            <gpxtpx:hr>91</gpxtpx:hr>
          </gpxtpx:TrackPointExtension>
        </extensions>
      </trkpt>
      <trkpt lat="50.49138" lon="2.5878">
        <ele>44.6</ele>
        <time>2021-06-24T18:14:49Z</time>
        <extensions>
          <gpxtpx:TrackPointExtension xmlns:gpxtpx="http://www.garmin.com/xmlschemas/TrackPointExtension/v1">
            <gpxtpx:hr>92</gpxtpx:hr>
          </gpxtpx:TrackPointExtension>
        </extensions>
      </trkpt>
      <trkpt lat="50.49136" lon="2.58775">
        <ele>44.4</ele>
        <time>2021-06-24T18:14:50Z</time>
        <extensions>
          <gpxtpx:TrackPointExtension xmlns:gpxtpx="http://www.garmin.com/xmlschemas/TrackPointExtension/v1">
            <gpxtpx:hr>94</gpxtpx:hr>
          </gpxtpx:TrackPointExtension>
        </extensions>
      </trkpt>
      <trkpt lat="50.49133" lon="2.58769">
        <ele>44.4</ele>
        <time>2021-06-24T18:14:51Z</time>
        <extensions>
          <gpxtpx:TrackPointExtension xmlns:gpxtpx="http://www.garmin.com/xmlschemas/TrackPointExtension/v1">
            <gpxtpx:hr>96</gpxtpx:hr>
          </gpxtpx:TrackPointExtension>
        </extensions>
      </trkpt>
      <trkpt lat="50.49131" lon="2.58764">
        <ele>44.4</ele>
        <time>2021-06-24T18:14:52Z</time>
        <extensions>
          <gpxtpx:TrackPointExtension xmlns:gpxtpx="http://www.garmin.com/xmlschemas/TrackPointExtension/v1">
            <gpxtpx:hr>99</gpxtpx:hr>
          </gpxtpx:TrackPointExtension>
        </extensions>
      </trkpt>
      <trkpt lat="50.49128" lon="2.58758">
        <ele>44.2</ele>
        <time>2021-06-24T18:14:53Z</time>
        <extensions>
          <gpxtpx:TrackPointExtension xmlns:gpxtpx="http://www.garmin.com/xmlschemas/TrackPointExtension/v1">
            <gpxtpx:hr>102</gpxtpx:hr>
          </gpxtpx:TrackPointExtension>
        </extensions>
      </trkpt>
      <trkpt lat="50.49126" lon="2.58752">
        <ele>44.2</ele>
        <time>2021-06-24T18:14:54Z</time>
        <extensions>
          <gpxtpx:TrackPointExtension xmlns:gpxtpx="http://www.garmin.com/xmlschemas/TrackPointExtension/v1">
            <gpxtpx:hr>105</gpxtpx:hr>
          </gpxtpx:TrackPointExtension>
        </extensions>
      </trkpt>
      <trkpt lat="50.49124" lon="2.58746">
        <ele>44.2</ele>
        <time>2021-06-24T18:14:55Z</time>
        <extensions>
          <gpxtpx:TrackPointExtension xmlns:gpxtpx="http://www.garmin.com/xmlschemas/TrackPointExtension/v1">
            <gpxtpx:hr>108</gpxtpx:hr>
          </gpxtpx:TrackPointExtension>
        </extensions>
      </trkpt>
      <trkpt lat="50.49121" lon="2.5874">
        <ele>44.2</ele>
        <time>2021-06-24T18:14:56Z</time>
        <extensions>
          <gpxtpx:TrackPointExtension xmlns:gpxtpx="http://www.garmin.com/xmlschemas/TrackPointExtension/v1">
            <gpxtpx:hr>111</gpxtpx:hr>
          </gpxtpx:TrackPointExtension>
        </extensions>
      </trkpt>
      <trkpt lat="50.49119" lon="2.58734">
        <ele>44.2</ele>
        <time>2021-06-24T18:14:57Z</time>
        <extensions>
          <gpxtpx:TrackPointExtension xmlns:gpxtpx="http://www.garmin.com/xmlschemas/TrackPointExtension/v1">
            <gpxtpx:hr>114</gpxtpx:hr>
          </gpxtpx:TrackPointExtension>
        </extensions>
      </trkpt>
      <trkpt lat="50.49116" lon="2.58727">
        <ele>44.2</ele>
        <time>2021-06-24T18:14:58Z</time>
        <extensions>
          <gpxtpx:TrackPointExtension xmlns:gpxtpx="http://www.garmin.com/xmlschemas/TrackPointExtension/v1">
            <gpxtpx:hr>116</gpxtpx:hr>
          </gpxtpx:TrackPointExtension>
        </extensions>
      </trkpt>
      <trkpt lat="50.49114" lon="2.58721">
        <ele>44.2</ele>
        <time>2021-06-24T18:14:59Z</time>
        <extensions>
          <gpxtpx:TrackPointExtension xmlns:gpxtpx="http://www.garmin.com/xmlschemas/TrackPointExtension/v1">
            <gpxtpx:hr>118</gpxtpx:hr>
          </gpxtpx:TrackPointExtension>
        </extensions>
      </trkpt>
      <trkpt lat="50.49112" lon="2.58715">
        <ele>44.2</ele>
        <time>2021-06-24T18:15:00Z</time>
        <extensions>
          <gpxtpx:TrackPointExtension xmlns:gpxtpx="http://www.garmin.com/xmlschemas/TrackPointExtension/v1">
            <gpxtpx:hr>120</gpxtpx:hr>
          </gpxtpx:TrackPointExtension>
        </extensions>
      </trkpt>
      <trkpt lat="50.49111" lon="2.58709">
        <ele>44.2</ele>
        <time>2021-06-24T18:15:01Z</time>
        <extensions>
          <gpxtpx:TrackPointExtension xmlns:gpxtpx="http://www.garmin.com/xmlschemas/TrackPointExtension/v1">
            <gpxtpx:hr>122</gpxtpx:hr>
          </gpxtpx:TrackPointExtension>
        </extensions>
      </trkpt>
      <trkpt lat="50.49109" lon="2.58702">
        <ele>44.2</ele>
        <time>2021-06-24T18:15:02Z</time>
        <extensions>
          <gpxtpx:TrackPointExtension xmlns:gpxtpx="http://www.garmin.com/xmlschemas/TrackPointExtension/v1">
            <gpxtpx:hr>123</gpxtpx:hr>
          </gpxtpx:TrackPointExtension>
        </extensions>
      </trkpt>
      <trkpt lat="50.49107" lon="2.58696">
        <ele>44</ele>
        <time>2021-06-24T18:15:03Z</time>
        <extensions>
          <gpxtpx:TrackPointExtension xmlns:gpxtpx="http://www.garmin.com/xmlschemas/TrackPointExtension/v1">
            <gpxtpx:hr>124</gpxtpx:hr>
          </gpxtpx:TrackPointExtension>
        </extensions>
      </trkpt>
      <trkpt lat="50.49106" lon="2.58689">
        <ele>44</ele>
        <time>2021-06-24T18:15:04Z</time>
        <extensions>
          <gpxtpx:TrackPointExtension xmlns:gpxtpx="http://www.garmin.com/xmlschemas/TrackPointExtension/v1">
            <gpxtpx:hr>125</gpxtpx:hr>
          </gpxtpx:TrackPointExtension>
        </extensions>
      </trkpt>
      <trkpt lat="50.49104" lon="2.58683">
        <ele>43.8</ele>
        <time>2021-06-24T18:15:05Z</time>
        <extensions>
          <gpxtpx:TrackPointExtension xmlns:gpxtpx="http://www.garmin.com/xmlschemas/TrackPointExtension/v1">
            <gpxtpx:hr>125</gpxtpx:hr>
          </gpxtpx:TrackPointExtension>
        </extensions>
      </trkpt>
      <trkpt lat="50.49103" lon="2.58677">
        <ele>43.8</ele>
        <time>2021-06-24T18:15:06Z</time>
        <extensions>
          <gpxtpx:TrackPointExtension xmlns:gpxtpx="http://www.garmin.com/xmlschemas/TrackPointExtension/v1">
            <gpxtpx:hr>126</gpxtpx:hr>
          </gpxtpx:TrackPointExtension>
        </extensions>
      </trkpt>
      <trkpt lat="50.49102" lon="2.5867">
        <ele>43.8</ele>
        <time>2021-06-24T18:15:07Z</time>
        <extensions>
          <gpxtpx:TrackPointExtension xmlns:gpxtpx="http://www.garmin.com/xmlschemas/TrackPointExtension/v1">
            <gpxtpx:hr>127</gpxtpx:hr>
          </gpxtpx:TrackPointExtension>
        </extensions>
      </trkpt>
      <trkpt lat="50.491" lon="2.58664">
        <ele>43.8</ele>
        <time>2021-06-24T18:15:08Z</time>
        <extensions>
          <gpxtpx:TrackPointExtension xmlns:gpxtpx="http://www.garmin.com/xmlschemas/TrackPointExtension/v1">
            <gpxtpx:hr>127</gpxtpx:hr>
          </gpxtpx:TrackPointExtension>
        </extensions>
      </trkpt>
      <trkpt lat="50.49099" lon="2.58657">
        <ele>43.8</ele>
        <time>2021-06-24T18:15:09Z</time>
        <extensions>
          <gpxtpx:TrackPointExtension xmlns:gpxtpx="http://www.garmin.com/xmlschemas/TrackPointExtension/v1">
            <gpxtpx:hr>128</gpxtpx:hr>
          </gpxtpx:TrackPointExtension>
        </extensions>
      </trkpt>
      <trkpt lat="50.49098" lon="2.58651">
        <ele>43.8</ele>
        <time>2021-06-24T18:15:10Z</time>
        <extensions>
          <gpxtpx:TrackPointExtension xmlns:gpxtpx="http://www.garmin.com/xmlschemas/TrackPointExtension/v1">
            <gpxtpx:hr>129</gpxtpx:hr>
          </gpxtpx:TrackPointExtension>
        </extensions>
      </trkpt>
      <trkpt lat="50.49097" lon="2.58644">
        <ele>43.6</ele>
        <time>2021-06-24T18:15:11Z</time>
        <extensions>
          <gpxtpx:TrackPointExtension xmlns:gpxtpx="http://www.garmin.com/xmlschemas/TrackPointExtension/v1">
            <gpxtpx:hr>129</gpxtpx:hr>
          </gpxtpx:TrackPointExtension>
        </extensions>
      </trkpt>
      <trkpt lat="50.49095" lon="2.58638">
        <ele>43.6</ele>
        <time>2021-06-24T18:15:12Z</time>
        <extensions>
          <gpxtpx:TrackPointExtension xmlns:gpxtpx="http://www.garmin.com/xmlschemas/TrackPointExtension/v1">
            <gpxtpx:hr>129</gpxtpx:hr>
          </gpxtpx:TrackPointExtension>
        </extensions>
      </trkpt>
      <trkpt lat="50.49094" lon="2.58632">
        <ele>43.4</ele>
        <time>2021-06-24T18:15:13Z</time>
        <extensions>
          <gpxtpx:TrackPointExtension xmlns:gpxtpx="http://www.garmin.com/xmlschemas/TrackPointExtension/v1">
            <gpxtpx:hr>130</gpxtpx:hr>
          </gpxtpx:TrackPointExtension>
        </extensions>
      </trkpt>
      <trkpt lat="50.49091" lon="2.58626">
        <ele>43.4</ele>
        <time>2021-06-24T18:15:14Z</time>
        <extensions>
          <gpxtpx:TrackPointExtension xmlns:gpxtpx="http://www.garmin.com/xmlschemas/TrackPointExtension/v1">
            <gpxtpx:hr>130</gpxtpx:hr>
          </gpxtpx:TrackPointExtension>
        </extensions>
      </trkpt>
      <trkpt lat="50.49089" lon="2.5862">
        <ele>43.4</ele>
        <time>2021-06-24T18:15:15Z</time>
        <extensions>
          <gpxtpx:TrackPointExtension xmlns:gpxtpx="http://www.garmin.com/xmlschemas/TrackPointExtension/v1">
            <gpxtpx:hr>131</gpxtpx:hr>
          </gpxtpx:TrackPointExtension>
        </extensions>
      </trkpt>
      <trkpt lat="50.49088" lon="2.58614">
        <ele>43.4</ele>
        <time>2021-06-24T18:15:16Z</time>
        <extensions>
          <gpxtpx:TrackPointExtension xmlns:gpxtpx="http://www.garmin.com/xmlschemas/TrackPointExtension/v1">
            <gpxtpx:hr>132</gpxtpx:hr>
          </gpxtpx:TrackPointExtension>
        </extensions>
      </trkpt>
      <trkpt lat="50.49085" lon="2.58608">
        <ele>43.6</ele>
        <time>2021-06-24T18:15:17Z</time>
        <extensions>
          <gpxtpx:TrackPointExtension xmlns:gpxtpx="http://www.garmin.com/xmlschemas/TrackPointExtension/v1">
            <gpxtpx:hr>132</gpxtpx:hr>
          </gpxtpx:TrackPointExtension>
        </extensions>
      </trkpt>
      <trkpt lat="50.49082" lon="2.58603">
        <ele>43.6</ele>
        <time>2021-06-24T18:15:18Z</time>
        <extensions>
          <gpxtpx:TrackPointExtension xmlns:gpxtpx="http://www.garmin.com/xmlschemas/TrackPointExtension/v1">
            <gpxtpx:hr>133</gpxtpx:hr>
          </gpxtpx:TrackPointExtension>
        </extensions>
      </trkpt>
      <trkpt lat="50.49079" lon="2.58597">
        <ele>43.6</ele>
        <time>2021-06-24T18:15:19Z</time>
        <extensions>
          <gpxtpx:TrackPointExtension xmlns:gpxtpx="http://www.garmin.com/xmlschemas/TrackPointExtension/v1">
            <gpxtpx:hr>134</gpxtpx:hr>
          </gpxtpx:TrackPointExtension>
        </extensions>
      </trkpt>
      <trkpt lat="50.49077" lon="2.58593">
        <ele>43.8</ele>
        <time>2021-06-24T18:15:20Z</time>
        <extensions>
          <gpxtpx:TrackPointExtension xmlns:gpxtpx="http://www.garmin.com/xmlschemas/TrackPointExtension/v1">
            <gpxtpx:hr>135</gpxtpx:hr>
          </gpxtpx:TrackPointExtension>
        </extensions>
      </trkpt>
      <trkpt lat="50.49074" lon="2.58587">
        <ele>43.8</ele>
        <time>2021-06-24T18:15:21Z</time>
        <extensions>
          <gpxtpx:TrackPointExtension xmlns:gpxtpx="http://www.garmin.com/xmlschemas/TrackPointExtension/v1">
            <gpxtpx:hr>135</gpxtpx:hr>
          </gpxtpx:TrackPointExtension>
        </extensions>
      </trkpt>
      <trkpt lat="50.49071" lon="2.58582">
        <ele>43.8</ele>
        <time>2021-06-24T18:15:22Z</time>
        <extensions>
          <gpxtpx:TrackPointExtension xmlns:gpxtpx="http://www.garmin.com/xmlschemas/TrackPointExtension/v1">
            <gpxtpx:hr>135</gpxtpx:hr>
          </gpxtpx:TrackPointExtension>
        </extensions>
      </trkpt>
      <trkpt lat="50.49068" lon="2.58577">
        <ele>44</ele>
        <time>2021-06-24T18:15:23Z</time>
        <extensions>
          <gpxtpx:TrackPointExtension xmlns:gpxtpx="http://www.garmin.com/xmlschemas/TrackPointExtension/v1">
            <gpxtpx:hr>136</gpxtpx:hr>
          </gpxtpx:TrackPointExtension>
        </extensions>
      </trkpt>
      <trkpt lat="50.49066" lon="2.58573">
        <ele>44</ele>
        <time>2021-06-24T18:15:24Z</time>
        <extensions>
          <gpxtpx:TrackPointExtension xmlns:gpxtpx="http://www.garmin.com/xmlschemas/TrackPointExtension/v1">
            <gpxtpx:hr>137</gpxtpx:hr>
          </gpxtpx:TrackPointExtension>
        </extensions>
      </trkpt>
      <trkpt lat="50.49063" lon="2.58567">
        <ele>44</ele>
        <time>2021-06-24T18:15:25Z</time>
        <extensions>
          <gpxtpx:TrackPointExtension xmlns:gpxtpx="http://www.garmin.com/xmlschemas/TrackPointExtension/v1">
            <gpxtpx:hr>137</gpxtpx:hr>
          </gpxtpx:TrackPointExtension>
        </extensions>
      </trkpt>
      <trkpt lat="50.4906" lon="2.58563">
        <ele>44</ele>
        <time>2021-06-24T18:15:26Z</time>
        <extensions>
          <gpxtpx:TrackPointExtension xmlns:gpxtpx="http://www.garmin.com/xmlschemas/TrackPointExtension/v1">
            <gpxtpx:hr>138</gpxtpx:hr>
          </gpxtpx:TrackPointExtension>
        </extensions>
      </trkpt>
      <trkpt lat="50.49057" lon="2.58558">
        <ele>44.2</ele>
        <time>2021-06-24T18:15:27Z</time>
        <extensions>
          <gpxtpx:TrackPointExtension xmlns:gpxtpx="http://www.garmin.com/xmlschemas/TrackPointExtension/v1">
            <gpxtpx:hr>138</gpxtpx:hr>
          </gpxtpx:TrackPointExtension>
        </extensions>
      </trkpt>
      <trkpt lat="50.49055" lon="2.58553">
        <ele>44.2</ele>
        <time>2021-06-24T18:15:28Z</time>
        <extensions>
          <gpxtpx:TrackPointExtension xmlns:gpxtpx="http://www.garmin.com/xmlschemas/TrackPointExtension/v1">
            <gpxtpx:hr>139</gpxtpx:hr>
          </gpxtpx:TrackPointExtension>
        </extensions>
      </trkpt>
      <trkpt lat="50.49052" lon="2.58548">
        <ele>44.2</ele>
        <time>2021-06-24T18:15:29Z</time>
        <extensions>
          <gpxtpx:TrackPointExtension xmlns:gpxtpx="http://www.garmin.com/xmlschemas/TrackPointExtension/v1">
            <gpxtpx:hr>140</gpxtpx:hr>
          </gpxtpx:TrackPointExtension>
        </extensions>
      </trkpt>
      <trkpt lat="50.49049" lon="2.58543">
        <ele>44.2</ele>
        <time>2021-06-24T18:15:30Z</time>
        <extensions>
          <gpxtpx:TrackPointExtension xmlns:gpxtpx="http://www.garmin.com/xmlschemas/TrackPointExtension/v1">
            <gpxtpx:hr>140</gpxtpx:hr>
          </gpxtpx:TrackPointExtension>
        </extensions>
      </trkpt>
      <trkpt lat="50.49047" lon="2.58538">
        <ele>44.2</ele>
        <time>2021-06-24T18:15:31Z</time>
        <extensions>
          <gpxtpx:TrackPointExtension xmlns:gpxtpx="http://www.garmin.com/xmlschemas/TrackPointExtension/v1">
            <gpxtpx:hr>140</gpxtpx:hr>
          </gpxtpx:TrackPointExtension>
        </extensions>
      </trkpt>
      <trkpt lat="50.49044" lon="2.58533">
        <ele>44.4</ele>
        <time>2021-06-24T18:15:32Z</time>
        <extensions>
          <gpxtpx:TrackPointExtension xmlns:gpxtpx="http://www.garmin.com/xmlschemas/TrackPointExtension/v1">
            <gpxtpx:hr>140</gpxtpx:hr>
          </gpxtpx:TrackPointExtension>
        </extensions>
      </trkpt>
      <trkpt lat="50.49042" lon="2.58528">
        <ele>44.4</ele>
        <time>2021-06-24T18:15:33Z</time>
        <extensions>
          <gpxtpx:TrackPointExtension xmlns:gpxtpx="http://www.garmin.com/xmlschemas/TrackPointExtension/v1">
            <gpxtpx:hr>140</gpxtpx:hr>
          </gpxtpx:TrackPointExtension>
        </extensions>
      </trkpt>
      <trkpt lat="50.4904" lon="2.58523">
        <ele>44.4</ele>
        <time>2021-06-24T18:15:34Z</time>
        <extensions>
          <gpxtpx:TrackPointExtension xmlns:gpxtpx="http://www.garmin.com/xmlschemas/TrackPointExtension/v1">
            <gpxtpx:hr>139</gpxtpx:hr>
          </gpxtpx:TrackPointExtension>
        </extensions>
      </trkpt>
      <trkpt lat="50.49037" lon="2.58517">
        <ele>44.2</ele>
        <time>2021-06-24T18:15:35Z</time>
        <extensions>
          <gpxtpx:TrackPointExtension xmlns:gpxtpx="http://www.garmin.com/xmlschemas/TrackPointExtension/v1">
            <gpxtpx:hr>139</gpxtpx:hr>
          </gpxtpx:TrackPointExtension>
        </extensions>
      </trkpt>
      <trkpt lat="50.49036" lon="2.58512">
        <ele>44.2</ele>
        <time>2021-06-24T18:15:36Z</time>
        <extensions>
          <gpxtpx:TrackPointExtension xmlns:gpxtpx="http://www.garmin.com/xmlschemas/TrackPointExtension/v1">
            <gpxtpx:hr>138</gpxtpx:hr>
          </gpxtpx:TrackPointExtension>
        </extensions>
      </trkpt>
      <trkpt lat="50.49034" lon="2.58506">
        <ele>44.2</ele>
        <time>2021-06-24T18:15:37Z</time>
        <extensions>
          <gpxtpx:TrackPointExtension xmlns:gpxtpx="http://www.garmin.com/xmlschemas/TrackPointExtension/v1">
            <gpxtpx:hr>137</gpxtpx:hr>
          </gpxtpx:TrackPointExtension>
        </extensions>
      </trkpt>
      <trkpt lat="50.49033" lon="2.585">
        <ele>44.4</ele>
        <time>2021-06-24T18:15:38Z</time>
        <extensions>
          <gpxtpx:TrackPointExtension xmlns:gpxtpx="http://www.garmin.com/xmlschemas/TrackPointExtension/v1">
            <gpxtpx:hr>137</gpxtpx:hr>
          </gpxtpx:TrackPointExtension>
        </extensions>
      </trkpt>
      <trkpt lat="50.49032" lon="2.58494">
        <ele>44.6</ele>
        <time>2021-06-24T18:15:39Z</time>
        <extensions>
          <gpxtpx:TrackPointExtension xmlns:gpxtpx="http://www.garmin.com/xmlschemas/TrackPointExtension/v1">
            <gpxtpx:hr>137</gpxtpx:hr>
          </gpxtpx:TrackPointExtension>
        </extensions>
      </trkpt>
      <trkpt lat="50.49031" lon="2.58488">
        <ele>44.6</ele>
        <time>2021-06-24T18:15:40Z</time>
        <extensions>
          <gpxtpx:TrackPointExtension xmlns:gpxtpx="http://www.garmin.com/xmlschemas/TrackPointExtension/v1">
            <gpxtpx:hr>138</gpxtpx:hr>
          </gpxtpx:TrackPointExtension>
        </extensions>
      </trkpt>
      <trkpt lat="50.4903" lon="2.58482">
        <ele>44.8</ele>
        <time>2021-06-24T18:15:41Z</time>
        <extensions>
          <gpxtpx:TrackPointExtension xmlns:gpxtpx="http://www.garmin.com/xmlschemas/TrackPointExtension/v1">
            <gpxtpx:hr>138</gpxtpx:hr>
          </gpxtpx:TrackPointExtension>
        </extensions>
      </trkpt>
      <trkpt lat="50.49029" lon="2.58477">
        <ele>45</ele>
        <time>2021-06-24T18:15:42Z</time>
        <extensions>
          <gpxtpx:TrackPointExtension xmlns:gpxtpx="http://www.garmin.com/xmlschemas/TrackPointExtension/v1">
            <gpxtpx:hr>140</gpxtpx:hr>
          </gpxtpx:TrackPointExtension>
        </extensions>
      </trkpt>
      <trkpt lat="50.49029" lon="2.5847">
        <ele>45</ele>
        <time>2021-06-24T18:15:43Z</time>
        <extensions>
          <gpxtpx:TrackPointExtension xmlns:gpxtpx="http://www.garmin.com/xmlschemas/TrackPointExtension/v1">
            <gpxtpx:hr>141</gpxtpx:hr>
          </gpxtpx:TrackPointExtension>
        </extensions>
      </trkpt>
      <trkpt lat="50.49028" lon="2.58464">
        <ele>45</ele>
        <time>2021-06-24T18:15:44Z</time>
        <extensions>
          <gpxtpx:TrackPointExtension xmlns:gpxtpx="http://www.garmin.com/xmlschemas/TrackPointExtension/v1">
            <gpxtpx:hr>143</gpxtpx:hr>
          </gpxtpx:TrackPointExtension>
        </extensions>
      </trkpt>
      <trkpt lat="50.49028" lon="2.58458">
        <ele>45.2</ele>
        <time>2021-06-24T18:15:45Z</time>
        <extensions>
          <gpxtpx:TrackPointExtension xmlns:gpxtpx="http://www.garmin.com/xmlschemas/TrackPointExtension/v1">
            <gpxtpx:hr>144</gpxtpx:hr>
          </gpxtpx:TrackPointExtension>
        </extensions>
      </trkpt>
      <trkpt lat="50.49027" lon="2.58452">
        <ele>45.2</ele>
        <time>2021-06-24T18:15:46Z</time>
        <extensions>
          <gpxtpx:TrackPointExtension xmlns:gpxtpx="http://www.garmin.com/xmlschemas/TrackPointExtension/v1">
            <gpxtpx:hr>145</gpxtpx:hr>
          </gpxtpx:TrackPointExtension>
        </extensions>
      </trkpt>
      <trkpt lat="50.49025" lon="2.58446">
        <ele>45.2</ele>
        <time>2021-06-24T18:15:47Z</time>
        <extensions>
          <gpxtpx:TrackPointExtension xmlns:gpxtpx="http://www.garmin.com/xmlschemas/TrackPointExtension/v1">
            <gpxtpx:hr>145</gpxtpx:hr>
          </gpxtpx:TrackPointExtension>
        </extensions>
      </trkpt>
      <trkpt lat="50.49024" lon="2.58441">
        <ele>45.2</ele>
        <time>2021-06-24T18:15:48Z</time>
        <extensions>
          <gpxtpx:TrackPointExtension xmlns:gpxtpx="http://www.garmin.com/xmlschemas/TrackPointExtension/v1">
            <gpxtpx:hr>145</gpxtpx:hr>
          </gpxtpx:TrackPointExtension>
        </extensions>
      </trkpt>
      <trkpt lat="50.49022" lon="2.58435">
        <ele>45.2</ele>
        <time>2021-06-24T18:15:49Z</time>
        <extensions>
          <gpxtpx:TrackPointExtension xmlns:gpxtpx="http://www.garmin.com/xmlschemas/TrackPointExtension/v1">
            <gpxtpx:hr>145</gpxtpx:hr>
          </gpxtpx:TrackPointExtension>
        </extensions>
      </trkpt>
      <trkpt lat="50.4902" lon="2.58429">
        <ele>45</ele>
        <time>2021-06-24T18:15:50Z</time>
        <extensions>
          <gpxtpx:TrackPointExtension xmlns:gpxtpx="http://www.garmin.com/xmlschemas/TrackPointExtension/v1">
            <gpxtpx:hr>145</gpxtpx:hr>
          </gpxtpx:TrackPointExtension>
        </extensions>
      </trkpt>
      <trkpt lat="50.49019" lon="2.58423">
        <ele>45</ele>
        <time>2021-06-24T18:15:51Z</time>
        <extensions>
          <gpxtpx:TrackPointExtension xmlns:gpxtpx="http://www.garmin.com/xmlschemas/TrackPointExtension/v1">
            <gpxtpx:hr>145</gpxtpx:hr>
          </gpxtpx:TrackPointExtension>
        </extensions>
      </trkpt>
      <trkpt lat="50.49017" lon="2.58417">
        <ele>45</ele>
        <time>2021-06-24T18:15:52Z</time>
        <extensions>
          <gpxtpx:TrackPointExtension xmlns:gpxtpx="http://www.garmin.com/xmlschemas/TrackPointExtension/v1">
            <gpxtpx:hr>145</gpxtpx:hr>
          </gpxtpx:TrackPointExtension>
        </extensions>
      </trkpt>
      <trkpt lat="50.49015" lon="2.58411">
        <ele>45</ele>
        <time>2021-06-24T18:15:53Z</time>
        <extensions>
          <gpxtpx:TrackPointExtension xmlns:gpxtpx="http://www.garmin.com/xmlschemas/TrackPointExtension/v1">
            <gpxtpx:hr>145</gpxtpx:hr>
          </gpxtpx:TrackPointExtension>
        </extensions>
      </trkpt>
      <trkpt lat="50.49013" lon="2.58406">
        <ele>45</ele>
        <time>2021-06-24T18:15:54Z</time>
        <extensions>
          <gpxtpx:TrackPointExtension xmlns:gpxtpx="http://www.garmin.com/xmlschemas/TrackPointExtension/v1">
            <gpxtpx:hr>146</gpxtpx:hr>
          </gpxtpx:TrackPointExtension>
        </extensions>
      </trkpt>
      <trkpt lat="50.49012" lon="2.58399">
        <ele>45</ele>
        <time>2021-06-24T18:15:55Z</time>
        <extensions>
          <gpxtpx:TrackPointExtension xmlns:gpxtpx="http://www.garmin.com/xmlschemas/TrackPointExtension/v1">
            <gpxtpx:hr>146</gpxtpx:hr>
          </gpxtpx:TrackPointExtension>
        </extensions>
      </trkpt>
      <trkpt lat="50.49011" lon="2.58393">
        <ele>45</ele>
        <time>2021-06-24T18:15:56Z</time>
        <extensions>
          <gpxtpx:TrackPointExtension xmlns:gpxtpx="http://www.garmin.com/xmlschemas/TrackPointExtension/v1">
            <gpxtpx:hr>147</gpxtpx:hr>
          </gpxtpx:TrackPointExtension>
        </extensions>
      </trkpt>
      <trkpt lat="50.49009" lon="2.58387">
        <ele>45</ele>
        <time>2021-06-24T18:15:57Z</time>
        <extensions>
          <gpxtpx:TrackPointExtension xmlns:gpxtpx="http://www.garmin.com/xmlschemas/TrackPointExtension/v1">
            <gpxtpx:hr>147</gpxtpx:hr>
          </gpxtpx:TrackPointExtension>
        </extensions>
      </trkpt>
      <trkpt lat="50.49008" lon="2.58381">
        <ele>45</ele>
        <time>2021-06-24T18:15:58Z</time>
        <extensions>
          <gpxtpx:TrackPointExtension xmlns:gpxtpx="http://www.garmin.com/xmlschemas/TrackPointExtension/v1">
            <gpxtpx:hr>148</gpxtpx:hr>
          </gpxtpx:TrackPointExtension>
        </extensions>
      </trkpt>
      <trkpt lat="50.49007" lon="2.58375">
        <ele>45</ele>
        <time>2021-06-24T18:15:59Z</time>
        <extensions>
          <gpxtpx:TrackPointExtension xmlns:gpxtpx="http://www.garmin.com/xmlschemas/TrackPointExtension/v1">
            <gpxtpx:hr>148</gpxtpx:hr>
          </gpxtpx:TrackPointExtension>
        </extensions>
      </trkpt>
      <trkpt lat="50.49005" lon="2.58369">
        <ele>45.2</ele>
        <time>2021-06-24T18:16:00Z</time>
        <extensions>
          <gpxtpx:TrackPointExtension xmlns:gpxtpx="http://www.garmin.com/xmlschemas/TrackPointExtension/v1">
            <gpxtpx:hr>148</gpxtpx:hr>
          </gpxtpx:TrackPointExtension>
        </extensions>
      </trkpt>
      <trkpt lat="50.49004" lon="2.58363">
        <ele>45.2</ele>
        <time>2021-06-24T18:16:01Z</time>
        <extensions>
          <gpxtpx:TrackPointExtension xmlns:gpxtpx="http://www.garmin.com/xmlschemas/TrackPointExtension/v1">
            <gpxtpx:hr>148</gpxtpx:hr>
          </gpxtpx:TrackPointExtension>
        </extensions>
      </trkpt>
      <trkpt lat="50.49003" lon="2.58357">
        <ele>45.2</ele>
        <time>2021-06-24T18:16:02Z</time>
        <extensions>
          <gpxtpx:TrackPointExtension xmlns:gpxtpx="http://www.garmin.com/xmlschemas/TrackPointExtension/v1">
            <gpxtpx:hr>148</gpxtpx:hr>
          </gpxtpx:TrackPointExtension>
        </extensions>
      </trkpt>
      <trkpt lat="50.49003" lon="2.58351">
        <ele>45.4</ele>
        <time>2021-06-24T18:16:03Z</time>
        <extensions>
          <gpxtpx:TrackPointExtension xmlns:gpxtpx="http://www.garmin.com/xmlschemas/TrackPointExtension/v1">
            <gpxtpx:hr>149</gpxtpx:hr>
          </gpxtpx:TrackPointExtension>
        </extensions>
      </trkpt>
      <trkpt lat="50.49001" lon="2.58344">
        <ele>45.4</ele>
        <time>2021-06-24T18:16:04Z</time>
        <extensions>
          <gpxtpx:TrackPointExtension xmlns:gpxtpx="http://www.garmin.com/xmlschemas/TrackPointExtension/v1">
            <gpxtpx:hr>149</gpxtpx:hr>
          </gpxtpx:TrackPointExtension>
        </extensions>
      </trkpt>
      <trkpt lat="50.49" lon="2.58338">
        <ele>45.6</ele>
        <time>2021-06-24T18:16:05Z</time>
        <extensions>
          <gpxtpx:TrackPointExtension xmlns:gpxtpx="http://www.garmin.com/xmlschemas/TrackPointExtension/v1">
            <gpxtpx:hr>150</gpxtpx:hr>
          </gpxtpx:TrackPointExtension>
        </extensions>
      </trkpt>
      <trkpt lat="50.49" lon="2.58331">
        <ele>45.6</ele>
        <time>2021-06-24T18:16:06Z</time>
        <extensions>
          <gpxtpx:TrackPointExtension xmlns:gpxtpx="http://www.garmin.com/xmlschemas/TrackPointExtension/v1">
            <gpxtpx:hr>151</gpxtpx:hr>
          </gpxtpx:TrackPointExtension>
        </extensions>
      </trkpt>
      <trkpt lat="50.48999" lon="2.58325">
        <ele>45.8</ele>
        <time>2021-06-24T18:16:07Z</time>
        <extensions>
          <gpxtpx:TrackPointExtension xmlns:gpxtpx="http://www.garmin.com/xmlschemas/TrackPointExtension/v1">
            <gpxtpx:hr>152</gpxtpx:hr>
          </gpxtpx:TrackPointExtension>
        </extensions>
      </trkpt>
      <trkpt lat="50.48998" lon="2.58318">
        <ele>45.8</ele>
        <time>2021-06-24T18:16:08Z</time>
        <extensions>
          <gpxtpx:TrackPointExtension xmlns:gpxtpx="http://www.garmin.com/xmlschemas/TrackPointExtension/v1">
            <gpxtpx:hr>152</gpxtpx:hr>
          </gpxtpx:TrackPointExtension>
        </extensions>
      </trkpt>
      <trkpt lat="50.48997" lon="2.58312">
        <ele>45.8</ele>
        <time>2021-06-24T18:16:09Z</time>
        <extensions>
          <gpxtpx:TrackPointExtension xmlns:gpxtpx="http://www.garmin.com/xmlschemas/TrackPointExtension/v1">
            <gpxtpx:hr>153</gpxtpx:hr>
          </gpxtpx:TrackPointExtension>
        </extensions>
      </trkpt>
      <trkpt lat="50.48996" lon="2.58305">
        <ele>45.8</ele>
        <time>2021-06-24T18:16:10Z</time>
        <extensions>
          <gpxtpx:TrackPointExtension xmlns:gpxtpx="http://www.garmin.com/xmlschemas/TrackPointExtension/v1">
            <gpxtpx:hr>153</gpxtpx:hr>
          </gpxtpx:TrackPointExtension>
        </extensions>
      </trkpt>
      <trkpt lat="50.48995" lon="2.58298">
        <ele>45.8</ele>
        <time>2021-06-24T18:16:11Z</time>
        <extensions>
          <gpxtpx:TrackPointExtension xmlns:gpxtpx="http://www.garmin.com/xmlschemas/TrackPointExtension/v1">
            <gpxtpx:hr>153</gpxtpx:hr>
          </gpxtpx:TrackPointExtension>
        </extensions>
      </trkpt>
      <trkpt lat="50.48994" lon="2.58292">
        <ele>46</ele>
        <time>2021-06-24T18:16:12Z</time>
        <extensions>
          <gpxtpx:TrackPointExtension xmlns:gpxtpx="http://www.garmin.com/xmlschemas/TrackPointExtension/v1">
            <gpxtpx:hr>153</gpxtpx:hr>
          </gpxtpx:TrackPointExtension>
        </extensions>
      </trkpt>
      <trkpt lat="50.48993" lon="2.58285">
        <ele>46</ele>
        <time>2021-06-24T18:16:13Z</time>
        <extensions>
          <gpxtpx:TrackPointExtension xmlns:gpxtpx="http://www.garmin.com/xmlschemas/TrackPointExtension/v1">
            <gpxtpx:hr>153</gpxtpx:hr>
          </gpxtpx:TrackPointExtension>
        </extensions>
      </trkpt>
      <trkpt lat="50.48992" lon="2.58279">
        <ele>46</ele>
        <time>2021-06-24T18:16:14Z</time>
        <extensions>
          <gpxtpx:TrackPointExtension xmlns:gpxtpx="http://www.garmin.com/xmlschemas/TrackPointExtension/v1">
            <gpxtpx:hr>153</gpxtpx:hr>
          </gpxtpx:TrackPointExtension>
        </extensions>
      </trkpt>
      <trkpt lat="50.48991" lon="2.58273">
        <ele>46</ele>
        <time>2021-06-24T18:16:15Z</time>
        <extensions>
          <gpxtpx:TrackPointExtension xmlns:gpxtpx="http://www.garmin.com/xmlschemas/TrackPointExtension/v1">
            <gpxtpx:hr>153</gpxtpx:hr>
          </gpxtpx:TrackPointExtension>
        </extensions>
      </trkpt>
      <trkpt lat="50.4899" lon="2.58267">
        <ele>46</ele>
        <time>2021-06-24T18:16:16Z</time>
        <extensions>
          <gpxtpx:TrackPointExtension xmlns:gpxtpx="http://www.garmin.com/xmlschemas/TrackPointExtension/v1">
            <gpxtpx:hr>153</gpxtpx:hr>
          </gpxtpx:TrackPointExtension>
        </extensions>
      </trkpt>
      <trkpt lat="50.48989" lon="2.58261">
        <ele>46</ele>
        <time>2021-06-24T18:16:17Z</time>
        <extensions>
          <gpxtpx:TrackPointExtension xmlns:gpxtpx="http://www.garmin.com/xmlschemas/TrackPointExtension/v1">
            <gpxtpx:hr>153</gpxtpx:hr>
          </gpxtpx:TrackPointExtension>
        </extensions>
      </trkpt>
      <trkpt lat="50.48988" lon="2.58255">
        <ele>46</ele>
        <time>2021-06-24T18:16:18Z</time>
        <extensions>
          <gpxtpx:TrackPointExtension xmlns:gpxtpx="http://www.garmin.com/xmlschemas/TrackPointExtension/v1">
            <gpxtpx:hr>154</gpxtpx:hr>
          </gpxtpx:TrackPointExtension>
        </extensions>
      </trkpt>
      <trkpt lat="50.48988" lon="2.58248">
        <ele>46.2</ele>
        <time>2021-06-24T18:16:19Z</time>
        <extensions>
          <gpxtpx:TrackPointExtension xmlns:gpxtpx="http://www.garmin.com/xmlschemas/TrackPointExtension/v1">
            <gpxtpx:hr>154</gpxtpx:hr>
          </gpxtpx:TrackPointExtension>
        </extensions>
      </trkpt>
      <trkpt lat="50.48987" lon="2.58242">
        <ele>46.4</ele>
        <time>2021-06-24T18:16:20Z</time>
        <extensions>
          <gpxtpx:TrackPointExtension xmlns:gpxtpx="http://www.garmin.com/xmlschemas/TrackPointExtension/v1">
            <gpxtpx:hr>154</gpxtpx:hr>
          </gpxtpx:TrackPointExtension>
        </extensions>
      </trkpt>
      <trkpt lat="50.48985" lon="2.58235">
        <ele>46.6</ele>
        <time>2021-06-24T18:16:21Z</time>
        <extensions>
          <gpxtpx:TrackPointExtension xmlns:gpxtpx="http://www.garmin.com/xmlschemas/TrackPointExtension/v1">
            <gpxtpx:hr>154</gpxtpx:hr>
          </gpxtpx:TrackPointExtension>
        </extensions>
      </trkpt>
      <trkpt lat="50.48984" lon="2.58228">
        <ele>46.8</ele>
        <time>2021-06-24T18:16:22Z</time>
        <extensions>
          <gpxtpx:TrackPointExtension xmlns:gpxtpx="http://www.garmin.com/xmlschemas/TrackPointExtension/v1">
            <gpxtpx:hr>154</gpxtpx:hr>
          </gpxtpx:TrackPointExtension>
        </extensions>
      </trkpt>
      <trkpt lat="50.48983" lon="2.58222">
        <ele>47</ele>
        <time>2021-06-24T18:16:23Z</time>
        <extensions>
          <gpxtpx:TrackPointExtension xmlns:gpxtpx="http://www.garmin.com/xmlschemas/TrackPointExtension/v1">
            <gpxtpx:hr>154</gpxtpx:hr>
          </gpxtpx:TrackPointExtension>
        </extensions>
      </trkpt>
      <trkpt lat="50.48982" lon="2.58215">
        <ele>47</ele>
        <time>2021-06-24T18:16:24Z</time>
        <extensions>
          <gpxtpx:TrackPointExtension xmlns:gpxtpx="http://www.garmin.com/xmlschemas/TrackPointExtension/v1">
            <gpxtpx:hr>153</gpxtpx:hr>
          </gpxtpx:TrackPointExtension>
        </extensions>
      </trkpt>
      <trkpt lat="50.48981" lon="2.58208">
        <ele>47</ele>
        <time>2021-06-24T18:16:25Z</time>
        <extensions>
          <gpxtpx:TrackPointExtension xmlns:gpxtpx="http://www.garmin.com/xmlschemas/TrackPointExtension/v1">
            <gpxtpx:hr>153</gpxtpx:hr>
          </gpxtpx:TrackPointExtension>
        </extensions>
      </trkpt>
      <trkpt lat="50.4898" lon="2.58202">
        <ele>47.2</ele>
        <time>2021-06-24T18:16:26Z</time>
        <extensions>
          <gpxtpx:TrackPointExtension xmlns:gpxtpx="http://www.garmin.com/xmlschemas/TrackPointExtension/v1">
            <gpxtpx:hr>153</gpxtpx:hr>
          </gpxtpx:TrackPointExtension>
        </extensions>
      </trkpt>
      <trkpt lat="50.48979" lon="2.58195">
        <ele>47.2</ele>
        <time>2021-06-24T18:16:27Z</time>
        <extensions>
          <gpxtpx:TrackPointExtension xmlns:gpxtpx="http://www.garmin.com/xmlschemas/TrackPointExtension/v1">
            <gpxtpx:hr>153</gpxtpx:hr>
          </gpxtpx:TrackPointExtension>
        </extensions>
      </trkpt>
      <trkpt lat="50.48978" lon="2.58188">
        <ele>47.2</ele>
        <time>2021-06-24T18:16:28Z</time>
        <extensions>
          <gpxtpx:TrackPointExtension xmlns:gpxtpx="http://www.garmin.com/xmlschemas/TrackPointExtension/v1">
            <gpxtpx:hr>152</gpxtpx:hr>
          </gpxtpx:TrackPointExtension>
        </extensions>
      </trkpt>
      <trkpt lat="50.48977" lon="2.58182">
        <ele>47.4</ele>
        <time>2021-06-24T18:16:29Z</time>
        <extensions>
          <gpxtpx:TrackPointExtension xmlns:gpxtpx="http://www.garmin.com/xmlschemas/TrackPointExtension/v1">
            <gpxtpx:hr>152</gpxtpx:hr>
          </gpxtpx:TrackPointExtension>
        </extensions>
      </trkpt>
      <trkpt lat="50.48976" lon="2.58176">
        <ele>47.4</ele>
        <time>2021-06-24T18:16:30Z</time>
        <extensions>
          <gpxtpx:TrackPointExtension xmlns:gpxtpx="http://www.garmin.com/xmlschemas/TrackPointExtension/v1">
            <gpxtpx:hr>152</gpxtpx:hr>
          </gpxtpx:TrackPointExtension>
        </extensions>
      </trkpt>
      <trkpt lat="50.48975" lon="2.5817">
        <ele>47.4</ele>
        <time>2021-06-24T18:16:31Z</time>
        <extensions>
          <gpxtpx:TrackPointExtension xmlns:gpxtpx="http://www.garmin.com/xmlschemas/TrackPointExtension/v1">
            <gpxtpx:hr>152</gpxtpx:hr>
          </gpxtpx:TrackPointExtension>
        </extensions>
      </trkpt>
      <trkpt lat="50.48974" lon="2.58163">
        <ele>47.4</ele>
        <time>2021-06-24T18:16:32Z</time>
        <extensions>
          <gpxtpx:TrackPointExtension xmlns:gpxtpx="http://www.garmin.com/xmlschemas/TrackPointExtension/v1">
            <gpxtpx:hr>152</gpxtpx:hr>
          </gpxtpx:TrackPointExtension>
        </extensions>
      </trkpt>
      <trkpt lat="50.48973" lon="2.58157">
        <ele>47.4</ele>
        <time>2021-06-24T18:16:33Z</time>
        <extensions>
          <gpxtpx:TrackPointExtension xmlns:gpxtpx="http://www.garmin.com/xmlschemas/TrackPointExtension/v1">
            <gpxtpx:hr>153</gpxtpx:hr>
          </gpxtpx:TrackPointExtension>
        </extensions>
      </trkpt>
      <trkpt lat="50.48972" lon="2.5815">
        <ele>47.4</ele>
        <time>2021-06-24T18:16:34Z</time>
        <extensions>
          <gpxtpx:TrackPointExtension xmlns:gpxtpx="http://www.garmin.com/xmlschemas/TrackPointExtension/v1">
            <gpxtpx:hr>154</gpxtpx:hr>
          </gpxtpx:TrackPointExtension>
        </extensions>
      </trkpt>
      <trkpt lat="50.48971" lon="2.58144">
        <ele>47.4</ele>
        <time>2021-06-24T18:16:35Z</time>
        <extensions>
          <gpxtpx:TrackPointExtension xmlns:gpxtpx="http://www.garmin.com/xmlschemas/TrackPointExtension/v1">
            <gpxtpx:hr>154</gpxtpx:hr>
          </gpxtpx:TrackPointExtension>
        </extensions>
      </trkpt>
      <trkpt lat="50.4897" lon="2.58138">
        <ele>47.6</ele>
        <time>2021-06-24T18:16:36Z</time>
        <extensions>
          <gpxtpx:TrackPointExtension xmlns:gpxtpx="http://www.garmin.com/xmlschemas/TrackPointExtension/v1">
            <gpxtpx:hr>155</gpxtpx:hr>
          </gpxtpx:TrackPointExtension>
        </extensions>
      </trkpt>
      <trkpt lat="50.48969" lon="2.58132">
        <ele>47.6</ele>
        <time>2021-06-24T18:16:37Z</time>
        <extensions>
          <gpxtpx:TrackPointExtension xmlns:gpxtpx="http://www.garmin.com/xmlschemas/TrackPointExtension/v1">
            <gpxtpx:hr>156</gpxtpx:hr>
          </gpxtpx:TrackPointExtension>
        </extensions>
      </trkpt>
      <trkpt lat="50.48968" lon="2.58125">
        <ele>47.6</ele>
        <time>2021-06-24T18:16:38Z</time>
        <extensions>
          <gpxtpx:TrackPointExtension xmlns:gpxtpx="http://www.garmin.com/xmlschemas/TrackPointExtension/v1">
            <gpxtpx:hr>157</gpxtpx:hr>
          </gpxtpx:TrackPointExtension>
        </extensions>
      </trkpt>
      <trkpt lat="50.48967" lon="2.58119">
        <ele>47.8</ele>
        <time>2021-06-24T18:16:39Z</time>
        <extensions>
          <gpxtpx:TrackPointExtension xmlns:gpxtpx="http://www.garmin.com/xmlschemas/TrackPointExtension/v1">
            <gpxtpx:hr>157</gpxtpx:hr>
          </gpxtpx:TrackPointExtension>
        </extensions>
      </trkpt>
      <trkpt lat="50.48966" lon="2.58112">
        <ele>47.8</ele>
        <time>2021-06-24T18:16:40Z</time>
        <extensions>
          <gpxtpx:TrackPointExtension xmlns:gpxtpx="http://www.garmin.com/xmlschemas/TrackPointExtension/v1">
            <gpxtpx:hr>157</gpxtpx:hr>
          </gpxtpx:TrackPointExtension>
        </extensions>
      </trkpt>
      <trkpt lat="50.48965" lon="2.58105">
        <ele>48</ele>
        <time>2021-06-24T18:16:41Z</time>
        <extensions>
          <gpxtpx:TrackPointExtension xmlns:gpxtpx="http://www.garmin.com/xmlschemas/TrackPointExtension/v1">
            <gpxtpx:hr>156</gpxtpx:hr>
          </gpxtpx:TrackPointExtension>
        </extensions>
      </trkpt>
      <trkpt lat="50.48965" lon="2.58099">
        <ele>48</ele>
        <time>2021-06-24T18:16:42Z</time>
        <extensions>
          <gpxtpx:TrackPointExtension xmlns:gpxtpx="http://www.garmin.com/xmlschemas/TrackPointExtension/v1">
            <gpxtpx:hr>156</gpxtpx:hr>
          </gpxtpx:TrackPointExtension>
        </extensions>
      </trkpt>
      <trkpt lat="50.48964" lon="2.58092">
        <ele>48</ele>
        <time>2021-06-24T18:16:43Z</time>
        <extensions>
          <gpxtpx:TrackPointExtension xmlns:gpxtpx="http://www.garmin.com/xmlschemas/TrackPointExtension/v1">
            <gpxtpx:hr>156</gpxtpx:hr>
          </gpxtpx:TrackPointExtension>
        </extensions>
      </trkpt>
      <trkpt lat="50.48963" lon="2.58086">
        <ele>48.2</ele>
        <time>2021-06-24T18:16:44Z</time>
        <extensions>
          <gpxtpx:TrackPointExtension xmlns:gpxtpx="http://www.garmin.com/xmlschemas/TrackPointExtension/v1">
            <gpxtpx:hr>156</gpxtpx:hr>
          </gpxtpx:TrackPointExtension>
        </extensions>
      </trkpt>
      <trkpt lat="50.48963" lon="2.58079">
        <ele>48.2</ele>
        <time>2021-06-24T18:16:45Z</time>
        <extensions>
          <gpxtpx:TrackPointExtension xmlns:gpxtpx="http://www.garmin.com/xmlschemas/TrackPointExtension/v1">
            <gpxtpx:hr>155</gpxtpx:hr>
          </gpxtpx:TrackPointExtension>
        </extensions>
      </trkpt>
      <trkpt lat="50.48962" lon="2.58073">
        <ele>48.2</ele>
        <time>2021-06-24T18:16:46Z</time>
        <extensions>
          <gpxtpx:TrackPointExtension xmlns:gpxtpx="http://www.garmin.com/xmlschemas/TrackPointExtension/v1">
            <gpxtpx:hr>155</gpxtpx:hr>
          </gpxtpx:TrackPointExtension>
        </extensions>
      </trkpt>
      <trkpt lat="50.48961" lon="2.58066">
        <ele>48.2</ele>
        <time>2021-06-24T18:16:47Z</time>
        <extensions>
          <gpxtpx:TrackPointExtension xmlns:gpxtpx="http://www.garmin.com/xmlschemas/TrackPointExtension/v1">
            <gpxtpx:hr>154</gpxtpx:hr>
          </gpxtpx:TrackPointExtension>
        </extensions>
      </trkpt>
      <trkpt lat="50.4896" lon="2.58059">
        <ele>48.4</ele>
        <time>2021-06-24T18:16:48Z</time>
        <extensions>
          <gpxtpx:TrackPointExtension xmlns:gpxtpx="http://www.garmin.com/xmlschemas/TrackPointExtension/v1">
            <gpxtpx:hr>154</gpxtpx:hr>
          </gpxtpx:TrackPointExtension>
        </extensions>
      </trkpt>
      <trkpt lat="50.48959" lon="2.58052">
        <ele>48.4</ele>
        <time>2021-06-24T18:16:49Z</time>
        <extensions>
          <gpxtpx:TrackPointExtension xmlns:gpxtpx="http://www.garmin.com/xmlschemas/TrackPointExtension/v1">
            <gpxtpx:hr>153</gpxtpx:hr>
          </gpxtpx:TrackPointExtension>
        </extensions>
      </trkpt>
      <trkpt lat="50.48959" lon="2.58045">
        <ele>48.4</ele>
        <time>2021-06-24T18:16:50Z</time>
        <extensions>
          <gpxtpx:TrackPointExtension xmlns:gpxtpx="http://www.garmin.com/xmlschemas/TrackPointExtension/v1">
            <gpxtpx:hr>153</gpxtpx:hr>
          </gpxtpx:TrackPointExtension>
        </extensions>
      </trkpt>
      <trkpt lat="50.48958" lon="2.58039">
        <ele>48.6</ele>
        <time>2021-06-24T18:16:51Z</time>
        <extensions>
          <gpxtpx:TrackPointExtension xmlns:gpxtpx="http://www.garmin.com/xmlschemas/TrackPointExtension/v1">
            <gpxtpx:hr>152</gpxtpx:hr>
          </gpxtpx:TrackPointExtension>
        </extensions>
      </trkpt>
      <trkpt lat="50.48957" lon="2.58032">
        <ele>48.6</ele>
        <time>2021-06-24T18:16:52Z</time>
        <extensions>
          <gpxtpx:TrackPointExtension xmlns:gpxtpx="http://www.garmin.com/xmlschemas/TrackPointExtension/v1">
            <gpxtpx:hr>152</gpxtpx:hr>
          </gpxtpx:TrackPointExtension>
        </extensions>
      </trkpt>
      <trkpt lat="50.48956" lon="2.58025">
        <ele>48.8</ele>
        <time>2021-06-24T18:16:53Z</time>
        <extensions>
          <gpxtpx:TrackPointExtension xmlns:gpxtpx="http://www.garmin.com/xmlschemas/TrackPointExtension/v1">
            <gpxtpx:hr>151</gpxtpx:hr>
          </gpxtpx:TrackPointExtension>
        </extensions>
      </trkpt>
      <trkpt lat="50.48956" lon="2.58018">
        <ele>48.8</ele>
        <time>2021-06-24T18:16:54Z</time>
        <extensions>
          <gpxtpx:TrackPointExtension xmlns:gpxtpx="http://www.garmin.com/xmlschemas/TrackPointExtension/v1">
            <gpxtpx:hr>151</gpxtpx:hr>
          </gpxtpx:TrackPointExtension>
        </extensions>
      </trkpt>
      <trkpt lat="50.48955" lon="2.58012">
        <ele>49</ele>
        <time>2021-06-24T18:16:55Z</time>
        <extensions>
          <gpxtpx:TrackPointExtension xmlns:gpxtpx="http://www.garmin.com/xmlschemas/TrackPointExtension/v1">
            <gpxtpx:hr>151</gpxtpx:hr>
          </gpxtpx:TrackPointExtension>
        </extensions>
      </trkpt>
      <trkpt lat="50.48955" lon="2.58005">
        <ele>49</ele>
        <time>2021-06-24T18:16:56Z</time>
        <extensions>
          <gpxtpx:TrackPointExtension xmlns:gpxtpx="http://www.garmin.com/xmlschemas/TrackPointExtension/v1">
            <gpxtpx:hr>151</gpxtpx:hr>
          </gpxtpx:TrackPointExtension>
        </extensions>
      </trkpt>
      <trkpt lat="50.48954" lon="2.57998">
        <ele>49.2</ele>
        <time>2021-06-24T18:16:57Z</time>
        <extensions>
          <gpxtpx:TrackPointExtension xmlns:gpxtpx="http://www.garmin.com/xmlschemas/TrackPointExtension/v1">
            <gpxtpx:hr>151</gpxtpx:hr>
          </gpxtpx:TrackPointExtension>
        </extensions>
      </trkpt>
      <trkpt lat="50.48953" lon="2.57992">
        <ele>49.2</ele>
        <time>2021-06-24T18:16:58Z</time>
        <extensions>
          <gpxtpx:TrackPointExtension xmlns:gpxtpx="http://www.garmin.com/xmlschemas/TrackPointExtension/v1">
            <gpxtpx:hr>151</gpxtpx:hr>
          </gpxtpx:TrackPointExtension>
        </extensions>
      </trkpt>
      <trkpt lat="50.48953" lon="2.57985">
        <ele>49.4</ele>
        <time>2021-06-24T18:16:59Z</time>
        <extensions>
          <gpxtpx:TrackPointExtension xmlns:gpxtpx="http://www.garmin.com/xmlschemas/TrackPointExtension/v1">
            <gpxtpx:hr>152</gpxtpx:hr>
          </gpxtpx:TrackPointExtension>
        </extensions>
      </trkpt>
      <trkpt lat="50.48952" lon="2.57978">
        <ele>49.4</ele>
        <time>2021-06-24T18:17:00Z</time>
        <extensions>
          <gpxtpx:TrackPointExtension xmlns:gpxtpx="http://www.garmin.com/xmlschemas/TrackPointExtension/v1">
            <gpxtpx:hr>152</gpxtpx:hr>
          </gpxtpx:TrackPointExtension>
        </extensions>
      </trkpt>
      <trkpt lat="50.48951" lon="2.57971">
        <ele>49.4</ele>
        <time>2021-06-24T18:17:01Z</time>
        <extensions>
          <gpxtpx:TrackPointExtension xmlns:gpxtpx="http://www.garmin.com/xmlschemas/TrackPointExtension/v1">
            <gpxtpx:hr>152</gpxtpx:hr>
          </gpxtpx:TrackPointExtension>
        </extensions>
      </trkpt>
      <trkpt lat="50.48951" lon="2.57964">
        <ele>49.4</ele>
        <time>2021-06-24T18:17:02Z</time>
        <extensions>
          <gpxtpx:TrackPointExtension xmlns:gpxtpx="http://www.garmin.com/xmlschemas/TrackPointExtension/v1">
            <gpxtpx:hr>152</gpxtpx:hr>
          </gpxtpx:TrackPointExtension>
        </extensions>
      </trkpt>
      <trkpt lat="50.4895" lon="2.57958">
        <ele>49.6</ele>
        <time>2021-06-24T18:17:03Z</time>
        <extensions>
          <gpxtpx:TrackPointExtension xmlns:gpxtpx="http://www.garmin.com/xmlschemas/TrackPointExtension/v1">
            <gpxtpx:hr>152</gpxtpx:hr>
          </gpxtpx:TrackPointExtension>
        </extensions>
      </trkpt>
      <trkpt lat="50.48949" lon="2.57951">
        <ele>49.6</ele>
        <time>2021-06-24T18:17:04Z</time>
        <extensions>
          <gpxtpx:TrackPointExtension xmlns:gpxtpx="http://www.garmin.com/xmlschemas/TrackPointExtension/v1">
            <gpxtpx:hr>151</gpxtpx:hr>
          </gpxtpx:TrackPointExtension>
        </extensions>
      </trkpt>
      <trkpt lat="50.48948" lon="2.57944">
        <ele>49.6</ele>
        <time>2021-06-24T18:17:05Z</time>
        <extensions>
          <gpxtpx:TrackPointExtension xmlns:gpxtpx="http://www.garmin.com/xmlschemas/TrackPointExtension/v1">
            <gpxtpx:hr>151</gpxtpx:hr>
          </gpxtpx:TrackPointExtension>
        </extensions>
      </trkpt>
      <trkpt lat="50.48947" lon="2.57938">
        <ele>49.6</ele>
        <time>2021-06-24T18:17:06Z</time>
        <extensions>
          <gpxtpx:TrackPointExtension xmlns:gpxtpx="http://www.garmin.com/xmlschemas/TrackPointExtension/v1">
            <gpxtpx:hr>151</gpxtpx:hr>
          </gpxtpx:TrackPointExtension>
        </extensions>
      </trkpt>
      <trkpt lat="50.48947" lon="2.57931">
        <ele>49.8</ele>
        <time>2021-06-24T18:17:07Z</time>
        <extensions>
          <gpxtpx:TrackPointExtension xmlns:gpxtpx="http://www.garmin.com/xmlschemas/TrackPointExtension/v1">
            <gpxtpx:hr>151</gpxtpx:hr>
          </gpxtpx:TrackPointExtension>
        </extensions>
      </trkpt>
      <trkpt lat="50.48946" lon="2.57925">
        <ele>49.8</ele>
        <time>2021-06-24T18:17:08Z</time>
        <extensions>
          <gpxtpx:TrackPointExtension xmlns:gpxtpx="http://www.garmin.com/xmlschemas/TrackPointExtension/v1">
            <gpxtpx:hr>151</gpxtpx:hr>
          </gpxtpx:TrackPointExtension>
        </extensions>
      </trkpt>
      <trkpt lat="50.48945" lon="2.57918">
        <ele>50</ele>
        <time>2021-06-24T18:17:09Z</time>
        <extensions>
          <gpxtpx:TrackPointExtension xmlns:gpxtpx="http://www.garmin.com/xmlschemas/TrackPointExtension/v1">
            <gpxtpx:hr>151</gpxtpx:hr>
          </gpxtpx:TrackPointExtension>
        </extensions>
      </trkpt>
      <trkpt lat="50.48944" lon="2.57912">
        <ele>50.2</ele>
        <time>2021-06-24T18:17:10Z</time>
        <extensions>
          <gpxtpx:TrackPointExtension xmlns:gpxtpx="http://www.garmin.com/xmlschemas/TrackPointExtension/v1">
            <gpxtpx:hr>151</gpxtpx:hr>
          </gpxtpx:TrackPointExtension>
        </extensions>
      </trkpt>
      <trkpt lat="50.48943" lon="2.57906">
        <ele>50.4</ele>
        <time>2021-06-24T18:17:11Z</time>
        <extensions>
          <gpxtpx:TrackPointExtension xmlns:gpxtpx="http://www.garmin.com/xmlschemas/TrackPointExtension/v1">
            <gpxtpx:hr>151</gpxtpx:hr>
          </gpxtpx:TrackPointExtension>
        </extensions>
      </trkpt>
      <trkpt lat="50.48943" lon="2.579">
        <ele>50.6</ele>
        <time>2021-06-24T18:17:12Z</time>
        <extensions>
          <gpxtpx:TrackPointExtension xmlns:gpxtpx="http://www.garmin.com/xmlschemas/TrackPointExtension/v1">
            <gpxtpx:hr>151</gpxtpx:hr>
          </gpxtpx:TrackPointExtension>
        </extensions>
      </trkpt>
      <trkpt lat="50.48942" lon="2.57893">
        <ele>50.8</ele>
        <time>2021-06-24T18:17:13Z</time>
        <extensions>
          <gpxtpx:TrackPointExtension xmlns:gpxtpx="http://www.garmin.com/xmlschemas/TrackPointExtension/v1">
            <gpxtpx:hr>151</gpxtpx:hr>
          </gpxtpx:TrackPointExtension>
        </extensions>
      </trkpt>
      <trkpt lat="50.48941" lon="2.57887">
        <ele>51</ele>
        <time>2021-06-24T18:17:14Z</time>
        <extensions>
          <gpxtpx:TrackPointExtension xmlns:gpxtpx="http://www.garmin.com/xmlschemas/TrackPointExtension/v1">
            <gpxtpx:hr>151</gpxtpx:hr>
          </gpxtpx:TrackPointExtension>
        </extensions>
      </trkpt>
      <trkpt lat="50.4894" lon="2.57881">
        <ele>51</ele>
        <time>2021-06-24T18:17:15Z</time>
        <extensions>
          <gpxtpx:TrackPointExtension xmlns:gpxtpx="http://www.garmin.com/xmlschemas/TrackPointExtension/v1">
            <gpxtpx:hr>151</gpxtpx:hr>
          </gpxtpx:TrackPointExtension>
        </extensions>
      </trkpt>
      <trkpt lat="50.4894" lon="2.57875">
        <ele>51.2</ele>
        <time>2021-06-24T18:17:16Z</time>
        <extensions>
          <gpxtpx:TrackPointExtension xmlns:gpxtpx="http://www.garmin.com/xmlschemas/TrackPointExtension/v1">
            <gpxtpx:hr>151</gpxtpx:hr>
          </gpxtpx:TrackPointExtension>
        </extensions>
      </trkpt>
      <trkpt lat="50.48938" lon="2.57869">
        <ele>51.2</ele>
        <time>2021-06-24T18:17:17Z</time>
        <extensions>
          <gpxtpx:TrackPointExtension xmlns:gpxtpx="http://www.garmin.com/xmlschemas/TrackPointExtension/v1">
            <gpxtpx:hr>150</gpxtpx:hr>
          </gpxtpx:TrackPointExtension>
        </extensions>
      </trkpt>
      <trkpt lat="50.48938" lon="2.57863">
        <ele>51.4</ele>
        <time>2021-06-24T18:17:18Z</time>
        <extensions>
          <gpxtpx:TrackPointExtension xmlns:gpxtpx="http://www.garmin.com/xmlschemas/TrackPointExtension/v1">
            <gpxtpx:hr>150</gpxtpx:hr>
          </gpxtpx:TrackPointExtension>
        </extensions>
      </trkpt>
      <trkpt lat="50.48937" lon="2.57857">
        <ele>51.4</ele>
        <time>2021-06-24T18:17:19Z</time>
        <extensions>
          <gpxtpx:TrackPointExtension xmlns:gpxtpx="http://www.garmin.com/xmlschemas/TrackPointExtension/v1">
            <gpxtpx:hr>151</gpxtpx:hr>
          </gpxtpx:TrackPointExtension>
        </extensions>
      </trkpt>
      <trkpt lat="50.48936" lon="2.57851">
        <ele>51.4</ele>
        <time>2021-06-24T18:17:20Z</time>
        <extensions>
          <gpxtpx:TrackPointExtension xmlns:gpxtpx="http://www.garmin.com/xmlschemas/TrackPointExtension/v1">
            <gpxtpx:hr>151</gpxtpx:hr>
          </gpxtpx:TrackPointExtension>
        </extensions>
      </trkpt>
      <trkpt lat="50.48935" lon="2.57845">
        <ele>51.4</ele>
        <time>2021-06-24T18:17:21Z</time>
        <extensions>
          <gpxtpx:TrackPointExtension xmlns:gpxtpx="http://www.garmin.com/xmlschemas/TrackPointExtension/v1">
            <gpxtpx:hr>152</gpxtpx:hr>
          </gpxtpx:TrackPointExtension>
        </extensions>
      </trkpt>
      <trkpt lat="50.48934" lon="2.57839">
        <ele>51.6</ele>
        <time>2021-06-24T18:17:22Z</time>
        <extensions>
          <gpxtpx:TrackPointExtension xmlns:gpxtpx="http://www.garmin.com/xmlschemas/TrackPointExtension/v1">
            <gpxtpx:hr>152</gpxtpx:hr>
          </gpxtpx:TrackPointExtension>
        </extensions>
      </trkpt>
      <trkpt lat="50.48934" lon="2.57834">
        <ele>51.6</ele>
        <time>2021-06-24T18:17:23Z</time>
        <extensions>
          <gpxtpx:TrackPointExtension xmlns:gpxtpx="http://www.garmin.com/xmlschemas/TrackPointExtension/v1">
            <gpxtpx:hr>152</gpxtpx:hr>
          </gpxtpx:TrackPointExtension>
        </extensions>
      </trkpt>
      <trkpt lat="50.48933" lon="2.57828">
        <ele>51.6</ele>
        <time>2021-06-24T18:17:24Z</time>
        <extensions>
          <gpxtpx:TrackPointExtension xmlns:gpxtpx="http://www.garmin.com/xmlschemas/TrackPointExtension/v1">
            <gpxtpx:hr>153</gpxtpx:hr>
          </gpxtpx:TrackPointExtension>
        </extensions>
      </trkpt>
      <trkpt lat="50.48933" lon="2.57823">
        <ele>51.6</ele>
        <time>2021-06-24T18:17:25Z</time>
        <extensions>
          <gpxtpx:TrackPointExtension xmlns:gpxtpx="http://www.garmin.com/xmlschemas/TrackPointExtension/v1">
            <gpxtpx:hr>153</gpxtpx:hr>
          </gpxtpx:TrackPointExtension>
        </extensions>
      </trkpt>
      <trkpt lat="50.48933" lon="2.57817">
        <ele>51.6</ele>
        <time>2021-06-24T18:17:26Z</time>
        <extensions>
          <gpxtpx:TrackPointExtension xmlns:gpxtpx="http://www.garmin.com/xmlschemas/TrackPointExtension/v1">
            <gpxtpx:hr>152</gpxtpx:hr>
          </gpxtpx:TrackPointExtension>
        </extensions>
      </trkpt>
      <trkpt lat="50.48932" lon="2.57812">
        <ele>51.6</ele>
        <time>2021-06-24T18:17:27Z</time>
        <extensions>
          <gpxtpx:TrackPointExtension xmlns:gpxtpx="http://www.garmin.com/xmlschemas/TrackPointExtension/v1">
            <gpxtpx:hr>152</gpxtpx:hr>
          </gpxtpx:TrackPointExtension>
        </extensions>
      </trkpt>
      <trkpt lat="50.48932" lon="2.57807">
        <ele>51.8</ele>
        <time>2021-06-24T18:17:28Z</time>
        <extensions>
          <gpxtpx:TrackPointExtension xmlns:gpxtpx="http://www.garmin.com/xmlschemas/TrackPointExtension/v1">
            <gpxtpx:hr>151</gpxtpx:hr>
          </gpxtpx:TrackPointExtension>
        </extensions>
      </trkpt>
      <trkpt lat="50.48932" lon="2.57802">
        <ele>51.8</ele>
        <time>2021-06-24T18:17:29Z</time>
        <extensions>
          <gpxtpx:TrackPointExtension xmlns:gpxtpx="http://www.garmin.com/xmlschemas/TrackPointExtension/v1">
            <gpxtpx:hr>151</gpxtpx:hr>
          </gpxtpx:TrackPointExtension>
        </extensions>
      </trkpt>
      <trkpt lat="50.48931" lon="2.57797">
        <ele>51.8</ele>
        <time>2021-06-24T18:17:30Z</time>
        <extensions>
          <gpxtpx:TrackPointExtension xmlns:gpxtpx="http://www.garmin.com/xmlschemas/TrackPointExtension/v1">
            <gpxtpx:hr>151</gpxtpx:hr>
          </gpxtpx:TrackPointExtension>
        </extensions>
      </trkpt>
      <trkpt lat="50.48931" lon="2.57793">
        <ele>51.8</ele>
        <time>2021-06-24T18:17:31Z</time>
        <extensions>
          <gpxtpx:TrackPointExtension xmlns:gpxtpx="http://www.garmin.com/xmlschemas/TrackPointExtension/v1">
            <gpxtpx:hr>151</gpxtpx:hr>
          </gpxtpx:TrackPointExtension>
        </extensions>
      </trkpt>
      <trkpt lat="50.4893" lon="2.57788">
        <ele>52</ele>
        <time>2021-06-24T18:17:32Z</time>
        <extensions>
          <gpxtpx:TrackPointExtension xmlns:gpxtpx="http://www.garmin.com/xmlschemas/TrackPointExtension/v1">
            <gpxtpx:hr>151</gpxtpx:hr>
          </gpxtpx:TrackPointExtension>
        </extensions>
      </trkpt>
      <trkpt lat="50.4893" lon="2.57784">
        <ele>52</ele>
        <time>2021-06-24T18:17:33Z</time>
        <extensions>
          <gpxtpx:TrackPointExtension xmlns:gpxtpx="http://www.garmin.com/xmlschemas/TrackPointExtension/v1">
            <gpxtpx:hr>151</gpxtpx:hr>
          </gpxtpx:TrackPointExtension>
        </extensions>
      </trkpt>
      <trkpt lat="50.48929" lon="2.57779">
        <ele>52.2</ele>
        <time>2021-06-24T18:17:34Z</time>
        <extensions>
          <gpxtpx:TrackPointExtension xmlns:gpxtpx="http://www.garmin.com/xmlschemas/TrackPointExtension/v1">
            <gpxtpx:hr>151</gpxtpx:hr>
          </gpxtpx:TrackPointExtension>
        </extensions>
      </trkpt>
      <trkpt lat="50.48929" lon="2.57774">
        <ele>52.2</ele>
        <time>2021-06-24T18:17:35Z</time>
        <extensions>
          <gpxtpx:TrackPointExtension xmlns:gpxtpx="http://www.garmin.com/xmlschemas/TrackPointExtension/v1">
            <gpxtpx:hr>151</gpxtpx:hr>
          </gpxtpx:TrackPointExtension>
        </extensions>
      </trkpt>
      <trkpt lat="50.48928" lon="2.5777">
        <ele>52.2</ele>
        <time>2021-06-24T18:17:36Z</time>
        <extensions>
          <gpxtpx:TrackPointExtension xmlns:gpxtpx="http://www.garmin.com/xmlschemas/TrackPointExtension/v1">
            <gpxtpx:hr>151</gpxtpx:hr>
          </gpxtpx:TrackPointExtension>
        </extensions>
      </trkpt>
      <trkpt lat="50.48927" lon="2.57766">
        <ele>52.2</ele>
        <time>2021-06-24T18:17:37Z</time>
        <extensions>
          <gpxtpx:TrackPointExtension xmlns:gpxtpx="http://www.garmin.com/xmlschemas/TrackPointExtension/v1">
            <gpxtpx:hr>151</gpxtpx:hr>
          </gpxtpx:TrackPointExtension>
        </extensions>
      </trkpt>
      <trkpt lat="50.48926" lon="2.57762">
        <ele>52.2</ele>
        <time>2021-06-24T18:17:38Z</time>
        <extensions>
          <gpxtpx:TrackPointExtension xmlns:gpxtpx="http://www.garmin.com/xmlschemas/TrackPointExtension/v1">
            <gpxtpx:hr>151</gpxtpx:hr>
          </gpxtpx:TrackPointExtension>
        </extensions>
      </trkpt>
      <trkpt lat="50.48926" lon="2.57758">
        <ele>52.4</ele>
        <time>2021-06-24T18:17:39Z</time>
        <extensions>
          <gpxtpx:TrackPointExtension xmlns:gpxtpx="http://www.garmin.com/xmlschemas/TrackPointExtension/v1">
            <gpxtpx:hr>151</gpxtpx:hr>
          </gpxtpx:TrackPointExtension>
        </extensions>
      </trkpt>
      <trkpt lat="50.48925" lon="2.57753">
        <ele>52.4</ele>
        <time>2021-06-24T18:17:40Z</time>
        <extensions>
          <gpxtpx:TrackPointExtension xmlns:gpxtpx="http://www.garmin.com/xmlschemas/TrackPointExtension/v1">
            <gpxtpx:hr>152</gpxtpx:hr>
          </gpxtpx:TrackPointExtension>
        </extensions>
      </trkpt>
      <trkpt lat="50.48924" lon="2.57749">
        <ele>52.6</ele>
        <time>2021-06-24T18:17:41Z</time>
        <extensions>
          <gpxtpx:TrackPointExtension xmlns:gpxtpx="http://www.garmin.com/xmlschemas/TrackPointExtension/v1">
            <gpxtpx:hr>152</gpxtpx:hr>
          </gpxtpx:TrackPointExtension>
        </extensions>
      </trkpt>
      <trkpt lat="50.48923" lon="2.57745">
        <ele>52.6</ele>
        <time>2021-06-24T18:17:42Z</time>
        <extensions>
          <gpxtpx:TrackPointExtension xmlns:gpxtpx="http://www.garmin.com/xmlschemas/TrackPointExtension/v1">
            <gpxtpx:hr>152</gpxtpx:hr>
          </gpxtpx:TrackPointExtension>
        </extensions>
      </trkpt>
      <trkpt lat="50.48922" lon="2.5774">
        <ele>52.8</ele>
        <time>2021-06-24T18:17:43Z</time>
        <extensions>
          <gpxtpx:TrackPointExtension xmlns:gpxtpx="http://www.garmin.com/xmlschemas/TrackPointExtension/v1">
            <gpxtpx:hr>152</gpxtpx:hr>
          </gpxtpx:TrackPointExtension>
        </extensions>
      </trkpt>
      <trkpt lat="50.48921" lon="2.57736">
        <ele>53</ele>
        <time>2021-06-24T18:17:44Z</time>
        <extensions>
          <gpxtpx:TrackPointExtension xmlns:gpxtpx="http://www.garmin.com/xmlschemas/TrackPointExtension/v1">
            <gpxtpx:hr>153</gpxtpx:hr>
          </gpxtpx:TrackPointExtension>
        </extensions>
      </trkpt>
      <trkpt lat="50.4892" lon="2.57732">
        <ele>53</ele>
        <time>2021-06-24T18:17:45Z</time>
        <extensions>
          <gpxtpx:TrackPointExtension xmlns:gpxtpx="http://www.garmin.com/xmlschemas/TrackPointExtension/v1">
            <gpxtpx:hr>152</gpxtpx:hr>
          </gpxtpx:TrackPointExtension>
        </extensions>
      </trkpt>
      <trkpt lat="50.48918" lon="2.57728">
        <ele>53.2</ele>
        <time>2021-06-24T18:17:46Z</time>
        <extensions>
          <gpxtpx:TrackPointExtension xmlns:gpxtpx="http://www.garmin.com/xmlschemas/TrackPointExtension/v1">
            <gpxtpx:hr>152</gpxtpx:hr>
          </gpxtpx:TrackPointExtension>
        </extensions>
      </trkpt>
      <trkpt lat="50.48917" lon="2.57723">
        <ele>53.4</ele>
        <time>2021-06-24T18:17:47Z</time>
        <extensions>
          <gpxtpx:TrackPointExtension xmlns:gpxtpx="http://www.garmin.com/xmlschemas/TrackPointExtension/v1">
            <gpxtpx:hr>152</gpxtpx:hr>
          </gpxtpx:TrackPointExtension>
        </extensions>
      </trkpt>
      <trkpt lat="50.48916" lon="2.57719">
        <ele>53.4</ele>
        <time>2021-06-24T18:17:48Z</time>
        <extensions>
          <gpxtpx:TrackPointExtension xmlns:gpxtpx="http://www.garmin.com/xmlschemas/TrackPointExtension/v1">
            <gpxtpx:hr>153</gpxtpx:hr>
          </gpxtpx:TrackPointExtension>
        </extensions>
      </trkpt>
      <trkpt lat="50.48915" lon="2.57715">
        <ele>53.6</ele>
        <time>2021-06-24T18:17:49Z</time>
        <extensions>
          <gpxtpx:TrackPointExtension xmlns:gpxtpx="http://www.garmin.com/xmlschemas/TrackPointExtension/v1">
            <gpxtpx:hr>153</gpxtpx:hr>
          </gpxtpx:TrackPointExtension>
        </extensions>
      </trkpt>
      <trkpt lat="50.48913" lon="2.57711">
        <ele>53.6</ele>
        <time>2021-06-24T18:17:50Z</time>
        <extensions>
          <gpxtpx:TrackPointExtension xmlns:gpxtpx="http://www.garmin.com/xmlschemas/TrackPointExtension/v1">
            <gpxtpx:hr>153</gpxtpx:hr>
          </gpxtpx:TrackPointExtension>
        </extensions>
      </trkpt>
      <trkpt lat="50.48912" lon="2.57707">
        <ele>53.8</ele>
        <time>2021-06-24T18:17:51Z</time>
        <extensions>
          <gpxtpx:TrackPointExtension xmlns:gpxtpx="http://www.garmin.com/xmlschemas/TrackPointExtension/v1">
            <gpxtpx:hr>153</gpxtpx:hr>
          </gpxtpx:TrackPointExtension>
        </extensions>
      </trkpt>
      <trkpt lat="50.48911" lon="2.57704">
        <ele>54</ele>
        <time>2021-06-24T18:17:52Z</time>
        <extensions>
          <gpxtpx:TrackPointExtension xmlns:gpxtpx="http://www.garmin.com/xmlschemas/TrackPointExtension/v1">
            <gpxtpx:hr>153</gpxtpx:hr>
          </gpxtpx:TrackPointExtension>
        </extensions>
      </trkpt>
      <trkpt lat="50.4891" lon="2.577">
        <ele>54</ele>
        <time>2021-06-24T18:17:53Z</time>
        <extensions>
          <gpxtpx:TrackPointExtension xmlns:gpxtpx="http://www.garmin.com/xmlschemas/TrackPointExtension/v1">
            <gpxtpx:hr>154</gpxtpx:hr>
          </gpxtpx:TrackPointExtension>
        </extensions>
      </trkpt>
      <trkpt lat="50.48908" lon="2.57696">
        <ele>54.2</ele>
        <time>2021-06-24T18:17:54Z</time>
        <extensions>
          <gpxtpx:TrackPointExtension xmlns:gpxtpx="http://www.garmin.com/xmlschemas/TrackPointExtension/v1">
            <gpxtpx:hr>154</gpxtpx:hr>
          </gpxtpx:TrackPointExtension>
        </extensions>
      </trkpt>
      <trkpt lat="50.48908" lon="2.57692">
        <ele>54.2</ele>
        <time>2021-06-24T18:17:55Z</time>
        <extensions>
          <gpxtpx:TrackPointExtension xmlns:gpxtpx="http://www.garmin.com/xmlschemas/TrackPointExtension/v1">
            <gpxtpx:hr>154</gpxtpx:hr>
          </gpxtpx:TrackPointExtension>
        </extensions>
      </trkpt>
      <trkpt lat="50.48906" lon="2.57689">
        <ele>54.4</ele>
        <time>2021-06-24T18:17:56Z</time>
        <extensions>
          <gpxtpx:TrackPointExtension xmlns:gpxtpx="http://www.garmin.com/xmlschemas/TrackPointExtension/v1">
            <gpxtpx:hr>154</gpxtpx:hr>
          </gpxtpx:TrackPointExtension>
        </extensions>
      </trkpt>
      <trkpt lat="50.48905" lon="2.57684">
        <ele>54.6</ele>
        <time>2021-06-24T18:17:57Z</time>
        <extensions>
          <gpxtpx:TrackPointExtension xmlns:gpxtpx="http://www.garmin.com/xmlschemas/TrackPointExtension/v1">
            <gpxtpx:hr>154</gpxtpx:hr>
          </gpxtpx:TrackPointExtension>
        </extensions>
      </trkpt>
      <trkpt lat="50.48904" lon="2.57681">
        <ele>54.8</ele>
        <time>2021-06-24T18:17:58Z</time>
        <extensions>
          <gpxtpx:TrackPointExtension xmlns:gpxtpx="http://www.garmin.com/xmlschemas/TrackPointExtension/v1">
            <gpxtpx:hr>154</gpxtpx:hr>
          </gpxtpx:TrackPointExtension>
        </extensions>
      </trkpt>
      <trkpt lat="50.48902" lon="2.57677">
        <ele>55</ele>
        <time>2021-06-24T18:17:59Z</time>
        <extensions>
          <gpxtpx:TrackPointExtension xmlns:gpxtpx="http://www.garmin.com/xmlschemas/TrackPointExtension/v1">
            <gpxtpx:hr>154</gpxtpx:hr>
          </gpxtpx:TrackPointExtension>
        </extensions>
      </trkpt>
      <trkpt lat="50.489" lon="2.57674">
        <ele>55</ele>
        <time>2021-06-24T18:18:00Z</time>
        <extensions>
          <gpxtpx:TrackPointExtension xmlns:gpxtpx="http://www.garmin.com/xmlschemas/TrackPointExtension/v1">
            <gpxtpx:hr>154</gpxtpx:hr>
          </gpxtpx:TrackPointExtension>
        </extensions>
      </trkpt>
      <trkpt lat="50.489" lon="2.5767">
        <ele>55.2</ele>
        <time>2021-06-24T18:18:01Z</time>
        <extensions>
          <gpxtpx:TrackPointExtension xmlns:gpxtpx="http://www.garmin.com/xmlschemas/TrackPointExtension/v1">
            <gpxtpx:hr>154</gpxtpx:hr>
          </gpxtpx:TrackPointExtension>
        </extensions>
      </trkpt>
      <trkpt lat="50.48898" lon="2.57667">
        <ele>55.2</ele>
        <time>2021-06-24T18:18:02Z</time>
        <extensions>
          <gpxtpx:TrackPointExtension xmlns:gpxtpx="http://www.garmin.com/xmlschemas/TrackPointExtension/v1">
            <gpxtpx:hr>154</gpxtpx:hr>
          </gpxtpx:TrackPointExtension>
        </extensions>
      </trkpt>
      <trkpt lat="50.48898" lon="2.57663">
        <ele>55.4</ele>
        <time>2021-06-24T18:18:03Z</time>
        <extensions>
          <gpxtpx:TrackPointExtension xmlns:gpxtpx="http://www.garmin.com/xmlschemas/TrackPointExtension/v1">
            <gpxtpx:hr>154</gpxtpx:hr>
          </gpxtpx:TrackPointExtension>
        </extensions>
      </trkpt>
      <trkpt lat="50.48896" lon="2.5766">
        <ele>55.6</ele>
        <time>2021-06-24T18:18:04Z</time>
        <extensions>
          <gpxtpx:TrackPointExtension xmlns:gpxtpx="http://www.garmin.com/xmlschemas/TrackPointExtension/v1">
            <gpxtpx:hr>154</gpxtpx:hr>
          </gpxtpx:TrackPointExtension>
        </extensions>
      </trkpt>
      <trkpt lat="50.48895" lon="2.57657">
        <ele>55.6</ele>
        <time>2021-06-24T18:18:05Z</time>
        <extensions>
          <gpxtpx:TrackPointExtension xmlns:gpxtpx="http://www.garmin.com/xmlschemas/TrackPointExtension/v1">
            <gpxtpx:hr>154</gpxtpx:hr>
          </gpxtpx:TrackPointExtension>
        </extensions>
      </trkpt>
      <trkpt lat="50.48894" lon="2.57654">
        <ele>55.8</ele>
        <time>2021-06-24T18:18:06Z</time>
        <extensions>
          <gpxtpx:TrackPointExtension xmlns:gpxtpx="http://www.garmin.com/xmlschemas/TrackPointExtension/v1">
            <gpxtpx:hr>155</gpxtpx:hr>
          </gpxtpx:TrackPointExtension>
        </extensions>
      </trkpt>
      <trkpt lat="50.48893" lon="2.57651">
        <ele>55.8</ele>
        <time>2021-06-24T18:18:07Z</time>
        <extensions>
          <gpxtpx:TrackPointExtension xmlns:gpxtpx="http://www.garmin.com/xmlschemas/TrackPointExtension/v1">
            <gpxtpx:hr>155</gpxtpx:hr>
          </gpxtpx:TrackPointExtension>
        </extensions>
      </trkpt>
      <trkpt lat="50.48892" lon="2.57647">
        <ele>55.8</ele>
        <time>2021-06-24T18:18:08Z</time>
        <extensions>
          <gpxtpx:TrackPointExtension xmlns:gpxtpx="http://www.garmin.com/xmlschemas/TrackPointExtension/v1">
            <gpxtpx:hr>155</gpxtpx:hr>
          </gpxtpx:TrackPointExtension>
        </extensions>
      </trkpt>
      <trkpt lat="50.48892" lon="2.57644">
        <ele>55.8</ele>
        <time>2021-06-24T18:18:09Z</time>
        <extensions>
          <gpxtpx:TrackPointExtension xmlns:gpxtpx="http://www.garmin.com/xmlschemas/TrackPointExtension/v1">
            <gpxtpx:hr>155</gpxtpx:hr>
          </gpxtpx:TrackPointExtension>
        </extensions>
      </trkpt>
      <trkpt lat="50.48891" lon="2.5764">
        <ele>56</ele>
        <time>2021-06-24T18:18:10Z</time>
        <extensions>
          <gpxtpx:TrackPointExtension xmlns:gpxtpx="http://www.garmin.com/xmlschemas/TrackPointExtension/v1">
            <gpxtpx:hr>155</gpxtpx:hr>
          </gpxtpx:TrackPointExtension>
        </extensions>
      </trkpt>
      <trkpt lat="50.48891" lon="2.57636">
        <ele>56</ele>
        <time>2021-06-24T18:18:11Z</time>
        <extensions>
          <gpxtpx:TrackPointExtension xmlns:gpxtpx="http://www.garmin.com/xmlschemas/TrackPointExtension/v1">
            <gpxtpx:hr>156</gpxtpx:hr>
          </gpxtpx:TrackPointExtension>
        </extensions>
      </trkpt>
      <trkpt lat="50.48891" lon="2.57632">
        <ele>56.2</ele>
        <time>2021-06-24T18:18:12Z</time>
        <extensions>
          <gpxtpx:TrackPointExtension xmlns:gpxtpx="http://www.garmin.com/xmlschemas/TrackPointExtension/v1">
            <gpxtpx:hr>156</gpxtpx:hr>
          </gpxtpx:TrackPointExtension>
        </extensions>
      </trkpt>
      <trkpt lat="50.48891" lon="2.57628">
        <ele>56.2</ele>
        <time>2021-06-24T18:18:13Z</time>
        <extensions>
          <gpxtpx:TrackPointExtension xmlns:gpxtpx="http://www.garmin.com/xmlschemas/TrackPointExtension/v1">
            <gpxtpx:hr>156</gpxtpx:hr>
          </gpxtpx:TrackPointExtension>
        </extensions>
      </trkpt>
      <trkpt lat="50.48891" lon="2.57624">
        <ele>56.4</ele>
        <time>2021-06-24T18:18:14Z</time>
        <extensions>
          <gpxtpx:TrackPointExtension xmlns:gpxtpx="http://www.garmin.com/xmlschemas/TrackPointExtension/v1">
            <gpxtpx:hr>156</gpxtpx:hr>
          </gpxtpx:TrackPointExtension>
        </extensions>
      </trkpt>
      <trkpt lat="50.48892" lon="2.57621">
        <ele>56.6</ele>
        <time>2021-06-24T18:18:15Z</time>
        <extensions>
          <gpxtpx:TrackPointExtension xmlns:gpxtpx="http://www.garmin.com/xmlschemas/TrackPointExtension/v1">
            <gpxtpx:hr>156</gpxtpx:hr>
          </gpxtpx:TrackPointExtension>
        </extensions>
      </trkpt>
      <trkpt lat="50.48893" lon="2.57617">
        <ele>56.6</ele>
        <time>2021-06-24T18:18:16Z</time>
        <extensions>
          <gpxtpx:TrackPointExtension xmlns:gpxtpx="http://www.garmin.com/xmlschemas/TrackPointExtension/v1">
            <gpxtpx:hr>156</gpxtpx:hr>
          </gpxtpx:TrackPointExtension>
        </extensions>
      </trkpt>
      <trkpt lat="50.48895" lon="2.57614">
        <ele>56.8</ele>
        <time>2021-06-24T18:18:17Z</time>
        <extensions>
          <gpxtpx:TrackPointExtension xmlns:gpxtpx="http://www.garmin.com/xmlschemas/TrackPointExtension/v1">
            <gpxtpx:hr>157</gpxtpx:hr>
          </gpxtpx:TrackPointExtension>
        </extensions>
      </trkpt>
      <trkpt lat="50.48897" lon="2.5761">
        <ele>57</ele>
        <time>2021-06-24T18:18:18Z</time>
        <extensions>
          <gpxtpx:TrackPointExtension xmlns:gpxtpx="http://www.garmin.com/xmlschemas/TrackPointExtension/v1">
            <gpxtpx:hr>157</gpxtpx:hr>
          </gpxtpx:TrackPointExtension>
        </extensions>
      </trkpt>
      <trkpt lat="50.48899" lon="2.57607">
        <ele>57.2</ele>
        <time>2021-06-24T18:18:19Z</time>
        <extensions>
          <gpxtpx:TrackPointExtension xmlns:gpxtpx="http://www.garmin.com/xmlschemas/TrackPointExtension/v1">
            <gpxtpx:hr>157</gpxtpx:hr>
          </gpxtpx:TrackPointExtension>
        </extensions>
      </trkpt>
      <trkpt lat="50.489" lon="2.57604">
        <ele>57.2</ele>
        <time>2021-06-24T18:18:20Z</time>
        <extensions>
          <gpxtpx:TrackPointExtension xmlns:gpxtpx="http://www.garmin.com/xmlschemas/TrackPointExtension/v1">
            <gpxtpx:hr>158</gpxtpx:hr>
          </gpxtpx:TrackPointExtension>
        </extensions>
      </trkpt>
      <trkpt lat="50.48902" lon="2.576">
        <ele>57.4</ele>
        <time>2021-06-24T18:18:21Z</time>
        <extensions>
          <gpxtpx:TrackPointExtension xmlns:gpxtpx="http://www.garmin.com/xmlschemas/TrackPointExtension/v1">
            <gpxtpx:hr>158</gpxtpx:hr>
          </gpxtpx:TrackPointExtension>
        </extensions>
      </trkpt>
      <trkpt lat="50.48904" lon="2.57597">
        <ele>57.6</ele>
        <time>2021-06-24T18:18:22Z</time>
        <extensions>
          <gpxtpx:TrackPointExtension xmlns:gpxtpx="http://www.garmin.com/xmlschemas/TrackPointExtension/v1">
            <gpxtpx:hr>158</gpxtpx:hr>
          </gpxtpx:TrackPointExtension>
        </extensions>
      </trkpt>
      <trkpt lat="50.48906" lon="2.57593">
        <ele>57.6</ele>
        <time>2021-06-24T18:18:23Z</time>
        <extensions>
          <gpxtpx:TrackPointExtension xmlns:gpxtpx="http://www.garmin.com/xmlschemas/TrackPointExtension/v1">
            <gpxtpx:hr>159</gpxtpx:hr>
          </gpxtpx:TrackPointExtension>
        </extensions>
      </trkpt>
      <trkpt lat="50.48908" lon="2.5759">
        <ele>57.8</ele>
        <time>2021-06-24T18:18:24Z</time>
        <extensions>
          <gpxtpx:TrackPointExtension xmlns:gpxtpx="http://www.garmin.com/xmlschemas/TrackPointExtension/v1">
            <gpxtpx:hr>159</gpxtpx:hr>
          </gpxtpx:TrackPointExtension>
        </extensions>
      </trkpt>
      <trkpt lat="50.4891" lon="2.57587">
        <ele>57.8</ele>
        <time>2021-06-24T18:18:25Z</time>
        <extensions>
          <gpxtpx:TrackPointExtension xmlns:gpxtpx="http://www.garmin.com/xmlschemas/TrackPointExtension/v1">
            <gpxtpx:hr>159</gpxtpx:hr>
          </gpxtpx:TrackPointExtension>
        </extensions>
      </trkpt>
      <trkpt lat="50.48912" lon="2.57583">
        <ele>58</ele>
        <time>2021-06-24T18:18:26Z</time>
        <extensions>
          <gpxtpx:TrackPointExtension xmlns:gpxtpx="http://www.garmin.com/xmlschemas/TrackPointExtension/v1">
            <gpxtpx:hr>160</gpxtpx:hr>
          </gpxtpx:TrackPointExtension>
        </extensions>
      </trkpt>
      <trkpt lat="50.48914" lon="2.57579">
        <ele>58</ele>
        <time>2021-06-24T18:18:27Z</time>
        <extensions>
          <gpxtpx:TrackPointExtension xmlns:gpxtpx="http://www.garmin.com/xmlschemas/TrackPointExtension/v1">
            <gpxtpx:hr>160</gpxtpx:hr>
          </gpxtpx:TrackPointExtension>
        </extensions>
      </trkpt>
      <trkpt lat="50.48916" lon="2.57576">
        <ele>58</ele>
        <time>2021-06-24T18:18:28Z</time>
        <extensions>
          <gpxtpx:TrackPointExtension xmlns:gpxtpx="http://www.garmin.com/xmlschemas/TrackPointExtension/v1">
            <gpxtpx:hr>159</gpxtpx:hr>
          </gpxtpx:TrackPointExtension>
        </extensions>
      </trkpt>
      <trkpt lat="50.48918" lon="2.57572">
        <ele>58.2</ele>
        <time>2021-06-24T18:18:29Z</time>
        <extensions>
          <gpxtpx:TrackPointExtension xmlns:gpxtpx="http://www.garmin.com/xmlschemas/TrackPointExtension/v1">
            <gpxtpx:hr>159</gpxtpx:hr>
          </gpxtpx:TrackPointExtension>
        </extensions>
      </trkpt>
      <trkpt lat="50.4892" lon="2.57568">
        <ele>58.2</ele>
        <time>2021-06-24T18:18:30Z</time>
        <extensions>
          <gpxtpx:TrackPointExtension xmlns:gpxtpx="http://www.garmin.com/xmlschemas/TrackPointExtension/v1">
            <gpxtpx:hr>158</gpxtpx:hr>
          </gpxtpx:TrackPointExtension>
        </extensions>
      </trkpt>
      <trkpt lat="50.48922" lon="2.57565">
        <ele>58.4</ele>
        <time>2021-06-24T18:18:31Z</time>
        <extensions>
          <gpxtpx:TrackPointExtension xmlns:gpxtpx="http://www.garmin.com/xmlschemas/TrackPointExtension/v1">
            <gpxtpx:hr>158</gpxtpx:hr>
          </gpxtpx:TrackPointExtension>
        </extensions>
      </trkpt>
      <trkpt lat="50.48924" lon="2.57562">
        <ele>58.4</ele>
        <time>2021-06-24T18:18:32Z</time>
        <extensions>
          <gpxtpx:TrackPointExtension xmlns:gpxtpx="http://www.garmin.com/xmlschemas/TrackPointExtension/v1">
            <gpxtpx:hr>157</gpxtpx:hr>
          </gpxtpx:TrackPointExtension>
        </extensions>
      </trkpt>
      <trkpt lat="50.48926" lon="2.57558">
        <ele>58.6</ele>
        <time>2021-06-24T18:18:33Z</time>
        <extensions>
          <gpxtpx:TrackPointExtension xmlns:gpxtpx="http://www.garmin.com/xmlschemas/TrackPointExtension/v1">
            <gpxtpx:hr>156</gpxtpx:hr>
          </gpxtpx:TrackPointExtension>
        </extensions>
      </trkpt>
      <trkpt lat="50.48928" lon="2.57554">
        <ele>58.6</ele>
        <time>2021-06-24T18:18:34Z</time>
        <extensions>
          <gpxtpx:TrackPointExtension xmlns:gpxtpx="http://www.garmin.com/xmlschemas/TrackPointExtension/v1">
            <gpxtpx:hr>156</gpxtpx:hr>
          </gpxtpx:TrackPointExtension>
        </extensions>
      </trkpt>
      <trkpt lat="50.4893" lon="2.5755">
        <ele>58.8</ele>
        <time>2021-06-24T18:18:35Z</time>
        <extensions>
          <gpxtpx:TrackPointExtension xmlns:gpxtpx="http://www.garmin.com/xmlschemas/TrackPointExtension/v1">
            <gpxtpx:hr>156</gpxtpx:hr>
          </gpxtpx:TrackPointExtension>
        </extensions>
      </trkpt>
      <trkpt lat="50.48932" lon="2.57545">
        <ele>58.8</ele>
        <time>2021-06-24T18:18:36Z</time>
        <extensions>
          <gpxtpx:TrackPointExtension xmlns:gpxtpx="http://www.garmin.com/xmlschemas/TrackPointExtension/v1">
            <gpxtpx:hr>156</gpxtpx:hr>
          </gpxtpx:TrackPointExtension>
        </extensions>
      </trkpt>
      <trkpt lat="50.48933" lon="2.5754">
        <ele>59</ele>
        <time>2021-06-24T18:18:37Z</time>
        <extensions>
          <gpxtpx:TrackPointExtension xmlns:gpxtpx="http://www.garmin.com/xmlschemas/TrackPointExtension/v1">
            <gpxtpx:hr>156</gpxtpx:hr>
          </gpxtpx:TrackPointExtension>
        </extensions>
      </trkpt>
      <trkpt lat="50.48935" lon="2.57535">
        <ele>59</ele>
        <time>2021-06-24T18:18:38Z</time>
        <extensions>
          <gpxtpx:TrackPointExtension xmlns:gpxtpx="http://www.garmin.com/xmlschemas/TrackPointExtension/v1">
            <gpxtpx:hr>156</gpxtpx:hr>
          </gpxtpx:TrackPointExtension>
        </extensions>
      </trkpt>
      <trkpt lat="50.48937" lon="2.57529">
        <ele>59</ele>
        <time>2021-06-24T18:18:39Z</time>
        <extensions>
          <gpxtpx:TrackPointExtension xmlns:gpxtpx="http://www.garmin.com/xmlschemas/TrackPointExtension/v1">
            <gpxtpx:hr>156</gpxtpx:hr>
          </gpxtpx:TrackPointExtension>
        </extensions>
      </trkpt>
      <trkpt lat="50.48939" lon="2.57524">
        <ele>59.2</ele>
        <time>2021-06-24T18:18:40Z</time>
        <extensions>
          <gpxtpx:TrackPointExtension xmlns:gpxtpx="http://www.garmin.com/xmlschemas/TrackPointExtension/v1">
            <gpxtpx:hr>156</gpxtpx:hr>
          </gpxtpx:TrackPointExtension>
        </extensions>
      </trkpt>
      <trkpt lat="50.4894" lon="2.57519">
        <ele>59.2</ele>
        <time>2021-06-24T18:18:41Z</time>
        <extensions>
          <gpxtpx:TrackPointExtension xmlns:gpxtpx="http://www.garmin.com/xmlschemas/TrackPointExtension/v1">
            <gpxtpx:hr>157</gpxtpx:hr>
          </gpxtpx:TrackPointExtension>
        </extensions>
      </trkpt>
      <trkpt lat="50.48942" lon="2.57514">
        <ele>59.2</ele>
        <time>2021-06-24T18:18:42Z</time>
        <extensions>
          <gpxtpx:TrackPointExtension xmlns:gpxtpx="http://www.garmin.com/xmlschemas/TrackPointExtension/v1">
            <gpxtpx:hr>156</gpxtpx:hr>
          </gpxtpx:TrackPointExtension>
        </extensions>
      </trkpt>
      <trkpt lat="50.48944" lon="2.57509">
        <ele>59.4</ele>
        <time>2021-06-24T18:18:43Z</time>
        <extensions>
          <gpxtpx:TrackPointExtension xmlns:gpxtpx="http://www.garmin.com/xmlschemas/TrackPointExtension/v1">
            <gpxtpx:hr>156</gpxtpx:hr>
          </gpxtpx:TrackPointExtension>
        </extensions>
      </trkpt>
      <trkpt lat="50.48946" lon="2.57504">
        <ele>59.4</ele>
        <time>2021-06-24T18:18:44Z</time>
        <extensions>
          <gpxtpx:TrackPointExtension xmlns:gpxtpx="http://www.garmin.com/xmlschemas/TrackPointExtension/v1">
            <gpxtpx:hr>157</gpxtpx:hr>
          </gpxtpx:TrackPointExtension>
        </extensions>
      </trkpt>
      <trkpt lat="50.48948" lon="2.57499">
        <ele>59.4</ele>
        <time>2021-06-24T18:18:45Z</time>
        <extensions>
          <gpxtpx:TrackPointExtension xmlns:gpxtpx="http://www.garmin.com/xmlschemas/TrackPointExtension/v1">
            <gpxtpx:hr>156</gpxtpx:hr>
          </gpxtpx:TrackPointExtension>
        </extensions>
      </trkpt>
      <trkpt lat="50.4895" lon="2.57493">
        <ele>59.4</ele>
        <time>2021-06-24T18:18:46Z</time>
        <extensions>
          <gpxtpx:TrackPointExtension xmlns:gpxtpx="http://www.garmin.com/xmlschemas/TrackPointExtension/v1">
            <gpxtpx:hr>156</gpxtpx:hr>
          </gpxtpx:TrackPointExtension>
        </extensions>
      </trkpt>
      <trkpt lat="50.48952" lon="2.57488">
        <ele>59.6</ele>
        <time>2021-06-24T18:18:47Z</time>
        <extensions>
          <gpxtpx:TrackPointExtension xmlns:gpxtpx="http://www.garmin.com/xmlschemas/TrackPointExtension/v1">
            <gpxtpx:hr>156</gpxtpx:hr>
          </gpxtpx:TrackPointExtension>
        </extensions>
      </trkpt>
      <trkpt lat="50.48953" lon="2.57482">
        <ele>59.6</ele>
        <time>2021-06-24T18:18:48Z</time>
        <extensions>
          <gpxtpx:TrackPointExtension xmlns:gpxtpx="http://www.garmin.com/xmlschemas/TrackPointExtension/v1">
            <gpxtpx:hr>155</gpxtpx:hr>
          </gpxtpx:TrackPointExtension>
        </extensions>
      </trkpt>
      <trkpt lat="50.48955" lon="2.57477">
        <ele>59.6</ele>
        <time>2021-06-24T18:18:49Z</time>
        <extensions>
          <gpxtpx:TrackPointExtension xmlns:gpxtpx="http://www.garmin.com/xmlschemas/TrackPointExtension/v1">
            <gpxtpx:hr>154</gpxtpx:hr>
          </gpxtpx:TrackPointExtension>
        </extensions>
      </trkpt>
      <trkpt lat="50.48957" lon="2.57471">
        <ele>59.8</ele>
        <time>2021-06-24T18:18:50Z</time>
        <extensions>
          <gpxtpx:TrackPointExtension xmlns:gpxtpx="http://www.garmin.com/xmlschemas/TrackPointExtension/v1">
            <gpxtpx:hr>154</gpxtpx:hr>
          </gpxtpx:TrackPointExtension>
        </extensions>
      </trkpt>
      <trkpt lat="50.48959" lon="2.57465">
        <ele>59.8</ele>
        <time>2021-06-24T18:18:51Z</time>
        <extensions>
          <gpxtpx:TrackPointExtension xmlns:gpxtpx="http://www.garmin.com/xmlschemas/TrackPointExtension/v1">
            <gpxtpx:hr>153</gpxtpx:hr>
          </gpxtpx:TrackPointExtension>
        </extensions>
      </trkpt>
      <trkpt lat="50.4896" lon="2.57458">
        <ele>59.8</ele>
        <time>2021-06-24T18:18:52Z</time>
        <extensions>
          <gpxtpx:TrackPointExtension xmlns:gpxtpx="http://www.garmin.com/xmlschemas/TrackPointExtension/v1">
            <gpxtpx:hr>153</gpxtpx:hr>
          </gpxtpx:TrackPointExtension>
        </extensions>
      </trkpt>
      <trkpt lat="50.48961" lon="2.57452">
        <ele>60</ele>
        <time>2021-06-24T18:18:53Z</time>
        <extensions>
          <gpxtpx:TrackPointExtension xmlns:gpxtpx="http://www.garmin.com/xmlschemas/TrackPointExtension/v1">
            <gpxtpx:hr>153</gpxtpx:hr>
          </gpxtpx:TrackPointExtension>
        </extensions>
      </trkpt>
      <trkpt lat="50.48961" lon="2.57446">
        <ele>60</ele>
        <time>2021-06-24T18:18:54Z</time>
        <extensions>
          <gpxtpx:TrackPointExtension xmlns:gpxtpx="http://www.garmin.com/xmlschemas/TrackPointExtension/v1">
            <gpxtpx:hr>154</gpxtpx:hr>
          </gpxtpx:TrackPointExtension>
        </extensions>
      </trkpt>
      <trkpt lat="50.4896" lon="2.5744">
        <ele>60</ele>
        <time>2021-06-24T18:18:55Z</time>
        <extensions>
          <gpxtpx:TrackPointExtension xmlns:gpxtpx="http://www.garmin.com/xmlschemas/TrackPointExtension/v1">
            <gpxtpx:hr>154</gpxtpx:hr>
          </gpxtpx:TrackPointExtension>
        </extensions>
      </trkpt>
      <trkpt lat="50.48959" lon="2.57434">
        <ele>60</ele>
        <time>2021-06-24T18:18:56Z</time>
        <extensions>
          <gpxtpx:TrackPointExtension xmlns:gpxtpx="http://www.garmin.com/xmlschemas/TrackPointExtension/v1">
            <gpxtpx:hr>154</gpxtpx:hr>
          </gpxtpx:TrackPointExtension>
        </extensions>
      </trkpt>
      <trkpt lat="50.48959" lon="2.57428">
        <ele>60</ele>
        <time>2021-06-24T18:18:57Z</time>
        <extensions>
          <gpxtpx:TrackPointExtension xmlns:gpxtpx="http://www.garmin.com/xmlschemas/TrackPointExtension/v1">
            <gpxtpx:hr>154</gpxtpx:hr>
          </gpxtpx:TrackPointExtension>
        </extensions>
      </trkpt>
      <trkpt lat="50.48958" lon="2.57423">
        <ele>60</ele>
        <time>2021-06-24T18:18:58Z</time>
        <extensions>
          <gpxtpx:TrackPointExtension xmlns:gpxtpx="http://www.garmin.com/xmlschemas/TrackPointExtension/v1">
            <gpxtpx:hr>153</gpxtpx:hr>
          </gpxtpx:TrackPointExtension>
        </extensions>
      </trkpt>
      <trkpt lat="50.48957" lon="2.57418">
        <ele>60.2</ele>
        <time>2021-06-24T18:18:59Z</time>
        <extensions>
          <gpxtpx:TrackPointExtension xmlns:gpxtpx="http://www.garmin.com/xmlschemas/TrackPointExtension/v1">
            <gpxtpx:hr>153</gpxtpx:hr>
          </gpxtpx:TrackPointExtension>
        </extensions>
      </trkpt>
      <trkpt lat="50.48956" lon="2.57414">
        <ele>60.2</ele>
        <time>2021-06-24T18:19:00Z</time>
        <extensions>
          <gpxtpx:TrackPointExtension xmlns:gpxtpx="http://www.garmin.com/xmlschemas/TrackPointExtension/v1">
            <gpxtpx:hr>152</gpxtpx:hr>
          </gpxtpx:TrackPointExtension>
        </extensions>
      </trkpt>
      <trkpt lat="50.48955" lon="2.57409">
        <ele>60.2</ele>
        <time>2021-06-24T18:19:01Z</time>
        <extensions>
          <gpxtpx:TrackPointExtension xmlns:gpxtpx="http://www.garmin.com/xmlschemas/TrackPointExtension/v1">
            <gpxtpx:hr>152</gpxtpx:hr>
          </gpxtpx:TrackPointExtension>
        </extensions>
      </trkpt>
      <trkpt lat="50.48954" lon="2.57404">
        <ele>60.2</ele>
        <time>2021-06-24T18:19:02Z</time>
        <extensions>
          <gpxtpx:TrackPointExtension xmlns:gpxtpx="http://www.garmin.com/xmlschemas/TrackPointExtension/v1">
            <gpxtpx:hr>151</gpxtpx:hr>
          </gpxtpx:TrackPointExtension>
        </extensions>
      </trkpt>
      <trkpt lat="50.48953" lon="2.574">
        <ele>60.4</ele>
        <time>2021-06-24T18:19:03Z</time>
        <extensions>
          <gpxtpx:TrackPointExtension xmlns:gpxtpx="http://www.garmin.com/xmlschemas/TrackPointExtension/v1">
            <gpxtpx:hr>150</gpxtpx:hr>
          </gpxtpx:TrackPointExtension>
        </extensions>
      </trkpt>
      <trkpt lat="50.48951" lon="2.57395">
        <ele>60.4</ele>
        <time>2021-06-24T18:19:04Z</time>
        <extensions>
          <gpxtpx:TrackPointExtension xmlns:gpxtpx="http://www.garmin.com/xmlschemas/TrackPointExtension/v1">
            <gpxtpx:hr>150</gpxtpx:hr>
          </gpxtpx:TrackPointExtension>
        </extensions>
      </trkpt>
      <trkpt lat="50.48951" lon="2.57389">
        <ele>60.6</ele>
        <time>2021-06-24T18:19:05Z</time>
        <extensions>
          <gpxtpx:TrackPointExtension xmlns:gpxtpx="http://www.garmin.com/xmlschemas/TrackPointExtension/v1">
            <gpxtpx:hr>149</gpxtpx:hr>
          </gpxtpx:TrackPointExtension>
        </extensions>
      </trkpt>
      <trkpt lat="50.4895" lon="2.57384">
        <ele>60.6</ele>
        <time>2021-06-24T18:19:06Z</time>
        <extensions>
          <gpxtpx:TrackPointExtension xmlns:gpxtpx="http://www.garmin.com/xmlschemas/TrackPointExtension/v1">
            <gpxtpx:hr>148</gpxtpx:hr>
          </gpxtpx:TrackPointExtension>
        </extensions>
      </trkpt>
      <trkpt lat="50.48949" lon="2.57379">
        <ele>60.6</ele>
        <time>2021-06-24T18:19:07Z</time>
        <extensions>
          <gpxtpx:TrackPointExtension xmlns:gpxtpx="http://www.garmin.com/xmlschemas/TrackPointExtension/v1">
            <gpxtpx:hr>147</gpxtpx:hr>
          </gpxtpx:TrackPointExtension>
        </extensions>
      </trkpt>
      <trkpt lat="50.48948" lon="2.57374">
        <ele>60.8</ele>
        <time>2021-06-24T18:19:08Z</time>
        <extensions>
          <gpxtpx:TrackPointExtension xmlns:gpxtpx="http://www.garmin.com/xmlschemas/TrackPointExtension/v1">
            <gpxtpx:hr>146</gpxtpx:hr>
          </gpxtpx:TrackPointExtension>
        </extensions>
      </trkpt>
      <trkpt lat="50.48947" lon="2.57368">
        <ele>60.8</ele>
        <time>2021-06-24T18:19:09Z</time>
        <extensions>
          <gpxtpx:TrackPointExtension xmlns:gpxtpx="http://www.garmin.com/xmlschemas/TrackPointExtension/v1">
            <gpxtpx:hr>145</gpxtpx:hr>
          </gpxtpx:TrackPointExtension>
        </extensions>
      </trkpt>
      <trkpt lat="50.48946" lon="2.57362">
        <ele>60.8</ele>
        <time>2021-06-24T18:19:10Z</time>
        <extensions>
          <gpxtpx:TrackPointExtension xmlns:gpxtpx="http://www.garmin.com/xmlschemas/TrackPointExtension/v1">
            <gpxtpx:hr>145</gpxtpx:hr>
          </gpxtpx:TrackPointExtension>
        </extensions>
      </trkpt>
      <trkpt lat="50.48945" lon="2.57356">
        <ele>61</ele>
        <time>2021-06-24T18:19:11Z</time>
        <extensions>
          <gpxtpx:TrackPointExtension xmlns:gpxtpx="http://www.garmin.com/xmlschemas/TrackPointExtension/v1">
            <gpxtpx:hr>144</gpxtpx:hr>
          </gpxtpx:TrackPointExtension>
        </extensions>
      </trkpt>
      <trkpt lat="50.48944" lon="2.57351">
        <ele>61</ele>
        <time>2021-06-24T18:19:12Z</time>
        <extensions>
          <gpxtpx:TrackPointExtension xmlns:gpxtpx="http://www.garmin.com/xmlschemas/TrackPointExtension/v1">
            <gpxtpx:hr>144</gpxtpx:hr>
          </gpxtpx:TrackPointExtension>
        </extensions>
      </trkpt>
      <trkpt lat="50.48943" lon="2.57345">
        <ele>61.2</ele>
        <time>2021-06-24T18:19:13Z</time>
        <extensions>
          <gpxtpx:TrackPointExtension xmlns:gpxtpx="http://www.garmin.com/xmlschemas/TrackPointExtension/v1">
            <gpxtpx:hr>144</gpxtpx:hr>
          </gpxtpx:TrackPointExtension>
        </extensions>
      </trkpt>
      <trkpt lat="50.48942" lon="2.57338">
        <ele>61.4</ele>
        <time>2021-06-24T18:19:14Z</time>
        <extensions>
          <gpxtpx:TrackPointExtension xmlns:gpxtpx="http://www.garmin.com/xmlschemas/TrackPointExtension/v1">
            <gpxtpx:hr>144</gpxtpx:hr>
          </gpxtpx:TrackPointExtension>
        </extensions>
      </trkpt>
      <trkpt lat="50.48941" lon="2.57332">
        <ele>61.4</ele>
        <time>2021-06-24T18:19:15Z</time>
        <extensions>
          <gpxtpx:TrackPointExtension xmlns:gpxtpx="http://www.garmin.com/xmlschemas/TrackPointExtension/v1">
            <gpxtpx:hr>144</gpxtpx:hr>
          </gpxtpx:TrackPointExtension>
        </extensions>
      </trkpt>
      <trkpt lat="50.4894" lon="2.57326">
        <ele>61.6</ele>
        <time>2021-06-24T18:19:16Z</time>
        <extensions>
          <gpxtpx:TrackPointExtension xmlns:gpxtpx="http://www.garmin.com/xmlschemas/TrackPointExtension/v1">
            <gpxtpx:hr>144</gpxtpx:hr>
          </gpxtpx:TrackPointExtension>
        </extensions>
      </trkpt>
      <trkpt lat="50.48939" lon="2.5732">
        <ele>61.6</ele>
        <time>2021-06-24T18:19:17Z</time>
        <extensions>
          <gpxtpx:TrackPointExtension xmlns:gpxtpx="http://www.garmin.com/xmlschemas/TrackPointExtension/v1">
            <gpxtpx:hr>144</gpxtpx:hr>
          </gpxtpx:TrackPointExtension>
        </extensions>
      </trkpt>
      <trkpt lat="50.48938" lon="2.57314">
        <ele>61.8</ele>
        <time>2021-06-24T18:19:18Z</time>
        <extensions>
          <gpxtpx:TrackPointExtension xmlns:gpxtpx="http://www.garmin.com/xmlschemas/TrackPointExtension/v1">
            <gpxtpx:hr>144</gpxtpx:hr>
          </gpxtpx:TrackPointExtension>
        </extensions>
      </trkpt>
      <trkpt lat="50.48936" lon="2.57309">
        <ele>61.8</ele>
        <time>2021-06-24T18:19:19Z</time>
        <extensions>
          <gpxtpx:TrackPointExtension xmlns:gpxtpx="http://www.garmin.com/xmlschemas/TrackPointExtension/v1">
            <gpxtpx:hr>144</gpxtpx:hr>
          </gpxtpx:TrackPointExtension>
        </extensions>
      </trkpt>
      <trkpt lat="50.48935" lon="2.57302">
        <ele>62</ele>
        <time>2021-06-24T18:19:20Z</time>
        <extensions>
          <gpxtpx:TrackPointExtension xmlns:gpxtpx="http://www.garmin.com/xmlschemas/TrackPointExtension/v1">
            <gpxtpx:hr>144</gpxtpx:hr>
          </gpxtpx:TrackPointExtension>
        </extensions>
      </trkpt>
      <trkpt lat="50.48934" lon="2.57296">
        <ele>62.2</ele>
        <time>2021-06-24T18:19:21Z</time>
        <extensions>
          <gpxtpx:TrackPointExtension xmlns:gpxtpx="http://www.garmin.com/xmlschemas/TrackPointExtension/v1">
            <gpxtpx:hr>144</gpxtpx:hr>
          </gpxtpx:TrackPointExtension>
        </extensions>
      </trkpt>
      <trkpt lat="50.48933" lon="2.5729">
        <ele>62.2</ele>
        <time>2021-06-24T18:19:22Z</time>
        <extensions>
          <gpxtpx:TrackPointExtension xmlns:gpxtpx="http://www.garmin.com/xmlschemas/TrackPointExtension/v1">
            <gpxtpx:hr>144</gpxtpx:hr>
          </gpxtpx:TrackPointExtension>
        </extensions>
      </trkpt>
      <trkpt lat="50.48932" lon="2.57283">
        <ele>62.4</ele>
        <time>2021-06-24T18:19:23Z</time>
        <extensions>
          <gpxtpx:TrackPointExtension xmlns:gpxtpx="http://www.garmin.com/xmlschemas/TrackPointExtension/v1">
            <gpxtpx:hr>144</gpxtpx:hr>
          </gpxtpx:TrackPointExtension>
        </extensions>
      </trkpt>
      <trkpt lat="50.48931" lon="2.57277">
        <ele>62.4</ele>
        <time>2021-06-24T18:19:24Z</time>
        <extensions>
          <gpxtpx:TrackPointExtension xmlns:gpxtpx="http://www.garmin.com/xmlschemas/TrackPointExtension/v1">
            <gpxtpx:hr>144</gpxtpx:hr>
          </gpxtpx:TrackPointExtension>
        </extensions>
      </trkpt>
      <trkpt lat="50.4893" lon="2.5727">
        <ele>62.6</ele>
        <time>2021-06-24T18:19:25Z</time>
        <extensions>
          <gpxtpx:TrackPointExtension xmlns:gpxtpx="http://www.garmin.com/xmlschemas/TrackPointExtension/v1">
            <gpxtpx:hr>143</gpxtpx:hr>
          </gpxtpx:TrackPointExtension>
        </extensions>
      </trkpt>
      <trkpt lat="50.48929" lon="2.57264">
        <ele>62.6</ele>
        <time>2021-06-24T18:19:26Z</time>
        <extensions>
          <gpxtpx:TrackPointExtension xmlns:gpxtpx="http://www.garmin.com/xmlschemas/TrackPointExtension/v1">
            <gpxtpx:hr>143</gpxtpx:hr>
          </gpxtpx:TrackPointExtension>
        </extensions>
      </trkpt>
      <trkpt lat="50.48928" lon="2.57257">
        <ele>62.8</ele>
        <time>2021-06-24T18:19:27Z</time>
        <extensions>
          <gpxtpx:TrackPointExtension xmlns:gpxtpx="http://www.garmin.com/xmlschemas/TrackPointExtension/v1">
            <gpxtpx:hr>142</gpxtpx:hr>
          </gpxtpx:TrackPointExtension>
        </extensions>
      </trkpt>
      <trkpt lat="50.48928" lon="2.57251">
        <ele>62.8</ele>
        <time>2021-06-24T18:19:28Z</time>
        <extensions>
          <gpxtpx:TrackPointExtension xmlns:gpxtpx="http://www.garmin.com/xmlschemas/TrackPointExtension/v1">
            <gpxtpx:hr>141</gpxtpx:hr>
          </gpxtpx:TrackPointExtension>
        </extensions>
      </trkpt>
      <trkpt lat="50.48927" lon="2.57245">
        <ele>62.8</ele>
        <time>2021-06-24T18:19:29Z</time>
        <extensions>
          <gpxtpx:TrackPointExtension xmlns:gpxtpx="http://www.garmin.com/xmlschemas/TrackPointExtension/v1">
            <gpxtpx:hr>141</gpxtpx:hr>
          </gpxtpx:TrackPointExtension>
        </extensions>
      </trkpt>
      <trkpt lat="50.48926" lon="2.57238">
        <ele>62.8</ele>
        <time>2021-06-24T18:19:30Z</time>
        <extensions>
          <gpxtpx:TrackPointExtension xmlns:gpxtpx="http://www.garmin.com/xmlschemas/TrackPointExtension/v1">
            <gpxtpx:hr>141</gpxtpx:hr>
          </gpxtpx:TrackPointExtension>
        </extensions>
      </trkpt>
      <trkpt lat="50.48925" lon="2.57232">
        <ele>63</ele>
        <time>2021-06-24T18:19:31Z</time>
        <extensions>
          <gpxtpx:TrackPointExtension xmlns:gpxtpx="http://www.garmin.com/xmlschemas/TrackPointExtension/v1">
            <gpxtpx:hr>141</gpxtpx:hr>
          </gpxtpx:TrackPointExtension>
        </extensions>
      </trkpt>
      <trkpt lat="50.48924" lon="2.57225">
        <ele>63</ele>
        <time>2021-06-24T18:19:32Z</time>
        <extensions>
          <gpxtpx:TrackPointExtension xmlns:gpxtpx="http://www.garmin.com/xmlschemas/TrackPointExtension/v1">
            <gpxtpx:hr>141</gpxtpx:hr>
          </gpxtpx:TrackPointExtension>
        </extensions>
      </trkpt>
      <trkpt lat="50.48924" lon="2.57219">
        <ele>63</ele>
        <time>2021-06-24T18:19:33Z</time>
        <extensions>
          <gpxtpx:TrackPointExtension xmlns:gpxtpx="http://www.garmin.com/xmlschemas/TrackPointExtension/v1">
            <gpxtpx:hr>141</gpxtpx:hr>
          </gpxtpx:TrackPointExtension>
        </extensions>
      </trkpt>
      <trkpt lat="50.48924" lon="2.57212">
        <ele>63.2</ele>
        <time>2021-06-24T18:19:34Z</time>
        <extensions>
          <gpxtpx:TrackPointExtension xmlns:gpxtpx="http://www.garmin.com/xmlschemas/TrackPointExtension/v1">
            <gpxtpx:hr>141</gpxtpx:hr>
          </gpxtpx:TrackPointExtension>
        </extensions>
      </trkpt>
      <trkpt lat="50.48924" lon="2.57205">
        <ele>63.4</ele>
        <time>2021-06-24T18:19:35Z</time>
        <extensions>
          <gpxtpx:TrackPointExtension xmlns:gpxtpx="http://www.garmin.com/xmlschemas/TrackPointExtension/v1">
            <gpxtpx:hr>141</gpxtpx:hr>
          </gpxtpx:TrackPointExtension>
        </extensions>
      </trkpt>
      <trkpt lat="50.48924" lon="2.57199">
        <ele>63.4</ele>
        <time>2021-06-24T18:19:36Z</time>
        <extensions>
          <gpxtpx:TrackPointExtension xmlns:gpxtpx="http://www.garmin.com/xmlschemas/TrackPointExtension/v1">
            <gpxtpx:hr>141</gpxtpx:hr>
          </gpxtpx:TrackPointExtension>
        </extensions>
      </trkpt>
      <trkpt lat="50.48924" lon="2.57192">
        <ele>63.6</ele>
        <time>2021-06-24T18:19:37Z</time>
        <extensions>
          <gpxtpx:TrackPointExtension xmlns:gpxtpx="http://www.garmin.com/xmlschemas/TrackPointExtension/v1">
            <gpxtpx:hr>140</gpxtpx:hr>
          </gpxtpx:TrackPointExtension>
        </extensions>
      </trkpt>
      <trkpt lat="50.48924" lon="2.57186">
        <ele>63.6</ele>
        <time>2021-06-24T18:19:38Z</time>
        <extensions>
          <gpxtpx:TrackPointExtension xmlns:gpxtpx="http://www.garmin.com/xmlschemas/TrackPointExtension/v1">
            <gpxtpx:hr>140</gpxtpx:hr>
          </gpxtpx:TrackPointExtension>
        </extensions>
      </trkpt>
      <trkpt lat="50.48924" lon="2.57179">
        <ele>63.6</ele>
        <time>2021-06-24T18:19:39Z</time>
        <extensions>
          <gpxtpx:TrackPointExtension xmlns:gpxtpx="http://www.garmin.com/xmlschemas/TrackPointExtension/v1">
            <gpxtpx:hr>140</gpxtpx:hr>
          </gpxtpx:TrackPointExtension>
        </extensions>
      </trkpt>
      <trkpt lat="50.48924" lon="2.57173">
        <ele>63.6</ele>
        <time>2021-06-24T18:19:40Z</time>
        <extensions>
          <gpxtpx:TrackPointExtension xmlns:gpxtpx="http://www.garmin.com/xmlschemas/TrackPointExtension/v1">
            <gpxtpx:hr>139</gpxtpx:hr>
          </gpxtpx:TrackPointExtension>
        </extensions>
      </trkpt>
      <trkpt lat="50.48924" lon="2.57166">
        <ele>63.8</ele>
        <time>2021-06-24T18:19:41Z</time>
        <extensions>
          <gpxtpx:TrackPointExtension xmlns:gpxtpx="http://www.garmin.com/xmlschemas/TrackPointExtension/v1">
            <gpxtpx:hr>139</gpxtpx:hr>
          </gpxtpx:TrackPointExtension>
        </extensions>
      </trkpt>
      <trkpt lat="50.48924" lon="2.5716">
        <ele>63.8</ele>
        <time>2021-06-24T18:19:42Z</time>
        <extensions>
          <gpxtpx:TrackPointExtension xmlns:gpxtpx="http://www.garmin.com/xmlschemas/TrackPointExtension/v1">
            <gpxtpx:hr>139</gpxtpx:hr>
          </gpxtpx:TrackPointExtension>
        </extensions>
      </trkpt>
      <trkpt lat="50.48923" lon="2.57154">
        <ele>63.8</ele>
        <time>2021-06-24T18:19:43Z</time>
        <extensions>
          <gpxtpx:TrackPointExtension xmlns:gpxtpx="http://www.garmin.com/xmlschemas/TrackPointExtension/v1">
            <gpxtpx:hr>139</gpxtpx:hr>
          </gpxtpx:TrackPointExtension>
        </extensions>
      </trkpt>
      <trkpt lat="50.48923" lon="2.57147">
        <ele>63.8</ele>
        <time>2021-06-24T18:19:44Z</time>
        <extensions>
          <gpxtpx:TrackPointExtension xmlns:gpxtpx="http://www.garmin.com/xmlschemas/TrackPointExtension/v1">
            <gpxtpx:hr>139</gpxtpx:hr>
          </gpxtpx:TrackPointExtension>
        </extensions>
      </trkpt>
      <trkpt lat="50.48922" lon="2.57141">
        <ele>63.8</ele>
        <time>2021-06-24T18:19:45Z</time>
        <extensions>
          <gpxtpx:TrackPointExtension xmlns:gpxtpx="http://www.garmin.com/xmlschemas/TrackPointExtension/v1">
            <gpxtpx:hr>140</gpxtpx:hr>
          </gpxtpx:TrackPointExtension>
        </extensions>
      </trkpt>
      <trkpt lat="50.48921" lon="2.57135">
        <ele>64</ele>
        <time>2021-06-24T18:19:46Z</time>
        <extensions>
          <gpxtpx:TrackPointExtension xmlns:gpxtpx="http://www.garmin.com/xmlschemas/TrackPointExtension/v1">
            <gpxtpx:hr>140</gpxtpx:hr>
          </gpxtpx:TrackPointExtension>
        </extensions>
      </trkpt>
      <trkpt lat="50.4892" lon="2.57129">
        <ele>64</ele>
        <time>2021-06-24T18:19:47Z</time>
        <extensions>
          <gpxtpx:TrackPointExtension xmlns:gpxtpx="http://www.garmin.com/xmlschemas/TrackPointExtension/v1">
            <gpxtpx:hr>140</gpxtpx:hr>
          </gpxtpx:TrackPointExtension>
        </extensions>
      </trkpt>
      <trkpt lat="50.48919" lon="2.57123">
        <ele>64</ele>
        <time>2021-06-24T18:19:48Z</time>
        <extensions>
          <gpxtpx:TrackPointExtension xmlns:gpxtpx="http://www.garmin.com/xmlschemas/TrackPointExtension/v1">
            <gpxtpx:hr>140</gpxtpx:hr>
          </gpxtpx:TrackPointExtension>
        </extensions>
      </trkpt>
      <trkpt lat="50.48918" lon="2.57117">
        <ele>64</ele>
        <time>2021-06-24T18:19:49Z</time>
        <extensions>
          <gpxtpx:TrackPointExtension xmlns:gpxtpx="http://www.garmin.com/xmlschemas/TrackPointExtension/v1">
            <gpxtpx:hr>140</gpxtpx:hr>
          </gpxtpx:TrackPointExtension>
        </extensions>
      </trkpt>
      <trkpt lat="50.48916" lon="2.57112">
        <ele>64.2</ele>
        <time>2021-06-24T18:19:50Z</time>
        <extensions>
          <gpxtpx:TrackPointExtension xmlns:gpxtpx="http://www.garmin.com/xmlschemas/TrackPointExtension/v1">
            <gpxtpx:hr>140</gpxtpx:hr>
          </gpxtpx:TrackPointExtension>
        </extensions>
      </trkpt>
      <trkpt lat="50.48913" lon="2.57107">
        <ele>64.4</ele>
        <time>2021-06-24T18:19:51Z</time>
        <extensions>
          <gpxtpx:TrackPointExtension xmlns:gpxtpx="http://www.garmin.com/xmlschemas/TrackPointExtension/v1">
            <gpxtpx:hr>141</gpxtpx:hr>
          </gpxtpx:TrackPointExtension>
        </extensions>
      </trkpt>
      <trkpt lat="50.48911" lon="2.57103">
        <ele>64.4</ele>
        <time>2021-06-24T18:19:52Z</time>
        <extensions>
          <gpxtpx:TrackPointExtension xmlns:gpxtpx="http://www.garmin.com/xmlschemas/TrackPointExtension/v1">
            <gpxtpx:hr>141</gpxtpx:hr>
          </gpxtpx:TrackPointExtension>
        </extensions>
      </trkpt>
      <trkpt lat="50.48908" lon="2.57099">
        <ele>64.6</ele>
        <time>2021-06-24T18:19:53Z</time>
        <extensions>
          <gpxtpx:TrackPointExtension xmlns:gpxtpx="http://www.garmin.com/xmlschemas/TrackPointExtension/v1">
            <gpxtpx:hr>141</gpxtpx:hr>
          </gpxtpx:TrackPointExtension>
        </extensions>
      </trkpt>
      <trkpt lat="50.48905" lon="2.57096">
        <ele>64.8</ele>
        <time>2021-06-24T18:19:54Z</time>
        <extensions>
          <gpxtpx:TrackPointExtension xmlns:gpxtpx="http://www.garmin.com/xmlschemas/TrackPointExtension/v1">
            <gpxtpx:hr>142</gpxtpx:hr>
          </gpxtpx:TrackPointExtension>
        </extensions>
      </trkpt>
      <trkpt lat="50.48901" lon="2.57093">
        <ele>64.8</ele>
        <time>2021-06-24T18:19:55Z</time>
        <extensions>
          <gpxtpx:TrackPointExtension xmlns:gpxtpx="http://www.garmin.com/xmlschemas/TrackPointExtension/v1">
            <gpxtpx:hr>143</gpxtpx:hr>
          </gpxtpx:TrackPointExtension>
        </extensions>
      </trkpt>
      <trkpt lat="50.48898" lon="2.5709">
        <ele>65</ele>
        <time>2021-06-24T18:19:56Z</time>
        <extensions>
          <gpxtpx:TrackPointExtension xmlns:gpxtpx="http://www.garmin.com/xmlschemas/TrackPointExtension/v1">
            <gpxtpx:hr>143</gpxtpx:hr>
          </gpxtpx:TrackPointExtension>
        </extensions>
      </trkpt>
      <trkpt lat="50.48895" lon="2.57086">
        <ele>65.2</ele>
        <time>2021-06-24T18:19:57Z</time>
        <extensions>
          <gpxtpx:TrackPointExtension xmlns:gpxtpx="http://www.garmin.com/xmlschemas/TrackPointExtension/v1">
            <gpxtpx:hr>142</gpxtpx:hr>
          </gpxtpx:TrackPointExtension>
        </extensions>
      </trkpt>
      <trkpt lat="50.48892" lon="2.57082">
        <ele>65.2</ele>
        <time>2021-06-24T18:19:58Z</time>
        <extensions>
          <gpxtpx:TrackPointExtension xmlns:gpxtpx="http://www.garmin.com/xmlschemas/TrackPointExtension/v1">
            <gpxtpx:hr>142</gpxtpx:hr>
          </gpxtpx:TrackPointExtension>
        </extensions>
      </trkpt>
      <trkpt lat="50.4889" lon="2.57078">
        <ele>65.4</ele>
        <time>2021-06-24T18:19:59Z</time>
        <extensions>
          <gpxtpx:TrackPointExtension xmlns:gpxtpx="http://www.garmin.com/xmlschemas/TrackPointExtension/v1">
            <gpxtpx:hr>142</gpxtpx:hr>
          </gpxtpx:TrackPointExtension>
        </extensions>
      </trkpt>
      <trkpt lat="50.48886" lon="2.57073">
        <ele>65.6</ele>
        <time>2021-06-24T18:20:00Z</time>
        <extensions>
          <gpxtpx:TrackPointExtension xmlns:gpxtpx="http://www.garmin.com/xmlschemas/TrackPointExtension/v1">
            <gpxtpx:hr>142</gpxtpx:hr>
          </gpxtpx:TrackPointExtension>
        </extensions>
      </trkpt>
      <trkpt lat="50.48884" lon="2.57068">
        <ele>65.6</ele>
        <time>2021-06-24T18:20:01Z</time>
        <extensions>
          <gpxtpx:TrackPointExtension xmlns:gpxtpx="http://www.garmin.com/xmlschemas/TrackPointExtension/v1">
            <gpxtpx:hr>141</gpxtpx:hr>
          </gpxtpx:TrackPointExtension>
        </extensions>
      </trkpt>
      <trkpt lat="50.48881" lon="2.57064">
        <ele>65.8</ele>
        <time>2021-06-24T18:20:02Z</time>
        <extensions>
          <gpxtpx:TrackPointExtension xmlns:gpxtpx="http://www.garmin.com/xmlschemas/TrackPointExtension/v1">
            <gpxtpx:hr>141</gpxtpx:hr>
          </gpxtpx:TrackPointExtension>
        </extensions>
      </trkpt>
      <trkpt lat="50.48878" lon="2.57059">
        <ele>66</ele>
        <time>2021-06-24T18:20:03Z</time>
        <extensions>
          <gpxtpx:TrackPointExtension xmlns:gpxtpx="http://www.garmin.com/xmlschemas/TrackPointExtension/v1">
            <gpxtpx:hr>141</gpxtpx:hr>
          </gpxtpx:TrackPointExtension>
        </extensions>
      </trkpt>
      <trkpt lat="50.48875" lon="2.57054">
        <ele>66</ele>
        <time>2021-06-24T18:20:04Z</time>
        <extensions>
          <gpxtpx:TrackPointExtension xmlns:gpxtpx="http://www.garmin.com/xmlschemas/TrackPointExtension/v1">
            <gpxtpx:hr>140</gpxtpx:hr>
          </gpxtpx:TrackPointExtension>
        </extensions>
      </trkpt>
      <trkpt lat="50.48872" lon="2.57049">
        <ele>66.2</ele>
        <time>2021-06-24T18:20:05Z</time>
        <extensions>
          <gpxtpx:TrackPointExtension xmlns:gpxtpx="http://www.garmin.com/xmlschemas/TrackPointExtension/v1">
            <gpxtpx:hr>140</gpxtpx:hr>
          </gpxtpx:TrackPointExtension>
        </extensions>
      </trkpt>
      <trkpt lat="50.48868" lon="2.57044">
        <ele>66.2</ele>
        <time>2021-06-24T18:20:06Z</time>
        <extensions>
          <gpxtpx:TrackPointExtension xmlns:gpxtpx="http://www.garmin.com/xmlschemas/TrackPointExtension/v1">
            <gpxtpx:hr>139</gpxtpx:hr>
          </gpxtpx:TrackPointExtension>
        </extensions>
      </trkpt>
      <trkpt lat="50.48865" lon="2.5704">
        <ele>66.2</ele>
        <time>2021-06-24T18:20:07Z</time>
        <extensions>
          <gpxtpx:TrackPointExtension xmlns:gpxtpx="http://www.garmin.com/xmlschemas/TrackPointExtension/v1">
            <gpxtpx:hr>139</gpxtpx:hr>
          </gpxtpx:TrackPointExtension>
        </extensions>
      </trkpt>
      <trkpt lat="50.48862" lon="2.57035">
        <ele>66.4</ele>
        <time>2021-06-24T18:20:08Z</time>
        <extensions>
          <gpxtpx:TrackPointExtension xmlns:gpxtpx="http://www.garmin.com/xmlschemas/TrackPointExtension/v1">
            <gpxtpx:hr>138</gpxtpx:hr>
          </gpxtpx:TrackPointExtension>
        </extensions>
      </trkpt>
      <trkpt lat="50.48858" lon="2.57029">
        <ele>66.4</ele>
        <time>2021-06-24T18:20:09Z</time>
        <extensions>
          <gpxtpx:TrackPointExtension xmlns:gpxtpx="http://www.garmin.com/xmlschemas/TrackPointExtension/v1">
            <gpxtpx:hr>138</gpxtpx:hr>
          </gpxtpx:TrackPointExtension>
        </extensions>
      </trkpt>
      <trkpt lat="50.48855" lon="2.57024">
        <ele>66.4</ele>
        <time>2021-06-24T18:20:10Z</time>
        <extensions>
          <gpxtpx:TrackPointExtension xmlns:gpxtpx="http://www.garmin.com/xmlschemas/TrackPointExtension/v1">
            <gpxtpx:hr>138</gpxtpx:hr>
          </gpxtpx:TrackPointExtension>
        </extensions>
      </trkpt>
      <trkpt lat="50.48848" lon="2.57013">
        <ele>66.4</ele>
        <time>2021-06-24T18:20:12Z</time>
        <extensions>
          <gpxtpx:TrackPointExtension xmlns:gpxtpx="http://www.garmin.com/xmlschemas/TrackPointExtension/v1">
            <gpxtpx:hr>139</gpxtpx:hr>
          </gpxtpx:TrackPointExtension>
        </extensions>
      </trkpt>
      <trkpt lat="50.48844" lon="2.57007">
        <ele>66.4</ele>
        <time>2021-06-24T18:20:13Z</time>
        <extensions>
          <gpxtpx:TrackPointExtension xmlns:gpxtpx="http://www.garmin.com/xmlschemas/TrackPointExtension/v1">
            <gpxtpx:hr>139</gpxtpx:hr>
          </gpxtpx:TrackPointExtension>
        </extensions>
      </trkpt>
      <trkpt lat="50.48841" lon="2.57001">
        <ele>66.4</ele>
        <time>2021-06-24T18:20:14Z</time>
        <extensions>
          <gpxtpx:TrackPointExtension xmlns:gpxtpx="http://www.garmin.com/xmlschemas/TrackPointExtension/v1">
            <gpxtpx:hr>140</gpxtpx:hr>
          </gpxtpx:TrackPointExtension>
        </extensions>
      </trkpt>
      <trkpt lat="50.48837" lon="2.56995">
        <ele>66.4</ele>
        <time>2021-06-24T18:20:15Z</time>
      </trkpt>
      <trkpt lat="50.48834" lon="2.56989">
        <ele>66.4</ele>
        <time>2021-06-24T18:20:16Z</time>
        <extensions>
          <gpxtpx:TrackPointExtension xmlns:gpxtpx="http://www.garmin.com/xmlschemas/TrackPointExtension/v1">
            <gpxtpx:hr>140</gpxtpx:hr>
          </gpxtpx:TrackPointExtension>
        </extensions>
      </trkpt>
      <trkpt lat="50.4883" lon="2.56983">
        <ele>66.4</ele>
        <time>2021-06-24T18:20:17Z</time>
        <extensions>
          <gpxtpx:TrackPointExtension xmlns:gpxtpx="http://www.garmin.com/xmlschemas/TrackPointExtension/v1">
            <gpxtpx:hr>139</gpxtpx:hr>
          </gpxtpx:TrackPointExtension>
        </extensions>
      </trkpt>
      <trkpt lat="50.48827" lon="2.56977">
        <ele>66.4</ele>
        <time>2021-06-24T18:20:18Z</time>
        <extensions>
          <gpxtpx:TrackPointExtension xmlns:gpxtpx="http://www.garmin.com/xmlschemas/TrackPointExtension/v1">
            <gpxtpx:hr>138</gpxtpx:hr>
          </gpxtpx:TrackPointExtension>
        </extensions>
      </trkpt>
      <trkpt lat="50.48824" lon="2.56971">
        <ele>66.4</ele>
        <time>2021-06-24T18:20:19Z</time>
        <extensions>
          <gpxtpx:TrackPointExtension xmlns:gpxtpx="http://www.garmin.com/xmlschemas/TrackPointExtension/v1">
            <gpxtpx:hr>137</gpxtpx:hr>
          </gpxtpx:TrackPointExtension>
        </extensions>
      </trkpt>
      <trkpt lat="50.48822" lon="2.56966">
        <ele>66.4</ele>
        <time>2021-06-24T18:20:20Z</time>
        <extensions>
          <gpxtpx:TrackPointExtension xmlns:gpxtpx="http://www.garmin.com/xmlschemas/TrackPointExtension/v1">
            <gpxtpx:hr>136</gpxtpx:hr>
          </gpxtpx:TrackPointExtension>
        </extensions>
      </trkpt>
      <trkpt lat="50.4882" lon="2.56961">
        <ele>66.2</ele>
        <time>2021-06-24T18:20:21Z</time>
        <extensions>
          <gpxtpx:TrackPointExtension xmlns:gpxtpx="http://www.garmin.com/xmlschemas/TrackPointExtension/v1">
            <gpxtpx:hr>135</gpxtpx:hr>
          </gpxtpx:TrackPointExtension>
        </extensions>
      </trkpt>
      <trkpt lat="50.4882" lon="2.56956">
        <ele>66.2</ele>
        <time>2021-06-24T18:20:22Z</time>
        <extensions>
          <gpxtpx:TrackPointExtension xmlns:gpxtpx="http://www.garmin.com/xmlschemas/TrackPointExtension/v1">
            <gpxtpx:hr>135</gpxtpx:hr>
          </gpxtpx:TrackPointExtension>
        </extensions>
      </trkpt>
      <trkpt lat="50.48822" lon="2.56951">
        <ele>66</ele>
        <time>2021-06-24T18:20:23Z</time>
        <extensions>
          <gpxtpx:TrackPointExtension xmlns:gpxtpx="http://www.garmin.com/xmlschemas/TrackPointExtension/v1">
            <gpxtpx:hr>134</gpxtpx:hr>
          </gpxtpx:TrackPointExtension>
        </extensions>
      </trkpt>
      <trkpt lat="50.48824" lon="2.56946">
        <ele>66</ele>
        <time>2021-06-24T18:20:24Z</time>
        <extensions>
          <gpxtpx:TrackPointExtension xmlns:gpxtpx="http://www.garmin.com/xmlschemas/TrackPointExtension/v1">
            <gpxtpx:hr>134</gpxtpx:hr>
          </gpxtpx:TrackPointExtension>
        </extensions>
      </trkpt>
      <trkpt lat="50.48826" lon="2.56943">
        <ele>66</ele>
        <time>2021-06-24T18:20:25Z</time>
        <extensions>
          <gpxtpx:TrackPointExtension xmlns:gpxtpx="http://www.garmin.com/xmlschemas/TrackPointExtension/v1">
            <gpxtpx:hr>133</gpxtpx:hr>
          </gpxtpx:TrackPointExtension>
        </extensions>
      </trkpt>
      <trkpt lat="50.48829" lon="2.56939">
        <ele>66</ele>
        <time>2021-06-24T18:20:26Z</time>
        <extensions>
          <gpxtpx:TrackPointExtension xmlns:gpxtpx="http://www.garmin.com/xmlschemas/TrackPointExtension/v1">
            <gpxtpx:hr>132</gpxtpx:hr>
          </gpxtpx:TrackPointExtension>
        </extensions>
      </trkpt>
      <trkpt lat="50.4883" lon="2.56929">
        <ele>65.8</ele>
        <time>2021-06-24T18:20:28Z</time>
        <extensions>
          <gpxtpx:TrackPointExtension xmlns:gpxtpx="http://www.garmin.com/xmlschemas/TrackPointExtension/v1">
            <gpxtpx:hr>131</gpxtpx:hr>
          </gpxtpx:TrackPointExtension>
        </extensions>
      </trkpt>
      <trkpt lat="50.48828" lon="2.56924">
        <ele>65.8</ele>
        <time>2021-06-24T18:20:29Z</time>
        <extensions>
          <gpxtpx:TrackPointExtension xmlns:gpxtpx="http://www.garmin.com/xmlschemas/TrackPointExtension/v1">
            <gpxtpx:hr>130</gpxtpx:hr>
          </gpxtpx:TrackPointExtension>
        </extensions>
      </trkpt>
      <trkpt lat="50.48826" lon="2.56919">
        <ele>65.8</ele>
        <time>2021-06-24T18:20:30Z</time>
        <extensions>
          <gpxtpx:TrackPointExtension xmlns:gpxtpx="http://www.garmin.com/xmlschemas/TrackPointExtension/v1">
            <gpxtpx:hr>129</gpxtpx:hr>
          </gpxtpx:TrackPointExtension>
        </extensions>
      </trkpt>
      <trkpt lat="50.48823" lon="2.56914">
        <ele>65.8</ele>
        <time>2021-06-24T18:20:31Z</time>
        <extensions>
          <gpxtpx:TrackPointExtension xmlns:gpxtpx="http://www.garmin.com/xmlschemas/TrackPointExtension/v1">
            <gpxtpx:hr>129</gpxtpx:hr>
          </gpxtpx:TrackPointExtension>
        </extensions>
      </trkpt>
      <trkpt lat="50.4882" lon="2.5691">
        <ele>65.6</ele>
        <time>2021-06-24T18:20:32Z</time>
        <extensions>
          <gpxtpx:TrackPointExtension xmlns:gpxtpx="http://www.garmin.com/xmlschemas/TrackPointExtension/v1">
            <gpxtpx:hr>128</gpxtpx:hr>
          </gpxtpx:TrackPointExtension>
        </extensions>
      </trkpt>
      <trkpt lat="50.48817" lon="2.56905">
        <ele>65.6</ele>
        <time>2021-06-24T18:20:33Z</time>
        <extensions>
          <gpxtpx:TrackPointExtension xmlns:gpxtpx="http://www.garmin.com/xmlschemas/TrackPointExtension/v1">
            <gpxtpx:hr>128</gpxtpx:hr>
          </gpxtpx:TrackPointExtension>
        </extensions>
      </trkpt>
      <trkpt lat="50.48813" lon="2.56899">
        <ele>65.6</ele>
        <time>2021-06-24T18:20:34Z</time>
        <extensions>
          <gpxtpx:TrackPointExtension xmlns:gpxtpx="http://www.garmin.com/xmlschemas/TrackPointExtension/v1">
            <gpxtpx:hr>128</gpxtpx:hr>
          </gpxtpx:TrackPointExtension>
        </extensions>
      </trkpt>
      <trkpt lat="50.4881" lon="2.56894">
        <ele>65.6</ele>
        <time>2021-06-24T18:20:35Z</time>
        <extensions>
          <gpxtpx:TrackPointExtension xmlns:gpxtpx="http://www.garmin.com/xmlschemas/TrackPointExtension/v1">
            <gpxtpx:hr>128</gpxtpx:hr>
          </gpxtpx:TrackPointExtension>
        </extensions>
      </trkpt>
      <trkpt lat="50.48806" lon="2.56889">
        <ele>65.6</ele>
        <time>2021-06-24T18:20:36Z</time>
        <extensions>
          <gpxtpx:TrackPointExtension xmlns:gpxtpx="http://www.garmin.com/xmlschemas/TrackPointExtension/v1">
            <gpxtpx:hr>127</gpxtpx:hr>
          </gpxtpx:TrackPointExtension>
        </extensions>
      </trkpt>
      <trkpt lat="50.48802" lon="2.56884">
        <ele>65.6</ele>
        <time>2021-06-24T18:20:37Z</time>
        <extensions>
          <gpxtpx:TrackPointExtension xmlns:gpxtpx="http://www.garmin.com/xmlschemas/TrackPointExtension/v1">
            <gpxtpx:hr>127</gpxtpx:hr>
          </gpxtpx:TrackPointExtension>
        </extensions>
      </trkpt>
      <trkpt lat="50.48799" lon="2.56879">
        <ele>65.6</ele>
        <time>2021-06-24T18:20:38Z</time>
        <extensions>
          <gpxtpx:TrackPointExtension xmlns:gpxtpx="http://www.garmin.com/xmlschemas/TrackPointExtension/v1">
            <gpxtpx:hr>127</gpxtpx:hr>
          </gpxtpx:TrackPointExtension>
        </extensions>
      </trkpt>
      <trkpt lat="50.48795" lon="2.56873">
        <ele>65.6</ele>
        <time>2021-06-24T18:20:39Z</time>
        <extensions>
          <gpxtpx:TrackPointExtension xmlns:gpxtpx="http://www.garmin.com/xmlschemas/TrackPointExtension/v1">
            <gpxtpx:hr>127</gpxtpx:hr>
          </gpxtpx:TrackPointExtension>
        </extensions>
      </trkpt>
      <trkpt lat="50.48791" lon="2.56868">
        <ele>65.6</ele>
        <time>2021-06-24T18:20:40Z</time>
        <extensions>
          <gpxtpx:TrackPointExtension xmlns:gpxtpx="http://www.garmin.com/xmlschemas/TrackPointExtension/v1">
            <gpxtpx:hr>127</gpxtpx:hr>
          </gpxtpx:TrackPointExtension>
        </extensions>
      </trkpt>
      <trkpt lat="50.48787" lon="2.56861">
        <ele>65.6</ele>
        <time>2021-06-24T18:20:41Z</time>
        <extensions>
          <gpxtpx:TrackPointExtension xmlns:gpxtpx="http://www.garmin.com/xmlschemas/TrackPointExtension/v1">
            <gpxtpx:hr>127</gpxtpx:hr>
          </gpxtpx:TrackPointExtension>
        </extensions>
      </trkpt>
      <trkpt lat="50.48783" lon="2.56857">
        <ele>65.6</ele>
        <time>2021-06-24T18:20:42Z</time>
        <extensions>
          <gpxtpx:TrackPointExtension xmlns:gpxtpx="http://www.garmin.com/xmlschemas/TrackPointExtension/v1">
            <gpxtpx:hr>126</gpxtpx:hr>
          </gpxtpx:TrackPointExtension>
        </extensions>
      </trkpt>
      <trkpt lat="50.4878" lon="2.56851">
        <ele>65.4</ele>
        <time>2021-06-24T18:20:43Z</time>
        <extensions>
          <gpxtpx:TrackPointExtension xmlns:gpxtpx="http://www.garmin.com/xmlschemas/TrackPointExtension/v1">
            <gpxtpx:hr>125</gpxtpx:hr>
          </gpxtpx:TrackPointExtension>
        </extensions>
      </trkpt>
      <trkpt lat="50.48777" lon="2.56846">
        <ele>65.4</ele>
        <time>2021-06-24T18:20:44Z</time>
        <extensions>
          <gpxtpx:TrackPointExtension xmlns:gpxtpx="http://www.garmin.com/xmlschemas/TrackPointExtension/v1">
            <gpxtpx:hr>124</gpxtpx:hr>
          </gpxtpx:TrackPointExtension>
        </extensions>
      </trkpt>
      <trkpt lat="50.48773" lon="2.56841">
        <ele>65.4</ele>
        <time>2021-06-24T18:20:45Z</time>
        <extensions>
          <gpxtpx:TrackPointExtension xmlns:gpxtpx="http://www.garmin.com/xmlschemas/TrackPointExtension/v1">
            <gpxtpx:hr>123</gpxtpx:hr>
          </gpxtpx:TrackPointExtension>
        </extensions>
      </trkpt>
      <trkpt lat="50.4877" lon="2.56836">
        <ele>65.4</ele>
        <time>2021-06-24T18:20:46Z</time>
        <extensions>
          <gpxtpx:TrackPointExtension xmlns:gpxtpx="http://www.garmin.com/xmlschemas/TrackPointExtension/v1">
            <gpxtpx:hr>123</gpxtpx:hr>
          </gpxtpx:TrackPointExtension>
        </extensions>
      </trkpt>
      <trkpt lat="50.48767" lon="2.5683">
        <ele>65.2</ele>
        <time>2021-06-24T18:20:47Z</time>
        <extensions>
          <gpxtpx:TrackPointExtension xmlns:gpxtpx="http://www.garmin.com/xmlschemas/TrackPointExtension/v1">
            <gpxtpx:hr>122</gpxtpx:hr>
          </gpxtpx:TrackPointExtension>
        </extensions>
      </trkpt>
      <trkpt lat="50.48764" lon="2.56826">
        <ele>65.2</ele>
        <time>2021-06-24T18:20:48Z</time>
        <extensions>
          <gpxtpx:TrackPointExtension xmlns:gpxtpx="http://www.garmin.com/xmlschemas/TrackPointExtension/v1">
            <gpxtpx:hr>121</gpxtpx:hr>
          </gpxtpx:TrackPointExtension>
        </extensions>
      </trkpt>
      <trkpt lat="50.48761" lon="2.56821">
        <ele>65.2</ele>
        <time>2021-06-24T18:20:49Z</time>
        <extensions>
          <gpxtpx:TrackPointExtension xmlns:gpxtpx="http://www.garmin.com/xmlschemas/TrackPointExtension/v1">
            <gpxtpx:hr>120</gpxtpx:hr>
          </gpxtpx:TrackPointExtension>
        </extensions>
      </trkpt>
      <trkpt lat="50.48758" lon="2.56817">
        <ele>65</ele>
        <time>2021-06-24T18:20:50Z</time>
        <extensions>
          <gpxtpx:TrackPointExtension xmlns:gpxtpx="http://www.garmin.com/xmlschemas/TrackPointExtension/v1">
            <gpxtpx:hr>120</gpxtpx:hr>
          </gpxtpx:TrackPointExtension>
        </extensions>
      </trkpt>
      <trkpt lat="50.48756" lon="2.56812">
        <ele>65</ele>
        <time>2021-06-24T18:20:51Z</time>
        <extensions>
          <gpxtpx:TrackPointExtension xmlns:gpxtpx="http://www.garmin.com/xmlschemas/TrackPointExtension/v1">
            <gpxtpx:hr>120</gpxtpx:hr>
          </gpxtpx:TrackPointExtension>
        </extensions>
      </trkpt>
      <trkpt lat="50.48754" lon="2.56807">
        <ele>64.8</ele>
        <time>2021-06-24T18:20:52Z</time>
        <extensions>
          <gpxtpx:TrackPointExtension xmlns:gpxtpx="http://www.garmin.com/xmlschemas/TrackPointExtension/v1">
            <gpxtpx:hr>119</gpxtpx:hr>
          </gpxtpx:TrackPointExtension>
        </extensions>
      </trkpt>
      <trkpt lat="50.48753" lon="2.56803">
        <ele>64.8</ele>
        <time>2021-06-24T18:20:53Z</time>
        <extensions>
          <gpxtpx:TrackPointExtension xmlns:gpxtpx="http://www.garmin.com/xmlschemas/TrackPointExtension/v1">
            <gpxtpx:hr>118</gpxtpx:hr>
          </gpxtpx:TrackPointExtension>
        </extensions>
      </trkpt>
      <trkpt lat="50.48752" lon="2.568">
        <ele>64.8</ele>
        <time>2021-06-24T18:20:54Z</time>
        <extensions>
          <gpxtpx:TrackPointExtension xmlns:gpxtpx="http://www.garmin.com/xmlschemas/TrackPointExtension/v1">
            <gpxtpx:hr>118</gpxtpx:hr>
          </gpxtpx:TrackPointExtension>
        </extensions>
      </trkpt>
      <trkpt lat="50.4875" lon="2.56797">
        <ele>64.8</ele>
        <time>2021-06-24T18:20:55Z</time>
        <extensions>
          <gpxtpx:TrackPointExtension xmlns:gpxtpx="http://www.garmin.com/xmlschemas/TrackPointExtension/v1">
            <gpxtpx:hr>118</gpxtpx:hr>
          </gpxtpx:TrackPointExtension>
        </extensions>
      </trkpt>
      <trkpt lat="50.48745" lon="2.56796">
        <ele>64.6</ele>
        <time>2021-06-24T18:20:58Z</time>
        <extensions>
          <gpxtpx:TrackPointExtension xmlns:gpxtpx="http://www.garmin.com/xmlschemas/TrackPointExtension/v1">
            <gpxtpx:hr>116</gpxtpx:hr>
          </gpxtpx:TrackPointExtension>
        </extensions>
      </trkpt>
      <trkpt lat="50.48743" lon="2.56795">
        <ele>64.6</ele>
        <time>2021-06-24T18:20:59Z</time>
        <extensions>
          <gpxtpx:TrackPointExtension xmlns:gpxtpx="http://www.garmin.com/xmlschemas/TrackPointExtension/v1">
            <gpxtpx:hr>115</gpxtpx:hr>
          </gpxtpx:TrackPointExtension>
        </extensions>
      </trkpt>
      <trkpt lat="50.48741" lon="2.56793">
        <ele>64.6</ele>
        <time>2021-06-24T18:21:00Z</time>
        <extensions>
          <gpxtpx:TrackPointExtension xmlns:gpxtpx="http://www.garmin.com/xmlschemas/TrackPointExtension/v1">
            <gpxtpx:hr>114</gpxtpx:hr>
          </gpxtpx:TrackPointExtension>
        </extensions>
      </trkpt>
      <trkpt lat="50.4874" lon="2.5679">
        <ele>64.4</ele>
        <time>2021-06-24T18:21:01Z</time>
        <extensions>
          <gpxtpx:TrackPointExtension xmlns:gpxtpx="http://www.garmin.com/xmlschemas/TrackPointExtension/v1">
            <gpxtpx:hr>113</gpxtpx:hr>
          </gpxtpx:TrackPointExtension>
        </extensions>
      </trkpt>
      <trkpt lat="50.48737" lon="2.56787">
        <ele>64.4</ele>
        <time>2021-06-24T18:21:02Z</time>
        <extensions>
          <gpxtpx:TrackPointExtension xmlns:gpxtpx="http://www.garmin.com/xmlschemas/TrackPointExtension/v1">
            <gpxtpx:hr>112</gpxtpx:hr>
          </gpxtpx:TrackPointExtension>
        </extensions>
      </trkpt>
      <trkpt lat="50.48735" lon="2.56784">
        <ele>64.4</ele>
        <time>2021-06-24T18:21:03Z</time>
        <extensions>
          <gpxtpx:TrackPointExtension xmlns:gpxtpx="http://www.garmin.com/xmlschemas/TrackPointExtension/v1">
            <gpxtpx:hr>111</gpxtpx:hr>
          </gpxtpx:TrackPointExtension>
        </extensions>
      </trkpt>
      <trkpt lat="50.48732" lon="2.56781">
        <ele>64.4</ele>
        <time>2021-06-24T18:21:04Z</time>
        <extensions>
          <gpxtpx:TrackPointExtension xmlns:gpxtpx="http://www.garmin.com/xmlschemas/TrackPointExtension/v1">
            <gpxtpx:hr>111</gpxtpx:hr>
          </gpxtpx:TrackPointExtension>
        </extensions>
      </trkpt>
      <trkpt lat="50.48728" lon="2.56779">
        <ele>64.4</ele>
        <time>2021-06-24T18:21:05Z</time>
        <extensions>
          <gpxtpx:TrackPointExtension xmlns:gpxtpx="http://www.garmin.com/xmlschemas/TrackPointExtension/v1">
            <gpxtpx:hr>110</gpxtpx:hr>
          </gpxtpx:TrackPointExtension>
        </extensions>
      </trkpt>
      <trkpt lat="50.48724" lon="2.56776">
        <ele>64.4</ele>
        <time>2021-06-24T18:21:06Z</time>
        <extensions>
          <gpxtpx:TrackPointExtension xmlns:gpxtpx="http://www.garmin.com/xmlschemas/TrackPointExtension/v1">
            <gpxtpx:hr>110</gpxtpx:hr>
          </gpxtpx:TrackPointExtension>
        </extensions>
      </trkpt>
      <trkpt lat="50.48721" lon="2.56774">
        <ele>64.4</ele>
        <time>2021-06-24T18:21:07Z</time>
        <extensions>
          <gpxtpx:TrackPointExtension xmlns:gpxtpx="http://www.garmin.com/xmlschemas/TrackPointExtension/v1">
            <gpxtpx:hr>110</gpxtpx:hr>
          </gpxtpx:TrackPointExtension>
        </extensions>
      </trkpt>
      <trkpt lat="50.48717" lon="2.56772">
        <ele>64.4</ele>
        <time>2021-06-24T18:21:08Z</time>
        <extensions>
          <gpxtpx:TrackPointExtension xmlns:gpxtpx="http://www.garmin.com/xmlschemas/TrackPointExtension/v1">
            <gpxtpx:hr>111</gpxtpx:hr>
          </gpxtpx:TrackPointExtension>
        </extensions>
      </trkpt>
      <trkpt lat="50.48714" lon="2.56771">
        <ele>64.2</ele>
        <time>2021-06-24T18:21:09Z</time>
        <extensions>
          <gpxtpx:TrackPointExtension xmlns:gpxtpx="http://www.garmin.com/xmlschemas/TrackPointExtension/v1">
            <gpxtpx:hr>112</gpxtpx:hr>
          </gpxtpx:TrackPointExtension>
        </extensions>
      </trkpt>
      <trkpt lat="50.4871" lon="2.5677">
        <ele>64.2</ele>
        <time>2021-06-24T18:21:10Z</time>
        <extensions>
          <gpxtpx:TrackPointExtension xmlns:gpxtpx="http://www.garmin.com/xmlschemas/TrackPointExtension/v1">
            <gpxtpx:hr>113</gpxtpx:hr>
          </gpxtpx:TrackPointExtension>
        </extensions>
      </trkpt>
      <trkpt lat="50.48707" lon="2.5677">
        <ele>64.4</ele>
        <time>2021-06-24T18:21:11Z</time>
        <extensions>
          <gpxtpx:TrackPointExtension xmlns:gpxtpx="http://www.garmin.com/xmlschemas/TrackPointExtension/v1">
            <gpxtpx:hr>114</gpxtpx:hr>
          </gpxtpx:TrackPointExtension>
        </extensions>
      </trkpt>
      <trkpt lat="50.48703" lon="2.56769">
        <ele>64.4</ele>
        <time>2021-06-24T18:21:12Z</time>
        <extensions>
          <gpxtpx:TrackPointExtension xmlns:gpxtpx="http://www.garmin.com/xmlschemas/TrackPointExtension/v1">
            <gpxtpx:hr>115</gpxtpx:hr>
          </gpxtpx:TrackPointExtension>
        </extensions>
      </trkpt>
      <trkpt lat="50.487" lon="2.56768">
        <ele>64.4</ele>
        <time>2021-06-24T18:21:13Z</time>
        <extensions>
          <gpxtpx:TrackPointExtension xmlns:gpxtpx="http://www.garmin.com/xmlschemas/TrackPointExtension/v1">
            <gpxtpx:hr>116</gpxtpx:hr>
          </gpxtpx:TrackPointExtension>
        </extensions>
      </trkpt>
      <trkpt lat="50.48697" lon="2.56766">
        <ele>64.4</ele>
        <time>2021-06-24T18:21:14Z</time>
        <extensions>
          <gpxtpx:TrackPointExtension xmlns:gpxtpx="http://www.garmin.com/xmlschemas/TrackPointExtension/v1">
            <gpxtpx:hr>117</gpxtpx:hr>
          </gpxtpx:TrackPointExtension>
        </extensions>
      </trkpt>
      <trkpt lat="50.48693" lon="2.56764">
        <ele>64.4</ele>
        <time>2021-06-24T18:21:15Z</time>
        <extensions>
          <gpxtpx:TrackPointExtension xmlns:gpxtpx="http://www.garmin.com/xmlschemas/TrackPointExtension/v1">
            <gpxtpx:hr>117</gpxtpx:hr>
          </gpxtpx:TrackPointExtension>
        </extensions>
      </trkpt>
      <trkpt lat="50.4869" lon="2.56762">
        <ele>64.4</ele>
        <time>2021-06-24T18:21:16Z</time>
        <extensions>
          <gpxtpx:TrackPointExtension xmlns:gpxtpx="http://www.garmin.com/xmlschemas/TrackPointExtension/v1">
            <gpxtpx:hr>118</gpxtpx:hr>
          </gpxtpx:TrackPointExtension>
        </extensions>
      </trkpt>
      <trkpt lat="50.48686" lon="2.5676">
        <ele>64.4</ele>
        <time>2021-06-24T18:21:17Z</time>
        <extensions>
          <gpxtpx:TrackPointExtension xmlns:gpxtpx="http://www.garmin.com/xmlschemas/TrackPointExtension/v1">
            <gpxtpx:hr>118</gpxtpx:hr>
          </gpxtpx:TrackPointExtension>
        </extensions>
      </trkpt>
      <trkpt lat="50.48681" lon="2.56758">
        <ele>64.4</ele>
        <time>2021-06-24T18:21:18Z</time>
        <extensions>
          <gpxtpx:TrackPointExtension xmlns:gpxtpx="http://www.garmin.com/xmlschemas/TrackPointExtension/v1">
            <gpxtpx:hr>119</gpxtpx:hr>
          </gpxtpx:TrackPointExtension>
        </extensions>
      </trkpt>
      <trkpt lat="50.48677" lon="2.56757">
        <ele>64.4</ele>
        <time>2021-06-24T18:21:19Z</time>
        <extensions>
          <gpxtpx:TrackPointExtension xmlns:gpxtpx="http://www.garmin.com/xmlschemas/TrackPointExtension/v1">
            <gpxtpx:hr>119</gpxtpx:hr>
          </gpxtpx:TrackPointExtension>
        </extensions>
      </trkpt>
      <trkpt lat="50.48673" lon="2.56756">
        <ele>64.4</ele>
        <time>2021-06-24T18:21:20Z</time>
        <extensions>
          <gpxtpx:TrackPointExtension xmlns:gpxtpx="http://www.garmin.com/xmlschemas/TrackPointExtension/v1">
            <gpxtpx:hr>120</gpxtpx:hr>
          </gpxtpx:TrackPointExtension>
        </extensions>
      </trkpt>
      <trkpt lat="50.48669" lon="2.56755">
        <ele>64.4</ele>
        <time>2021-06-24T18:21:21Z</time>
        <extensions>
          <gpxtpx:TrackPointExtension xmlns:gpxtpx="http://www.garmin.com/xmlschemas/TrackPointExtension/v1">
            <gpxtpx:hr>121</gpxtpx:hr>
          </gpxtpx:TrackPointExtension>
        </extensions>
      </trkpt>
      <trkpt lat="50.48666" lon="2.56755">
        <ele>64.4</ele>
        <time>2021-06-24T18:21:22Z</time>
        <extensions>
          <gpxtpx:TrackPointExtension xmlns:gpxtpx="http://www.garmin.com/xmlschemas/TrackPointExtension/v1">
            <gpxtpx:hr>122</gpxtpx:hr>
          </gpxtpx:TrackPointExtension>
        </extensions>
      </trkpt>
      <trkpt lat="50.48663" lon="2.56755">
        <ele>64.6</ele>
        <time>2021-06-24T18:21:23Z</time>
        <extensions>
          <gpxtpx:TrackPointExtension xmlns:gpxtpx="http://www.garmin.com/xmlschemas/TrackPointExtension/v1">
            <gpxtpx:hr>122</gpxtpx:hr>
          </gpxtpx:TrackPointExtension>
        </extensions>
      </trkpt>
      <trkpt lat="50.48659" lon="2.56754">
        <ele>64.6</ele>
        <time>2021-06-24T18:21:24Z</time>
        <extensions>
          <gpxtpx:TrackPointExtension xmlns:gpxtpx="http://www.garmin.com/xmlschemas/TrackPointExtension/v1">
            <gpxtpx:hr>123</gpxtpx:hr>
          </gpxtpx:TrackPointExtension>
        </extensions>
      </trkpt>
      <trkpt lat="50.48654" lon="2.56753">
        <ele>64.6</ele>
        <time>2021-06-24T18:21:25Z</time>
        <extensions>
          <gpxtpx:TrackPointExtension xmlns:gpxtpx="http://www.garmin.com/xmlschemas/TrackPointExtension/v1">
            <gpxtpx:hr>124</gpxtpx:hr>
          </gpxtpx:TrackPointExtension>
        </extensions>
      </trkpt>
      <trkpt lat="50.4865" lon="2.56751">
        <ele>64.6</ele>
        <time>2021-06-24T18:21:26Z</time>
        <extensions>
          <gpxtpx:TrackPointExtension xmlns:gpxtpx="http://www.garmin.com/xmlschemas/TrackPointExtension/v1">
            <gpxtpx:hr>125</gpxtpx:hr>
          </gpxtpx:TrackPointExtension>
        </extensions>
      </trkpt>
      <trkpt lat="50.48646" lon="2.56748">
        <ele>64.6</ele>
        <time>2021-06-24T18:21:27Z</time>
        <extensions>
          <gpxtpx:TrackPointExtension xmlns:gpxtpx="http://www.garmin.com/xmlschemas/TrackPointExtension/v1">
            <gpxtpx:hr>126</gpxtpx:hr>
          </gpxtpx:TrackPointExtension>
        </extensions>
      </trkpt>
      <trkpt lat="50.48641" lon="2.56745">
        <ele>64.6</ele>
        <time>2021-06-24T18:21:28Z</time>
        <extensions>
          <gpxtpx:TrackPointExtension xmlns:gpxtpx="http://www.garmin.com/xmlschemas/TrackPointExtension/v1">
            <gpxtpx:hr>126</gpxtpx:hr>
          </gpxtpx:TrackPointExtension>
        </extensions>
      </trkpt>
      <trkpt lat="50.48637" lon="2.5674">
        <ele>64.6</ele>
        <time>2021-06-24T18:21:29Z</time>
        <extensions>
          <gpxtpx:TrackPointExtension xmlns:gpxtpx="http://www.garmin.com/xmlschemas/TrackPointExtension/v1">
            <gpxtpx:hr>127</gpxtpx:hr>
          </gpxtpx:TrackPointExtension>
        </extensions>
      </trkpt>
      <trkpt lat="50.48632" lon="2.56736">
        <ele>64.6</ele>
        <time>2021-06-24T18:21:30Z</time>
        <extensions>
          <gpxtpx:TrackPointExtension xmlns:gpxtpx="http://www.garmin.com/xmlschemas/TrackPointExtension/v1">
            <gpxtpx:hr>128</gpxtpx:hr>
          </gpxtpx:TrackPointExtension>
        </extensions>
      </trkpt>
      <trkpt lat="50.48627" lon="2.56732">
        <ele>64.6</ele>
        <time>2021-06-24T18:21:31Z</time>
        <extensions>
          <gpxtpx:TrackPointExtension xmlns:gpxtpx="http://www.garmin.com/xmlschemas/TrackPointExtension/v1">
            <gpxtpx:hr>129</gpxtpx:hr>
          </gpxtpx:TrackPointExtension>
        </extensions>
      </trkpt>
      <trkpt lat="50.48621" lon="2.56727">
        <ele>64.6</ele>
        <time>2021-06-24T18:21:32Z</time>
        <extensions>
          <gpxtpx:TrackPointExtension xmlns:gpxtpx="http://www.garmin.com/xmlschemas/TrackPointExtension/v1">
            <gpxtpx:hr>129</gpxtpx:hr>
          </gpxtpx:TrackPointExtension>
        </extensions>
      </trkpt>
      <trkpt lat="50.48617" lon="2.56722">
        <ele>64.6</ele>
        <time>2021-06-24T18:21:33Z</time>
        <extensions>
          <gpxtpx:TrackPointExtension xmlns:gpxtpx="http://www.garmin.com/xmlschemas/TrackPointExtension/v1">
            <gpxtpx:hr>130</gpxtpx:hr>
          </gpxtpx:TrackPointExtension>
        </extensions>
      </trkpt>
      <trkpt lat="50.48612" lon="2.56718">
        <ele>64.4</ele>
        <time>2021-06-24T18:21:34Z</time>
        <extensions>
          <gpxtpx:TrackPointExtension xmlns:gpxtpx="http://www.garmin.com/xmlschemas/TrackPointExtension/v1">
            <gpxtpx:hr>130</gpxtpx:hr>
          </gpxtpx:TrackPointExtension>
        </extensions>
      </trkpt>
      <trkpt lat="50.48608" lon="2.56713">
        <ele>64.4</ele>
        <time>2021-06-24T18:21:35Z</time>
        <extensions>
          <gpxtpx:TrackPointExtension xmlns:gpxtpx="http://www.garmin.com/xmlschemas/TrackPointExtension/v1">
            <gpxtpx:hr>130</gpxtpx:hr>
          </gpxtpx:TrackPointExtension>
        </extensions>
      </trkpt>
      <trkpt lat="50.48604" lon="2.56709">
        <ele>64.4</ele>
        <time>2021-06-24T18:21:36Z</time>
        <extensions>
          <gpxtpx:TrackPointExtension xmlns:gpxtpx="http://www.garmin.com/xmlschemas/TrackPointExtension/v1">
            <gpxtpx:hr>129</gpxtpx:hr>
          </gpxtpx:TrackPointExtension>
        </extensions>
      </trkpt>
      <trkpt lat="50.48601" lon="2.56705">
        <ele>64.4</ele>
        <time>2021-06-24T18:21:37Z</time>
        <extensions>
          <gpxtpx:TrackPointExtension xmlns:gpxtpx="http://www.garmin.com/xmlschemas/TrackPointExtension/v1">
            <gpxtpx:hr>129</gpxtpx:hr>
          </gpxtpx:TrackPointExtension>
        </extensions>
      </trkpt>
      <trkpt lat="50.48598" lon="2.56701">
        <ele>64.2</ele>
        <time>2021-06-24T18:21:38Z</time>
        <extensions>
          <gpxtpx:TrackPointExtension xmlns:gpxtpx="http://www.garmin.com/xmlschemas/TrackPointExtension/v1">
            <gpxtpx:hr>128</gpxtpx:hr>
          </gpxtpx:TrackPointExtension>
        </extensions>
      </trkpt>
      <trkpt lat="50.48596" lon="2.56699">
        <ele>64.2</ele>
        <time>2021-06-24T18:21:39Z</time>
        <extensions>
          <gpxtpx:TrackPointExtension xmlns:gpxtpx="http://www.garmin.com/xmlschemas/TrackPointExtension/v1">
            <gpxtpx:hr>127</gpxtpx:hr>
          </gpxtpx:TrackPointExtension>
        </extensions>
      </trkpt>
      <trkpt lat="50.48595" lon="2.56695">
        <ele>64.2</ele>
        <time>2021-06-24T18:21:40Z</time>
        <extensions>
          <gpxtpx:TrackPointExtension xmlns:gpxtpx="http://www.garmin.com/xmlschemas/TrackPointExtension/v1">
            <gpxtpx:hr>127</gpxtpx:hr>
          </gpxtpx:TrackPointExtension>
        </extensions>
      </trkpt>
      <trkpt lat="50.48593" lon="2.56691">
        <ele>64</ele>
        <time>2021-06-24T18:21:41Z</time>
        <extensions>
          <gpxtpx:TrackPointExtension xmlns:gpxtpx="http://www.garmin.com/xmlschemas/TrackPointExtension/v1">
            <gpxtpx:hr>127</gpxtpx:hr>
          </gpxtpx:TrackPointExtension>
        </extensions>
      </trkpt>
      <trkpt lat="50.48592" lon="2.56686">
        <ele>64</ele>
        <time>2021-06-24T18:21:42Z</time>
        <extensions>
          <gpxtpx:TrackPointExtension xmlns:gpxtpx="http://www.garmin.com/xmlschemas/TrackPointExtension/v1">
            <gpxtpx:hr>127</gpxtpx:hr>
          </gpxtpx:TrackPointExtension>
        </extensions>
      </trkpt>
      <trkpt lat="50.48591" lon="2.56682">
        <ele>63.8</ele>
        <time>2021-06-24T18:21:43Z</time>
        <extensions>
          <gpxtpx:TrackPointExtension xmlns:gpxtpx="http://www.garmin.com/xmlschemas/TrackPointExtension/v1">
            <gpxtpx:hr>127</gpxtpx:hr>
          </gpxtpx:TrackPointExtension>
        </extensions>
      </trkpt>
      <trkpt lat="50.4859" lon="2.56676">
        <ele>63.8</ele>
        <time>2021-06-24T18:21:44Z</time>
        <extensions>
          <gpxtpx:TrackPointExtension xmlns:gpxtpx="http://www.garmin.com/xmlschemas/TrackPointExtension/v1">
            <gpxtpx:hr>128</gpxtpx:hr>
          </gpxtpx:TrackPointExtension>
        </extensions>
      </trkpt>
      <trkpt lat="50.48589" lon="2.5667">
        <ele>63.8</ele>
        <time>2021-06-24T18:21:45Z</time>
        <extensions>
          <gpxtpx:TrackPointExtension xmlns:gpxtpx="http://www.garmin.com/xmlschemas/TrackPointExtension/v1">
            <gpxtpx:hr>128</gpxtpx:hr>
          </gpxtpx:TrackPointExtension>
        </extensions>
      </trkpt>
      <trkpt lat="50.48588" lon="2.56663">
        <ele>63.8</ele>
        <time>2021-06-24T18:21:46Z</time>
        <extensions>
          <gpxtpx:TrackPointExtension xmlns:gpxtpx="http://www.garmin.com/xmlschemas/TrackPointExtension/v1">
            <gpxtpx:hr>129</gpxtpx:hr>
          </gpxtpx:TrackPointExtension>
        </extensions>
      </trkpt>
      <trkpt lat="50.48588" lon="2.56656">
        <ele>63.6</ele>
        <time>2021-06-24T18:21:47Z</time>
        <extensions>
          <gpxtpx:TrackPointExtension xmlns:gpxtpx="http://www.garmin.com/xmlschemas/TrackPointExtension/v1">
            <gpxtpx:hr>130</gpxtpx:hr>
          </gpxtpx:TrackPointExtension>
        </extensions>
      </trkpt>
      <trkpt lat="50.48586" lon="2.56648">
        <ele>63.6</ele>
        <time>2021-06-24T18:21:48Z</time>
        <extensions>
          <gpxtpx:TrackPointExtension xmlns:gpxtpx="http://www.garmin.com/xmlschemas/TrackPointExtension/v1">
            <gpxtpx:hr>130</gpxtpx:hr>
          </gpxtpx:TrackPointExtension>
        </extensions>
      </trkpt>
      <trkpt lat="50.48584" lon="2.56641">
        <ele>63.6</ele>
        <time>2021-06-24T18:21:49Z</time>
        <extensions>
          <gpxtpx:TrackPointExtension xmlns:gpxtpx="http://www.garmin.com/xmlschemas/TrackPointExtension/v1">
            <gpxtpx:hr>131</gpxtpx:hr>
          </gpxtpx:TrackPointExtension>
        </extensions>
      </trkpt>
      <trkpt lat="50.48582" lon="2.56634">
        <ele>63.4</ele>
        <time>2021-06-24T18:21:50Z</time>
        <extensions>
          <gpxtpx:TrackPointExtension xmlns:gpxtpx="http://www.garmin.com/xmlschemas/TrackPointExtension/v1">
            <gpxtpx:hr>131</gpxtpx:hr>
          </gpxtpx:TrackPointExtension>
        </extensions>
      </trkpt>
      <trkpt lat="50.48581" lon="2.56627">
        <ele>63.4</ele>
        <time>2021-06-24T18:21:51Z</time>
        <extensions>
          <gpxtpx:TrackPointExtension xmlns:gpxtpx="http://www.garmin.com/xmlschemas/TrackPointExtension/v1">
            <gpxtpx:hr>131</gpxtpx:hr>
          </gpxtpx:TrackPointExtension>
        </extensions>
      </trkpt>
      <trkpt lat="50.4858" lon="2.56619">
        <ele>63.2</ele>
        <time>2021-06-24T18:21:52Z</time>
        <extensions>
          <gpxtpx:TrackPointExtension xmlns:gpxtpx="http://www.garmin.com/xmlschemas/TrackPointExtension/v1">
            <gpxtpx:hr>131</gpxtpx:hr>
          </gpxtpx:TrackPointExtension>
        </extensions>
      </trkpt>
      <trkpt lat="50.48579" lon="2.56613">
        <ele>63.2</ele>
        <time>2021-06-24T18:21:53Z</time>
        <extensions>
          <gpxtpx:TrackPointExtension xmlns:gpxtpx="http://www.garmin.com/xmlschemas/TrackPointExtension/v1">
            <gpxtpx:hr>131</gpxtpx:hr>
          </gpxtpx:TrackPointExtension>
        </extensions>
      </trkpt>
      <trkpt lat="50.48578" lon="2.56606">
        <ele>63</ele>
        <time>2021-06-24T18:21:54Z</time>
        <extensions>
          <gpxtpx:TrackPointExtension xmlns:gpxtpx="http://www.garmin.com/xmlschemas/TrackPointExtension/v1">
            <gpxtpx:hr>131</gpxtpx:hr>
          </gpxtpx:TrackPointExtension>
        </extensions>
      </trkpt>
      <trkpt lat="50.48577" lon="2.566">
        <ele>63</ele>
        <time>2021-06-24T18:21:55Z</time>
        <extensions>
          <gpxtpx:TrackPointExtension xmlns:gpxtpx="http://www.garmin.com/xmlschemas/TrackPointExtension/v1">
            <gpxtpx:hr>132</gpxtpx:hr>
          </gpxtpx:TrackPointExtension>
        </extensions>
      </trkpt>
      <trkpt lat="50.48576" lon="2.56594">
        <ele>62.8</ele>
        <time>2021-06-24T18:21:56Z</time>
        <extensions>
          <gpxtpx:TrackPointExtension xmlns:gpxtpx="http://www.garmin.com/xmlschemas/TrackPointExtension/v1">
            <gpxtpx:hr>132</gpxtpx:hr>
          </gpxtpx:TrackPointExtension>
        </extensions>
      </trkpt>
      <trkpt lat="50.48575" lon="2.56588">
        <ele>62.8</ele>
        <time>2021-06-24T18:21:57Z</time>
        <extensions>
          <gpxtpx:TrackPointExtension xmlns:gpxtpx="http://www.garmin.com/xmlschemas/TrackPointExtension/v1">
            <gpxtpx:hr>132</gpxtpx:hr>
          </gpxtpx:TrackPointExtension>
        </extensions>
      </trkpt>
      <trkpt lat="50.48574" lon="2.56582">
        <ele>62.8</ele>
        <time>2021-06-24T18:21:58Z</time>
        <extensions>
          <gpxtpx:TrackPointExtension xmlns:gpxtpx="http://www.garmin.com/xmlschemas/TrackPointExtension/v1">
            <gpxtpx:hr>133</gpxtpx:hr>
          </gpxtpx:TrackPointExtension>
        </extensions>
      </trkpt>
      <trkpt lat="50.48573" lon="2.56575">
        <ele>62.6</ele>
        <time>2021-06-24T18:21:59Z</time>
        <extensions>
          <gpxtpx:TrackPointExtension xmlns:gpxtpx="http://www.garmin.com/xmlschemas/TrackPointExtension/v1">
            <gpxtpx:hr>133</gpxtpx:hr>
          </gpxtpx:TrackPointExtension>
        </extensions>
      </trkpt>
      <trkpt lat="50.48572" lon="2.56568">
        <ele>62.6</ele>
        <time>2021-06-24T18:22:00Z</time>
        <extensions>
          <gpxtpx:TrackPointExtension xmlns:gpxtpx="http://www.garmin.com/xmlschemas/TrackPointExtension/v1">
            <gpxtpx:hr>132</gpxtpx:hr>
          </gpxtpx:TrackPointExtension>
        </extensions>
      </trkpt>
      <trkpt lat="50.48569" lon="2.56554">
        <ele>62.4</ele>
        <time>2021-06-24T18:22:02Z</time>
        <extensions>
          <gpxtpx:TrackPointExtension xmlns:gpxtpx="http://www.garmin.com/xmlschemas/TrackPointExtension/v1">
            <gpxtpx:hr>131</gpxtpx:hr>
          </gpxtpx:TrackPointExtension>
        </extensions>
      </trkpt>
      <trkpt lat="50.48567" lon="2.56548">
        <ele>62.4</ele>
        <time>2021-06-24T18:22:03Z</time>
        <extensions>
          <gpxtpx:TrackPointExtension xmlns:gpxtpx="http://www.garmin.com/xmlschemas/TrackPointExtension/v1">
            <gpxtpx:hr>131</gpxtpx:hr>
          </gpxtpx:TrackPointExtension>
        </extensions>
      </trkpt>
      <trkpt lat="50.48564" lon="2.56544">
        <ele>62.2</ele>
        <time>2021-06-24T18:22:04Z</time>
        <extensions>
          <gpxtpx:TrackPointExtension xmlns:gpxtpx="http://www.garmin.com/xmlschemas/TrackPointExtension/v1">
            <gpxtpx:hr>131</gpxtpx:hr>
          </gpxtpx:TrackPointExtension>
        </extensions>
      </trkpt>
      <trkpt lat="50.48561" lon="2.5654">
        <ele>62.2</ele>
        <time>2021-06-24T18:22:05Z</time>
        <extensions>
          <gpxtpx:TrackPointExtension xmlns:gpxtpx="http://www.garmin.com/xmlschemas/TrackPointExtension/v1">
            <gpxtpx:hr>131</gpxtpx:hr>
          </gpxtpx:TrackPointExtension>
        </extensions>
      </trkpt>
      <trkpt lat="50.48557" lon="2.56537">
        <ele>62</ele>
        <time>2021-06-24T18:22:06Z</time>
        <extensions>
          <gpxtpx:TrackPointExtension xmlns:gpxtpx="http://www.garmin.com/xmlschemas/TrackPointExtension/v1">
            <gpxtpx:hr>132</gpxtpx:hr>
          </gpxtpx:TrackPointExtension>
        </extensions>
      </trkpt>
      <trkpt lat="50.48553" lon="2.56535">
        <ele>62</ele>
        <time>2021-06-24T18:22:07Z</time>
        <extensions>
          <gpxtpx:TrackPointExtension xmlns:gpxtpx="http://www.garmin.com/xmlschemas/TrackPointExtension/v1">
            <gpxtpx:hr>133</gpxtpx:hr>
          </gpxtpx:TrackPointExtension>
        </extensions>
      </trkpt>
      <trkpt lat="50.48549" lon="2.56533">
        <ele>62</ele>
        <time>2021-06-24T18:22:08Z</time>
        <extensions>
          <gpxtpx:TrackPointExtension xmlns:gpxtpx="http://www.garmin.com/xmlschemas/TrackPointExtension/v1">
            <gpxtpx:hr>134</gpxtpx:hr>
          </gpxtpx:TrackPointExtension>
        </extensions>
      </trkpt>
      <trkpt lat="50.48546" lon="2.56533">
        <ele>62</ele>
        <time>2021-06-24T18:22:09Z</time>
        <extensions>
          <gpxtpx:TrackPointExtension xmlns:gpxtpx="http://www.garmin.com/xmlschemas/TrackPointExtension/v1">
            <gpxtpx:hr>135</gpxtpx:hr>
          </gpxtpx:TrackPointExtension>
        </extensions>
      </trkpt>
      <trkpt lat="50.48544" lon="2.56535">
        <ele>62</ele>
        <time>2021-06-24T18:22:10Z</time>
        <extensions>
          <gpxtpx:TrackPointExtension xmlns:gpxtpx="http://www.garmin.com/xmlschemas/TrackPointExtension/v1">
            <gpxtpx:hr>136</gpxtpx:hr>
          </gpxtpx:TrackPointExtension>
        </extensions>
      </trkpt>
      <trkpt lat="50.48542" lon="2.56536">
        <ele>62</ele>
        <time>2021-06-24T18:22:11Z</time>
        <extensions>
          <gpxtpx:TrackPointExtension xmlns:gpxtpx="http://www.garmin.com/xmlschemas/TrackPointExtension/v1">
            <gpxtpx:hr>136</gpxtpx:hr>
          </gpxtpx:TrackPointExtension>
        </extensions>
      </trkpt>
      <trkpt lat="50.48539" lon="2.56538">
        <ele>61.8</ele>
        <time>2021-06-24T18:22:12Z</time>
        <extensions>
          <gpxtpx:TrackPointExtension xmlns:gpxtpx="http://www.garmin.com/xmlschemas/TrackPointExtension/v1">
            <gpxtpx:hr>137</gpxtpx:hr>
          </gpxtpx:TrackPointExtension>
        </extensions>
      </trkpt>
      <trkpt lat="50.48535" lon="2.56539">
        <ele>61.8</ele>
        <time>2021-06-24T18:22:13Z</time>
        <extensions>
          <gpxtpx:TrackPointExtension xmlns:gpxtpx="http://www.garmin.com/xmlschemas/TrackPointExtension/v1">
            <gpxtpx:hr>137</gpxtpx:hr>
          </gpxtpx:TrackPointExtension>
        </extensions>
      </trkpt>
      <trkpt lat="50.48531" lon="2.56539">
        <ele>61.8</ele>
        <time>2021-06-24T18:22:14Z</time>
        <extensions>
          <gpxtpx:TrackPointExtension xmlns:gpxtpx="http://www.garmin.com/xmlschemas/TrackPointExtension/v1">
            <gpxtpx:hr>138</gpxtpx:hr>
          </gpxtpx:TrackPointExtension>
        </extensions>
      </trkpt>
      <trkpt lat="50.48526" lon="2.56538">
        <ele>61.8</ele>
        <time>2021-06-24T18:22:15Z</time>
        <extensions>
          <gpxtpx:TrackPointExtension xmlns:gpxtpx="http://www.garmin.com/xmlschemas/TrackPointExtension/v1">
            <gpxtpx:hr>138</gpxtpx:hr>
          </gpxtpx:TrackPointExtension>
        </extensions>
      </trkpt>
      <trkpt lat="50.48522" lon="2.56538">
        <ele>61.8</ele>
        <time>2021-06-24T18:22:16Z</time>
        <extensions>
          <gpxtpx:TrackPointExtension xmlns:gpxtpx="http://www.garmin.com/xmlschemas/TrackPointExtension/v1">
            <gpxtpx:hr>138</gpxtpx:hr>
          </gpxtpx:TrackPointExtension>
        </extensions>
      </trkpt>
      <trkpt lat="50.4852" lon="2.5654">
        <ele>61.8</ele>
        <time>2021-06-24T18:22:17Z</time>
        <extensions>
          <gpxtpx:TrackPointExtension xmlns:gpxtpx="http://www.garmin.com/xmlschemas/TrackPointExtension/v1">
            <gpxtpx:hr>138</gpxtpx:hr>
          </gpxtpx:TrackPointExtension>
        </extensions>
      </trkpt>
      <trkpt lat="50.48517" lon="2.56542">
        <ele>61.8</ele>
        <time>2021-06-24T18:22:18Z</time>
        <extensions>
          <gpxtpx:TrackPointExtension xmlns:gpxtpx="http://www.garmin.com/xmlschemas/TrackPointExtension/v1">
            <gpxtpx:hr>138</gpxtpx:hr>
          </gpxtpx:TrackPointExtension>
        </extensions>
      </trkpt>
      <trkpt lat="50.48514" lon="2.56545">
        <ele>61.8</ele>
        <time>2021-06-24T18:22:19Z</time>
        <extensions>
          <gpxtpx:TrackPointExtension xmlns:gpxtpx="http://www.garmin.com/xmlschemas/TrackPointExtension/v1">
            <gpxtpx:hr>138</gpxtpx:hr>
          </gpxtpx:TrackPointExtension>
        </extensions>
      </trkpt>
      <trkpt lat="50.48509" lon="2.56547">
        <ele>61.8</ele>
        <time>2021-06-24T18:22:20Z</time>
        <extensions>
          <gpxtpx:TrackPointExtension xmlns:gpxtpx="http://www.garmin.com/xmlschemas/TrackPointExtension/v1">
            <gpxtpx:hr>138</gpxtpx:hr>
          </gpxtpx:TrackPointExtension>
        </extensions>
      </trkpt>
      <trkpt lat="50.48505" lon="2.56549">
        <ele>62</ele>
        <time>2021-06-24T18:22:21Z</time>
        <extensions>
          <gpxtpx:TrackPointExtension xmlns:gpxtpx="http://www.garmin.com/xmlschemas/TrackPointExtension/v1">
            <gpxtpx:hr>139</gpxtpx:hr>
          </gpxtpx:TrackPointExtension>
        </extensions>
      </trkpt>
      <trkpt lat="50.48499" lon="2.56551">
        <ele>62</ele>
        <time>2021-06-24T18:22:22Z</time>
        <extensions>
          <gpxtpx:TrackPointExtension xmlns:gpxtpx="http://www.garmin.com/xmlschemas/TrackPointExtension/v1">
            <gpxtpx:hr>140</gpxtpx:hr>
          </gpxtpx:TrackPointExtension>
        </extensions>
      </trkpt>
      <trkpt lat="50.48495" lon="2.56551">
        <ele>62</ele>
        <time>2021-06-24T18:22:23Z</time>
        <extensions>
          <gpxtpx:TrackPointExtension xmlns:gpxtpx="http://www.garmin.com/xmlschemas/TrackPointExtension/v1">
            <gpxtpx:hr>141</gpxtpx:hr>
          </gpxtpx:TrackPointExtension>
        </extensions>
      </trkpt>
      <trkpt lat="50.4849" lon="2.56549">
        <ele>62</ele>
        <time>2021-06-24T18:22:24Z</time>
        <extensions>
          <gpxtpx:TrackPointExtension xmlns:gpxtpx="http://www.garmin.com/xmlschemas/TrackPointExtension/v1">
            <gpxtpx:hr>143</gpxtpx:hr>
          </gpxtpx:TrackPointExtension>
        </extensions>
      </trkpt>
      <trkpt lat="50.48486" lon="2.56548">
        <ele>62.2</ele>
        <time>2021-06-24T18:22:25Z</time>
        <extensions>
          <gpxtpx:TrackPointExtension xmlns:gpxtpx="http://www.garmin.com/xmlschemas/TrackPointExtension/v1">
            <gpxtpx:hr>144</gpxtpx:hr>
          </gpxtpx:TrackPointExtension>
        </extensions>
      </trkpt>
      <trkpt lat="50.48483" lon="2.56547">
        <ele>62.2</ele>
        <time>2021-06-24T18:22:26Z</time>
        <extensions>
          <gpxtpx:TrackPointExtension xmlns:gpxtpx="http://www.garmin.com/xmlschemas/TrackPointExtension/v1">
            <gpxtpx:hr>144</gpxtpx:hr>
          </gpxtpx:TrackPointExtension>
        </extensions>
      </trkpt>
      <trkpt lat="50.48479" lon="2.56548">
        <ele>62.2</ele>
        <time>2021-06-24T18:22:27Z</time>
        <extensions>
          <gpxtpx:TrackPointExtension xmlns:gpxtpx="http://www.garmin.com/xmlschemas/TrackPointExtension/v1">
            <gpxtpx:hr>144</gpxtpx:hr>
          </gpxtpx:TrackPointExtension>
        </extensions>
      </trkpt>
      <trkpt lat="50.48476" lon="2.56549">
        <ele>62.4</ele>
        <time>2021-06-24T18:22:28Z</time>
        <extensions>
          <gpxtpx:TrackPointExtension xmlns:gpxtpx="http://www.garmin.com/xmlschemas/TrackPointExtension/v1">
            <gpxtpx:hr>144</gpxtpx:hr>
          </gpxtpx:TrackPointExtension>
        </extensions>
      </trkpt>
      <trkpt lat="50.48474" lon="2.56551">
        <ele>62.4</ele>
        <time>2021-06-24T18:22:29Z</time>
        <extensions>
          <gpxtpx:TrackPointExtension xmlns:gpxtpx="http://www.garmin.com/xmlschemas/TrackPointExtension/v1">
            <gpxtpx:hr>144</gpxtpx:hr>
          </gpxtpx:TrackPointExtension>
        </extensions>
      </trkpt>
      <trkpt lat="50.48472" lon="2.56554">
        <ele>62.4</ele>
        <time>2021-06-24T18:22:30Z</time>
        <extensions>
          <gpxtpx:TrackPointExtension xmlns:gpxtpx="http://www.garmin.com/xmlschemas/TrackPointExtension/v1">
            <gpxtpx:hr>144</gpxtpx:hr>
          </gpxtpx:TrackPointExtension>
        </extensions>
      </trkpt>
      <trkpt lat="50.4847" lon="2.56558">
        <ele>62.6</ele>
        <time>2021-06-24T18:22:31Z</time>
        <extensions>
          <gpxtpx:TrackPointExtension xmlns:gpxtpx="http://www.garmin.com/xmlschemas/TrackPointExtension/v1">
            <gpxtpx:hr>144</gpxtpx:hr>
          </gpxtpx:TrackPointExtension>
        </extensions>
      </trkpt>
      <trkpt lat="50.48468" lon="2.56562">
        <ele>62.6</ele>
        <time>2021-06-24T18:22:32Z</time>
        <extensions>
          <gpxtpx:TrackPointExtension xmlns:gpxtpx="http://www.garmin.com/xmlschemas/TrackPointExtension/v1">
            <gpxtpx:hr>143</gpxtpx:hr>
          </gpxtpx:TrackPointExtension>
        </extensions>
      </trkpt>
      <trkpt lat="50.48465" lon="2.56572">
        <ele>62.8</ele>
        <time>2021-06-24T18:22:34Z</time>
        <extensions>
          <gpxtpx:TrackPointExtension xmlns:gpxtpx="http://www.garmin.com/xmlschemas/TrackPointExtension/v1">
            <gpxtpx:hr>142</gpxtpx:hr>
          </gpxtpx:TrackPointExtension>
        </extensions>
      </trkpt>
      <trkpt lat="50.48464" lon="2.56577">
        <ele>62.8</ele>
        <time>2021-06-24T18:22:35Z</time>
        <extensions>
          <gpxtpx:TrackPointExtension xmlns:gpxtpx="http://www.garmin.com/xmlschemas/TrackPointExtension/v1">
            <gpxtpx:hr>142</gpxtpx:hr>
          </gpxtpx:TrackPointExtension>
        </extensions>
      </trkpt>
      <trkpt lat="50.48463" lon="2.56582">
        <ele>62.8</ele>
        <time>2021-06-24T18:22:36Z</time>
        <extensions>
          <gpxtpx:TrackPointExtension xmlns:gpxtpx="http://www.garmin.com/xmlschemas/TrackPointExtension/v1">
            <gpxtpx:hr>142</gpxtpx:hr>
          </gpxtpx:TrackPointExtension>
        </extensions>
      </trkpt>
      <trkpt lat="50.4846" lon="2.56587">
        <ele>63</ele>
        <time>2021-06-24T18:22:37Z</time>
        <extensions>
          <gpxtpx:TrackPointExtension xmlns:gpxtpx="http://www.garmin.com/xmlschemas/TrackPointExtension/v1">
            <gpxtpx:hr>141</gpxtpx:hr>
          </gpxtpx:TrackPointExtension>
        </extensions>
      </trkpt>
      <trkpt lat="50.48459" lon="2.5659">
        <ele>63</ele>
        <time>2021-06-24T18:22:38Z</time>
        <extensions>
          <gpxtpx:TrackPointExtension xmlns:gpxtpx="http://www.garmin.com/xmlschemas/TrackPointExtension/v1">
            <gpxtpx:hr>141</gpxtpx:hr>
          </gpxtpx:TrackPointExtension>
        </extensions>
      </trkpt>
      <trkpt lat="50.48455" lon="2.56592">
        <ele>63.2</ele>
        <time>2021-06-24T18:22:39Z</time>
        <extensions>
          <gpxtpx:TrackPointExtension xmlns:gpxtpx="http://www.garmin.com/xmlschemas/TrackPointExtension/v1">
            <gpxtpx:hr>142</gpxtpx:hr>
          </gpxtpx:TrackPointExtension>
        </extensions>
      </trkpt>
      <trkpt lat="50.48451" lon="2.5659">
        <ele>63.4</ele>
        <time>2021-06-24T18:22:40Z</time>
        <extensions>
          <gpxtpx:TrackPointExtension xmlns:gpxtpx="http://www.garmin.com/xmlschemas/TrackPointExtension/v1">
            <gpxtpx:hr>142</gpxtpx:hr>
          </gpxtpx:TrackPointExtension>
        </extensions>
      </trkpt>
      <trkpt lat="50.48448" lon="2.56587">
        <ele>63.4</ele>
        <time>2021-06-24T18:22:41Z</time>
        <extensions>
          <gpxtpx:TrackPointExtension xmlns:gpxtpx="http://www.garmin.com/xmlschemas/TrackPointExtension/v1">
            <gpxtpx:hr>142</gpxtpx:hr>
          </gpxtpx:TrackPointExtension>
        </extensions>
      </trkpt>
      <trkpt lat="50.48445" lon="2.56583">
        <ele>63.6</ele>
        <time>2021-06-24T18:22:42Z</time>
        <extensions>
          <gpxtpx:TrackPointExtension xmlns:gpxtpx="http://www.garmin.com/xmlschemas/TrackPointExtension/v1">
            <gpxtpx:hr>143</gpxtpx:hr>
          </gpxtpx:TrackPointExtension>
        </extensions>
      </trkpt>
      <trkpt lat="50.48443" lon="2.56579">
        <ele>63.8</ele>
        <time>2021-06-24T18:22:43Z</time>
        <extensions>
          <gpxtpx:TrackPointExtension xmlns:gpxtpx="http://www.garmin.com/xmlschemas/TrackPointExtension/v1">
            <gpxtpx:hr>143</gpxtpx:hr>
          </gpxtpx:TrackPointExtension>
        </extensions>
      </trkpt>
      <trkpt lat="50.4844" lon="2.56575">
        <ele>63.8</ele>
        <time>2021-06-24T18:22:44Z</time>
        <extensions>
          <gpxtpx:TrackPointExtension xmlns:gpxtpx="http://www.garmin.com/xmlschemas/TrackPointExtension/v1">
            <gpxtpx:hr>144</gpxtpx:hr>
          </gpxtpx:TrackPointExtension>
        </extensions>
      </trkpt>
      <trkpt lat="50.48437" lon="2.5657">
        <ele>64</ele>
        <time>2021-06-24T18:22:45Z</time>
        <extensions>
          <gpxtpx:TrackPointExtension xmlns:gpxtpx="http://www.garmin.com/xmlschemas/TrackPointExtension/v1">
            <gpxtpx:hr>144</gpxtpx:hr>
          </gpxtpx:TrackPointExtension>
        </extensions>
      </trkpt>
      <trkpt lat="50.48435" lon="2.56566">
        <ele>64.2</ele>
        <time>2021-06-24T18:22:46Z</time>
        <extensions>
          <gpxtpx:TrackPointExtension xmlns:gpxtpx="http://www.garmin.com/xmlschemas/TrackPointExtension/v1">
            <gpxtpx:hr>145</gpxtpx:hr>
          </gpxtpx:TrackPointExtension>
        </extensions>
      </trkpt>
      <trkpt lat="50.48432" lon="2.56563">
        <ele>64.2</ele>
        <time>2021-06-24T18:22:47Z</time>
        <extensions>
          <gpxtpx:TrackPointExtension xmlns:gpxtpx="http://www.garmin.com/xmlschemas/TrackPointExtension/v1">
            <gpxtpx:hr>145</gpxtpx:hr>
          </gpxtpx:TrackPointExtension>
        </extensions>
      </trkpt>
      <trkpt lat="50.48429" lon="2.56559">
        <ele>64.4</ele>
        <time>2021-06-24T18:22:48Z</time>
        <extensions>
          <gpxtpx:TrackPointExtension xmlns:gpxtpx="http://www.garmin.com/xmlschemas/TrackPointExtension/v1">
            <gpxtpx:hr>145</gpxtpx:hr>
          </gpxtpx:TrackPointExtension>
        </extensions>
      </trkpt>
      <trkpt lat="50.48427" lon="2.56555">
        <ele>64.6</ele>
        <time>2021-06-24T18:22:49Z</time>
        <extensions>
          <gpxtpx:TrackPointExtension xmlns:gpxtpx="http://www.garmin.com/xmlschemas/TrackPointExtension/v1">
            <gpxtpx:hr>145</gpxtpx:hr>
          </gpxtpx:TrackPointExtension>
        </extensions>
      </trkpt>
      <trkpt lat="50.48424" lon="2.56552">
        <ele>64.6</ele>
        <time>2021-06-24T18:22:50Z</time>
        <extensions>
          <gpxtpx:TrackPointExtension xmlns:gpxtpx="http://www.garmin.com/xmlschemas/TrackPointExtension/v1">
            <gpxtpx:hr>145</gpxtpx:hr>
          </gpxtpx:TrackPointExtension>
        </extensions>
      </trkpt>
      <trkpt lat="50.48421" lon="2.56548">
        <ele>64.8</ele>
        <time>2021-06-24T18:22:51Z</time>
        <extensions>
          <gpxtpx:TrackPointExtension xmlns:gpxtpx="http://www.garmin.com/xmlschemas/TrackPointExtension/v1">
            <gpxtpx:hr>145</gpxtpx:hr>
          </gpxtpx:TrackPointExtension>
        </extensions>
      </trkpt>
      <trkpt lat="50.48419" lon="2.56544">
        <ele>65</ele>
        <time>2021-06-24T18:22:52Z</time>
        <extensions>
          <gpxtpx:TrackPointExtension xmlns:gpxtpx="http://www.garmin.com/xmlschemas/TrackPointExtension/v1">
            <gpxtpx:hr>144</gpxtpx:hr>
          </gpxtpx:TrackPointExtension>
        </extensions>
      </trkpt>
      <trkpt lat="50.48415" lon="2.56541">
        <ele>65</ele>
        <time>2021-06-24T18:22:53Z</time>
        <extensions>
          <gpxtpx:TrackPointExtension xmlns:gpxtpx="http://www.garmin.com/xmlschemas/TrackPointExtension/v1">
            <gpxtpx:hr>144</gpxtpx:hr>
          </gpxtpx:TrackPointExtension>
        </extensions>
      </trkpt>
      <trkpt lat="50.48412" lon="2.56538">
        <ele>65.2</ele>
        <time>2021-06-24T18:22:54Z</time>
        <extensions>
          <gpxtpx:TrackPointExtension xmlns:gpxtpx="http://www.garmin.com/xmlschemas/TrackPointExtension/v1">
            <gpxtpx:hr>143</gpxtpx:hr>
          </gpxtpx:TrackPointExtension>
        </extensions>
      </trkpt>
      <trkpt lat="50.48409" lon="2.56535">
        <ele>65.2</ele>
        <time>2021-06-24T18:22:55Z</time>
        <extensions>
          <gpxtpx:TrackPointExtension xmlns:gpxtpx="http://www.garmin.com/xmlschemas/TrackPointExtension/v1">
            <gpxtpx:hr>143</gpxtpx:hr>
          </gpxtpx:TrackPointExtension>
        </extensions>
      </trkpt>
      <trkpt lat="50.48406" lon="2.56531">
        <ele>65.4</ele>
        <time>2021-06-24T18:22:56Z</time>
        <extensions>
          <gpxtpx:TrackPointExtension xmlns:gpxtpx="http://www.garmin.com/xmlschemas/TrackPointExtension/v1">
            <gpxtpx:hr>142</gpxtpx:hr>
          </gpxtpx:TrackPointExtension>
        </extensions>
      </trkpt>
      <trkpt lat="50.48403" lon="2.56527">
        <ele>65.6</ele>
        <time>2021-06-24T18:22:57Z</time>
        <extensions>
          <gpxtpx:TrackPointExtension xmlns:gpxtpx="http://www.garmin.com/xmlschemas/TrackPointExtension/v1">
            <gpxtpx:hr>142</gpxtpx:hr>
          </gpxtpx:TrackPointExtension>
        </extensions>
      </trkpt>
      <trkpt lat="50.484" lon="2.56523">
        <ele>65.6</ele>
        <time>2021-06-24T18:22:58Z</time>
        <extensions>
          <gpxtpx:TrackPointExtension xmlns:gpxtpx="http://www.garmin.com/xmlschemas/TrackPointExtension/v1">
            <gpxtpx:hr>142</gpxtpx:hr>
          </gpxtpx:TrackPointExtension>
        </extensions>
      </trkpt>
      <trkpt lat="50.48398" lon="2.56519">
        <ele>65.8</ele>
        <time>2021-06-24T18:22:59Z</time>
        <extensions>
          <gpxtpx:TrackPointExtension xmlns:gpxtpx="http://www.garmin.com/xmlschemas/TrackPointExtension/v1">
            <gpxtpx:hr>142</gpxtpx:hr>
          </gpxtpx:TrackPointExtension>
        </extensions>
      </trkpt>
      <trkpt lat="50.48396" lon="2.56515">
        <ele>66</ele>
        <time>2021-06-24T18:23:00Z</time>
        <extensions>
          <gpxtpx:TrackPointExtension xmlns:gpxtpx="http://www.garmin.com/xmlschemas/TrackPointExtension/v1">
            <gpxtpx:hr>143</gpxtpx:hr>
          </gpxtpx:TrackPointExtension>
        </extensions>
      </trkpt>
      <trkpt lat="50.48395" lon="2.5651">
        <ele>66.2</ele>
        <time>2021-06-24T18:23:01Z</time>
        <extensions>
          <gpxtpx:TrackPointExtension xmlns:gpxtpx="http://www.garmin.com/xmlschemas/TrackPointExtension/v1">
            <gpxtpx:hr>144</gpxtpx:hr>
          </gpxtpx:TrackPointExtension>
        </extensions>
      </trkpt>
      <trkpt lat="50.48395" lon="2.56505">
        <ele>66.4</ele>
        <time>2021-06-24T18:23:02Z</time>
        <extensions>
          <gpxtpx:TrackPointExtension xmlns:gpxtpx="http://www.garmin.com/xmlschemas/TrackPointExtension/v1">
            <gpxtpx:hr>145</gpxtpx:hr>
          </gpxtpx:TrackPointExtension>
        </extensions>
      </trkpt>
      <trkpt lat="50.48396" lon="2.56501">
        <ele>66.6</ele>
        <time>2021-06-24T18:23:03Z</time>
        <extensions>
          <gpxtpx:TrackPointExtension xmlns:gpxtpx="http://www.garmin.com/xmlschemas/TrackPointExtension/v1">
            <gpxtpx:hr>146</gpxtpx:hr>
          </gpxtpx:TrackPointExtension>
        </extensions>
      </trkpt>
      <trkpt lat="50.48397" lon="2.56496">
        <ele>66.6</ele>
        <time>2021-06-24T18:23:04Z</time>
        <extensions>
          <gpxtpx:TrackPointExtension xmlns:gpxtpx="http://www.garmin.com/xmlschemas/TrackPointExtension/v1">
            <gpxtpx:hr>147</gpxtpx:hr>
          </gpxtpx:TrackPointExtension>
        </extensions>
      </trkpt>
      <trkpt lat="50.48398" lon="2.56492">
        <ele>66.8</ele>
        <time>2021-06-24T18:23:05Z</time>
        <extensions>
          <gpxtpx:TrackPointExtension xmlns:gpxtpx="http://www.garmin.com/xmlschemas/TrackPointExtension/v1">
            <gpxtpx:hr>147</gpxtpx:hr>
          </gpxtpx:TrackPointExtension>
        </extensions>
      </trkpt>
      <trkpt lat="50.48399" lon="2.56486">
        <ele>67</ele>
        <time>2021-06-24T18:23:06Z</time>
        <extensions>
          <gpxtpx:TrackPointExtension xmlns:gpxtpx="http://www.garmin.com/xmlschemas/TrackPointExtension/v1">
            <gpxtpx:hr>148</gpxtpx:hr>
          </gpxtpx:TrackPointExtension>
        </extensions>
      </trkpt>
      <trkpt lat="50.484" lon="2.56481">
        <ele>67</ele>
        <time>2021-06-24T18:23:07Z</time>
        <extensions>
          <gpxtpx:TrackPointExtension xmlns:gpxtpx="http://www.garmin.com/xmlschemas/TrackPointExtension/v1">
            <gpxtpx:hr>148</gpxtpx:hr>
          </gpxtpx:TrackPointExtension>
        </extensions>
      </trkpt>
      <trkpt lat="50.48401" lon="2.56475">
        <ele>67.2</ele>
        <time>2021-06-24T18:23:08Z</time>
        <extensions>
          <gpxtpx:TrackPointExtension xmlns:gpxtpx="http://www.garmin.com/xmlschemas/TrackPointExtension/v1">
            <gpxtpx:hr>148</gpxtpx:hr>
          </gpxtpx:TrackPointExtension>
        </extensions>
      </trkpt>
      <trkpt lat="50.48402" lon="2.56468">
        <ele>67.2</ele>
        <time>2021-06-24T18:23:09Z</time>
        <extensions>
          <gpxtpx:TrackPointExtension xmlns:gpxtpx="http://www.garmin.com/xmlschemas/TrackPointExtension/v1">
            <gpxtpx:hr>147</gpxtpx:hr>
          </gpxtpx:TrackPointExtension>
        </extensions>
      </trkpt>
      <trkpt lat="50.48403" lon="2.56462">
        <ele>67.2</ele>
        <time>2021-06-24T18:23:10Z</time>
        <extensions>
          <gpxtpx:TrackPointExtension xmlns:gpxtpx="http://www.garmin.com/xmlschemas/TrackPointExtension/v1">
            <gpxtpx:hr>147</gpxtpx:hr>
          </gpxtpx:TrackPointExtension>
        </extensions>
      </trkpt>
      <trkpt lat="50.48404" lon="2.56455">
        <ele>67.2</ele>
        <time>2021-06-24T18:23:11Z</time>
        <extensions>
          <gpxtpx:TrackPointExtension xmlns:gpxtpx="http://www.garmin.com/xmlschemas/TrackPointExtension/v1">
            <gpxtpx:hr>147</gpxtpx:hr>
          </gpxtpx:TrackPointExtension>
        </extensions>
      </trkpt>
      <trkpt lat="50.48405" lon="2.56448">
        <ele>67.2</ele>
        <time>2021-06-24T18:23:12Z</time>
        <extensions>
          <gpxtpx:TrackPointExtension xmlns:gpxtpx="http://www.garmin.com/xmlschemas/TrackPointExtension/v1">
            <gpxtpx:hr>147</gpxtpx:hr>
          </gpxtpx:TrackPointExtension>
        </extensions>
      </trkpt>
      <trkpt lat="50.48407" lon="2.56434">
        <ele>67.4</ele>
        <time>2021-06-24T18:23:14Z</time>
        <extensions>
          <gpxtpx:TrackPointExtension xmlns:gpxtpx="http://www.garmin.com/xmlschemas/TrackPointExtension/v1">
            <gpxtpx:hr>147</gpxtpx:hr>
          </gpxtpx:TrackPointExtension>
        </extensions>
      </trkpt>
      <trkpt lat="50.48406" lon="2.5642">
        <ele>67.4</ele>
        <time>2021-06-24T18:23:16Z</time>
        <extensions>
          <gpxtpx:TrackPointExtension xmlns:gpxtpx="http://www.garmin.com/xmlschemas/TrackPointExtension/v1">
            <gpxtpx:hr>147</gpxtpx:hr>
          </gpxtpx:TrackPointExtension>
        </extensions>
      </trkpt>
      <trkpt lat="50.48402" lon="2.56407">
        <ele>67.4</ele>
        <time>2021-06-24T18:23:18Z</time>
        <extensions>
          <gpxtpx:TrackPointExtension xmlns:gpxtpx="http://www.garmin.com/xmlschemas/TrackPointExtension/v1">
            <gpxtpx:hr>147</gpxtpx:hr>
          </gpxtpx:TrackPointExtension>
        </extensions>
      </trkpt>
      <trkpt lat="50.48399" lon="2.56402">
        <ele>67.4</ele>
        <time>2021-06-24T18:23:19Z</time>
        <extensions>
          <gpxtpx:TrackPointExtension xmlns:gpxtpx="http://www.garmin.com/xmlschemas/TrackPointExtension/v1">
            <gpxtpx:hr>147</gpxtpx:hr>
          </gpxtpx:TrackPointExtension>
        </extensions>
      </trkpt>
      <trkpt lat="50.48395" lon="2.56397">
        <ele>67.2</ele>
        <time>2021-06-24T18:23:20Z</time>
        <extensions>
          <gpxtpx:TrackPointExtension xmlns:gpxtpx="http://www.garmin.com/xmlschemas/TrackPointExtension/v1">
            <gpxtpx:hr>147</gpxtpx:hr>
          </gpxtpx:TrackPointExtension>
        </extensions>
      </trkpt>
      <trkpt lat="50.48392" lon="2.56391">
        <ele>67.2</ele>
        <time>2021-06-24T18:23:21Z</time>
        <extensions>
          <gpxtpx:TrackPointExtension xmlns:gpxtpx="http://www.garmin.com/xmlschemas/TrackPointExtension/v1">
            <gpxtpx:hr>147</gpxtpx:hr>
          </gpxtpx:TrackPointExtension>
        </extensions>
      </trkpt>
      <trkpt lat="50.48389" lon="2.56387">
        <ele>67.2</ele>
        <time>2021-06-24T18:23:22Z</time>
        <extensions>
          <gpxtpx:TrackPointExtension xmlns:gpxtpx="http://www.garmin.com/xmlschemas/TrackPointExtension/v1">
            <gpxtpx:hr>146</gpxtpx:hr>
          </gpxtpx:TrackPointExtension>
        </extensions>
      </trkpt>
      <trkpt lat="50.48382" lon="2.56376">
        <ele>67</ele>
        <time>2021-06-24T18:23:24Z</time>
        <extensions>
          <gpxtpx:TrackPointExtension xmlns:gpxtpx="http://www.garmin.com/xmlschemas/TrackPointExtension/v1">
            <gpxtpx:hr>145</gpxtpx:hr>
          </gpxtpx:TrackPointExtension>
        </extensions>
      </trkpt>
      <trkpt lat="50.48379" lon="2.5637">
        <ele>67</ele>
        <time>2021-06-24T18:23:25Z</time>
        <extensions>
          <gpxtpx:TrackPointExtension xmlns:gpxtpx="http://www.garmin.com/xmlschemas/TrackPointExtension/v1">
            <gpxtpx:hr>145</gpxtpx:hr>
          </gpxtpx:TrackPointExtension>
        </extensions>
      </trkpt>
      <trkpt lat="50.48376" lon="2.56365">
        <ele>67.2</ele>
        <time>2021-06-24T18:23:26Z</time>
        <extensions>
          <gpxtpx:TrackPointExtension xmlns:gpxtpx="http://www.garmin.com/xmlschemas/TrackPointExtension/v1">
            <gpxtpx:hr>145</gpxtpx:hr>
          </gpxtpx:TrackPointExtension>
        </extensions>
      </trkpt>
      <trkpt lat="50.48373" lon="2.5636">
        <ele>67.2</ele>
        <time>2021-06-24T18:23:27Z</time>
        <extensions>
          <gpxtpx:TrackPointExtension xmlns:gpxtpx="http://www.garmin.com/xmlschemas/TrackPointExtension/v1">
            <gpxtpx:hr>146</gpxtpx:hr>
          </gpxtpx:TrackPointExtension>
        </extensions>
      </trkpt>
      <trkpt lat="50.48369" lon="2.56354">
        <ele>67.2</ele>
        <time>2021-06-24T18:23:28Z</time>
        <extensions>
          <gpxtpx:TrackPointExtension xmlns:gpxtpx="http://www.garmin.com/xmlschemas/TrackPointExtension/v1">
            <gpxtpx:hr>146</gpxtpx:hr>
          </gpxtpx:TrackPointExtension>
        </extensions>
      </trkpt>
      <trkpt lat="50.48366" lon="2.56349">
        <ele>67.2</ele>
        <time>2021-06-24T18:23:29Z</time>
        <extensions>
          <gpxtpx:TrackPointExtension xmlns:gpxtpx="http://www.garmin.com/xmlschemas/TrackPointExtension/v1">
            <gpxtpx:hr>147</gpxtpx:hr>
          </gpxtpx:TrackPointExtension>
        </extensions>
      </trkpt>
      <trkpt lat="50.48362" lon="2.56344">
        <ele>67.2</ele>
        <time>2021-06-24T18:23:30Z</time>
        <extensions>
          <gpxtpx:TrackPointExtension xmlns:gpxtpx="http://www.garmin.com/xmlschemas/TrackPointExtension/v1">
            <gpxtpx:hr>147</gpxtpx:hr>
          </gpxtpx:TrackPointExtension>
        </extensions>
      </trkpt>
      <trkpt lat="50.48358" lon="2.56338">
        <ele>67.2</ele>
        <time>2021-06-24T18:23:31Z</time>
        <extensions>
          <gpxtpx:TrackPointExtension xmlns:gpxtpx="http://www.garmin.com/xmlschemas/TrackPointExtension/v1">
            <gpxtpx:hr>147</gpxtpx:hr>
          </gpxtpx:TrackPointExtension>
        </extensions>
      </trkpt>
      <trkpt lat="50.48352" lon="2.56328">
        <ele>67.2</ele>
        <time>2021-06-24T18:23:33Z</time>
        <extensions>
          <gpxtpx:TrackPointExtension xmlns:gpxtpx="http://www.garmin.com/xmlschemas/TrackPointExtension/v1">
            <gpxtpx:hr>146</gpxtpx:hr>
          </gpxtpx:TrackPointExtension>
        </extensions>
      </trkpt>
      <trkpt lat="50.48348" lon="2.56323">
        <ele>67.2</ele>
        <time>2021-06-24T18:23:34Z</time>
        <extensions>
          <gpxtpx:TrackPointExtension xmlns:gpxtpx="http://www.garmin.com/xmlschemas/TrackPointExtension/v1">
            <gpxtpx:hr>146</gpxtpx:hr>
          </gpxtpx:TrackPointExtension>
        </extensions>
      </trkpt>
      <trkpt lat="50.48345" lon="2.56318">
        <ele>67.2</ele>
        <time>2021-06-24T18:23:35Z</time>
        <extensions>
          <gpxtpx:TrackPointExtension xmlns:gpxtpx="http://www.garmin.com/xmlschemas/TrackPointExtension/v1">
            <gpxtpx:hr>145</gpxtpx:hr>
          </gpxtpx:TrackPointExtension>
        </extensions>
      </trkpt>
      <trkpt lat="50.48342" lon="2.56314">
        <ele>67.2</ele>
        <time>2021-06-24T18:23:36Z</time>
        <extensions>
          <gpxtpx:TrackPointExtension xmlns:gpxtpx="http://www.garmin.com/xmlschemas/TrackPointExtension/v1">
            <gpxtpx:hr>144</gpxtpx:hr>
          </gpxtpx:TrackPointExtension>
        </extensions>
      </trkpt>
      <trkpt lat="50.4834" lon="2.56309">
        <ele>67.2</ele>
        <time>2021-06-24T18:23:37Z</time>
        <extensions>
          <gpxtpx:TrackPointExtension xmlns:gpxtpx="http://www.garmin.com/xmlschemas/TrackPointExtension/v1">
            <gpxtpx:hr>144</gpxtpx:hr>
          </gpxtpx:TrackPointExtension>
        </extensions>
      </trkpt>
      <trkpt lat="50.48337" lon="2.56306">
        <ele>67.2</ele>
        <time>2021-06-24T18:23:38Z</time>
        <extensions>
          <gpxtpx:TrackPointExtension xmlns:gpxtpx="http://www.garmin.com/xmlschemas/TrackPointExtension/v1">
            <gpxtpx:hr>144</gpxtpx:hr>
          </gpxtpx:TrackPointExtension>
        </extensions>
      </trkpt>
      <trkpt lat="50.48334" lon="2.56304">
        <ele>67.2</ele>
        <time>2021-06-24T18:23:39Z</time>
        <extensions>
          <gpxtpx:TrackPointExtension xmlns:gpxtpx="http://www.garmin.com/xmlschemas/TrackPointExtension/v1">
            <gpxtpx:hr>144</gpxtpx:hr>
          </gpxtpx:TrackPointExtension>
        </extensions>
      </trkpt>
      <trkpt lat="50.48332" lon="2.56304">
        <ele>67.2</ele>
        <time>2021-06-24T18:23:40Z</time>
        <extensions>
          <gpxtpx:TrackPointExtension xmlns:gpxtpx="http://www.garmin.com/xmlschemas/TrackPointExtension/v1">
            <gpxtpx:hr>144</gpxtpx:hr>
          </gpxtpx:TrackPointExtension>
        </extensions>
      </trkpt>
      <trkpt lat="50.48325" lon="2.56309">
        <ele>67.2</ele>
        <time>2021-06-24T18:23:42Z</time>
        <extensions>
          <gpxtpx:TrackPointExtension xmlns:gpxtpx="http://www.garmin.com/xmlschemas/TrackPointExtension/v1">
            <gpxtpx:hr>144</gpxtpx:hr>
          </gpxtpx:TrackPointExtension>
        </extensions>
      </trkpt>
      <trkpt lat="50.48322" lon="2.56314">
        <ele>67.2</ele>
        <time>2021-06-24T18:23:43Z</time>
        <extensions>
          <gpxtpx:TrackPointExtension xmlns:gpxtpx="http://www.garmin.com/xmlschemas/TrackPointExtension/v1">
            <gpxtpx:hr>143</gpxtpx:hr>
          </gpxtpx:TrackPointExtension>
        </extensions>
      </trkpt>
      <trkpt lat="50.48317" lon="2.56323">
        <ele>67.4</ele>
        <time>2021-06-24T18:23:45Z</time>
        <extensions>
          <gpxtpx:TrackPointExtension xmlns:gpxtpx="http://www.garmin.com/xmlschemas/TrackPointExtension/v1">
            <gpxtpx:hr>142</gpxtpx:hr>
          </gpxtpx:TrackPointExtension>
        </extensions>
      </trkpt>
      <trkpt lat="50.48314" lon="2.56328">
        <ele>67.4</ele>
        <time>2021-06-24T18:23:46Z</time>
        <extensions>
          <gpxtpx:TrackPointExtension xmlns:gpxtpx="http://www.garmin.com/xmlschemas/TrackPointExtension/v1">
            <gpxtpx:hr>141</gpxtpx:hr>
          </gpxtpx:TrackPointExtension>
        </extensions>
      </trkpt>
      <trkpt lat="50.48312" lon="2.56333">
        <ele>67.4</ele>
        <time>2021-06-24T18:23:47Z</time>
        <extensions>
          <gpxtpx:TrackPointExtension xmlns:gpxtpx="http://www.garmin.com/xmlschemas/TrackPointExtension/v1">
            <gpxtpx:hr>140</gpxtpx:hr>
          </gpxtpx:TrackPointExtension>
        </extensions>
      </trkpt>
      <trkpt lat="50.48309" lon="2.56338">
        <ele>67.4</ele>
        <time>2021-06-24T18:23:48Z</time>
        <extensions>
          <gpxtpx:TrackPointExtension xmlns:gpxtpx="http://www.garmin.com/xmlschemas/TrackPointExtension/v1">
            <gpxtpx:hr>140</gpxtpx:hr>
          </gpxtpx:TrackPointExtension>
        </extensions>
      </trkpt>
      <trkpt lat="50.48307" lon="2.56343">
        <ele>67.6</ele>
        <time>2021-06-24T18:23:49Z</time>
        <extensions>
          <gpxtpx:TrackPointExtension xmlns:gpxtpx="http://www.garmin.com/xmlschemas/TrackPointExtension/v1">
            <gpxtpx:hr>139</gpxtpx:hr>
          </gpxtpx:TrackPointExtension>
        </extensions>
      </trkpt>
      <trkpt lat="50.48302" lon="2.56353">
        <ele>67.6</ele>
        <time>2021-06-24T18:23:51Z</time>
        <extensions>
          <gpxtpx:TrackPointExtension xmlns:gpxtpx="http://www.garmin.com/xmlschemas/TrackPointExtension/v1">
            <gpxtpx:hr>139</gpxtpx:hr>
          </gpxtpx:TrackPointExtension>
        </extensions>
      </trkpt>
      <trkpt lat="50.48299" lon="2.56358">
        <ele>67.8</ele>
        <time>2021-06-24T18:23:52Z</time>
        <extensions>
          <gpxtpx:TrackPointExtension xmlns:gpxtpx="http://www.garmin.com/xmlschemas/TrackPointExtension/v1">
            <gpxtpx:hr>139</gpxtpx:hr>
          </gpxtpx:TrackPointExtension>
        </extensions>
      </trkpt>
      <trkpt lat="50.48296" lon="2.56362">
        <ele>67.8</ele>
        <time>2021-06-24T18:23:53Z</time>
        <extensions>
          <gpxtpx:TrackPointExtension xmlns:gpxtpx="http://www.garmin.com/xmlschemas/TrackPointExtension/v1">
            <gpxtpx:hr>139</gpxtpx:hr>
          </gpxtpx:TrackPointExtension>
        </extensions>
      </trkpt>
      <trkpt lat="50.48292" lon="2.56367">
        <ele>67.8</ele>
        <time>2021-06-24T18:23:54Z</time>
        <extensions>
          <gpxtpx:TrackPointExtension xmlns:gpxtpx="http://www.garmin.com/xmlschemas/TrackPointExtension/v1">
            <gpxtpx:hr>139</gpxtpx:hr>
          </gpxtpx:TrackPointExtension>
        </extensions>
      </trkpt>
      <trkpt lat="50.4829" lon="2.5637">
        <ele>68</ele>
        <time>2021-06-24T18:23:55Z</time>
        <extensions>
          <gpxtpx:TrackPointExtension xmlns:gpxtpx="http://www.garmin.com/xmlschemas/TrackPointExtension/v1">
            <gpxtpx:hr>139</gpxtpx:hr>
          </gpxtpx:TrackPointExtension>
        </extensions>
      </trkpt>
      <trkpt lat="50.48282" lon="2.56376">
        <ele>68</ele>
        <time>2021-06-24T18:23:57Z</time>
        <extensions>
          <gpxtpx:TrackPointExtension xmlns:gpxtpx="http://www.garmin.com/xmlschemas/TrackPointExtension/v1">
            <gpxtpx:hr>140</gpxtpx:hr>
          </gpxtpx:TrackPointExtension>
        </extensions>
      </trkpt>
      <trkpt lat="50.48278" lon="2.56378">
        <ele>68</ele>
        <time>2021-06-24T18:23:58Z</time>
        <extensions>
          <gpxtpx:TrackPointExtension xmlns:gpxtpx="http://www.garmin.com/xmlschemas/TrackPointExtension/v1">
            <gpxtpx:hr>141</gpxtpx:hr>
          </gpxtpx:TrackPointExtension>
        </extensions>
      </trkpt>
      <trkpt lat="50.48274" lon="2.5638">
        <ele>68.2</ele>
        <time>2021-06-24T18:23:59Z</time>
        <extensions>
          <gpxtpx:TrackPointExtension xmlns:gpxtpx="http://www.garmin.com/xmlschemas/TrackPointExtension/v1">
            <gpxtpx:hr>141</gpxtpx:hr>
          </gpxtpx:TrackPointExtension>
        </extensions>
      </trkpt>
      <trkpt lat="50.4827" lon="2.56382">
        <ele>68.4</ele>
        <time>2021-06-24T18:24:00Z</time>
        <extensions>
          <gpxtpx:TrackPointExtension xmlns:gpxtpx="http://www.garmin.com/xmlschemas/TrackPointExtension/v1">
            <gpxtpx:hr>141</gpxtpx:hr>
          </gpxtpx:TrackPointExtension>
        </extensions>
      </trkpt>
      <trkpt lat="50.48267" lon="2.56385">
        <ele>68.4</ele>
        <time>2021-06-24T18:24:01Z</time>
        <extensions>
          <gpxtpx:TrackPointExtension xmlns:gpxtpx="http://www.garmin.com/xmlschemas/TrackPointExtension/v1">
            <gpxtpx:hr>141</gpxtpx:hr>
          </gpxtpx:TrackPointExtension>
        </extensions>
      </trkpt>
      <trkpt lat="50.48261" lon="2.56394">
        <ele>68.6</ele>
        <time>2021-06-24T18:24:03Z</time>
        <extensions>
          <gpxtpx:TrackPointExtension xmlns:gpxtpx="http://www.garmin.com/xmlschemas/TrackPointExtension/v1">
            <gpxtpx:hr>142</gpxtpx:hr>
          </gpxtpx:TrackPointExtension>
        </extensions>
      </trkpt>
      <trkpt lat="50.48259" lon="2.56398">
        <ele>68.8</ele>
        <time>2021-06-24T18:24:04Z</time>
        <extensions>
          <gpxtpx:TrackPointExtension xmlns:gpxtpx="http://www.garmin.com/xmlschemas/TrackPointExtension/v1">
            <gpxtpx:hr>142</gpxtpx:hr>
          </gpxtpx:TrackPointExtension>
        </extensions>
      </trkpt>
      <trkpt lat="50.48253" lon="2.56409">
        <ele>69</ele>
        <time>2021-06-24T18:24:06Z</time>
        <extensions>
          <gpxtpx:TrackPointExtension xmlns:gpxtpx="http://www.garmin.com/xmlschemas/TrackPointExtension/v1">
            <gpxtpx:hr>142</gpxtpx:hr>
          </gpxtpx:TrackPointExtension>
        </extensions>
      </trkpt>
      <trkpt lat="50.48251" lon="2.56413">
        <ele>69.2</ele>
        <time>2021-06-24T18:24:07Z</time>
        <extensions>
          <gpxtpx:TrackPointExtension xmlns:gpxtpx="http://www.garmin.com/xmlschemas/TrackPointExtension/v1">
            <gpxtpx:hr>143</gpxtpx:hr>
          </gpxtpx:TrackPointExtension>
        </extensions>
      </trkpt>
      <trkpt lat="50.48248" lon="2.56417">
        <ele>69.2</ele>
        <time>2021-06-24T18:24:08Z</time>
        <extensions>
          <gpxtpx:TrackPointExtension xmlns:gpxtpx="http://www.garmin.com/xmlschemas/TrackPointExtension/v1">
            <gpxtpx:hr>143</gpxtpx:hr>
          </gpxtpx:TrackPointExtension>
        </extensions>
      </trkpt>
      <trkpt lat="50.48245" lon="2.5642">
        <ele>69.4</ele>
        <time>2021-06-24T18:24:09Z</time>
        <extensions>
          <gpxtpx:TrackPointExtension xmlns:gpxtpx="http://www.garmin.com/xmlschemas/TrackPointExtension/v1">
            <gpxtpx:hr>142</gpxtpx:hr>
          </gpxtpx:TrackPointExtension>
        </extensions>
      </trkpt>
      <trkpt lat="50.48241" lon="2.56421">
        <ele>69.4</ele>
        <time>2021-06-24T18:24:10Z</time>
        <extensions>
          <gpxtpx:TrackPointExtension xmlns:gpxtpx="http://www.garmin.com/xmlschemas/TrackPointExtension/v1">
            <gpxtpx:hr>142</gpxtpx:hr>
          </gpxtpx:TrackPointExtension>
        </extensions>
      </trkpt>
      <trkpt lat="50.48238" lon="2.5642">
        <ele>69.4</ele>
        <time>2021-06-24T18:24:11Z</time>
        <extensions>
          <gpxtpx:TrackPointExtension xmlns:gpxtpx="http://www.garmin.com/xmlschemas/TrackPointExtension/v1">
            <gpxtpx:hr>141</gpxtpx:hr>
          </gpxtpx:TrackPointExtension>
        </extensions>
      </trkpt>
      <trkpt lat="50.48235" lon="2.56417">
        <ele>69.6</ele>
        <time>2021-06-24T18:24:12Z</time>
        <extensions>
          <gpxtpx:TrackPointExtension xmlns:gpxtpx="http://www.garmin.com/xmlschemas/TrackPointExtension/v1">
            <gpxtpx:hr>141</gpxtpx:hr>
          </gpxtpx:TrackPointExtension>
        </extensions>
      </trkpt>
      <trkpt lat="50.48232" lon="2.56414">
        <ele>69.6</ele>
        <time>2021-06-24T18:24:13Z</time>
        <extensions>
          <gpxtpx:TrackPointExtension xmlns:gpxtpx="http://www.garmin.com/xmlschemas/TrackPointExtension/v1">
            <gpxtpx:hr>140</gpxtpx:hr>
          </gpxtpx:TrackPointExtension>
        </extensions>
      </trkpt>
      <trkpt lat="50.48229" lon="2.5641">
        <ele>69.6</ele>
        <time>2021-06-24T18:24:14Z</time>
        <extensions>
          <gpxtpx:TrackPointExtension xmlns:gpxtpx="http://www.garmin.com/xmlschemas/TrackPointExtension/v1">
            <gpxtpx:hr>140</gpxtpx:hr>
          </gpxtpx:TrackPointExtension>
        </extensions>
      </trkpt>
      <trkpt lat="50.48226" lon="2.56407">
        <ele>69.6</ele>
        <time>2021-06-24T18:24:15Z</time>
        <extensions>
          <gpxtpx:TrackPointExtension xmlns:gpxtpx="http://www.garmin.com/xmlschemas/TrackPointExtension/v1">
            <gpxtpx:hr>139</gpxtpx:hr>
          </gpxtpx:TrackPointExtension>
        </extensions>
      </trkpt>
      <trkpt lat="50.48223" lon="2.56403">
        <ele>69.6</ele>
        <time>2021-06-24T18:24:16Z</time>
        <extensions>
          <gpxtpx:TrackPointExtension xmlns:gpxtpx="http://www.garmin.com/xmlschemas/TrackPointExtension/v1">
            <gpxtpx:hr>139</gpxtpx:hr>
          </gpxtpx:TrackPointExtension>
        </extensions>
      </trkpt>
      <trkpt lat="50.48221" lon="2.56399">
        <ele>69.6</ele>
        <time>2021-06-24T18:24:17Z</time>
        <extensions>
          <gpxtpx:TrackPointExtension xmlns:gpxtpx="http://www.garmin.com/xmlschemas/TrackPointExtension/v1">
            <gpxtpx:hr>138</gpxtpx:hr>
          </gpxtpx:TrackPointExtension>
        </extensions>
      </trkpt>
      <trkpt lat="50.48218" lon="2.56395">
        <ele>69.6</ele>
        <time>2021-06-24T18:24:18Z</time>
        <extensions>
          <gpxtpx:TrackPointExtension xmlns:gpxtpx="http://www.garmin.com/xmlschemas/TrackPointExtension/v1">
            <gpxtpx:hr>138</gpxtpx:hr>
          </gpxtpx:TrackPointExtension>
        </extensions>
      </trkpt>
      <trkpt lat="50.48215" lon="2.56391">
        <ele>69.4</ele>
        <time>2021-06-24T18:24:19Z</time>
        <extensions>
          <gpxtpx:TrackPointExtension xmlns:gpxtpx="http://www.garmin.com/xmlschemas/TrackPointExtension/v1">
            <gpxtpx:hr>137</gpxtpx:hr>
          </gpxtpx:TrackPointExtension>
        </extensions>
      </trkpt>
      <trkpt lat="50.48213" lon="2.56388">
        <ele>69.4</ele>
        <time>2021-06-24T18:24:20Z</time>
        <extensions>
          <gpxtpx:TrackPointExtension xmlns:gpxtpx="http://www.garmin.com/xmlschemas/TrackPointExtension/v1">
            <gpxtpx:hr>137</gpxtpx:hr>
          </gpxtpx:TrackPointExtension>
        </extensions>
      </trkpt>
      <trkpt lat="50.4821" lon="2.56385">
        <ele>69.4</ele>
        <time>2021-06-24T18:24:21Z</time>
        <extensions>
          <gpxtpx:TrackPointExtension xmlns:gpxtpx="http://www.garmin.com/xmlschemas/TrackPointExtension/v1">
            <gpxtpx:hr>137</gpxtpx:hr>
          </gpxtpx:TrackPointExtension>
        </extensions>
      </trkpt>
      <trkpt lat="50.48208" lon="2.56382">
        <ele>69.4</ele>
        <time>2021-06-24T18:24:22Z</time>
        <extensions>
          <gpxtpx:TrackPointExtension xmlns:gpxtpx="http://www.garmin.com/xmlschemas/TrackPointExtension/v1">
            <gpxtpx:hr>137</gpxtpx:hr>
          </gpxtpx:TrackPointExtension>
        </extensions>
      </trkpt>
      <trkpt lat="50.48205" lon="2.5638">
        <ele>69.4</ele>
        <time>2021-06-24T18:24:23Z</time>
        <extensions>
          <gpxtpx:TrackPointExtension xmlns:gpxtpx="http://www.garmin.com/xmlschemas/TrackPointExtension/v1">
            <gpxtpx:hr>137</gpxtpx:hr>
          </gpxtpx:TrackPointExtension>
        </extensions>
      </trkpt>
      <trkpt lat="50.48203" lon="2.56378">
        <ele>69.4</ele>
        <time>2021-06-24T18:24:24Z</time>
        <extensions>
          <gpxtpx:TrackPointExtension xmlns:gpxtpx="http://www.garmin.com/xmlschemas/TrackPointExtension/v1">
            <gpxtpx:hr>137</gpxtpx:hr>
          </gpxtpx:TrackPointExtension>
        </extensions>
      </trkpt>
      <trkpt lat="50.48202" lon="2.56378">
        <ele>69.4</ele>
        <time>2021-06-24T18:24:25Z</time>
        <extensions>
          <gpxtpx:TrackPointExtension xmlns:gpxtpx="http://www.garmin.com/xmlschemas/TrackPointExtension/v1">
            <gpxtpx:hr>137</gpxtpx:hr>
          </gpxtpx:TrackPointExtension>
        </extensions>
      </trkpt>
      <trkpt lat="50.48201" lon="2.56379">
        <ele>69.4</ele>
        <time>2021-06-24T18:24:26Z</time>
        <extensions>
          <gpxtpx:TrackPointExtension xmlns:gpxtpx="http://www.garmin.com/xmlschemas/TrackPointExtension/v1">
            <gpxtpx:hr>137</gpxtpx:hr>
          </gpxtpx:TrackPointExtension>
        </extensions>
      </trkpt>
      <trkpt lat="50.482" lon="2.56381">
        <ele>69.4</ele>
        <time>2021-06-24T18:24:27Z</time>
        <extensions>
          <gpxtpx:TrackPointExtension xmlns:gpxtpx="http://www.garmin.com/xmlschemas/TrackPointExtension/v1">
            <gpxtpx:hr>136</gpxtpx:hr>
          </gpxtpx:TrackPointExtension>
        </extensions>
      </trkpt>
      <trkpt lat="50.48199" lon="2.56385">
        <ele>69.4</ele>
        <time>2021-06-24T18:24:29Z</time>
        <extensions>
          <gpxtpx:TrackPointExtension xmlns:gpxtpx="http://www.garmin.com/xmlschemas/TrackPointExtension/v1">
            <gpxtpx:hr>135</gpxtpx:hr>
          </gpxtpx:TrackPointExtension>
        </extensions>
      </trkpt>
      <trkpt lat="50.48199" lon="2.56387">
        <ele>69.4</ele>
        <time>2021-06-24T18:24:30Z</time>
        <extensions>
          <gpxtpx:TrackPointExtension xmlns:gpxtpx="http://www.garmin.com/xmlschemas/TrackPointExtension/v1">
            <gpxtpx:hr>134</gpxtpx:hr>
          </gpxtpx:TrackPointExtension>
        </extensions>
      </trkpt>
      <trkpt lat="50.48199" lon="2.56387">
        <ele>69.4</ele>
        <time>2021-06-24T18:24:31Z</time>
        <extensions>
          <gpxtpx:TrackPointExtension xmlns:gpxtpx="http://www.garmin.com/xmlschemas/TrackPointExtension/v1">
            <gpxtpx:hr>133</gpxtpx:hr>
          </gpxtpx:TrackPointExtension>
        </extensions>
      </trkpt>
      <trkpt lat="50.48198" lon="2.56387">
        <ele>69.2</ele>
        <time>2021-06-24T18:24:33Z</time>
        <extensions>
          <gpxtpx:TrackPointExtension xmlns:gpxtpx="http://www.garmin.com/xmlschemas/TrackPointExtension/v1">
            <gpxtpx:hr>131</gpxtpx:hr>
          </gpxtpx:TrackPointExtension>
        </extensions>
      </trkpt>
      <trkpt lat="50.48187" lon="2.56382">
        <ele>71.4</ele>
        <time>2021-06-24T15:35:21Z</time>
        <extensions>
          <gpxtpx:TrackPointExtension xmlns:gpxtpx="http://www.garmin.com/xmlschemas/TrackPointExtension/v1">
            <gpxtpx:hr>69</gpxtpx:hr>
          </gpxtpx:TrackPointExtension>
        </extensions>
      </trkpt>
      <trkpt lat="50.48187" lon="2.56382">
        <ele>71.4</ele>
        <time>2021-06-24T15:35:21Z</time>
        <extensions>
          <gpxtpx:TrackPointExtension xmlns:gpxtpx="http://www.garmin.com/xmlschemas/TrackPointExtension/v1">
            <gpxtpx:hr>69</gpxtpx:hr>
          </gpxtpx:TrackPointExtension>
        </extensions>
      </trkpt>
      <trkpt lat="50.48187" lon="2.56382">
        <ele>71.4</ele>
        <time>2021-06-24T15:35:21Z</time>
        <extensions>
          <gpxtpx:TrackPointExtension xmlns:gpxtpx="http://www.garmin.com/xmlschemas/TrackPointExtension/v1">
            <gpxtpx:hr>69</gpxtpx:hr>
          </gpxtpx:TrackPointExtension>
        </extensions>
      </trkpt>
      <trkpt lat="50.48189" lon="2.56384">
        <ele>71.4</ele>
        <time>2021-06-24T15:35:24Z</time>
        <extensions>
          <gpxtpx:TrackPointExtension xmlns:gpxtpx="http://www.garmin.com/xmlschemas/TrackPointExtension/v1">
            <gpxtpx:hr>68</gpxtpx:hr>
          </gpxtpx:TrackPointExtension>
        </extensions>
      </trkpt>
      <trkpt lat="50.48191" lon="2.56384">
        <ele>44.8</ele>
        <time>2021-06-24T15:35:27Z</time>
        <extensions>
          <gpxtpx:TrackPointExtension xmlns:gpxtpx="http://www.garmin.com/xmlschemas/TrackPointExtension/v1">
            <gpxtpx:hr>65</gpxtpx:hr>
          </gpxtpx:TrackPointExtension>
        </extensions>
      </trkpt>
      <trkpt lat="50.48193" lon="2.56381">
        <ele>45.2</ele>
        <time>2021-06-24T15:35:29Z</time>
        <extensions>
          <gpxtpx:TrackPointExtension xmlns:gpxtpx="http://www.garmin.com/xmlschemas/TrackPointExtension/v1">
            <gpxtpx:hr>61</gpxtpx:hr>
          </gpxtpx:TrackPointExtension>
        </extensions>
      </trkpt>
      <trkpt lat="50.48197" lon="2.56378">
        <ele>45.6</ele>
        <time>2021-06-24T15:35:31Z</time>
        <extensions>
          <gpxtpx:TrackPointExtension xmlns:gpxtpx="http://www.garmin.com/xmlschemas/TrackPointExtension/v1">
            <gpxtpx:hr>58</gpxtpx:hr>
          </gpxtpx:TrackPointExtension>
        </extensions>
      </trkpt>
      <trkpt lat="50.48199" lon="2.56377">
        <ele>46</ele>
        <time>2021-06-24T15:35:32Z</time>
        <extensions>
          <gpxtpx:TrackPointExtension xmlns:gpxtpx="http://www.garmin.com/xmlschemas/TrackPointExtension/v1">
            <gpxtpx:hr>57</gpxtpx:hr>
          </gpxtpx:TrackPointExtension>
        </extensions>
      </trkpt>
      <trkpt lat="50.48201" lon="2.56377">
        <ele>46.2</ele>
        <time>2021-06-24T15:35:33Z</time>
        <extensions>
          <gpxtpx:TrackPointExtension xmlns:gpxtpx="http://www.garmin.com/xmlschemas/TrackPointExtension/v1">
            <gpxtpx:hr>57</gpxtpx:hr>
          </gpxtpx:TrackPointExtension>
        </extensions>
      </trkpt>
      <trkpt lat="50.48204" lon="2.56378">
        <ele>46.4</ele>
        <time>2021-06-24T15:35:34Z</time>
        <extensions>
          <gpxtpx:TrackPointExtension xmlns:gpxtpx="http://www.garmin.com/xmlschemas/TrackPointExtension/v1">
            <gpxtpx:hr>57</gpxtpx:hr>
          </gpxtpx:TrackPointExtension>
        </extensions>
      </trkpt>
      <trkpt lat="50.48205" lon="2.56381">
        <ele>46.8</ele>
        <time>2021-06-24T15:35:35Z</time>
        <extensions>
          <gpxtpx:TrackPointExtension xmlns:gpxtpx="http://www.garmin.com/xmlschemas/TrackPointExtension/v1">
            <gpxtpx:hr>58</gpxtpx:hr>
          </gpxtpx:TrackPointExtension>
        </extensions>
      </trkpt>
      <trkpt lat="50.48207" lon="2.56384">
        <ele>47.2</ele>
        <time>2021-06-24T15:35:36Z</time>
        <extensions>
          <gpxtpx:TrackPointExtension xmlns:gpxtpx="http://www.garmin.com/xmlschemas/TrackPointExtension/v1">
            <gpxtpx:hr>59</gpxtpx:hr>
          </gpxtpx:TrackPointExtension>
        </extensions>
      </trkpt>
      <trkpt lat="50.48209" lon="2.56387">
        <ele>47.4</ele>
        <time>2021-06-24T15:35:37Z</time>
        <extensions>
          <gpxtpx:TrackPointExtension xmlns:gpxtpx="http://www.garmin.com/xmlschemas/TrackPointExtension/v1">
            <gpxtpx:hr>61</gpxtpx:hr>
          </gpxtpx:TrackPointExtension>
        </extensions>
      </trkpt>
      <trkpt lat="50.48212" lon="2.5639">
        <ele>47.8</ele>
        <time>2021-06-24T15:35:38Z</time>
        <extensions>
          <gpxtpx:TrackPointExtension xmlns:gpxtpx="http://www.garmin.com/xmlschemas/TrackPointExtension/v1">
            <gpxtpx:hr>62</gpxtpx:hr>
          </gpxtpx:TrackPointExtension>
        </extensions>
      </trkpt>
      <trkpt lat="50.48215" lon="2.56393">
        <ele>48</ele>
        <time>2021-06-24T15:35:39Z</time>
        <extensions>
          <gpxtpx:TrackPointExtension xmlns:gpxtpx="http://www.garmin.com/xmlschemas/TrackPointExtension/v1">
            <gpxtpx:hr>65</gpxtpx:hr>
          </gpxtpx:TrackPointExtension>
        </extensions>
      </trkpt>
      <trkpt lat="50.48218" lon="2.56397">
        <ele>48.4</ele>
        <time>2021-06-24T15:35:40Z</time>
        <extensions>
          <gpxtpx:TrackPointExtension xmlns:gpxtpx="http://www.garmin.com/xmlschemas/TrackPointExtension/v1">
            <gpxtpx:hr>67</gpxtpx:hr>
          </gpxtpx:TrackPointExtension>
        </extensions>
      </trkpt>
      <trkpt lat="50.48221" lon="2.56401">
        <ele>48.8</ele>
        <time>2021-06-24T15:35:41Z</time>
        <extensions>
          <gpxtpx:TrackPointExtension xmlns:gpxtpx="http://www.garmin.com/xmlschemas/TrackPointExtension/v1">
            <gpxtpx:hr>68</gpxtpx:hr>
          </gpxtpx:TrackPointExtension>
        </extensions>
      </trkpt>
      <trkpt lat="50.48225" lon="2.56404">
        <ele>49.2</ele>
        <time>2021-06-24T15:35:42Z</time>
        <extensions>
          <gpxtpx:TrackPointExtension xmlns:gpxtpx="http://www.garmin.com/xmlschemas/TrackPointExtension/v1">
            <gpxtpx:hr>70</gpxtpx:hr>
          </gpxtpx:TrackPointExtension>
        </extensions>
      </trkpt>
      <trkpt lat="50.48228" lon="2.56408">
        <ele>49.4</ele>
        <time>2021-06-24T15:35:43Z</time>
        <extensions>
          <gpxtpx:TrackPointExtension xmlns:gpxtpx="http://www.garmin.com/xmlschemas/TrackPointExtension/v1">
            <gpxtpx:hr>72</gpxtpx:hr>
          </gpxtpx:TrackPointExtension>
        </extensions>
      </trkpt>
      <trkpt lat="50.48231" lon="2.56412">
        <ele>49.8</ele>
        <time>2021-06-24T15:35:44Z</time>
        <extensions>
          <gpxtpx:TrackPointExtension xmlns:gpxtpx="http://www.garmin.com/xmlschemas/TrackPointExtension/v1">
            <gpxtpx:hr>73</gpxtpx:hr>
          </gpxtpx:TrackPointExtension>
        </extensions>
      </trkpt>
      <trkpt lat="50.48234" lon="2.56416">
        <ele>50.2</ele>
        <time>2021-06-24T15:35:45Z</time>
        <extensions>
          <gpxtpx:TrackPointExtension xmlns:gpxtpx="http://www.garmin.com/xmlschemas/TrackPointExtension/v1">
            <gpxtpx:hr>74</gpxtpx:hr>
          </gpxtpx:TrackPointExtension>
        </extensions>
      </trkpt>
      <trkpt lat="50.48237" lon="2.5642">
        <ele>50.4</ele>
        <time>2021-06-24T15:35:46Z</time>
        <extensions>
          <gpxtpx:TrackPointExtension xmlns:gpxtpx="http://www.garmin.com/xmlschemas/TrackPointExtension/v1">
            <gpxtpx:hr>74</gpxtpx:hr>
          </gpxtpx:TrackPointExtension>
        </extensions>
      </trkpt>
      <trkpt lat="50.4824" lon="2.56424">
        <ele>50.8</ele>
        <time>2021-06-24T15:35:47Z</time>
        <extensions>
          <gpxtpx:TrackPointExtension xmlns:gpxtpx="http://www.garmin.com/xmlschemas/TrackPointExtension/v1">
            <gpxtpx:hr>75</gpxtpx:hr>
          </gpxtpx:TrackPointExtension>
        </extensions>
      </trkpt>
      <trkpt lat="50.48243" lon="2.56427">
        <ele>51.2</ele>
        <time>2021-06-24T15:35:48Z</time>
        <extensions>
          <gpxtpx:TrackPointExtension xmlns:gpxtpx="http://www.garmin.com/xmlschemas/TrackPointExtension/v1">
            <gpxtpx:hr>75</gpxtpx:hr>
          </gpxtpx:TrackPointExtension>
        </extensions>
      </trkpt>
      <trkpt lat="50.48246" lon="2.56431">
        <ele>51.6</ele>
        <time>2021-06-24T15:35:49Z</time>
        <extensions>
          <gpxtpx:TrackPointExtension xmlns:gpxtpx="http://www.garmin.com/xmlschemas/TrackPointExtension/v1">
            <gpxtpx:hr>76</gpxtpx:hr>
          </gpxtpx:TrackPointExtension>
        </extensions>
      </trkpt>
      <trkpt lat="50.48249" lon="2.56435">
        <ele>51.8</ele>
        <time>2021-06-24T15:35:50Z</time>
        <extensions>
          <gpxtpx:TrackPointExtension xmlns:gpxtpx="http://www.garmin.com/xmlschemas/TrackPointExtension/v1">
            <gpxtpx:hr>76</gpxtpx:hr>
          </gpxtpx:TrackPointExtension>
        </extensions>
      </trkpt>
      <trkpt lat="50.48253" lon="2.56439">
        <ele>52.2</ele>
        <time>2021-06-24T15:35:51Z</time>
        <extensions>
          <gpxtpx:TrackPointExtension xmlns:gpxtpx="http://www.garmin.com/xmlschemas/TrackPointExtension/v1">
            <gpxtpx:hr>77</gpxtpx:hr>
          </gpxtpx:TrackPointExtension>
        </extensions>
      </trkpt>
      <trkpt lat="50.48256" lon="2.56443">
        <ele>52.6</ele>
        <time>2021-06-24T15:35:52Z</time>
        <extensions>
          <gpxtpx:TrackPointExtension xmlns:gpxtpx="http://www.garmin.com/xmlschemas/TrackPointExtension/v1">
            <gpxtpx:hr>78</gpxtpx:hr>
          </gpxtpx:TrackPointExtension>
        </extensions>
      </trkpt>
      <trkpt lat="50.4826" lon="2.56447">
        <ele>52.8</ele>
        <time>2021-06-24T15:35:53Z</time>
        <extensions>
          <gpxtpx:TrackPointExtension xmlns:gpxtpx="http://www.garmin.com/xmlschemas/TrackPointExtension/v1">
            <gpxtpx:hr>78</gpxtpx:hr>
          </gpxtpx:TrackPointExtension>
        </extensions>
      </trkpt>
      <trkpt lat="50.48263" lon="2.56452">
        <ele>53.2</ele>
        <time>2021-06-24T15:35:54Z</time>
        <extensions>
          <gpxtpx:TrackPointExtension xmlns:gpxtpx="http://www.garmin.com/xmlschemas/TrackPointExtension/v1">
            <gpxtpx:hr>79</gpxtpx:hr>
          </gpxtpx:TrackPointExtension>
        </extensions>
      </trkpt>
      <trkpt lat="50.48267" lon="2.56456">
        <ele>53.6</ele>
        <time>2021-06-24T15:35:55Z</time>
        <extensions>
          <gpxtpx:TrackPointExtension xmlns:gpxtpx="http://www.garmin.com/xmlschemas/TrackPointExtension/v1">
            <gpxtpx:hr>80</gpxtpx:hr>
          </gpxtpx:TrackPointExtension>
        </extensions>
      </trkpt>
      <trkpt lat="50.48271" lon="2.5646">
        <ele>54</ele>
        <time>2021-06-24T15:35:56Z</time>
        <extensions>
          <gpxtpx:TrackPointExtension xmlns:gpxtpx="http://www.garmin.com/xmlschemas/TrackPointExtension/v1">
            <gpxtpx:hr>81</gpxtpx:hr>
          </gpxtpx:TrackPointExtension>
        </extensions>
      </trkpt>
      <trkpt lat="50.48275" lon="2.56465">
        <ele>54.2</ele>
        <time>2021-06-24T15:35:57Z</time>
        <extensions>
          <gpxtpx:TrackPointExtension xmlns:gpxtpx="http://www.garmin.com/xmlschemas/TrackPointExtension/v1">
            <gpxtpx:hr>82</gpxtpx:hr>
          </gpxtpx:TrackPointExtension>
        </extensions>
      </trkpt>
      <trkpt lat="50.48278" lon="2.5647">
        <ele>54.6</ele>
        <time>2021-06-24T15:35:58Z</time>
        <extensions>
          <gpxtpx:TrackPointExtension xmlns:gpxtpx="http://www.garmin.com/xmlschemas/TrackPointExtension/v1">
            <gpxtpx:hr>83</gpxtpx:hr>
          </gpxtpx:TrackPointExtension>
        </extensions>
      </trkpt>
      <trkpt lat="50.48282" lon="2.56474">
        <ele>55</ele>
        <time>2021-06-24T15:35:59Z</time>
        <extensions>
          <gpxtpx:TrackPointExtension xmlns:gpxtpx="http://www.garmin.com/xmlschemas/TrackPointExtension/v1">
            <gpxtpx:hr>83</gpxtpx:hr>
          </gpxtpx:TrackPointExtension>
        </extensions>
      </trkpt>
      <trkpt lat="50.48286" lon="2.56478">
        <ele>55.2</ele>
        <time>2021-06-24T15:36:00Z</time>
        <extensions>
          <gpxtpx:TrackPointExtension xmlns:gpxtpx="http://www.garmin.com/xmlschemas/TrackPointExtension/v1">
            <gpxtpx:hr>83</gpxtpx:hr>
          </gpxtpx:TrackPointExtension>
        </extensions>
      </trkpt>
      <trkpt lat="50.48289" lon="2.56483">
        <ele>55.6</ele>
        <time>2021-06-24T15:36:01Z</time>
        <extensions>
          <gpxtpx:TrackPointExtension xmlns:gpxtpx="http://www.garmin.com/xmlschemas/TrackPointExtension/v1">
            <gpxtpx:hr>82</gpxtpx:hr>
          </gpxtpx:TrackPointExtension>
        </extensions>
      </trkpt>
      <trkpt lat="50.48292" lon="2.56488">
        <ele>56</ele>
        <time>2021-06-24T15:36:02Z</time>
        <extensions>
          <gpxtpx:TrackPointExtension xmlns:gpxtpx="http://www.garmin.com/xmlschemas/TrackPointExtension/v1">
            <gpxtpx:hr>81</gpxtpx:hr>
          </gpxtpx:TrackPointExtension>
        </extensions>
      </trkpt>
      <trkpt lat="50.48296" lon="2.56493">
        <ele>56.2</ele>
        <time>2021-06-24T15:36:03Z</time>
        <extensions>
          <gpxtpx:TrackPointExtension xmlns:gpxtpx="http://www.garmin.com/xmlschemas/TrackPointExtension/v1">
            <gpxtpx:hr>81</gpxtpx:hr>
          </gpxtpx:TrackPointExtension>
        </extensions>
      </trkpt>
      <trkpt lat="50.48299" lon="2.56497">
        <ele>56.6</ele>
        <time>2021-06-24T15:36:04Z</time>
        <extensions>
          <gpxtpx:TrackPointExtension xmlns:gpxtpx="http://www.garmin.com/xmlschemas/TrackPointExtension/v1">
            <gpxtpx:hr>80</gpxtpx:hr>
          </gpxtpx:TrackPointExtension>
        </extensions>
      </trkpt>
      <trkpt lat="50.48303" lon="2.56501">
        <ele>56.8</ele>
        <time>2021-06-24T15:36:05Z</time>
        <extensions>
          <gpxtpx:TrackPointExtension xmlns:gpxtpx="http://www.garmin.com/xmlschemas/TrackPointExtension/v1">
            <gpxtpx:hr>79</gpxtpx:hr>
          </gpxtpx:TrackPointExtension>
        </extensions>
      </trkpt>
      <trkpt lat="50.48306" lon="2.56506">
        <ele>57.2</ele>
        <time>2021-06-24T15:36:06Z</time>
        <extensions>
          <gpxtpx:TrackPointExtension xmlns:gpxtpx="http://www.garmin.com/xmlschemas/TrackPointExtension/v1">
            <gpxtpx:hr>79</gpxtpx:hr>
          </gpxtpx:TrackPointExtension>
        </extensions>
      </trkpt>
      <trkpt lat="50.4831" lon="2.56512">
        <ele>57.4</ele>
        <time>2021-06-24T15:36:07Z</time>
        <extensions>
          <gpxtpx:TrackPointExtension xmlns:gpxtpx="http://www.garmin.com/xmlschemas/TrackPointExtension/v1">
            <gpxtpx:hr>79</gpxtpx:hr>
          </gpxtpx:TrackPointExtension>
        </extensions>
      </trkpt>
      <trkpt lat="50.48314" lon="2.56518">
        <ele>57.6</ele>
        <time>2021-06-24T15:36:08Z</time>
        <extensions>
          <gpxtpx:TrackPointExtension xmlns:gpxtpx="http://www.garmin.com/xmlschemas/TrackPointExtension/v1">
            <gpxtpx:hr>79</gpxtpx:hr>
          </gpxtpx:TrackPointExtension>
        </extensions>
      </trkpt>
      <trkpt lat="50.48317" lon="2.56524">
        <ele>58</ele>
        <time>2021-06-24T15:36:09Z</time>
        <extensions>
          <gpxtpx:TrackPointExtension xmlns:gpxtpx="http://www.garmin.com/xmlschemas/TrackPointExtension/v1">
            <gpxtpx:hr>80</gpxtpx:hr>
          </gpxtpx:TrackPointExtension>
        </extensions>
      </trkpt>
      <trkpt lat="50.48319" lon="2.56531">
        <ele>58.2</ele>
        <time>2021-06-24T15:36:10Z</time>
        <extensions>
          <gpxtpx:TrackPointExtension xmlns:gpxtpx="http://www.garmin.com/xmlschemas/TrackPointExtension/v1">
            <gpxtpx:hr>81</gpxtpx:hr>
          </gpxtpx:TrackPointExtension>
        </extensions>
      </trkpt>
      <trkpt lat="50.48322" lon="2.56535">
        <ele>58.6</ele>
        <time>2021-06-24T15:36:11Z</time>
        <extensions>
          <gpxtpx:TrackPointExtension xmlns:gpxtpx="http://www.garmin.com/xmlschemas/TrackPointExtension/v1">
            <gpxtpx:hr>82</gpxtpx:hr>
          </gpxtpx:TrackPointExtension>
        </extensions>
      </trkpt>
      <trkpt lat="50.48324" lon="2.56539">
        <ele>58.8</ele>
        <time>2021-06-24T15:36:12Z</time>
        <extensions>
          <gpxtpx:TrackPointExtension xmlns:gpxtpx="http://www.garmin.com/xmlschemas/TrackPointExtension/v1">
            <gpxtpx:hr>83</gpxtpx:hr>
          </gpxtpx:TrackPointExtension>
        </extensions>
      </trkpt>
      <trkpt lat="50.48326" lon="2.56542">
        <ele>59.2</ele>
        <time>2021-06-24T15:36:13Z</time>
        <extensions>
          <gpxtpx:TrackPointExtension xmlns:gpxtpx="http://www.garmin.com/xmlschemas/TrackPointExtension/v1">
            <gpxtpx:hr>84</gpxtpx:hr>
          </gpxtpx:TrackPointExtension>
        </extensions>
      </trkpt>
      <trkpt lat="50.48327" lon="2.56545">
        <ele>59.4</ele>
        <time>2021-06-24T15:36:14Z</time>
        <extensions>
          <gpxtpx:TrackPointExtension xmlns:gpxtpx="http://www.garmin.com/xmlschemas/TrackPointExtension/v1">
            <gpxtpx:hr>85</gpxtpx:hr>
          </gpxtpx:TrackPointExtension>
        </extensions>
      </trkpt>
      <trkpt lat="50.48328" lon="2.56547">
        <ele>59.8</ele>
        <time>2021-06-24T15:36:15Z</time>
        <extensions>
          <gpxtpx:TrackPointExtension xmlns:gpxtpx="http://www.garmin.com/xmlschemas/TrackPointExtension/v1">
            <gpxtpx:hr>85</gpxtpx:hr>
          </gpxtpx:TrackPointExtension>
        </extensions>
      </trkpt>
      <trkpt lat="50.48328" lon="2.56548">
        <ele>60</ele>
        <time>2021-06-24T15:36:16Z</time>
        <extensions>
          <gpxtpx:TrackPointExtension xmlns:gpxtpx="http://www.garmin.com/xmlschemas/TrackPointExtension/v1">
            <gpxtpx:hr>84</gpxtpx:hr>
          </gpxtpx:TrackPointExtension>
        </extensions>
      </trkpt>
      <trkpt lat="50.48333" lon="2.56557">
        <ele>60</ele>
        <time>2021-06-24T15:36:28Z</time>
        <extensions>
          <gpxtpx:TrackPointExtension xmlns:gpxtpx="http://www.garmin.com/xmlschemas/TrackPointExtension/v1">
            <gpxtpx:hr>88</gpxtpx:hr>
          </gpxtpx:TrackPointExtension>
        </extensions>
      </trkpt>
      <trkpt lat="50.48334" lon="2.56559">
        <ele>62.8</ele>
        <time>2021-06-24T15:36:29Z</time>
        <extensions>
          <gpxtpx:TrackPointExtension xmlns:gpxtpx="http://www.garmin.com/xmlschemas/TrackPointExtension/v1">
            <gpxtpx:hr>88</gpxtpx:hr>
          </gpxtpx:TrackPointExtension>
        </extensions>
      </trkpt>
      <trkpt lat="50.48335" lon="2.56561">
        <ele>63</ele>
        <time>2021-06-24T15:36:30Z</time>
        <extensions>
          <gpxtpx:TrackPointExtension xmlns:gpxtpx="http://www.garmin.com/xmlschemas/TrackPointExtension/v1">
            <gpxtpx:hr>87</gpxtpx:hr>
          </gpxtpx:TrackPointExtension>
        </extensions>
      </trkpt>
      <trkpt lat="50.48337" lon="2.56563">
        <ele>63.2</ele>
        <time>2021-06-24T15:36:31Z</time>
        <extensions>
          <gpxtpx:TrackPointExtension xmlns:gpxtpx="http://www.garmin.com/xmlschemas/TrackPointExtension/v1">
            <gpxtpx:hr>87</gpxtpx:hr>
          </gpxtpx:TrackPointExtension>
        </extensions>
      </trkpt>
      <trkpt lat="50.48339" lon="2.56565">
        <ele>63.4</ele>
        <time>2021-06-24T15:36:32Z</time>
        <extensions>
          <gpxtpx:TrackPointExtension xmlns:gpxtpx="http://www.garmin.com/xmlschemas/TrackPointExtension/v1">
            <gpxtpx:hr>87</gpxtpx:hr>
          </gpxtpx:TrackPointExtension>
        </extensions>
      </trkpt>
      <trkpt lat="50.4834" lon="2.56568">
        <ele>63.6</ele>
        <time>2021-06-24T15:36:33Z</time>
        <extensions>
          <gpxtpx:TrackPointExtension xmlns:gpxtpx="http://www.garmin.com/xmlschemas/TrackPointExtension/v1">
            <gpxtpx:hr>86</gpxtpx:hr>
          </gpxtpx:TrackPointExtension>
        </extensions>
      </trkpt>
      <trkpt lat="50.48343" lon="2.56571">
        <ele>64</ele>
        <time>2021-06-24T15:36:34Z</time>
        <extensions>
          <gpxtpx:TrackPointExtension xmlns:gpxtpx="http://www.garmin.com/xmlschemas/TrackPointExtension/v1">
            <gpxtpx:hr>86</gpxtpx:hr>
          </gpxtpx:TrackPointExtension>
        </extensions>
      </trkpt>
      <trkpt lat="50.48346" lon="2.56574">
        <ele>64.2</ele>
        <time>2021-06-24T15:36:35Z</time>
        <extensions>
          <gpxtpx:TrackPointExtension xmlns:gpxtpx="http://www.garmin.com/xmlschemas/TrackPointExtension/v1">
            <gpxtpx:hr>87</gpxtpx:hr>
          </gpxtpx:TrackPointExtension>
        </extensions>
      </trkpt>
      <trkpt lat="50.48348" lon="2.56577">
        <ele>64.4</ele>
        <time>2021-06-24T15:36:36Z</time>
        <extensions>
          <gpxtpx:TrackPointExtension xmlns:gpxtpx="http://www.garmin.com/xmlschemas/TrackPointExtension/v1">
            <gpxtpx:hr>87</gpxtpx:hr>
          </gpxtpx:TrackPointExtension>
        </extensions>
      </trkpt>
      <trkpt lat="50.48351" lon="2.56581">
        <ele>64.4</ele>
        <time>2021-06-24T15:36:37Z</time>
        <extensions>
          <gpxtpx:TrackPointExtension xmlns:gpxtpx="http://www.garmin.com/xmlschemas/TrackPointExtension/v1">
            <gpxtpx:hr>87</gpxtpx:hr>
          </gpxtpx:TrackPointExtension>
        </extensions>
      </trkpt>
      <trkpt lat="50.48355" lon="2.56584">
        <ele>64.6</ele>
        <time>2021-06-24T15:36:38Z</time>
        <extensions>
          <gpxtpx:TrackPointExtension xmlns:gpxtpx="http://www.garmin.com/xmlschemas/TrackPointExtension/v1">
            <gpxtpx:hr>88</gpxtpx:hr>
          </gpxtpx:TrackPointExtension>
        </extensions>
      </trkpt>
      <trkpt lat="50.48358" lon="2.56587">
        <ele>64.8</ele>
        <time>2021-06-24T15:36:39Z</time>
        <extensions>
          <gpxtpx:TrackPointExtension xmlns:gpxtpx="http://www.garmin.com/xmlschemas/TrackPointExtension/v1">
            <gpxtpx:hr>88</gpxtpx:hr>
          </gpxtpx:TrackPointExtension>
        </extensions>
      </trkpt>
      <trkpt lat="50.48362" lon="2.5659">
        <ele>65</ele>
        <time>2021-06-24T15:36:40Z</time>
        <extensions>
          <gpxtpx:TrackPointExtension xmlns:gpxtpx="http://www.garmin.com/xmlschemas/TrackPointExtension/v1">
            <gpxtpx:hr>89</gpxtpx:hr>
          </gpxtpx:TrackPointExtension>
        </extensions>
      </trkpt>
      <trkpt lat="50.48365" lon="2.56593">
        <ele>65.2</ele>
        <time>2021-06-24T15:36:41Z</time>
        <extensions>
          <gpxtpx:TrackPointExtension xmlns:gpxtpx="http://www.garmin.com/xmlschemas/TrackPointExtension/v1">
            <gpxtpx:hr>89</gpxtpx:hr>
          </gpxtpx:TrackPointExtension>
        </extensions>
      </trkpt>
      <trkpt lat="50.48368" lon="2.56597">
        <ele>65.4</ele>
        <time>2021-06-24T15:36:42Z</time>
        <extensions>
          <gpxtpx:TrackPointExtension xmlns:gpxtpx="http://www.garmin.com/xmlschemas/TrackPointExtension/v1">
            <gpxtpx:hr>89</gpxtpx:hr>
          </gpxtpx:TrackPointExtension>
        </extensions>
      </trkpt>
      <trkpt lat="50.48372" lon="2.56601">
        <ele>65.6</ele>
        <time>2021-06-24T15:36:43Z</time>
        <extensions>
          <gpxtpx:TrackPointExtension xmlns:gpxtpx="http://www.garmin.com/xmlschemas/TrackPointExtension/v1">
            <gpxtpx:hr>89</gpxtpx:hr>
          </gpxtpx:TrackPointExtension>
        </extensions>
      </trkpt>
      <trkpt lat="50.48375" lon="2.56606">
        <ele>65.8</ele>
        <time>2021-06-24T15:36:44Z</time>
        <extensions>
          <gpxtpx:TrackPointExtension xmlns:gpxtpx="http://www.garmin.com/xmlschemas/TrackPointExtension/v1">
            <gpxtpx:hr>89</gpxtpx:hr>
          </gpxtpx:TrackPointExtension>
        </extensions>
      </trkpt>
      <trkpt lat="50.48379" lon="2.56611">
        <ele>66</ele>
        <time>2021-06-24T15:36:45Z</time>
        <extensions>
          <gpxtpx:TrackPointExtension xmlns:gpxtpx="http://www.garmin.com/xmlschemas/TrackPointExtension/v1">
            <gpxtpx:hr>89</gpxtpx:hr>
          </gpxtpx:TrackPointExtension>
        </extensions>
      </trkpt>
      <trkpt lat="50.48382" lon="2.56616">
        <ele>66.2</ele>
        <time>2021-06-24T15:36:46Z</time>
        <extensions>
          <gpxtpx:TrackPointExtension xmlns:gpxtpx="http://www.garmin.com/xmlschemas/TrackPointExtension/v1">
            <gpxtpx:hr>89</gpxtpx:hr>
          </gpxtpx:TrackPointExtension>
        </extensions>
      </trkpt>
      <trkpt lat="50.48385" lon="2.56621">
        <ele>66.4</ele>
        <time>2021-06-24T15:36:47Z</time>
        <extensions>
          <gpxtpx:TrackPointExtension xmlns:gpxtpx="http://www.garmin.com/xmlschemas/TrackPointExtension/v1">
            <gpxtpx:hr>89</gpxtpx:hr>
          </gpxtpx:TrackPointExtension>
        </extensions>
      </trkpt>
      <trkpt lat="50.48388" lon="2.56627">
        <ele>66.6</ele>
        <time>2021-06-24T15:36:48Z</time>
        <extensions>
          <gpxtpx:TrackPointExtension xmlns:gpxtpx="http://www.garmin.com/xmlschemas/TrackPointExtension/v1">
            <gpxtpx:hr>89</gpxtpx:hr>
          </gpxtpx:TrackPointExtension>
        </extensions>
      </trkpt>
      <trkpt lat="50.48391" lon="2.56631">
        <ele>66.8</ele>
        <time>2021-06-24T15:36:49Z</time>
        <extensions>
          <gpxtpx:TrackPointExtension xmlns:gpxtpx="http://www.garmin.com/xmlschemas/TrackPointExtension/v1">
            <gpxtpx:hr>89</gpxtpx:hr>
          </gpxtpx:TrackPointExtension>
        </extensions>
      </trkpt>
      <trkpt lat="50.48394" lon="2.56636">
        <ele>67</ele>
        <time>2021-06-24T15:36:50Z</time>
        <extensions>
          <gpxtpx:TrackPointExtension xmlns:gpxtpx="http://www.garmin.com/xmlschemas/TrackPointExtension/v1">
            <gpxtpx:hr>90</gpxtpx:hr>
          </gpxtpx:TrackPointExtension>
        </extensions>
      </trkpt>
      <trkpt lat="50.48398" lon="2.56641">
        <ele>67.2</ele>
        <time>2021-06-24T15:36:51Z</time>
        <extensions>
          <gpxtpx:TrackPointExtension xmlns:gpxtpx="http://www.garmin.com/xmlschemas/TrackPointExtension/v1">
            <gpxtpx:hr>91</gpxtpx:hr>
          </gpxtpx:TrackPointExtension>
        </extensions>
      </trkpt>
      <trkpt lat="50.48401" lon="2.56646">
        <ele>67.6</ele>
        <time>2021-06-24T15:36:52Z</time>
        <extensions>
          <gpxtpx:TrackPointExtension xmlns:gpxtpx="http://www.garmin.com/xmlschemas/TrackPointExtension/v1">
            <gpxtpx:hr>92</gpxtpx:hr>
          </gpxtpx:TrackPointExtension>
        </extensions>
      </trkpt>
      <trkpt lat="50.48404" lon="2.56652">
        <ele>67.8</ele>
        <time>2021-06-24T15:36:53Z</time>
        <extensions>
          <gpxtpx:TrackPointExtension xmlns:gpxtpx="http://www.garmin.com/xmlschemas/TrackPointExtension/v1">
            <gpxtpx:hr>92</gpxtpx:hr>
          </gpxtpx:TrackPointExtension>
        </extensions>
      </trkpt>
      <trkpt lat="50.48407" lon="2.56657">
        <ele>68</ele>
        <time>2021-06-24T15:36:54Z</time>
        <extensions>
          <gpxtpx:TrackPointExtension xmlns:gpxtpx="http://www.garmin.com/xmlschemas/TrackPointExtension/v1">
            <gpxtpx:hr>93</gpxtpx:hr>
          </gpxtpx:TrackPointExtension>
        </extensions>
      </trkpt>
      <trkpt lat="50.4841" lon="2.56662">
        <ele>68.2</ele>
        <time>2021-06-24T15:36:55Z</time>
        <extensions>
          <gpxtpx:TrackPointExtension xmlns:gpxtpx="http://www.garmin.com/xmlschemas/TrackPointExtension/v1">
            <gpxtpx:hr>94</gpxtpx:hr>
          </gpxtpx:TrackPointExtension>
        </extensions>
      </trkpt>
      <trkpt lat="50.48413" lon="2.56666">
        <ele>68.4</ele>
        <time>2021-06-24T15:36:56Z</time>
        <extensions>
          <gpxtpx:TrackPointExtension xmlns:gpxtpx="http://www.garmin.com/xmlschemas/TrackPointExtension/v1">
            <gpxtpx:hr>95</gpxtpx:hr>
          </gpxtpx:TrackPointExtension>
        </extensions>
      </trkpt>
      <trkpt lat="50.48417" lon="2.5667">
        <ele>68.8</ele>
        <time>2021-06-24T15:36:57Z</time>
        <extensions>
          <gpxtpx:TrackPointExtension xmlns:gpxtpx="http://www.garmin.com/xmlschemas/TrackPointExtension/v1">
            <gpxtpx:hr>95</gpxtpx:hr>
          </gpxtpx:TrackPointExtension>
        </extensions>
      </trkpt>
      <trkpt lat="50.48419" lon="2.56675">
        <ele>69</ele>
        <time>2021-06-24T15:36:58Z</time>
        <extensions>
          <gpxtpx:TrackPointExtension xmlns:gpxtpx="http://www.garmin.com/xmlschemas/TrackPointExtension/v1">
            <gpxtpx:hr>96</gpxtpx:hr>
          </gpxtpx:TrackPointExtension>
        </extensions>
      </trkpt>
      <trkpt lat="50.48422" lon="2.5668">
        <ele>69.4</ele>
        <time>2021-06-24T15:36:59Z</time>
        <extensions>
          <gpxtpx:TrackPointExtension xmlns:gpxtpx="http://www.garmin.com/xmlschemas/TrackPointExtension/v1">
            <gpxtpx:hr>96</gpxtpx:hr>
          </gpxtpx:TrackPointExtension>
        </extensions>
      </trkpt>
      <trkpt lat="50.48425" lon="2.56685">
        <ele>69.6</ele>
        <time>2021-06-24T15:37:00Z</time>
        <extensions>
          <gpxtpx:TrackPointExtension xmlns:gpxtpx="http://www.garmin.com/xmlschemas/TrackPointExtension/v1">
            <gpxtpx:hr>96</gpxtpx:hr>
          </gpxtpx:TrackPointExtension>
        </extensions>
      </trkpt>
      <trkpt lat="50.48428" lon="2.5669">
        <ele>69.8</ele>
        <time>2021-06-24T15:37:01Z</time>
        <extensions>
          <gpxtpx:TrackPointExtension xmlns:gpxtpx="http://www.garmin.com/xmlschemas/TrackPointExtension/v1">
            <gpxtpx:hr>96</gpxtpx:hr>
          </gpxtpx:TrackPointExtension>
        </extensions>
      </trkpt>
      <trkpt lat="50.4843" lon="2.56696">
        <ele>70</ele>
        <time>2021-06-24T15:37:02Z</time>
        <extensions>
          <gpxtpx:TrackPointExtension xmlns:gpxtpx="http://www.garmin.com/xmlschemas/TrackPointExtension/v1">
            <gpxtpx:hr>95</gpxtpx:hr>
          </gpxtpx:TrackPointExtension>
        </extensions>
      </trkpt>
      <trkpt lat="50.48432" lon="2.56702">
        <ele>70.2</ele>
        <time>2021-06-24T15:37:03Z</time>
        <extensions>
          <gpxtpx:TrackPointExtension xmlns:gpxtpx="http://www.garmin.com/xmlschemas/TrackPointExtension/v1">
            <gpxtpx:hr>95</gpxtpx:hr>
          </gpxtpx:TrackPointExtension>
        </extensions>
      </trkpt>
      <trkpt lat="50.48434" lon="2.56708">
        <ele>70.4</ele>
        <time>2021-06-24T15:37:04Z</time>
        <extensions>
          <gpxtpx:TrackPointExtension xmlns:gpxtpx="http://www.garmin.com/xmlschemas/TrackPointExtension/v1">
            <gpxtpx:hr>94</gpxtpx:hr>
          </gpxtpx:TrackPointExtension>
        </extensions>
      </trkpt>
      <trkpt lat="50.48436" lon="2.56714">
        <ele>70.4</ele>
        <time>2021-06-24T15:37:05Z</time>
        <extensions>
          <gpxtpx:TrackPointExtension xmlns:gpxtpx="http://www.garmin.com/xmlschemas/TrackPointExtension/v1">
            <gpxtpx:hr>93</gpxtpx:hr>
          </gpxtpx:TrackPointExtension>
        </extensions>
      </trkpt>
      <trkpt lat="50.48439" lon="2.56718">
        <ele>70.6</ele>
        <time>2021-06-24T15:37:06Z</time>
        <extensions>
          <gpxtpx:TrackPointExtension xmlns:gpxtpx="http://www.garmin.com/xmlschemas/TrackPointExtension/v1">
            <gpxtpx:hr>92</gpxtpx:hr>
          </gpxtpx:TrackPointExtension>
        </extensions>
      </trkpt>
      <trkpt lat="50.48442" lon="2.56722">
        <ele>70.8</ele>
        <time>2021-06-24T15:37:07Z</time>
        <extensions>
          <gpxtpx:TrackPointExtension xmlns:gpxtpx="http://www.garmin.com/xmlschemas/TrackPointExtension/v1">
            <gpxtpx:hr>91</gpxtpx:hr>
          </gpxtpx:TrackPointExtension>
        </extensions>
      </trkpt>
      <trkpt lat="50.48446" lon="2.56725">
        <ele>70.8</ele>
        <time>2021-06-24T15:37:08Z</time>
      </trkpt>
      <trkpt lat="50.4845" lon="2.56729">
        <ele>71</ele>
        <time>2021-06-24T15:37:09Z</time>
        <extensions>
          <gpxtpx:TrackPointExtension xmlns:gpxtpx="http://www.garmin.com/xmlschemas/TrackPointExtension/v1">
            <gpxtpx:hr>90</gpxtpx:hr>
          </gpxtpx:TrackPointExtension>
        </extensions>
      </trkpt>
      <trkpt lat="50.48454" lon="2.56733">
        <ele>71</ele>
        <time>2021-06-24T15:37:10Z</time>
        <extensions>
          <gpxtpx:TrackPointExtension xmlns:gpxtpx="http://www.garmin.com/xmlschemas/TrackPointExtension/v1">
            <gpxtpx:hr>89</gpxtpx:hr>
          </gpxtpx:TrackPointExtension>
        </extensions>
      </trkpt>
      <trkpt lat="50.48457" lon="2.56738">
        <ele>71.2</ele>
        <time>2021-06-24T15:37:11Z</time>
        <extensions>
          <gpxtpx:TrackPointExtension xmlns:gpxtpx="http://www.garmin.com/xmlschemas/TrackPointExtension/v1">
            <gpxtpx:hr>89</gpxtpx:hr>
          </gpxtpx:TrackPointExtension>
        </extensions>
      </trkpt>
      <trkpt lat="50.4846" lon="2.56744">
        <ele>71.4</ele>
        <time>2021-06-24T15:37:12Z</time>
        <extensions>
          <gpxtpx:TrackPointExtension xmlns:gpxtpx="http://www.garmin.com/xmlschemas/TrackPointExtension/v1">
            <gpxtpx:hr>89</gpxtpx:hr>
          </gpxtpx:TrackPointExtension>
        </extensions>
      </trkpt>
      <trkpt lat="50.48463" lon="2.56749">
        <ele>71.6</ele>
        <time>2021-06-24T15:37:13Z</time>
        <extensions>
          <gpxtpx:TrackPointExtension xmlns:gpxtpx="http://www.garmin.com/xmlschemas/TrackPointExtension/v1">
            <gpxtpx:hr>89</gpxtpx:hr>
          </gpxtpx:TrackPointExtension>
        </extensions>
      </trkpt>
      <trkpt lat="50.48467" lon="2.56755">
        <ele>71.6</ele>
        <time>2021-06-24T15:37:14Z</time>
        <extensions>
          <gpxtpx:TrackPointExtension xmlns:gpxtpx="http://www.garmin.com/xmlschemas/TrackPointExtension/v1">
            <gpxtpx:hr>90</gpxtpx:hr>
          </gpxtpx:TrackPointExtension>
        </extensions>
      </trkpt>
      <trkpt lat="50.4847" lon="2.5676">
        <ele>71.8</ele>
        <time>2021-06-24T15:37:15Z</time>
        <extensions>
          <gpxtpx:TrackPointExtension xmlns:gpxtpx="http://www.garmin.com/xmlschemas/TrackPointExtension/v1">
            <gpxtpx:hr>90</gpxtpx:hr>
          </gpxtpx:TrackPointExtension>
        </extensions>
      </trkpt>
      <trkpt lat="50.48473" lon="2.56766">
        <ele>72</ele>
        <time>2021-06-24T15:37:16Z</time>
        <extensions>
          <gpxtpx:TrackPointExtension xmlns:gpxtpx="http://www.garmin.com/xmlschemas/TrackPointExtension/v1">
            <gpxtpx:hr>91</gpxtpx:hr>
          </gpxtpx:TrackPointExtension>
        </extensions>
      </trkpt>
      <trkpt lat="50.48477" lon="2.56771">
        <ele>72.2</ele>
        <time>2021-06-24T15:37:17Z</time>
        <extensions>
          <gpxtpx:TrackPointExtension xmlns:gpxtpx="http://www.garmin.com/xmlschemas/TrackPointExtension/v1">
            <gpxtpx:hr>91</gpxtpx:hr>
          </gpxtpx:TrackPointExtension>
        </extensions>
      </trkpt>
      <trkpt lat="50.4848" lon="2.56777">
        <ele>72.2</ele>
        <time>2021-06-24T15:37:18Z</time>
        <extensions>
          <gpxtpx:TrackPointExtension xmlns:gpxtpx="http://www.garmin.com/xmlschemas/TrackPointExtension/v1">
            <gpxtpx:hr>92</gpxtpx:hr>
          </gpxtpx:TrackPointExtension>
        </extensions>
      </trkpt>
      <trkpt lat="50.48483" lon="2.56782">
        <ele>72.4</ele>
        <time>2021-06-24T15:37:19Z</time>
        <extensions>
          <gpxtpx:TrackPointExtension xmlns:gpxtpx="http://www.garmin.com/xmlschemas/TrackPointExtension/v1">
            <gpxtpx:hr>92</gpxtpx:hr>
          </gpxtpx:TrackPointExtension>
        </extensions>
      </trkpt>
      <trkpt lat="50.48486" lon="2.56788">
        <ele>72.4</ele>
        <time>2021-06-24T15:37:20Z</time>
        <extensions>
          <gpxtpx:TrackPointExtension xmlns:gpxtpx="http://www.garmin.com/xmlschemas/TrackPointExtension/v1">
            <gpxtpx:hr>93</gpxtpx:hr>
          </gpxtpx:TrackPointExtension>
        </extensions>
      </trkpt>
      <trkpt lat="50.4849" lon="2.56794">
        <ele>72.4</ele>
        <time>2021-06-24T15:37:21Z</time>
        <extensions>
          <gpxtpx:TrackPointExtension xmlns:gpxtpx="http://www.garmin.com/xmlschemas/TrackPointExtension/v1">
            <gpxtpx:hr>93</gpxtpx:hr>
          </gpxtpx:TrackPointExtension>
        </extensions>
      </trkpt>
      <trkpt lat="50.48493" lon="2.568">
        <ele>72.6</ele>
        <time>2021-06-24T15:37:22Z</time>
        <extensions>
          <gpxtpx:TrackPointExtension xmlns:gpxtpx="http://www.garmin.com/xmlschemas/TrackPointExtension/v1">
            <gpxtpx:hr>93</gpxtpx:hr>
          </gpxtpx:TrackPointExtension>
        </extensions>
      </trkpt>
      <trkpt lat="50.48495" lon="2.56806">
        <ele>72.6</ele>
        <time>2021-06-24T15:37:23Z</time>
        <extensions>
          <gpxtpx:TrackPointExtension xmlns:gpxtpx="http://www.garmin.com/xmlschemas/TrackPointExtension/v1">
            <gpxtpx:hr>93</gpxtpx:hr>
          </gpxtpx:TrackPointExtension>
        </extensions>
      </trkpt>
      <trkpt lat="50.48497" lon="2.5681">
        <ele>72.6</ele>
        <time>2021-06-24T15:37:24Z</time>
        <extensions>
          <gpxtpx:TrackPointExtension xmlns:gpxtpx="http://www.garmin.com/xmlschemas/TrackPointExtension/v1">
            <gpxtpx:hr>94</gpxtpx:hr>
          </gpxtpx:TrackPointExtension>
        </extensions>
      </trkpt>
      <trkpt lat="50.48501" lon="2.56815">
        <ele>72.6</ele>
        <time>2021-06-24T15:37:25Z</time>
        <extensions>
          <gpxtpx:TrackPointExtension xmlns:gpxtpx="http://www.garmin.com/xmlschemas/TrackPointExtension/v1">
            <gpxtpx:hr>94</gpxtpx:hr>
          </gpxtpx:TrackPointExtension>
        </extensions>
      </trkpt>
      <trkpt lat="50.48504" lon="2.56822">
        <ele>72.6</ele>
        <time>2021-06-24T15:37:26Z</time>
        <extensions>
          <gpxtpx:TrackPointExtension xmlns:gpxtpx="http://www.garmin.com/xmlschemas/TrackPointExtension/v1">
            <gpxtpx:hr>94</gpxtpx:hr>
          </gpxtpx:TrackPointExtension>
        </extensions>
      </trkpt>
      <trkpt lat="50.48507" lon="2.56827">
        <ele>72.6</ele>
        <time>2021-06-24T15:37:27Z</time>
        <extensions>
          <gpxtpx:TrackPointExtension xmlns:gpxtpx="http://www.garmin.com/xmlschemas/TrackPointExtension/v1">
            <gpxtpx:hr>94</gpxtpx:hr>
          </gpxtpx:TrackPointExtension>
        </extensions>
      </trkpt>
      <trkpt lat="50.4851" lon="2.56833">
        <ele>72.6</ele>
        <time>2021-06-24T15:37:28Z</time>
        <extensions>
          <gpxtpx:TrackPointExtension xmlns:gpxtpx="http://www.garmin.com/xmlschemas/TrackPointExtension/v1">
            <gpxtpx:hr>95</gpxtpx:hr>
          </gpxtpx:TrackPointExtension>
        </extensions>
      </trkpt>
      <trkpt lat="50.48513" lon="2.56839">
        <ele>72.8</ele>
        <time>2021-06-24T15:37:29Z</time>
        <extensions>
          <gpxtpx:TrackPointExtension xmlns:gpxtpx="http://www.garmin.com/xmlschemas/TrackPointExtension/v1">
            <gpxtpx:hr>95</gpxtpx:hr>
          </gpxtpx:TrackPointExtension>
        </extensions>
      </trkpt>
      <trkpt lat="50.48515" lon="2.56844">
        <ele>72.8</ele>
        <time>2021-06-24T15:37:30Z</time>
        <extensions>
          <gpxtpx:TrackPointExtension xmlns:gpxtpx="http://www.garmin.com/xmlschemas/TrackPointExtension/v1">
            <gpxtpx:hr>96</gpxtpx:hr>
          </gpxtpx:TrackPointExtension>
        </extensions>
      </trkpt>
      <trkpt lat="50.48518" lon="2.5685">
        <ele>72.8</ele>
        <time>2021-06-24T15:37:31Z</time>
        <extensions>
          <gpxtpx:TrackPointExtension xmlns:gpxtpx="http://www.garmin.com/xmlschemas/TrackPointExtension/v1">
            <gpxtpx:hr>97</gpxtpx:hr>
          </gpxtpx:TrackPointExtension>
        </extensions>
      </trkpt>
      <trkpt lat="50.48521" lon="2.56855">
        <ele>72.8</ele>
        <time>2021-06-24T15:37:32Z</time>
        <extensions>
          <gpxtpx:TrackPointExtension xmlns:gpxtpx="http://www.garmin.com/xmlschemas/TrackPointExtension/v1">
            <gpxtpx:hr>98</gpxtpx:hr>
          </gpxtpx:TrackPointExtension>
        </extensions>
      </trkpt>
      <trkpt lat="50.48524" lon="2.56859">
        <ele>72.8</ele>
        <time>2021-06-24T15:37:33Z</time>
        <extensions>
          <gpxtpx:TrackPointExtension xmlns:gpxtpx="http://www.garmin.com/xmlschemas/TrackPointExtension/v1">
            <gpxtpx:hr>99</gpxtpx:hr>
          </gpxtpx:TrackPointExtension>
        </extensions>
      </trkpt>
      <trkpt lat="50.48527" lon="2.56865">
        <ele>73</ele>
        <time>2021-06-24T15:37:34Z</time>
        <extensions>
          <gpxtpx:TrackPointExtension xmlns:gpxtpx="http://www.garmin.com/xmlschemas/TrackPointExtension/v1">
            <gpxtpx:hr>100</gpxtpx:hr>
          </gpxtpx:TrackPointExtension>
        </extensions>
      </trkpt>
      <trkpt lat="50.4853" lon="2.56869">
        <ele>73</ele>
        <time>2021-06-24T15:37:35Z</time>
        <extensions>
          <gpxtpx:TrackPointExtension xmlns:gpxtpx="http://www.garmin.com/xmlschemas/TrackPointExtension/v1">
            <gpxtpx:hr>101</gpxtpx:hr>
          </gpxtpx:TrackPointExtension>
        </extensions>
      </trkpt>
      <trkpt lat="50.48532" lon="2.56874">
        <ele>73</ele>
        <time>2021-06-24T15:37:36Z</time>
        <extensions>
          <gpxtpx:TrackPointExtension xmlns:gpxtpx="http://www.garmin.com/xmlschemas/TrackPointExtension/v1">
            <gpxtpx:hr>102</gpxtpx:hr>
          </gpxtpx:TrackPointExtension>
        </extensions>
      </trkpt>
      <trkpt lat="50.48534" lon="2.56877">
        <ele>73.2</ele>
        <time>2021-06-24T15:37:37Z</time>
        <extensions>
          <gpxtpx:TrackPointExtension xmlns:gpxtpx="http://www.garmin.com/xmlschemas/TrackPointExtension/v1">
            <gpxtpx:hr>103</gpxtpx:hr>
          </gpxtpx:TrackPointExtension>
        </extensions>
      </trkpt>
      <trkpt lat="50.48537" lon="2.56879">
        <ele>73.2</ele>
        <time>2021-06-24T15:37:38Z</time>
        <extensions>
          <gpxtpx:TrackPointExtension xmlns:gpxtpx="http://www.garmin.com/xmlschemas/TrackPointExtension/v1">
            <gpxtpx:hr>103</gpxtpx:hr>
          </gpxtpx:TrackPointExtension>
        </extensions>
      </trkpt>
      <trkpt lat="50.48539" lon="2.5688">
        <ele>73.2</ele>
        <time>2021-06-24T15:37:39Z</time>
        <extensions>
          <gpxtpx:TrackPointExtension xmlns:gpxtpx="http://www.garmin.com/xmlschemas/TrackPointExtension/v1">
            <gpxtpx:hr>103</gpxtpx:hr>
          </gpxtpx:TrackPointExtension>
        </extensions>
      </trkpt>
      <trkpt lat="50.48541" lon="2.56879">
        <ele>73.4</ele>
        <time>2021-06-24T15:37:40Z</time>
        <extensions>
          <gpxtpx:TrackPointExtension xmlns:gpxtpx="http://www.garmin.com/xmlschemas/TrackPointExtension/v1">
            <gpxtpx:hr>103</gpxtpx:hr>
          </gpxtpx:TrackPointExtension>
        </extensions>
      </trkpt>
      <trkpt lat="50.48544" lon="2.56877">
        <ele>73.4</ele>
        <time>2021-06-24T15:37:41Z</time>
        <extensions>
          <gpxtpx:TrackPointExtension xmlns:gpxtpx="http://www.garmin.com/xmlschemas/TrackPointExtension/v1">
            <gpxtpx:hr>104</gpxtpx:hr>
          </gpxtpx:TrackPointExtension>
        </extensions>
      </trkpt>
      <trkpt lat="50.48547" lon="2.56876">
        <ele>73.6</ele>
        <time>2021-06-24T15:37:42Z</time>
        <extensions>
          <gpxtpx:TrackPointExtension xmlns:gpxtpx="http://www.garmin.com/xmlschemas/TrackPointExtension/v1">
            <gpxtpx:hr>104</gpxtpx:hr>
          </gpxtpx:TrackPointExtension>
        </extensions>
      </trkpt>
      <trkpt lat="50.48549" lon="2.56875">
        <ele>73.6</ele>
        <time>2021-06-24T15:37:43Z</time>
        <extensions>
          <gpxtpx:TrackPointExtension xmlns:gpxtpx="http://www.garmin.com/xmlschemas/TrackPointExtension/v1">
            <gpxtpx:hr>104</gpxtpx:hr>
          </gpxtpx:TrackPointExtension>
        </extensions>
      </trkpt>
      <trkpt lat="50.4855" lon="2.56874">
        <ele>73.6</ele>
        <time>2021-06-24T15:37:44Z</time>
        <extensions>
          <gpxtpx:TrackPointExtension xmlns:gpxtpx="http://www.garmin.com/xmlschemas/TrackPointExtension/v1">
            <gpxtpx:hr>104</gpxtpx:hr>
          </gpxtpx:TrackPointExtension>
        </extensions>
      </trkpt>
      <trkpt lat="50.48552" lon="2.56874">
        <ele>73.8</ele>
        <time>2021-06-24T15:37:45Z</time>
        <extensions>
          <gpxtpx:TrackPointExtension xmlns:gpxtpx="http://www.garmin.com/xmlschemas/TrackPointExtension/v1">
            <gpxtpx:hr>105</gpxtpx:hr>
          </gpxtpx:TrackPointExtension>
        </extensions>
      </trkpt>
      <trkpt lat="50.48554" lon="2.56872">
        <ele>73.8</ele>
        <time>2021-06-24T15:37:46Z</time>
        <extensions>
          <gpxtpx:TrackPointExtension xmlns:gpxtpx="http://www.garmin.com/xmlschemas/TrackPointExtension/v1">
            <gpxtpx:hr>105</gpxtpx:hr>
          </gpxtpx:TrackPointExtension>
        </extensions>
      </trkpt>
      <trkpt lat="50.48557" lon="2.5687">
        <ele>74</ele>
        <time>2021-06-24T15:37:47Z</time>
        <extensions>
          <gpxtpx:TrackPointExtension xmlns:gpxtpx="http://www.garmin.com/xmlschemas/TrackPointExtension/v1">
            <gpxtpx:hr>105</gpxtpx:hr>
          </gpxtpx:TrackPointExtension>
        </extensions>
      </trkpt>
      <trkpt lat="50.48559" lon="2.56869">
        <ele>74</ele>
        <time>2021-06-24T15:37:48Z</time>
        <extensions>
          <gpxtpx:TrackPointExtension xmlns:gpxtpx="http://www.garmin.com/xmlschemas/TrackPointExtension/v1">
            <gpxtpx:hr>105</gpxtpx:hr>
          </gpxtpx:TrackPointExtension>
        </extensions>
      </trkpt>
      <trkpt lat="50.48561" lon="2.56867">
        <ele>74.2</ele>
        <time>2021-06-24T15:37:49Z</time>
        <extensions>
          <gpxtpx:TrackPointExtension xmlns:gpxtpx="http://www.garmin.com/xmlschemas/TrackPointExtension/v1">
            <gpxtpx:hr>105</gpxtpx:hr>
          </gpxtpx:TrackPointExtension>
        </extensions>
      </trkpt>
      <trkpt lat="50.48564" lon="2.56865">
        <ele>74.2</ele>
        <time>2021-06-24T15:37:50Z</time>
        <extensions>
          <gpxtpx:TrackPointExtension xmlns:gpxtpx="http://www.garmin.com/xmlschemas/TrackPointExtension/v1">
            <gpxtpx:hr>105</gpxtpx:hr>
          </gpxtpx:TrackPointExtension>
        </extensions>
      </trkpt>
      <trkpt lat="50.48567" lon="2.56862">
        <ele>74.4</ele>
        <time>2021-06-24T15:37:51Z</time>
        <extensions>
          <gpxtpx:TrackPointExtension xmlns:gpxtpx="http://www.garmin.com/xmlschemas/TrackPointExtension/v1">
            <gpxtpx:hr>105</gpxtpx:hr>
          </gpxtpx:TrackPointExtension>
        </extensions>
      </trkpt>
      <trkpt lat="50.4857" lon="2.5686">
        <ele>74.6</ele>
        <time>2021-06-24T15:37:52Z</time>
        <extensions>
          <gpxtpx:TrackPointExtension xmlns:gpxtpx="http://www.garmin.com/xmlschemas/TrackPointExtension/v1">
            <gpxtpx:hr>105</gpxtpx:hr>
          </gpxtpx:TrackPointExtension>
        </extensions>
      </trkpt>
      <trkpt lat="50.48572" lon="2.56858">
        <ele>74.6</ele>
        <time>2021-06-24T15:37:53Z</time>
        <extensions>
          <gpxtpx:TrackPointExtension xmlns:gpxtpx="http://www.garmin.com/xmlschemas/TrackPointExtension/v1">
            <gpxtpx:hr>105</gpxtpx:hr>
          </gpxtpx:TrackPointExtension>
        </extensions>
      </trkpt>
      <trkpt lat="50.48575" lon="2.56856">
        <ele>74.8</ele>
        <time>2021-06-24T15:37:54Z</time>
        <extensions>
          <gpxtpx:TrackPointExtension xmlns:gpxtpx="http://www.garmin.com/xmlschemas/TrackPointExtension/v1">
            <gpxtpx:hr>106</gpxtpx:hr>
          </gpxtpx:TrackPointExtension>
        </extensions>
      </trkpt>
      <trkpt lat="50.48577" lon="2.56854">
        <ele>74.8</ele>
        <time>2021-06-24T15:37:55Z</time>
        <extensions>
          <gpxtpx:TrackPointExtension xmlns:gpxtpx="http://www.garmin.com/xmlschemas/TrackPointExtension/v1">
            <gpxtpx:hr>106</gpxtpx:hr>
          </gpxtpx:TrackPointExtension>
        </extensions>
      </trkpt>
      <trkpt lat="50.4858" lon="2.56853">
        <ele>75</ele>
        <time>2021-06-24T15:37:56Z</time>
        <extensions>
          <gpxtpx:TrackPointExtension xmlns:gpxtpx="http://www.garmin.com/xmlschemas/TrackPointExtension/v1">
            <gpxtpx:hr>107</gpxtpx:hr>
          </gpxtpx:TrackPointExtension>
        </extensions>
      </trkpt>
      <trkpt lat="50.48583" lon="2.56851">
        <ele>75.2</ele>
        <time>2021-06-24T15:37:57Z</time>
        <extensions>
          <gpxtpx:TrackPointExtension xmlns:gpxtpx="http://www.garmin.com/xmlschemas/TrackPointExtension/v1">
            <gpxtpx:hr>107</gpxtpx:hr>
          </gpxtpx:TrackPointExtension>
        </extensions>
      </trkpt>
      <trkpt lat="50.48587" lon="2.5685">
        <ele>75.2</ele>
        <time>2021-06-24T15:37:58Z</time>
        <extensions>
          <gpxtpx:TrackPointExtension xmlns:gpxtpx="http://www.garmin.com/xmlschemas/TrackPointExtension/v1">
            <gpxtpx:hr>108</gpxtpx:hr>
          </gpxtpx:TrackPointExtension>
        </extensions>
      </trkpt>
      <trkpt lat="50.4859" lon="2.56848">
        <ele>75.4</ele>
        <time>2021-06-24T15:37:59Z</time>
        <extensions>
          <gpxtpx:TrackPointExtension xmlns:gpxtpx="http://www.garmin.com/xmlschemas/TrackPointExtension/v1">
            <gpxtpx:hr>108</gpxtpx:hr>
          </gpxtpx:TrackPointExtension>
        </extensions>
      </trkpt>
      <trkpt lat="50.48595" lon="2.56845">
        <ele>75.6</ele>
        <time>2021-06-24T15:38:00Z</time>
        <extensions>
          <gpxtpx:TrackPointExtension xmlns:gpxtpx="http://www.garmin.com/xmlschemas/TrackPointExtension/v1">
            <gpxtpx:hr>108</gpxtpx:hr>
          </gpxtpx:TrackPointExtension>
        </extensions>
      </trkpt>
      <trkpt lat="50.48599" lon="2.5684">
        <ele>75.6</ele>
        <time>2021-06-24T15:38:01Z</time>
        <extensions>
          <gpxtpx:TrackPointExtension xmlns:gpxtpx="http://www.garmin.com/xmlschemas/TrackPointExtension/v1">
            <gpxtpx:hr>109</gpxtpx:hr>
          </gpxtpx:TrackPointExtension>
        </extensions>
      </trkpt>
      <trkpt lat="50.48603" lon="2.56835">
        <ele>75.8</ele>
        <time>2021-06-24T15:38:02Z</time>
        <extensions>
          <gpxtpx:TrackPointExtension xmlns:gpxtpx="http://www.garmin.com/xmlschemas/TrackPointExtension/v1">
            <gpxtpx:hr>109</gpxtpx:hr>
          </gpxtpx:TrackPointExtension>
        </extensions>
      </trkpt>
      <trkpt lat="50.48606" lon="2.5683">
        <ele>76</ele>
        <time>2021-06-24T15:38:03Z</time>
        <extensions>
          <gpxtpx:TrackPointExtension xmlns:gpxtpx="http://www.garmin.com/xmlschemas/TrackPointExtension/v1">
            <gpxtpx:hr>109</gpxtpx:hr>
          </gpxtpx:TrackPointExtension>
        </extensions>
      </trkpt>
      <trkpt lat="50.4861" lon="2.56823">
        <ele>76</ele>
        <time>2021-06-24T15:38:04Z</time>
        <extensions>
          <gpxtpx:TrackPointExtension xmlns:gpxtpx="http://www.garmin.com/xmlschemas/TrackPointExtension/v1">
            <gpxtpx:hr>109</gpxtpx:hr>
          </gpxtpx:TrackPointExtension>
        </extensions>
      </trkpt>
      <trkpt lat="50.48614" lon="2.56817">
        <ele>76</ele>
        <time>2021-06-24T15:38:05Z</time>
        <extensions>
          <gpxtpx:TrackPointExtension xmlns:gpxtpx="http://www.garmin.com/xmlschemas/TrackPointExtension/v1">
            <gpxtpx:hr>109</gpxtpx:hr>
          </gpxtpx:TrackPointExtension>
        </extensions>
      </trkpt>
      <trkpt lat="50.48618" lon="2.5681">
        <ele>76.2</ele>
        <time>2021-06-24T15:38:06Z</time>
        <extensions>
          <gpxtpx:TrackPointExtension xmlns:gpxtpx="http://www.garmin.com/xmlschemas/TrackPointExtension/v1">
            <gpxtpx:hr>109</gpxtpx:hr>
          </gpxtpx:TrackPointExtension>
        </extensions>
      </trkpt>
      <trkpt lat="50.48622" lon="2.56803">
        <ele>76.2</ele>
        <time>2021-06-24T15:38:07Z</time>
        <extensions>
          <gpxtpx:TrackPointExtension xmlns:gpxtpx="http://www.garmin.com/xmlschemas/TrackPointExtension/v1">
            <gpxtpx:hr>109</gpxtpx:hr>
          </gpxtpx:TrackPointExtension>
        </extensions>
      </trkpt>
      <trkpt lat="50.48626" lon="2.56797">
        <ele>76.2</ele>
        <time>2021-06-24T15:38:08Z</time>
        <extensions>
          <gpxtpx:TrackPointExtension xmlns:gpxtpx="http://www.garmin.com/xmlschemas/TrackPointExtension/v1">
            <gpxtpx:hr>109</gpxtpx:hr>
          </gpxtpx:TrackPointExtension>
        </extensions>
      </trkpt>
      <trkpt lat="50.48629" lon="2.56789">
        <ele>76.2</ele>
        <time>2021-06-24T15:38:09Z</time>
        <extensions>
          <gpxtpx:TrackPointExtension xmlns:gpxtpx="http://www.garmin.com/xmlschemas/TrackPointExtension/v1">
            <gpxtpx:hr>109</gpxtpx:hr>
          </gpxtpx:TrackPointExtension>
        </extensions>
      </trkpt>
      <trkpt lat="50.48633" lon="2.56781">
        <ele>76.2</ele>
        <time>2021-06-24T15:38:10Z</time>
        <extensions>
          <gpxtpx:TrackPointExtension xmlns:gpxtpx="http://www.garmin.com/xmlschemas/TrackPointExtension/v1">
            <gpxtpx:hr>109</gpxtpx:hr>
          </gpxtpx:TrackPointExtension>
        </extensions>
      </trkpt>
      <trkpt lat="50.48636" lon="2.56773">
        <ele>76.4</ele>
        <time>2021-06-24T15:38:11Z</time>
        <extensions>
          <gpxtpx:TrackPointExtension xmlns:gpxtpx="http://www.garmin.com/xmlschemas/TrackPointExtension/v1">
            <gpxtpx:hr>109</gpxtpx:hr>
          </gpxtpx:TrackPointExtension>
        </extensions>
      </trkpt>
      <trkpt lat="50.48639" lon="2.56767">
        <ele>76.4</ele>
        <time>2021-06-24T15:38:12Z</time>
        <extensions>
          <gpxtpx:TrackPointExtension xmlns:gpxtpx="http://www.garmin.com/xmlschemas/TrackPointExtension/v1">
            <gpxtpx:hr>108</gpxtpx:hr>
          </gpxtpx:TrackPointExtension>
        </extensions>
      </trkpt>
      <trkpt lat="50.48644" lon="2.56761">
        <ele>76.4</ele>
        <time>2021-06-24T15:38:13Z</time>
        <extensions>
          <gpxtpx:TrackPointExtension xmlns:gpxtpx="http://www.garmin.com/xmlschemas/TrackPointExtension/v1">
            <gpxtpx:hr>108</gpxtpx:hr>
          </gpxtpx:TrackPointExtension>
        </extensions>
      </trkpt>
      <trkpt lat="50.48646" lon="2.56756">
        <ele>76.4</ele>
        <time>2021-06-24T15:38:14Z</time>
        <extensions>
          <gpxtpx:TrackPointExtension xmlns:gpxtpx="http://www.garmin.com/xmlschemas/TrackPointExtension/v1">
            <gpxtpx:hr>108</gpxtpx:hr>
          </gpxtpx:TrackPointExtension>
        </extensions>
      </trkpt>
      <trkpt lat="50.48649" lon="2.56751">
        <ele>76.6</ele>
        <time>2021-06-24T15:38:15Z</time>
        <extensions>
          <gpxtpx:TrackPointExtension xmlns:gpxtpx="http://www.garmin.com/xmlschemas/TrackPointExtension/v1">
            <gpxtpx:hr>107</gpxtpx:hr>
          </gpxtpx:TrackPointExtension>
        </extensions>
      </trkpt>
      <trkpt lat="50.48652" lon="2.56746">
        <ele>76.6</ele>
        <time>2021-06-24T15:38:16Z</time>
        <extensions>
          <gpxtpx:TrackPointExtension xmlns:gpxtpx="http://www.garmin.com/xmlschemas/TrackPointExtension/v1">
            <gpxtpx:hr>106</gpxtpx:hr>
          </gpxtpx:TrackPointExtension>
        </extensions>
      </trkpt>
      <trkpt lat="50.48654" lon="2.56742">
        <ele>76.6</ele>
        <time>2021-06-24T15:38:17Z</time>
        <extensions>
          <gpxtpx:TrackPointExtension xmlns:gpxtpx="http://www.garmin.com/xmlschemas/TrackPointExtension/v1">
            <gpxtpx:hr>105</gpxtpx:hr>
          </gpxtpx:TrackPointExtension>
        </extensions>
      </trkpt>
      <trkpt lat="50.48656" lon="2.56739">
        <ele>76.6</ele>
        <time>2021-06-24T15:38:18Z</time>
        <extensions>
          <gpxtpx:TrackPointExtension xmlns:gpxtpx="http://www.garmin.com/xmlschemas/TrackPointExtension/v1">
            <gpxtpx:hr>104</gpxtpx:hr>
          </gpxtpx:TrackPointExtension>
        </extensions>
      </trkpt>
      <trkpt lat="50.4866" lon="2.56736">
        <ele>76.8</ele>
        <time>2021-06-24T15:38:19Z</time>
        <extensions>
          <gpxtpx:TrackPointExtension xmlns:gpxtpx="http://www.garmin.com/xmlschemas/TrackPointExtension/v1">
            <gpxtpx:hr>102</gpxtpx:hr>
          </gpxtpx:TrackPointExtension>
        </extensions>
      </trkpt>
      <trkpt lat="50.48663" lon="2.56734">
        <ele>76.8</ele>
        <time>2021-06-24T15:38:20Z</time>
        <extensions>
          <gpxtpx:TrackPointExtension xmlns:gpxtpx="http://www.garmin.com/xmlschemas/TrackPointExtension/v1">
            <gpxtpx:hr>101</gpxtpx:hr>
          </gpxtpx:TrackPointExtension>
        </extensions>
      </trkpt>
      <trkpt lat="50.48667" lon="2.56732">
        <ele>76.8</ele>
        <time>2021-06-24T15:38:21Z</time>
        <extensions>
          <gpxtpx:TrackPointExtension xmlns:gpxtpx="http://www.garmin.com/xmlschemas/TrackPointExtension/v1">
            <gpxtpx:hr>99</gpxtpx:hr>
          </gpxtpx:TrackPointExtension>
        </extensions>
      </trkpt>
      <trkpt lat="50.48671" lon="2.56729">
        <ele>76.8</ele>
        <time>2021-06-24T15:38:22Z</time>
        <extensions>
          <gpxtpx:TrackPointExtension xmlns:gpxtpx="http://www.garmin.com/xmlschemas/TrackPointExtension/v1">
            <gpxtpx:hr>98</gpxtpx:hr>
          </gpxtpx:TrackPointExtension>
        </extensions>
      </trkpt>
      <trkpt lat="50.48676" lon="2.56726">
        <ele>76.8</ele>
        <time>2021-06-24T15:38:23Z</time>
        <extensions>
          <gpxtpx:TrackPointExtension xmlns:gpxtpx="http://www.garmin.com/xmlschemas/TrackPointExtension/v1">
            <gpxtpx:hr>97</gpxtpx:hr>
          </gpxtpx:TrackPointExtension>
        </extensions>
      </trkpt>
      <trkpt lat="50.48683" lon="2.56722">
        <ele>76.8</ele>
        <time>2021-06-24T15:38:24Z</time>
        <extensions>
          <gpxtpx:TrackPointExtension xmlns:gpxtpx="http://www.garmin.com/xmlschemas/TrackPointExtension/v1">
            <gpxtpx:hr>96</gpxtpx:hr>
          </gpxtpx:TrackPointExtension>
        </extensions>
      </trkpt>
      <trkpt lat="50.48689" lon="2.56719">
        <ele>76.8</ele>
        <time>2021-06-24T15:38:25Z</time>
        <extensions>
          <gpxtpx:TrackPointExtension xmlns:gpxtpx="http://www.garmin.com/xmlschemas/TrackPointExtension/v1">
            <gpxtpx:hr>95</gpxtpx:hr>
          </gpxtpx:TrackPointExtension>
        </extensions>
      </trkpt>
      <trkpt lat="50.48694" lon="2.56717">
        <ele>76.8</ele>
        <time>2021-06-24T15:38:26Z</time>
        <extensions>
          <gpxtpx:TrackPointExtension xmlns:gpxtpx="http://www.garmin.com/xmlschemas/TrackPointExtension/v1">
            <gpxtpx:hr>95</gpxtpx:hr>
          </gpxtpx:TrackPointExtension>
        </extensions>
      </trkpt>
      <trkpt lat="50.487" lon="2.56715">
        <ele>77</ele>
        <time>2021-06-24T15:38:27Z</time>
        <extensions>
          <gpxtpx:TrackPointExtension xmlns:gpxtpx="http://www.garmin.com/xmlschemas/TrackPointExtension/v1">
            <gpxtpx:hr>95</gpxtpx:hr>
          </gpxtpx:TrackPointExtension>
        </extensions>
      </trkpt>
      <trkpt lat="50.48706" lon="2.56712">
        <ele>77</ele>
        <time>2021-06-24T15:38:28Z</time>
        <extensions>
          <gpxtpx:TrackPointExtension xmlns:gpxtpx="http://www.garmin.com/xmlschemas/TrackPointExtension/v1">
            <gpxtpx:hr>95</gpxtpx:hr>
          </gpxtpx:TrackPointExtension>
        </extensions>
      </trkpt>
      <trkpt lat="50.48708" lon="2.5671">
        <ele>77</ele>
        <time>2021-06-24T15:38:29Z</time>
        <extensions>
          <gpxtpx:TrackPointExtension xmlns:gpxtpx="http://www.garmin.com/xmlschemas/TrackPointExtension/v1">
            <gpxtpx:hr>95</gpxtpx:hr>
          </gpxtpx:TrackPointExtension>
        </extensions>
      </trkpt>
      <trkpt lat="50.48711" lon="2.56706">
        <ele>77</ele>
        <time>2021-06-24T15:38:30Z</time>
        <extensions>
          <gpxtpx:TrackPointExtension xmlns:gpxtpx="http://www.garmin.com/xmlschemas/TrackPointExtension/v1">
            <gpxtpx:hr>94</gpxtpx:hr>
          </gpxtpx:TrackPointExtension>
        </extensions>
      </trkpt>
      <trkpt lat="50.48714" lon="2.567">
        <ele>76.8</ele>
        <time>2021-06-24T15:38:31Z</time>
        <extensions>
          <gpxtpx:TrackPointExtension xmlns:gpxtpx="http://www.garmin.com/xmlschemas/TrackPointExtension/v1">
            <gpxtpx:hr>94</gpxtpx:hr>
          </gpxtpx:TrackPointExtension>
        </extensions>
      </trkpt>
      <trkpt lat="50.48717" lon="2.56694">
        <ele>76.8</ele>
        <time>2021-06-24T15:38:32Z</time>
        <extensions>
          <gpxtpx:TrackPointExtension xmlns:gpxtpx="http://www.garmin.com/xmlschemas/TrackPointExtension/v1">
            <gpxtpx:hr>94</gpxtpx:hr>
          </gpxtpx:TrackPointExtension>
        </extensions>
      </trkpt>
      <trkpt lat="50.4872" lon="2.56688">
        <ele>76.8</ele>
        <time>2021-06-24T15:38:33Z</time>
        <extensions>
          <gpxtpx:TrackPointExtension xmlns:gpxtpx="http://www.garmin.com/xmlschemas/TrackPointExtension/v1">
            <gpxtpx:hr>93</gpxtpx:hr>
          </gpxtpx:TrackPointExtension>
        </extensions>
      </trkpt>
      <trkpt lat="50.48723" lon="2.56683">
        <ele>76.8</ele>
        <time>2021-06-24T15:38:34Z</time>
        <extensions>
          <gpxtpx:TrackPointExtension xmlns:gpxtpx="http://www.garmin.com/xmlschemas/TrackPointExtension/v1">
            <gpxtpx:hr>92</gpxtpx:hr>
          </gpxtpx:TrackPointExtension>
        </extensions>
      </trkpt>
      <trkpt lat="50.48726" lon="2.56678">
        <ele>76.8</ele>
        <time>2021-06-24T15:38:35Z</time>
        <extensions>
          <gpxtpx:TrackPointExtension xmlns:gpxtpx="http://www.garmin.com/xmlschemas/TrackPointExtension/v1">
            <gpxtpx:hr>91</gpxtpx:hr>
          </gpxtpx:TrackPointExtension>
        </extensions>
      </trkpt>
      <trkpt lat="50.48729" lon="2.56673">
        <ele>76.8</ele>
        <time>2021-06-24T15:38:36Z</time>
        <extensions>
          <gpxtpx:TrackPointExtension xmlns:gpxtpx="http://www.garmin.com/xmlschemas/TrackPointExtension/v1">
            <gpxtpx:hr>90</gpxtpx:hr>
          </gpxtpx:TrackPointExtension>
        </extensions>
      </trkpt>
      <trkpt lat="50.48732" lon="2.56668">
        <ele>76.8</ele>
        <time>2021-06-24T15:38:37Z</time>
        <extensions>
          <gpxtpx:TrackPointExtension xmlns:gpxtpx="http://www.garmin.com/xmlschemas/TrackPointExtension/v1">
            <gpxtpx:hr>89</gpxtpx:hr>
          </gpxtpx:TrackPointExtension>
        </extensions>
      </trkpt>
      <trkpt lat="50.48735" lon="2.56664">
        <ele>76.8</ele>
        <time>2021-06-24T15:38:38Z</time>
        <extensions>
          <gpxtpx:TrackPointExtension xmlns:gpxtpx="http://www.garmin.com/xmlschemas/TrackPointExtension/v1">
            <gpxtpx:hr>88</gpxtpx:hr>
          </gpxtpx:TrackPointExtension>
        </extensions>
      </trkpt>
      <trkpt lat="50.48738" lon="2.5666">
        <ele>76.8</ele>
        <time>2021-06-24T15:38:39Z</time>
        <extensions>
          <gpxtpx:TrackPointExtension xmlns:gpxtpx="http://www.garmin.com/xmlschemas/TrackPointExtension/v1">
            <gpxtpx:hr>88</gpxtpx:hr>
          </gpxtpx:TrackPointExtension>
        </extensions>
      </trkpt>
      <trkpt lat="50.4874" lon="2.56656">
        <ele>76.8</ele>
        <time>2021-06-24T15:38:40Z</time>
        <extensions>
          <gpxtpx:TrackPointExtension xmlns:gpxtpx="http://www.garmin.com/xmlschemas/TrackPointExtension/v1">
            <gpxtpx:hr>88</gpxtpx:hr>
          </gpxtpx:TrackPointExtension>
        </extensions>
      </trkpt>
      <trkpt lat="50.48743" lon="2.56652">
        <ele>76.8</ele>
        <time>2021-06-24T15:38:41Z</time>
        <extensions>
          <gpxtpx:TrackPointExtension xmlns:gpxtpx="http://www.garmin.com/xmlschemas/TrackPointExtension/v1">
            <gpxtpx:hr>88</gpxtpx:hr>
          </gpxtpx:TrackPointExtension>
        </extensions>
      </trkpt>
      <trkpt lat="50.48745" lon="2.56648">
        <ele>76.8</ele>
        <time>2021-06-24T15:38:42Z</time>
        <extensions>
          <gpxtpx:TrackPointExtension xmlns:gpxtpx="http://www.garmin.com/xmlschemas/TrackPointExtension/v1">
            <gpxtpx:hr>88</gpxtpx:hr>
          </gpxtpx:TrackPointExtension>
        </extensions>
      </trkpt>
      <trkpt lat="50.48748" lon="2.56643">
        <ele>76.8</ele>
        <time>2021-06-24T15:38:43Z</time>
        <extensions>
          <gpxtpx:TrackPointExtension xmlns:gpxtpx="http://www.garmin.com/xmlschemas/TrackPointExtension/v1">
            <gpxtpx:hr>89</gpxtpx:hr>
          </gpxtpx:TrackPointExtension>
        </extensions>
      </trkpt>
      <trkpt lat="50.4875" lon="2.5664">
        <ele>77</ele>
        <time>2021-06-24T15:38:44Z</time>
        <extensions>
          <gpxtpx:TrackPointExtension xmlns:gpxtpx="http://www.garmin.com/xmlschemas/TrackPointExtension/v1">
            <gpxtpx:hr>90</gpxtpx:hr>
          </gpxtpx:TrackPointExtension>
        </extensions>
      </trkpt>
      <trkpt lat="50.48753" lon="2.56635">
        <ele>77</ele>
        <time>2021-06-24T15:38:45Z</time>
        <extensions>
          <gpxtpx:TrackPointExtension xmlns:gpxtpx="http://www.garmin.com/xmlschemas/TrackPointExtension/v1">
            <gpxtpx:hr>91</gpxtpx:hr>
          </gpxtpx:TrackPointExtension>
        </extensions>
      </trkpt>
      <trkpt lat="50.48756" lon="2.5663">
        <ele>77</ele>
        <time>2021-06-24T15:38:46Z</time>
        <extensions>
          <gpxtpx:TrackPointExtension xmlns:gpxtpx="http://www.garmin.com/xmlschemas/TrackPointExtension/v1">
            <gpxtpx:hr>91</gpxtpx:hr>
          </gpxtpx:TrackPointExtension>
        </extensions>
      </trkpt>
      <trkpt lat="50.48761" lon="2.56625">
        <ele>77</ele>
        <time>2021-06-24T15:38:47Z</time>
        <extensions>
          <gpxtpx:TrackPointExtension xmlns:gpxtpx="http://www.garmin.com/xmlschemas/TrackPointExtension/v1">
            <gpxtpx:hr>91</gpxtpx:hr>
          </gpxtpx:TrackPointExtension>
        </extensions>
      </trkpt>
      <trkpt lat="50.48765" lon="2.56619">
        <ele>77</ele>
        <time>2021-06-24T15:38:48Z</time>
        <extensions>
          <gpxtpx:TrackPointExtension xmlns:gpxtpx="http://www.garmin.com/xmlschemas/TrackPointExtension/v1">
            <gpxtpx:hr>91</gpxtpx:hr>
          </gpxtpx:TrackPointExtension>
        </extensions>
      </trkpt>
      <trkpt lat="50.48769" lon="2.56613">
        <ele>77</ele>
        <time>2021-06-24T15:38:49Z</time>
        <extensions>
          <gpxtpx:TrackPointExtension xmlns:gpxtpx="http://www.garmin.com/xmlschemas/TrackPointExtension/v1">
            <gpxtpx:hr>91</gpxtpx:hr>
          </gpxtpx:TrackPointExtension>
        </extensions>
      </trkpt>
      <trkpt lat="50.48773" lon="2.56607">
        <ele>77.2</ele>
        <time>2021-06-24T15:38:50Z</time>
        <extensions>
          <gpxtpx:TrackPointExtension xmlns:gpxtpx="http://www.garmin.com/xmlschemas/TrackPointExtension/v1">
            <gpxtpx:hr>91</gpxtpx:hr>
          </gpxtpx:TrackPointExtension>
        </extensions>
      </trkpt>
      <trkpt lat="50.48777" lon="2.56602">
        <ele>77.2</ele>
        <time>2021-06-24T15:38:51Z</time>
        <extensions>
          <gpxtpx:TrackPointExtension xmlns:gpxtpx="http://www.garmin.com/xmlschemas/TrackPointExtension/v1">
            <gpxtpx:hr>90</gpxtpx:hr>
          </gpxtpx:TrackPointExtension>
        </extensions>
      </trkpt>
      <trkpt lat="50.4878" lon="2.56596">
        <ele>77.2</ele>
        <time>2021-06-24T15:38:52Z</time>
        <extensions>
          <gpxtpx:TrackPointExtension xmlns:gpxtpx="http://www.garmin.com/xmlschemas/TrackPointExtension/v1">
            <gpxtpx:hr>90</gpxtpx:hr>
          </gpxtpx:TrackPointExtension>
        </extensions>
      </trkpt>
      <trkpt lat="50.48783" lon="2.5659">
        <ele>77.2</ele>
        <time>2021-06-24T15:38:53Z</time>
        <extensions>
          <gpxtpx:TrackPointExtension xmlns:gpxtpx="http://www.garmin.com/xmlschemas/TrackPointExtension/v1">
            <gpxtpx:hr>89</gpxtpx:hr>
          </gpxtpx:TrackPointExtension>
        </extensions>
      </trkpt>
      <trkpt lat="50.48787" lon="2.56584">
        <ele>77.2</ele>
        <time>2021-06-24T15:38:54Z</time>
        <extensions>
          <gpxtpx:TrackPointExtension xmlns:gpxtpx="http://www.garmin.com/xmlschemas/TrackPointExtension/v1">
            <gpxtpx:hr>88</gpxtpx:hr>
          </gpxtpx:TrackPointExtension>
        </extensions>
      </trkpt>
      <trkpt lat="50.4879" lon="2.56578">
        <ele>77.2</ele>
        <time>2021-06-24T15:38:55Z</time>
        <extensions>
          <gpxtpx:TrackPointExtension xmlns:gpxtpx="http://www.garmin.com/xmlschemas/TrackPointExtension/v1">
            <gpxtpx:hr>87</gpxtpx:hr>
          </gpxtpx:TrackPointExtension>
        </extensions>
      </trkpt>
      <trkpt lat="50.48793" lon="2.56573">
        <ele>77.2</ele>
        <time>2021-06-24T15:38:56Z</time>
        <extensions>
          <gpxtpx:TrackPointExtension xmlns:gpxtpx="http://www.garmin.com/xmlschemas/TrackPointExtension/v1">
            <gpxtpx:hr>86</gpxtpx:hr>
          </gpxtpx:TrackPointExtension>
        </extensions>
      </trkpt>
      <trkpt lat="50.48796" lon="2.5657">
        <ele>77.4</ele>
        <time>2021-06-24T15:38:57Z</time>
        <extensions>
          <gpxtpx:TrackPointExtension xmlns:gpxtpx="http://www.garmin.com/xmlschemas/TrackPointExtension/v1">
            <gpxtpx:hr>85</gpxtpx:hr>
          </gpxtpx:TrackPointExtension>
        </extensions>
      </trkpt>
      <trkpt lat="50.48799" lon="2.56568">
        <ele>77.4</ele>
        <time>2021-06-24T15:38:58Z</time>
        <extensions>
          <gpxtpx:TrackPointExtension xmlns:gpxtpx="http://www.garmin.com/xmlschemas/TrackPointExtension/v1">
            <gpxtpx:hr>84</gpxtpx:hr>
          </gpxtpx:TrackPointExtension>
        </extensions>
      </trkpt>
      <trkpt lat="50.48802" lon="2.5657">
        <ele>77.4</ele>
        <time>2021-06-24T15:38:59Z</time>
        <extensions>
          <gpxtpx:TrackPointExtension xmlns:gpxtpx="http://www.garmin.com/xmlschemas/TrackPointExtension/v1">
            <gpxtpx:hr>83</gpxtpx:hr>
          </gpxtpx:TrackPointExtension>
        </extensions>
      </trkpt>
      <trkpt lat="50.48805" lon="2.56571">
        <ele>77.4</ele>
        <time>2021-06-24T15:39:00Z</time>
        <extensions>
          <gpxtpx:TrackPointExtension xmlns:gpxtpx="http://www.garmin.com/xmlschemas/TrackPointExtension/v1">
            <gpxtpx:hr>82</gpxtpx:hr>
          </gpxtpx:TrackPointExtension>
        </extensions>
      </trkpt>
      <trkpt lat="50.48809" lon="2.56573">
        <ele>77.4</ele>
        <time>2021-06-24T15:39:01Z</time>
        <extensions>
          <gpxtpx:TrackPointExtension xmlns:gpxtpx="http://www.garmin.com/xmlschemas/TrackPointExtension/v1">
            <gpxtpx:hr>81</gpxtpx:hr>
          </gpxtpx:TrackPointExtension>
        </extensions>
      </trkpt>
      <trkpt lat="50.48812" lon="2.56576">
        <ele>77.4</ele>
        <time>2021-06-24T15:39:02Z</time>
        <extensions>
          <gpxtpx:TrackPointExtension xmlns:gpxtpx="http://www.garmin.com/xmlschemas/TrackPointExtension/v1">
            <gpxtpx:hr>81</gpxtpx:hr>
          </gpxtpx:TrackPointExtension>
        </extensions>
      </trkpt>
      <trkpt lat="50.48816" lon="2.56578">
        <ele>77.2</ele>
        <time>2021-06-24T15:39:03Z</time>
        <extensions>
          <gpxtpx:TrackPointExtension xmlns:gpxtpx="http://www.garmin.com/xmlschemas/TrackPointExtension/v1">
            <gpxtpx:hr>81</gpxtpx:hr>
          </gpxtpx:TrackPointExtension>
        </extensions>
      </trkpt>
      <trkpt lat="50.48819" lon="2.5658">
        <ele>77.2</ele>
        <time>2021-06-24T15:39:04Z</time>
        <extensions>
          <gpxtpx:TrackPointExtension xmlns:gpxtpx="http://www.garmin.com/xmlschemas/TrackPointExtension/v1">
            <gpxtpx:hr>81</gpxtpx:hr>
          </gpxtpx:TrackPointExtension>
        </extensions>
      </trkpt>
      <trkpt lat="50.48822" lon="2.56583">
        <ele>77.2</ele>
        <time>2021-06-24T15:39:05Z</time>
        <extensions>
          <gpxtpx:TrackPointExtension xmlns:gpxtpx="http://www.garmin.com/xmlschemas/TrackPointExtension/v1">
            <gpxtpx:hr>82</gpxtpx:hr>
          </gpxtpx:TrackPointExtension>
        </extensions>
      </trkpt>
      <trkpt lat="50.48825" lon="2.56586">
        <ele>77.2</ele>
        <time>2021-06-24T15:39:06Z</time>
        <extensions>
          <gpxtpx:TrackPointExtension xmlns:gpxtpx="http://www.garmin.com/xmlschemas/TrackPointExtension/v1">
            <gpxtpx:hr>83</gpxtpx:hr>
          </gpxtpx:TrackPointExtension>
        </extensions>
      </trkpt>
      <trkpt lat="50.48828" lon="2.56588">
        <ele>77.2</ele>
        <time>2021-06-24T15:39:07Z</time>
        <extensions>
          <gpxtpx:TrackPointExtension xmlns:gpxtpx="http://www.garmin.com/xmlschemas/TrackPointExtension/v1">
            <gpxtpx:hr>85</gpxtpx:hr>
          </gpxtpx:TrackPointExtension>
        </extensions>
      </trkpt>
      <trkpt lat="50.48832" lon="2.56591">
        <ele>77.2</ele>
        <time>2021-06-24T15:39:08Z</time>
        <extensions>
          <gpxtpx:TrackPointExtension xmlns:gpxtpx="http://www.garmin.com/xmlschemas/TrackPointExtension/v1">
            <gpxtpx:hr>86</gpxtpx:hr>
          </gpxtpx:TrackPointExtension>
        </extensions>
      </trkpt>
      <trkpt lat="50.48836" lon="2.56593">
        <ele>77.2</ele>
        <time>2021-06-24T15:39:09Z</time>
        <extensions>
          <gpxtpx:TrackPointExtension xmlns:gpxtpx="http://www.garmin.com/xmlschemas/TrackPointExtension/v1">
            <gpxtpx:hr>87</gpxtpx:hr>
          </gpxtpx:TrackPointExtension>
        </extensions>
      </trkpt>
      <trkpt lat="50.4884" lon="2.56594">
        <ele>77.2</ele>
        <time>2021-06-24T15:39:10Z</time>
        <extensions>
          <gpxtpx:TrackPointExtension xmlns:gpxtpx="http://www.garmin.com/xmlschemas/TrackPointExtension/v1">
            <gpxtpx:hr>87</gpxtpx:hr>
          </gpxtpx:TrackPointExtension>
        </extensions>
      </trkpt>
      <trkpt lat="50.48844" lon="2.56593">
        <ele>77.2</ele>
        <time>2021-06-24T15:39:11Z</time>
        <extensions>
          <gpxtpx:TrackPointExtension xmlns:gpxtpx="http://www.garmin.com/xmlschemas/TrackPointExtension/v1">
            <gpxtpx:hr>88</gpxtpx:hr>
          </gpxtpx:TrackPointExtension>
        </extensions>
      </trkpt>
      <trkpt lat="50.48848" lon="2.56592">
        <ele>77.2</ele>
        <time>2021-06-24T15:39:12Z</time>
        <extensions>
          <gpxtpx:TrackPointExtension xmlns:gpxtpx="http://www.garmin.com/xmlschemas/TrackPointExtension/v1">
            <gpxtpx:hr>88</gpxtpx:hr>
          </gpxtpx:TrackPointExtension>
        </extensions>
      </trkpt>
      <trkpt lat="50.48851" lon="2.5659">
        <ele>77</ele>
        <time>2021-06-24T15:39:13Z</time>
        <extensions>
          <gpxtpx:TrackPointExtension xmlns:gpxtpx="http://www.garmin.com/xmlschemas/TrackPointExtension/v1">
            <gpxtpx:hr>89</gpxtpx:hr>
          </gpxtpx:TrackPointExtension>
        </extensions>
      </trkpt>
      <trkpt lat="50.48856" lon="2.56589">
        <ele>77</ele>
        <time>2021-06-24T15:39:14Z</time>
        <extensions>
          <gpxtpx:TrackPointExtension xmlns:gpxtpx="http://www.garmin.com/xmlschemas/TrackPointExtension/v1">
            <gpxtpx:hr>89</gpxtpx:hr>
          </gpxtpx:TrackPointExtension>
        </extensions>
      </trkpt>
      <trkpt lat="50.48862" lon="2.56587">
        <ele>76.8</ele>
        <time>2021-06-24T15:39:15Z</time>
        <extensions>
          <gpxtpx:TrackPointExtension xmlns:gpxtpx="http://www.garmin.com/xmlschemas/TrackPointExtension/v1">
            <gpxtpx:hr>89</gpxtpx:hr>
          </gpxtpx:TrackPointExtension>
        </extensions>
      </trkpt>
      <trkpt lat="50.48867" lon="2.56586">
        <ele>76.8</ele>
        <time>2021-06-24T15:39:16Z</time>
        <extensions>
          <gpxtpx:TrackPointExtension xmlns:gpxtpx="http://www.garmin.com/xmlschemas/TrackPointExtension/v1">
            <gpxtpx:hr>89</gpxtpx:hr>
          </gpxtpx:TrackPointExtension>
        </extensions>
      </trkpt>
      <trkpt lat="50.48871" lon="2.56585">
        <ele>76.6</ele>
        <time>2021-06-24T15:39:17Z</time>
        <extensions>
          <gpxtpx:TrackPointExtension xmlns:gpxtpx="http://www.garmin.com/xmlschemas/TrackPointExtension/v1">
            <gpxtpx:hr>90</gpxtpx:hr>
          </gpxtpx:TrackPointExtension>
        </extensions>
      </trkpt>
      <trkpt lat="50.48876" lon="2.56583">
        <ele>76.6</ele>
        <time>2021-06-24T15:39:18Z</time>
        <extensions>
          <gpxtpx:TrackPointExtension xmlns:gpxtpx="http://www.garmin.com/xmlschemas/TrackPointExtension/v1">
            <gpxtpx:hr>90</gpxtpx:hr>
          </gpxtpx:TrackPointExtension>
        </extensions>
      </trkpt>
      <trkpt lat="50.4888" lon="2.56581">
        <ele>76.4</ele>
        <time>2021-06-24T15:39:19Z</time>
        <extensions>
          <gpxtpx:TrackPointExtension xmlns:gpxtpx="http://www.garmin.com/xmlschemas/TrackPointExtension/v1">
            <gpxtpx:hr>90</gpxtpx:hr>
          </gpxtpx:TrackPointExtension>
        </extensions>
      </trkpt>
      <trkpt lat="50.48885" lon="2.5658">
        <ele>76.2</ele>
        <time>2021-06-24T15:39:20Z</time>
        <extensions>
          <gpxtpx:TrackPointExtension xmlns:gpxtpx="http://www.garmin.com/xmlschemas/TrackPointExtension/v1">
            <gpxtpx:hr>91</gpxtpx:hr>
          </gpxtpx:TrackPointExtension>
        </extensions>
      </trkpt>
      <trkpt lat="50.4889" lon="2.56578">
        <ele>76.2</ele>
        <time>2021-06-24T15:39:21Z</time>
        <extensions>
          <gpxtpx:TrackPointExtension xmlns:gpxtpx="http://www.garmin.com/xmlschemas/TrackPointExtension/v1">
            <gpxtpx:hr>91</gpxtpx:hr>
          </gpxtpx:TrackPointExtension>
        </extensions>
      </trkpt>
      <trkpt lat="50.48894" lon="2.56578">
        <ele>76</ele>
        <time>2021-06-24T15:39:22Z</time>
        <extensions>
          <gpxtpx:TrackPointExtension xmlns:gpxtpx="http://www.garmin.com/xmlschemas/TrackPointExtension/v1">
            <gpxtpx:hr>91</gpxtpx:hr>
          </gpxtpx:TrackPointExtension>
        </extensions>
      </trkpt>
      <trkpt lat="50.489" lon="2.56578">
        <ele>75.8</ele>
        <time>2021-06-24T15:39:23Z</time>
        <extensions>
          <gpxtpx:TrackPointExtension xmlns:gpxtpx="http://www.garmin.com/xmlschemas/TrackPointExtension/v1">
            <gpxtpx:hr>91</gpxtpx:hr>
          </gpxtpx:TrackPointExtension>
        </extensions>
      </trkpt>
      <trkpt lat="50.48905" lon="2.56579">
        <ele>75.8</ele>
        <time>2021-06-24T15:39:24Z</time>
        <extensions>
          <gpxtpx:TrackPointExtension xmlns:gpxtpx="http://www.garmin.com/xmlschemas/TrackPointExtension/v1">
            <gpxtpx:hr>91</gpxtpx:hr>
          </gpxtpx:TrackPointExtension>
        </extensions>
      </trkpt>
      <trkpt lat="50.4891" lon="2.56579">
        <ele>75.6</ele>
        <time>2021-06-24T15:39:25Z</time>
        <extensions>
          <gpxtpx:TrackPointExtension xmlns:gpxtpx="http://www.garmin.com/xmlschemas/TrackPointExtension/v1">
            <gpxtpx:hr>91</gpxtpx:hr>
          </gpxtpx:TrackPointExtension>
        </extensions>
      </trkpt>
      <trkpt lat="50.48915" lon="2.56579">
        <ele>75.4</ele>
        <time>2021-06-24T15:39:26Z</time>
        <extensions>
          <gpxtpx:TrackPointExtension xmlns:gpxtpx="http://www.garmin.com/xmlschemas/TrackPointExtension/v1">
            <gpxtpx:hr>92</gpxtpx:hr>
          </gpxtpx:TrackPointExtension>
        </extensions>
      </trkpt>
      <trkpt lat="50.4892" lon="2.56577">
        <ele>75.4</ele>
        <time>2021-06-24T15:39:27Z</time>
        <extensions>
          <gpxtpx:TrackPointExtension xmlns:gpxtpx="http://www.garmin.com/xmlschemas/TrackPointExtension/v1">
            <gpxtpx:hr>93</gpxtpx:hr>
          </gpxtpx:TrackPointExtension>
        </extensions>
      </trkpt>
      <trkpt lat="50.48926" lon="2.56577">
        <ele>75.2</ele>
        <time>2021-06-24T15:39:28Z</time>
        <extensions>
          <gpxtpx:TrackPointExtension xmlns:gpxtpx="http://www.garmin.com/xmlschemas/TrackPointExtension/v1">
            <gpxtpx:hr>94</gpxtpx:hr>
          </gpxtpx:TrackPointExtension>
        </extensions>
      </trkpt>
      <trkpt lat="50.48931" lon="2.56576">
        <ele>75.2</ele>
        <time>2021-06-24T15:39:29Z</time>
        <extensions>
          <gpxtpx:TrackPointExtension xmlns:gpxtpx="http://www.garmin.com/xmlschemas/TrackPointExtension/v1">
            <gpxtpx:hr>95</gpxtpx:hr>
          </gpxtpx:TrackPointExtension>
        </extensions>
      </trkpt>
      <trkpt lat="50.48936" lon="2.56576">
        <ele>75</ele>
        <time>2021-06-24T15:39:30Z</time>
        <extensions>
          <gpxtpx:TrackPointExtension xmlns:gpxtpx="http://www.garmin.com/xmlschemas/TrackPointExtension/v1">
            <gpxtpx:hr>96</gpxtpx:hr>
          </gpxtpx:TrackPointExtension>
        </extensions>
      </trkpt>
      <trkpt lat="50.48942" lon="2.56576">
        <ele>75</ele>
        <time>2021-06-24T15:39:31Z</time>
        <extensions>
          <gpxtpx:TrackPointExtension xmlns:gpxtpx="http://www.garmin.com/xmlschemas/TrackPointExtension/v1">
            <gpxtpx:hr>97</gpxtpx:hr>
          </gpxtpx:TrackPointExtension>
        </extensions>
      </trkpt>
      <trkpt lat="50.48948" lon="2.56577">
        <ele>74.8</ele>
        <time>2021-06-24T15:39:32Z</time>
        <extensions>
          <gpxtpx:TrackPointExtension xmlns:gpxtpx="http://www.garmin.com/xmlschemas/TrackPointExtension/v1">
            <gpxtpx:hr>98</gpxtpx:hr>
          </gpxtpx:TrackPointExtension>
        </extensions>
      </trkpt>
      <trkpt lat="50.48955" lon="2.56577">
        <ele>74.8</ele>
        <time>2021-06-24T15:39:33Z</time>
        <extensions>
          <gpxtpx:TrackPointExtension xmlns:gpxtpx="http://www.garmin.com/xmlschemas/TrackPointExtension/v1">
            <gpxtpx:hr>98</gpxtpx:hr>
          </gpxtpx:TrackPointExtension>
        </extensions>
      </trkpt>
      <trkpt lat="50.48959" lon="2.56577">
        <ele>74.8</ele>
        <time>2021-06-24T15:39:34Z</time>
        <extensions>
          <gpxtpx:TrackPointExtension xmlns:gpxtpx="http://www.garmin.com/xmlschemas/TrackPointExtension/v1">
            <gpxtpx:hr>98</gpxtpx:hr>
          </gpxtpx:TrackPointExtension>
        </extensions>
      </trkpt>
      <trkpt lat="50.48965" lon="2.56577">
        <ele>74.6</ele>
        <time>2021-06-24T15:39:35Z</time>
        <extensions>
          <gpxtpx:TrackPointExtension xmlns:gpxtpx="http://www.garmin.com/xmlschemas/TrackPointExtension/v1">
            <gpxtpx:hr>98</gpxtpx:hr>
          </gpxtpx:TrackPointExtension>
        </extensions>
      </trkpt>
      <trkpt lat="50.4897" lon="2.56576">
        <ele>74.6</ele>
        <time>2021-06-24T15:39:36Z</time>
        <extensions>
          <gpxtpx:TrackPointExtension xmlns:gpxtpx="http://www.garmin.com/xmlschemas/TrackPointExtension/v1">
            <gpxtpx:hr>98</gpxtpx:hr>
          </gpxtpx:TrackPointExtension>
        </extensions>
      </trkpt>
      <trkpt lat="50.48973" lon="2.56578">
        <ele>74.6</ele>
        <time>2021-06-24T15:39:37Z</time>
        <extensions>
          <gpxtpx:TrackPointExtension xmlns:gpxtpx="http://www.garmin.com/xmlschemas/TrackPointExtension/v1">
            <gpxtpx:hr>98</gpxtpx:hr>
          </gpxtpx:TrackPointExtension>
        </extensions>
      </trkpt>
      <trkpt lat="50.48977" lon="2.5658">
        <ele>74.4</ele>
        <time>2021-06-24T15:39:38Z</time>
        <extensions>
          <gpxtpx:TrackPointExtension xmlns:gpxtpx="http://www.garmin.com/xmlschemas/TrackPointExtension/v1">
            <gpxtpx:hr>98</gpxtpx:hr>
          </gpxtpx:TrackPointExtension>
        </extensions>
      </trkpt>
      <trkpt lat="50.48981" lon="2.56581">
        <ele>74.4</ele>
        <time>2021-06-24T15:39:39Z</time>
        <extensions>
          <gpxtpx:TrackPointExtension xmlns:gpxtpx="http://www.garmin.com/xmlschemas/TrackPointExtension/v1">
            <gpxtpx:hr>98</gpxtpx:hr>
          </gpxtpx:TrackPointExtension>
        </extensions>
      </trkpt>
      <trkpt lat="50.48987" lon="2.56581">
        <ele>74.2</ele>
        <time>2021-06-24T15:39:40Z</time>
        <extensions>
          <gpxtpx:TrackPointExtension xmlns:gpxtpx="http://www.garmin.com/xmlschemas/TrackPointExtension/v1">
            <gpxtpx:hr>99</gpxtpx:hr>
          </gpxtpx:TrackPointExtension>
        </extensions>
      </trkpt>
      <trkpt lat="50.48991" lon="2.56581">
        <ele>74.2</ele>
        <time>2021-06-24T15:39:41Z</time>
        <extensions>
          <gpxtpx:TrackPointExtension xmlns:gpxtpx="http://www.garmin.com/xmlschemas/TrackPointExtension/v1">
            <gpxtpx:hr>99</gpxtpx:hr>
          </gpxtpx:TrackPointExtension>
        </extensions>
      </trkpt>
      <trkpt lat="50.48995" lon="2.56581">
        <ele>74</ele>
        <time>2021-06-24T15:39:42Z</time>
        <extensions>
          <gpxtpx:TrackPointExtension xmlns:gpxtpx="http://www.garmin.com/xmlschemas/TrackPointExtension/v1">
            <gpxtpx:hr>99</gpxtpx:hr>
          </gpxtpx:TrackPointExtension>
        </extensions>
      </trkpt>
      <trkpt lat="50.48997" lon="2.56582">
        <ele>74</ele>
        <time>2021-06-24T15:39:43Z</time>
        <extensions>
          <gpxtpx:TrackPointExtension xmlns:gpxtpx="http://www.garmin.com/xmlschemas/TrackPointExtension/v1">
            <gpxtpx:hr>99</gpxtpx:hr>
          </gpxtpx:TrackPointExtension>
        </extensions>
      </trkpt>
      <trkpt lat="50.49" lon="2.56582">
        <ele>73.8</ele>
        <time>2021-06-24T15:39:44Z</time>
        <extensions>
          <gpxtpx:TrackPointExtension xmlns:gpxtpx="http://www.garmin.com/xmlschemas/TrackPointExtension/v1">
            <gpxtpx:hr>99</gpxtpx:hr>
          </gpxtpx:TrackPointExtension>
        </extensions>
      </trkpt>
      <trkpt lat="50.49003" lon="2.56583">
        <ele>73.6</ele>
        <time>2021-06-24T15:39:45Z</time>
        <extensions>
          <gpxtpx:TrackPointExtension xmlns:gpxtpx="http://www.garmin.com/xmlschemas/TrackPointExtension/v1">
            <gpxtpx:hr>99</gpxtpx:hr>
          </gpxtpx:TrackPointExtension>
        </extensions>
      </trkpt>
      <trkpt lat="50.49004" lon="2.56584">
        <ele>73.6</ele>
        <time>2021-06-24T15:39:46Z</time>
        <extensions>
          <gpxtpx:TrackPointExtension xmlns:gpxtpx="http://www.garmin.com/xmlschemas/TrackPointExtension/v1">
            <gpxtpx:hr>99</gpxtpx:hr>
          </gpxtpx:TrackPointExtension>
        </extensions>
      </trkpt>
      <trkpt lat="50.49008" lon="2.56585">
        <ele>73.2</ele>
        <time>2021-06-24T15:39:48Z</time>
        <extensions>
          <gpxtpx:TrackPointExtension xmlns:gpxtpx="http://www.garmin.com/xmlschemas/TrackPointExtension/v1">
            <gpxtpx:hr>98</gpxtpx:hr>
          </gpxtpx:TrackPointExtension>
        </extensions>
      </trkpt>
      <trkpt lat="50.4901" lon="2.56585">
        <ele>73</ele>
        <time>2021-06-24T15:39:49Z</time>
        <extensions>
          <gpxtpx:TrackPointExtension xmlns:gpxtpx="http://www.garmin.com/xmlschemas/TrackPointExtension/v1">
            <gpxtpx:hr>98</gpxtpx:hr>
          </gpxtpx:TrackPointExtension>
        </extensions>
      </trkpt>
      <trkpt lat="50.49011" lon="2.56584">
        <ele>72.8</ele>
        <time>2021-06-24T15:39:50Z</time>
        <extensions>
          <gpxtpx:TrackPointExtension xmlns:gpxtpx="http://www.garmin.com/xmlschemas/TrackPointExtension/v1">
            <gpxtpx:hr>97</gpxtpx:hr>
          </gpxtpx:TrackPointExtension>
        </extensions>
      </trkpt>
      <trkpt lat="50.49013" lon="2.56582">
        <ele>72.4</ele>
        <time>2021-06-24T15:39:52Z</time>
        <extensions>
          <gpxtpx:TrackPointExtension xmlns:gpxtpx="http://www.garmin.com/xmlschemas/TrackPointExtension/v1">
            <gpxtpx:hr>96</gpxtpx:hr>
          </gpxtpx:TrackPointExtension>
        </extensions>
      </trkpt>
      <trkpt lat="50.49015" lon="2.56582">
        <ele>72.2</ele>
        <time>2021-06-24T15:39:53Z</time>
        <extensions>
          <gpxtpx:TrackPointExtension xmlns:gpxtpx="http://www.garmin.com/xmlschemas/TrackPointExtension/v1">
            <gpxtpx:hr>96</gpxtpx:hr>
          </gpxtpx:TrackPointExtension>
        </extensions>
      </trkpt>
      <trkpt lat="50.49017" lon="2.56581">
        <ele>72</ele>
        <time>2021-06-24T15:39:54Z</time>
        <extensions>
          <gpxtpx:TrackPointExtension xmlns:gpxtpx="http://www.garmin.com/xmlschemas/TrackPointExtension/v1">
            <gpxtpx:hr>95</gpxtpx:hr>
          </gpxtpx:TrackPointExtension>
        </extensions>
      </trkpt>
      <trkpt lat="50.4902" lon="2.5658">
        <ele>71.8</ele>
        <time>2021-06-24T15:39:55Z</time>
        <extensions>
          <gpxtpx:TrackPointExtension xmlns:gpxtpx="http://www.garmin.com/xmlschemas/TrackPointExtension/v1">
            <gpxtpx:hr>94</gpxtpx:hr>
          </gpxtpx:TrackPointExtension>
        </extensions>
      </trkpt>
      <trkpt lat="50.49022" lon="2.56578">
        <ele>71.6</ele>
        <time>2021-06-24T15:39:56Z</time>
        <extensions>
          <gpxtpx:TrackPointExtension xmlns:gpxtpx="http://www.garmin.com/xmlschemas/TrackPointExtension/v1">
            <gpxtpx:hr>93</gpxtpx:hr>
          </gpxtpx:TrackPointExtension>
        </extensions>
      </trkpt>
      <trkpt lat="50.49024" lon="2.56575">
        <ele>71.4</ele>
        <time>2021-06-24T15:39:57Z</time>
        <extensions>
          <gpxtpx:TrackPointExtension xmlns:gpxtpx="http://www.garmin.com/xmlschemas/TrackPointExtension/v1">
            <gpxtpx:hr>93</gpxtpx:hr>
          </gpxtpx:TrackPointExtension>
        </extensions>
      </trkpt>
      <trkpt lat="50.49027" lon="2.5657">
        <ele>71.2</ele>
        <time>2021-06-24T15:39:58Z</time>
        <extensions>
          <gpxtpx:TrackPointExtension xmlns:gpxtpx="http://www.garmin.com/xmlschemas/TrackPointExtension/v1">
            <gpxtpx:hr>92</gpxtpx:hr>
          </gpxtpx:TrackPointExtension>
        </extensions>
      </trkpt>
      <trkpt lat="50.49028" lon="2.56567">
        <ele>71</ele>
        <time>2021-06-24T15:39:59Z</time>
        <extensions>
          <gpxtpx:TrackPointExtension xmlns:gpxtpx="http://www.garmin.com/xmlschemas/TrackPointExtension/v1">
            <gpxtpx:hr>92</gpxtpx:hr>
          </gpxtpx:TrackPointExtension>
        </extensions>
      </trkpt>
      <trkpt lat="50.49029" lon="2.56563">
        <ele>70.6</ele>
        <time>2021-06-24T15:40:00Z</time>
        <extensions>
          <gpxtpx:TrackPointExtension xmlns:gpxtpx="http://www.garmin.com/xmlschemas/TrackPointExtension/v1">
            <gpxtpx:hr>91</gpxtpx:hr>
          </gpxtpx:TrackPointExtension>
        </extensions>
      </trkpt>
      <trkpt lat="50.4903" lon="2.56558">
        <ele>70.6</ele>
        <time>2021-06-24T15:40:01Z</time>
        <extensions>
          <gpxtpx:TrackPointExtension xmlns:gpxtpx="http://www.garmin.com/xmlschemas/TrackPointExtension/v1">
            <gpxtpx:hr>91</gpxtpx:hr>
          </gpxtpx:TrackPointExtension>
        </extensions>
      </trkpt>
      <trkpt lat="50.49031" lon="2.56554">
        <ele>70.4</ele>
        <time>2021-06-24T15:40:02Z</time>
        <extensions>
          <gpxtpx:TrackPointExtension xmlns:gpxtpx="http://www.garmin.com/xmlschemas/TrackPointExtension/v1">
            <gpxtpx:hr>91</gpxtpx:hr>
          </gpxtpx:TrackPointExtension>
        </extensions>
      </trkpt>
      <trkpt lat="50.49032" lon="2.56549">
        <ele>70.2</ele>
        <time>2021-06-24T15:40:03Z</time>
        <extensions>
          <gpxtpx:TrackPointExtension xmlns:gpxtpx="http://www.garmin.com/xmlschemas/TrackPointExtension/v1">
            <gpxtpx:hr>91</gpxtpx:hr>
          </gpxtpx:TrackPointExtension>
        </extensions>
      </trkpt>
      <trkpt lat="50.49033" lon="2.56544">
        <ele>70</ele>
        <time>2021-06-24T15:40:04Z</time>
        <extensions>
          <gpxtpx:TrackPointExtension xmlns:gpxtpx="http://www.garmin.com/xmlschemas/TrackPointExtension/v1">
            <gpxtpx:hr>92</gpxtpx:hr>
          </gpxtpx:TrackPointExtension>
        </extensions>
      </trkpt>
      <trkpt lat="50.49035" lon="2.56538">
        <ele>69.8</ele>
        <time>2021-06-24T15:40:05Z</time>
        <extensions>
          <gpxtpx:TrackPointExtension xmlns:gpxtpx="http://www.garmin.com/xmlschemas/TrackPointExtension/v1">
            <gpxtpx:hr>91</gpxtpx:hr>
          </gpxtpx:TrackPointExtension>
        </extensions>
      </trkpt>
      <trkpt lat="50.49036" lon="2.56532">
        <ele>69.6</ele>
        <time>2021-06-24T15:40:06Z</time>
        <extensions>
          <gpxtpx:TrackPointExtension xmlns:gpxtpx="http://www.garmin.com/xmlschemas/TrackPointExtension/v1">
            <gpxtpx:hr>91</gpxtpx:hr>
          </gpxtpx:TrackPointExtension>
        </extensions>
      </trkpt>
      <trkpt lat="50.49037" lon="2.56526">
        <ele>69.6</ele>
        <time>2021-06-24T15:40:07Z</time>
        <extensions>
          <gpxtpx:TrackPointExtension xmlns:gpxtpx="http://www.garmin.com/xmlschemas/TrackPointExtension/v1">
            <gpxtpx:hr>90</gpxtpx:hr>
          </gpxtpx:TrackPointExtension>
        </extensions>
      </trkpt>
      <trkpt lat="50.49039" lon="2.56519">
        <ele>69.4</ele>
        <time>2021-06-24T15:40:08Z</time>
        <extensions>
          <gpxtpx:TrackPointExtension xmlns:gpxtpx="http://www.garmin.com/xmlschemas/TrackPointExtension/v1">
            <gpxtpx:hr>89</gpxtpx:hr>
          </gpxtpx:TrackPointExtension>
        </extensions>
      </trkpt>
      <trkpt lat="50.49041" lon="2.56513">
        <ele>69.2</ele>
        <time>2021-06-24T15:40:09Z</time>
        <extensions>
          <gpxtpx:TrackPointExtension xmlns:gpxtpx="http://www.garmin.com/xmlschemas/TrackPointExtension/v1">
            <gpxtpx:hr>88</gpxtpx:hr>
          </gpxtpx:TrackPointExtension>
        </extensions>
      </trkpt>
      <trkpt lat="50.49043" lon="2.56506">
        <ele>69.2</ele>
        <time>2021-06-24T15:40:10Z</time>
        <extensions>
          <gpxtpx:TrackPointExtension xmlns:gpxtpx="http://www.garmin.com/xmlschemas/TrackPointExtension/v1">
            <gpxtpx:hr>87</gpxtpx:hr>
          </gpxtpx:TrackPointExtension>
        </extensions>
      </trkpt>
      <trkpt lat="50.49044" lon="2.56501">
        <ele>69</ele>
        <time>2021-06-24T15:40:11Z</time>
        <extensions>
          <gpxtpx:TrackPointExtension xmlns:gpxtpx="http://www.garmin.com/xmlschemas/TrackPointExtension/v1">
            <gpxtpx:hr>86</gpxtpx:hr>
          </gpxtpx:TrackPointExtension>
        </extensions>
      </trkpt>
      <trkpt lat="50.49046" lon="2.56495">
        <ele>69</ele>
        <time>2021-06-24T15:40:12Z</time>
        <extensions>
          <gpxtpx:TrackPointExtension xmlns:gpxtpx="http://www.garmin.com/xmlschemas/TrackPointExtension/v1">
            <gpxtpx:hr>85</gpxtpx:hr>
          </gpxtpx:TrackPointExtension>
        </extensions>
      </trkpt>
      <trkpt lat="50.49047" lon="2.56491">
        <ele>68.8</ele>
        <time>2021-06-24T15:40:13Z</time>
        <extensions>
          <gpxtpx:TrackPointExtension xmlns:gpxtpx="http://www.garmin.com/xmlschemas/TrackPointExtension/v1">
            <gpxtpx:hr>84</gpxtpx:hr>
          </gpxtpx:TrackPointExtension>
        </extensions>
      </trkpt>
      <trkpt lat="50.49049" lon="2.56486">
        <ele>68.8</ele>
        <time>2021-06-24T15:40:14Z</time>
        <extensions>
          <gpxtpx:TrackPointExtension xmlns:gpxtpx="http://www.garmin.com/xmlschemas/TrackPointExtension/v1">
            <gpxtpx:hr>84</gpxtpx:hr>
          </gpxtpx:TrackPointExtension>
        </extensions>
      </trkpt>
      <trkpt lat="50.4905" lon="2.56481">
        <ele>68.6</ele>
        <time>2021-06-24T15:40:15Z</time>
        <extensions>
          <gpxtpx:TrackPointExtension xmlns:gpxtpx="http://www.garmin.com/xmlschemas/TrackPointExtension/v1">
            <gpxtpx:hr>84</gpxtpx:hr>
          </gpxtpx:TrackPointExtension>
        </extensions>
      </trkpt>
      <trkpt lat="50.49051" lon="2.56477">
        <ele>68.4</ele>
        <time>2021-06-24T15:40:16Z</time>
        <extensions>
          <gpxtpx:TrackPointExtension xmlns:gpxtpx="http://www.garmin.com/xmlschemas/TrackPointExtension/v1">
            <gpxtpx:hr>84</gpxtpx:hr>
          </gpxtpx:TrackPointExtension>
        </extensions>
      </trkpt>
      <trkpt lat="50.49052" lon="2.56473">
        <ele>68.2</ele>
        <time>2021-06-24T15:40:17Z</time>
        <extensions>
          <gpxtpx:TrackPointExtension xmlns:gpxtpx="http://www.garmin.com/xmlschemas/TrackPointExtension/v1">
            <gpxtpx:hr>84</gpxtpx:hr>
          </gpxtpx:TrackPointExtension>
        </extensions>
      </trkpt>
      <trkpt lat="50.49055" lon="2.56469">
        <ele>68</ele>
        <time>2021-06-24T15:40:19Z</time>
        <extensions>
          <gpxtpx:TrackPointExtension xmlns:gpxtpx="http://www.garmin.com/xmlschemas/TrackPointExtension/v1">
            <gpxtpx:hr>84</gpxtpx:hr>
          </gpxtpx:TrackPointExtension>
        </extensions>
      </trkpt>
      <trkpt lat="50.4906" lon="2.56467">
        <ele>67.6</ele>
        <time>2021-06-24T15:40:22Z</time>
        <extensions>
          <gpxtpx:TrackPointExtension xmlns:gpxtpx="http://www.garmin.com/xmlschemas/TrackPointExtension/v1">
            <gpxtpx:hr>85</gpxtpx:hr>
          </gpxtpx:TrackPointExtension>
        </extensions>
      </trkpt>
      <trkpt lat="50.49063" lon="2.56466">
        <ele>67.4</ele>
        <time>2021-06-24T15:40:23Z</time>
        <extensions>
          <gpxtpx:TrackPointExtension xmlns:gpxtpx="http://www.garmin.com/xmlschemas/TrackPointExtension/v1">
            <gpxtpx:hr>84</gpxtpx:hr>
          </gpxtpx:TrackPointExtension>
        </extensions>
      </trkpt>
      <trkpt lat="50.49064" lon="2.56465">
        <ele>67.4</ele>
        <time>2021-06-24T15:40:24Z</time>
        <extensions>
          <gpxtpx:TrackPointExtension xmlns:gpxtpx="http://www.garmin.com/xmlschemas/TrackPointExtension/v1">
            <gpxtpx:hr>83</gpxtpx:hr>
          </gpxtpx:TrackPointExtension>
        </extensions>
      </trkpt>
      <trkpt lat="50.49065" lon="2.56463">
        <ele>67.2</ele>
        <time>2021-06-24T15:40:25Z</time>
        <extensions>
          <gpxtpx:TrackPointExtension xmlns:gpxtpx="http://www.garmin.com/xmlschemas/TrackPointExtension/v1">
            <gpxtpx:hr>82</gpxtpx:hr>
          </gpxtpx:TrackPointExtension>
        </extensions>
      </trkpt>
      <trkpt lat="50.49067" lon="2.5646">
        <ele>67</ele>
        <time>2021-06-24T15:40:26Z</time>
        <extensions>
          <gpxtpx:TrackPointExtension xmlns:gpxtpx="http://www.garmin.com/xmlschemas/TrackPointExtension/v1">
            <gpxtpx:hr>82</gpxtpx:hr>
          </gpxtpx:TrackPointExtension>
        </extensions>
      </trkpt>
      <trkpt lat="50.49067" lon="2.56456">
        <ele>67</ele>
        <time>2021-06-24T15:40:27Z</time>
        <extensions>
          <gpxtpx:TrackPointExtension xmlns:gpxtpx="http://www.garmin.com/xmlschemas/TrackPointExtension/v1">
            <gpxtpx:hr>82</gpxtpx:hr>
          </gpxtpx:TrackPointExtension>
        </extensions>
      </trkpt>
      <trkpt lat="50.49067" lon="2.56452">
        <ele>66.8</ele>
        <time>2021-06-24T15:40:28Z</time>
        <extensions>
          <gpxtpx:TrackPointExtension xmlns:gpxtpx="http://www.garmin.com/xmlschemas/TrackPointExtension/v1">
            <gpxtpx:hr>82</gpxtpx:hr>
          </gpxtpx:TrackPointExtension>
        </extensions>
      </trkpt>
      <trkpt lat="50.49066" lon="2.56448">
        <ele>66.6</ele>
        <time>2021-06-24T15:40:29Z</time>
        <extensions>
          <gpxtpx:TrackPointExtension xmlns:gpxtpx="http://www.garmin.com/xmlschemas/TrackPointExtension/v1">
            <gpxtpx:hr>82</gpxtpx:hr>
          </gpxtpx:TrackPointExtension>
        </extensions>
      </trkpt>
      <trkpt lat="50.49065" lon="2.56443">
        <ele>66.6</ele>
        <time>2021-06-24T15:40:30Z</time>
        <extensions>
          <gpxtpx:TrackPointExtension xmlns:gpxtpx="http://www.garmin.com/xmlschemas/TrackPointExtension/v1">
            <gpxtpx:hr>83</gpxtpx:hr>
          </gpxtpx:TrackPointExtension>
        </extensions>
      </trkpt>
      <trkpt lat="50.49064" lon="2.56437">
        <ele>66.4</ele>
        <time>2021-06-24T15:40:31Z</time>
        <extensions>
          <gpxtpx:TrackPointExtension xmlns:gpxtpx="http://www.garmin.com/xmlschemas/TrackPointExtension/v1">
            <gpxtpx:hr>84</gpxtpx:hr>
          </gpxtpx:TrackPointExtension>
        </extensions>
      </trkpt>
      <trkpt lat="50.49065" lon="2.56431">
        <ele>66.4</ele>
        <time>2021-06-24T15:40:32Z</time>
        <extensions>
          <gpxtpx:TrackPointExtension xmlns:gpxtpx="http://www.garmin.com/xmlschemas/TrackPointExtension/v1">
            <gpxtpx:hr>84</gpxtpx:hr>
          </gpxtpx:TrackPointExtension>
        </extensions>
      </trkpt>
      <trkpt lat="50.49065" lon="2.56425">
        <ele>66.2</ele>
        <time>2021-06-24T15:40:33Z</time>
        <extensions>
          <gpxtpx:TrackPointExtension xmlns:gpxtpx="http://www.garmin.com/xmlschemas/TrackPointExtension/v1">
            <gpxtpx:hr>84</gpxtpx:hr>
          </gpxtpx:TrackPointExtension>
        </extensions>
      </trkpt>
      <trkpt lat="50.49067" lon="2.5642">
        <ele>66.2</ele>
        <time>2021-06-24T15:40:34Z</time>
        <extensions>
          <gpxtpx:TrackPointExtension xmlns:gpxtpx="http://www.garmin.com/xmlschemas/TrackPointExtension/v1">
            <gpxtpx:hr>85</gpxtpx:hr>
          </gpxtpx:TrackPointExtension>
        </extensions>
      </trkpt>
      <trkpt lat="50.49069" lon="2.56415">
        <ele>66.2</ele>
        <time>2021-06-24T15:40:35Z</time>
        <extensions>
          <gpxtpx:TrackPointExtension xmlns:gpxtpx="http://www.garmin.com/xmlschemas/TrackPointExtension/v1">
            <gpxtpx:hr>85</gpxtpx:hr>
          </gpxtpx:TrackPointExtension>
        </extensions>
      </trkpt>
      <trkpt lat="50.49071" lon="2.5641">
        <ele>66.2</ele>
        <time>2021-06-24T15:40:36Z</time>
        <extensions>
          <gpxtpx:TrackPointExtension xmlns:gpxtpx="http://www.garmin.com/xmlschemas/TrackPointExtension/v1">
            <gpxtpx:hr>86</gpxtpx:hr>
          </gpxtpx:TrackPointExtension>
        </extensions>
      </trkpt>
      <trkpt lat="50.49072" lon="2.56405">
        <ele>66.2</ele>
        <time>2021-06-24T15:40:37Z</time>
        <extensions>
          <gpxtpx:TrackPointExtension xmlns:gpxtpx="http://www.garmin.com/xmlschemas/TrackPointExtension/v1">
            <gpxtpx:hr>86</gpxtpx:hr>
          </gpxtpx:TrackPointExtension>
        </extensions>
      </trkpt>
      <trkpt lat="50.49073" lon="2.56399">
        <ele>66.2</ele>
        <time>2021-06-24T15:40:38Z</time>
        <extensions>
          <gpxtpx:TrackPointExtension xmlns:gpxtpx="http://www.garmin.com/xmlschemas/TrackPointExtension/v1">
            <gpxtpx:hr>87</gpxtpx:hr>
          </gpxtpx:TrackPointExtension>
        </extensions>
      </trkpt>
      <trkpt lat="50.49074" lon="2.56393">
        <ele>66</ele>
        <time>2021-06-24T15:40:39Z</time>
        <extensions>
          <gpxtpx:TrackPointExtension xmlns:gpxtpx="http://www.garmin.com/xmlschemas/TrackPointExtension/v1">
            <gpxtpx:hr>88</gpxtpx:hr>
          </gpxtpx:TrackPointExtension>
        </extensions>
      </trkpt>
      <trkpt lat="50.49076" lon="2.56388">
        <ele>66</ele>
        <time>2021-06-24T15:40:40Z</time>
        <extensions>
          <gpxtpx:TrackPointExtension xmlns:gpxtpx="http://www.garmin.com/xmlschemas/TrackPointExtension/v1">
            <gpxtpx:hr>89</gpxtpx:hr>
          </gpxtpx:TrackPointExtension>
        </extensions>
      </trkpt>
      <trkpt lat="50.49077" lon="2.56384">
        <ele>66</ele>
        <time>2021-06-24T15:40:41Z</time>
        <extensions>
          <gpxtpx:TrackPointExtension xmlns:gpxtpx="http://www.garmin.com/xmlschemas/TrackPointExtension/v1">
            <gpxtpx:hr>90</gpxtpx:hr>
          </gpxtpx:TrackPointExtension>
        </extensions>
      </trkpt>
      <trkpt lat="50.49079" lon="2.56379">
        <ele>66</ele>
        <time>2021-06-24T15:40:42Z</time>
        <extensions>
          <gpxtpx:TrackPointExtension xmlns:gpxtpx="http://www.garmin.com/xmlschemas/TrackPointExtension/v1">
            <gpxtpx:hr>90</gpxtpx:hr>
          </gpxtpx:TrackPointExtension>
        </extensions>
      </trkpt>
      <trkpt lat="50.4908" lon="2.56374">
        <ele>66</ele>
        <time>2021-06-24T15:40:43Z</time>
        <extensions>
          <gpxtpx:TrackPointExtension xmlns:gpxtpx="http://www.garmin.com/xmlschemas/TrackPointExtension/v1">
            <gpxtpx:hr>91</gpxtpx:hr>
          </gpxtpx:TrackPointExtension>
        </extensions>
      </trkpt>
      <trkpt lat="50.49082" lon="2.56369">
        <ele>66</ele>
        <time>2021-06-24T15:40:44Z</time>
        <extensions>
          <gpxtpx:TrackPointExtension xmlns:gpxtpx="http://www.garmin.com/xmlschemas/TrackPointExtension/v1">
            <gpxtpx:hr>91</gpxtpx:hr>
          </gpxtpx:TrackPointExtension>
        </extensions>
      </trkpt>
      <trkpt lat="50.49083" lon="2.56364">
        <ele>66</ele>
        <time>2021-06-24T15:40:45Z</time>
        <extensions>
          <gpxtpx:TrackPointExtension xmlns:gpxtpx="http://www.garmin.com/xmlschemas/TrackPointExtension/v1">
            <gpxtpx:hr>92</gpxtpx:hr>
          </gpxtpx:TrackPointExtension>
        </extensions>
      </trkpt>
      <trkpt lat="50.49084" lon="2.56359">
        <ele>66</ele>
        <time>2021-06-24T15:40:46Z</time>
        <extensions>
          <gpxtpx:TrackPointExtension xmlns:gpxtpx="http://www.garmin.com/xmlschemas/TrackPointExtension/v1">
            <gpxtpx:hr>92</gpxtpx:hr>
          </gpxtpx:TrackPointExtension>
        </extensions>
      </trkpt>
      <trkpt lat="50.49086" lon="2.56354">
        <ele>66</ele>
        <time>2021-06-24T15:40:47Z</time>
        <extensions>
          <gpxtpx:TrackPointExtension xmlns:gpxtpx="http://www.garmin.com/xmlschemas/TrackPointExtension/v1">
            <gpxtpx:hr>93</gpxtpx:hr>
          </gpxtpx:TrackPointExtension>
        </extensions>
      </trkpt>
      <trkpt lat="50.49088" lon="2.5635">
        <ele>66</ele>
        <time>2021-06-24T15:40:48Z</time>
        <extensions>
          <gpxtpx:TrackPointExtension xmlns:gpxtpx="http://www.garmin.com/xmlschemas/TrackPointExtension/v1">
            <gpxtpx:hr>94</gpxtpx:hr>
          </gpxtpx:TrackPointExtension>
        </extensions>
      </trkpt>
      <trkpt lat="50.49089" lon="2.56345">
        <ele>66</ele>
        <time>2021-06-24T15:40:49Z</time>
        <extensions>
          <gpxtpx:TrackPointExtension xmlns:gpxtpx="http://www.garmin.com/xmlschemas/TrackPointExtension/v1">
            <gpxtpx:hr>95</gpxtpx:hr>
          </gpxtpx:TrackPointExtension>
        </extensions>
      </trkpt>
      <trkpt lat="50.49091" lon="2.5634">
        <ele>66</ele>
        <time>2021-06-24T15:40:50Z</time>
        <extensions>
          <gpxtpx:TrackPointExtension xmlns:gpxtpx="http://www.garmin.com/xmlschemas/TrackPointExtension/v1">
            <gpxtpx:hr>96</gpxtpx:hr>
          </gpxtpx:TrackPointExtension>
        </extensions>
      </trkpt>
      <trkpt lat="50.49092" lon="2.56335">
        <ele>66</ele>
        <time>2021-06-24T15:40:51Z</time>
        <extensions>
          <gpxtpx:TrackPointExtension xmlns:gpxtpx="http://www.garmin.com/xmlschemas/TrackPointExtension/v1">
            <gpxtpx:hr>96</gpxtpx:hr>
          </gpxtpx:TrackPointExtension>
        </extensions>
      </trkpt>
      <trkpt lat="50.49094" lon="2.56329">
        <ele>66</ele>
        <time>2021-06-24T15:40:52Z</time>
        <extensions>
          <gpxtpx:TrackPointExtension xmlns:gpxtpx="http://www.garmin.com/xmlschemas/TrackPointExtension/v1">
            <gpxtpx:hr>97</gpxtpx:hr>
          </gpxtpx:TrackPointExtension>
        </extensions>
      </trkpt>
      <trkpt lat="50.49095" lon="2.56325">
        <ele>66</ele>
        <time>2021-06-24T15:40:53Z</time>
        <extensions>
          <gpxtpx:TrackPointExtension xmlns:gpxtpx="http://www.garmin.com/xmlschemas/TrackPointExtension/v1">
            <gpxtpx:hr>97</gpxtpx:hr>
          </gpxtpx:TrackPointExtension>
        </extensions>
      </trkpt>
      <trkpt lat="50.49096" lon="2.5632">
        <ele>66</ele>
        <time>2021-06-24T15:40:54Z</time>
        <extensions>
          <gpxtpx:TrackPointExtension xmlns:gpxtpx="http://www.garmin.com/xmlschemas/TrackPointExtension/v1">
            <gpxtpx:hr>97</gpxtpx:hr>
          </gpxtpx:TrackPointExtension>
        </extensions>
      </trkpt>
      <trkpt lat="50.49098" lon="2.56315">
        <ele>66</ele>
        <time>2021-06-24T15:40:55Z</time>
        <extensions>
          <gpxtpx:TrackPointExtension xmlns:gpxtpx="http://www.garmin.com/xmlschemas/TrackPointExtension/v1">
            <gpxtpx:hr>98</gpxtpx:hr>
          </gpxtpx:TrackPointExtension>
        </extensions>
      </trkpt>
      <trkpt lat="50.49099" lon="2.5631">
        <ele>66.2</ele>
        <time>2021-06-24T15:40:56Z</time>
        <extensions>
          <gpxtpx:TrackPointExtension xmlns:gpxtpx="http://www.garmin.com/xmlschemas/TrackPointExtension/v1">
            <gpxtpx:hr>98</gpxtpx:hr>
          </gpxtpx:TrackPointExtension>
        </extensions>
      </trkpt>
      <trkpt lat="50.491" lon="2.56305">
        <ele>66.2</ele>
        <time>2021-06-24T15:40:57Z</time>
        <extensions>
          <gpxtpx:TrackPointExtension xmlns:gpxtpx="http://www.garmin.com/xmlschemas/TrackPointExtension/v1">
            <gpxtpx:hr>99</gpxtpx:hr>
          </gpxtpx:TrackPointExtension>
        </extensions>
      </trkpt>
      <trkpt lat="50.49102" lon="2.56301">
        <ele>66.2</ele>
        <time>2021-06-24T15:40:58Z</time>
        <extensions>
          <gpxtpx:TrackPointExtension xmlns:gpxtpx="http://www.garmin.com/xmlschemas/TrackPointExtension/v1">
            <gpxtpx:hr>100</gpxtpx:hr>
          </gpxtpx:TrackPointExtension>
        </extensions>
      </trkpt>
      <trkpt lat="50.49104" lon="2.56295">
        <ele>66.2</ele>
        <time>2021-06-24T15:40:59Z</time>
        <extensions>
          <gpxtpx:TrackPointExtension xmlns:gpxtpx="http://www.garmin.com/xmlschemas/TrackPointExtension/v1">
            <gpxtpx:hr>101</gpxtpx:hr>
          </gpxtpx:TrackPointExtension>
        </extensions>
      </trkpt>
      <trkpt lat="50.49105" lon="2.5629">
        <ele>66.2</ele>
        <time>2021-06-24T15:41:00Z</time>
        <extensions>
          <gpxtpx:TrackPointExtension xmlns:gpxtpx="http://www.garmin.com/xmlschemas/TrackPointExtension/v1">
            <gpxtpx:hr>102</gpxtpx:hr>
          </gpxtpx:TrackPointExtension>
        </extensions>
      </trkpt>
      <trkpt lat="50.49107" lon="2.56285">
        <ele>66.4</ele>
        <time>2021-06-24T15:41:01Z</time>
        <extensions>
          <gpxtpx:TrackPointExtension xmlns:gpxtpx="http://www.garmin.com/xmlschemas/TrackPointExtension/v1">
            <gpxtpx:hr>103</gpxtpx:hr>
          </gpxtpx:TrackPointExtension>
        </extensions>
      </trkpt>
      <trkpt lat="50.49108" lon="2.5628">
        <ele>66.4</ele>
        <time>2021-06-24T15:41:02Z</time>
        <extensions>
          <gpxtpx:TrackPointExtension xmlns:gpxtpx="http://www.garmin.com/xmlschemas/TrackPointExtension/v1">
            <gpxtpx:hr>104</gpxtpx:hr>
          </gpxtpx:TrackPointExtension>
        </extensions>
      </trkpt>
      <trkpt lat="50.49109" lon="2.56276">
        <ele>66.4</ele>
        <time>2021-06-24T15:41:03Z</time>
        <extensions>
          <gpxtpx:TrackPointExtension xmlns:gpxtpx="http://www.garmin.com/xmlschemas/TrackPointExtension/v1">
            <gpxtpx:hr>105</gpxtpx:hr>
          </gpxtpx:TrackPointExtension>
        </extensions>
      </trkpt>
      <trkpt lat="50.49111" lon="2.56272">
        <ele>66.4</ele>
        <time>2021-06-24T15:41:04Z</time>
        <extensions>
          <gpxtpx:TrackPointExtension xmlns:gpxtpx="http://www.garmin.com/xmlschemas/TrackPointExtension/v1">
            <gpxtpx:hr>105</gpxtpx:hr>
          </gpxtpx:TrackPointExtension>
        </extensions>
      </trkpt>
      <trkpt lat="50.49112" lon="2.56267">
        <ele>66.4</ele>
        <time>2021-06-24T15:41:05Z</time>
        <extensions>
          <gpxtpx:TrackPointExtension xmlns:gpxtpx="http://www.garmin.com/xmlschemas/TrackPointExtension/v1">
            <gpxtpx:hr>106</gpxtpx:hr>
          </gpxtpx:TrackPointExtension>
        </extensions>
      </trkpt>
      <trkpt lat="50.49114" lon="2.56262">
        <ele>66.4</ele>
        <time>2021-06-24T15:41:06Z</time>
        <extensions>
          <gpxtpx:TrackPointExtension xmlns:gpxtpx="http://www.garmin.com/xmlschemas/TrackPointExtension/v1">
            <gpxtpx:hr>107</gpxtpx:hr>
          </gpxtpx:TrackPointExtension>
        </extensions>
      </trkpt>
      <trkpt lat="50.49115" lon="2.56257">
        <ele>66.4</ele>
        <time>2021-06-24T15:41:07Z</time>
        <extensions>
          <gpxtpx:TrackPointExtension xmlns:gpxtpx="http://www.garmin.com/xmlschemas/TrackPointExtension/v1">
            <gpxtpx:hr>107</gpxtpx:hr>
          </gpxtpx:TrackPointExtension>
        </extensions>
      </trkpt>
      <trkpt lat="50.49116" lon="2.56252">
        <ele>66.2</ele>
        <time>2021-06-24T15:41:08Z</time>
        <extensions>
          <gpxtpx:TrackPointExtension xmlns:gpxtpx="http://www.garmin.com/xmlschemas/TrackPointExtension/v1">
            <gpxtpx:hr>108</gpxtpx:hr>
          </gpxtpx:TrackPointExtension>
        </extensions>
      </trkpt>
      <trkpt lat="50.49118" lon="2.56248">
        <ele>66.2</ele>
        <time>2021-06-24T15:41:09Z</time>
        <extensions>
          <gpxtpx:TrackPointExtension xmlns:gpxtpx="http://www.garmin.com/xmlschemas/TrackPointExtension/v1">
            <gpxtpx:hr>109</gpxtpx:hr>
          </gpxtpx:TrackPointExtension>
        </extensions>
      </trkpt>
      <trkpt lat="50.4912" lon="2.56244">
        <ele>66.2</ele>
        <time>2021-06-24T15:41:10Z</time>
        <extensions>
          <gpxtpx:TrackPointExtension xmlns:gpxtpx="http://www.garmin.com/xmlschemas/TrackPointExtension/v1">
            <gpxtpx:hr>109</gpxtpx:hr>
          </gpxtpx:TrackPointExtension>
        </extensions>
      </trkpt>
      <trkpt lat="50.49122" lon="2.5624">
        <ele>66.2</ele>
        <time>2021-06-24T15:41:11Z</time>
        <extensions>
          <gpxtpx:TrackPointExtension xmlns:gpxtpx="http://www.garmin.com/xmlschemas/TrackPointExtension/v1">
            <gpxtpx:hr>110</gpxtpx:hr>
          </gpxtpx:TrackPointExtension>
        </extensions>
      </trkpt>
      <trkpt lat="50.49124" lon="2.56237">
        <ele>66.2</ele>
        <time>2021-06-24T15:41:12Z</time>
        <extensions>
          <gpxtpx:TrackPointExtension xmlns:gpxtpx="http://www.garmin.com/xmlschemas/TrackPointExtension/v1">
            <gpxtpx:hr>110</gpxtpx:hr>
          </gpxtpx:TrackPointExtension>
        </extensions>
      </trkpt>
      <trkpt lat="50.49127" lon="2.56233">
        <ele>66</ele>
        <time>2021-06-24T15:41:13Z</time>
        <extensions>
          <gpxtpx:TrackPointExtension xmlns:gpxtpx="http://www.garmin.com/xmlschemas/TrackPointExtension/v1">
            <gpxtpx:hr>111</gpxtpx:hr>
          </gpxtpx:TrackPointExtension>
        </extensions>
      </trkpt>
      <trkpt lat="50.49129" lon="2.56231">
        <ele>66</ele>
        <time>2021-06-24T15:41:14Z</time>
        <extensions>
          <gpxtpx:TrackPointExtension xmlns:gpxtpx="http://www.garmin.com/xmlschemas/TrackPointExtension/v1">
            <gpxtpx:hr>111</gpxtpx:hr>
          </gpxtpx:TrackPointExtension>
        </extensions>
      </trkpt>
      <trkpt lat="50.49131" lon="2.56227">
        <ele>66</ele>
        <time>2021-06-24T15:41:15Z</time>
        <extensions>
          <gpxtpx:TrackPointExtension xmlns:gpxtpx="http://www.garmin.com/xmlschemas/TrackPointExtension/v1">
            <gpxtpx:hr>112</gpxtpx:hr>
          </gpxtpx:TrackPointExtension>
        </extensions>
      </trkpt>
      <trkpt lat="50.49132" lon="2.56223">
        <ele>66</ele>
        <time>2021-06-24T15:41:16Z</time>
        <extensions>
          <gpxtpx:TrackPointExtension xmlns:gpxtpx="http://www.garmin.com/xmlschemas/TrackPointExtension/v1">
            <gpxtpx:hr>112</gpxtpx:hr>
          </gpxtpx:TrackPointExtension>
        </extensions>
      </trkpt>
      <trkpt lat="50.49132" lon="2.56219">
        <ele>65.8</ele>
        <time>2021-06-24T15:41:17Z</time>
        <extensions>
          <gpxtpx:TrackPointExtension xmlns:gpxtpx="http://www.garmin.com/xmlschemas/TrackPointExtension/v1">
            <gpxtpx:hr>112</gpxtpx:hr>
          </gpxtpx:TrackPointExtension>
        </extensions>
      </trkpt>
      <trkpt lat="50.49132" lon="2.56216">
        <ele>65.8</ele>
        <time>2021-06-24T15:41:18Z</time>
        <extensions>
          <gpxtpx:TrackPointExtension xmlns:gpxtpx="http://www.garmin.com/xmlschemas/TrackPointExtension/v1">
            <gpxtpx:hr>113</gpxtpx:hr>
          </gpxtpx:TrackPointExtension>
        </extensions>
      </trkpt>
      <trkpt lat="50.49131" lon="2.56212">
        <ele>65.8</ele>
        <time>2021-06-24T15:41:19Z</time>
        <extensions>
          <gpxtpx:TrackPointExtension xmlns:gpxtpx="http://www.garmin.com/xmlschemas/TrackPointExtension/v1">
            <gpxtpx:hr>113</gpxtpx:hr>
          </gpxtpx:TrackPointExtension>
        </extensions>
      </trkpt>
      <trkpt lat="50.49128" lon="2.56208">
        <ele>65.8</ele>
        <time>2021-06-24T15:41:20Z</time>
        <extensions>
          <gpxtpx:TrackPointExtension xmlns:gpxtpx="http://www.garmin.com/xmlschemas/TrackPointExtension/v1">
            <gpxtpx:hr>113</gpxtpx:hr>
          </gpxtpx:TrackPointExtension>
        </extensions>
      </trkpt>
      <trkpt lat="50.49126" lon="2.56204">
        <ele>65.8</ele>
        <time>2021-06-24T15:41:21Z</time>
        <extensions>
          <gpxtpx:TrackPointExtension xmlns:gpxtpx="http://www.garmin.com/xmlschemas/TrackPointExtension/v1">
            <gpxtpx:hr>113</gpxtpx:hr>
          </gpxtpx:TrackPointExtension>
        </extensions>
      </trkpt>
      <trkpt lat="50.49124" lon="2.562">
        <ele>65.8</ele>
        <time>2021-06-24T15:41:22Z</time>
        <extensions>
          <gpxtpx:TrackPointExtension xmlns:gpxtpx="http://www.garmin.com/xmlschemas/TrackPointExtension/v1">
            <gpxtpx:hr>114</gpxtpx:hr>
          </gpxtpx:TrackPointExtension>
        </extensions>
      </trkpt>
      <trkpt lat="50.49121" lon="2.56196">
        <ele>65.6</ele>
        <time>2021-06-24T15:41:23Z</time>
        <extensions>
          <gpxtpx:TrackPointExtension xmlns:gpxtpx="http://www.garmin.com/xmlschemas/TrackPointExtension/v1">
            <gpxtpx:hr>114</gpxtpx:hr>
          </gpxtpx:TrackPointExtension>
        </extensions>
      </trkpt>
      <trkpt lat="50.49118" lon="2.56192">
        <ele>65.6</ele>
        <time>2021-06-24T15:41:24Z</time>
        <extensions>
          <gpxtpx:TrackPointExtension xmlns:gpxtpx="http://www.garmin.com/xmlschemas/TrackPointExtension/v1">
            <gpxtpx:hr>114</gpxtpx:hr>
          </gpxtpx:TrackPointExtension>
        </extensions>
      </trkpt>
      <trkpt lat="50.49116" lon="2.56186">
        <ele>65.6</ele>
        <time>2021-06-24T15:41:25Z</time>
        <extensions>
          <gpxtpx:TrackPointExtension xmlns:gpxtpx="http://www.garmin.com/xmlschemas/TrackPointExtension/v1">
            <gpxtpx:hr>114</gpxtpx:hr>
          </gpxtpx:TrackPointExtension>
        </extensions>
      </trkpt>
      <trkpt lat="50.49114" lon="2.56183">
        <ele>65.6</ele>
        <time>2021-06-24T15:41:26Z</time>
        <extensions>
          <gpxtpx:TrackPointExtension xmlns:gpxtpx="http://www.garmin.com/xmlschemas/TrackPointExtension/v1">
            <gpxtpx:hr>114</gpxtpx:hr>
          </gpxtpx:TrackPointExtension>
        </extensions>
      </trkpt>
      <trkpt lat="50.49112" lon="2.56179">
        <ele>65.6</ele>
        <time>2021-06-24T15:41:27Z</time>
        <extensions>
          <gpxtpx:TrackPointExtension xmlns:gpxtpx="http://www.garmin.com/xmlschemas/TrackPointExtension/v1">
            <gpxtpx:hr>115</gpxtpx:hr>
          </gpxtpx:TrackPointExtension>
        </extensions>
      </trkpt>
      <trkpt lat="50.49109" lon="2.56174">
        <ele>65.6</ele>
        <time>2021-06-24T15:41:28Z</time>
        <extensions>
          <gpxtpx:TrackPointExtension xmlns:gpxtpx="http://www.garmin.com/xmlschemas/TrackPointExtension/v1">
            <gpxtpx:hr>115</gpxtpx:hr>
          </gpxtpx:TrackPointExtension>
        </extensions>
      </trkpt>
      <trkpt lat="50.49106" lon="2.5617">
        <ele>65.6</ele>
        <time>2021-06-24T15:41:29Z</time>
        <extensions>
          <gpxtpx:TrackPointExtension xmlns:gpxtpx="http://www.garmin.com/xmlschemas/TrackPointExtension/v1">
            <gpxtpx:hr>116</gpxtpx:hr>
          </gpxtpx:TrackPointExtension>
        </extensions>
      </trkpt>
      <trkpt lat="50.49104" lon="2.56166">
        <ele>65.6</ele>
        <time>2021-06-24T15:41:30Z</time>
        <extensions>
          <gpxtpx:TrackPointExtension xmlns:gpxtpx="http://www.garmin.com/xmlschemas/TrackPointExtension/v1">
            <gpxtpx:hr>116</gpxtpx:hr>
          </gpxtpx:TrackPointExtension>
        </extensions>
      </trkpt>
      <trkpt lat="50.491" lon="2.56161">
        <ele>65.6</ele>
        <time>2021-06-24T15:41:31Z</time>
        <extensions>
          <gpxtpx:TrackPointExtension xmlns:gpxtpx="http://www.garmin.com/xmlschemas/TrackPointExtension/v1">
            <gpxtpx:hr>117</gpxtpx:hr>
          </gpxtpx:TrackPointExtension>
        </extensions>
      </trkpt>
      <trkpt lat="50.49097" lon="2.56157">
        <ele>65.6</ele>
        <time>2021-06-24T15:41:32Z</time>
        <extensions>
          <gpxtpx:TrackPointExtension xmlns:gpxtpx="http://www.garmin.com/xmlschemas/TrackPointExtension/v1">
            <gpxtpx:hr>117</gpxtpx:hr>
          </gpxtpx:TrackPointExtension>
        </extensions>
      </trkpt>
      <trkpt lat="50.49094" lon="2.56152">
        <ele>65.6</ele>
        <time>2021-06-24T15:41:33Z</time>
        <extensions>
          <gpxtpx:TrackPointExtension xmlns:gpxtpx="http://www.garmin.com/xmlschemas/TrackPointExtension/v1">
            <gpxtpx:hr>118</gpxtpx:hr>
          </gpxtpx:TrackPointExtension>
        </extensions>
      </trkpt>
      <trkpt lat="50.49091" lon="2.56148">
        <ele>65.6</ele>
        <time>2021-06-24T15:41:34Z</time>
        <extensions>
          <gpxtpx:TrackPointExtension xmlns:gpxtpx="http://www.garmin.com/xmlschemas/TrackPointExtension/v1">
            <gpxtpx:hr>118</gpxtpx:hr>
          </gpxtpx:TrackPointExtension>
        </extensions>
      </trkpt>
      <trkpt lat="50.49089" lon="2.56144">
        <ele>65.6</ele>
        <time>2021-06-24T15:41:35Z</time>
        <extensions>
          <gpxtpx:TrackPointExtension xmlns:gpxtpx="http://www.garmin.com/xmlschemas/TrackPointExtension/v1">
            <gpxtpx:hr>119</gpxtpx:hr>
          </gpxtpx:TrackPointExtension>
        </extensions>
      </trkpt>
      <trkpt lat="50.49086" lon="2.56139">
        <ele>65.4</ele>
        <time>2021-06-24T15:41:36Z</time>
        <extensions>
          <gpxtpx:TrackPointExtension xmlns:gpxtpx="http://www.garmin.com/xmlschemas/TrackPointExtension/v1">
            <gpxtpx:hr>119</gpxtpx:hr>
          </gpxtpx:TrackPointExtension>
        </extensions>
      </trkpt>
      <trkpt lat="50.49083" lon="2.56135">
        <ele>65.4</ele>
        <time>2021-06-24T15:41:37Z</time>
        <extensions>
          <gpxtpx:TrackPointExtension xmlns:gpxtpx="http://www.garmin.com/xmlschemas/TrackPointExtension/v1">
            <gpxtpx:hr>119</gpxtpx:hr>
          </gpxtpx:TrackPointExtension>
        </extensions>
      </trkpt>
      <trkpt lat="50.49079" lon="2.5613">
        <ele>65.4</ele>
        <time>2021-06-24T15:41:38Z</time>
        <extensions>
          <gpxtpx:TrackPointExtension xmlns:gpxtpx="http://www.garmin.com/xmlschemas/TrackPointExtension/v1">
            <gpxtpx:hr>120</gpxtpx:hr>
          </gpxtpx:TrackPointExtension>
        </extensions>
      </trkpt>
      <trkpt lat="50.49076" lon="2.56126">
        <ele>65.4</ele>
        <time>2021-06-24T15:41:39Z</time>
        <extensions>
          <gpxtpx:TrackPointExtension xmlns:gpxtpx="http://www.garmin.com/xmlschemas/TrackPointExtension/v1">
            <gpxtpx:hr>120</gpxtpx:hr>
          </gpxtpx:TrackPointExtension>
        </extensions>
      </trkpt>
      <trkpt lat="50.49073" lon="2.56121">
        <ele>65.4</ele>
        <time>2021-06-24T15:41:40Z</time>
        <extensions>
          <gpxtpx:TrackPointExtension xmlns:gpxtpx="http://www.garmin.com/xmlschemas/TrackPointExtension/v1">
            <gpxtpx:hr>120</gpxtpx:hr>
          </gpxtpx:TrackPointExtension>
        </extensions>
      </trkpt>
      <trkpt lat="50.49071" lon="2.56116">
        <ele>65.2</ele>
        <time>2021-06-24T15:41:41Z</time>
        <extensions>
          <gpxtpx:TrackPointExtension xmlns:gpxtpx="http://www.garmin.com/xmlschemas/TrackPointExtension/v1">
            <gpxtpx:hr>121</gpxtpx:hr>
          </gpxtpx:TrackPointExtension>
        </extensions>
      </trkpt>
      <trkpt lat="50.49071" lon="2.56111">
        <ele>65.4</ele>
        <time>2021-06-24T15:41:42Z</time>
        <extensions>
          <gpxtpx:TrackPointExtension xmlns:gpxtpx="http://www.garmin.com/xmlschemas/TrackPointExtension/v1">
            <gpxtpx:hr>121</gpxtpx:hr>
          </gpxtpx:TrackPointExtension>
        </extensions>
      </trkpt>
      <trkpt lat="50.49072" lon="2.56106">
        <ele>65.4</ele>
        <time>2021-06-24T15:41:43Z</time>
        <extensions>
          <gpxtpx:TrackPointExtension xmlns:gpxtpx="http://www.garmin.com/xmlschemas/TrackPointExtension/v1">
            <gpxtpx:hr>122</gpxtpx:hr>
          </gpxtpx:TrackPointExtension>
        </extensions>
      </trkpt>
      <trkpt lat="50.49074" lon="2.56101">
        <ele>65.4</ele>
        <time>2021-06-24T15:41:44Z</time>
        <extensions>
          <gpxtpx:TrackPointExtension xmlns:gpxtpx="http://www.garmin.com/xmlschemas/TrackPointExtension/v1">
            <gpxtpx:hr>122</gpxtpx:hr>
          </gpxtpx:TrackPointExtension>
        </extensions>
      </trkpt>
      <trkpt lat="50.49076" lon="2.56097">
        <ele>65.4</ele>
        <time>2021-06-24T15:41:45Z</time>
        <extensions>
          <gpxtpx:TrackPointExtension xmlns:gpxtpx="http://www.garmin.com/xmlschemas/TrackPointExtension/v1">
            <gpxtpx:hr>122</gpxtpx:hr>
          </gpxtpx:TrackPointExtension>
        </extensions>
      </trkpt>
      <trkpt lat="50.49078" lon="2.56092">
        <ele>65.4</ele>
        <time>2021-06-24T15:41:46Z</time>
        <extensions>
          <gpxtpx:TrackPointExtension xmlns:gpxtpx="http://www.garmin.com/xmlschemas/TrackPointExtension/v1">
            <gpxtpx:hr>123</gpxtpx:hr>
          </gpxtpx:TrackPointExtension>
        </extensions>
      </trkpt>
      <trkpt lat="50.4908" lon="2.56089">
        <ele>65.4</ele>
        <time>2021-06-24T15:41:47Z</time>
        <extensions>
          <gpxtpx:TrackPointExtension xmlns:gpxtpx="http://www.garmin.com/xmlschemas/TrackPointExtension/v1">
            <gpxtpx:hr>123</gpxtpx:hr>
          </gpxtpx:TrackPointExtension>
        </extensions>
      </trkpt>
      <trkpt lat="50.49083" lon="2.56085">
        <ele>65.4</ele>
        <time>2021-06-24T15:41:48Z</time>
        <extensions>
          <gpxtpx:TrackPointExtension xmlns:gpxtpx="http://www.garmin.com/xmlschemas/TrackPointExtension/v1">
            <gpxtpx:hr>123</gpxtpx:hr>
          </gpxtpx:TrackPointExtension>
        </extensions>
      </trkpt>
      <trkpt lat="50.49085" lon="2.56081">
        <ele>65.4</ele>
        <time>2021-06-24T15:41:49Z</time>
        <extensions>
          <gpxtpx:TrackPointExtension xmlns:gpxtpx="http://www.garmin.com/xmlschemas/TrackPointExtension/v1">
            <gpxtpx:hr>124</gpxtpx:hr>
          </gpxtpx:TrackPointExtension>
        </extensions>
      </trkpt>
      <trkpt lat="50.49087" lon="2.56076">
        <ele>65.4</ele>
        <time>2021-06-24T15:41:50Z</time>
        <extensions>
          <gpxtpx:TrackPointExtension xmlns:gpxtpx="http://www.garmin.com/xmlschemas/TrackPointExtension/v1">
            <gpxtpx:hr>124</gpxtpx:hr>
          </gpxtpx:TrackPointExtension>
        </extensions>
      </trkpt>
      <trkpt lat="50.4909" lon="2.56071">
        <ele>65.4</ele>
        <time>2021-06-24T15:41:51Z</time>
        <extensions>
          <gpxtpx:TrackPointExtension xmlns:gpxtpx="http://www.garmin.com/xmlschemas/TrackPointExtension/v1">
            <gpxtpx:hr>124</gpxtpx:hr>
          </gpxtpx:TrackPointExtension>
        </extensions>
      </trkpt>
      <trkpt lat="50.49094" lon="2.56067">
        <ele>65.4</ele>
        <time>2021-06-24T15:41:52Z</time>
        <extensions>
          <gpxtpx:TrackPointExtension xmlns:gpxtpx="http://www.garmin.com/xmlschemas/TrackPointExtension/v1">
            <gpxtpx:hr>124</gpxtpx:hr>
          </gpxtpx:TrackPointExtension>
        </extensions>
      </trkpt>
      <trkpt lat="50.49096" lon="2.56063">
        <ele>65.2</ele>
        <time>2021-06-24T15:41:53Z</time>
        <extensions>
          <gpxtpx:TrackPointExtension xmlns:gpxtpx="http://www.garmin.com/xmlschemas/TrackPointExtension/v1">
            <gpxtpx:hr>124</gpxtpx:hr>
          </gpxtpx:TrackPointExtension>
        </extensions>
      </trkpt>
      <trkpt lat="50.49099" lon="2.56059">
        <ele>65.2</ele>
        <time>2021-06-24T15:41:54Z</time>
        <extensions>
          <gpxtpx:TrackPointExtension xmlns:gpxtpx="http://www.garmin.com/xmlschemas/TrackPointExtension/v1">
            <gpxtpx:hr>124</gpxtpx:hr>
          </gpxtpx:TrackPointExtension>
        </extensions>
      </trkpt>
      <trkpt lat="50.49101" lon="2.56055">
        <ele>65.2</ele>
        <time>2021-06-24T15:41:55Z</time>
        <extensions>
          <gpxtpx:TrackPointExtension xmlns:gpxtpx="http://www.garmin.com/xmlschemas/TrackPointExtension/v1">
            <gpxtpx:hr>124</gpxtpx:hr>
          </gpxtpx:TrackPointExtension>
        </extensions>
      </trkpt>
      <trkpt lat="50.49103" lon="2.56052">
        <ele>65.4</ele>
        <time>2021-06-24T15:41:56Z</time>
        <extensions>
          <gpxtpx:TrackPointExtension xmlns:gpxtpx="http://www.garmin.com/xmlschemas/TrackPointExtension/v1">
            <gpxtpx:hr>124</gpxtpx:hr>
          </gpxtpx:TrackPointExtension>
        </extensions>
      </trkpt>
      <trkpt lat="50.49105" lon="2.56048">
        <ele>65.4</ele>
        <time>2021-06-24T15:41:57Z</time>
        <extensions>
          <gpxtpx:TrackPointExtension xmlns:gpxtpx="http://www.garmin.com/xmlschemas/TrackPointExtension/v1">
            <gpxtpx:hr>124</gpxtpx:hr>
          </gpxtpx:TrackPointExtension>
        </extensions>
      </trkpt>
      <trkpt lat="50.49106" lon="2.56045">
        <ele>65.4</ele>
        <time>2021-06-24T15:41:58Z</time>
        <extensions>
          <gpxtpx:TrackPointExtension xmlns:gpxtpx="http://www.garmin.com/xmlschemas/TrackPointExtension/v1">
            <gpxtpx:hr>125</gpxtpx:hr>
          </gpxtpx:TrackPointExtension>
        </extensions>
      </trkpt>
      <trkpt lat="50.49108" lon="2.56042">
        <ele>65.4</ele>
        <time>2021-06-24T15:41:59Z</time>
        <extensions>
          <gpxtpx:TrackPointExtension xmlns:gpxtpx="http://www.garmin.com/xmlschemas/TrackPointExtension/v1">
            <gpxtpx:hr>125</gpxtpx:hr>
          </gpxtpx:TrackPointExtension>
        </extensions>
      </trkpt>
      <trkpt lat="50.4911" lon="2.56038">
        <ele>65.4</ele>
        <time>2021-06-24T15:42:00Z</time>
        <extensions>
          <gpxtpx:TrackPointExtension xmlns:gpxtpx="http://www.garmin.com/xmlschemas/TrackPointExtension/v1">
            <gpxtpx:hr>125</gpxtpx:hr>
          </gpxtpx:TrackPointExtension>
        </extensions>
      </trkpt>
      <trkpt lat="50.49111" lon="2.56036">
        <ele>65.4</ele>
        <time>2021-06-24T15:42:01Z</time>
        <extensions>
          <gpxtpx:TrackPointExtension xmlns:gpxtpx="http://www.garmin.com/xmlschemas/TrackPointExtension/v1">
            <gpxtpx:hr>126</gpxtpx:hr>
          </gpxtpx:TrackPointExtension>
        </extensions>
      </trkpt>
      <trkpt lat="50.49113" lon="2.56033">
        <ele>65.6</ele>
        <time>2021-06-24T15:42:02Z</time>
        <extensions>
          <gpxtpx:TrackPointExtension xmlns:gpxtpx="http://www.garmin.com/xmlschemas/TrackPointExtension/v1">
            <gpxtpx:hr>126</gpxtpx:hr>
          </gpxtpx:TrackPointExtension>
        </extensions>
      </trkpt>
      <trkpt lat="50.49116" lon="2.56031">
        <ele>65.6</ele>
        <time>2021-06-24T15:42:03Z</time>
        <extensions>
          <gpxtpx:TrackPointExtension xmlns:gpxtpx="http://www.garmin.com/xmlschemas/TrackPointExtension/v1">
            <gpxtpx:hr>127</gpxtpx:hr>
          </gpxtpx:TrackPointExtension>
        </extensions>
      </trkpt>
      <trkpt lat="50.49118" lon="2.56028">
        <ele>65.6</ele>
        <time>2021-06-24T15:42:04Z</time>
        <extensions>
          <gpxtpx:TrackPointExtension xmlns:gpxtpx="http://www.garmin.com/xmlschemas/TrackPointExtension/v1">
            <gpxtpx:hr>127</gpxtpx:hr>
          </gpxtpx:TrackPointExtension>
        </extensions>
      </trkpt>
      <trkpt lat="50.4912" lon="2.56024">
        <ele>65.8</ele>
        <time>2021-06-24T15:42:05Z</time>
        <extensions>
          <gpxtpx:TrackPointExtension xmlns:gpxtpx="http://www.garmin.com/xmlschemas/TrackPointExtension/v1">
            <gpxtpx:hr>127</gpxtpx:hr>
          </gpxtpx:TrackPointExtension>
        </extensions>
      </trkpt>
      <trkpt lat="50.49122" lon="2.56021">
        <ele>65.8</ele>
        <time>2021-06-24T15:42:06Z</time>
        <extensions>
          <gpxtpx:TrackPointExtension xmlns:gpxtpx="http://www.garmin.com/xmlschemas/TrackPointExtension/v1">
            <gpxtpx:hr>127</gpxtpx:hr>
          </gpxtpx:TrackPointExtension>
        </extensions>
      </trkpt>
      <trkpt lat="50.49124" lon="2.56018">
        <ele>66</ele>
        <time>2021-06-24T15:42:07Z</time>
        <extensions>
          <gpxtpx:TrackPointExtension xmlns:gpxtpx="http://www.garmin.com/xmlschemas/TrackPointExtension/v1">
            <gpxtpx:hr>128</gpxtpx:hr>
          </gpxtpx:TrackPointExtension>
        </extensions>
      </trkpt>
      <trkpt lat="50.49126" lon="2.56014">
        <ele>66.2</ele>
        <time>2021-06-24T15:42:08Z</time>
        <extensions>
          <gpxtpx:TrackPointExtension xmlns:gpxtpx="http://www.garmin.com/xmlschemas/TrackPointExtension/v1">
            <gpxtpx:hr>128</gpxtpx:hr>
          </gpxtpx:TrackPointExtension>
        </extensions>
      </trkpt>
      <trkpt lat="50.49128" lon="2.56011">
        <ele>66.2</ele>
        <time>2021-06-24T15:42:09Z</time>
        <extensions>
          <gpxtpx:TrackPointExtension xmlns:gpxtpx="http://www.garmin.com/xmlschemas/TrackPointExtension/v1">
            <gpxtpx:hr>128</gpxtpx:hr>
          </gpxtpx:TrackPointExtension>
        </extensions>
      </trkpt>
      <trkpt lat="50.49128" lon="2.56009">
        <ele>66.4</ele>
        <time>2021-06-24T15:42:10Z</time>
        <extensions>
          <gpxtpx:TrackPointExtension xmlns:gpxtpx="http://www.garmin.com/xmlschemas/TrackPointExtension/v1">
            <gpxtpx:hr>128</gpxtpx:hr>
          </gpxtpx:TrackPointExtension>
        </extensions>
      </trkpt>
      <trkpt lat="50.49128" lon="2.56006">
        <ele>66.4</ele>
        <time>2021-06-24T15:42:11Z</time>
        <extensions>
          <gpxtpx:TrackPointExtension xmlns:gpxtpx="http://www.garmin.com/xmlschemas/TrackPointExtension/v1">
            <gpxtpx:hr>129</gpxtpx:hr>
          </gpxtpx:TrackPointExtension>
        </extensions>
      </trkpt>
      <trkpt lat="50.49128" lon="2.56005">
        <ele>66.6</ele>
        <time>2021-06-24T15:42:12Z</time>
        <extensions>
          <gpxtpx:TrackPointExtension xmlns:gpxtpx="http://www.garmin.com/xmlschemas/TrackPointExtension/v1">
            <gpxtpx:hr>129</gpxtpx:hr>
          </gpxtpx:TrackPointExtension>
        </extensions>
      </trkpt>
      <trkpt lat="50.49128" lon="2.56002">
        <ele>66.8</ele>
        <time>2021-06-24T15:42:13Z</time>
        <extensions>
          <gpxtpx:TrackPointExtension xmlns:gpxtpx="http://www.garmin.com/xmlschemas/TrackPointExtension/v1">
            <gpxtpx:hr>129</gpxtpx:hr>
          </gpxtpx:TrackPointExtension>
        </extensions>
      </trkpt>
      <trkpt lat="50.49127" lon="2.55999">
        <ele>67</ele>
        <time>2021-06-24T15:42:14Z</time>
        <extensions>
          <gpxtpx:TrackPointExtension xmlns:gpxtpx="http://www.garmin.com/xmlschemas/TrackPointExtension/v1">
            <gpxtpx:hr>130</gpxtpx:hr>
          </gpxtpx:TrackPointExtension>
        </extensions>
      </trkpt>
      <trkpt lat="50.49124" lon="2.55995">
        <ele>67</ele>
        <time>2021-06-24T15:42:15Z</time>
        <extensions>
          <gpxtpx:TrackPointExtension xmlns:gpxtpx="http://www.garmin.com/xmlschemas/TrackPointExtension/v1">
            <gpxtpx:hr>130</gpxtpx:hr>
          </gpxtpx:TrackPointExtension>
        </extensions>
      </trkpt>
      <trkpt lat="50.49123" lon="2.55992">
        <ele>67.2</ele>
        <time>2021-06-24T15:42:16Z</time>
        <extensions>
          <gpxtpx:TrackPointExtension xmlns:gpxtpx="http://www.garmin.com/xmlschemas/TrackPointExtension/v1">
            <gpxtpx:hr>130</gpxtpx:hr>
          </gpxtpx:TrackPointExtension>
        </extensions>
      </trkpt>
      <trkpt lat="50.49121" lon="2.55989">
        <ele>67.2</ele>
        <time>2021-06-24T15:42:17Z</time>
        <extensions>
          <gpxtpx:TrackPointExtension xmlns:gpxtpx="http://www.garmin.com/xmlschemas/TrackPointExtension/v1">
            <gpxtpx:hr>131</gpxtpx:hr>
          </gpxtpx:TrackPointExtension>
        </extensions>
      </trkpt>
      <trkpt lat="50.4912" lon="2.55985">
        <ele>67.4</ele>
        <time>2021-06-24T15:42:18Z</time>
        <extensions>
          <gpxtpx:TrackPointExtension xmlns:gpxtpx="http://www.garmin.com/xmlschemas/TrackPointExtension/v1">
            <gpxtpx:hr>131</gpxtpx:hr>
          </gpxtpx:TrackPointExtension>
        </extensions>
      </trkpt>
      <trkpt lat="50.4912" lon="2.55982">
        <ele>67.4</ele>
        <time>2021-06-24T15:42:19Z</time>
        <extensions>
          <gpxtpx:TrackPointExtension xmlns:gpxtpx="http://www.garmin.com/xmlschemas/TrackPointExtension/v1">
            <gpxtpx:hr>131</gpxtpx:hr>
          </gpxtpx:TrackPointExtension>
        </extensions>
      </trkpt>
      <trkpt lat="50.49119" lon="2.55979">
        <ele>67.6</ele>
        <time>2021-06-24T15:42:20Z</time>
        <extensions>
          <gpxtpx:TrackPointExtension xmlns:gpxtpx="http://www.garmin.com/xmlschemas/TrackPointExtension/v1">
            <gpxtpx:hr>131</gpxtpx:hr>
          </gpxtpx:TrackPointExtension>
        </extensions>
      </trkpt>
      <trkpt lat="50.49118" lon="2.55976">
        <ele>67.6</ele>
        <time>2021-06-24T15:42:21Z</time>
        <extensions>
          <gpxtpx:TrackPointExtension xmlns:gpxtpx="http://www.garmin.com/xmlschemas/TrackPointExtension/v1">
            <gpxtpx:hr>132</gpxtpx:hr>
          </gpxtpx:TrackPointExtension>
        </extensions>
      </trkpt>
      <trkpt lat="50.49116" lon="2.55974">
        <ele>67.6</ele>
        <time>2021-06-24T15:42:22Z</time>
        <extensions>
          <gpxtpx:TrackPointExtension xmlns:gpxtpx="http://www.garmin.com/xmlschemas/TrackPointExtension/v1">
            <gpxtpx:hr>132</gpxtpx:hr>
          </gpxtpx:TrackPointExtension>
        </extensions>
      </trkpt>
      <trkpt lat="50.49115" lon="2.55972">
        <ele>67.8</ele>
        <time>2021-06-24T15:42:23Z</time>
        <extensions>
          <gpxtpx:TrackPointExtension xmlns:gpxtpx="http://www.garmin.com/xmlschemas/TrackPointExtension/v1">
            <gpxtpx:hr>132</gpxtpx:hr>
          </gpxtpx:TrackPointExtension>
        </extensions>
      </trkpt>
      <trkpt lat="50.49113" lon="2.55969">
        <ele>67.8</ele>
        <time>2021-06-24T15:42:24Z</time>
        <extensions>
          <gpxtpx:TrackPointExtension xmlns:gpxtpx="http://www.garmin.com/xmlschemas/TrackPointExtension/v1">
            <gpxtpx:hr>132</gpxtpx:hr>
          </gpxtpx:TrackPointExtension>
        </extensions>
      </trkpt>
      <trkpt lat="50.49111" lon="2.55966">
        <ele>68</ele>
        <time>2021-06-24T15:42:25Z</time>
        <extensions>
          <gpxtpx:TrackPointExtension xmlns:gpxtpx="http://www.garmin.com/xmlschemas/TrackPointExtension/v1">
            <gpxtpx:hr>132</gpxtpx:hr>
          </gpxtpx:TrackPointExtension>
        </extensions>
      </trkpt>
      <trkpt lat="50.49109" lon="2.55963">
        <ele>68</ele>
        <time>2021-06-24T15:42:26Z</time>
        <extensions>
          <gpxtpx:TrackPointExtension xmlns:gpxtpx="http://www.garmin.com/xmlschemas/TrackPointExtension/v1">
            <gpxtpx:hr>132</gpxtpx:hr>
          </gpxtpx:TrackPointExtension>
        </extensions>
      </trkpt>
      <trkpt lat="50.49108" lon="2.55961">
        <ele>68.2</ele>
        <time>2021-06-24T15:42:27Z</time>
        <extensions>
          <gpxtpx:TrackPointExtension xmlns:gpxtpx="http://www.garmin.com/xmlschemas/TrackPointExtension/v1">
            <gpxtpx:hr>131</gpxtpx:hr>
          </gpxtpx:TrackPointExtension>
        </extensions>
      </trkpt>
      <trkpt lat="50.49106" lon="2.5596">
        <ele>68.4</ele>
        <time>2021-06-24T15:42:28Z</time>
        <extensions>
          <gpxtpx:TrackPointExtension xmlns:gpxtpx="http://www.garmin.com/xmlschemas/TrackPointExtension/v1">
            <gpxtpx:hr>131</gpxtpx:hr>
          </gpxtpx:TrackPointExtension>
        </extensions>
      </trkpt>
      <trkpt lat="50.49104" lon="2.55957">
        <ele>68.6</ele>
        <time>2021-06-24T15:42:29Z</time>
        <extensions>
          <gpxtpx:TrackPointExtension xmlns:gpxtpx="http://www.garmin.com/xmlschemas/TrackPointExtension/v1">
            <gpxtpx:hr>131</gpxtpx:hr>
          </gpxtpx:TrackPointExtension>
        </extensions>
      </trkpt>
      <trkpt lat="50.49102" lon="2.55955">
        <ele>68.8</ele>
        <time>2021-06-24T15:42:30Z</time>
        <extensions>
          <gpxtpx:TrackPointExtension xmlns:gpxtpx="http://www.garmin.com/xmlschemas/TrackPointExtension/v1">
            <gpxtpx:hr>131</gpxtpx:hr>
          </gpxtpx:TrackPointExtension>
        </extensions>
      </trkpt>
      <trkpt lat="50.49101" lon="2.55953">
        <ele>68.8</ele>
        <time>2021-06-24T15:42:31Z</time>
        <extensions>
          <gpxtpx:TrackPointExtension xmlns:gpxtpx="http://www.garmin.com/xmlschemas/TrackPointExtension/v1">
            <gpxtpx:hr>131</gpxtpx:hr>
          </gpxtpx:TrackPointExtension>
        </extensions>
      </trkpt>
      <trkpt lat="50.49099" lon="2.5595">
        <ele>69</ele>
        <time>2021-06-24T15:42:32Z</time>
        <extensions>
          <gpxtpx:TrackPointExtension xmlns:gpxtpx="http://www.garmin.com/xmlschemas/TrackPointExtension/v1">
            <gpxtpx:hr>131</gpxtpx:hr>
          </gpxtpx:TrackPointExtension>
        </extensions>
      </trkpt>
      <trkpt lat="50.49097" lon="2.55947">
        <ele>69.2</ele>
        <time>2021-06-24T15:42:33Z</time>
        <extensions>
          <gpxtpx:TrackPointExtension xmlns:gpxtpx="http://www.garmin.com/xmlschemas/TrackPointExtension/v1">
            <gpxtpx:hr>131</gpxtpx:hr>
          </gpxtpx:TrackPointExtension>
        </extensions>
      </trkpt>
      <trkpt lat="50.49094" lon="2.55943">
        <ele>69.2</ele>
        <time>2021-06-24T15:42:34Z</time>
        <extensions>
          <gpxtpx:TrackPointExtension xmlns:gpxtpx="http://www.garmin.com/xmlschemas/TrackPointExtension/v1">
            <gpxtpx:hr>131</gpxtpx:hr>
          </gpxtpx:TrackPointExtension>
        </extensions>
      </trkpt>
      <trkpt lat="50.49092" lon="2.55939">
        <ele>69.4</ele>
        <time>2021-06-24T15:42:35Z</time>
        <extensions>
          <gpxtpx:TrackPointExtension xmlns:gpxtpx="http://www.garmin.com/xmlschemas/TrackPointExtension/v1">
            <gpxtpx:hr>131</gpxtpx:hr>
          </gpxtpx:TrackPointExtension>
        </extensions>
      </trkpt>
      <trkpt lat="50.49089" lon="2.55935">
        <ele>69.6</ele>
        <time>2021-06-24T15:42:36Z</time>
        <extensions>
          <gpxtpx:TrackPointExtension xmlns:gpxtpx="http://www.garmin.com/xmlschemas/TrackPointExtension/v1">
            <gpxtpx:hr>131</gpxtpx:hr>
          </gpxtpx:TrackPointExtension>
        </extensions>
      </trkpt>
      <trkpt lat="50.49086" lon="2.55931">
        <ele>69.6</ele>
        <time>2021-06-24T15:42:37Z</time>
        <extensions>
          <gpxtpx:TrackPointExtension xmlns:gpxtpx="http://www.garmin.com/xmlschemas/TrackPointExtension/v1">
            <gpxtpx:hr>131</gpxtpx:hr>
          </gpxtpx:TrackPointExtension>
        </extensions>
      </trkpt>
      <trkpt lat="50.49085" lon="2.55927">
        <ele>69.8</ele>
        <time>2021-06-24T15:42:38Z</time>
        <extensions>
          <gpxtpx:TrackPointExtension xmlns:gpxtpx="http://www.garmin.com/xmlschemas/TrackPointExtension/v1">
            <gpxtpx:hr>130</gpxtpx:hr>
          </gpxtpx:TrackPointExtension>
        </extensions>
      </trkpt>
      <trkpt lat="50.4908" lon="2.55919">
        <ele>70</ele>
        <time>2021-06-24T15:42:40Z</time>
        <extensions>
          <gpxtpx:TrackPointExtension xmlns:gpxtpx="http://www.garmin.com/xmlschemas/TrackPointExtension/v1">
            <gpxtpx:hr>130</gpxtpx:hr>
          </gpxtpx:TrackPointExtension>
        </extensions>
      </trkpt>
      <trkpt lat="50.49079" lon="2.55916">
        <ele>70</ele>
        <time>2021-06-24T15:42:41Z</time>
        <extensions>
          <gpxtpx:TrackPointExtension xmlns:gpxtpx="http://www.garmin.com/xmlschemas/TrackPointExtension/v1">
            <gpxtpx:hr>130</gpxtpx:hr>
          </gpxtpx:TrackPointExtension>
        </extensions>
      </trkpt>
      <trkpt lat="50.49076" lon="2.55912">
        <ele>70.2</ele>
        <time>2021-06-24T15:42:42Z</time>
        <extensions>
          <gpxtpx:TrackPointExtension xmlns:gpxtpx="http://www.garmin.com/xmlschemas/TrackPointExtension/v1">
            <gpxtpx:hr>130</gpxtpx:hr>
          </gpxtpx:TrackPointExtension>
        </extensions>
      </trkpt>
      <trkpt lat="50.49073" lon="2.55908">
        <ele>70.2</ele>
        <time>2021-06-24T15:42:43Z</time>
        <extensions>
          <gpxtpx:TrackPointExtension xmlns:gpxtpx="http://www.garmin.com/xmlschemas/TrackPointExtension/v1">
            <gpxtpx:hr>131</gpxtpx:hr>
          </gpxtpx:TrackPointExtension>
        </extensions>
      </trkpt>
      <trkpt lat="50.49071" lon="2.55904">
        <ele>70.4</ele>
        <time>2021-06-24T15:42:44Z</time>
        <extensions>
          <gpxtpx:TrackPointExtension xmlns:gpxtpx="http://www.garmin.com/xmlschemas/TrackPointExtension/v1">
            <gpxtpx:hr>131</gpxtpx:hr>
          </gpxtpx:TrackPointExtension>
        </extensions>
      </trkpt>
      <trkpt lat="50.49069" lon="2.55899">
        <ele>70.4</ele>
        <time>2021-06-24T15:42:45Z</time>
        <extensions>
          <gpxtpx:TrackPointExtension xmlns:gpxtpx="http://www.garmin.com/xmlschemas/TrackPointExtension/v1">
            <gpxtpx:hr>132</gpxtpx:hr>
          </gpxtpx:TrackPointExtension>
        </extensions>
      </trkpt>
      <trkpt lat="50.49067" lon="2.55893">
        <ele>70.4</ele>
        <time>2021-06-24T15:42:46Z</time>
        <extensions>
          <gpxtpx:TrackPointExtension xmlns:gpxtpx="http://www.garmin.com/xmlschemas/TrackPointExtension/v1">
            <gpxtpx:hr>132</gpxtpx:hr>
          </gpxtpx:TrackPointExtension>
        </extensions>
      </trkpt>
      <trkpt lat="50.49065" lon="2.55889">
        <ele>70.6</ele>
        <time>2021-06-24T15:42:47Z</time>
        <extensions>
          <gpxtpx:TrackPointExtension xmlns:gpxtpx="http://www.garmin.com/xmlschemas/TrackPointExtension/v1">
            <gpxtpx:hr>132</gpxtpx:hr>
          </gpxtpx:TrackPointExtension>
        </extensions>
      </trkpt>
      <trkpt lat="50.49063" lon="2.55885">
        <ele>70.6</ele>
        <time>2021-06-24T15:42:48Z</time>
        <extensions>
          <gpxtpx:TrackPointExtension xmlns:gpxtpx="http://www.garmin.com/xmlschemas/TrackPointExtension/v1">
            <gpxtpx:hr>132</gpxtpx:hr>
          </gpxtpx:TrackPointExtension>
        </extensions>
      </trkpt>
      <trkpt lat="50.4906" lon="2.55881">
        <ele>70.8</ele>
        <time>2021-06-24T15:42:49Z</time>
        <extensions>
          <gpxtpx:TrackPointExtension xmlns:gpxtpx="http://www.garmin.com/xmlschemas/TrackPointExtension/v1">
            <gpxtpx:hr>132</gpxtpx:hr>
          </gpxtpx:TrackPointExtension>
        </extensions>
      </trkpt>
      <trkpt lat="50.49059" lon="2.55878">
        <ele>70.8</ele>
        <time>2021-06-24T15:42:50Z</time>
        <extensions>
          <gpxtpx:TrackPointExtension xmlns:gpxtpx="http://www.garmin.com/xmlschemas/TrackPointExtension/v1">
            <gpxtpx:hr>132</gpxtpx:hr>
          </gpxtpx:TrackPointExtension>
        </extensions>
      </trkpt>
      <trkpt lat="50.49057" lon="2.55875">
        <ele>71</ele>
        <time>2021-06-24T15:42:51Z</time>
        <extensions>
          <gpxtpx:TrackPointExtension xmlns:gpxtpx="http://www.garmin.com/xmlschemas/TrackPointExtension/v1">
            <gpxtpx:hr>132</gpxtpx:hr>
          </gpxtpx:TrackPointExtension>
        </extensions>
      </trkpt>
      <trkpt lat="50.49055" lon="2.55873">
        <ele>71.2</ele>
        <time>2021-06-24T15:42:52Z</time>
        <extensions>
          <gpxtpx:TrackPointExtension xmlns:gpxtpx="http://www.garmin.com/xmlschemas/TrackPointExtension/v1">
            <gpxtpx:hr>131</gpxtpx:hr>
          </gpxtpx:TrackPointExtension>
        </extensions>
      </trkpt>
      <trkpt lat="50.49053" lon="2.55872">
        <ele>71.2</ele>
        <time>2021-06-24T15:42:53Z</time>
        <extensions>
          <gpxtpx:TrackPointExtension xmlns:gpxtpx="http://www.garmin.com/xmlschemas/TrackPointExtension/v1">
            <gpxtpx:hr>131</gpxtpx:hr>
          </gpxtpx:TrackPointExtension>
        </extensions>
      </trkpt>
      <trkpt lat="50.4905" lon="2.55868">
        <ele>71.4</ele>
        <time>2021-06-24T15:42:54Z</time>
        <extensions>
          <gpxtpx:TrackPointExtension xmlns:gpxtpx="http://www.garmin.com/xmlschemas/TrackPointExtension/v1">
            <gpxtpx:hr>130</gpxtpx:hr>
          </gpxtpx:TrackPointExtension>
        </extensions>
      </trkpt>
      <trkpt lat="50.49047" lon="2.55864">
        <ele>71.4</ele>
        <time>2021-06-24T15:42:55Z</time>
        <extensions>
          <gpxtpx:TrackPointExtension xmlns:gpxtpx="http://www.garmin.com/xmlschemas/TrackPointExtension/v1">
            <gpxtpx:hr>129</gpxtpx:hr>
          </gpxtpx:TrackPointExtension>
        </extensions>
      </trkpt>
      <trkpt lat="50.49044" lon="2.5586">
        <ele>71.6</ele>
        <time>2021-06-24T15:42:56Z</time>
        <extensions>
          <gpxtpx:TrackPointExtension xmlns:gpxtpx="http://www.garmin.com/xmlschemas/TrackPointExtension/v1">
            <gpxtpx:hr>129</gpxtpx:hr>
          </gpxtpx:TrackPointExtension>
        </extensions>
      </trkpt>
      <trkpt lat="50.49043" lon="2.55856">
        <ele>71.8</ele>
        <time>2021-06-24T15:42:57Z</time>
        <extensions>
          <gpxtpx:TrackPointExtension xmlns:gpxtpx="http://www.garmin.com/xmlschemas/TrackPointExtension/v1">
            <gpxtpx:hr>128</gpxtpx:hr>
          </gpxtpx:TrackPointExtension>
        </extensions>
      </trkpt>
      <trkpt lat="50.49043" lon="2.55852">
        <ele>71.8</ele>
        <time>2021-06-24T15:42:58Z</time>
        <extensions>
          <gpxtpx:TrackPointExtension xmlns:gpxtpx="http://www.garmin.com/xmlschemas/TrackPointExtension/v1">
            <gpxtpx:hr>127</gpxtpx:hr>
          </gpxtpx:TrackPointExtension>
        </extensions>
      </trkpt>
      <trkpt lat="50.49043" lon="2.55849">
        <ele>72</ele>
        <time>2021-06-24T15:42:59Z</time>
        <extensions>
          <gpxtpx:TrackPointExtension xmlns:gpxtpx="http://www.garmin.com/xmlschemas/TrackPointExtension/v1">
            <gpxtpx:hr>126</gpxtpx:hr>
          </gpxtpx:TrackPointExtension>
        </extensions>
      </trkpt>
      <trkpt lat="50.49044" lon="2.55845">
        <ele>72.2</ele>
        <time>2021-06-24T15:43:00Z</time>
        <extensions>
          <gpxtpx:TrackPointExtension xmlns:gpxtpx="http://www.garmin.com/xmlschemas/TrackPointExtension/v1">
            <gpxtpx:hr>126</gpxtpx:hr>
          </gpxtpx:TrackPointExtension>
        </extensions>
      </trkpt>
      <trkpt lat="50.49045" lon="2.55841">
        <ele>72.2</ele>
        <time>2021-06-24T15:43:01Z</time>
        <extensions>
          <gpxtpx:TrackPointExtension xmlns:gpxtpx="http://www.garmin.com/xmlschemas/TrackPointExtension/v1">
            <gpxtpx:hr>126</gpxtpx:hr>
          </gpxtpx:TrackPointExtension>
        </extensions>
      </trkpt>
      <trkpt lat="50.49046" lon="2.55839">
        <ele>72.4</ele>
        <time>2021-06-24T15:43:02Z</time>
        <extensions>
          <gpxtpx:TrackPointExtension xmlns:gpxtpx="http://www.garmin.com/xmlschemas/TrackPointExtension/v1">
            <gpxtpx:hr>126</gpxtpx:hr>
          </gpxtpx:TrackPointExtension>
        </extensions>
      </trkpt>
      <trkpt lat="50.49048" lon="2.55836">
        <ele>72.4</ele>
        <time>2021-06-24T15:43:03Z</time>
        <extensions>
          <gpxtpx:TrackPointExtension xmlns:gpxtpx="http://www.garmin.com/xmlschemas/TrackPointExtension/v1">
            <gpxtpx:hr>126</gpxtpx:hr>
          </gpxtpx:TrackPointExtension>
        </extensions>
      </trkpt>
      <trkpt lat="50.49049" lon="2.55834">
        <ele>72.6</ele>
        <time>2021-06-24T15:43:04Z</time>
        <extensions>
          <gpxtpx:TrackPointExtension xmlns:gpxtpx="http://www.garmin.com/xmlschemas/TrackPointExtension/v1">
            <gpxtpx:hr>127</gpxtpx:hr>
          </gpxtpx:TrackPointExtension>
        </extensions>
      </trkpt>
      <trkpt lat="50.49051" lon="2.55833">
        <ele>72.6</ele>
        <time>2021-06-24T15:43:05Z</time>
        <extensions>
          <gpxtpx:TrackPointExtension xmlns:gpxtpx="http://www.garmin.com/xmlschemas/TrackPointExtension/v1">
            <gpxtpx:hr>127</gpxtpx:hr>
          </gpxtpx:TrackPointExtension>
        </extensions>
      </trkpt>
      <trkpt lat="50.49052" lon="2.55832">
        <ele>72.6</ele>
        <time>2021-06-24T15:43:06Z</time>
        <extensions>
          <gpxtpx:TrackPointExtension xmlns:gpxtpx="http://www.garmin.com/xmlschemas/TrackPointExtension/v1">
            <gpxtpx:hr>127</gpxtpx:hr>
          </gpxtpx:TrackPointExtension>
        </extensions>
      </trkpt>
      <trkpt lat="50.49053" lon="2.55832">
        <ele>72.8</ele>
        <time>2021-06-24T15:43:07Z</time>
        <extensions>
          <gpxtpx:TrackPointExtension xmlns:gpxtpx="http://www.garmin.com/xmlschemas/TrackPointExtension/v1">
            <gpxtpx:hr>127</gpxtpx:hr>
          </gpxtpx:TrackPointExtension>
        </extensions>
      </trkpt>
      <trkpt lat="50.49054" lon="2.55833">
        <ele>72.8</ele>
        <time>2021-06-24T15:43:08Z</time>
        <extensions>
          <gpxtpx:TrackPointExtension xmlns:gpxtpx="http://www.garmin.com/xmlschemas/TrackPointExtension/v1">
            <gpxtpx:hr>127</gpxtpx:hr>
          </gpxtpx:TrackPointExtension>
        </extensions>
      </trkpt>
      <trkpt lat="50.49056" lon="2.55835">
        <ele>72.8</ele>
        <time>2021-06-24T15:43:09Z</time>
        <extensions>
          <gpxtpx:TrackPointExtension xmlns:gpxtpx="http://www.garmin.com/xmlschemas/TrackPointExtension/v1">
            <gpxtpx:hr>127</gpxtpx:hr>
          </gpxtpx:TrackPointExtension>
        </extensions>
      </trkpt>
      <trkpt lat="50.49058" lon="2.55837">
        <ele>73</ele>
        <time>2021-06-24T15:43:10Z</time>
        <extensions>
          <gpxtpx:TrackPointExtension xmlns:gpxtpx="http://www.garmin.com/xmlschemas/TrackPointExtension/v1">
            <gpxtpx:hr>128</gpxtpx:hr>
          </gpxtpx:TrackPointExtension>
        </extensions>
      </trkpt>
      <trkpt lat="50.4906" lon="2.55838">
        <ele>73</ele>
        <time>2021-06-24T15:43:11Z</time>
        <extensions>
          <gpxtpx:TrackPointExtension xmlns:gpxtpx="http://www.garmin.com/xmlschemas/TrackPointExtension/v1">
            <gpxtpx:hr>128</gpxtpx:hr>
          </gpxtpx:TrackPointExtension>
        </extensions>
      </trkpt>
      <trkpt lat="50.49062" lon="2.55839">
        <ele>73.2</ele>
        <time>2021-06-24T15:43:12Z</time>
        <extensions>
          <gpxtpx:TrackPointExtension xmlns:gpxtpx="http://www.garmin.com/xmlschemas/TrackPointExtension/v1">
            <gpxtpx:hr>128</gpxtpx:hr>
          </gpxtpx:TrackPointExtension>
        </extensions>
      </trkpt>
      <trkpt lat="50.49064" lon="2.55841">
        <ele>73.2</ele>
        <time>2021-06-24T15:43:13Z</time>
        <extensions>
          <gpxtpx:TrackPointExtension xmlns:gpxtpx="http://www.garmin.com/xmlschemas/TrackPointExtension/v1">
            <gpxtpx:hr>129</gpxtpx:hr>
          </gpxtpx:TrackPointExtension>
        </extensions>
      </trkpt>
      <trkpt lat="50.49067" lon="2.55843">
        <ele>73.2</ele>
        <time>2021-06-24T15:43:14Z</time>
        <extensions>
          <gpxtpx:TrackPointExtension xmlns:gpxtpx="http://www.garmin.com/xmlschemas/TrackPointExtension/v1">
            <gpxtpx:hr>129</gpxtpx:hr>
          </gpxtpx:TrackPointExtension>
        </extensions>
      </trkpt>
      <trkpt lat="50.49069" lon="2.55844">
        <ele>73.4</ele>
        <time>2021-06-24T15:43:15Z</time>
        <extensions>
          <gpxtpx:TrackPointExtension xmlns:gpxtpx="http://www.garmin.com/xmlschemas/TrackPointExtension/v1">
            <gpxtpx:hr>130</gpxtpx:hr>
          </gpxtpx:TrackPointExtension>
        </extensions>
      </trkpt>
      <trkpt lat="50.49072" lon="2.55847">
        <ele>73.4</ele>
        <time>2021-06-24T15:43:16Z</time>
        <extensions>
          <gpxtpx:TrackPointExtension xmlns:gpxtpx="http://www.garmin.com/xmlschemas/TrackPointExtension/v1">
            <gpxtpx:hr>131</gpxtpx:hr>
          </gpxtpx:TrackPointExtension>
        </extensions>
      </trkpt>
      <trkpt lat="50.49075" lon="2.55849">
        <ele>73.4</ele>
        <time>2021-06-24T15:43:17Z</time>
        <extensions>
          <gpxtpx:TrackPointExtension xmlns:gpxtpx="http://www.garmin.com/xmlschemas/TrackPointExtension/v1">
            <gpxtpx:hr>132</gpxtpx:hr>
          </gpxtpx:TrackPointExtension>
        </extensions>
      </trkpt>
      <trkpt lat="50.49077" lon="2.55852">
        <ele>73.6</ele>
        <time>2021-06-24T15:43:18Z</time>
        <extensions>
          <gpxtpx:TrackPointExtension xmlns:gpxtpx="http://www.garmin.com/xmlschemas/TrackPointExtension/v1">
            <gpxtpx:hr>132</gpxtpx:hr>
          </gpxtpx:TrackPointExtension>
        </extensions>
      </trkpt>
      <trkpt lat="50.49079" lon="2.55854">
        <ele>73.6</ele>
        <time>2021-06-24T15:43:19Z</time>
        <extensions>
          <gpxtpx:TrackPointExtension xmlns:gpxtpx="http://www.garmin.com/xmlschemas/TrackPointExtension/v1">
            <gpxtpx:hr>133</gpxtpx:hr>
          </gpxtpx:TrackPointExtension>
        </extensions>
      </trkpt>
      <trkpt lat="50.49081" lon="2.55857">
        <ele>73.6</ele>
        <time>2021-06-24T15:43:20Z</time>
        <extensions>
          <gpxtpx:TrackPointExtension xmlns:gpxtpx="http://www.garmin.com/xmlschemas/TrackPointExtension/v1">
            <gpxtpx:hr>134</gpxtpx:hr>
          </gpxtpx:TrackPointExtension>
        </extensions>
      </trkpt>
      <trkpt lat="50.49083" lon="2.55859">
        <ele>73.6</ele>
        <time>2021-06-24T15:43:21Z</time>
        <extensions>
          <gpxtpx:TrackPointExtension xmlns:gpxtpx="http://www.garmin.com/xmlschemas/TrackPointExtension/v1">
            <gpxtpx:hr>134</gpxtpx:hr>
          </gpxtpx:TrackPointExtension>
        </extensions>
      </trkpt>
      <trkpt lat="50.49086" lon="2.55862">
        <ele>73.8</ele>
        <time>2021-06-24T15:43:22Z</time>
        <extensions>
          <gpxtpx:TrackPointExtension xmlns:gpxtpx="http://www.garmin.com/xmlschemas/TrackPointExtension/v1">
            <gpxtpx:hr>134</gpxtpx:hr>
          </gpxtpx:TrackPointExtension>
        </extensions>
      </trkpt>
      <trkpt lat="50.49088" lon="2.55865">
        <ele>73.8</ele>
        <time>2021-06-24T15:43:23Z</time>
        <extensions>
          <gpxtpx:TrackPointExtension xmlns:gpxtpx="http://www.garmin.com/xmlschemas/TrackPointExtension/v1">
            <gpxtpx:hr>134</gpxtpx:hr>
          </gpxtpx:TrackPointExtension>
        </extensions>
      </trkpt>
      <trkpt lat="50.49091" lon="2.55869">
        <ele>73.8</ele>
        <time>2021-06-24T15:43:24Z</time>
        <extensions>
          <gpxtpx:TrackPointExtension xmlns:gpxtpx="http://www.garmin.com/xmlschemas/TrackPointExtension/v1">
            <gpxtpx:hr>134</gpxtpx:hr>
          </gpxtpx:TrackPointExtension>
        </extensions>
      </trkpt>
      <trkpt lat="50.49092" lon="2.55872">
        <ele>74</ele>
        <time>2021-06-24T15:43:25Z</time>
        <extensions>
          <gpxtpx:TrackPointExtension xmlns:gpxtpx="http://www.garmin.com/xmlschemas/TrackPointExtension/v1">
            <gpxtpx:hr>134</gpxtpx:hr>
          </gpxtpx:TrackPointExtension>
        </extensions>
      </trkpt>
      <trkpt lat="50.49094" lon="2.55876">
        <ele>74</ele>
        <time>2021-06-24T15:43:26Z</time>
        <extensions>
          <gpxtpx:TrackPointExtension xmlns:gpxtpx="http://www.garmin.com/xmlschemas/TrackPointExtension/v1">
            <gpxtpx:hr>133</gpxtpx:hr>
          </gpxtpx:TrackPointExtension>
        </extensions>
      </trkpt>
      <trkpt lat="50.49097" lon="2.5588">
        <ele>74</ele>
        <time>2021-06-24T15:43:27Z</time>
        <extensions>
          <gpxtpx:TrackPointExtension xmlns:gpxtpx="http://www.garmin.com/xmlschemas/TrackPointExtension/v1">
            <gpxtpx:hr>133</gpxtpx:hr>
          </gpxtpx:TrackPointExtension>
        </extensions>
      </trkpt>
      <trkpt lat="50.49099" lon="2.55884">
        <ele>74.2</ele>
        <time>2021-06-24T15:43:28Z</time>
        <extensions>
          <gpxtpx:TrackPointExtension xmlns:gpxtpx="http://www.garmin.com/xmlschemas/TrackPointExtension/v1">
            <gpxtpx:hr>133</gpxtpx:hr>
          </gpxtpx:TrackPointExtension>
        </extensions>
      </trkpt>
      <trkpt lat="50.49101" lon="2.5589">
        <ele>74.2</ele>
        <time>2021-06-24T15:43:29Z</time>
        <extensions>
          <gpxtpx:TrackPointExtension xmlns:gpxtpx="http://www.garmin.com/xmlschemas/TrackPointExtension/v1">
            <gpxtpx:hr>133</gpxtpx:hr>
          </gpxtpx:TrackPointExtension>
        </extensions>
      </trkpt>
      <trkpt lat="50.49102" lon="2.55895">
        <ele>74.2</ele>
        <time>2021-06-24T15:43:30Z</time>
        <extensions>
          <gpxtpx:TrackPointExtension xmlns:gpxtpx="http://www.garmin.com/xmlschemas/TrackPointExtension/v1">
            <gpxtpx:hr>133</gpxtpx:hr>
          </gpxtpx:TrackPointExtension>
        </extensions>
      </trkpt>
      <trkpt lat="50.49104" lon="2.55899">
        <ele>74.4</ele>
        <time>2021-06-24T15:43:31Z</time>
        <extensions>
          <gpxtpx:TrackPointExtension xmlns:gpxtpx="http://www.garmin.com/xmlschemas/TrackPointExtension/v1">
            <gpxtpx:hr>134</gpxtpx:hr>
          </gpxtpx:TrackPointExtension>
        </extensions>
      </trkpt>
      <trkpt lat="50.49107" lon="2.55903">
        <ele>74.4</ele>
        <time>2021-06-24T15:43:32Z</time>
        <extensions>
          <gpxtpx:TrackPointExtension xmlns:gpxtpx="http://www.garmin.com/xmlschemas/TrackPointExtension/v1">
            <gpxtpx:hr>134</gpxtpx:hr>
          </gpxtpx:TrackPointExtension>
        </extensions>
      </trkpt>
      <trkpt lat="50.4911" lon="2.55906">
        <ele>74.4</ele>
        <time>2021-06-24T15:43:33Z</time>
        <extensions>
          <gpxtpx:TrackPointExtension xmlns:gpxtpx="http://www.garmin.com/xmlschemas/TrackPointExtension/v1">
            <gpxtpx:hr>134</gpxtpx:hr>
          </gpxtpx:TrackPointExtension>
        </extensions>
      </trkpt>
      <trkpt lat="50.49112" lon="2.55908">
        <ele>74.6</ele>
        <time>2021-06-24T15:43:34Z</time>
        <extensions>
          <gpxtpx:TrackPointExtension xmlns:gpxtpx="http://www.garmin.com/xmlschemas/TrackPointExtension/v1">
            <gpxtpx:hr>135</gpxtpx:hr>
          </gpxtpx:TrackPointExtension>
        </extensions>
      </trkpt>
      <trkpt lat="50.49115" lon="2.55911">
        <ele>74.6</ele>
        <time>2021-06-24T15:43:35Z</time>
        <extensions>
          <gpxtpx:TrackPointExtension xmlns:gpxtpx="http://www.garmin.com/xmlschemas/TrackPointExtension/v1">
            <gpxtpx:hr>135</gpxtpx:hr>
          </gpxtpx:TrackPointExtension>
        </extensions>
      </trkpt>
      <trkpt lat="50.49116" lon="2.55914">
        <ele>74.8</ele>
        <time>2021-06-24T15:43:36Z</time>
        <extensions>
          <gpxtpx:TrackPointExtension xmlns:gpxtpx="http://www.garmin.com/xmlschemas/TrackPointExtension/v1">
            <gpxtpx:hr>136</gpxtpx:hr>
          </gpxtpx:TrackPointExtension>
        </extensions>
      </trkpt>
      <trkpt lat="50.49118" lon="2.55917">
        <ele>74.8</ele>
        <time>2021-06-24T15:43:37Z</time>
        <extensions>
          <gpxtpx:TrackPointExtension xmlns:gpxtpx="http://www.garmin.com/xmlschemas/TrackPointExtension/v1">
            <gpxtpx:hr>136</gpxtpx:hr>
          </gpxtpx:TrackPointExtension>
        </extensions>
      </trkpt>
      <trkpt lat="50.49121" lon="2.5592">
        <ele>74.8</ele>
        <time>2021-06-24T15:43:38Z</time>
        <extensions>
          <gpxtpx:TrackPointExtension xmlns:gpxtpx="http://www.garmin.com/xmlschemas/TrackPointExtension/v1">
            <gpxtpx:hr>136</gpxtpx:hr>
          </gpxtpx:TrackPointExtension>
        </extensions>
      </trkpt>
      <trkpt lat="50.49123" lon="2.55921">
        <ele>75</ele>
        <time>2021-06-24T15:43:39Z</time>
        <extensions>
          <gpxtpx:TrackPointExtension xmlns:gpxtpx="http://www.garmin.com/xmlschemas/TrackPointExtension/v1">
            <gpxtpx:hr>136</gpxtpx:hr>
          </gpxtpx:TrackPointExtension>
        </extensions>
      </trkpt>
      <trkpt lat="50.49125" lon="2.55921">
        <ele>75</ele>
        <time>2021-06-24T15:43:40Z</time>
        <extensions>
          <gpxtpx:TrackPointExtension xmlns:gpxtpx="http://www.garmin.com/xmlschemas/TrackPointExtension/v1">
            <gpxtpx:hr>136</gpxtpx:hr>
          </gpxtpx:TrackPointExtension>
        </extensions>
      </trkpt>
      <trkpt lat="50.49127" lon="2.5592">
        <ele>75.2</ele>
        <time>2021-06-24T15:43:41Z</time>
        <extensions>
          <gpxtpx:TrackPointExtension xmlns:gpxtpx="http://www.garmin.com/xmlschemas/TrackPointExtension/v1">
            <gpxtpx:hr>136</gpxtpx:hr>
          </gpxtpx:TrackPointExtension>
        </extensions>
      </trkpt>
      <trkpt lat="50.4913" lon="2.55919">
        <ele>75.2</ele>
        <time>2021-06-24T15:43:42Z</time>
        <extensions>
          <gpxtpx:TrackPointExtension xmlns:gpxtpx="http://www.garmin.com/xmlschemas/TrackPointExtension/v1">
            <gpxtpx:hr>136</gpxtpx:hr>
          </gpxtpx:TrackPointExtension>
        </extensions>
      </trkpt>
      <trkpt lat="50.49132" lon="2.55917">
        <ele>75.2</ele>
        <time>2021-06-24T15:43:43Z</time>
        <extensions>
          <gpxtpx:TrackPointExtension xmlns:gpxtpx="http://www.garmin.com/xmlschemas/TrackPointExtension/v1">
            <gpxtpx:hr>136</gpxtpx:hr>
          </gpxtpx:TrackPointExtension>
        </extensions>
      </trkpt>
      <trkpt lat="50.49134" lon="2.55914">
        <ele>75.4</ele>
        <time>2021-06-24T15:43:44Z</time>
        <extensions>
          <gpxtpx:TrackPointExtension xmlns:gpxtpx="http://www.garmin.com/xmlschemas/TrackPointExtension/v1">
            <gpxtpx:hr>136</gpxtpx:hr>
          </gpxtpx:TrackPointExtension>
        </extensions>
      </trkpt>
      <trkpt lat="50.49135" lon="2.55911">
        <ele>75.4</ele>
        <time>2021-06-24T15:43:45Z</time>
        <extensions>
          <gpxtpx:TrackPointExtension xmlns:gpxtpx="http://www.garmin.com/xmlschemas/TrackPointExtension/v1">
            <gpxtpx:hr>136</gpxtpx:hr>
          </gpxtpx:TrackPointExtension>
        </extensions>
      </trkpt>
      <trkpt lat="50.49136" lon="2.55908">
        <ele>75.6</ele>
        <time>2021-06-24T15:43:46Z</time>
        <extensions>
          <gpxtpx:TrackPointExtension xmlns:gpxtpx="http://www.garmin.com/xmlschemas/TrackPointExtension/v1">
            <gpxtpx:hr>136</gpxtpx:hr>
          </gpxtpx:TrackPointExtension>
        </extensions>
      </trkpt>
      <trkpt lat="50.49136" lon="2.55904">
        <ele>75.6</ele>
        <time>2021-06-24T15:43:47Z</time>
        <extensions>
          <gpxtpx:TrackPointExtension xmlns:gpxtpx="http://www.garmin.com/xmlschemas/TrackPointExtension/v1">
            <gpxtpx:hr>136</gpxtpx:hr>
          </gpxtpx:TrackPointExtension>
        </extensions>
      </trkpt>
      <trkpt lat="50.49138" lon="2.559">
        <ele>75.6</ele>
        <time>2021-06-24T15:43:48Z</time>
        <extensions>
          <gpxtpx:TrackPointExtension xmlns:gpxtpx="http://www.garmin.com/xmlschemas/TrackPointExtension/v1">
            <gpxtpx:hr>136</gpxtpx:hr>
          </gpxtpx:TrackPointExtension>
        </extensions>
      </trkpt>
      <trkpt lat="50.49138" lon="2.55896">
        <ele>75.8</ele>
        <time>2021-06-24T15:43:49Z</time>
        <extensions>
          <gpxtpx:TrackPointExtension xmlns:gpxtpx="http://www.garmin.com/xmlschemas/TrackPointExtension/v1">
            <gpxtpx:hr>136</gpxtpx:hr>
          </gpxtpx:TrackPointExtension>
        </extensions>
      </trkpt>
      <trkpt lat="50.49139" lon="2.55892">
        <ele>76</ele>
        <time>2021-06-24T15:43:50Z</time>
        <extensions>
          <gpxtpx:TrackPointExtension xmlns:gpxtpx="http://www.garmin.com/xmlschemas/TrackPointExtension/v1">
            <gpxtpx:hr>136</gpxtpx:hr>
          </gpxtpx:TrackPointExtension>
        </extensions>
      </trkpt>
      <trkpt lat="50.4914" lon="2.55888">
        <ele>76</ele>
        <time>2021-06-24T15:43:51Z</time>
        <extensions>
          <gpxtpx:TrackPointExtension xmlns:gpxtpx="http://www.garmin.com/xmlschemas/TrackPointExtension/v1">
            <gpxtpx:hr>136</gpxtpx:hr>
          </gpxtpx:TrackPointExtension>
        </extensions>
      </trkpt>
      <trkpt lat="50.49141" lon="2.55884">
        <ele>76.2</ele>
        <time>2021-06-24T15:43:52Z</time>
        <extensions>
          <gpxtpx:TrackPointExtension xmlns:gpxtpx="http://www.garmin.com/xmlschemas/TrackPointExtension/v1">
            <gpxtpx:hr>136</gpxtpx:hr>
          </gpxtpx:TrackPointExtension>
        </extensions>
      </trkpt>
      <trkpt lat="50.49142" lon="2.55881">
        <ele>76.2</ele>
        <time>2021-06-24T15:43:53Z</time>
        <extensions>
          <gpxtpx:TrackPointExtension xmlns:gpxtpx="http://www.garmin.com/xmlschemas/TrackPointExtension/v1">
            <gpxtpx:hr>136</gpxtpx:hr>
          </gpxtpx:TrackPointExtension>
        </extensions>
      </trkpt>
      <trkpt lat="50.49144" lon="2.55878">
        <ele>76.4</ele>
        <time>2021-06-24T15:43:54Z</time>
        <extensions>
          <gpxtpx:TrackPointExtension xmlns:gpxtpx="http://www.garmin.com/xmlschemas/TrackPointExtension/v1">
            <gpxtpx:hr>136</gpxtpx:hr>
          </gpxtpx:TrackPointExtension>
        </extensions>
      </trkpt>
      <trkpt lat="50.49147" lon="2.55875">
        <ele>76.6</ele>
        <time>2021-06-24T15:43:55Z</time>
        <extensions>
          <gpxtpx:TrackPointExtension xmlns:gpxtpx="http://www.garmin.com/xmlschemas/TrackPointExtension/v1">
            <gpxtpx:hr>136</gpxtpx:hr>
          </gpxtpx:TrackPointExtension>
        </extensions>
      </trkpt>
      <trkpt lat="50.49148" lon="2.55872">
        <ele>76.6</ele>
        <time>2021-06-24T15:43:56Z</time>
        <extensions>
          <gpxtpx:TrackPointExtension xmlns:gpxtpx="http://www.garmin.com/xmlschemas/TrackPointExtension/v1">
            <gpxtpx:hr>136</gpxtpx:hr>
          </gpxtpx:TrackPointExtension>
        </extensions>
      </trkpt>
      <trkpt lat="50.49149" lon="2.55869">
        <ele>76.8</ele>
        <time>2021-06-24T15:43:57Z</time>
        <extensions>
          <gpxtpx:TrackPointExtension xmlns:gpxtpx="http://www.garmin.com/xmlschemas/TrackPointExtension/v1">
            <gpxtpx:hr>136</gpxtpx:hr>
          </gpxtpx:TrackPointExtension>
        </extensions>
      </trkpt>
      <trkpt lat="50.49152" lon="2.55865">
        <ele>77</ele>
        <time>2021-06-24T15:43:58Z</time>
        <extensions>
          <gpxtpx:TrackPointExtension xmlns:gpxtpx="http://www.garmin.com/xmlschemas/TrackPointExtension/v1">
            <gpxtpx:hr>136</gpxtpx:hr>
          </gpxtpx:TrackPointExtension>
        </extensions>
      </trkpt>
      <trkpt lat="50.49154" lon="2.55862">
        <ele>77</ele>
        <time>2021-06-24T15:43:59Z</time>
        <extensions>
          <gpxtpx:TrackPointExtension xmlns:gpxtpx="http://www.garmin.com/xmlschemas/TrackPointExtension/v1">
            <gpxtpx:hr>135</gpxtpx:hr>
          </gpxtpx:TrackPointExtension>
        </extensions>
      </trkpt>
      <trkpt lat="50.49156" lon="2.55858">
        <ele>77.2</ele>
        <time>2021-06-24T15:44:00Z</time>
        <extensions>
          <gpxtpx:TrackPointExtension xmlns:gpxtpx="http://www.garmin.com/xmlschemas/TrackPointExtension/v1">
            <gpxtpx:hr>135</gpxtpx:hr>
          </gpxtpx:TrackPointExtension>
        </extensions>
      </trkpt>
      <trkpt lat="50.49157" lon="2.55855">
        <ele>77.2</ele>
        <time>2021-06-24T15:44:01Z</time>
        <extensions>
          <gpxtpx:TrackPointExtension xmlns:gpxtpx="http://www.garmin.com/xmlschemas/TrackPointExtension/v1">
            <gpxtpx:hr>135</gpxtpx:hr>
          </gpxtpx:TrackPointExtension>
        </extensions>
      </trkpt>
      <trkpt lat="50.49159" lon="2.55854">
        <ele>77.4</ele>
        <time>2021-06-24T15:44:02Z</time>
        <extensions>
          <gpxtpx:TrackPointExtension xmlns:gpxtpx="http://www.garmin.com/xmlschemas/TrackPointExtension/v1">
            <gpxtpx:hr>135</gpxtpx:hr>
          </gpxtpx:TrackPointExtension>
        </extensions>
      </trkpt>
      <trkpt lat="50.49161" lon="2.55853">
        <ele>77.4</ele>
        <time>2021-06-24T15:44:03Z</time>
        <extensions>
          <gpxtpx:TrackPointExtension xmlns:gpxtpx="http://www.garmin.com/xmlschemas/TrackPointExtension/v1">
            <gpxtpx:hr>135</gpxtpx:hr>
          </gpxtpx:TrackPointExtension>
        </extensions>
      </trkpt>
      <trkpt lat="50.49162" lon="2.55853">
        <ele>77.6</ele>
        <time>2021-06-24T15:44:04Z</time>
        <extensions>
          <gpxtpx:TrackPointExtension xmlns:gpxtpx="http://www.garmin.com/xmlschemas/TrackPointExtension/v1">
            <gpxtpx:hr>135</gpxtpx:hr>
          </gpxtpx:TrackPointExtension>
        </extensions>
      </trkpt>
      <trkpt lat="50.49164" lon="2.55852">
        <ele>77.6</ele>
        <time>2021-06-24T15:44:05Z</time>
        <extensions>
          <gpxtpx:TrackPointExtension xmlns:gpxtpx="http://www.garmin.com/xmlschemas/TrackPointExtension/v1">
            <gpxtpx:hr>135</gpxtpx:hr>
          </gpxtpx:TrackPointExtension>
        </extensions>
      </trkpt>
      <trkpt lat="50.49167" lon="2.55852">
        <ele>77.6</ele>
        <time>2021-06-24T15:44:06Z</time>
        <extensions>
          <gpxtpx:TrackPointExtension xmlns:gpxtpx="http://www.garmin.com/xmlschemas/TrackPointExtension/v1">
            <gpxtpx:hr>135</gpxtpx:hr>
          </gpxtpx:TrackPointExtension>
        </extensions>
      </trkpt>
      <trkpt lat="50.4917" lon="2.5585">
        <ele>77.6</ele>
        <time>2021-06-24T15:44:07Z</time>
        <extensions>
          <gpxtpx:TrackPointExtension xmlns:gpxtpx="http://www.garmin.com/xmlschemas/TrackPointExtension/v1">
            <gpxtpx:hr>135</gpxtpx:hr>
          </gpxtpx:TrackPointExtension>
        </extensions>
      </trkpt>
      <trkpt lat="50.49172" lon="2.55847">
        <ele>77.8</ele>
        <time>2021-06-24T15:44:08Z</time>
        <extensions>
          <gpxtpx:TrackPointExtension xmlns:gpxtpx="http://www.garmin.com/xmlschemas/TrackPointExtension/v1">
            <gpxtpx:hr>135</gpxtpx:hr>
          </gpxtpx:TrackPointExtension>
        </extensions>
      </trkpt>
      <trkpt lat="50.49176" lon="2.55842">
        <ele>77.8</ele>
        <time>2021-06-24T15:44:09Z</time>
        <extensions>
          <gpxtpx:TrackPointExtension xmlns:gpxtpx="http://www.garmin.com/xmlschemas/TrackPointExtension/v1">
            <gpxtpx:hr>135</gpxtpx:hr>
          </gpxtpx:TrackPointExtension>
        </extensions>
      </trkpt>
      <trkpt lat="50.4918" lon="2.55836">
        <ele>78</ele>
        <time>2021-06-24T15:44:10Z</time>
        <extensions>
          <gpxtpx:TrackPointExtension xmlns:gpxtpx="http://www.garmin.com/xmlschemas/TrackPointExtension/v1">
            <gpxtpx:hr>135</gpxtpx:hr>
          </gpxtpx:TrackPointExtension>
        </extensions>
      </trkpt>
      <trkpt lat="50.49183" lon="2.55831">
        <ele>78</ele>
        <time>2021-06-24T15:44:11Z</time>
        <extensions>
          <gpxtpx:TrackPointExtension xmlns:gpxtpx="http://www.garmin.com/xmlschemas/TrackPointExtension/v1">
            <gpxtpx:hr>134</gpxtpx:hr>
          </gpxtpx:TrackPointExtension>
        </extensions>
      </trkpt>
      <trkpt lat="50.49186" lon="2.55825">
        <ele>78.2</ele>
        <time>2021-06-24T15:44:12Z</time>
        <extensions>
          <gpxtpx:TrackPointExtension xmlns:gpxtpx="http://www.garmin.com/xmlschemas/TrackPointExtension/v1">
            <gpxtpx:hr>134</gpxtpx:hr>
          </gpxtpx:TrackPointExtension>
        </extensions>
      </trkpt>
      <trkpt lat="50.49188" lon="2.55819">
        <ele>78.2</ele>
        <time>2021-06-24T15:44:13Z</time>
        <extensions>
          <gpxtpx:TrackPointExtension xmlns:gpxtpx="http://www.garmin.com/xmlschemas/TrackPointExtension/v1">
            <gpxtpx:hr>134</gpxtpx:hr>
          </gpxtpx:TrackPointExtension>
        </extensions>
      </trkpt>
      <trkpt lat="50.4919" lon="2.55814">
        <ele>78.4</ele>
        <time>2021-06-24T15:44:14Z</time>
        <extensions>
          <gpxtpx:TrackPointExtension xmlns:gpxtpx="http://www.garmin.com/xmlschemas/TrackPointExtension/v1">
            <gpxtpx:hr>134</gpxtpx:hr>
          </gpxtpx:TrackPointExtension>
        </extensions>
      </trkpt>
      <trkpt lat="50.4919" lon="2.55809">
        <ele>78.4</ele>
        <time>2021-06-24T15:44:15Z</time>
        <extensions>
          <gpxtpx:TrackPointExtension xmlns:gpxtpx="http://www.garmin.com/xmlschemas/TrackPointExtension/v1">
            <gpxtpx:hr>134</gpxtpx:hr>
          </gpxtpx:TrackPointExtension>
        </extensions>
      </trkpt>
      <trkpt lat="50.49192" lon="2.55804">
        <ele>78.6</ele>
        <time>2021-06-24T15:44:16Z</time>
        <extensions>
          <gpxtpx:TrackPointExtension xmlns:gpxtpx="http://www.garmin.com/xmlschemas/TrackPointExtension/v1">
            <gpxtpx:hr>134</gpxtpx:hr>
          </gpxtpx:TrackPointExtension>
        </extensions>
      </trkpt>
      <trkpt lat="50.49194" lon="2.55798">
        <ele>78.8</ele>
        <time>2021-06-24T15:44:17Z</time>
        <extensions>
          <gpxtpx:TrackPointExtension xmlns:gpxtpx="http://www.garmin.com/xmlschemas/TrackPointExtension/v1">
            <gpxtpx:hr>133</gpxtpx:hr>
          </gpxtpx:TrackPointExtension>
        </extensions>
      </trkpt>
      <trkpt lat="50.49196" lon="2.55793">
        <ele>78.8</ele>
        <time>2021-06-24T15:44:18Z</time>
        <extensions>
          <gpxtpx:TrackPointExtension xmlns:gpxtpx="http://www.garmin.com/xmlschemas/TrackPointExtension/v1">
            <gpxtpx:hr>133</gpxtpx:hr>
          </gpxtpx:TrackPointExtension>
        </extensions>
      </trkpt>
      <trkpt lat="50.492" lon="2.55789">
        <ele>79</ele>
        <time>2021-06-24T15:44:19Z</time>
        <extensions>
          <gpxtpx:TrackPointExtension xmlns:gpxtpx="http://www.garmin.com/xmlschemas/TrackPointExtension/v1">
            <gpxtpx:hr>133</gpxtpx:hr>
          </gpxtpx:TrackPointExtension>
        </extensions>
      </trkpt>
      <trkpt lat="50.49205" lon="2.55784">
        <ele>79</ele>
        <time>2021-06-24T15:44:20Z</time>
        <extensions>
          <gpxtpx:TrackPointExtension xmlns:gpxtpx="http://www.garmin.com/xmlschemas/TrackPointExtension/v1">
            <gpxtpx:hr>133</gpxtpx:hr>
          </gpxtpx:TrackPointExtension>
        </extensions>
      </trkpt>
      <trkpt lat="50.4921" lon="2.55779">
        <ele>79.2</ele>
        <time>2021-06-24T15:44:21Z</time>
        <extensions>
          <gpxtpx:TrackPointExtension xmlns:gpxtpx="http://www.garmin.com/xmlschemas/TrackPointExtension/v1">
            <gpxtpx:hr>133</gpxtpx:hr>
          </gpxtpx:TrackPointExtension>
        </extensions>
      </trkpt>
      <trkpt lat="50.49214" lon="2.55774">
        <ele>79.2</ele>
        <time>2021-06-24T15:44:22Z</time>
        <extensions>
          <gpxtpx:TrackPointExtension xmlns:gpxtpx="http://www.garmin.com/xmlschemas/TrackPointExtension/v1">
            <gpxtpx:hr>133</gpxtpx:hr>
          </gpxtpx:TrackPointExtension>
        </extensions>
      </trkpt>
      <trkpt lat="50.49218" lon="2.5577">
        <ele>79.6</ele>
        <time>2021-06-24T15:44:24Z</time>
        <extensions>
          <gpxtpx:TrackPointExtension xmlns:gpxtpx="http://www.garmin.com/xmlschemas/TrackPointExtension/v1">
            <gpxtpx:hr>133</gpxtpx:hr>
          </gpxtpx:TrackPointExtension>
        </extensions>
      </trkpt>
      <trkpt lat="50.49219" lon="2.55767">
        <ele>79.6</ele>
        <time>2021-06-24T15:44:25Z</time>
        <extensions>
          <gpxtpx:TrackPointExtension xmlns:gpxtpx="http://www.garmin.com/xmlschemas/TrackPointExtension/v1">
            <gpxtpx:hr>133</gpxtpx:hr>
          </gpxtpx:TrackPointExtension>
        </extensions>
      </trkpt>
      <trkpt lat="50.49221" lon="2.55765">
        <ele>79.8</ele>
        <time>2021-06-24T15:44:26Z</time>
        <extensions>
          <gpxtpx:TrackPointExtension xmlns:gpxtpx="http://www.garmin.com/xmlschemas/TrackPointExtension/v1">
            <gpxtpx:hr>133</gpxtpx:hr>
          </gpxtpx:TrackPointExtension>
        </extensions>
      </trkpt>
      <trkpt lat="50.49223" lon="2.55763">
        <ele>79.8</ele>
        <time>2021-06-24T15:44:27Z</time>
        <extensions>
          <gpxtpx:TrackPointExtension xmlns:gpxtpx="http://www.garmin.com/xmlschemas/TrackPointExtension/v1">
            <gpxtpx:hr>132</gpxtpx:hr>
          </gpxtpx:TrackPointExtension>
        </extensions>
      </trkpt>
      <trkpt lat="50.49226" lon="2.55765">
        <ele>80</ele>
        <time>2021-06-24T15:44:28Z</time>
        <extensions>
          <gpxtpx:TrackPointExtension xmlns:gpxtpx="http://www.garmin.com/xmlschemas/TrackPointExtension/v1">
            <gpxtpx:hr>132</gpxtpx:hr>
          </gpxtpx:TrackPointExtension>
        </extensions>
      </trkpt>
      <trkpt lat="50.49229" lon="2.55768">
        <ele>80.2</ele>
        <time>2021-06-24T15:44:29Z</time>
        <extensions>
          <gpxtpx:TrackPointExtension xmlns:gpxtpx="http://www.garmin.com/xmlschemas/TrackPointExtension/v1">
            <gpxtpx:hr>131</gpxtpx:hr>
          </gpxtpx:TrackPointExtension>
        </extensions>
      </trkpt>
      <trkpt lat="50.49231" lon="2.55772">
        <ele>80.2</ele>
        <time>2021-06-24T15:44:30Z</time>
        <extensions>
          <gpxtpx:TrackPointExtension xmlns:gpxtpx="http://www.garmin.com/xmlschemas/TrackPointExtension/v1">
            <gpxtpx:hr>130</gpxtpx:hr>
          </gpxtpx:TrackPointExtension>
        </extensions>
      </trkpt>
      <trkpt lat="50.49234" lon="2.55774">
        <ele>80.4</ele>
        <time>2021-06-24T15:44:31Z</time>
        <extensions>
          <gpxtpx:TrackPointExtension xmlns:gpxtpx="http://www.garmin.com/xmlschemas/TrackPointExtension/v1">
            <gpxtpx:hr>129</gpxtpx:hr>
          </gpxtpx:TrackPointExtension>
        </extensions>
      </trkpt>
      <trkpt lat="50.49237" lon="2.55776">
        <ele>80.4</ele>
        <time>2021-06-24T15:44:32Z</time>
        <extensions>
          <gpxtpx:TrackPointExtension xmlns:gpxtpx="http://www.garmin.com/xmlschemas/TrackPointExtension/v1">
            <gpxtpx:hr>128</gpxtpx:hr>
          </gpxtpx:TrackPointExtension>
        </extensions>
      </trkpt>
      <trkpt lat="50.4924" lon="2.55778">
        <ele>80.4</ele>
        <time>2021-06-24T15:44:33Z</time>
        <extensions>
          <gpxtpx:TrackPointExtension xmlns:gpxtpx="http://www.garmin.com/xmlschemas/TrackPointExtension/v1">
            <gpxtpx:hr>127</gpxtpx:hr>
          </gpxtpx:TrackPointExtension>
        </extensions>
      </trkpt>
      <trkpt lat="50.49243" lon="2.5578">
        <ele>80.6</ele>
        <time>2021-06-24T15:44:34Z</time>
        <extensions>
          <gpxtpx:TrackPointExtension xmlns:gpxtpx="http://www.garmin.com/xmlschemas/TrackPointExtension/v1">
            <gpxtpx:hr>127</gpxtpx:hr>
          </gpxtpx:TrackPointExtension>
        </extensions>
      </trkpt>
      <trkpt lat="50.49245" lon="2.55783">
        <ele>80.6</ele>
        <time>2021-06-24T15:44:35Z</time>
        <extensions>
          <gpxtpx:TrackPointExtension xmlns:gpxtpx="http://www.garmin.com/xmlschemas/TrackPointExtension/v1">
            <gpxtpx:hr>126</gpxtpx:hr>
          </gpxtpx:TrackPointExtension>
        </extensions>
      </trkpt>
      <trkpt lat="50.49249" lon="2.55786">
        <ele>80.6</ele>
        <time>2021-06-24T15:44:36Z</time>
        <extensions>
          <gpxtpx:TrackPointExtension xmlns:gpxtpx="http://www.garmin.com/xmlschemas/TrackPointExtension/v1">
            <gpxtpx:hr>125</gpxtpx:hr>
          </gpxtpx:TrackPointExtension>
        </extensions>
      </trkpt>
      <trkpt lat="50.49251" lon="2.55788">
        <ele>80.8</ele>
        <time>2021-06-24T15:44:37Z</time>
        <extensions>
          <gpxtpx:TrackPointExtension xmlns:gpxtpx="http://www.garmin.com/xmlschemas/TrackPointExtension/v1">
            <gpxtpx:hr>125</gpxtpx:hr>
          </gpxtpx:TrackPointExtension>
        </extensions>
      </trkpt>
      <trkpt lat="50.49254" lon="2.5579">
        <ele>80.8</ele>
        <time>2021-06-24T15:44:38Z</time>
        <extensions>
          <gpxtpx:TrackPointExtension xmlns:gpxtpx="http://www.garmin.com/xmlschemas/TrackPointExtension/v1">
            <gpxtpx:hr>124</gpxtpx:hr>
          </gpxtpx:TrackPointExtension>
        </extensions>
      </trkpt>
      <trkpt lat="50.49257" lon="2.55792">
        <ele>80.8</ele>
        <time>2021-06-24T15:44:39Z</time>
        <extensions>
          <gpxtpx:TrackPointExtension xmlns:gpxtpx="http://www.garmin.com/xmlschemas/TrackPointExtension/v1">
            <gpxtpx:hr>123</gpxtpx:hr>
          </gpxtpx:TrackPointExtension>
        </extensions>
      </trkpt>
      <trkpt lat="50.4926" lon="2.55794">
        <ele>80.8</ele>
        <time>2021-06-24T15:44:40Z</time>
        <extensions>
          <gpxtpx:TrackPointExtension xmlns:gpxtpx="http://www.garmin.com/xmlschemas/TrackPointExtension/v1">
            <gpxtpx:hr>122</gpxtpx:hr>
          </gpxtpx:TrackPointExtension>
        </extensions>
      </trkpt>
      <trkpt lat="50.49264" lon="2.55796">
        <ele>80.8</ele>
        <time>2021-06-24T15:44:41Z</time>
        <extensions>
          <gpxtpx:TrackPointExtension xmlns:gpxtpx="http://www.garmin.com/xmlschemas/TrackPointExtension/v1">
            <gpxtpx:hr>121</gpxtpx:hr>
          </gpxtpx:TrackPointExtension>
        </extensions>
      </trkpt>
      <trkpt lat="50.49268" lon="2.55798">
        <ele>80.8</ele>
        <time>2021-06-24T15:44:42Z</time>
        <extensions>
          <gpxtpx:TrackPointExtension xmlns:gpxtpx="http://www.garmin.com/xmlschemas/TrackPointExtension/v1">
            <gpxtpx:hr>120</gpxtpx:hr>
          </gpxtpx:TrackPointExtension>
        </extensions>
      </trkpt>
      <trkpt lat="50.49273" lon="2.558">
        <ele>80.8</ele>
        <time>2021-06-24T15:44:43Z</time>
        <extensions>
          <gpxtpx:TrackPointExtension xmlns:gpxtpx="http://www.garmin.com/xmlschemas/TrackPointExtension/v1">
            <gpxtpx:hr>119</gpxtpx:hr>
          </gpxtpx:TrackPointExtension>
        </extensions>
      </trkpt>
      <trkpt lat="50.49277" lon="2.55802">
        <ele>80.8</ele>
        <time>2021-06-24T15:44:44Z</time>
        <extensions>
          <gpxtpx:TrackPointExtension xmlns:gpxtpx="http://www.garmin.com/xmlschemas/TrackPointExtension/v1">
            <gpxtpx:hr>118</gpxtpx:hr>
          </gpxtpx:TrackPointExtension>
        </extensions>
      </trkpt>
      <trkpt lat="50.49282" lon="2.55806">
        <ele>80.8</ele>
        <time>2021-06-24T15:44:45Z</time>
        <extensions>
          <gpxtpx:TrackPointExtension xmlns:gpxtpx="http://www.garmin.com/xmlschemas/TrackPointExtension/v1">
            <gpxtpx:hr>117</gpxtpx:hr>
          </gpxtpx:TrackPointExtension>
        </extensions>
      </trkpt>
      <trkpt lat="50.49288" lon="2.55808">
        <ele>80.6</ele>
        <time>2021-06-24T15:44:46Z</time>
        <extensions>
          <gpxtpx:TrackPointExtension xmlns:gpxtpx="http://www.garmin.com/xmlschemas/TrackPointExtension/v1">
            <gpxtpx:hr>117</gpxtpx:hr>
          </gpxtpx:TrackPointExtension>
        </extensions>
      </trkpt>
      <trkpt lat="50.49295" lon="2.55809">
        <ele>80.6</ele>
        <time>2021-06-24T15:44:47Z</time>
        <extensions>
          <gpxtpx:TrackPointExtension xmlns:gpxtpx="http://www.garmin.com/xmlschemas/TrackPointExtension/v1">
            <gpxtpx:hr>116</gpxtpx:hr>
          </gpxtpx:TrackPointExtension>
        </extensions>
      </trkpt>
      <trkpt lat="50.49304" lon="2.5581">
        <ele>80.6</ele>
        <time>2021-06-24T15:44:48Z</time>
        <extensions>
          <gpxtpx:TrackPointExtension xmlns:gpxtpx="http://www.garmin.com/xmlschemas/TrackPointExtension/v1">
            <gpxtpx:hr>115</gpxtpx:hr>
          </gpxtpx:TrackPointExtension>
        </extensions>
      </trkpt>
      <trkpt lat="50.49311" lon="2.55809">
        <ele>80.6</ele>
        <time>2021-06-24T15:44:49Z</time>
        <extensions>
          <gpxtpx:TrackPointExtension xmlns:gpxtpx="http://www.garmin.com/xmlschemas/TrackPointExtension/v1">
            <gpxtpx:hr>113</gpxtpx:hr>
          </gpxtpx:TrackPointExtension>
        </extensions>
      </trkpt>
      <trkpt lat="50.49316" lon="2.55806">
        <ele>80.4</ele>
        <time>2021-06-24T15:44:50Z</time>
        <extensions>
          <gpxtpx:TrackPointExtension xmlns:gpxtpx="http://www.garmin.com/xmlschemas/TrackPointExtension/v1">
            <gpxtpx:hr>112</gpxtpx:hr>
          </gpxtpx:TrackPointExtension>
        </extensions>
      </trkpt>
      <trkpt lat="50.49317" lon="2.55798">
        <ele>80.4</ele>
        <time>2021-06-24T15:44:51Z</time>
        <extensions>
          <gpxtpx:TrackPointExtension xmlns:gpxtpx="http://www.garmin.com/xmlschemas/TrackPointExtension/v1">
            <gpxtpx:hr>112</gpxtpx:hr>
          </gpxtpx:TrackPointExtension>
        </extensions>
      </trkpt>
      <trkpt lat="50.49317" lon="2.55791">
        <ele>80.2</ele>
        <time>2021-06-24T15:44:52Z</time>
        <extensions>
          <gpxtpx:TrackPointExtension xmlns:gpxtpx="http://www.garmin.com/xmlschemas/TrackPointExtension/v1">
            <gpxtpx:hr>111</gpxtpx:hr>
          </gpxtpx:TrackPointExtension>
        </extensions>
      </trkpt>
      <trkpt lat="50.49316" lon="2.55785">
        <ele>80.2</ele>
        <time>2021-06-24T15:44:53Z</time>
        <extensions>
          <gpxtpx:TrackPointExtension xmlns:gpxtpx="http://www.garmin.com/xmlschemas/TrackPointExtension/v1">
            <gpxtpx:hr>110</gpxtpx:hr>
          </gpxtpx:TrackPointExtension>
        </extensions>
      </trkpt>
      <trkpt lat="50.49316" lon="2.55781">
        <ele>80</ele>
        <time>2021-06-24T15:44:54Z</time>
        <extensions>
          <gpxtpx:TrackPointExtension xmlns:gpxtpx="http://www.garmin.com/xmlschemas/TrackPointExtension/v1">
            <gpxtpx:hr>110</gpxtpx:hr>
          </gpxtpx:TrackPointExtension>
        </extensions>
      </trkpt>
      <trkpt lat="50.49317" lon="2.55777">
        <ele>80</ele>
        <time>2021-06-24T15:44:55Z</time>
        <extensions>
          <gpxtpx:TrackPointExtension xmlns:gpxtpx="http://www.garmin.com/xmlschemas/TrackPointExtension/v1">
            <gpxtpx:hr>110</gpxtpx:hr>
          </gpxtpx:TrackPointExtension>
        </extensions>
      </trkpt>
      <trkpt lat="50.49318" lon="2.55774">
        <ele>79.8</ele>
        <time>2021-06-24T15:44:56Z</time>
        <extensions>
          <gpxtpx:TrackPointExtension xmlns:gpxtpx="http://www.garmin.com/xmlschemas/TrackPointExtension/v1">
            <gpxtpx:hr>110</gpxtpx:hr>
          </gpxtpx:TrackPointExtension>
        </extensions>
      </trkpt>
      <trkpt lat="50.4932" lon="2.55773">
        <ele>79.6</ele>
        <time>2021-06-24T15:44:57Z</time>
        <extensions>
          <gpxtpx:TrackPointExtension xmlns:gpxtpx="http://www.garmin.com/xmlschemas/TrackPointExtension/v1">
            <gpxtpx:hr>110</gpxtpx:hr>
          </gpxtpx:TrackPointExtension>
        </extensions>
      </trkpt>
      <trkpt lat="50.49322" lon="2.55771">
        <ele>79.6</ele>
        <time>2021-06-24T15:44:58Z</time>
        <extensions>
          <gpxtpx:TrackPointExtension xmlns:gpxtpx="http://www.garmin.com/xmlschemas/TrackPointExtension/v1">
            <gpxtpx:hr>109</gpxtpx:hr>
          </gpxtpx:TrackPointExtension>
        </extensions>
      </trkpt>
      <trkpt lat="50.49323" lon="2.55769">
        <ele>79.4</ele>
        <time>2021-06-24T15:44:59Z</time>
        <extensions>
          <gpxtpx:TrackPointExtension xmlns:gpxtpx="http://www.garmin.com/xmlschemas/TrackPointExtension/v1">
            <gpxtpx:hr>109</gpxtpx:hr>
          </gpxtpx:TrackPointExtension>
        </extensions>
      </trkpt>
      <trkpt lat="50.49323" lon="2.55765">
        <ele>79.4</ele>
        <time>2021-06-24T15:45:00Z</time>
        <extensions>
          <gpxtpx:TrackPointExtension xmlns:gpxtpx="http://www.garmin.com/xmlschemas/TrackPointExtension/v1">
            <gpxtpx:hr>109</gpxtpx:hr>
          </gpxtpx:TrackPointExtension>
        </extensions>
      </trkpt>
      <trkpt lat="50.49323" lon="2.55761">
        <ele>79.2</ele>
        <time>2021-06-24T15:45:01Z</time>
        <extensions>
          <gpxtpx:TrackPointExtension xmlns:gpxtpx="http://www.garmin.com/xmlschemas/TrackPointExtension/v1">
            <gpxtpx:hr>108</gpxtpx:hr>
          </gpxtpx:TrackPointExtension>
        </extensions>
      </trkpt>
      <trkpt lat="50.49323" lon="2.55756">
        <ele>79</ele>
        <time>2021-06-24T15:45:02Z</time>
        <extensions>
          <gpxtpx:TrackPointExtension xmlns:gpxtpx="http://www.garmin.com/xmlschemas/TrackPointExtension/v1">
            <gpxtpx:hr>108</gpxtpx:hr>
          </gpxtpx:TrackPointExtension>
        </extensions>
      </trkpt>
      <trkpt lat="50.49323" lon="2.55752">
        <ele>79</ele>
        <time>2021-06-24T15:45:03Z</time>
        <extensions>
          <gpxtpx:TrackPointExtension xmlns:gpxtpx="http://www.garmin.com/xmlschemas/TrackPointExtension/v1">
            <gpxtpx:hr>107</gpxtpx:hr>
          </gpxtpx:TrackPointExtension>
        </extensions>
      </trkpt>
      <trkpt lat="50.49323" lon="2.55749">
        <ele>78.8</ele>
        <time>2021-06-24T15:45:04Z</time>
        <extensions>
          <gpxtpx:TrackPointExtension xmlns:gpxtpx="http://www.garmin.com/xmlschemas/TrackPointExtension/v1">
            <gpxtpx:hr>106</gpxtpx:hr>
          </gpxtpx:TrackPointExtension>
        </extensions>
      </trkpt>
      <trkpt lat="50.49321" lon="2.55746">
        <ele>78.6</ele>
        <time>2021-06-24T15:45:05Z</time>
        <extensions>
          <gpxtpx:TrackPointExtension xmlns:gpxtpx="http://www.garmin.com/xmlschemas/TrackPointExtension/v1">
            <gpxtpx:hr>106</gpxtpx:hr>
          </gpxtpx:TrackPointExtension>
        </extensions>
      </trkpt>
      <trkpt lat="50.49319" lon="2.55743">
        <ele>78.4</ele>
        <time>2021-06-24T15:45:06Z</time>
        <extensions>
          <gpxtpx:TrackPointExtension xmlns:gpxtpx="http://www.garmin.com/xmlschemas/TrackPointExtension/v1">
            <gpxtpx:hr>105</gpxtpx:hr>
          </gpxtpx:TrackPointExtension>
        </extensions>
      </trkpt>
      <trkpt lat="50.49317" lon="2.55741">
        <ele>78.2</ele>
        <time>2021-06-24T15:45:07Z</time>
        <extensions>
          <gpxtpx:TrackPointExtension xmlns:gpxtpx="http://www.garmin.com/xmlschemas/TrackPointExtension/v1">
            <gpxtpx:hr>105</gpxtpx:hr>
          </gpxtpx:TrackPointExtension>
        </extensions>
      </trkpt>
      <trkpt lat="50.49315" lon="2.5574">
        <ele>78.2</ele>
        <time>2021-06-24T15:45:08Z</time>
        <extensions>
          <gpxtpx:TrackPointExtension xmlns:gpxtpx="http://www.garmin.com/xmlschemas/TrackPointExtension/v1">
            <gpxtpx:hr>104</gpxtpx:hr>
          </gpxtpx:TrackPointExtension>
        </extensions>
      </trkpt>
      <trkpt lat="50.49313" lon="2.55738">
        <ele>78</ele>
        <time>2021-06-24T15:45:09Z</time>
        <extensions>
          <gpxtpx:TrackPointExtension xmlns:gpxtpx="http://www.garmin.com/xmlschemas/TrackPointExtension/v1">
            <gpxtpx:hr>104</gpxtpx:hr>
          </gpxtpx:TrackPointExtension>
        </extensions>
      </trkpt>
      <trkpt lat="50.49311" lon="2.55736">
        <ele>77.8</ele>
        <time>2021-06-24T15:45:10Z</time>
        <extensions>
          <gpxtpx:TrackPointExtension xmlns:gpxtpx="http://www.garmin.com/xmlschemas/TrackPointExtension/v1">
            <gpxtpx:hr>105</gpxtpx:hr>
          </gpxtpx:TrackPointExtension>
        </extensions>
      </trkpt>
      <trkpt lat="50.49309" lon="2.55733">
        <ele>77.6</ele>
        <time>2021-06-24T15:45:11Z</time>
        <extensions>
          <gpxtpx:TrackPointExtension xmlns:gpxtpx="http://www.garmin.com/xmlschemas/TrackPointExtension/v1">
            <gpxtpx:hr>106</gpxtpx:hr>
          </gpxtpx:TrackPointExtension>
        </extensions>
      </trkpt>
      <trkpt lat="50.49307" lon="2.55729">
        <ele>77.4</ele>
        <time>2021-06-24T15:45:12Z</time>
        <extensions>
          <gpxtpx:TrackPointExtension xmlns:gpxtpx="http://www.garmin.com/xmlschemas/TrackPointExtension/v1">
            <gpxtpx:hr>107</gpxtpx:hr>
          </gpxtpx:TrackPointExtension>
        </extensions>
      </trkpt>
      <trkpt lat="50.49304" lon="2.55727">
        <ele>77.4</ele>
        <time>2021-06-24T15:45:13Z</time>
        <extensions>
          <gpxtpx:TrackPointExtension xmlns:gpxtpx="http://www.garmin.com/xmlschemas/TrackPointExtension/v1">
            <gpxtpx:hr>109</gpxtpx:hr>
          </gpxtpx:TrackPointExtension>
        </extensions>
      </trkpt>
      <trkpt lat="50.49301" lon="2.55723">
        <ele>77.2</ele>
        <time>2021-06-24T15:45:14Z</time>
        <extensions>
          <gpxtpx:TrackPointExtension xmlns:gpxtpx="http://www.garmin.com/xmlschemas/TrackPointExtension/v1">
            <gpxtpx:hr>110</gpxtpx:hr>
          </gpxtpx:TrackPointExtension>
        </extensions>
      </trkpt>
      <trkpt lat="50.49297" lon="2.5572">
        <ele>77</ele>
        <time>2021-06-24T15:45:15Z</time>
        <extensions>
          <gpxtpx:TrackPointExtension xmlns:gpxtpx="http://www.garmin.com/xmlschemas/TrackPointExtension/v1">
            <gpxtpx:hr>112</gpxtpx:hr>
          </gpxtpx:TrackPointExtension>
        </extensions>
      </trkpt>
      <trkpt lat="50.49293" lon="2.55717">
        <ele>76.8</ele>
        <time>2021-06-24T15:45:16Z</time>
        <extensions>
          <gpxtpx:TrackPointExtension xmlns:gpxtpx="http://www.garmin.com/xmlschemas/TrackPointExtension/v1">
            <gpxtpx:hr>114</gpxtpx:hr>
          </gpxtpx:TrackPointExtension>
        </extensions>
      </trkpt>
      <trkpt lat="50.49289" lon="2.55715">
        <ele>76.6</ele>
        <time>2021-06-24T15:45:17Z</time>
        <extensions>
          <gpxtpx:TrackPointExtension xmlns:gpxtpx="http://www.garmin.com/xmlschemas/TrackPointExtension/v1">
            <gpxtpx:hr>115</gpxtpx:hr>
          </gpxtpx:TrackPointExtension>
        </extensions>
      </trkpt>
      <trkpt lat="50.49285" lon="2.55711">
        <ele>76.6</ele>
        <time>2021-06-24T15:45:18Z</time>
        <extensions>
          <gpxtpx:TrackPointExtension xmlns:gpxtpx="http://www.garmin.com/xmlschemas/TrackPointExtension/v1">
            <gpxtpx:hr>117</gpxtpx:hr>
          </gpxtpx:TrackPointExtension>
        </extensions>
      </trkpt>
      <trkpt lat="50.49279" lon="2.55707">
        <ele>76.4</ele>
        <time>2021-06-24T15:45:19Z</time>
        <extensions>
          <gpxtpx:TrackPointExtension xmlns:gpxtpx="http://www.garmin.com/xmlschemas/TrackPointExtension/v1">
            <gpxtpx:hr>118</gpxtpx:hr>
          </gpxtpx:TrackPointExtension>
        </extensions>
      </trkpt>
      <trkpt lat="50.49275" lon="2.55704">
        <ele>76.2</ele>
        <time>2021-06-24T15:45:20Z</time>
        <extensions>
          <gpxtpx:TrackPointExtension xmlns:gpxtpx="http://www.garmin.com/xmlschemas/TrackPointExtension/v1">
            <gpxtpx:hr>119</gpxtpx:hr>
          </gpxtpx:TrackPointExtension>
        </extensions>
      </trkpt>
      <trkpt lat="50.49271" lon="2.55701">
        <ele>76</ele>
        <time>2021-06-24T15:45:21Z</time>
        <extensions>
          <gpxtpx:TrackPointExtension xmlns:gpxtpx="http://www.garmin.com/xmlschemas/TrackPointExtension/v1">
            <gpxtpx:hr>120</gpxtpx:hr>
          </gpxtpx:TrackPointExtension>
        </extensions>
      </trkpt>
      <trkpt lat="50.49268" lon="2.557">
        <ele>75.8</ele>
        <time>2021-06-24T15:45:22Z</time>
        <extensions>
          <gpxtpx:TrackPointExtension xmlns:gpxtpx="http://www.garmin.com/xmlschemas/TrackPointExtension/v1">
            <gpxtpx:hr>121</gpxtpx:hr>
          </gpxtpx:TrackPointExtension>
        </extensions>
      </trkpt>
      <trkpt lat="50.49263" lon="2.55696">
        <ele>75.6</ele>
        <time>2021-06-24T15:45:23Z</time>
        <extensions>
          <gpxtpx:TrackPointExtension xmlns:gpxtpx="http://www.garmin.com/xmlschemas/TrackPointExtension/v1">
            <gpxtpx:hr>122</gpxtpx:hr>
          </gpxtpx:TrackPointExtension>
        </extensions>
      </trkpt>
      <trkpt lat="50.49259" lon="2.55695">
        <ele>75.6</ele>
        <time>2021-06-24T15:45:24Z</time>
        <extensions>
          <gpxtpx:TrackPointExtension xmlns:gpxtpx="http://www.garmin.com/xmlschemas/TrackPointExtension/v1">
            <gpxtpx:hr>122</gpxtpx:hr>
          </gpxtpx:TrackPointExtension>
        </extensions>
      </trkpt>
      <trkpt lat="50.49252" lon="2.55691">
        <ele>75.2</ele>
        <time>2021-06-24T15:45:26Z</time>
        <extensions>
          <gpxtpx:TrackPointExtension xmlns:gpxtpx="http://www.garmin.com/xmlschemas/TrackPointExtension/v1">
            <gpxtpx:hr>123</gpxtpx:hr>
          </gpxtpx:TrackPointExtension>
        </extensions>
      </trkpt>
      <trkpt lat="50.49245" lon="2.55692">
        <ele>74.2</ele>
        <time>2021-06-24T15:45:31Z</time>
        <extensions>
          <gpxtpx:TrackPointExtension xmlns:gpxtpx="http://www.garmin.com/xmlschemas/TrackPointExtension/v1">
            <gpxtpx:hr>125</gpxtpx:hr>
          </gpxtpx:TrackPointExtension>
        </extensions>
      </trkpt>
      <trkpt lat="50.49243" lon="2.55692">
        <ele>73.8</ele>
        <time>2021-06-24T15:45:33Z</time>
        <extensions>
          <gpxtpx:TrackPointExtension xmlns:gpxtpx="http://www.garmin.com/xmlschemas/TrackPointExtension/v1">
            <gpxtpx:hr>125</gpxtpx:hr>
          </gpxtpx:TrackPointExtension>
        </extensions>
      </trkpt>
      <trkpt lat="50.49244" lon="2.55689">
        <ele>73.8</ele>
        <time>2021-06-24T15:45:40Z</time>
        <extensions>
          <gpxtpx:TrackPointExtension xmlns:gpxtpx="http://www.garmin.com/xmlschemas/TrackPointExtension/v1">
            <gpxtpx:hr>123</gpxtpx:hr>
          </gpxtpx:TrackPointExtension>
        </extensions>
      </trkpt>
      <trkpt lat="50.49242" lon="2.55688">
        <ele>73.8</ele>
        <time>2021-06-24T15:45:41Z</time>
        <extensions>
          <gpxtpx:TrackPointExtension xmlns:gpxtpx="http://www.garmin.com/xmlschemas/TrackPointExtension/v1">
            <gpxtpx:hr>123</gpxtpx:hr>
          </gpxtpx:TrackPointExtension>
        </extensions>
      </trkpt>
      <trkpt lat="50.4924" lon="2.55686">
        <ele>71.6</ele>
        <time>2021-06-24T15:45:42Z</time>
        <extensions>
          <gpxtpx:TrackPointExtension xmlns:gpxtpx="http://www.garmin.com/xmlschemas/TrackPointExtension/v1">
            <gpxtpx:hr>123</gpxtpx:hr>
          </gpxtpx:TrackPointExtension>
        </extensions>
      </trkpt>
      <trkpt lat="50.49237" lon="2.55685">
        <ele>71.2</ele>
        <time>2021-06-24T15:45:44Z</time>
        <extensions>
          <gpxtpx:TrackPointExtension xmlns:gpxtpx="http://www.garmin.com/xmlschemas/TrackPointExtension/v1">
            <gpxtpx:hr>123</gpxtpx:hr>
          </gpxtpx:TrackPointExtension>
        </extensions>
      </trkpt>
      <trkpt lat="50.49235" lon="2.55685">
        <ele>71.2</ele>
        <time>2021-06-24T15:45:45Z</time>
        <extensions>
          <gpxtpx:TrackPointExtension xmlns:gpxtpx="http://www.garmin.com/xmlschemas/TrackPointExtension/v1">
            <gpxtpx:hr>124</gpxtpx:hr>
          </gpxtpx:TrackPointExtension>
        </extensions>
      </trkpt>
      <trkpt lat="50.49232" lon="2.55685">
        <ele>71</ele>
        <time>2021-06-24T15:45:46Z</time>
        <extensions>
          <gpxtpx:TrackPointExtension xmlns:gpxtpx="http://www.garmin.com/xmlschemas/TrackPointExtension/v1">
            <gpxtpx:hr>125</gpxtpx:hr>
          </gpxtpx:TrackPointExtension>
        </extensions>
      </trkpt>
      <trkpt lat="50.4923" lon="2.55684">
        <ele>70.8</ele>
        <time>2021-06-24T15:45:47Z</time>
        <extensions>
          <gpxtpx:TrackPointExtension xmlns:gpxtpx="http://www.garmin.com/xmlschemas/TrackPointExtension/v1">
            <gpxtpx:hr>125</gpxtpx:hr>
          </gpxtpx:TrackPointExtension>
        </extensions>
      </trkpt>
      <trkpt lat="50.49228" lon="2.55682">
        <ele>70.6</ele>
        <time>2021-06-24T15:45:48Z</time>
        <extensions>
          <gpxtpx:TrackPointExtension xmlns:gpxtpx="http://www.garmin.com/xmlschemas/TrackPointExtension/v1">
            <gpxtpx:hr>126</gpxtpx:hr>
          </gpxtpx:TrackPointExtension>
        </extensions>
      </trkpt>
      <trkpt lat="50.49226" lon="2.5568">
        <ele>70.6</ele>
        <time>2021-06-24T15:45:49Z</time>
        <extensions>
          <gpxtpx:TrackPointExtension xmlns:gpxtpx="http://www.garmin.com/xmlschemas/TrackPointExtension/v1">
            <gpxtpx:hr>126</gpxtpx:hr>
          </gpxtpx:TrackPointExtension>
        </extensions>
      </trkpt>
      <trkpt lat="50.49223" lon="2.55676">
        <ele>70.2</ele>
        <time>2021-06-24T15:45:51Z</time>
        <extensions>
          <gpxtpx:TrackPointExtension xmlns:gpxtpx="http://www.garmin.com/xmlschemas/TrackPointExtension/v1">
            <gpxtpx:hr>127</gpxtpx:hr>
          </gpxtpx:TrackPointExtension>
        </extensions>
      </trkpt>
      <trkpt lat="50.49222" lon="2.55675">
        <ele>70.2</ele>
        <time>2021-06-24T15:45:52Z</time>
        <extensions>
          <gpxtpx:TrackPointExtension xmlns:gpxtpx="http://www.garmin.com/xmlschemas/TrackPointExtension/v1">
            <gpxtpx:hr>128</gpxtpx:hr>
          </gpxtpx:TrackPointExtension>
        </extensions>
      </trkpt>
      <trkpt lat="50.49221" lon="2.55673">
        <ele>70</ele>
        <time>2021-06-24T15:45:53Z</time>
        <extensions>
          <gpxtpx:TrackPointExtension xmlns:gpxtpx="http://www.garmin.com/xmlschemas/TrackPointExtension/v1">
            <gpxtpx:hr>128</gpxtpx:hr>
          </gpxtpx:TrackPointExtension>
        </extensions>
      </trkpt>
      <trkpt lat="50.4922" lon="2.55671">
        <ele>70</ele>
        <time>2021-06-24T15:45:54Z</time>
        <extensions>
          <gpxtpx:TrackPointExtension xmlns:gpxtpx="http://www.garmin.com/xmlschemas/TrackPointExtension/v1">
            <gpxtpx:hr>129</gpxtpx:hr>
          </gpxtpx:TrackPointExtension>
        </extensions>
      </trkpt>
      <trkpt lat="50.49219" lon="2.55668">
        <ele>69.8</ele>
        <time>2021-06-24T15:45:55Z</time>
        <extensions>
          <gpxtpx:TrackPointExtension xmlns:gpxtpx="http://www.garmin.com/xmlschemas/TrackPointExtension/v1">
            <gpxtpx:hr>129</gpxtpx:hr>
          </gpxtpx:TrackPointExtension>
        </extensions>
      </trkpt>
      <trkpt lat="50.49218" lon="2.55665">
        <ele>69.6</ele>
        <time>2021-06-24T15:45:56Z</time>
        <extensions>
          <gpxtpx:TrackPointExtension xmlns:gpxtpx="http://www.garmin.com/xmlschemas/TrackPointExtension/v1">
            <gpxtpx:hr>129</gpxtpx:hr>
          </gpxtpx:TrackPointExtension>
        </extensions>
      </trkpt>
      <trkpt lat="50.49216" lon="2.55663">
        <ele>69.4</ele>
        <time>2021-06-24T15:45:57Z</time>
        <extensions>
          <gpxtpx:TrackPointExtension xmlns:gpxtpx="http://www.garmin.com/xmlschemas/TrackPointExtension/v1">
            <gpxtpx:hr>129</gpxtpx:hr>
          </gpxtpx:TrackPointExtension>
        </extensions>
      </trkpt>
      <trkpt lat="50.49214" lon="2.55661">
        <ele>69.2</ele>
        <time>2021-06-24T15:45:58Z</time>
        <extensions>
          <gpxtpx:TrackPointExtension xmlns:gpxtpx="http://www.garmin.com/xmlschemas/TrackPointExtension/v1">
            <gpxtpx:hr>129</gpxtpx:hr>
          </gpxtpx:TrackPointExtension>
        </extensions>
      </trkpt>
      <trkpt lat="50.49211" lon="2.55659">
        <ele>69.2</ele>
        <time>2021-06-24T15:45:59Z</time>
        <extensions>
          <gpxtpx:TrackPointExtension xmlns:gpxtpx="http://www.garmin.com/xmlschemas/TrackPointExtension/v1">
            <gpxtpx:hr>129</gpxtpx:hr>
          </gpxtpx:TrackPointExtension>
        </extensions>
      </trkpt>
      <trkpt lat="50.49208" lon="2.55657">
        <ele>69</ele>
        <time>2021-06-24T15:46:00Z</time>
        <extensions>
          <gpxtpx:TrackPointExtension xmlns:gpxtpx="http://www.garmin.com/xmlschemas/TrackPointExtension/v1">
            <gpxtpx:hr>129</gpxtpx:hr>
          </gpxtpx:TrackPointExtension>
        </extensions>
      </trkpt>
      <trkpt lat="50.49204" lon="2.55653">
        <ele>68.6</ele>
        <time>2021-06-24T15:46:02Z</time>
        <extensions>
          <gpxtpx:TrackPointExtension xmlns:gpxtpx="http://www.garmin.com/xmlschemas/TrackPointExtension/v1">
            <gpxtpx:hr>130</gpxtpx:hr>
          </gpxtpx:TrackPointExtension>
        </extensions>
      </trkpt>
      <trkpt lat="50.49202" lon="2.55652">
        <ele>68.6</ele>
        <time>2021-06-24T15:46:03Z</time>
        <extensions>
          <gpxtpx:TrackPointExtension xmlns:gpxtpx="http://www.garmin.com/xmlschemas/TrackPointExtension/v1">
            <gpxtpx:hr>130</gpxtpx:hr>
          </gpxtpx:TrackPointExtension>
        </extensions>
      </trkpt>
      <trkpt lat="50.492" lon="2.55651">
        <ele>68.4</ele>
        <time>2021-06-24T15:46:04Z</time>
        <extensions>
          <gpxtpx:TrackPointExtension xmlns:gpxtpx="http://www.garmin.com/xmlschemas/TrackPointExtension/v1">
            <gpxtpx:hr>131</gpxtpx:hr>
          </gpxtpx:TrackPointExtension>
        </extensions>
      </trkpt>
      <trkpt lat="50.49197" lon="2.55649">
        <ele>68.4</ele>
        <time>2021-06-24T15:46:05Z</time>
        <extensions>
          <gpxtpx:TrackPointExtension xmlns:gpxtpx="http://www.garmin.com/xmlschemas/TrackPointExtension/v1">
            <gpxtpx:hr>131</gpxtpx:hr>
          </gpxtpx:TrackPointExtension>
        </extensions>
      </trkpt>
      <trkpt lat="50.49195" lon="2.55648">
        <ele>68.2</ele>
        <time>2021-06-24T15:46:06Z</time>
        <extensions>
          <gpxtpx:TrackPointExtension xmlns:gpxtpx="http://www.garmin.com/xmlschemas/TrackPointExtension/v1">
            <gpxtpx:hr>132</gpxtpx:hr>
          </gpxtpx:TrackPointExtension>
        </extensions>
      </trkpt>
      <trkpt lat="50.49192" lon="2.55645">
        <ele>68.2</ele>
        <time>2021-06-24T15:46:07Z</time>
        <extensions>
          <gpxtpx:TrackPointExtension xmlns:gpxtpx="http://www.garmin.com/xmlschemas/TrackPointExtension/v1">
            <gpxtpx:hr>132</gpxtpx:hr>
          </gpxtpx:TrackPointExtension>
        </extensions>
      </trkpt>
      <trkpt lat="50.4919" lon="2.55642">
        <ele>68.2</ele>
        <time>2021-06-24T15:46:08Z</time>
        <extensions>
          <gpxtpx:TrackPointExtension xmlns:gpxtpx="http://www.garmin.com/xmlschemas/TrackPointExtension/v1">
            <gpxtpx:hr>133</gpxtpx:hr>
          </gpxtpx:TrackPointExtension>
        </extensions>
      </trkpt>
      <trkpt lat="50.49188" lon="2.55639">
        <ele>68</ele>
        <time>2021-06-24T15:46:09Z</time>
        <extensions>
          <gpxtpx:TrackPointExtension xmlns:gpxtpx="http://www.garmin.com/xmlschemas/TrackPointExtension/v1">
            <gpxtpx:hr>133</gpxtpx:hr>
          </gpxtpx:TrackPointExtension>
        </extensions>
      </trkpt>
      <trkpt lat="50.49185" lon="2.55637">
        <ele>68</ele>
        <time>2021-06-24T15:46:10Z</time>
        <extensions>
          <gpxtpx:TrackPointExtension xmlns:gpxtpx="http://www.garmin.com/xmlschemas/TrackPointExtension/v1">
            <gpxtpx:hr>133</gpxtpx:hr>
          </gpxtpx:TrackPointExtension>
        </extensions>
      </trkpt>
      <trkpt lat="50.49181" lon="2.55634">
        <ele>67.8</ele>
        <time>2021-06-24T15:46:11Z</time>
        <extensions>
          <gpxtpx:TrackPointExtension xmlns:gpxtpx="http://www.garmin.com/xmlschemas/TrackPointExtension/v1">
            <gpxtpx:hr>133</gpxtpx:hr>
          </gpxtpx:TrackPointExtension>
        </extensions>
      </trkpt>
      <trkpt lat="50.49178" lon="2.55631">
        <ele>67.8</ele>
        <time>2021-06-24T15:46:12Z</time>
        <extensions>
          <gpxtpx:TrackPointExtension xmlns:gpxtpx="http://www.garmin.com/xmlschemas/TrackPointExtension/v1">
            <gpxtpx:hr>133</gpxtpx:hr>
          </gpxtpx:TrackPointExtension>
        </extensions>
      </trkpt>
      <trkpt lat="50.49176" lon="2.55629">
        <ele>67.8</ele>
        <time>2021-06-24T15:46:13Z</time>
        <extensions>
          <gpxtpx:TrackPointExtension xmlns:gpxtpx="http://www.garmin.com/xmlschemas/TrackPointExtension/v1">
            <gpxtpx:hr>132</gpxtpx:hr>
          </gpxtpx:TrackPointExtension>
        </extensions>
      </trkpt>
      <trkpt lat="50.49174" lon="2.55628">
        <ele>67.6</ele>
        <time>2021-06-24T15:46:14Z</time>
        <extensions>
          <gpxtpx:TrackPointExtension xmlns:gpxtpx="http://www.garmin.com/xmlschemas/TrackPointExtension/v1">
            <gpxtpx:hr>131</gpxtpx:hr>
          </gpxtpx:TrackPointExtension>
        </extensions>
      </trkpt>
      <trkpt lat="50.49172" lon="2.55626">
        <ele>67.6</ele>
        <time>2021-06-24T15:46:15Z</time>
        <extensions>
          <gpxtpx:TrackPointExtension xmlns:gpxtpx="http://www.garmin.com/xmlschemas/TrackPointExtension/v1">
            <gpxtpx:hr>130</gpxtpx:hr>
          </gpxtpx:TrackPointExtension>
        </extensions>
      </trkpt>
      <trkpt lat="50.49169" lon="2.55625">
        <ele>67.6</ele>
        <time>2021-06-24T15:46:16Z</time>
        <extensions>
          <gpxtpx:TrackPointExtension xmlns:gpxtpx="http://www.garmin.com/xmlschemas/TrackPointExtension/v1">
            <gpxtpx:hr>130</gpxtpx:hr>
          </gpxtpx:TrackPointExtension>
        </extensions>
      </trkpt>
      <trkpt lat="50.49166" lon="2.55623">
        <ele>67.4</ele>
        <time>2021-06-24T15:46:17Z</time>
        <extensions>
          <gpxtpx:TrackPointExtension xmlns:gpxtpx="http://www.garmin.com/xmlschemas/TrackPointExtension/v1">
            <gpxtpx:hr>129</gpxtpx:hr>
          </gpxtpx:TrackPointExtension>
        </extensions>
      </trkpt>
      <trkpt lat="50.49163" lon="2.55621">
        <ele>67.4</ele>
        <time>2021-06-24T15:46:18Z</time>
        <extensions>
          <gpxtpx:TrackPointExtension xmlns:gpxtpx="http://www.garmin.com/xmlschemas/TrackPointExtension/v1">
            <gpxtpx:hr>129</gpxtpx:hr>
          </gpxtpx:TrackPointExtension>
        </extensions>
      </trkpt>
      <trkpt lat="50.49163" lon="2.55621">
        <ele>67.4</ele>
        <time>2021-06-24T15:46:19Z</time>
        <extensions>
          <gpxtpx:TrackPointExtension xmlns:gpxtpx="http://www.garmin.com/xmlschemas/TrackPointExtension/v1">
            <gpxtpx:hr>129</gpxtpx:hr>
          </gpxtpx:TrackPointExtension>
        </extensions>
      </trkpt>
      <trkpt lat="50.49161" lon="2.5562">
        <ele>67.2</ele>
        <time>2021-06-24T15:46:20Z</time>
        <extensions>
          <gpxtpx:TrackPointExtension xmlns:gpxtpx="http://www.garmin.com/xmlschemas/TrackPointExtension/v1">
            <gpxtpx:hr>128</gpxtpx:hr>
          </gpxtpx:TrackPointExtension>
        </extensions>
      </trkpt>
      <trkpt lat="50.4916" lon="2.5562">
        <ele>67.2</ele>
        <time>2021-06-24T15:46:21Z</time>
        <extensions>
          <gpxtpx:TrackPointExtension xmlns:gpxtpx="http://www.garmin.com/xmlschemas/TrackPointExtension/v1">
            <gpxtpx:hr>128</gpxtpx:hr>
          </gpxtpx:TrackPointExtension>
        </extensions>
      </trkpt>
      <trkpt lat="50.49156" lon="2.55621">
        <ele>67</ele>
        <time>2021-06-24T15:46:23Z</time>
        <extensions>
          <gpxtpx:TrackPointExtension xmlns:gpxtpx="http://www.garmin.com/xmlschemas/TrackPointExtension/v1">
            <gpxtpx:hr>127</gpxtpx:hr>
          </gpxtpx:TrackPointExtension>
        </extensions>
      </trkpt>
      <trkpt lat="50.49156" lon="2.5561">
        <ele>67</ele>
        <time>2021-06-24T15:47:05Z</time>
        <extensions>
          <gpxtpx:TrackPointExtension xmlns:gpxtpx="http://www.garmin.com/xmlschemas/TrackPointExtension/v1">
            <gpxtpx:hr>113</gpxtpx:hr>
          </gpxtpx:TrackPointExtension>
        </extensions>
      </trkpt>
      <trkpt lat="50.49156" lon="2.55604">
        <ele>65.6</ele>
        <time>2021-06-24T15:47:07Z</time>
        <extensions>
          <gpxtpx:TrackPointExtension xmlns:gpxtpx="http://www.garmin.com/xmlschemas/TrackPointExtension/v1">
            <gpxtpx:hr>113</gpxtpx:hr>
          </gpxtpx:TrackPointExtension>
        </extensions>
      </trkpt>
      <trkpt lat="50.49156" lon="2.556">
        <ele>65.6</ele>
        <time>2021-06-24T15:47:08Z</time>
        <extensions>
          <gpxtpx:TrackPointExtension xmlns:gpxtpx="http://www.garmin.com/xmlschemas/TrackPointExtension/v1">
            <gpxtpx:hr>113</gpxtpx:hr>
          </gpxtpx:TrackPointExtension>
        </extensions>
      </trkpt>
      <trkpt lat="50.49155" lon="2.55598">
        <ele>65.6</ele>
        <time>2021-06-24T15:47:09Z</time>
        <extensions>
          <gpxtpx:TrackPointExtension xmlns:gpxtpx="http://www.garmin.com/xmlschemas/TrackPointExtension/v1">
            <gpxtpx:hr>113</gpxtpx:hr>
          </gpxtpx:TrackPointExtension>
        </extensions>
      </trkpt>
      <trkpt lat="50.49156" lon="2.55591">
        <ele>64</ele>
        <time>2021-06-24T15:47:27Z</time>
        <extensions>
          <gpxtpx:TrackPointExtension xmlns:gpxtpx="http://www.garmin.com/xmlschemas/TrackPointExtension/v1">
            <gpxtpx:hr>97</gpxtpx:hr>
          </gpxtpx:TrackPointExtension>
        </extensions>
      </trkpt>
      <trkpt lat="50.49157" lon="2.5559">
        <ele>64</ele>
        <time>2021-06-24T15:47:28Z</time>
        <extensions>
          <gpxtpx:TrackPointExtension xmlns:gpxtpx="http://www.garmin.com/xmlschemas/TrackPointExtension/v1">
            <gpxtpx:hr>96</gpxtpx:hr>
          </gpxtpx:TrackPointExtension>
        </extensions>
      </trkpt>
      <trkpt lat="50.49159" lon="2.55589">
        <ele>63.8</ele>
        <time>2021-06-24T15:47:29Z</time>
        <extensions>
          <gpxtpx:TrackPointExtension xmlns:gpxtpx="http://www.garmin.com/xmlschemas/TrackPointExtension/v1">
            <gpxtpx:hr>96</gpxtpx:hr>
          </gpxtpx:TrackPointExtension>
        </extensions>
      </trkpt>
      <trkpt lat="50.4916" lon="2.55589">
        <ele>63.6</ele>
        <time>2021-06-24T15:47:30Z</time>
        <extensions>
          <gpxtpx:TrackPointExtension xmlns:gpxtpx="http://www.garmin.com/xmlschemas/TrackPointExtension/v1">
            <gpxtpx:hr>96</gpxtpx:hr>
          </gpxtpx:TrackPointExtension>
        </extensions>
      </trkpt>
      <trkpt lat="50.49162" lon="2.55591">
        <ele>63.6</ele>
        <time>2021-06-24T15:47:31Z</time>
        <extensions>
          <gpxtpx:TrackPointExtension xmlns:gpxtpx="http://www.garmin.com/xmlschemas/TrackPointExtension/v1">
            <gpxtpx:hr>96</gpxtpx:hr>
          </gpxtpx:TrackPointExtension>
        </extensions>
      </trkpt>
      <trkpt lat="50.49164" lon="2.55593">
        <ele>63.4</ele>
        <time>2021-06-24T15:47:32Z</time>
        <extensions>
          <gpxtpx:TrackPointExtension xmlns:gpxtpx="http://www.garmin.com/xmlschemas/TrackPointExtension/v1">
            <gpxtpx:hr>97</gpxtpx:hr>
          </gpxtpx:TrackPointExtension>
        </extensions>
      </trkpt>
      <trkpt lat="50.49166" lon="2.55594">
        <ele>63.2</ele>
        <time>2021-06-24T15:47:33Z</time>
        <extensions>
          <gpxtpx:TrackPointExtension xmlns:gpxtpx="http://www.garmin.com/xmlschemas/TrackPointExtension/v1">
            <gpxtpx:hr>98</gpxtpx:hr>
          </gpxtpx:TrackPointExtension>
        </extensions>
      </trkpt>
      <trkpt lat="50.49167" lon="2.55595">
        <ele>63</ele>
        <time>2021-06-24T15:47:34Z</time>
        <extensions>
          <gpxtpx:TrackPointExtension xmlns:gpxtpx="http://www.garmin.com/xmlschemas/TrackPointExtension/v1">
            <gpxtpx:hr>100</gpxtpx:hr>
          </gpxtpx:TrackPointExtension>
        </extensions>
      </trkpt>
      <trkpt lat="50.49169" lon="2.55596">
        <ele>63</ele>
        <time>2021-06-24T15:47:35Z</time>
        <extensions>
          <gpxtpx:TrackPointExtension xmlns:gpxtpx="http://www.garmin.com/xmlschemas/TrackPointExtension/v1">
            <gpxtpx:hr>100</gpxtpx:hr>
          </gpxtpx:TrackPointExtension>
        </extensions>
      </trkpt>
      <trkpt lat="50.49169" lon="2.55598">
        <ele>62.8</ele>
        <time>2021-06-24T15:47:36Z</time>
        <extensions>
          <gpxtpx:TrackPointExtension xmlns:gpxtpx="http://www.garmin.com/xmlschemas/TrackPointExtension/v1">
            <gpxtpx:hr>101</gpxtpx:hr>
          </gpxtpx:TrackPointExtension>
        </extensions>
      </trkpt>
      <trkpt lat="50.4917" lon="2.55599">
        <ele>62.6</ele>
        <time>2021-06-24T15:47:37Z</time>
        <extensions>
          <gpxtpx:TrackPointExtension xmlns:gpxtpx="http://www.garmin.com/xmlschemas/TrackPointExtension/v1">
            <gpxtpx:hr>101</gpxtpx:hr>
          </gpxtpx:TrackPointExtension>
        </extensions>
      </trkpt>
      <trkpt lat="50.49172" lon="2.55599">
        <ele>62.6</ele>
        <time>2021-06-24T15:47:38Z</time>
        <extensions>
          <gpxtpx:TrackPointExtension xmlns:gpxtpx="http://www.garmin.com/xmlschemas/TrackPointExtension/v1">
            <gpxtpx:hr>101</gpxtpx:hr>
          </gpxtpx:TrackPointExtension>
        </extensions>
      </trkpt>
      <trkpt lat="50.49173" lon="2.55599">
        <ele>62.6</ele>
        <time>2021-06-24T15:47:39Z</time>
        <extensions>
          <gpxtpx:TrackPointExtension xmlns:gpxtpx="http://www.garmin.com/xmlschemas/TrackPointExtension/v1">
            <gpxtpx:hr>100</gpxtpx:hr>
          </gpxtpx:TrackPointExtension>
        </extensions>
      </trkpt>
      <trkpt lat="50.49175" lon="2.556">
        <ele>62.4</ele>
        <time>2021-06-24T15:47:40Z</time>
        <extensions>
          <gpxtpx:TrackPointExtension xmlns:gpxtpx="http://www.garmin.com/xmlschemas/TrackPointExtension/v1">
            <gpxtpx:hr>100</gpxtpx:hr>
          </gpxtpx:TrackPointExtension>
        </extensions>
      </trkpt>
      <trkpt lat="50.49178" lon="2.55601">
        <ele>62.4</ele>
        <time>2021-06-24T15:47:41Z</time>
        <extensions>
          <gpxtpx:TrackPointExtension xmlns:gpxtpx="http://www.garmin.com/xmlschemas/TrackPointExtension/v1">
            <gpxtpx:hr>99</gpxtpx:hr>
          </gpxtpx:TrackPointExtension>
        </extensions>
      </trkpt>
      <trkpt lat="50.4918" lon="2.55602">
        <ele>62.2</ele>
        <time>2021-06-24T15:47:42Z</time>
        <extensions>
          <gpxtpx:TrackPointExtension xmlns:gpxtpx="http://www.garmin.com/xmlschemas/TrackPointExtension/v1">
            <gpxtpx:hr>99</gpxtpx:hr>
          </gpxtpx:TrackPointExtension>
        </extensions>
      </trkpt>
      <trkpt lat="50.49182" lon="2.55603">
        <ele>62.2</ele>
        <time>2021-06-24T15:47:43Z</time>
        <extensions>
          <gpxtpx:TrackPointExtension xmlns:gpxtpx="http://www.garmin.com/xmlschemas/TrackPointExtension/v1">
            <gpxtpx:hr>99</gpxtpx:hr>
          </gpxtpx:TrackPointExtension>
        </extensions>
      </trkpt>
      <trkpt lat="50.49184" lon="2.55603">
        <ele>62.2</ele>
        <time>2021-06-24T15:47:44Z</time>
        <extensions>
          <gpxtpx:TrackPointExtension xmlns:gpxtpx="http://www.garmin.com/xmlschemas/TrackPointExtension/v1">
            <gpxtpx:hr>99</gpxtpx:hr>
          </gpxtpx:TrackPointExtension>
        </extensions>
      </trkpt>
      <trkpt lat="50.49186" lon="2.55604">
        <ele>62.2</ele>
        <time>2021-06-24T15:47:45Z</time>
        <extensions>
          <gpxtpx:TrackPointExtension xmlns:gpxtpx="http://www.garmin.com/xmlschemas/TrackPointExtension/v1">
            <gpxtpx:hr>99</gpxtpx:hr>
          </gpxtpx:TrackPointExtension>
        </extensions>
      </trkpt>
      <trkpt lat="50.49188" lon="2.55606">
        <ele>62.2</ele>
        <time>2021-06-24T15:47:46Z</time>
        <extensions>
          <gpxtpx:TrackPointExtension xmlns:gpxtpx="http://www.garmin.com/xmlschemas/TrackPointExtension/v1">
            <gpxtpx:hr>99</gpxtpx:hr>
          </gpxtpx:TrackPointExtension>
        </extensions>
      </trkpt>
      <trkpt lat="50.49189" lon="2.55607">
        <ele>62</ele>
        <time>2021-06-24T15:47:47Z</time>
        <extensions>
          <gpxtpx:TrackPointExtension xmlns:gpxtpx="http://www.garmin.com/xmlschemas/TrackPointExtension/v1">
            <gpxtpx:hr>99</gpxtpx:hr>
          </gpxtpx:TrackPointExtension>
        </extensions>
      </trkpt>
      <trkpt lat="50.49192" lon="2.55609">
        <ele>62</ele>
        <time>2021-06-24T15:47:48Z</time>
        <extensions>
          <gpxtpx:TrackPointExtension xmlns:gpxtpx="http://www.garmin.com/xmlschemas/TrackPointExtension/v1">
            <gpxtpx:hr>99</gpxtpx:hr>
          </gpxtpx:TrackPointExtension>
        </extensions>
      </trkpt>
      <trkpt lat="50.49194" lon="2.55611">
        <ele>61.8</ele>
        <time>2021-06-24T15:47:49Z</time>
        <extensions>
          <gpxtpx:TrackPointExtension xmlns:gpxtpx="http://www.garmin.com/xmlschemas/TrackPointExtension/v1">
            <gpxtpx:hr>99</gpxtpx:hr>
          </gpxtpx:TrackPointExtension>
        </extensions>
      </trkpt>
      <trkpt lat="50.49197" lon="2.55613">
        <ele>61.8</ele>
        <time>2021-06-24T15:47:50Z</time>
        <extensions>
          <gpxtpx:TrackPointExtension xmlns:gpxtpx="http://www.garmin.com/xmlschemas/TrackPointExtension/v1">
            <gpxtpx:hr>99</gpxtpx:hr>
          </gpxtpx:TrackPointExtension>
        </extensions>
      </trkpt>
      <trkpt lat="50.492" lon="2.55616">
        <ele>61.8</ele>
        <time>2021-06-24T15:47:51Z</time>
        <extensions>
          <gpxtpx:TrackPointExtension xmlns:gpxtpx="http://www.garmin.com/xmlschemas/TrackPointExtension/v1">
            <gpxtpx:hr>99</gpxtpx:hr>
          </gpxtpx:TrackPointExtension>
        </extensions>
      </trkpt>
      <trkpt lat="50.49203" lon="2.55619">
        <ele>61.6</ele>
        <time>2021-06-24T15:47:52Z</time>
        <extensions>
          <gpxtpx:TrackPointExtension xmlns:gpxtpx="http://www.garmin.com/xmlschemas/TrackPointExtension/v1">
            <gpxtpx:hr>99</gpxtpx:hr>
          </gpxtpx:TrackPointExtension>
        </extensions>
      </trkpt>
      <trkpt lat="50.49205" lon="2.55622">
        <ele>61.4</ele>
        <time>2021-06-24T15:47:53Z</time>
        <extensions>
          <gpxtpx:TrackPointExtension xmlns:gpxtpx="http://www.garmin.com/xmlschemas/TrackPointExtension/v1">
            <gpxtpx:hr>99</gpxtpx:hr>
          </gpxtpx:TrackPointExtension>
        </extensions>
      </trkpt>
      <trkpt lat="50.49207" lon="2.55624">
        <ele>61.4</ele>
        <time>2021-06-24T15:47:54Z</time>
        <extensions>
          <gpxtpx:TrackPointExtension xmlns:gpxtpx="http://www.garmin.com/xmlschemas/TrackPointExtension/v1">
            <gpxtpx:hr>100</gpxtpx:hr>
          </gpxtpx:TrackPointExtension>
        </extensions>
      </trkpt>
      <trkpt lat="50.49209" lon="2.55626">
        <ele>61.2</ele>
        <time>2021-06-24T15:47:55Z</time>
        <extensions>
          <gpxtpx:TrackPointExtension xmlns:gpxtpx="http://www.garmin.com/xmlschemas/TrackPointExtension/v1">
            <gpxtpx:hr>100</gpxtpx:hr>
          </gpxtpx:TrackPointExtension>
        </extensions>
      </trkpt>
      <trkpt lat="50.4921" lon="2.55627">
        <ele>61</ele>
        <time>2021-06-24T15:47:56Z</time>
        <extensions>
          <gpxtpx:TrackPointExtension xmlns:gpxtpx="http://www.garmin.com/xmlschemas/TrackPointExtension/v1">
            <gpxtpx:hr>100</gpxtpx:hr>
          </gpxtpx:TrackPointExtension>
        </extensions>
      </trkpt>
      <trkpt lat="50.49213" lon="2.55628">
        <ele>60.8</ele>
        <time>2021-06-24T15:47:57Z</time>
        <extensions>
          <gpxtpx:TrackPointExtension xmlns:gpxtpx="http://www.garmin.com/xmlschemas/TrackPointExtension/v1">
            <gpxtpx:hr>101</gpxtpx:hr>
          </gpxtpx:TrackPointExtension>
        </extensions>
      </trkpt>
      <trkpt lat="50.49216" lon="2.5563">
        <ele>60.8</ele>
        <time>2021-06-24T15:47:58Z</time>
        <extensions>
          <gpxtpx:TrackPointExtension xmlns:gpxtpx="http://www.garmin.com/xmlschemas/TrackPointExtension/v1">
            <gpxtpx:hr>102</gpxtpx:hr>
          </gpxtpx:TrackPointExtension>
        </extensions>
      </trkpt>
      <trkpt lat="50.4922" lon="2.55632">
        <ele>60.6</ele>
        <time>2021-06-24T15:47:59Z</time>
        <extensions>
          <gpxtpx:TrackPointExtension xmlns:gpxtpx="http://www.garmin.com/xmlschemas/TrackPointExtension/v1">
            <gpxtpx:hr>102</gpxtpx:hr>
          </gpxtpx:TrackPointExtension>
        </extensions>
      </trkpt>
      <trkpt lat="50.49222" lon="2.55635">
        <ele>60.4</ele>
        <time>2021-06-24T15:48:00Z</time>
        <extensions>
          <gpxtpx:TrackPointExtension xmlns:gpxtpx="http://www.garmin.com/xmlschemas/TrackPointExtension/v1">
            <gpxtpx:hr>103</gpxtpx:hr>
          </gpxtpx:TrackPointExtension>
        </extensions>
      </trkpt>
      <trkpt lat="50.49224" lon="2.55638">
        <ele>60.2</ele>
        <time>2021-06-24T15:48:01Z</time>
        <extensions>
          <gpxtpx:TrackPointExtension xmlns:gpxtpx="http://www.garmin.com/xmlschemas/TrackPointExtension/v1">
            <gpxtpx:hr>104</gpxtpx:hr>
          </gpxtpx:TrackPointExtension>
        </extensions>
      </trkpt>
      <trkpt lat="50.49225" lon="2.55639">
        <ele>60.2</ele>
        <time>2021-06-24T15:48:02Z</time>
        <extensions>
          <gpxtpx:TrackPointExtension xmlns:gpxtpx="http://www.garmin.com/xmlschemas/TrackPointExtension/v1">
            <gpxtpx:hr>105</gpxtpx:hr>
          </gpxtpx:TrackPointExtension>
        </extensions>
      </trkpt>
      <trkpt lat="50.49227" lon="2.5564">
        <ele>60</ele>
        <time>2021-06-24T15:48:03Z</time>
        <extensions>
          <gpxtpx:TrackPointExtension xmlns:gpxtpx="http://www.garmin.com/xmlschemas/TrackPointExtension/v1">
            <gpxtpx:hr>105</gpxtpx:hr>
          </gpxtpx:TrackPointExtension>
        </extensions>
      </trkpt>
      <trkpt lat="50.49229" lon="2.55639">
        <ele>59.8</ele>
        <time>2021-06-24T15:48:04Z</time>
        <extensions>
          <gpxtpx:TrackPointExtension xmlns:gpxtpx="http://www.garmin.com/xmlschemas/TrackPointExtension/v1">
            <gpxtpx:hr>106</gpxtpx:hr>
          </gpxtpx:TrackPointExtension>
        </extensions>
      </trkpt>
      <trkpt lat="50.49231" lon="2.55639">
        <ele>59.6</ele>
        <time>2021-06-24T15:48:05Z</time>
        <extensions>
          <gpxtpx:TrackPointExtension xmlns:gpxtpx="http://www.garmin.com/xmlschemas/TrackPointExtension/v1">
            <gpxtpx:hr>107</gpxtpx:hr>
          </gpxtpx:TrackPointExtension>
        </extensions>
      </trkpt>
      <trkpt lat="50.49233" lon="2.55638">
        <ele>59.4</ele>
        <time>2021-06-24T15:48:06Z</time>
        <extensions>
          <gpxtpx:TrackPointExtension xmlns:gpxtpx="http://www.garmin.com/xmlschemas/TrackPointExtension/v1">
            <gpxtpx:hr>107</gpxtpx:hr>
          </gpxtpx:TrackPointExtension>
        </extensions>
      </trkpt>
      <trkpt lat="50.49234" lon="2.55637">
        <ele>59.4</ele>
        <time>2021-06-24T15:48:07Z</time>
        <extensions>
          <gpxtpx:TrackPointExtension xmlns:gpxtpx="http://www.garmin.com/xmlschemas/TrackPointExtension/v1">
            <gpxtpx:hr>108</gpxtpx:hr>
          </gpxtpx:TrackPointExtension>
        </extensions>
      </trkpt>
      <trkpt lat="50.49235" lon="2.55635">
        <ele>59.2</ele>
        <time>2021-06-24T15:48:08Z</time>
        <extensions>
          <gpxtpx:TrackPointExtension xmlns:gpxtpx="http://www.garmin.com/xmlschemas/TrackPointExtension/v1">
            <gpxtpx:hr>108</gpxtpx:hr>
          </gpxtpx:TrackPointExtension>
        </extensions>
      </trkpt>
      <trkpt lat="50.49238" lon="2.55634">
        <ele>58.8</ele>
        <time>2021-06-24T15:48:10Z</time>
        <extensions>
          <gpxtpx:TrackPointExtension xmlns:gpxtpx="http://www.garmin.com/xmlschemas/TrackPointExtension/v1">
            <gpxtpx:hr>108</gpxtpx:hr>
          </gpxtpx:TrackPointExtension>
        </extensions>
      </trkpt>
      <trkpt lat="50.4924" lon="2.55634">
        <ele>58.6</ele>
        <time>2021-06-24T15:48:11Z</time>
        <extensions>
          <gpxtpx:TrackPointExtension xmlns:gpxtpx="http://www.garmin.com/xmlschemas/TrackPointExtension/v1">
            <gpxtpx:hr>108</gpxtpx:hr>
          </gpxtpx:TrackPointExtension>
        </extensions>
      </trkpt>
      <trkpt lat="50.49243" lon="2.55632">
        <ele>58.6</ele>
        <time>2021-06-24T15:48:12Z</time>
        <extensions>
          <gpxtpx:TrackPointExtension xmlns:gpxtpx="http://www.garmin.com/xmlschemas/TrackPointExtension/v1">
            <gpxtpx:hr>108</gpxtpx:hr>
          </gpxtpx:TrackPointExtension>
        </extensions>
      </trkpt>
      <trkpt lat="50.49245" lon="2.5563">
        <ele>58.4</ele>
        <time>2021-06-24T15:48:13Z</time>
        <extensions>
          <gpxtpx:TrackPointExtension xmlns:gpxtpx="http://www.garmin.com/xmlschemas/TrackPointExtension/v1">
            <gpxtpx:hr>109</gpxtpx:hr>
          </gpxtpx:TrackPointExtension>
        </extensions>
      </trkpt>
      <trkpt lat="50.49246" lon="2.55627">
        <ele>58.2</ele>
        <time>2021-06-24T15:48:14Z</time>
        <extensions>
          <gpxtpx:TrackPointExtension xmlns:gpxtpx="http://www.garmin.com/xmlschemas/TrackPointExtension/v1">
            <gpxtpx:hr>109</gpxtpx:hr>
          </gpxtpx:TrackPointExtension>
        </extensions>
      </trkpt>
      <trkpt lat="50.49249" lon="2.55623">
        <ele>58</ele>
        <time>2021-06-24T15:48:15Z</time>
        <extensions>
          <gpxtpx:TrackPointExtension xmlns:gpxtpx="http://www.garmin.com/xmlschemas/TrackPointExtension/v1">
            <gpxtpx:hr>109</gpxtpx:hr>
          </gpxtpx:TrackPointExtension>
        </extensions>
      </trkpt>
      <trkpt lat="50.49251" lon="2.55622">
        <ele>57.8</ele>
        <time>2021-06-24T15:48:16Z</time>
        <extensions>
          <gpxtpx:TrackPointExtension xmlns:gpxtpx="http://www.garmin.com/xmlschemas/TrackPointExtension/v1">
            <gpxtpx:hr>109</gpxtpx:hr>
          </gpxtpx:TrackPointExtension>
        </extensions>
      </trkpt>
      <trkpt lat="50.49252" lon="2.5562">
        <ele>57.6</ele>
        <time>2021-06-24T15:48:17Z</time>
        <extensions>
          <gpxtpx:TrackPointExtension xmlns:gpxtpx="http://www.garmin.com/xmlschemas/TrackPointExtension/v1">
            <gpxtpx:hr>108</gpxtpx:hr>
          </gpxtpx:TrackPointExtension>
        </extensions>
      </trkpt>
      <trkpt lat="50.49255" lon="2.55618">
        <ele>57.4</ele>
        <time>2021-06-24T15:48:18Z</time>
        <extensions>
          <gpxtpx:TrackPointExtension xmlns:gpxtpx="http://www.garmin.com/xmlschemas/TrackPointExtension/v1">
            <gpxtpx:hr>107</gpxtpx:hr>
          </gpxtpx:TrackPointExtension>
        </extensions>
      </trkpt>
      <trkpt lat="50.49257" lon="2.55617">
        <ele>57.2</ele>
        <time>2021-06-24T15:48:19Z</time>
        <extensions>
          <gpxtpx:TrackPointExtension xmlns:gpxtpx="http://www.garmin.com/xmlschemas/TrackPointExtension/v1">
            <gpxtpx:hr>107</gpxtpx:hr>
          </gpxtpx:TrackPointExtension>
        </extensions>
      </trkpt>
      <trkpt lat="50.4926" lon="2.55616">
        <ele>57</ele>
        <time>2021-06-24T15:48:20Z</time>
        <extensions>
          <gpxtpx:TrackPointExtension xmlns:gpxtpx="http://www.garmin.com/xmlschemas/TrackPointExtension/v1">
            <gpxtpx:hr>106</gpxtpx:hr>
          </gpxtpx:TrackPointExtension>
        </extensions>
      </trkpt>
      <trkpt lat="50.49263" lon="2.55616">
        <ele>56.8</ele>
        <time>2021-06-24T15:48:21Z</time>
        <extensions>
          <gpxtpx:TrackPointExtension xmlns:gpxtpx="http://www.garmin.com/xmlschemas/TrackPointExtension/v1">
            <gpxtpx:hr>106</gpxtpx:hr>
          </gpxtpx:TrackPointExtension>
        </extensions>
      </trkpt>
      <trkpt lat="50.49267" lon="2.55615">
        <ele>56.6</ele>
        <time>2021-06-24T15:48:22Z</time>
        <extensions>
          <gpxtpx:TrackPointExtension xmlns:gpxtpx="http://www.garmin.com/xmlschemas/TrackPointExtension/v1">
            <gpxtpx:hr>106</gpxtpx:hr>
          </gpxtpx:TrackPointExtension>
        </extensions>
      </trkpt>
      <trkpt lat="50.49271" lon="2.55613">
        <ele>56.4</ele>
        <time>2021-06-24T15:48:23Z</time>
        <extensions>
          <gpxtpx:TrackPointExtension xmlns:gpxtpx="http://www.garmin.com/xmlschemas/TrackPointExtension/v1">
            <gpxtpx:hr>106</gpxtpx:hr>
          </gpxtpx:TrackPointExtension>
        </extensions>
      </trkpt>
      <trkpt lat="50.49276" lon="2.55612">
        <ele>56.2</ele>
        <time>2021-06-24T15:48:24Z</time>
        <extensions>
          <gpxtpx:TrackPointExtension xmlns:gpxtpx="http://www.garmin.com/xmlschemas/TrackPointExtension/v1">
            <gpxtpx:hr>106</gpxtpx:hr>
          </gpxtpx:TrackPointExtension>
        </extensions>
      </trkpt>
      <trkpt lat="50.4928" lon="2.55611">
        <ele>56</ele>
        <time>2021-06-24T15:48:25Z</time>
        <extensions>
          <gpxtpx:TrackPointExtension xmlns:gpxtpx="http://www.garmin.com/xmlschemas/TrackPointExtension/v1">
            <gpxtpx:hr>106</gpxtpx:hr>
          </gpxtpx:TrackPointExtension>
        </extensions>
      </trkpt>
      <trkpt lat="50.49283" lon="2.55609">
        <ele>55.8</ele>
        <time>2021-06-24T15:48:26Z</time>
        <extensions>
          <gpxtpx:TrackPointExtension xmlns:gpxtpx="http://www.garmin.com/xmlschemas/TrackPointExtension/v1">
            <gpxtpx:hr>106</gpxtpx:hr>
          </gpxtpx:TrackPointExtension>
        </extensions>
      </trkpt>
      <trkpt lat="50.49285" lon="2.55607">
        <ele>55.6</ele>
        <time>2021-06-24T15:48:27Z</time>
        <extensions>
          <gpxtpx:TrackPointExtension xmlns:gpxtpx="http://www.garmin.com/xmlschemas/TrackPointExtension/v1">
            <gpxtpx:hr>106</gpxtpx:hr>
          </gpxtpx:TrackPointExtension>
        </extensions>
      </trkpt>
      <trkpt lat="50.49288" lon="2.55605">
        <ele>55.4</ele>
        <time>2021-06-24T15:48:28Z</time>
        <extensions>
          <gpxtpx:TrackPointExtension xmlns:gpxtpx="http://www.garmin.com/xmlschemas/TrackPointExtension/v1">
            <gpxtpx:hr>106</gpxtpx:hr>
          </gpxtpx:TrackPointExtension>
        </extensions>
      </trkpt>
      <trkpt lat="50.4929" lon="2.55604">
        <ele>55.2</ele>
        <time>2021-06-24T15:48:29Z</time>
        <extensions>
          <gpxtpx:TrackPointExtension xmlns:gpxtpx="http://www.garmin.com/xmlschemas/TrackPointExtension/v1">
            <gpxtpx:hr>106</gpxtpx:hr>
          </gpxtpx:TrackPointExtension>
        </extensions>
      </trkpt>
      <trkpt lat="50.49293" lon="2.55603">
        <ele>55</ele>
        <time>2021-06-24T15:48:30Z</time>
        <extensions>
          <gpxtpx:TrackPointExtension xmlns:gpxtpx="http://www.garmin.com/xmlschemas/TrackPointExtension/v1">
            <gpxtpx:hr>105</gpxtpx:hr>
          </gpxtpx:TrackPointExtension>
        </extensions>
      </trkpt>
      <trkpt lat="50.49295" lon="2.55602">
        <ele>54.8</ele>
        <time>2021-06-24T15:48:31Z</time>
        <extensions>
          <gpxtpx:TrackPointExtension xmlns:gpxtpx="http://www.garmin.com/xmlschemas/TrackPointExtension/v1">
            <gpxtpx:hr>105</gpxtpx:hr>
          </gpxtpx:TrackPointExtension>
        </extensions>
      </trkpt>
      <trkpt lat="50.49299" lon="2.556">
        <ele>54.6</ele>
        <time>2021-06-24T15:48:32Z</time>
        <extensions>
          <gpxtpx:TrackPointExtension xmlns:gpxtpx="http://www.garmin.com/xmlschemas/TrackPointExtension/v1">
            <gpxtpx:hr>104</gpxtpx:hr>
          </gpxtpx:TrackPointExtension>
        </extensions>
      </trkpt>
      <trkpt lat="50.49301" lon="2.55598">
        <ele>54.4</ele>
        <time>2021-06-24T15:48:33Z</time>
        <extensions>
          <gpxtpx:TrackPointExtension xmlns:gpxtpx="http://www.garmin.com/xmlschemas/TrackPointExtension/v1">
            <gpxtpx:hr>103</gpxtpx:hr>
          </gpxtpx:TrackPointExtension>
        </extensions>
      </trkpt>
      <trkpt lat="50.49305" lon="2.55598">
        <ele>54.2</ele>
        <time>2021-06-24T15:48:34Z</time>
        <extensions>
          <gpxtpx:TrackPointExtension xmlns:gpxtpx="http://www.garmin.com/xmlschemas/TrackPointExtension/v1">
            <gpxtpx:hr>102</gpxtpx:hr>
          </gpxtpx:TrackPointExtension>
        </extensions>
      </trkpt>
      <trkpt lat="50.49308" lon="2.55596">
        <ele>54</ele>
        <time>2021-06-24T15:48:35Z</time>
        <extensions>
          <gpxtpx:TrackPointExtension xmlns:gpxtpx="http://www.garmin.com/xmlschemas/TrackPointExtension/v1">
            <gpxtpx:hr>101</gpxtpx:hr>
          </gpxtpx:TrackPointExtension>
        </extensions>
      </trkpt>
      <trkpt lat="50.49312" lon="2.55595">
        <ele>53.6</ele>
        <time>2021-06-24T15:48:36Z</time>
        <extensions>
          <gpxtpx:TrackPointExtension xmlns:gpxtpx="http://www.garmin.com/xmlschemas/TrackPointExtension/v1">
            <gpxtpx:hr>101</gpxtpx:hr>
          </gpxtpx:TrackPointExtension>
        </extensions>
      </trkpt>
      <trkpt lat="50.49316" lon="2.55593">
        <ele>53.4</ele>
        <time>2021-06-24T15:48:37Z</time>
        <extensions>
          <gpxtpx:TrackPointExtension xmlns:gpxtpx="http://www.garmin.com/xmlschemas/TrackPointExtension/v1">
            <gpxtpx:hr>100</gpxtpx:hr>
          </gpxtpx:TrackPointExtension>
        </extensions>
      </trkpt>
      <trkpt lat="50.49319" lon="2.55589">
        <ele>53.2</ele>
        <time>2021-06-24T15:48:38Z</time>
        <extensions>
          <gpxtpx:TrackPointExtension xmlns:gpxtpx="http://www.garmin.com/xmlschemas/TrackPointExtension/v1">
            <gpxtpx:hr>100</gpxtpx:hr>
          </gpxtpx:TrackPointExtension>
        </extensions>
      </trkpt>
      <trkpt lat="50.49321" lon="2.55585">
        <ele>53</ele>
        <time>2021-06-24T15:48:39Z</time>
        <extensions>
          <gpxtpx:TrackPointExtension xmlns:gpxtpx="http://www.garmin.com/xmlschemas/TrackPointExtension/v1">
            <gpxtpx:hr>100</gpxtpx:hr>
          </gpxtpx:TrackPointExtension>
        </extensions>
      </trkpt>
      <trkpt lat="50.49323" lon="2.5558">
        <ele>52.8</ele>
        <time>2021-06-24T15:48:40Z</time>
        <extensions>
          <gpxtpx:TrackPointExtension xmlns:gpxtpx="http://www.garmin.com/xmlschemas/TrackPointExtension/v1">
            <gpxtpx:hr>100</gpxtpx:hr>
          </gpxtpx:TrackPointExtension>
        </extensions>
      </trkpt>
      <trkpt lat="50.49325" lon="2.55575">
        <ele>52.6</ele>
        <time>2021-06-24T15:48:41Z</time>
        <extensions>
          <gpxtpx:TrackPointExtension xmlns:gpxtpx="http://www.garmin.com/xmlschemas/TrackPointExtension/v1">
            <gpxtpx:hr>100</gpxtpx:hr>
          </gpxtpx:TrackPointExtension>
        </extensions>
      </trkpt>
      <trkpt lat="50.49328" lon="2.5557">
        <ele>52.4</ele>
        <time>2021-06-24T15:48:42Z</time>
        <extensions>
          <gpxtpx:TrackPointExtension xmlns:gpxtpx="http://www.garmin.com/xmlschemas/TrackPointExtension/v1">
            <gpxtpx:hr>100</gpxtpx:hr>
          </gpxtpx:TrackPointExtension>
        </extensions>
      </trkpt>
      <trkpt lat="50.49331" lon="2.55566">
        <ele>52.2</ele>
        <time>2021-06-24T15:48:43Z</time>
        <extensions>
          <gpxtpx:TrackPointExtension xmlns:gpxtpx="http://www.garmin.com/xmlschemas/TrackPointExtension/v1">
            <gpxtpx:hr>100</gpxtpx:hr>
          </gpxtpx:TrackPointExtension>
        </extensions>
      </trkpt>
      <trkpt lat="50.49333" lon="2.55561">
        <ele>52</ele>
        <time>2021-06-24T15:48:44Z</time>
        <extensions>
          <gpxtpx:TrackPointExtension xmlns:gpxtpx="http://www.garmin.com/xmlschemas/TrackPointExtension/v1">
            <gpxtpx:hr>99</gpxtpx:hr>
          </gpxtpx:TrackPointExtension>
        </extensions>
      </trkpt>
      <trkpt lat="50.49335" lon="2.55555">
        <ele>51.8</ele>
        <time>2021-06-24T15:48:45Z</time>
        <extensions>
          <gpxtpx:TrackPointExtension xmlns:gpxtpx="http://www.garmin.com/xmlschemas/TrackPointExtension/v1">
            <gpxtpx:hr>99</gpxtpx:hr>
          </gpxtpx:TrackPointExtension>
        </extensions>
      </trkpt>
      <trkpt lat="50.49337" lon="2.5555">
        <ele>51.4</ele>
        <time>2021-06-24T15:48:46Z</time>
        <extensions>
          <gpxtpx:TrackPointExtension xmlns:gpxtpx="http://www.garmin.com/xmlschemas/TrackPointExtension/v1">
            <gpxtpx:hr>99</gpxtpx:hr>
          </gpxtpx:TrackPointExtension>
        </extensions>
      </trkpt>
      <trkpt lat="50.49339" lon="2.55544">
        <ele>51.2</ele>
        <time>2021-06-24T15:48:47Z</time>
        <extensions>
          <gpxtpx:TrackPointExtension xmlns:gpxtpx="http://www.garmin.com/xmlschemas/TrackPointExtension/v1">
            <gpxtpx:hr>99</gpxtpx:hr>
          </gpxtpx:TrackPointExtension>
        </extensions>
      </trkpt>
      <trkpt lat="50.49341" lon="2.55538">
        <ele>51</ele>
        <time>2021-06-24T15:48:48Z</time>
        <extensions>
          <gpxtpx:TrackPointExtension xmlns:gpxtpx="http://www.garmin.com/xmlschemas/TrackPointExtension/v1">
            <gpxtpx:hr>99</gpxtpx:hr>
          </gpxtpx:TrackPointExtension>
        </extensions>
      </trkpt>
      <trkpt lat="50.49343" lon="2.55533">
        <ele>50.6</ele>
        <time>2021-06-24T15:48:49Z</time>
        <extensions>
          <gpxtpx:TrackPointExtension xmlns:gpxtpx="http://www.garmin.com/xmlschemas/TrackPointExtension/v1">
            <gpxtpx:hr>99</gpxtpx:hr>
          </gpxtpx:TrackPointExtension>
        </extensions>
      </trkpt>
      <trkpt lat="50.49345" lon="2.55527">
        <ele>50.4</ele>
        <time>2021-06-24T15:48:50Z</time>
        <extensions>
          <gpxtpx:TrackPointExtension xmlns:gpxtpx="http://www.garmin.com/xmlschemas/TrackPointExtension/v1">
            <gpxtpx:hr>100</gpxtpx:hr>
          </gpxtpx:TrackPointExtension>
        </extensions>
      </trkpt>
      <trkpt lat="50.49347" lon="2.55522">
        <ele>50</ele>
        <time>2021-06-24T15:48:51Z</time>
        <extensions>
          <gpxtpx:TrackPointExtension xmlns:gpxtpx="http://www.garmin.com/xmlschemas/TrackPointExtension/v1">
            <gpxtpx:hr>100</gpxtpx:hr>
          </gpxtpx:TrackPointExtension>
        </extensions>
      </trkpt>
      <trkpt lat="50.49349" lon="2.55517">
        <ele>49.8</ele>
        <time>2021-06-24T15:48:52Z</time>
        <extensions>
          <gpxtpx:TrackPointExtension xmlns:gpxtpx="http://www.garmin.com/xmlschemas/TrackPointExtension/v1">
            <gpxtpx:hr>101</gpxtpx:hr>
          </gpxtpx:TrackPointExtension>
        </extensions>
      </trkpt>
      <trkpt lat="50.49351" lon="2.55511">
        <ele>49.6</ele>
        <time>2021-06-24T15:48:53Z</time>
        <extensions>
          <gpxtpx:TrackPointExtension xmlns:gpxtpx="http://www.garmin.com/xmlschemas/TrackPointExtension/v1">
            <gpxtpx:hr>101</gpxtpx:hr>
          </gpxtpx:TrackPointExtension>
        </extensions>
      </trkpt>
      <trkpt lat="50.49353" lon="2.55505">
        <ele>49.2</ele>
        <time>2021-06-24T15:48:54Z</time>
        <extensions>
          <gpxtpx:TrackPointExtension xmlns:gpxtpx="http://www.garmin.com/xmlschemas/TrackPointExtension/v1">
            <gpxtpx:hr>101</gpxtpx:hr>
          </gpxtpx:TrackPointExtension>
        </extensions>
      </trkpt>
      <trkpt lat="50.49354" lon="2.55499">
        <ele>49</ele>
        <time>2021-06-24T15:48:55Z</time>
        <extensions>
          <gpxtpx:TrackPointExtension xmlns:gpxtpx="http://www.garmin.com/xmlschemas/TrackPointExtension/v1">
            <gpxtpx:hr>102</gpxtpx:hr>
          </gpxtpx:TrackPointExtension>
        </extensions>
      </trkpt>
      <trkpt lat="50.49355" lon="2.55494">
        <ele>48.8</ele>
        <time>2021-06-24T15:48:56Z</time>
        <extensions>
          <gpxtpx:TrackPointExtension xmlns:gpxtpx="http://www.garmin.com/xmlschemas/TrackPointExtension/v1">
            <gpxtpx:hr>102</gpxtpx:hr>
          </gpxtpx:TrackPointExtension>
        </extensions>
      </trkpt>
      <trkpt lat="50.49357" lon="2.55489">
        <ele>48.6</ele>
        <time>2021-06-24T15:48:57Z</time>
        <extensions>
          <gpxtpx:TrackPointExtension xmlns:gpxtpx="http://www.garmin.com/xmlschemas/TrackPointExtension/v1">
            <gpxtpx:hr>101</gpxtpx:hr>
          </gpxtpx:TrackPointExtension>
        </extensions>
      </trkpt>
      <trkpt lat="50.49358" lon="2.55484">
        <ele>48.4</ele>
        <time>2021-06-24T15:48:58Z</time>
        <extensions>
          <gpxtpx:TrackPointExtension xmlns:gpxtpx="http://www.garmin.com/xmlschemas/TrackPointExtension/v1">
            <gpxtpx:hr>101</gpxtpx:hr>
          </gpxtpx:TrackPointExtension>
        </extensions>
      </trkpt>
      <trkpt lat="50.49359" lon="2.55479">
        <ele>48.2</ele>
        <time>2021-06-24T15:48:59Z</time>
        <extensions>
          <gpxtpx:TrackPointExtension xmlns:gpxtpx="http://www.garmin.com/xmlschemas/TrackPointExtension/v1">
            <gpxtpx:hr>100</gpxtpx:hr>
          </gpxtpx:TrackPointExtension>
        </extensions>
      </trkpt>
      <trkpt lat="50.49361" lon="2.55474">
        <ele>48</ele>
        <time>2021-06-24T15:49:00Z</time>
        <extensions>
          <gpxtpx:TrackPointExtension xmlns:gpxtpx="http://www.garmin.com/xmlschemas/TrackPointExtension/v1">
            <gpxtpx:hr>100</gpxtpx:hr>
          </gpxtpx:TrackPointExtension>
        </extensions>
      </trkpt>
      <trkpt lat="50.49362" lon="2.5547">
        <ele>47.8</ele>
        <time>2021-06-24T15:49:01Z</time>
        <extensions>
          <gpxtpx:TrackPointExtension xmlns:gpxtpx="http://www.garmin.com/xmlschemas/TrackPointExtension/v1">
            <gpxtpx:hr>99</gpxtpx:hr>
          </gpxtpx:TrackPointExtension>
        </extensions>
      </trkpt>
      <trkpt lat="50.49364" lon="2.55465">
        <ele>47.6</ele>
        <time>2021-06-24T15:49:02Z</time>
        <extensions>
          <gpxtpx:TrackPointExtension xmlns:gpxtpx="http://www.garmin.com/xmlschemas/TrackPointExtension/v1">
            <gpxtpx:hr>99</gpxtpx:hr>
          </gpxtpx:TrackPointExtension>
        </extensions>
      </trkpt>
      <trkpt lat="50.49366" lon="2.5546">
        <ele>47.4</ele>
        <time>2021-06-24T15:49:03Z</time>
        <extensions>
          <gpxtpx:TrackPointExtension xmlns:gpxtpx="http://www.garmin.com/xmlschemas/TrackPointExtension/v1">
            <gpxtpx:hr>99</gpxtpx:hr>
          </gpxtpx:TrackPointExtension>
        </extensions>
      </trkpt>
      <trkpt lat="50.49367" lon="2.55454">
        <ele>47.2</ele>
        <time>2021-06-24T15:49:04Z</time>
        <extensions>
          <gpxtpx:TrackPointExtension xmlns:gpxtpx="http://www.garmin.com/xmlschemas/TrackPointExtension/v1">
            <gpxtpx:hr>99</gpxtpx:hr>
          </gpxtpx:TrackPointExtension>
        </extensions>
      </trkpt>
      <trkpt lat="50.49369" lon="2.55448">
        <ele>47.2</ele>
        <time>2021-06-24T15:49:05Z</time>
        <extensions>
          <gpxtpx:TrackPointExtension xmlns:gpxtpx="http://www.garmin.com/xmlschemas/TrackPointExtension/v1">
            <gpxtpx:hr>100</gpxtpx:hr>
          </gpxtpx:TrackPointExtension>
        </extensions>
      </trkpt>
      <trkpt lat="50.4937" lon="2.55442">
        <ele>47</ele>
        <time>2021-06-24T15:49:06Z</time>
        <extensions>
          <gpxtpx:TrackPointExtension xmlns:gpxtpx="http://www.garmin.com/xmlschemas/TrackPointExtension/v1">
            <gpxtpx:hr>100</gpxtpx:hr>
          </gpxtpx:TrackPointExtension>
        </extensions>
      </trkpt>
      <trkpt lat="50.49372" lon="2.55436">
        <ele>46.8</ele>
        <time>2021-06-24T15:49:07Z</time>
        <extensions>
          <gpxtpx:TrackPointExtension xmlns:gpxtpx="http://www.garmin.com/xmlschemas/TrackPointExtension/v1">
            <gpxtpx:hr>100</gpxtpx:hr>
          </gpxtpx:TrackPointExtension>
        </extensions>
      </trkpt>
      <trkpt lat="50.49374" lon="2.55429">
        <ele>46.6</ele>
        <time>2021-06-24T15:49:08Z</time>
        <extensions>
          <gpxtpx:TrackPointExtension xmlns:gpxtpx="http://www.garmin.com/xmlschemas/TrackPointExtension/v1">
            <gpxtpx:hr>101</gpxtpx:hr>
          </gpxtpx:TrackPointExtension>
        </extensions>
      </trkpt>
      <trkpt lat="50.49375" lon="2.55423">
        <ele>46.6</ele>
        <time>2021-06-24T15:49:09Z</time>
        <extensions>
          <gpxtpx:TrackPointExtension xmlns:gpxtpx="http://www.garmin.com/xmlschemas/TrackPointExtension/v1">
            <gpxtpx:hr>101</gpxtpx:hr>
          </gpxtpx:TrackPointExtension>
        </extensions>
      </trkpt>
      <trkpt lat="50.49376" lon="2.55417">
        <ele>46.4</ele>
        <time>2021-06-24T15:49:10Z</time>
        <extensions>
          <gpxtpx:TrackPointExtension xmlns:gpxtpx="http://www.garmin.com/xmlschemas/TrackPointExtension/v1">
            <gpxtpx:hr>102</gpxtpx:hr>
          </gpxtpx:TrackPointExtension>
        </extensions>
      </trkpt>
      <trkpt lat="50.49378" lon="2.55411">
        <ele>46.2</ele>
        <time>2021-06-24T15:49:11Z</time>
        <extensions>
          <gpxtpx:TrackPointExtension xmlns:gpxtpx="http://www.garmin.com/xmlschemas/TrackPointExtension/v1">
            <gpxtpx:hr>102</gpxtpx:hr>
          </gpxtpx:TrackPointExtension>
        </extensions>
      </trkpt>
      <trkpt lat="50.49379" lon="2.55404">
        <ele>46</ele>
        <time>2021-06-24T15:49:12Z</time>
        <extensions>
          <gpxtpx:TrackPointExtension xmlns:gpxtpx="http://www.garmin.com/xmlschemas/TrackPointExtension/v1">
            <gpxtpx:hr>102</gpxtpx:hr>
          </gpxtpx:TrackPointExtension>
        </extensions>
      </trkpt>
      <trkpt lat="50.4938" lon="2.55398">
        <ele>46</ele>
        <time>2021-06-24T15:49:13Z</time>
        <extensions>
          <gpxtpx:TrackPointExtension xmlns:gpxtpx="http://www.garmin.com/xmlschemas/TrackPointExtension/v1">
            <gpxtpx:hr>102</gpxtpx:hr>
          </gpxtpx:TrackPointExtension>
        </extensions>
      </trkpt>
      <trkpt lat="50.49381" lon="2.55391">
        <ele>45.8</ele>
        <time>2021-06-24T15:49:14Z</time>
        <extensions>
          <gpxtpx:TrackPointExtension xmlns:gpxtpx="http://www.garmin.com/xmlschemas/TrackPointExtension/v1">
            <gpxtpx:hr>103</gpxtpx:hr>
          </gpxtpx:TrackPointExtension>
        </extensions>
      </trkpt>
      <trkpt lat="50.49383" lon="2.55385">
        <ele>45.8</ele>
        <time>2021-06-24T15:49:15Z</time>
        <extensions>
          <gpxtpx:TrackPointExtension xmlns:gpxtpx="http://www.garmin.com/xmlschemas/TrackPointExtension/v1">
            <gpxtpx:hr>103</gpxtpx:hr>
          </gpxtpx:TrackPointExtension>
        </extensions>
      </trkpt>
      <trkpt lat="50.49384" lon="2.55378">
        <ele>45.6</ele>
        <time>2021-06-24T15:49:16Z</time>
        <extensions>
          <gpxtpx:TrackPointExtension xmlns:gpxtpx="http://www.garmin.com/xmlschemas/TrackPointExtension/v1">
            <gpxtpx:hr>103</gpxtpx:hr>
          </gpxtpx:TrackPointExtension>
        </extensions>
      </trkpt>
      <trkpt lat="50.49386" lon="2.55373">
        <ele>45.6</ele>
        <time>2021-06-24T15:49:17Z</time>
        <extensions>
          <gpxtpx:TrackPointExtension xmlns:gpxtpx="http://www.garmin.com/xmlschemas/TrackPointExtension/v1">
            <gpxtpx:hr>103</gpxtpx:hr>
          </gpxtpx:TrackPointExtension>
        </extensions>
      </trkpt>
      <trkpt lat="50.49387" lon="2.55366">
        <ele>45.4</ele>
        <time>2021-06-24T15:49:18Z</time>
        <extensions>
          <gpxtpx:TrackPointExtension xmlns:gpxtpx="http://www.garmin.com/xmlschemas/TrackPointExtension/v1">
            <gpxtpx:hr>103</gpxtpx:hr>
          </gpxtpx:TrackPointExtension>
        </extensions>
      </trkpt>
      <trkpt lat="50.49388" lon="2.5536">
        <ele>45.4</ele>
        <time>2021-06-24T15:49:19Z</time>
        <extensions>
          <gpxtpx:TrackPointExtension xmlns:gpxtpx="http://www.garmin.com/xmlschemas/TrackPointExtension/v1">
            <gpxtpx:hr>103</gpxtpx:hr>
          </gpxtpx:TrackPointExtension>
        </extensions>
      </trkpt>
      <trkpt lat="50.49389" lon="2.55354">
        <ele>45.4</ele>
        <time>2021-06-24T15:49:20Z</time>
        <extensions>
          <gpxtpx:TrackPointExtension xmlns:gpxtpx="http://www.garmin.com/xmlschemas/TrackPointExtension/v1">
            <gpxtpx:hr>103</gpxtpx:hr>
          </gpxtpx:TrackPointExtension>
        </extensions>
      </trkpt>
      <trkpt lat="50.4939" lon="2.55348">
        <ele>45.4</ele>
        <time>2021-06-24T15:49:21Z</time>
        <extensions>
          <gpxtpx:TrackPointExtension xmlns:gpxtpx="http://www.garmin.com/xmlschemas/TrackPointExtension/v1">
            <gpxtpx:hr>104</gpxtpx:hr>
          </gpxtpx:TrackPointExtension>
        </extensions>
      </trkpt>
      <trkpt lat="50.49392" lon="2.55341">
        <ele>45.2</ele>
        <time>2021-06-24T15:49:22Z</time>
        <extensions>
          <gpxtpx:TrackPointExtension xmlns:gpxtpx="http://www.garmin.com/xmlschemas/TrackPointExtension/v1">
            <gpxtpx:hr>104</gpxtpx:hr>
          </gpxtpx:TrackPointExtension>
        </extensions>
      </trkpt>
      <trkpt lat="50.49393" lon="2.55334">
        <ele>45.2</ele>
        <time>2021-06-24T15:49:23Z</time>
        <extensions>
          <gpxtpx:TrackPointExtension xmlns:gpxtpx="http://www.garmin.com/xmlschemas/TrackPointExtension/v1">
            <gpxtpx:hr>104</gpxtpx:hr>
          </gpxtpx:TrackPointExtension>
        </extensions>
      </trkpt>
      <trkpt lat="50.49394" lon="2.55328">
        <ele>45.2</ele>
        <time>2021-06-24T15:49:24Z</time>
        <extensions>
          <gpxtpx:TrackPointExtension xmlns:gpxtpx="http://www.garmin.com/xmlschemas/TrackPointExtension/v1">
            <gpxtpx:hr>105</gpxtpx:hr>
          </gpxtpx:TrackPointExtension>
        </extensions>
      </trkpt>
      <trkpt lat="50.49396" lon="2.55321">
        <ele>45.2</ele>
        <time>2021-06-24T15:49:25Z</time>
        <extensions>
          <gpxtpx:TrackPointExtension xmlns:gpxtpx="http://www.garmin.com/xmlschemas/TrackPointExtension/v1">
            <gpxtpx:hr>105</gpxtpx:hr>
          </gpxtpx:TrackPointExtension>
        </extensions>
      </trkpt>
      <trkpt lat="50.49396" lon="2.55314">
        <ele>45.2</ele>
        <time>2021-06-24T15:49:26Z</time>
        <extensions>
          <gpxtpx:TrackPointExtension xmlns:gpxtpx="http://www.garmin.com/xmlschemas/TrackPointExtension/v1">
            <gpxtpx:hr>106</gpxtpx:hr>
          </gpxtpx:TrackPointExtension>
        </extensions>
      </trkpt>
      <trkpt lat="50.49398" lon="2.55307">
        <ele>45.2</ele>
        <time>2021-06-24T15:49:27Z</time>
        <extensions>
          <gpxtpx:TrackPointExtension xmlns:gpxtpx="http://www.garmin.com/xmlschemas/TrackPointExtension/v1">
            <gpxtpx:hr>107</gpxtpx:hr>
          </gpxtpx:TrackPointExtension>
        </extensions>
      </trkpt>
      <trkpt lat="50.49399" lon="2.553">
        <ele>45</ele>
        <time>2021-06-24T15:49:28Z</time>
        <extensions>
          <gpxtpx:TrackPointExtension xmlns:gpxtpx="http://www.garmin.com/xmlschemas/TrackPointExtension/v1">
            <gpxtpx:hr>107</gpxtpx:hr>
          </gpxtpx:TrackPointExtension>
        </extensions>
      </trkpt>
      <trkpt lat="50.49401" lon="2.55294">
        <ele>45</ele>
        <time>2021-06-24T15:49:29Z</time>
        <extensions>
          <gpxtpx:TrackPointExtension xmlns:gpxtpx="http://www.garmin.com/xmlschemas/TrackPointExtension/v1">
            <gpxtpx:hr>108</gpxtpx:hr>
          </gpxtpx:TrackPointExtension>
        </extensions>
      </trkpt>
      <trkpt lat="50.49402" lon="2.55287">
        <ele>45</ele>
        <time>2021-06-24T15:49:30Z</time>
        <extensions>
          <gpxtpx:TrackPointExtension xmlns:gpxtpx="http://www.garmin.com/xmlschemas/TrackPointExtension/v1">
            <gpxtpx:hr>108</gpxtpx:hr>
          </gpxtpx:TrackPointExtension>
        </extensions>
      </trkpt>
      <trkpt lat="50.49404" lon="2.5528">
        <ele>45</ele>
        <time>2021-06-24T15:49:31Z</time>
        <extensions>
          <gpxtpx:TrackPointExtension xmlns:gpxtpx="http://www.garmin.com/xmlschemas/TrackPointExtension/v1">
            <gpxtpx:hr>109</gpxtpx:hr>
          </gpxtpx:TrackPointExtension>
        </extensions>
      </trkpt>
      <trkpt lat="50.49404" lon="2.55273">
        <ele>44.8</ele>
        <time>2021-06-24T15:49:32Z</time>
        <extensions>
          <gpxtpx:TrackPointExtension xmlns:gpxtpx="http://www.garmin.com/xmlschemas/TrackPointExtension/v1">
            <gpxtpx:hr>110</gpxtpx:hr>
          </gpxtpx:TrackPointExtension>
        </extensions>
      </trkpt>
      <trkpt lat="50.49406" lon="2.55267">
        <ele>44.8</ele>
        <time>2021-06-24T15:49:33Z</time>
        <extensions>
          <gpxtpx:TrackPointExtension xmlns:gpxtpx="http://www.garmin.com/xmlschemas/TrackPointExtension/v1">
            <gpxtpx:hr>111</gpxtpx:hr>
          </gpxtpx:TrackPointExtension>
        </extensions>
      </trkpt>
      <trkpt lat="50.49407" lon="2.55261">
        <ele>44.8</ele>
        <time>2021-06-24T15:49:34Z</time>
        <extensions>
          <gpxtpx:TrackPointExtension xmlns:gpxtpx="http://www.garmin.com/xmlschemas/TrackPointExtension/v1">
            <gpxtpx:hr>112</gpxtpx:hr>
          </gpxtpx:TrackPointExtension>
        </extensions>
      </trkpt>
      <trkpt lat="50.49408" lon="2.55254">
        <ele>44.8</ele>
        <time>2021-06-24T15:49:35Z</time>
        <extensions>
          <gpxtpx:TrackPointExtension xmlns:gpxtpx="http://www.garmin.com/xmlschemas/TrackPointExtension/v1">
            <gpxtpx:hr>113</gpxtpx:hr>
          </gpxtpx:TrackPointExtension>
        </extensions>
      </trkpt>
      <trkpt lat="50.4941" lon="2.55248">
        <ele>44.8</ele>
        <time>2021-06-24T15:49:36Z</time>
        <extensions>
          <gpxtpx:TrackPointExtension xmlns:gpxtpx="http://www.garmin.com/xmlschemas/TrackPointExtension/v1">
            <gpxtpx:hr>113</gpxtpx:hr>
          </gpxtpx:TrackPointExtension>
        </extensions>
      </trkpt>
      <trkpt lat="50.49411" lon="2.5524">
        <ele>44.8</ele>
        <time>2021-06-24T15:49:37Z</time>
        <extensions>
          <gpxtpx:TrackPointExtension xmlns:gpxtpx="http://www.garmin.com/xmlschemas/TrackPointExtension/v1">
            <gpxtpx:hr>114</gpxtpx:hr>
          </gpxtpx:TrackPointExtension>
        </extensions>
      </trkpt>
      <trkpt lat="50.49412" lon="2.55234">
        <ele>44.8</ele>
        <time>2021-06-24T15:49:38Z</time>
        <extensions>
          <gpxtpx:TrackPointExtension xmlns:gpxtpx="http://www.garmin.com/xmlschemas/TrackPointExtension/v1">
            <gpxtpx:hr>115</gpxtpx:hr>
          </gpxtpx:TrackPointExtension>
        </extensions>
      </trkpt>
      <trkpt lat="50.49414" lon="2.55228">
        <ele>44.8</ele>
        <time>2021-06-24T15:49:39Z</time>
        <extensions>
          <gpxtpx:TrackPointExtension xmlns:gpxtpx="http://www.garmin.com/xmlschemas/TrackPointExtension/v1">
            <gpxtpx:hr>116</gpxtpx:hr>
          </gpxtpx:TrackPointExtension>
        </extensions>
      </trkpt>
      <trkpt lat="50.49415" lon="2.55223">
        <ele>44.8</ele>
        <time>2021-06-24T15:49:40Z</time>
        <extensions>
          <gpxtpx:TrackPointExtension xmlns:gpxtpx="http://www.garmin.com/xmlschemas/TrackPointExtension/v1">
            <gpxtpx:hr>116</gpxtpx:hr>
          </gpxtpx:TrackPointExtension>
        </extensions>
      </trkpt>
      <trkpt lat="50.49418" lon="2.55218">
        <ele>44.8</ele>
        <time>2021-06-24T15:49:41Z</time>
        <extensions>
          <gpxtpx:TrackPointExtension xmlns:gpxtpx="http://www.garmin.com/xmlschemas/TrackPointExtension/v1">
            <gpxtpx:hr>117</gpxtpx:hr>
          </gpxtpx:TrackPointExtension>
        </extensions>
      </trkpt>
      <trkpt lat="50.49421" lon="2.55217">
        <ele>44.6</ele>
        <time>2021-06-24T15:49:42Z</time>
        <extensions>
          <gpxtpx:TrackPointExtension xmlns:gpxtpx="http://www.garmin.com/xmlschemas/TrackPointExtension/v1">
            <gpxtpx:hr>118</gpxtpx:hr>
          </gpxtpx:TrackPointExtension>
        </extensions>
      </trkpt>
      <trkpt lat="50.49424" lon="2.55216">
        <ele>44.6</ele>
        <time>2021-06-24T15:49:43Z</time>
        <extensions>
          <gpxtpx:TrackPointExtension xmlns:gpxtpx="http://www.garmin.com/xmlschemas/TrackPointExtension/v1">
            <gpxtpx:hr>118</gpxtpx:hr>
          </gpxtpx:TrackPointExtension>
        </extensions>
      </trkpt>
      <trkpt lat="50.49427" lon="2.55218">
        <ele>44.6</ele>
        <time>2021-06-24T15:49:44Z</time>
        <extensions>
          <gpxtpx:TrackPointExtension xmlns:gpxtpx="http://www.garmin.com/xmlschemas/TrackPointExtension/v1">
            <gpxtpx:hr>118</gpxtpx:hr>
          </gpxtpx:TrackPointExtension>
        </extensions>
      </trkpt>
      <trkpt lat="50.4943" lon="2.55222">
        <ele>44.6</ele>
        <time>2021-06-24T15:49:45Z</time>
        <extensions>
          <gpxtpx:TrackPointExtension xmlns:gpxtpx="http://www.garmin.com/xmlschemas/TrackPointExtension/v1">
            <gpxtpx:hr>119</gpxtpx:hr>
          </gpxtpx:TrackPointExtension>
        </extensions>
      </trkpt>
      <trkpt lat="50.49435" lon="2.55225">
        <ele>44.4</ele>
        <time>2021-06-24T15:49:46Z</time>
        <extensions>
          <gpxtpx:TrackPointExtension xmlns:gpxtpx="http://www.garmin.com/xmlschemas/TrackPointExtension/v1">
            <gpxtpx:hr>119</gpxtpx:hr>
          </gpxtpx:TrackPointExtension>
        </extensions>
      </trkpt>
      <trkpt lat="50.49437" lon="2.55229">
        <ele>44.4</ele>
        <time>2021-06-24T15:49:47Z</time>
        <extensions>
          <gpxtpx:TrackPointExtension xmlns:gpxtpx="http://www.garmin.com/xmlschemas/TrackPointExtension/v1">
            <gpxtpx:hr>119</gpxtpx:hr>
          </gpxtpx:TrackPointExtension>
        </extensions>
      </trkpt>
      <trkpt lat="50.49442" lon="2.55236">
        <ele>44.4</ele>
        <time>2021-06-24T15:49:48Z</time>
        <extensions>
          <gpxtpx:TrackPointExtension xmlns:gpxtpx="http://www.garmin.com/xmlschemas/TrackPointExtension/v1">
            <gpxtpx:hr>120</gpxtpx:hr>
          </gpxtpx:TrackPointExtension>
        </extensions>
      </trkpt>
      <trkpt lat="50.49445" lon="2.55241">
        <ele>44.2</ele>
        <time>2021-06-24T15:49:49Z</time>
        <extensions>
          <gpxtpx:TrackPointExtension xmlns:gpxtpx="http://www.garmin.com/xmlschemas/TrackPointExtension/v1">
            <gpxtpx:hr>120</gpxtpx:hr>
          </gpxtpx:TrackPointExtension>
        </extensions>
      </trkpt>
      <trkpt lat="50.49448" lon="2.55247">
        <ele>44.2</ele>
        <time>2021-06-24T15:49:50Z</time>
        <extensions>
          <gpxtpx:TrackPointExtension xmlns:gpxtpx="http://www.garmin.com/xmlschemas/TrackPointExtension/v1">
            <gpxtpx:hr>120</gpxtpx:hr>
          </gpxtpx:TrackPointExtension>
        </extensions>
      </trkpt>
      <trkpt lat="50.49452" lon="2.55253">
        <ele>44.2</ele>
        <time>2021-06-24T15:49:51Z</time>
        <extensions>
          <gpxtpx:TrackPointExtension xmlns:gpxtpx="http://www.garmin.com/xmlschemas/TrackPointExtension/v1">
            <gpxtpx:hr>120</gpxtpx:hr>
          </gpxtpx:TrackPointExtension>
        </extensions>
      </trkpt>
      <trkpt lat="50.49456" lon="2.55259">
        <ele>44</ele>
        <time>2021-06-24T15:49:52Z</time>
        <extensions>
          <gpxtpx:TrackPointExtension xmlns:gpxtpx="http://www.garmin.com/xmlschemas/TrackPointExtension/v1">
            <gpxtpx:hr>119</gpxtpx:hr>
          </gpxtpx:TrackPointExtension>
        </extensions>
      </trkpt>
      <trkpt lat="50.4946" lon="2.55265">
        <ele>44</ele>
        <time>2021-06-24T15:49:53Z</time>
        <extensions>
          <gpxtpx:TrackPointExtension xmlns:gpxtpx="http://www.garmin.com/xmlschemas/TrackPointExtension/v1">
            <gpxtpx:hr>119</gpxtpx:hr>
          </gpxtpx:TrackPointExtension>
        </extensions>
      </trkpt>
      <trkpt lat="50.49463" lon="2.55272">
        <ele>43.8</ele>
        <time>2021-06-24T15:49:54Z</time>
        <extensions>
          <gpxtpx:TrackPointExtension xmlns:gpxtpx="http://www.garmin.com/xmlschemas/TrackPointExtension/v1">
            <gpxtpx:hr>119</gpxtpx:hr>
          </gpxtpx:TrackPointExtension>
        </extensions>
      </trkpt>
      <trkpt lat="50.49467" lon="2.55278">
        <ele>43.8</ele>
        <time>2021-06-24T15:49:55Z</time>
        <extensions>
          <gpxtpx:TrackPointExtension xmlns:gpxtpx="http://www.garmin.com/xmlschemas/TrackPointExtension/v1">
            <gpxtpx:hr>120</gpxtpx:hr>
          </gpxtpx:TrackPointExtension>
        </extensions>
      </trkpt>
      <trkpt lat="50.49469" lon="2.55284">
        <ele>43.6</ele>
        <time>2021-06-24T15:49:56Z</time>
        <extensions>
          <gpxtpx:TrackPointExtension xmlns:gpxtpx="http://www.garmin.com/xmlschemas/TrackPointExtension/v1">
            <gpxtpx:hr>120</gpxtpx:hr>
          </gpxtpx:TrackPointExtension>
        </extensions>
      </trkpt>
      <trkpt lat="50.49472" lon="2.5529">
        <ele>43.6</ele>
        <time>2021-06-24T15:49:57Z</time>
        <extensions>
          <gpxtpx:TrackPointExtension xmlns:gpxtpx="http://www.garmin.com/xmlschemas/TrackPointExtension/v1">
            <gpxtpx:hr>121</gpxtpx:hr>
          </gpxtpx:TrackPointExtension>
        </extensions>
      </trkpt>
      <trkpt lat="50.49474" lon="2.55296">
        <ele>43.6</ele>
        <time>2021-06-24T15:49:58Z</time>
        <extensions>
          <gpxtpx:TrackPointExtension xmlns:gpxtpx="http://www.garmin.com/xmlschemas/TrackPointExtension/v1">
            <gpxtpx:hr>122</gpxtpx:hr>
          </gpxtpx:TrackPointExtension>
        </extensions>
      </trkpt>
      <trkpt lat="50.49476" lon="2.55302">
        <ele>43.4</ele>
        <time>2021-06-24T15:49:59Z</time>
        <extensions>
          <gpxtpx:TrackPointExtension xmlns:gpxtpx="http://www.garmin.com/xmlschemas/TrackPointExtension/v1">
            <gpxtpx:hr>123</gpxtpx:hr>
          </gpxtpx:TrackPointExtension>
        </extensions>
      </trkpt>
      <trkpt lat="50.49479" lon="2.55307">
        <ele>43.4</ele>
        <time>2021-06-24T15:50:00Z</time>
        <extensions>
          <gpxtpx:TrackPointExtension xmlns:gpxtpx="http://www.garmin.com/xmlschemas/TrackPointExtension/v1">
            <gpxtpx:hr>124</gpxtpx:hr>
          </gpxtpx:TrackPointExtension>
        </extensions>
      </trkpt>
      <trkpt lat="50.49481" lon="2.55313">
        <ele>43.4</ele>
        <time>2021-06-24T15:50:01Z</time>
        <extensions>
          <gpxtpx:TrackPointExtension xmlns:gpxtpx="http://www.garmin.com/xmlschemas/TrackPointExtension/v1">
            <gpxtpx:hr>124</gpxtpx:hr>
          </gpxtpx:TrackPointExtension>
        </extensions>
      </trkpt>
      <trkpt lat="50.49484" lon="2.5532">
        <ele>43.2</ele>
        <time>2021-06-24T15:50:02Z</time>
        <extensions>
          <gpxtpx:TrackPointExtension xmlns:gpxtpx="http://www.garmin.com/xmlschemas/TrackPointExtension/v1">
            <gpxtpx:hr>123</gpxtpx:hr>
          </gpxtpx:TrackPointExtension>
        </extensions>
      </trkpt>
      <trkpt lat="50.49486" lon="2.55327">
        <ele>43.2</ele>
        <time>2021-06-24T15:50:03Z</time>
        <extensions>
          <gpxtpx:TrackPointExtension xmlns:gpxtpx="http://www.garmin.com/xmlschemas/TrackPointExtension/v1">
            <gpxtpx:hr>123</gpxtpx:hr>
          </gpxtpx:TrackPointExtension>
        </extensions>
      </trkpt>
      <trkpt lat="50.49489" lon="2.55334">
        <ele>43.2</ele>
        <time>2021-06-24T15:50:04Z</time>
        <extensions>
          <gpxtpx:TrackPointExtension xmlns:gpxtpx="http://www.garmin.com/xmlschemas/TrackPointExtension/v1">
            <gpxtpx:hr>122</gpxtpx:hr>
          </gpxtpx:TrackPointExtension>
        </extensions>
      </trkpt>
      <trkpt lat="50.4949" lon="2.55341">
        <ele>43.2</ele>
        <time>2021-06-24T15:50:05Z</time>
        <extensions>
          <gpxtpx:TrackPointExtension xmlns:gpxtpx="http://www.garmin.com/xmlschemas/TrackPointExtension/v1">
            <gpxtpx:hr>122</gpxtpx:hr>
          </gpxtpx:TrackPointExtension>
        </extensions>
      </trkpt>
      <trkpt lat="50.49492" lon="2.55348">
        <ele>43.2</ele>
        <time>2021-06-24T15:50:06Z</time>
        <extensions>
          <gpxtpx:TrackPointExtension xmlns:gpxtpx="http://www.garmin.com/xmlschemas/TrackPointExtension/v1">
            <gpxtpx:hr>121</gpxtpx:hr>
          </gpxtpx:TrackPointExtension>
        </extensions>
      </trkpt>
      <trkpt lat="50.49493" lon="2.55355">
        <ele>43</ele>
        <time>2021-06-24T15:50:07Z</time>
        <extensions>
          <gpxtpx:TrackPointExtension xmlns:gpxtpx="http://www.garmin.com/xmlschemas/TrackPointExtension/v1">
            <gpxtpx:hr>121</gpxtpx:hr>
          </gpxtpx:TrackPointExtension>
        </extensions>
      </trkpt>
      <trkpt lat="50.49494" lon="2.55361">
        <ele>43</ele>
        <time>2021-06-24T15:50:08Z</time>
        <extensions>
          <gpxtpx:TrackPointExtension xmlns:gpxtpx="http://www.garmin.com/xmlschemas/TrackPointExtension/v1">
            <gpxtpx:hr>121</gpxtpx:hr>
          </gpxtpx:TrackPointExtension>
        </extensions>
      </trkpt>
      <trkpt lat="50.49494" lon="2.55367">
        <ele>43</ele>
        <time>2021-06-24T15:50:09Z</time>
        <extensions>
          <gpxtpx:TrackPointExtension xmlns:gpxtpx="http://www.garmin.com/xmlschemas/TrackPointExtension/v1">
            <gpxtpx:hr>121</gpxtpx:hr>
          </gpxtpx:TrackPointExtension>
        </extensions>
      </trkpt>
      <trkpt lat="50.49494" lon="2.55373">
        <ele>43</ele>
        <time>2021-06-24T15:50:10Z</time>
        <extensions>
          <gpxtpx:TrackPointExtension xmlns:gpxtpx="http://www.garmin.com/xmlschemas/TrackPointExtension/v1">
            <gpxtpx:hr>121</gpxtpx:hr>
          </gpxtpx:TrackPointExtension>
        </extensions>
      </trkpt>
      <trkpt lat="50.49494" lon="2.55378">
        <ele>43</ele>
        <time>2021-06-24T15:50:11Z</time>
        <extensions>
          <gpxtpx:TrackPointExtension xmlns:gpxtpx="http://www.garmin.com/xmlschemas/TrackPointExtension/v1">
            <gpxtpx:hr>120</gpxtpx:hr>
          </gpxtpx:TrackPointExtension>
        </extensions>
      </trkpt>
      <trkpt lat="50.49494" lon="2.55382">
        <ele>43</ele>
        <time>2021-06-24T15:50:12Z</time>
        <extensions>
          <gpxtpx:TrackPointExtension xmlns:gpxtpx="http://www.garmin.com/xmlschemas/TrackPointExtension/v1">
            <gpxtpx:hr>120</gpxtpx:hr>
          </gpxtpx:TrackPointExtension>
        </extensions>
      </trkpt>
      <trkpt lat="50.49494" lon="2.55386">
        <ele>42.8</ele>
        <time>2021-06-24T15:50:13Z</time>
        <extensions>
          <gpxtpx:TrackPointExtension xmlns:gpxtpx="http://www.garmin.com/xmlschemas/TrackPointExtension/v1">
            <gpxtpx:hr>119</gpxtpx:hr>
          </gpxtpx:TrackPointExtension>
        </extensions>
      </trkpt>
      <trkpt lat="50.49496" lon="2.55389">
        <ele>42.8</ele>
        <time>2021-06-24T15:50:14Z</time>
        <extensions>
          <gpxtpx:TrackPointExtension xmlns:gpxtpx="http://www.garmin.com/xmlschemas/TrackPointExtension/v1">
            <gpxtpx:hr>119</gpxtpx:hr>
          </gpxtpx:TrackPointExtension>
        </extensions>
      </trkpt>
      <trkpt lat="50.49499" lon="2.55393">
        <ele>42.8</ele>
        <time>2021-06-24T15:50:15Z</time>
        <extensions>
          <gpxtpx:TrackPointExtension xmlns:gpxtpx="http://www.garmin.com/xmlschemas/TrackPointExtension/v1">
            <gpxtpx:hr>118</gpxtpx:hr>
          </gpxtpx:TrackPointExtension>
        </extensions>
      </trkpt>
      <trkpt lat="50.49501" lon="2.55397">
        <ele>42.8</ele>
        <time>2021-06-24T15:50:16Z</time>
        <extensions>
          <gpxtpx:TrackPointExtension xmlns:gpxtpx="http://www.garmin.com/xmlschemas/TrackPointExtension/v1">
            <gpxtpx:hr>117</gpxtpx:hr>
          </gpxtpx:TrackPointExtension>
        </extensions>
      </trkpt>
      <trkpt lat="50.49504" lon="2.55401">
        <ele>42.6</ele>
        <time>2021-06-24T15:50:17Z</time>
        <extensions>
          <gpxtpx:TrackPointExtension xmlns:gpxtpx="http://www.garmin.com/xmlschemas/TrackPointExtension/v1">
            <gpxtpx:hr>117</gpxtpx:hr>
          </gpxtpx:TrackPointExtension>
        </extensions>
      </trkpt>
      <trkpt lat="50.49507" lon="2.55406">
        <ele>42.6</ele>
        <time>2021-06-24T15:50:18Z</time>
        <extensions>
          <gpxtpx:TrackPointExtension xmlns:gpxtpx="http://www.garmin.com/xmlschemas/TrackPointExtension/v1">
            <gpxtpx:hr>116</gpxtpx:hr>
          </gpxtpx:TrackPointExtension>
        </extensions>
      </trkpt>
      <trkpt lat="50.49511" lon="2.55411">
        <ele>42.6</ele>
        <time>2021-06-24T15:50:19Z</time>
        <extensions>
          <gpxtpx:TrackPointExtension xmlns:gpxtpx="http://www.garmin.com/xmlschemas/TrackPointExtension/v1">
            <gpxtpx:hr>115</gpxtpx:hr>
          </gpxtpx:TrackPointExtension>
        </extensions>
      </trkpt>
      <trkpt lat="50.49514" lon="2.55415">
        <ele>42.6</ele>
        <time>2021-06-24T15:50:20Z</time>
        <extensions>
          <gpxtpx:TrackPointExtension xmlns:gpxtpx="http://www.garmin.com/xmlschemas/TrackPointExtension/v1">
            <gpxtpx:hr>115</gpxtpx:hr>
          </gpxtpx:TrackPointExtension>
        </extensions>
      </trkpt>
      <trkpt lat="50.49518" lon="2.55421">
        <ele>42.6</ele>
        <time>2021-06-24T15:50:21Z</time>
        <extensions>
          <gpxtpx:TrackPointExtension xmlns:gpxtpx="http://www.garmin.com/xmlschemas/TrackPointExtension/v1">
            <gpxtpx:hr>114</gpxtpx:hr>
          </gpxtpx:TrackPointExtension>
        </extensions>
      </trkpt>
      <trkpt lat="50.49522" lon="2.55425">
        <ele>42.8</ele>
        <time>2021-06-24T15:50:22Z</time>
        <extensions>
          <gpxtpx:TrackPointExtension xmlns:gpxtpx="http://www.garmin.com/xmlschemas/TrackPointExtension/v1">
            <gpxtpx:hr>113</gpxtpx:hr>
          </gpxtpx:TrackPointExtension>
        </extensions>
      </trkpt>
      <trkpt lat="50.49525" lon="2.55431">
        <ele>42.8</ele>
        <time>2021-06-24T15:50:23Z</time>
        <extensions>
          <gpxtpx:TrackPointExtension xmlns:gpxtpx="http://www.garmin.com/xmlschemas/TrackPointExtension/v1">
            <gpxtpx:hr>112</gpxtpx:hr>
          </gpxtpx:TrackPointExtension>
        </extensions>
      </trkpt>
      <trkpt lat="50.49529" lon="2.55435">
        <ele>42.8</ele>
        <time>2021-06-24T15:50:24Z</time>
        <extensions>
          <gpxtpx:TrackPointExtension xmlns:gpxtpx="http://www.garmin.com/xmlschemas/TrackPointExtension/v1">
            <gpxtpx:hr>111</gpxtpx:hr>
          </gpxtpx:TrackPointExtension>
        </extensions>
      </trkpt>
      <trkpt lat="50.49532" lon="2.55441">
        <ele>42.8</ele>
        <time>2021-06-24T15:50:25Z</time>
        <extensions>
          <gpxtpx:TrackPointExtension xmlns:gpxtpx="http://www.garmin.com/xmlschemas/TrackPointExtension/v1">
            <gpxtpx:hr>111</gpxtpx:hr>
          </gpxtpx:TrackPointExtension>
        </extensions>
      </trkpt>
      <trkpt lat="50.49536" lon="2.55447">
        <ele>42.6</ele>
        <time>2021-06-24T15:50:26Z</time>
        <extensions>
          <gpxtpx:TrackPointExtension xmlns:gpxtpx="http://www.garmin.com/xmlschemas/TrackPointExtension/v1">
            <gpxtpx:hr>111</gpxtpx:hr>
          </gpxtpx:TrackPointExtension>
        </extensions>
      </trkpt>
      <trkpt lat="50.4954" lon="2.55452">
        <ele>42.6</ele>
        <time>2021-06-24T15:50:27Z</time>
        <extensions>
          <gpxtpx:TrackPointExtension xmlns:gpxtpx="http://www.garmin.com/xmlschemas/TrackPointExtension/v1">
            <gpxtpx:hr>111</gpxtpx:hr>
          </gpxtpx:TrackPointExtension>
        </extensions>
      </trkpt>
      <trkpt lat="50.49543" lon="2.55458">
        <ele>42.6</ele>
        <time>2021-06-24T15:50:28Z</time>
        <extensions>
          <gpxtpx:TrackPointExtension xmlns:gpxtpx="http://www.garmin.com/xmlschemas/TrackPointExtension/v1">
            <gpxtpx:hr>111</gpxtpx:hr>
          </gpxtpx:TrackPointExtension>
        </extensions>
      </trkpt>
      <trkpt lat="50.49547" lon="2.55464">
        <ele>42.4</ele>
        <time>2021-06-24T15:50:29Z</time>
        <extensions>
          <gpxtpx:TrackPointExtension xmlns:gpxtpx="http://www.garmin.com/xmlschemas/TrackPointExtension/v1">
            <gpxtpx:hr>111</gpxtpx:hr>
          </gpxtpx:TrackPointExtension>
        </extensions>
      </trkpt>
      <trkpt lat="50.49551" lon="2.55469">
        <ele>42.4</ele>
        <time>2021-06-24T15:50:30Z</time>
        <extensions>
          <gpxtpx:TrackPointExtension xmlns:gpxtpx="http://www.garmin.com/xmlschemas/TrackPointExtension/v1">
            <gpxtpx:hr>111</gpxtpx:hr>
          </gpxtpx:TrackPointExtension>
        </extensions>
      </trkpt>
      <trkpt lat="50.49556" lon="2.55474">
        <ele>42.4</ele>
        <time>2021-06-24T15:50:31Z</time>
        <extensions>
          <gpxtpx:TrackPointExtension xmlns:gpxtpx="http://www.garmin.com/xmlschemas/TrackPointExtension/v1">
            <gpxtpx:hr>111</gpxtpx:hr>
          </gpxtpx:TrackPointExtension>
        </extensions>
      </trkpt>
      <trkpt lat="50.4956" lon="2.55479">
        <ele>42.2</ele>
        <time>2021-06-24T15:50:32Z</time>
        <extensions>
          <gpxtpx:TrackPointExtension xmlns:gpxtpx="http://www.garmin.com/xmlschemas/TrackPointExtension/v1">
            <gpxtpx:hr>111</gpxtpx:hr>
          </gpxtpx:TrackPointExtension>
        </extensions>
      </trkpt>
      <trkpt lat="50.49564" lon="2.55484">
        <ele>42.2</ele>
        <time>2021-06-24T15:50:33Z</time>
        <extensions>
          <gpxtpx:TrackPointExtension xmlns:gpxtpx="http://www.garmin.com/xmlschemas/TrackPointExtension/v1">
            <gpxtpx:hr>111</gpxtpx:hr>
          </gpxtpx:TrackPointExtension>
        </extensions>
      </trkpt>
      <trkpt lat="50.49569" lon="2.55489">
        <ele>42.2</ele>
        <time>2021-06-24T15:50:34Z</time>
        <extensions>
          <gpxtpx:TrackPointExtension xmlns:gpxtpx="http://www.garmin.com/xmlschemas/TrackPointExtension/v1">
            <gpxtpx:hr>111</gpxtpx:hr>
          </gpxtpx:TrackPointExtension>
        </extensions>
      </trkpt>
      <trkpt lat="50.49573" lon="2.55493">
        <ele>42</ele>
        <time>2021-06-24T15:50:35Z</time>
        <extensions>
          <gpxtpx:TrackPointExtension xmlns:gpxtpx="http://www.garmin.com/xmlschemas/TrackPointExtension/v1">
            <gpxtpx:hr>111</gpxtpx:hr>
          </gpxtpx:TrackPointExtension>
        </extensions>
      </trkpt>
      <trkpt lat="50.49577" lon="2.55497">
        <ele>42</ele>
        <time>2021-06-24T15:50:36Z</time>
        <extensions>
          <gpxtpx:TrackPointExtension xmlns:gpxtpx="http://www.garmin.com/xmlschemas/TrackPointExtension/v1">
            <gpxtpx:hr>111</gpxtpx:hr>
          </gpxtpx:TrackPointExtension>
        </extensions>
      </trkpt>
      <trkpt lat="50.49581" lon="2.555">
        <ele>42</ele>
        <time>2021-06-24T15:50:37Z</time>
        <extensions>
          <gpxtpx:TrackPointExtension xmlns:gpxtpx="http://www.garmin.com/xmlschemas/TrackPointExtension/v1">
            <gpxtpx:hr>111</gpxtpx:hr>
          </gpxtpx:TrackPointExtension>
        </extensions>
      </trkpt>
      <trkpt lat="50.49585" lon="2.55505">
        <ele>41.8</ele>
        <time>2021-06-24T15:50:38Z</time>
        <extensions>
          <gpxtpx:TrackPointExtension xmlns:gpxtpx="http://www.garmin.com/xmlschemas/TrackPointExtension/v1">
            <gpxtpx:hr>112</gpxtpx:hr>
          </gpxtpx:TrackPointExtension>
        </extensions>
      </trkpt>
      <trkpt lat="50.49589" lon="2.55508">
        <ele>41.8</ele>
        <time>2021-06-24T15:50:39Z</time>
        <extensions>
          <gpxtpx:TrackPointExtension xmlns:gpxtpx="http://www.garmin.com/xmlschemas/TrackPointExtension/v1">
            <gpxtpx:hr>112</gpxtpx:hr>
          </gpxtpx:TrackPointExtension>
        </extensions>
      </trkpt>
      <trkpt lat="50.49592" lon="2.55512">
        <ele>41.8</ele>
        <time>2021-06-24T15:50:40Z</time>
        <extensions>
          <gpxtpx:TrackPointExtension xmlns:gpxtpx="http://www.garmin.com/xmlschemas/TrackPointExtension/v1">
            <gpxtpx:hr>112</gpxtpx:hr>
          </gpxtpx:TrackPointExtension>
        </extensions>
      </trkpt>
      <trkpt lat="50.49596" lon="2.55517">
        <ele>41.6</ele>
        <time>2021-06-24T15:50:41Z</time>
        <extensions>
          <gpxtpx:TrackPointExtension xmlns:gpxtpx="http://www.garmin.com/xmlschemas/TrackPointExtension/v1">
            <gpxtpx:hr>112</gpxtpx:hr>
          </gpxtpx:TrackPointExtension>
        </extensions>
      </trkpt>
      <trkpt lat="50.49599" lon="2.55522">
        <ele>41.4</ele>
        <time>2021-06-24T15:50:42Z</time>
        <extensions>
          <gpxtpx:TrackPointExtension xmlns:gpxtpx="http://www.garmin.com/xmlschemas/TrackPointExtension/v1">
            <gpxtpx:hr>113</gpxtpx:hr>
          </gpxtpx:TrackPointExtension>
        </extensions>
      </trkpt>
      <trkpt lat="50.49602" lon="2.55526">
        <ele>41.4</ele>
        <time>2021-06-24T15:50:43Z</time>
        <extensions>
          <gpxtpx:TrackPointExtension xmlns:gpxtpx="http://www.garmin.com/xmlschemas/TrackPointExtension/v1">
            <gpxtpx:hr>113</gpxtpx:hr>
          </gpxtpx:TrackPointExtension>
        </extensions>
      </trkpt>
      <trkpt lat="50.49608" lon="2.55532">
        <ele>41.2</ele>
        <time>2021-06-24T15:50:44Z</time>
        <extensions>
          <gpxtpx:TrackPointExtension xmlns:gpxtpx="http://www.garmin.com/xmlschemas/TrackPointExtension/v1">
            <gpxtpx:hr>113</gpxtpx:hr>
          </gpxtpx:TrackPointExtension>
        </extensions>
      </trkpt>
      <trkpt lat="50.49612" lon="2.55538">
        <ele>41</ele>
        <time>2021-06-24T15:50:45Z</time>
        <extensions>
          <gpxtpx:TrackPointExtension xmlns:gpxtpx="http://www.garmin.com/xmlschemas/TrackPointExtension/v1">
            <gpxtpx:hr>113</gpxtpx:hr>
          </gpxtpx:TrackPointExtension>
        </extensions>
      </trkpt>
      <trkpt lat="50.49615" lon="2.55546">
        <ele>40.8</ele>
        <time>2021-06-24T15:50:46Z</time>
        <extensions>
          <gpxtpx:TrackPointExtension xmlns:gpxtpx="http://www.garmin.com/xmlschemas/TrackPointExtension/v1">
            <gpxtpx:hr>113</gpxtpx:hr>
          </gpxtpx:TrackPointExtension>
        </extensions>
      </trkpt>
      <trkpt lat="50.49618" lon="2.55553">
        <ele>40.8</ele>
        <time>2021-06-24T15:50:47Z</time>
        <extensions>
          <gpxtpx:TrackPointExtension xmlns:gpxtpx="http://www.garmin.com/xmlschemas/TrackPointExtension/v1">
            <gpxtpx:hr>113</gpxtpx:hr>
          </gpxtpx:TrackPointExtension>
        </extensions>
      </trkpt>
      <trkpt lat="50.4962" lon="2.55563">
        <ele>40.8</ele>
        <time>2021-06-24T15:50:48Z</time>
        <extensions>
          <gpxtpx:TrackPointExtension xmlns:gpxtpx="http://www.garmin.com/xmlschemas/TrackPointExtension/v1">
            <gpxtpx:hr>114</gpxtpx:hr>
          </gpxtpx:TrackPointExtension>
        </extensions>
      </trkpt>
      <trkpt lat="50.4962" lon="2.55571">
        <ele>40.6</ele>
        <time>2021-06-24T15:50:49Z</time>
        <extensions>
          <gpxtpx:TrackPointExtension xmlns:gpxtpx="http://www.garmin.com/xmlschemas/TrackPointExtension/v1">
            <gpxtpx:hr>114</gpxtpx:hr>
          </gpxtpx:TrackPointExtension>
        </extensions>
      </trkpt>
      <trkpt lat="50.4962" lon="2.55581">
        <ele>40.6</ele>
        <time>2021-06-24T15:50:50Z</time>
        <extensions>
          <gpxtpx:TrackPointExtension xmlns:gpxtpx="http://www.garmin.com/xmlschemas/TrackPointExtension/v1">
            <gpxtpx:hr>115</gpxtpx:hr>
          </gpxtpx:TrackPointExtension>
        </extensions>
      </trkpt>
      <trkpt lat="50.49619" lon="2.5559">
        <ele>40.6</ele>
        <time>2021-06-24T15:50:51Z</time>
        <extensions>
          <gpxtpx:TrackPointExtension xmlns:gpxtpx="http://www.garmin.com/xmlschemas/TrackPointExtension/v1">
            <gpxtpx:hr>116</gpxtpx:hr>
          </gpxtpx:TrackPointExtension>
        </extensions>
      </trkpt>
      <trkpt lat="50.49616" lon="2.55598">
        <ele>40.4</ele>
        <time>2021-06-24T15:50:52Z</time>
        <extensions>
          <gpxtpx:TrackPointExtension xmlns:gpxtpx="http://www.garmin.com/xmlschemas/TrackPointExtension/v1">
            <gpxtpx:hr>116</gpxtpx:hr>
          </gpxtpx:TrackPointExtension>
        </extensions>
      </trkpt>
      <trkpt lat="50.49614" lon="2.55606">
        <ele>40.4</ele>
        <time>2021-06-24T15:50:53Z</time>
        <extensions>
          <gpxtpx:TrackPointExtension xmlns:gpxtpx="http://www.garmin.com/xmlschemas/TrackPointExtension/v1">
            <gpxtpx:hr>116</gpxtpx:hr>
          </gpxtpx:TrackPointExtension>
        </extensions>
      </trkpt>
      <trkpt lat="50.49614" lon="2.55613">
        <ele>40.2</ele>
        <time>2021-06-24T15:50:54Z</time>
        <extensions>
          <gpxtpx:TrackPointExtension xmlns:gpxtpx="http://www.garmin.com/xmlschemas/TrackPointExtension/v1">
            <gpxtpx:hr>116</gpxtpx:hr>
          </gpxtpx:TrackPointExtension>
        </extensions>
      </trkpt>
      <trkpt lat="50.49615" lon="2.55619">
        <ele>40.2</ele>
        <time>2021-06-24T15:50:55Z</time>
        <extensions>
          <gpxtpx:TrackPointExtension xmlns:gpxtpx="http://www.garmin.com/xmlschemas/TrackPointExtension/v1">
            <gpxtpx:hr>116</gpxtpx:hr>
          </gpxtpx:TrackPointExtension>
        </extensions>
      </trkpt>
      <trkpt lat="50.49617" lon="2.55626">
        <ele>40.2</ele>
        <time>2021-06-24T15:50:56Z</time>
        <extensions>
          <gpxtpx:TrackPointExtension xmlns:gpxtpx="http://www.garmin.com/xmlschemas/TrackPointExtension/v1">
            <gpxtpx:hr>115</gpxtpx:hr>
          </gpxtpx:TrackPointExtension>
        </extensions>
      </trkpt>
      <trkpt lat="50.49619" lon="2.55632">
        <ele>40.2</ele>
        <time>2021-06-24T15:50:57Z</time>
        <extensions>
          <gpxtpx:TrackPointExtension xmlns:gpxtpx="http://www.garmin.com/xmlschemas/TrackPointExtension/v1">
            <gpxtpx:hr>115</gpxtpx:hr>
          </gpxtpx:TrackPointExtension>
        </extensions>
      </trkpt>
      <trkpt lat="50.49621" lon="2.55637">
        <ele>40</ele>
        <time>2021-06-24T15:50:58Z</time>
        <extensions>
          <gpxtpx:TrackPointExtension xmlns:gpxtpx="http://www.garmin.com/xmlschemas/TrackPointExtension/v1">
            <gpxtpx:hr>114</gpxtpx:hr>
          </gpxtpx:TrackPointExtension>
        </extensions>
      </trkpt>
      <trkpt lat="50.49625" lon="2.55641">
        <ele>40</ele>
        <time>2021-06-24T15:50:59Z</time>
        <extensions>
          <gpxtpx:TrackPointExtension xmlns:gpxtpx="http://www.garmin.com/xmlschemas/TrackPointExtension/v1">
            <gpxtpx:hr>114</gpxtpx:hr>
          </gpxtpx:TrackPointExtension>
        </extensions>
      </trkpt>
      <trkpt lat="50.49627" lon="2.55643">
        <ele>40</ele>
        <time>2021-06-24T15:51:00Z</time>
        <extensions>
          <gpxtpx:TrackPointExtension xmlns:gpxtpx="http://www.garmin.com/xmlschemas/TrackPointExtension/v1">
            <gpxtpx:hr>113</gpxtpx:hr>
          </gpxtpx:TrackPointExtension>
        </extensions>
      </trkpt>
      <trkpt lat="50.49629" lon="2.55646">
        <ele>39.8</ele>
        <time>2021-06-24T15:51:01Z</time>
        <extensions>
          <gpxtpx:TrackPointExtension xmlns:gpxtpx="http://www.garmin.com/xmlschemas/TrackPointExtension/v1">
            <gpxtpx:hr>113</gpxtpx:hr>
          </gpxtpx:TrackPointExtension>
        </extensions>
      </trkpt>
      <trkpt lat="50.49632" lon="2.5565">
        <ele>39.8</ele>
        <time>2021-06-24T15:51:02Z</time>
        <extensions>
          <gpxtpx:TrackPointExtension xmlns:gpxtpx="http://www.garmin.com/xmlschemas/TrackPointExtension/v1">
            <gpxtpx:hr>112</gpxtpx:hr>
          </gpxtpx:TrackPointExtension>
        </extensions>
      </trkpt>
      <trkpt lat="50.49636" lon="2.55653">
        <ele>39.6</ele>
        <time>2021-06-24T15:51:03Z</time>
        <extensions>
          <gpxtpx:TrackPointExtension xmlns:gpxtpx="http://www.garmin.com/xmlschemas/TrackPointExtension/v1">
            <gpxtpx:hr>112</gpxtpx:hr>
          </gpxtpx:TrackPointExtension>
        </extensions>
      </trkpt>
      <trkpt lat="50.49641" lon="2.55657">
        <ele>39.6</ele>
        <time>2021-06-24T15:51:04Z</time>
        <extensions>
          <gpxtpx:TrackPointExtension xmlns:gpxtpx="http://www.garmin.com/xmlschemas/TrackPointExtension/v1">
            <gpxtpx:hr>111</gpxtpx:hr>
          </gpxtpx:TrackPointExtension>
        </extensions>
      </trkpt>
      <trkpt lat="50.49645" lon="2.55661">
        <ele>39.6</ele>
        <time>2021-06-24T15:51:05Z</time>
        <extensions>
          <gpxtpx:TrackPointExtension xmlns:gpxtpx="http://www.garmin.com/xmlschemas/TrackPointExtension/v1">
            <gpxtpx:hr>111</gpxtpx:hr>
          </gpxtpx:TrackPointExtension>
        </extensions>
      </trkpt>
      <trkpt lat="50.49648" lon="2.55665">
        <ele>39.6</ele>
        <time>2021-06-24T15:51:06Z</time>
        <extensions>
          <gpxtpx:TrackPointExtension xmlns:gpxtpx="http://www.garmin.com/xmlschemas/TrackPointExtension/v1">
            <gpxtpx:hr>111</gpxtpx:hr>
          </gpxtpx:TrackPointExtension>
        </extensions>
      </trkpt>
      <trkpt lat="50.49652" lon="2.55668">
        <ele>39.4</ele>
        <time>2021-06-24T15:51:07Z</time>
        <extensions>
          <gpxtpx:TrackPointExtension xmlns:gpxtpx="http://www.garmin.com/xmlschemas/TrackPointExtension/v1">
            <gpxtpx:hr>110</gpxtpx:hr>
          </gpxtpx:TrackPointExtension>
        </extensions>
      </trkpt>
      <trkpt lat="50.49655" lon="2.55673">
        <ele>39.4</ele>
        <time>2021-06-24T15:51:08Z</time>
        <extensions>
          <gpxtpx:TrackPointExtension xmlns:gpxtpx="http://www.garmin.com/xmlschemas/TrackPointExtension/v1">
            <gpxtpx:hr>110</gpxtpx:hr>
          </gpxtpx:TrackPointExtension>
        </extensions>
      </trkpt>
      <trkpt lat="50.49658" lon="2.55678">
        <ele>39.4</ele>
        <time>2021-06-24T15:51:09Z</time>
        <extensions>
          <gpxtpx:TrackPointExtension xmlns:gpxtpx="http://www.garmin.com/xmlschemas/TrackPointExtension/v1">
            <gpxtpx:hr>109</gpxtpx:hr>
          </gpxtpx:TrackPointExtension>
        </extensions>
      </trkpt>
      <trkpt lat="50.4966" lon="2.55683">
        <ele>39.2</ele>
        <time>2021-06-24T15:51:10Z</time>
        <extensions>
          <gpxtpx:TrackPointExtension xmlns:gpxtpx="http://www.garmin.com/xmlschemas/TrackPointExtension/v1">
            <gpxtpx:hr>108</gpxtpx:hr>
          </gpxtpx:TrackPointExtension>
        </extensions>
      </trkpt>
      <trkpt lat="50.49664" lon="2.55688">
        <ele>39.2</ele>
        <time>2021-06-24T15:51:11Z</time>
        <extensions>
          <gpxtpx:TrackPointExtension xmlns:gpxtpx="http://www.garmin.com/xmlschemas/TrackPointExtension/v1">
            <gpxtpx:hr>108</gpxtpx:hr>
          </gpxtpx:TrackPointExtension>
        </extensions>
      </trkpt>
      <trkpt lat="50.49667" lon="2.55692">
        <ele>39</ele>
        <time>2021-06-24T15:51:12Z</time>
        <extensions>
          <gpxtpx:TrackPointExtension xmlns:gpxtpx="http://www.garmin.com/xmlschemas/TrackPointExtension/v1">
            <gpxtpx:hr>107</gpxtpx:hr>
          </gpxtpx:TrackPointExtension>
        </extensions>
      </trkpt>
      <trkpt lat="50.49671" lon="2.55696">
        <ele>39</ele>
        <time>2021-06-24T15:51:13Z</time>
        <extensions>
          <gpxtpx:TrackPointExtension xmlns:gpxtpx="http://www.garmin.com/xmlschemas/TrackPointExtension/v1">
            <gpxtpx:hr>107</gpxtpx:hr>
          </gpxtpx:TrackPointExtension>
        </extensions>
      </trkpt>
      <trkpt lat="50.49674" lon="2.557">
        <ele>38.8</ele>
        <time>2021-06-24T15:51:14Z</time>
        <extensions>
          <gpxtpx:TrackPointExtension xmlns:gpxtpx="http://www.garmin.com/xmlschemas/TrackPointExtension/v1">
            <gpxtpx:hr>107</gpxtpx:hr>
          </gpxtpx:TrackPointExtension>
        </extensions>
      </trkpt>
      <trkpt lat="50.49678" lon="2.55704">
        <ele>38.8</ele>
        <time>2021-06-24T15:51:15Z</time>
        <extensions>
          <gpxtpx:TrackPointExtension xmlns:gpxtpx="http://www.garmin.com/xmlschemas/TrackPointExtension/v1">
            <gpxtpx:hr>106</gpxtpx:hr>
          </gpxtpx:TrackPointExtension>
        </extensions>
      </trkpt>
      <trkpt lat="50.49681" lon="2.55708">
        <ele>38.6</ele>
        <time>2021-06-24T15:51:16Z</time>
        <extensions>
          <gpxtpx:TrackPointExtension xmlns:gpxtpx="http://www.garmin.com/xmlschemas/TrackPointExtension/v1">
            <gpxtpx:hr>106</gpxtpx:hr>
          </gpxtpx:TrackPointExtension>
        </extensions>
      </trkpt>
      <trkpt lat="50.49683" lon="2.55713">
        <ele>38.6</ele>
        <time>2021-06-24T15:51:17Z</time>
        <extensions>
          <gpxtpx:TrackPointExtension xmlns:gpxtpx="http://www.garmin.com/xmlschemas/TrackPointExtension/v1">
            <gpxtpx:hr>106</gpxtpx:hr>
          </gpxtpx:TrackPointExtension>
        </extensions>
      </trkpt>
      <trkpt lat="50.49684" lon="2.55717">
        <ele>38.4</ele>
        <time>2021-06-24T15:51:18Z</time>
        <extensions>
          <gpxtpx:TrackPointExtension xmlns:gpxtpx="http://www.garmin.com/xmlschemas/TrackPointExtension/v1">
            <gpxtpx:hr>105</gpxtpx:hr>
          </gpxtpx:TrackPointExtension>
        </extensions>
      </trkpt>
      <trkpt lat="50.49686" lon="2.55719">
        <ele>38.4</ele>
        <time>2021-06-24T15:51:19Z</time>
        <extensions>
          <gpxtpx:TrackPointExtension xmlns:gpxtpx="http://www.garmin.com/xmlschemas/TrackPointExtension/v1">
            <gpxtpx:hr>105</gpxtpx:hr>
          </gpxtpx:TrackPointExtension>
        </extensions>
      </trkpt>
      <trkpt lat="50.49688" lon="2.5572">
        <ele>38.2</ele>
        <time>2021-06-24T15:51:20Z</time>
        <extensions>
          <gpxtpx:TrackPointExtension xmlns:gpxtpx="http://www.garmin.com/xmlschemas/TrackPointExtension/v1">
            <gpxtpx:hr>105</gpxtpx:hr>
          </gpxtpx:TrackPointExtension>
        </extensions>
      </trkpt>
      <trkpt lat="50.4969" lon="2.55722">
        <ele>38</ele>
        <time>2021-06-24T15:51:21Z</time>
        <extensions>
          <gpxtpx:TrackPointExtension xmlns:gpxtpx="http://www.garmin.com/xmlschemas/TrackPointExtension/v1">
            <gpxtpx:hr>105</gpxtpx:hr>
          </gpxtpx:TrackPointExtension>
        </extensions>
      </trkpt>
      <trkpt lat="50.49692" lon="2.55724">
        <ele>38</ele>
        <time>2021-06-24T15:51:22Z</time>
        <extensions>
          <gpxtpx:TrackPointExtension xmlns:gpxtpx="http://www.garmin.com/xmlschemas/TrackPointExtension/v1">
            <gpxtpx:hr>104</gpxtpx:hr>
          </gpxtpx:TrackPointExtension>
        </extensions>
      </trkpt>
      <trkpt lat="50.49695" lon="2.55725">
        <ele>37.8</ele>
        <time>2021-06-24T15:51:23Z</time>
        <extensions>
          <gpxtpx:TrackPointExtension xmlns:gpxtpx="http://www.garmin.com/xmlschemas/TrackPointExtension/v1">
            <gpxtpx:hr>104</gpxtpx:hr>
          </gpxtpx:TrackPointExtension>
        </extensions>
      </trkpt>
      <trkpt lat="50.49698" lon="2.55727">
        <ele>37.8</ele>
        <time>2021-06-24T15:51:24Z</time>
        <extensions>
          <gpxtpx:TrackPointExtension xmlns:gpxtpx="http://www.garmin.com/xmlschemas/TrackPointExtension/v1">
            <gpxtpx:hr>104</gpxtpx:hr>
          </gpxtpx:TrackPointExtension>
        </extensions>
      </trkpt>
      <trkpt lat="50.497" lon="2.55728">
        <ele>37.6</ele>
        <time>2021-06-24T15:51:25Z</time>
        <extensions>
          <gpxtpx:TrackPointExtension xmlns:gpxtpx="http://www.garmin.com/xmlschemas/TrackPointExtension/v1">
            <gpxtpx:hr>104</gpxtpx:hr>
          </gpxtpx:TrackPointExtension>
        </extensions>
      </trkpt>
      <trkpt lat="50.49704" lon="2.5573">
        <ele>37.6</ele>
        <time>2021-06-24T15:51:26Z</time>
        <extensions>
          <gpxtpx:TrackPointExtension xmlns:gpxtpx="http://www.garmin.com/xmlschemas/TrackPointExtension/v1">
            <gpxtpx:hr>104</gpxtpx:hr>
          </gpxtpx:TrackPointExtension>
        </extensions>
      </trkpt>
      <trkpt lat="50.49707" lon="2.55733">
        <ele>37.4</ele>
        <time>2021-06-24T15:51:27Z</time>
        <extensions>
          <gpxtpx:TrackPointExtension xmlns:gpxtpx="http://www.garmin.com/xmlschemas/TrackPointExtension/v1">
            <gpxtpx:hr>104</gpxtpx:hr>
          </gpxtpx:TrackPointExtension>
        </extensions>
      </trkpt>
      <trkpt lat="50.4971" lon="2.55736">
        <ele>37.2</ele>
        <time>2021-06-24T15:51:28Z</time>
        <extensions>
          <gpxtpx:TrackPointExtension xmlns:gpxtpx="http://www.garmin.com/xmlschemas/TrackPointExtension/v1">
            <gpxtpx:hr>105</gpxtpx:hr>
          </gpxtpx:TrackPointExtension>
        </extensions>
      </trkpt>
      <trkpt lat="50.49714" lon="2.55739">
        <ele>37.2</ele>
        <time>2021-06-24T15:51:29Z</time>
        <extensions>
          <gpxtpx:TrackPointExtension xmlns:gpxtpx="http://www.garmin.com/xmlschemas/TrackPointExtension/v1">
            <gpxtpx:hr>104</gpxtpx:hr>
          </gpxtpx:TrackPointExtension>
        </extensions>
      </trkpt>
      <trkpt lat="50.49717" lon="2.55742">
        <ele>37</ele>
        <time>2021-06-24T15:51:30Z</time>
        <extensions>
          <gpxtpx:TrackPointExtension xmlns:gpxtpx="http://www.garmin.com/xmlschemas/TrackPointExtension/v1">
            <gpxtpx:hr>104</gpxtpx:hr>
          </gpxtpx:TrackPointExtension>
        </extensions>
      </trkpt>
      <trkpt lat="50.4972" lon="2.55745">
        <ele>37</ele>
        <time>2021-06-24T15:51:31Z</time>
        <extensions>
          <gpxtpx:TrackPointExtension xmlns:gpxtpx="http://www.garmin.com/xmlschemas/TrackPointExtension/v1">
            <gpxtpx:hr>104</gpxtpx:hr>
          </gpxtpx:TrackPointExtension>
        </extensions>
      </trkpt>
      <trkpt lat="50.49722" lon="2.55747">
        <ele>37</ele>
        <time>2021-06-24T15:51:32Z</time>
        <extensions>
          <gpxtpx:TrackPointExtension xmlns:gpxtpx="http://www.garmin.com/xmlschemas/TrackPointExtension/v1">
            <gpxtpx:hr>104</gpxtpx:hr>
          </gpxtpx:TrackPointExtension>
        </extensions>
      </trkpt>
      <trkpt lat="50.49724" lon="2.55748">
        <ele>36.8</ele>
        <time>2021-06-24T15:51:33Z</time>
        <extensions>
          <gpxtpx:TrackPointExtension xmlns:gpxtpx="http://www.garmin.com/xmlschemas/TrackPointExtension/v1">
            <gpxtpx:hr>104</gpxtpx:hr>
          </gpxtpx:TrackPointExtension>
        </extensions>
      </trkpt>
      <trkpt lat="50.49726" lon="2.5575">
        <ele>36.8</ele>
        <time>2021-06-24T15:51:34Z</time>
        <extensions>
          <gpxtpx:TrackPointExtension xmlns:gpxtpx="http://www.garmin.com/xmlschemas/TrackPointExtension/v1">
            <gpxtpx:hr>104</gpxtpx:hr>
          </gpxtpx:TrackPointExtension>
        </extensions>
      </trkpt>
      <trkpt lat="50.49728" lon="2.55752">
        <ele>36.8</ele>
        <time>2021-06-24T15:51:35Z</time>
        <extensions>
          <gpxtpx:TrackPointExtension xmlns:gpxtpx="http://www.garmin.com/xmlschemas/TrackPointExtension/v1">
            <gpxtpx:hr>104</gpxtpx:hr>
          </gpxtpx:TrackPointExtension>
        </extensions>
      </trkpt>
      <trkpt lat="50.4973" lon="2.55754">
        <ele>36.8</ele>
        <time>2021-06-24T15:51:36Z</time>
        <extensions>
          <gpxtpx:TrackPointExtension xmlns:gpxtpx="http://www.garmin.com/xmlschemas/TrackPointExtension/v1">
            <gpxtpx:hr>104</gpxtpx:hr>
          </gpxtpx:TrackPointExtension>
        </extensions>
      </trkpt>
      <trkpt lat="50.49732" lon="2.55757">
        <ele>36.6</ele>
        <time>2021-06-24T15:51:37Z</time>
        <extensions>
          <gpxtpx:TrackPointExtension xmlns:gpxtpx="http://www.garmin.com/xmlschemas/TrackPointExtension/v1">
            <gpxtpx:hr>104</gpxtpx:hr>
          </gpxtpx:TrackPointExtension>
        </extensions>
      </trkpt>
      <trkpt lat="50.49733" lon="2.55759">
        <ele>36.6</ele>
        <time>2021-06-24T15:51:38Z</time>
        <extensions>
          <gpxtpx:TrackPointExtension xmlns:gpxtpx="http://www.garmin.com/xmlschemas/TrackPointExtension/v1">
            <gpxtpx:hr>104</gpxtpx:hr>
          </gpxtpx:TrackPointExtension>
        </extensions>
      </trkpt>
      <trkpt lat="50.49736" lon="2.55762">
        <ele>36.6</ele>
        <time>2021-06-24T15:51:39Z</time>
        <extensions>
          <gpxtpx:TrackPointExtension xmlns:gpxtpx="http://www.garmin.com/xmlschemas/TrackPointExtension/v1">
            <gpxtpx:hr>104</gpxtpx:hr>
          </gpxtpx:TrackPointExtension>
        </extensions>
      </trkpt>
      <trkpt lat="50.49739" lon="2.55765">
        <ele>36.6</ele>
        <time>2021-06-24T15:51:40Z</time>
        <extensions>
          <gpxtpx:TrackPointExtension xmlns:gpxtpx="http://www.garmin.com/xmlschemas/TrackPointExtension/v1">
            <gpxtpx:hr>104</gpxtpx:hr>
          </gpxtpx:TrackPointExtension>
        </extensions>
      </trkpt>
      <trkpt lat="50.49742" lon="2.55767">
        <ele>36.6</ele>
        <time>2021-06-24T15:51:41Z</time>
        <extensions>
          <gpxtpx:TrackPointExtension xmlns:gpxtpx="http://www.garmin.com/xmlschemas/TrackPointExtension/v1">
            <gpxtpx:hr>104</gpxtpx:hr>
          </gpxtpx:TrackPointExtension>
        </extensions>
      </trkpt>
      <trkpt lat="50.49744" lon="2.55771">
        <ele>36.6</ele>
        <time>2021-06-24T15:51:42Z</time>
        <extensions>
          <gpxtpx:TrackPointExtension xmlns:gpxtpx="http://www.garmin.com/xmlschemas/TrackPointExtension/v1">
            <gpxtpx:hr>103</gpxtpx:hr>
          </gpxtpx:TrackPointExtension>
        </extensions>
      </trkpt>
      <trkpt lat="50.49745" lon="2.55775">
        <ele>36.6</ele>
        <time>2021-06-24T15:51:43Z</time>
        <extensions>
          <gpxtpx:TrackPointExtension xmlns:gpxtpx="http://www.garmin.com/xmlschemas/TrackPointExtension/v1">
            <gpxtpx:hr>102</gpxtpx:hr>
          </gpxtpx:TrackPointExtension>
        </extensions>
      </trkpt>
      <trkpt lat="50.49747" lon="2.55778">
        <ele>36.4</ele>
        <time>2021-06-24T15:51:44Z</time>
        <extensions>
          <gpxtpx:TrackPointExtension xmlns:gpxtpx="http://www.garmin.com/xmlschemas/TrackPointExtension/v1">
            <gpxtpx:hr>102</gpxtpx:hr>
          </gpxtpx:TrackPointExtension>
        </extensions>
      </trkpt>
      <trkpt lat="50.49748" lon="2.55784">
        <ele>36.4</ele>
        <time>2021-06-24T15:51:45Z</time>
        <extensions>
          <gpxtpx:TrackPointExtension xmlns:gpxtpx="http://www.garmin.com/xmlschemas/TrackPointExtension/v1">
            <gpxtpx:hr>102</gpxtpx:hr>
          </gpxtpx:TrackPointExtension>
        </extensions>
      </trkpt>
      <trkpt lat="50.4975" lon="2.55787">
        <ele>36.4</ele>
        <time>2021-06-24T15:51:46Z</time>
        <extensions>
          <gpxtpx:TrackPointExtension xmlns:gpxtpx="http://www.garmin.com/xmlschemas/TrackPointExtension/v1">
            <gpxtpx:hr>102</gpxtpx:hr>
          </gpxtpx:TrackPointExtension>
        </extensions>
      </trkpt>
      <trkpt lat="50.49751" lon="2.55791">
        <ele>36.4</ele>
        <time>2021-06-24T15:51:47Z</time>
        <extensions>
          <gpxtpx:TrackPointExtension xmlns:gpxtpx="http://www.garmin.com/xmlschemas/TrackPointExtension/v1">
            <gpxtpx:hr>103</gpxtpx:hr>
          </gpxtpx:TrackPointExtension>
        </extensions>
      </trkpt>
      <trkpt lat="50.49753" lon="2.55795">
        <ele>36.4</ele>
        <time>2021-06-24T15:51:48Z</time>
        <extensions>
          <gpxtpx:TrackPointExtension xmlns:gpxtpx="http://www.garmin.com/xmlschemas/TrackPointExtension/v1">
            <gpxtpx:hr>102</gpxtpx:hr>
          </gpxtpx:TrackPointExtension>
        </extensions>
      </trkpt>
      <trkpt lat="50.49754" lon="2.55798">
        <ele>36.2</ele>
        <time>2021-06-24T15:51:49Z</time>
        <extensions>
          <gpxtpx:TrackPointExtension xmlns:gpxtpx="http://www.garmin.com/xmlschemas/TrackPointExtension/v1">
            <gpxtpx:hr>102</gpxtpx:hr>
          </gpxtpx:TrackPointExtension>
        </extensions>
      </trkpt>
      <trkpt lat="50.49757" lon="2.55803">
        <ele>36.2</ele>
        <time>2021-06-24T15:51:51Z</time>
        <extensions>
          <gpxtpx:TrackPointExtension xmlns:gpxtpx="http://www.garmin.com/xmlschemas/TrackPointExtension/v1">
            <gpxtpx:hr>102</gpxtpx:hr>
          </gpxtpx:TrackPointExtension>
        </extensions>
      </trkpt>
      <trkpt lat="50.49758" lon="2.55805">
        <ele>36</ele>
        <time>2021-06-24T15:51:52Z</time>
        <extensions>
          <gpxtpx:TrackPointExtension xmlns:gpxtpx="http://www.garmin.com/xmlschemas/TrackPointExtension/v1">
            <gpxtpx:hr>102</gpxtpx:hr>
          </gpxtpx:TrackPointExtension>
        </extensions>
      </trkpt>
      <trkpt lat="50.4976" lon="2.55808">
        <ele>36</ele>
        <time>2021-06-24T15:51:53Z</time>
        <extensions>
          <gpxtpx:TrackPointExtension xmlns:gpxtpx="http://www.garmin.com/xmlschemas/TrackPointExtension/v1">
            <gpxtpx:hr>102</gpxtpx:hr>
          </gpxtpx:TrackPointExtension>
        </extensions>
      </trkpt>
      <trkpt lat="50.49761" lon="2.55811">
        <ele>35.8</ele>
        <time>2021-06-24T15:51:54Z</time>
        <extensions>
          <gpxtpx:TrackPointExtension xmlns:gpxtpx="http://www.garmin.com/xmlschemas/TrackPointExtension/v1">
            <gpxtpx:hr>102</gpxtpx:hr>
          </gpxtpx:TrackPointExtension>
        </extensions>
      </trkpt>
      <trkpt lat="50.49761" lon="2.55815">
        <ele>35.6</ele>
        <time>2021-06-24T15:51:55Z</time>
        <extensions>
          <gpxtpx:TrackPointExtension xmlns:gpxtpx="http://www.garmin.com/xmlschemas/TrackPointExtension/v1">
            <gpxtpx:hr>102</gpxtpx:hr>
          </gpxtpx:TrackPointExtension>
        </extensions>
      </trkpt>
      <trkpt lat="50.49763" lon="2.55817">
        <ele>35.6</ele>
        <time>2021-06-24T15:51:56Z</time>
        <extensions>
          <gpxtpx:TrackPointExtension xmlns:gpxtpx="http://www.garmin.com/xmlschemas/TrackPointExtension/v1">
            <gpxtpx:hr>102</gpxtpx:hr>
          </gpxtpx:TrackPointExtension>
        </extensions>
      </trkpt>
      <trkpt lat="50.49765" lon="2.5582">
        <ele>35.4</ele>
        <time>2021-06-24T15:51:57Z</time>
        <extensions>
          <gpxtpx:TrackPointExtension xmlns:gpxtpx="http://www.garmin.com/xmlschemas/TrackPointExtension/v1">
            <gpxtpx:hr>101</gpxtpx:hr>
          </gpxtpx:TrackPointExtension>
        </extensions>
      </trkpt>
      <trkpt lat="50.49766" lon="2.5582">
        <ele>35.2</ele>
        <time>2021-06-24T15:51:58Z</time>
        <extensions>
          <gpxtpx:TrackPointExtension xmlns:gpxtpx="http://www.garmin.com/xmlschemas/TrackPointExtension/v1">
            <gpxtpx:hr>101</gpxtpx:hr>
          </gpxtpx:TrackPointExtension>
        </extensions>
      </trkpt>
      <trkpt lat="50.49768" lon="2.55822">
        <ele>35.2</ele>
        <time>2021-06-24T15:51:59Z</time>
        <extensions>
          <gpxtpx:TrackPointExtension xmlns:gpxtpx="http://www.garmin.com/xmlschemas/TrackPointExtension/v1">
            <gpxtpx:hr>101</gpxtpx:hr>
          </gpxtpx:TrackPointExtension>
        </extensions>
      </trkpt>
      <trkpt lat="50.49771" lon="2.55827">
        <ele>35</ele>
        <time>2021-06-24T15:52:01Z</time>
        <extensions>
          <gpxtpx:TrackPointExtension xmlns:gpxtpx="http://www.garmin.com/xmlschemas/TrackPointExtension/v1">
            <gpxtpx:hr>102</gpxtpx:hr>
          </gpxtpx:TrackPointExtension>
        </extensions>
      </trkpt>
      <trkpt lat="50.49772" lon="2.55829">
        <ele>34.8</ele>
        <time>2021-06-24T15:52:02Z</time>
        <extensions>
          <gpxtpx:TrackPointExtension xmlns:gpxtpx="http://www.garmin.com/xmlschemas/TrackPointExtension/v1">
            <gpxtpx:hr>102</gpxtpx:hr>
          </gpxtpx:TrackPointExtension>
        </extensions>
      </trkpt>
      <trkpt lat="50.49773" lon="2.5583">
        <ele>34.8</ele>
        <time>2021-06-24T15:52:03Z</time>
        <extensions>
          <gpxtpx:TrackPointExtension xmlns:gpxtpx="http://www.garmin.com/xmlschemas/TrackPointExtension/v1">
            <gpxtpx:hr>102</gpxtpx:hr>
          </gpxtpx:TrackPointExtension>
        </extensions>
      </trkpt>
      <trkpt lat="50.49774" lon="2.55832">
        <ele>34.8</ele>
        <time>2021-06-24T15:52:04Z</time>
        <extensions>
          <gpxtpx:TrackPointExtension xmlns:gpxtpx="http://www.garmin.com/xmlschemas/TrackPointExtension/v1">
            <gpxtpx:hr>102</gpxtpx:hr>
          </gpxtpx:TrackPointExtension>
        </extensions>
      </trkpt>
      <trkpt lat="50.49776" lon="2.55834">
        <ele>34.8</ele>
        <time>2021-06-24T15:52:05Z</time>
        <extensions>
          <gpxtpx:TrackPointExtension xmlns:gpxtpx="http://www.garmin.com/xmlschemas/TrackPointExtension/v1">
            <gpxtpx:hr>103</gpxtpx:hr>
          </gpxtpx:TrackPointExtension>
        </extensions>
      </trkpt>
      <trkpt lat="50.49777" lon="2.55836">
        <ele>34.8</ele>
        <time>2021-06-24T15:52:06Z</time>
        <extensions>
          <gpxtpx:TrackPointExtension xmlns:gpxtpx="http://www.garmin.com/xmlschemas/TrackPointExtension/v1">
            <gpxtpx:hr>102</gpxtpx:hr>
          </gpxtpx:TrackPointExtension>
        </extensions>
      </trkpt>
      <trkpt lat="50.49778" lon="2.55838">
        <ele>34.8</ele>
        <time>2021-06-24T15:52:07Z</time>
        <extensions>
          <gpxtpx:TrackPointExtension xmlns:gpxtpx="http://www.garmin.com/xmlschemas/TrackPointExtension/v1">
            <gpxtpx:hr>102</gpxtpx:hr>
          </gpxtpx:TrackPointExtension>
        </extensions>
      </trkpt>
      <trkpt lat="50.4978" lon="2.55841">
        <ele>34.8</ele>
        <time>2021-06-24T15:52:08Z</time>
        <extensions>
          <gpxtpx:TrackPointExtension xmlns:gpxtpx="http://www.garmin.com/xmlschemas/TrackPointExtension/v1">
            <gpxtpx:hr>102</gpxtpx:hr>
          </gpxtpx:TrackPointExtension>
        </extensions>
      </trkpt>
      <trkpt lat="50.49781" lon="2.55843">
        <ele>34.8</ele>
        <time>2021-06-24T15:52:09Z</time>
        <extensions>
          <gpxtpx:TrackPointExtension xmlns:gpxtpx="http://www.garmin.com/xmlschemas/TrackPointExtension/v1">
            <gpxtpx:hr>102</gpxtpx:hr>
          </gpxtpx:TrackPointExtension>
        </extensions>
      </trkpt>
      <trkpt lat="50.49783" lon="2.55846">
        <ele>35</ele>
        <time>2021-06-24T15:52:10Z</time>
        <extensions>
          <gpxtpx:TrackPointExtension xmlns:gpxtpx="http://www.garmin.com/xmlschemas/TrackPointExtension/v1">
            <gpxtpx:hr>102</gpxtpx:hr>
          </gpxtpx:TrackPointExtension>
        </extensions>
      </trkpt>
      <trkpt lat="50.49786" lon="2.55849">
        <ele>35</ele>
        <time>2021-06-24T15:52:11Z</time>
        <extensions>
          <gpxtpx:TrackPointExtension xmlns:gpxtpx="http://www.garmin.com/xmlschemas/TrackPointExtension/v1">
            <gpxtpx:hr>102</gpxtpx:hr>
          </gpxtpx:TrackPointExtension>
        </extensions>
      </trkpt>
      <trkpt lat="50.49789" lon="2.55853">
        <ele>35</ele>
        <time>2021-06-24T15:52:12Z</time>
        <extensions>
          <gpxtpx:TrackPointExtension xmlns:gpxtpx="http://www.garmin.com/xmlschemas/TrackPointExtension/v1">
            <gpxtpx:hr>103</gpxtpx:hr>
          </gpxtpx:TrackPointExtension>
        </extensions>
      </trkpt>
      <trkpt lat="50.49794" lon="2.55858">
        <ele>35.2</ele>
        <time>2021-06-24T15:52:13Z</time>
        <extensions>
          <gpxtpx:TrackPointExtension xmlns:gpxtpx="http://www.garmin.com/xmlschemas/TrackPointExtension/v1">
            <gpxtpx:hr>105</gpxtpx:hr>
          </gpxtpx:TrackPointExtension>
        </extensions>
      </trkpt>
      <trkpt lat="50.49797" lon="2.55863">
        <ele>35.2</ele>
        <time>2021-06-24T15:52:14Z</time>
        <extensions>
          <gpxtpx:TrackPointExtension xmlns:gpxtpx="http://www.garmin.com/xmlschemas/TrackPointExtension/v1">
            <gpxtpx:hr>106</gpxtpx:hr>
          </gpxtpx:TrackPointExtension>
        </extensions>
      </trkpt>
      <trkpt lat="50.49801" lon="2.55868">
        <ele>35.2</ele>
        <time>2021-06-24T15:52:15Z</time>
        <extensions>
          <gpxtpx:TrackPointExtension xmlns:gpxtpx="http://www.garmin.com/xmlschemas/TrackPointExtension/v1">
            <gpxtpx:hr>107</gpxtpx:hr>
          </gpxtpx:TrackPointExtension>
        </extensions>
      </trkpt>
      <trkpt lat="50.49804" lon="2.55873">
        <ele>35.4</ele>
        <time>2021-06-24T15:52:16Z</time>
        <extensions>
          <gpxtpx:TrackPointExtension xmlns:gpxtpx="http://www.garmin.com/xmlschemas/TrackPointExtension/v1">
            <gpxtpx:hr>108</gpxtpx:hr>
          </gpxtpx:TrackPointExtension>
        </extensions>
      </trkpt>
      <trkpt lat="50.49807" lon="2.55877">
        <ele>35.4</ele>
        <time>2021-06-24T15:52:17Z</time>
        <extensions>
          <gpxtpx:TrackPointExtension xmlns:gpxtpx="http://www.garmin.com/xmlschemas/TrackPointExtension/v1">
            <gpxtpx:hr>108</gpxtpx:hr>
          </gpxtpx:TrackPointExtension>
        </extensions>
      </trkpt>
      <trkpt lat="50.4981" lon="2.55881">
        <ele>35.4</ele>
        <time>2021-06-24T15:52:18Z</time>
        <extensions>
          <gpxtpx:TrackPointExtension xmlns:gpxtpx="http://www.garmin.com/xmlschemas/TrackPointExtension/v1">
            <gpxtpx:hr>110</gpxtpx:hr>
          </gpxtpx:TrackPointExtension>
        </extensions>
      </trkpt>
      <trkpt lat="50.49811" lon="2.55886">
        <ele>35.6</ele>
        <time>2021-06-24T15:52:19Z</time>
        <extensions>
          <gpxtpx:TrackPointExtension xmlns:gpxtpx="http://www.garmin.com/xmlschemas/TrackPointExtension/v1">
            <gpxtpx:hr>110</gpxtpx:hr>
          </gpxtpx:TrackPointExtension>
        </extensions>
      </trkpt>
      <trkpt lat="50.49814" lon="2.55891">
        <ele>35.6</ele>
        <time>2021-06-24T15:52:20Z</time>
        <extensions>
          <gpxtpx:TrackPointExtension xmlns:gpxtpx="http://www.garmin.com/xmlschemas/TrackPointExtension/v1">
            <gpxtpx:hr>111</gpxtpx:hr>
          </gpxtpx:TrackPointExtension>
        </extensions>
      </trkpt>
      <trkpt lat="50.49817" lon="2.55895">
        <ele>35.6</ele>
        <time>2021-06-24T15:52:21Z</time>
        <extensions>
          <gpxtpx:TrackPointExtension xmlns:gpxtpx="http://www.garmin.com/xmlschemas/TrackPointExtension/v1">
            <gpxtpx:hr>112</gpxtpx:hr>
          </gpxtpx:TrackPointExtension>
        </extensions>
      </trkpt>
      <trkpt lat="50.49819" lon="2.559">
        <ele>35.6</ele>
        <time>2021-06-24T15:52:22Z</time>
        <extensions>
          <gpxtpx:TrackPointExtension xmlns:gpxtpx="http://www.garmin.com/xmlschemas/TrackPointExtension/v1">
            <gpxtpx:hr>112</gpxtpx:hr>
          </gpxtpx:TrackPointExtension>
        </extensions>
      </trkpt>
      <trkpt lat="50.49822" lon="2.55906">
        <ele>35.6</ele>
        <time>2021-06-24T15:52:23Z</time>
        <extensions>
          <gpxtpx:TrackPointExtension xmlns:gpxtpx="http://www.garmin.com/xmlschemas/TrackPointExtension/v1">
            <gpxtpx:hr>113</gpxtpx:hr>
          </gpxtpx:TrackPointExtension>
        </extensions>
      </trkpt>
      <trkpt lat="50.49825" lon="2.55911">
        <ele>35.6</ele>
        <time>2021-06-24T15:52:24Z</time>
        <extensions>
          <gpxtpx:TrackPointExtension xmlns:gpxtpx="http://www.garmin.com/xmlschemas/TrackPointExtension/v1">
            <gpxtpx:hr>114</gpxtpx:hr>
          </gpxtpx:TrackPointExtension>
        </extensions>
      </trkpt>
      <trkpt lat="50.49827" lon="2.55916">
        <ele>35.8</ele>
        <time>2021-06-24T15:52:25Z</time>
        <extensions>
          <gpxtpx:TrackPointExtension xmlns:gpxtpx="http://www.garmin.com/xmlschemas/TrackPointExtension/v1">
            <gpxtpx:hr>115</gpxtpx:hr>
          </gpxtpx:TrackPointExtension>
        </extensions>
      </trkpt>
      <trkpt lat="50.4983" lon="2.55922">
        <ele>35.8</ele>
        <time>2021-06-24T15:52:26Z</time>
        <extensions>
          <gpxtpx:TrackPointExtension xmlns:gpxtpx="http://www.garmin.com/xmlschemas/TrackPointExtension/v1">
            <gpxtpx:hr>116</gpxtpx:hr>
          </gpxtpx:TrackPointExtension>
        </extensions>
      </trkpt>
      <trkpt lat="50.49833" lon="2.55927">
        <ele>35.8</ele>
        <time>2021-06-24T15:52:27Z</time>
        <extensions>
          <gpxtpx:TrackPointExtension xmlns:gpxtpx="http://www.garmin.com/xmlschemas/TrackPointExtension/v1">
            <gpxtpx:hr>117</gpxtpx:hr>
          </gpxtpx:TrackPointExtension>
        </extensions>
      </trkpt>
      <trkpt lat="50.49836" lon="2.55933">
        <ele>35.8</ele>
        <time>2021-06-24T15:52:28Z</time>
        <extensions>
          <gpxtpx:TrackPointExtension xmlns:gpxtpx="http://www.garmin.com/xmlschemas/TrackPointExtension/v1">
            <gpxtpx:hr>119</gpxtpx:hr>
          </gpxtpx:TrackPointExtension>
        </extensions>
      </trkpt>
      <trkpt lat="50.4984" lon="2.55938">
        <ele>35.8</ele>
        <time>2021-06-24T15:52:29Z</time>
        <extensions>
          <gpxtpx:TrackPointExtension xmlns:gpxtpx="http://www.garmin.com/xmlschemas/TrackPointExtension/v1">
            <gpxtpx:hr>120</gpxtpx:hr>
          </gpxtpx:TrackPointExtension>
        </extensions>
      </trkpt>
      <trkpt lat="50.49844" lon="2.55943">
        <ele>35.8</ele>
        <time>2021-06-24T15:52:30Z</time>
        <extensions>
          <gpxtpx:TrackPointExtension xmlns:gpxtpx="http://www.garmin.com/xmlschemas/TrackPointExtension/v1">
            <gpxtpx:hr>120</gpxtpx:hr>
          </gpxtpx:TrackPointExtension>
        </extensions>
      </trkpt>
      <trkpt lat="50.49848" lon="2.55948">
        <ele>35.8</ele>
        <time>2021-06-24T15:52:31Z</time>
        <extensions>
          <gpxtpx:TrackPointExtension xmlns:gpxtpx="http://www.garmin.com/xmlschemas/TrackPointExtension/v1">
            <gpxtpx:hr>121</gpxtpx:hr>
          </gpxtpx:TrackPointExtension>
        </extensions>
      </trkpt>
      <trkpt lat="50.49851" lon="2.55954">
        <ele>35.8</ele>
        <time>2021-06-24T15:52:32Z</time>
        <extensions>
          <gpxtpx:TrackPointExtension xmlns:gpxtpx="http://www.garmin.com/xmlschemas/TrackPointExtension/v1">
            <gpxtpx:hr>121</gpxtpx:hr>
          </gpxtpx:TrackPointExtension>
        </extensions>
      </trkpt>
      <trkpt lat="50.49855" lon="2.5596">
        <ele>36</ele>
        <time>2021-06-24T15:52:33Z</time>
        <extensions>
          <gpxtpx:TrackPointExtension xmlns:gpxtpx="http://www.garmin.com/xmlschemas/TrackPointExtension/v1">
            <gpxtpx:hr>122</gpxtpx:hr>
          </gpxtpx:TrackPointExtension>
        </extensions>
      </trkpt>
      <trkpt lat="50.49858" lon="2.55966">
        <ele>36</ele>
        <time>2021-06-24T15:52:34Z</time>
        <extensions>
          <gpxtpx:TrackPointExtension xmlns:gpxtpx="http://www.garmin.com/xmlschemas/TrackPointExtension/v1">
            <gpxtpx:hr>122</gpxtpx:hr>
          </gpxtpx:TrackPointExtension>
        </extensions>
      </trkpt>
      <trkpt lat="50.49861" lon="2.55973">
        <ele>36</ele>
        <time>2021-06-24T15:52:35Z</time>
        <extensions>
          <gpxtpx:TrackPointExtension xmlns:gpxtpx="http://www.garmin.com/xmlschemas/TrackPointExtension/v1">
            <gpxtpx:hr>122</gpxtpx:hr>
          </gpxtpx:TrackPointExtension>
        </extensions>
      </trkpt>
      <trkpt lat="50.49864" lon="2.55979">
        <ele>36</ele>
        <time>2021-06-24T15:52:36Z</time>
        <extensions>
          <gpxtpx:TrackPointExtension xmlns:gpxtpx="http://www.garmin.com/xmlschemas/TrackPointExtension/v1">
            <gpxtpx:hr>123</gpxtpx:hr>
          </gpxtpx:TrackPointExtension>
        </extensions>
      </trkpt>
      <trkpt lat="50.49868" lon="2.55986">
        <ele>36</ele>
        <time>2021-06-24T15:52:37Z</time>
        <extensions>
          <gpxtpx:TrackPointExtension xmlns:gpxtpx="http://www.garmin.com/xmlschemas/TrackPointExtension/v1">
            <gpxtpx:hr>123</gpxtpx:hr>
          </gpxtpx:TrackPointExtension>
        </extensions>
      </trkpt>
      <trkpt lat="50.49871" lon="2.55992">
        <ele>36</ele>
        <time>2021-06-24T15:52:38Z</time>
        <extensions>
          <gpxtpx:TrackPointExtension xmlns:gpxtpx="http://www.garmin.com/xmlschemas/TrackPointExtension/v1">
            <gpxtpx:hr>123</gpxtpx:hr>
          </gpxtpx:TrackPointExtension>
        </extensions>
      </trkpt>
      <trkpt lat="50.49874" lon="2.55999">
        <ele>35.8</ele>
        <time>2021-06-24T15:52:39Z</time>
        <extensions>
          <gpxtpx:TrackPointExtension xmlns:gpxtpx="http://www.garmin.com/xmlschemas/TrackPointExtension/v1">
            <gpxtpx:hr>124</gpxtpx:hr>
          </gpxtpx:TrackPointExtension>
        </extensions>
      </trkpt>
      <trkpt lat="50.49876" lon="2.56006">
        <ele>35.8</ele>
        <time>2021-06-24T15:52:40Z</time>
        <extensions>
          <gpxtpx:TrackPointExtension xmlns:gpxtpx="http://www.garmin.com/xmlschemas/TrackPointExtension/v1">
            <gpxtpx:hr>124</gpxtpx:hr>
          </gpxtpx:TrackPointExtension>
        </extensions>
      </trkpt>
      <trkpt lat="50.4988" lon="2.56013">
        <ele>35.8</ele>
        <time>2021-06-24T15:52:41Z</time>
        <extensions>
          <gpxtpx:TrackPointExtension xmlns:gpxtpx="http://www.garmin.com/xmlschemas/TrackPointExtension/v1">
            <gpxtpx:hr>125</gpxtpx:hr>
          </gpxtpx:TrackPointExtension>
        </extensions>
      </trkpt>
      <trkpt lat="50.49883" lon="2.56019">
        <ele>35.6</ele>
        <time>2021-06-24T15:52:42Z</time>
        <extensions>
          <gpxtpx:TrackPointExtension xmlns:gpxtpx="http://www.garmin.com/xmlschemas/TrackPointExtension/v1">
            <gpxtpx:hr>126</gpxtpx:hr>
          </gpxtpx:TrackPointExtension>
        </extensions>
      </trkpt>
      <trkpt lat="50.49886" lon="2.56025">
        <ele>35.6</ele>
        <time>2021-06-24T15:52:43Z</time>
        <extensions>
          <gpxtpx:TrackPointExtension xmlns:gpxtpx="http://www.garmin.com/xmlschemas/TrackPointExtension/v1">
            <gpxtpx:hr>126</gpxtpx:hr>
          </gpxtpx:TrackPointExtension>
        </extensions>
      </trkpt>
      <trkpt lat="50.4989" lon="2.5603">
        <ele>35.6</ele>
        <time>2021-06-24T15:52:44Z</time>
        <extensions>
          <gpxtpx:TrackPointExtension xmlns:gpxtpx="http://www.garmin.com/xmlschemas/TrackPointExtension/v1">
            <gpxtpx:hr>126</gpxtpx:hr>
          </gpxtpx:TrackPointExtension>
        </extensions>
      </trkpt>
      <trkpt lat="50.49894" lon="2.56035">
        <ele>35.6</ele>
        <time>2021-06-24T15:52:45Z</time>
        <extensions>
          <gpxtpx:TrackPointExtension xmlns:gpxtpx="http://www.garmin.com/xmlschemas/TrackPointExtension/v1">
            <gpxtpx:hr>127</gpxtpx:hr>
          </gpxtpx:TrackPointExtension>
        </extensions>
      </trkpt>
      <trkpt lat="50.49897" lon="2.5604">
        <ele>35.4</ele>
        <time>2021-06-24T15:52:46Z</time>
        <extensions>
          <gpxtpx:TrackPointExtension xmlns:gpxtpx="http://www.garmin.com/xmlschemas/TrackPointExtension/v1">
            <gpxtpx:hr>127</gpxtpx:hr>
          </gpxtpx:TrackPointExtension>
        </extensions>
      </trkpt>
      <trkpt lat="50.49901" lon="2.56045">
        <ele>35.4</ele>
        <time>2021-06-24T15:52:47Z</time>
        <extensions>
          <gpxtpx:TrackPointExtension xmlns:gpxtpx="http://www.garmin.com/xmlschemas/TrackPointExtension/v1">
            <gpxtpx:hr>127</gpxtpx:hr>
          </gpxtpx:TrackPointExtension>
        </extensions>
      </trkpt>
      <trkpt lat="50.49903" lon="2.56051">
        <ele>35.4</ele>
        <time>2021-06-24T15:52:48Z</time>
        <extensions>
          <gpxtpx:TrackPointExtension xmlns:gpxtpx="http://www.garmin.com/xmlschemas/TrackPointExtension/v1">
            <gpxtpx:hr>128</gpxtpx:hr>
          </gpxtpx:TrackPointExtension>
        </extensions>
      </trkpt>
      <trkpt lat="50.49905" lon="2.56056">
        <ele>35.4</ele>
        <time>2021-06-24T15:52:49Z</time>
        <extensions>
          <gpxtpx:TrackPointExtension xmlns:gpxtpx="http://www.garmin.com/xmlschemas/TrackPointExtension/v1">
            <gpxtpx:hr>128</gpxtpx:hr>
          </gpxtpx:TrackPointExtension>
        </extensions>
      </trkpt>
      <trkpt lat="50.49908" lon="2.56062">
        <ele>35.4</ele>
        <time>2021-06-24T15:52:50Z</time>
        <extensions>
          <gpxtpx:TrackPointExtension xmlns:gpxtpx="http://www.garmin.com/xmlschemas/TrackPointExtension/v1">
            <gpxtpx:hr>129</gpxtpx:hr>
          </gpxtpx:TrackPointExtension>
        </extensions>
      </trkpt>
      <trkpt lat="50.4991" lon="2.56066">
        <ele>35.2</ele>
        <time>2021-06-24T15:52:51Z</time>
        <extensions>
          <gpxtpx:TrackPointExtension xmlns:gpxtpx="http://www.garmin.com/xmlschemas/TrackPointExtension/v1">
            <gpxtpx:hr>129</gpxtpx:hr>
          </gpxtpx:TrackPointExtension>
        </extensions>
      </trkpt>
      <trkpt lat="50.49911" lon="2.5607">
        <ele>35.2</ele>
        <time>2021-06-24T15:52:52Z</time>
        <extensions>
          <gpxtpx:TrackPointExtension xmlns:gpxtpx="http://www.garmin.com/xmlschemas/TrackPointExtension/v1">
            <gpxtpx:hr>129</gpxtpx:hr>
          </gpxtpx:TrackPointExtension>
        </extensions>
      </trkpt>
      <trkpt lat="50.49913" lon="2.56074">
        <ele>35.2</ele>
        <time>2021-06-24T15:52:53Z</time>
        <extensions>
          <gpxtpx:TrackPointExtension xmlns:gpxtpx="http://www.garmin.com/xmlschemas/TrackPointExtension/v1">
            <gpxtpx:hr>129</gpxtpx:hr>
          </gpxtpx:TrackPointExtension>
        </extensions>
      </trkpt>
      <trkpt lat="50.49915" lon="2.56077">
        <ele>35.2</ele>
        <time>2021-06-24T15:52:54Z</time>
        <extensions>
          <gpxtpx:TrackPointExtension xmlns:gpxtpx="http://www.garmin.com/xmlschemas/TrackPointExtension/v1">
            <gpxtpx:hr>129</gpxtpx:hr>
          </gpxtpx:TrackPointExtension>
        </extensions>
      </trkpt>
      <trkpt lat="50.49915" lon="2.56081">
        <ele>35.2</ele>
        <time>2021-06-24T15:52:55Z</time>
        <extensions>
          <gpxtpx:TrackPointExtension xmlns:gpxtpx="http://www.garmin.com/xmlschemas/TrackPointExtension/v1">
            <gpxtpx:hr>129</gpxtpx:hr>
          </gpxtpx:TrackPointExtension>
        </extensions>
      </trkpt>
      <trkpt lat="50.49916" lon="2.56084">
        <ele>35.2</ele>
        <time>2021-06-24T15:52:56Z</time>
        <extensions>
          <gpxtpx:TrackPointExtension xmlns:gpxtpx="http://www.garmin.com/xmlschemas/TrackPointExtension/v1">
            <gpxtpx:hr>129</gpxtpx:hr>
          </gpxtpx:TrackPointExtension>
        </extensions>
      </trkpt>
      <trkpt lat="50.4997" lon="2.5616">
        <ele>35.2</ele>
        <time>2021-06-24T15:53:13Z</time>
        <extensions>
          <gpxtpx:TrackPointExtension xmlns:gpxtpx="http://www.garmin.com/xmlschemas/TrackPointExtension/v1">
            <gpxtpx:hr>122</gpxtpx:hr>
          </gpxtpx:TrackPointExtension>
        </extensions>
      </trkpt>
      <trkpt lat="50.49972" lon="2.56163">
        <ele>35.2</ele>
        <time>2021-06-24T15:53:14Z</time>
        <extensions>
          <gpxtpx:TrackPointExtension xmlns:gpxtpx="http://www.garmin.com/xmlschemas/TrackPointExtension/v1">
            <gpxtpx:hr>122</gpxtpx:hr>
          </gpxtpx:TrackPointExtension>
        </extensions>
      </trkpt>
      <trkpt lat="50.49966" lon="2.56175">
        <ele>35.2</ele>
        <time>2021-06-24T15:53:15Z</time>
        <extensions>
          <gpxtpx:TrackPointExtension xmlns:gpxtpx="http://www.garmin.com/xmlschemas/TrackPointExtension/v1">
            <gpxtpx:hr>121</gpxtpx:hr>
          </gpxtpx:TrackPointExtension>
        </extensions>
      </trkpt>
      <trkpt lat="50.49966" lon="2.56181">
        <ele>35.2</ele>
        <time>2021-06-24T15:53:16Z</time>
        <extensions>
          <gpxtpx:TrackPointExtension xmlns:gpxtpx="http://www.garmin.com/xmlschemas/TrackPointExtension/v1">
            <gpxtpx:hr>121</gpxtpx:hr>
          </gpxtpx:TrackPointExtension>
        </extensions>
      </trkpt>
      <trkpt lat="50.4997" lon="2.56185">
        <ele>35.2</ele>
        <time>2021-06-24T15:53:17Z</time>
        <extensions>
          <gpxtpx:TrackPointExtension xmlns:gpxtpx="http://www.garmin.com/xmlschemas/TrackPointExtension/v1">
            <gpxtpx:hr>120</gpxtpx:hr>
          </gpxtpx:TrackPointExtension>
        </extensions>
      </trkpt>
      <trkpt lat="50.49971" lon="2.56191">
        <ele>35</ele>
        <time>2021-06-24T15:53:18Z</time>
        <extensions>
          <gpxtpx:TrackPointExtension xmlns:gpxtpx="http://www.garmin.com/xmlschemas/TrackPointExtension/v1">
            <gpxtpx:hr>120</gpxtpx:hr>
          </gpxtpx:TrackPointExtension>
        </extensions>
      </trkpt>
      <trkpt lat="50.49971" lon="2.562">
        <ele>35</ele>
        <time>2021-06-24T15:53:19Z</time>
        <extensions>
          <gpxtpx:TrackPointExtension xmlns:gpxtpx="http://www.garmin.com/xmlschemas/TrackPointExtension/v1">
            <gpxtpx:hr>120</gpxtpx:hr>
          </gpxtpx:TrackPointExtension>
        </extensions>
      </trkpt>
      <trkpt lat="50.4997" lon="2.56207">
        <ele>35</ele>
        <time>2021-06-24T15:53:20Z</time>
        <extensions>
          <gpxtpx:TrackPointExtension xmlns:gpxtpx="http://www.garmin.com/xmlschemas/TrackPointExtension/v1">
            <gpxtpx:hr>120</gpxtpx:hr>
          </gpxtpx:TrackPointExtension>
        </extensions>
      </trkpt>
      <trkpt lat="50.49971" lon="2.56213">
        <ele>34.8</ele>
        <time>2021-06-24T15:53:21Z</time>
        <extensions>
          <gpxtpx:TrackPointExtension xmlns:gpxtpx="http://www.garmin.com/xmlschemas/TrackPointExtension/v1">
            <gpxtpx:hr>120</gpxtpx:hr>
          </gpxtpx:TrackPointExtension>
        </extensions>
      </trkpt>
      <trkpt lat="50.49971" lon="2.5622">
        <ele>34.8</ele>
        <time>2021-06-24T15:53:22Z</time>
        <extensions>
          <gpxtpx:TrackPointExtension xmlns:gpxtpx="http://www.garmin.com/xmlschemas/TrackPointExtension/v1">
            <gpxtpx:hr>120</gpxtpx:hr>
          </gpxtpx:TrackPointExtension>
        </extensions>
      </trkpt>
      <trkpt lat="50.49972" lon="2.56226">
        <ele>34.6</ele>
        <time>2021-06-24T15:53:23Z</time>
        <extensions>
          <gpxtpx:TrackPointExtension xmlns:gpxtpx="http://www.garmin.com/xmlschemas/TrackPointExtension/v1">
            <gpxtpx:hr>119</gpxtpx:hr>
          </gpxtpx:TrackPointExtension>
        </extensions>
      </trkpt>
      <trkpt lat="50.49974" lon="2.56232">
        <ele>34.6</ele>
        <time>2021-06-24T15:53:24Z</time>
        <extensions>
          <gpxtpx:TrackPointExtension xmlns:gpxtpx="http://www.garmin.com/xmlschemas/TrackPointExtension/v1">
            <gpxtpx:hr>119</gpxtpx:hr>
          </gpxtpx:TrackPointExtension>
        </extensions>
      </trkpt>
      <trkpt lat="50.49974" lon="2.56239">
        <ele>34.4</ele>
        <time>2021-06-24T15:53:25Z</time>
        <extensions>
          <gpxtpx:TrackPointExtension xmlns:gpxtpx="http://www.garmin.com/xmlschemas/TrackPointExtension/v1">
            <gpxtpx:hr>119</gpxtpx:hr>
          </gpxtpx:TrackPointExtension>
        </extensions>
      </trkpt>
      <trkpt lat="50.49975" lon="2.56245">
        <ele>34.4</ele>
        <time>2021-06-24T15:53:26Z</time>
        <extensions>
          <gpxtpx:TrackPointExtension xmlns:gpxtpx="http://www.garmin.com/xmlschemas/TrackPointExtension/v1">
            <gpxtpx:hr>120</gpxtpx:hr>
          </gpxtpx:TrackPointExtension>
        </extensions>
      </trkpt>
      <trkpt lat="50.49977" lon="2.56252">
        <ele>34.2</ele>
        <time>2021-06-24T15:53:27Z</time>
        <extensions>
          <gpxtpx:TrackPointExtension xmlns:gpxtpx="http://www.garmin.com/xmlschemas/TrackPointExtension/v1">
            <gpxtpx:hr>120</gpxtpx:hr>
          </gpxtpx:TrackPointExtension>
        </extensions>
      </trkpt>
      <trkpt lat="50.49978" lon="2.56259">
        <ele>34.2</ele>
        <time>2021-06-24T15:53:28Z</time>
        <extensions>
          <gpxtpx:TrackPointExtension xmlns:gpxtpx="http://www.garmin.com/xmlschemas/TrackPointExtension/v1">
            <gpxtpx:hr>120</gpxtpx:hr>
          </gpxtpx:TrackPointExtension>
        </extensions>
      </trkpt>
      <trkpt lat="50.4998" lon="2.56266">
        <ele>34</ele>
        <time>2021-06-24T15:53:29Z</time>
        <extensions>
          <gpxtpx:TrackPointExtension xmlns:gpxtpx="http://www.garmin.com/xmlschemas/TrackPointExtension/v1">
            <gpxtpx:hr>121</gpxtpx:hr>
          </gpxtpx:TrackPointExtension>
        </extensions>
      </trkpt>
      <trkpt lat="50.49983" lon="2.56272">
        <ele>33.8</ele>
        <time>2021-06-24T15:53:30Z</time>
        <extensions>
          <gpxtpx:TrackPointExtension xmlns:gpxtpx="http://www.garmin.com/xmlschemas/TrackPointExtension/v1">
            <gpxtpx:hr>122</gpxtpx:hr>
          </gpxtpx:TrackPointExtension>
        </extensions>
      </trkpt>
      <trkpt lat="50.49986" lon="2.56278">
        <ele>33.8</ele>
        <time>2021-06-24T15:53:31Z</time>
        <extensions>
          <gpxtpx:TrackPointExtension xmlns:gpxtpx="http://www.garmin.com/xmlschemas/TrackPointExtension/v1">
            <gpxtpx:hr>123</gpxtpx:hr>
          </gpxtpx:TrackPointExtension>
        </extensions>
      </trkpt>
      <trkpt lat="50.4999" lon="2.56283">
        <ele>33.6</ele>
        <time>2021-06-24T15:53:32Z</time>
        <extensions>
          <gpxtpx:TrackPointExtension xmlns:gpxtpx="http://www.garmin.com/xmlschemas/TrackPointExtension/v1">
            <gpxtpx:hr>123</gpxtpx:hr>
          </gpxtpx:TrackPointExtension>
        </extensions>
      </trkpt>
      <trkpt lat="50.49994" lon="2.56288">
        <ele>33.6</ele>
        <time>2021-06-24T15:53:33Z</time>
        <extensions>
          <gpxtpx:TrackPointExtension xmlns:gpxtpx="http://www.garmin.com/xmlschemas/TrackPointExtension/v1">
            <gpxtpx:hr>124</gpxtpx:hr>
          </gpxtpx:TrackPointExtension>
        </extensions>
      </trkpt>
      <trkpt lat="50.49997" lon="2.56293">
        <ele>33.6</ele>
        <time>2021-06-24T15:53:34Z</time>
        <extensions>
          <gpxtpx:TrackPointExtension xmlns:gpxtpx="http://www.garmin.com/xmlschemas/TrackPointExtension/v1">
            <gpxtpx:hr>124</gpxtpx:hr>
          </gpxtpx:TrackPointExtension>
        </extensions>
      </trkpt>
      <trkpt lat="50.50002" lon="2.56298">
        <ele>33.4</ele>
        <time>2021-06-24T15:53:35Z</time>
        <extensions>
          <gpxtpx:TrackPointExtension xmlns:gpxtpx="http://www.garmin.com/xmlschemas/TrackPointExtension/v1">
            <gpxtpx:hr>124</gpxtpx:hr>
          </gpxtpx:TrackPointExtension>
        </extensions>
      </trkpt>
      <trkpt lat="50.50006" lon="2.56303">
        <ele>33.4</ele>
        <time>2021-06-24T15:53:36Z</time>
        <extensions>
          <gpxtpx:TrackPointExtension xmlns:gpxtpx="http://www.garmin.com/xmlschemas/TrackPointExtension/v1">
            <gpxtpx:hr>124</gpxtpx:hr>
          </gpxtpx:TrackPointExtension>
        </extensions>
      </trkpt>
      <trkpt lat="50.5001" lon="2.56308">
        <ele>33.4</ele>
        <time>2021-06-24T15:53:37Z</time>
        <extensions>
          <gpxtpx:TrackPointExtension xmlns:gpxtpx="http://www.garmin.com/xmlschemas/TrackPointExtension/v1">
            <gpxtpx:hr>124</gpxtpx:hr>
          </gpxtpx:TrackPointExtension>
        </extensions>
      </trkpt>
      <trkpt lat="50.50014" lon="2.56313">
        <ele>33.4</ele>
        <time>2021-06-24T15:53:38Z</time>
        <extensions>
          <gpxtpx:TrackPointExtension xmlns:gpxtpx="http://www.garmin.com/xmlschemas/TrackPointExtension/v1">
            <gpxtpx:hr>124</gpxtpx:hr>
          </gpxtpx:TrackPointExtension>
        </extensions>
      </trkpt>
      <trkpt lat="50.50018" lon="2.56317">
        <ele>33.4</ele>
        <time>2021-06-24T15:53:39Z</time>
        <extensions>
          <gpxtpx:TrackPointExtension xmlns:gpxtpx="http://www.garmin.com/xmlschemas/TrackPointExtension/v1">
            <gpxtpx:hr>125</gpxtpx:hr>
          </gpxtpx:TrackPointExtension>
        </extensions>
      </trkpt>
      <trkpt lat="50.5002" lon="2.56321">
        <ele>33.4</ele>
        <time>2021-06-24T15:53:40Z</time>
        <extensions>
          <gpxtpx:TrackPointExtension xmlns:gpxtpx="http://www.garmin.com/xmlschemas/TrackPointExtension/v1">
            <gpxtpx:hr>125</gpxtpx:hr>
          </gpxtpx:TrackPointExtension>
        </extensions>
      </trkpt>
      <trkpt lat="50.50024" lon="2.56324">
        <ele>33.4</ele>
        <time>2021-06-24T15:53:41Z</time>
        <extensions>
          <gpxtpx:TrackPointExtension xmlns:gpxtpx="http://www.garmin.com/xmlschemas/TrackPointExtension/v1">
            <gpxtpx:hr>125</gpxtpx:hr>
          </gpxtpx:TrackPointExtension>
        </extensions>
      </trkpt>
      <trkpt lat="50.50027" lon="2.56327">
        <ele>33.4</ele>
        <time>2021-06-24T15:53:42Z</time>
        <extensions>
          <gpxtpx:TrackPointExtension xmlns:gpxtpx="http://www.garmin.com/xmlschemas/TrackPointExtension/v1">
            <gpxtpx:hr>125</gpxtpx:hr>
          </gpxtpx:TrackPointExtension>
        </extensions>
      </trkpt>
      <trkpt lat="50.50029" lon="2.56331">
        <ele>33.4</ele>
        <time>2021-06-24T15:53:43Z</time>
        <extensions>
          <gpxtpx:TrackPointExtension xmlns:gpxtpx="http://www.garmin.com/xmlschemas/TrackPointExtension/v1">
            <gpxtpx:hr>126</gpxtpx:hr>
          </gpxtpx:TrackPointExtension>
        </extensions>
      </trkpt>
      <trkpt lat="50.50032" lon="2.56333">
        <ele>33.4</ele>
        <time>2021-06-24T15:53:44Z</time>
        <extensions>
          <gpxtpx:TrackPointExtension xmlns:gpxtpx="http://www.garmin.com/xmlschemas/TrackPointExtension/v1">
            <gpxtpx:hr>126</gpxtpx:hr>
          </gpxtpx:TrackPointExtension>
        </extensions>
      </trkpt>
      <trkpt lat="50.50036" lon="2.56336">
        <ele>33.4</ele>
        <time>2021-06-24T15:53:45Z</time>
        <extensions>
          <gpxtpx:TrackPointExtension xmlns:gpxtpx="http://www.garmin.com/xmlschemas/TrackPointExtension/v1">
            <gpxtpx:hr>127</gpxtpx:hr>
          </gpxtpx:TrackPointExtension>
        </extensions>
      </trkpt>
      <trkpt lat="50.50038" lon="2.56338">
        <ele>33.4</ele>
        <time>2021-06-24T15:53:46Z</time>
        <extensions>
          <gpxtpx:TrackPointExtension xmlns:gpxtpx="http://www.garmin.com/xmlschemas/TrackPointExtension/v1">
            <gpxtpx:hr>127</gpxtpx:hr>
          </gpxtpx:TrackPointExtension>
        </extensions>
      </trkpt>
      <trkpt lat="50.5004" lon="2.56341">
        <ele>33.6</ele>
        <time>2021-06-24T15:53:47Z</time>
        <extensions>
          <gpxtpx:TrackPointExtension xmlns:gpxtpx="http://www.garmin.com/xmlschemas/TrackPointExtension/v1">
            <gpxtpx:hr>126</gpxtpx:hr>
          </gpxtpx:TrackPointExtension>
        </extensions>
      </trkpt>
      <trkpt lat="50.50042" lon="2.56344">
        <ele>33.6</ele>
        <time>2021-06-24T15:53:48Z</time>
        <extensions>
          <gpxtpx:TrackPointExtension xmlns:gpxtpx="http://www.garmin.com/xmlschemas/TrackPointExtension/v1">
            <gpxtpx:hr>126</gpxtpx:hr>
          </gpxtpx:TrackPointExtension>
        </extensions>
      </trkpt>
      <trkpt lat="50.50044" lon="2.56346">
        <ele>33.6</ele>
        <time>2021-06-24T15:53:49Z</time>
        <extensions>
          <gpxtpx:TrackPointExtension xmlns:gpxtpx="http://www.garmin.com/xmlschemas/TrackPointExtension/v1">
            <gpxtpx:hr>126</gpxtpx:hr>
          </gpxtpx:TrackPointExtension>
        </extensions>
      </trkpt>
      <trkpt lat="50.50046" lon="2.56349">
        <ele>33.8</ele>
        <time>2021-06-24T15:53:50Z</time>
        <extensions>
          <gpxtpx:TrackPointExtension xmlns:gpxtpx="http://www.garmin.com/xmlschemas/TrackPointExtension/v1">
            <gpxtpx:hr>125</gpxtpx:hr>
          </gpxtpx:TrackPointExtension>
        </extensions>
      </trkpt>
      <trkpt lat="50.50047" lon="2.56351">
        <ele>33.8</ele>
        <time>2021-06-24T15:53:51Z</time>
        <extensions>
          <gpxtpx:TrackPointExtension xmlns:gpxtpx="http://www.garmin.com/xmlschemas/TrackPointExtension/v1">
            <gpxtpx:hr>125</gpxtpx:hr>
          </gpxtpx:TrackPointExtension>
        </extensions>
      </trkpt>
      <trkpt lat="50.5005" lon="2.56354">
        <ele>33.8</ele>
        <time>2021-06-24T15:53:52Z</time>
        <extensions>
          <gpxtpx:TrackPointExtension xmlns:gpxtpx="http://www.garmin.com/xmlschemas/TrackPointExtension/v1">
            <gpxtpx:hr>124</gpxtpx:hr>
          </gpxtpx:TrackPointExtension>
        </extensions>
      </trkpt>
      <trkpt lat="50.50051" lon="2.56356">
        <ele>33.8</ele>
        <time>2021-06-24T15:53:53Z</time>
        <extensions>
          <gpxtpx:TrackPointExtension xmlns:gpxtpx="http://www.garmin.com/xmlschemas/TrackPointExtension/v1">
            <gpxtpx:hr>123</gpxtpx:hr>
          </gpxtpx:TrackPointExtension>
        </extensions>
      </trkpt>
      <trkpt lat="50.50053" lon="2.56359">
        <ele>33.8</ele>
        <time>2021-06-24T15:53:54Z</time>
        <extensions>
          <gpxtpx:TrackPointExtension xmlns:gpxtpx="http://www.garmin.com/xmlschemas/TrackPointExtension/v1">
            <gpxtpx:hr>122</gpxtpx:hr>
          </gpxtpx:TrackPointExtension>
        </extensions>
      </trkpt>
      <trkpt lat="50.50056" lon="2.56363">
        <ele>34</ele>
        <time>2021-06-24T15:53:55Z</time>
        <extensions>
          <gpxtpx:TrackPointExtension xmlns:gpxtpx="http://www.garmin.com/xmlschemas/TrackPointExtension/v1">
            <gpxtpx:hr>121</gpxtpx:hr>
          </gpxtpx:TrackPointExtension>
        </extensions>
      </trkpt>
      <trkpt lat="50.50059" lon="2.56367">
        <ele>34</ele>
        <time>2021-06-24T15:53:56Z</time>
        <extensions>
          <gpxtpx:TrackPointExtension xmlns:gpxtpx="http://www.garmin.com/xmlschemas/TrackPointExtension/v1">
            <gpxtpx:hr>121</gpxtpx:hr>
          </gpxtpx:TrackPointExtension>
        </extensions>
      </trkpt>
      <trkpt lat="50.50062" lon="2.56371">
        <ele>34.2</ele>
        <time>2021-06-24T15:53:57Z</time>
        <extensions>
          <gpxtpx:TrackPointExtension xmlns:gpxtpx="http://www.garmin.com/xmlschemas/TrackPointExtension/v1">
            <gpxtpx:hr>120</gpxtpx:hr>
          </gpxtpx:TrackPointExtension>
        </extensions>
      </trkpt>
      <trkpt lat="50.50064" lon="2.56376">
        <ele>34.2</ele>
        <time>2021-06-24T15:53:58Z</time>
        <extensions>
          <gpxtpx:TrackPointExtension xmlns:gpxtpx="http://www.garmin.com/xmlschemas/TrackPointExtension/v1">
            <gpxtpx:hr>119</gpxtpx:hr>
          </gpxtpx:TrackPointExtension>
        </extensions>
      </trkpt>
      <trkpt lat="50.50066" lon="2.56381">
        <ele>34.2</ele>
        <time>2021-06-24T15:53:59Z</time>
        <extensions>
          <gpxtpx:TrackPointExtension xmlns:gpxtpx="http://www.garmin.com/xmlschemas/TrackPointExtension/v1">
            <gpxtpx:hr>118</gpxtpx:hr>
          </gpxtpx:TrackPointExtension>
        </extensions>
      </trkpt>
      <trkpt lat="50.50069" lon="2.56387">
        <ele>34.4</ele>
        <time>2021-06-24T15:54:00Z</time>
        <extensions>
          <gpxtpx:TrackPointExtension xmlns:gpxtpx="http://www.garmin.com/xmlschemas/TrackPointExtension/v1">
            <gpxtpx:hr>118</gpxtpx:hr>
          </gpxtpx:TrackPointExtension>
        </extensions>
      </trkpt>
      <trkpt lat="50.50071" lon="2.56392">
        <ele>34.6</ele>
        <time>2021-06-24T15:54:01Z</time>
        <extensions>
          <gpxtpx:TrackPointExtension xmlns:gpxtpx="http://www.garmin.com/xmlschemas/TrackPointExtension/v1">
            <gpxtpx:hr>118</gpxtpx:hr>
          </gpxtpx:TrackPointExtension>
        </extensions>
      </trkpt>
      <trkpt lat="50.50073" lon="2.56398">
        <ele>34.6</ele>
        <time>2021-06-24T15:54:02Z</time>
        <extensions>
          <gpxtpx:TrackPointExtension xmlns:gpxtpx="http://www.garmin.com/xmlschemas/TrackPointExtension/v1">
            <gpxtpx:hr>118</gpxtpx:hr>
          </gpxtpx:TrackPointExtension>
        </extensions>
      </trkpt>
      <trkpt lat="50.50076" lon="2.56404">
        <ele>34.6</ele>
        <time>2021-06-24T15:54:03Z</time>
        <extensions>
          <gpxtpx:TrackPointExtension xmlns:gpxtpx="http://www.garmin.com/xmlschemas/TrackPointExtension/v1">
            <gpxtpx:hr>118</gpxtpx:hr>
          </gpxtpx:TrackPointExtension>
        </extensions>
      </trkpt>
      <trkpt lat="50.50079" lon="2.5641">
        <ele>34.6</ele>
        <time>2021-06-24T15:54:04Z</time>
        <extensions>
          <gpxtpx:TrackPointExtension xmlns:gpxtpx="http://www.garmin.com/xmlschemas/TrackPointExtension/v1">
            <gpxtpx:hr>118</gpxtpx:hr>
          </gpxtpx:TrackPointExtension>
        </extensions>
      </trkpt>
      <trkpt lat="50.50082" lon="2.56416">
        <ele>34.6</ele>
        <time>2021-06-24T15:54:05Z</time>
        <extensions>
          <gpxtpx:TrackPointExtension xmlns:gpxtpx="http://www.garmin.com/xmlschemas/TrackPointExtension/v1">
            <gpxtpx:hr>118</gpxtpx:hr>
          </gpxtpx:TrackPointExtension>
        </extensions>
      </trkpt>
      <trkpt lat="50.50085" lon="2.56422">
        <ele>34.6</ele>
        <time>2021-06-24T15:54:06Z</time>
        <extensions>
          <gpxtpx:TrackPointExtension xmlns:gpxtpx="http://www.garmin.com/xmlschemas/TrackPointExtension/v1">
            <gpxtpx:hr>118</gpxtpx:hr>
          </gpxtpx:TrackPointExtension>
        </extensions>
      </trkpt>
      <trkpt lat="50.50087" lon="2.56427">
        <ele>34.6</ele>
        <time>2021-06-24T15:54:07Z</time>
        <extensions>
          <gpxtpx:TrackPointExtension xmlns:gpxtpx="http://www.garmin.com/xmlschemas/TrackPointExtension/v1">
            <gpxtpx:hr>118</gpxtpx:hr>
          </gpxtpx:TrackPointExtension>
        </extensions>
      </trkpt>
      <trkpt lat="50.5009" lon="2.56434">
        <ele>34.6</ele>
        <time>2021-06-24T15:54:08Z</time>
        <extensions>
          <gpxtpx:TrackPointExtension xmlns:gpxtpx="http://www.garmin.com/xmlschemas/TrackPointExtension/v1">
            <gpxtpx:hr>119</gpxtpx:hr>
          </gpxtpx:TrackPointExtension>
        </extensions>
      </trkpt>
      <trkpt lat="50.50093" lon="2.56439">
        <ele>34.6</ele>
        <time>2021-06-24T15:54:09Z</time>
        <extensions>
          <gpxtpx:TrackPointExtension xmlns:gpxtpx="http://www.garmin.com/xmlschemas/TrackPointExtension/v1">
            <gpxtpx:hr>119</gpxtpx:hr>
          </gpxtpx:TrackPointExtension>
        </extensions>
      </trkpt>
      <trkpt lat="50.50095" lon="2.56446">
        <ele>34.6</ele>
        <time>2021-06-24T15:54:10Z</time>
        <extensions>
          <gpxtpx:TrackPointExtension xmlns:gpxtpx="http://www.garmin.com/xmlschemas/TrackPointExtension/v1">
            <gpxtpx:hr>120</gpxtpx:hr>
          </gpxtpx:TrackPointExtension>
        </extensions>
      </trkpt>
      <trkpt lat="50.50098" lon="2.56453">
        <ele>34.6</ele>
        <time>2021-06-24T15:54:11Z</time>
        <extensions>
          <gpxtpx:TrackPointExtension xmlns:gpxtpx="http://www.garmin.com/xmlschemas/TrackPointExtension/v1">
            <gpxtpx:hr>120</gpxtpx:hr>
          </gpxtpx:TrackPointExtension>
        </extensions>
      </trkpt>
      <trkpt lat="50.50099" lon="2.5646">
        <ele>34.6</ele>
        <time>2021-06-24T15:54:12Z</time>
        <extensions>
          <gpxtpx:TrackPointExtension xmlns:gpxtpx="http://www.garmin.com/xmlschemas/TrackPointExtension/v1">
            <gpxtpx:hr>121</gpxtpx:hr>
          </gpxtpx:TrackPointExtension>
        </extensions>
      </trkpt>
      <trkpt lat="50.50101" lon="2.56468">
        <ele>34.6</ele>
        <time>2021-06-24T15:54:13Z</time>
        <extensions>
          <gpxtpx:TrackPointExtension xmlns:gpxtpx="http://www.garmin.com/xmlschemas/TrackPointExtension/v1">
            <gpxtpx:hr>121</gpxtpx:hr>
          </gpxtpx:TrackPointExtension>
        </extensions>
      </trkpt>
      <trkpt lat="50.50105" lon="2.56476">
        <ele>34.6</ele>
        <time>2021-06-24T15:54:14Z</time>
        <extensions>
          <gpxtpx:TrackPointExtension xmlns:gpxtpx="http://www.garmin.com/xmlschemas/TrackPointExtension/v1">
            <gpxtpx:hr>122</gpxtpx:hr>
          </gpxtpx:TrackPointExtension>
        </extensions>
      </trkpt>
      <trkpt lat="50.50108" lon="2.56484">
        <ele>34.6</ele>
        <time>2021-06-24T15:54:15Z</time>
        <extensions>
          <gpxtpx:TrackPointExtension xmlns:gpxtpx="http://www.garmin.com/xmlschemas/TrackPointExtension/v1">
            <gpxtpx:hr>122</gpxtpx:hr>
          </gpxtpx:TrackPointExtension>
        </extensions>
      </trkpt>
      <trkpt lat="50.50111" lon="2.56492">
        <ele>34.6</ele>
        <time>2021-06-24T15:54:16Z</time>
        <extensions>
          <gpxtpx:TrackPointExtension xmlns:gpxtpx="http://www.garmin.com/xmlschemas/TrackPointExtension/v1">
            <gpxtpx:hr>122</gpxtpx:hr>
          </gpxtpx:TrackPointExtension>
        </extensions>
      </trkpt>
      <trkpt lat="50.50114" lon="2.56499">
        <ele>34.6</ele>
        <time>2021-06-24T15:54:17Z</time>
        <extensions>
          <gpxtpx:TrackPointExtension xmlns:gpxtpx="http://www.garmin.com/xmlschemas/TrackPointExtension/v1">
            <gpxtpx:hr>122</gpxtpx:hr>
          </gpxtpx:TrackPointExtension>
        </extensions>
      </trkpt>
      <trkpt lat="50.50116" lon="2.56507">
        <ele>34.6</ele>
        <time>2021-06-24T15:54:18Z</time>
        <extensions>
          <gpxtpx:TrackPointExtension xmlns:gpxtpx="http://www.garmin.com/xmlschemas/TrackPointExtension/v1">
            <gpxtpx:hr>122</gpxtpx:hr>
          </gpxtpx:TrackPointExtension>
        </extensions>
      </trkpt>
      <trkpt lat="50.50118" lon="2.56514">
        <ele>34.6</ele>
        <time>2021-06-24T15:54:19Z</time>
        <extensions>
          <gpxtpx:TrackPointExtension xmlns:gpxtpx="http://www.garmin.com/xmlschemas/TrackPointExtension/v1">
            <gpxtpx:hr>122</gpxtpx:hr>
          </gpxtpx:TrackPointExtension>
        </extensions>
      </trkpt>
      <trkpt lat="50.50121" lon="2.56521">
        <ele>34.6</ele>
        <time>2021-06-24T15:54:20Z</time>
        <extensions>
          <gpxtpx:TrackPointExtension xmlns:gpxtpx="http://www.garmin.com/xmlschemas/TrackPointExtension/v1">
            <gpxtpx:hr>122</gpxtpx:hr>
          </gpxtpx:TrackPointExtension>
        </extensions>
      </trkpt>
      <trkpt lat="50.50122" lon="2.56528">
        <ele>34.6</ele>
        <time>2021-06-24T15:54:21Z</time>
        <extensions>
          <gpxtpx:TrackPointExtension xmlns:gpxtpx="http://www.garmin.com/xmlschemas/TrackPointExtension/v1">
            <gpxtpx:hr>122</gpxtpx:hr>
          </gpxtpx:TrackPointExtension>
        </extensions>
      </trkpt>
      <trkpt lat="50.50124" lon="2.56535">
        <ele>34.6</ele>
        <time>2021-06-24T15:54:22Z</time>
        <extensions>
          <gpxtpx:TrackPointExtension xmlns:gpxtpx="http://www.garmin.com/xmlschemas/TrackPointExtension/v1">
            <gpxtpx:hr>122</gpxtpx:hr>
          </gpxtpx:TrackPointExtension>
        </extensions>
      </trkpt>
      <trkpt lat="50.50126" lon="2.56542">
        <ele>34.6</ele>
        <time>2021-06-24T15:54:23Z</time>
        <extensions>
          <gpxtpx:TrackPointExtension xmlns:gpxtpx="http://www.garmin.com/xmlschemas/TrackPointExtension/v1">
            <gpxtpx:hr>122</gpxtpx:hr>
          </gpxtpx:TrackPointExtension>
        </extensions>
      </trkpt>
      <trkpt lat="50.50129" lon="2.56548">
        <ele>34.6</ele>
        <time>2021-06-24T15:54:24Z</time>
        <extensions>
          <gpxtpx:TrackPointExtension xmlns:gpxtpx="http://www.garmin.com/xmlschemas/TrackPointExtension/v1">
            <gpxtpx:hr>122</gpxtpx:hr>
          </gpxtpx:TrackPointExtension>
        </extensions>
      </trkpt>
      <trkpt lat="50.50132" lon="2.56554">
        <ele>34.6</ele>
        <time>2021-06-24T15:54:25Z</time>
        <extensions>
          <gpxtpx:TrackPointExtension xmlns:gpxtpx="http://www.garmin.com/xmlschemas/TrackPointExtension/v1">
            <gpxtpx:hr>122</gpxtpx:hr>
          </gpxtpx:TrackPointExtension>
        </extensions>
      </trkpt>
      <trkpt lat="50.50135" lon="2.56561">
        <ele>34.6</ele>
        <time>2021-06-24T15:54:26Z</time>
        <extensions>
          <gpxtpx:TrackPointExtension xmlns:gpxtpx="http://www.garmin.com/xmlschemas/TrackPointExtension/v1">
            <gpxtpx:hr>122</gpxtpx:hr>
          </gpxtpx:TrackPointExtension>
        </extensions>
      </trkpt>
      <trkpt lat="50.50139" lon="2.56567">
        <ele>34.6</ele>
        <time>2021-06-24T15:54:27Z</time>
        <extensions>
          <gpxtpx:TrackPointExtension xmlns:gpxtpx="http://www.garmin.com/xmlschemas/TrackPointExtension/v1">
            <gpxtpx:hr>122</gpxtpx:hr>
          </gpxtpx:TrackPointExtension>
        </extensions>
      </trkpt>
      <trkpt lat="50.50141" lon="2.56572">
        <ele>34.6</ele>
        <time>2021-06-24T15:54:28Z</time>
        <extensions>
          <gpxtpx:TrackPointExtension xmlns:gpxtpx="http://www.garmin.com/xmlschemas/TrackPointExtension/v1">
            <gpxtpx:hr>122</gpxtpx:hr>
          </gpxtpx:TrackPointExtension>
        </extensions>
      </trkpt>
      <trkpt lat="50.50143" lon="2.56579">
        <ele>34.6</ele>
        <time>2021-06-24T15:54:29Z</time>
        <extensions>
          <gpxtpx:TrackPointExtension xmlns:gpxtpx="http://www.garmin.com/xmlschemas/TrackPointExtension/v1">
            <gpxtpx:hr>121</gpxtpx:hr>
          </gpxtpx:TrackPointExtension>
        </extensions>
      </trkpt>
      <trkpt lat="50.50144" lon="2.56587">
        <ele>34.6</ele>
        <time>2021-06-24T15:54:30Z</time>
        <extensions>
          <gpxtpx:TrackPointExtension xmlns:gpxtpx="http://www.garmin.com/xmlschemas/TrackPointExtension/v1">
            <gpxtpx:hr>121</gpxtpx:hr>
          </gpxtpx:TrackPointExtension>
        </extensions>
      </trkpt>
      <trkpt lat="50.50147" lon="2.56596">
        <ele>34.6</ele>
        <time>2021-06-24T15:54:31Z</time>
        <extensions>
          <gpxtpx:TrackPointExtension xmlns:gpxtpx="http://www.garmin.com/xmlschemas/TrackPointExtension/v1">
            <gpxtpx:hr>120</gpxtpx:hr>
          </gpxtpx:TrackPointExtension>
        </extensions>
      </trkpt>
      <trkpt lat="50.50149" lon="2.56603">
        <ele>34.6</ele>
        <time>2021-06-24T15:54:32Z</time>
        <extensions>
          <gpxtpx:TrackPointExtension xmlns:gpxtpx="http://www.garmin.com/xmlschemas/TrackPointExtension/v1">
            <gpxtpx:hr>120</gpxtpx:hr>
          </gpxtpx:TrackPointExtension>
        </extensions>
      </trkpt>
      <trkpt lat="50.50152" lon="2.5661">
        <ele>34.4</ele>
        <time>2021-06-24T15:54:33Z</time>
        <extensions>
          <gpxtpx:TrackPointExtension xmlns:gpxtpx="http://www.garmin.com/xmlschemas/TrackPointExtension/v1">
            <gpxtpx:hr>120</gpxtpx:hr>
          </gpxtpx:TrackPointExtension>
        </extensions>
      </trkpt>
      <trkpt lat="50.50155" lon="2.56619">
        <ele>34.4</ele>
        <time>2021-06-24T15:54:34Z</time>
        <extensions>
          <gpxtpx:TrackPointExtension xmlns:gpxtpx="http://www.garmin.com/xmlschemas/TrackPointExtension/v1">
            <gpxtpx:hr>120</gpxtpx:hr>
          </gpxtpx:TrackPointExtension>
        </extensions>
      </trkpt>
      <trkpt lat="50.50157" lon="2.56625">
        <ele>34.4</ele>
        <time>2021-06-24T15:54:35Z</time>
        <extensions>
          <gpxtpx:TrackPointExtension xmlns:gpxtpx="http://www.garmin.com/xmlschemas/TrackPointExtension/v1">
            <gpxtpx:hr>121</gpxtpx:hr>
          </gpxtpx:TrackPointExtension>
        </extensions>
      </trkpt>
      <trkpt lat="50.5016" lon="2.56632">
        <ele>34.2</ele>
        <time>2021-06-24T15:54:36Z</time>
        <extensions>
          <gpxtpx:TrackPointExtension xmlns:gpxtpx="http://www.garmin.com/xmlschemas/TrackPointExtension/v1">
            <gpxtpx:hr>121</gpxtpx:hr>
          </gpxtpx:TrackPointExtension>
        </extensions>
      </trkpt>
      <trkpt lat="50.50162" lon="2.56639">
        <ele>34.2</ele>
        <time>2021-06-24T15:54:37Z</time>
        <extensions>
          <gpxtpx:TrackPointExtension xmlns:gpxtpx="http://www.garmin.com/xmlschemas/TrackPointExtension/v1">
            <gpxtpx:hr>121</gpxtpx:hr>
          </gpxtpx:TrackPointExtension>
        </extensions>
      </trkpt>
      <trkpt lat="50.50165" lon="2.56645">
        <ele>34.2</ele>
        <time>2021-06-24T15:54:38Z</time>
        <extensions>
          <gpxtpx:TrackPointExtension xmlns:gpxtpx="http://www.garmin.com/xmlschemas/TrackPointExtension/v1">
            <gpxtpx:hr>121</gpxtpx:hr>
          </gpxtpx:TrackPointExtension>
        </extensions>
      </trkpt>
      <trkpt lat="50.50168" lon="2.56651">
        <ele>34.2</ele>
        <time>2021-06-24T15:54:39Z</time>
        <extensions>
          <gpxtpx:TrackPointExtension xmlns:gpxtpx="http://www.garmin.com/xmlschemas/TrackPointExtension/v1">
            <gpxtpx:hr>122</gpxtpx:hr>
          </gpxtpx:TrackPointExtension>
        </extensions>
      </trkpt>
      <trkpt lat="50.50172" lon="2.56657">
        <ele>34</ele>
        <time>2021-06-24T15:54:40Z</time>
        <extensions>
          <gpxtpx:TrackPointExtension xmlns:gpxtpx="http://www.garmin.com/xmlschemas/TrackPointExtension/v1">
            <gpxtpx:hr>122</gpxtpx:hr>
          </gpxtpx:TrackPointExtension>
        </extensions>
      </trkpt>
      <trkpt lat="50.50176" lon="2.56662">
        <ele>34</ele>
        <time>2021-06-24T15:54:41Z</time>
        <extensions>
          <gpxtpx:TrackPointExtension xmlns:gpxtpx="http://www.garmin.com/xmlschemas/TrackPointExtension/v1">
            <gpxtpx:hr>122</gpxtpx:hr>
          </gpxtpx:TrackPointExtension>
        </extensions>
      </trkpt>
      <trkpt lat="50.50179" lon="2.56666">
        <ele>34</ele>
        <time>2021-06-24T15:54:42Z</time>
        <extensions>
          <gpxtpx:TrackPointExtension xmlns:gpxtpx="http://www.garmin.com/xmlschemas/TrackPointExtension/v1">
            <gpxtpx:hr>122</gpxtpx:hr>
          </gpxtpx:TrackPointExtension>
        </extensions>
      </trkpt>
      <trkpt lat="50.5018" lon="2.56673">
        <ele>34</ele>
        <time>2021-06-24T15:54:43Z</time>
        <extensions>
          <gpxtpx:TrackPointExtension xmlns:gpxtpx="http://www.garmin.com/xmlschemas/TrackPointExtension/v1">
            <gpxtpx:hr>122</gpxtpx:hr>
          </gpxtpx:TrackPointExtension>
        </extensions>
      </trkpt>
      <trkpt lat="50.50181" lon="2.5668">
        <ele>34</ele>
        <time>2021-06-24T15:54:44Z</time>
        <extensions>
          <gpxtpx:TrackPointExtension xmlns:gpxtpx="http://www.garmin.com/xmlschemas/TrackPointExtension/v1">
            <gpxtpx:hr>122</gpxtpx:hr>
          </gpxtpx:TrackPointExtension>
        </extensions>
      </trkpt>
      <trkpt lat="50.50183" lon="2.56687">
        <ele>34</ele>
        <time>2021-06-24T15:54:45Z</time>
        <extensions>
          <gpxtpx:TrackPointExtension xmlns:gpxtpx="http://www.garmin.com/xmlschemas/TrackPointExtension/v1">
            <gpxtpx:hr>122</gpxtpx:hr>
          </gpxtpx:TrackPointExtension>
        </extensions>
      </trkpt>
      <trkpt lat="50.50185" lon="2.56694">
        <ele>34</ele>
        <time>2021-06-24T15:54:46Z</time>
        <extensions>
          <gpxtpx:TrackPointExtension xmlns:gpxtpx="http://www.garmin.com/xmlschemas/TrackPointExtension/v1">
            <gpxtpx:hr>122</gpxtpx:hr>
          </gpxtpx:TrackPointExtension>
        </extensions>
      </trkpt>
      <trkpt lat="50.50187" lon="2.56699">
        <ele>34</ele>
        <time>2021-06-24T15:54:47Z</time>
        <extensions>
          <gpxtpx:TrackPointExtension xmlns:gpxtpx="http://www.garmin.com/xmlschemas/TrackPointExtension/v1">
            <gpxtpx:hr>122</gpxtpx:hr>
          </gpxtpx:TrackPointExtension>
        </extensions>
      </trkpt>
      <trkpt lat="50.50189" lon="2.56704">
        <ele>33.8</ele>
        <time>2021-06-24T15:54:48Z</time>
        <extensions>
          <gpxtpx:TrackPointExtension xmlns:gpxtpx="http://www.garmin.com/xmlschemas/TrackPointExtension/v1">
            <gpxtpx:hr>122</gpxtpx:hr>
          </gpxtpx:TrackPointExtension>
        </extensions>
      </trkpt>
      <trkpt lat="50.50192" lon="2.56709">
        <ele>33.8</ele>
        <time>2021-06-24T15:54:49Z</time>
        <extensions>
          <gpxtpx:TrackPointExtension xmlns:gpxtpx="http://www.garmin.com/xmlschemas/TrackPointExtension/v1">
            <gpxtpx:hr>122</gpxtpx:hr>
          </gpxtpx:TrackPointExtension>
        </extensions>
      </trkpt>
      <trkpt lat="50.50195" lon="2.56715">
        <ele>33.8</ele>
        <time>2021-06-24T15:54:50Z</time>
        <extensions>
          <gpxtpx:TrackPointExtension xmlns:gpxtpx="http://www.garmin.com/xmlschemas/TrackPointExtension/v1">
            <gpxtpx:hr>122</gpxtpx:hr>
          </gpxtpx:TrackPointExtension>
        </extensions>
      </trkpt>
      <trkpt lat="50.50198" lon="2.56721">
        <ele>33.8</ele>
        <time>2021-06-24T15:54:51Z</time>
        <extensions>
          <gpxtpx:TrackPointExtension xmlns:gpxtpx="http://www.garmin.com/xmlschemas/TrackPointExtension/v1">
            <gpxtpx:hr>122</gpxtpx:hr>
          </gpxtpx:TrackPointExtension>
        </extensions>
      </trkpt>
      <trkpt lat="50.50201" lon="2.56728">
        <ele>33.8</ele>
        <time>2021-06-24T15:54:52Z</time>
        <extensions>
          <gpxtpx:TrackPointExtension xmlns:gpxtpx="http://www.garmin.com/xmlschemas/TrackPointExtension/v1">
            <gpxtpx:hr>123</gpxtpx:hr>
          </gpxtpx:TrackPointExtension>
        </extensions>
      </trkpt>
      <trkpt lat="50.50204" lon="2.56734">
        <ele>33.6</ele>
        <time>2021-06-24T15:54:53Z</time>
        <extensions>
          <gpxtpx:TrackPointExtension xmlns:gpxtpx="http://www.garmin.com/xmlschemas/TrackPointExtension/v1">
            <gpxtpx:hr>123</gpxtpx:hr>
          </gpxtpx:TrackPointExtension>
        </extensions>
      </trkpt>
      <trkpt lat="50.50207" lon="2.5674">
        <ele>33.6</ele>
        <time>2021-06-24T15:54:54Z</time>
        <extensions>
          <gpxtpx:TrackPointExtension xmlns:gpxtpx="http://www.garmin.com/xmlschemas/TrackPointExtension/v1">
            <gpxtpx:hr>123</gpxtpx:hr>
          </gpxtpx:TrackPointExtension>
        </extensions>
      </trkpt>
      <trkpt lat="50.50209" lon="2.56747">
        <ele>33.6</ele>
        <time>2021-06-24T15:54:55Z</time>
        <extensions>
          <gpxtpx:TrackPointExtension xmlns:gpxtpx="http://www.garmin.com/xmlschemas/TrackPointExtension/v1">
            <gpxtpx:hr>123</gpxtpx:hr>
          </gpxtpx:TrackPointExtension>
        </extensions>
      </trkpt>
      <trkpt lat="50.50212" lon="2.56755">
        <ele>33.6</ele>
        <time>2021-06-24T15:54:56Z</time>
        <extensions>
          <gpxtpx:TrackPointExtension xmlns:gpxtpx="http://www.garmin.com/xmlschemas/TrackPointExtension/v1">
            <gpxtpx:hr>123</gpxtpx:hr>
          </gpxtpx:TrackPointExtension>
        </extensions>
      </trkpt>
      <trkpt lat="50.50215" lon="2.56762">
        <ele>33.6</ele>
        <time>2021-06-24T15:54:57Z</time>
        <extensions>
          <gpxtpx:TrackPointExtension xmlns:gpxtpx="http://www.garmin.com/xmlschemas/TrackPointExtension/v1">
            <gpxtpx:hr>124</gpxtpx:hr>
          </gpxtpx:TrackPointExtension>
        </extensions>
      </trkpt>
      <trkpt lat="50.50219" lon="2.56771">
        <ele>33.4</ele>
        <time>2021-06-24T15:54:58Z</time>
        <extensions>
          <gpxtpx:TrackPointExtension xmlns:gpxtpx="http://www.garmin.com/xmlschemas/TrackPointExtension/v1">
            <gpxtpx:hr>124</gpxtpx:hr>
          </gpxtpx:TrackPointExtension>
        </extensions>
      </trkpt>
      <trkpt lat="50.50223" lon="2.56778">
        <ele>33.4</ele>
        <time>2021-06-24T15:54:59Z</time>
        <extensions>
          <gpxtpx:TrackPointExtension xmlns:gpxtpx="http://www.garmin.com/xmlschemas/TrackPointExtension/v1">
            <gpxtpx:hr>124</gpxtpx:hr>
          </gpxtpx:TrackPointExtension>
        </extensions>
      </trkpt>
      <trkpt lat="50.50228" lon="2.56783">
        <ele>33.4</ele>
        <time>2021-06-24T15:55:00Z</time>
        <extensions>
          <gpxtpx:TrackPointExtension xmlns:gpxtpx="http://www.garmin.com/xmlschemas/TrackPointExtension/v1">
            <gpxtpx:hr>125</gpxtpx:hr>
          </gpxtpx:TrackPointExtension>
        </extensions>
      </trkpt>
      <trkpt lat="50.50233" lon="2.56788">
        <ele>33.4</ele>
        <time>2021-06-24T15:55:01Z</time>
        <extensions>
          <gpxtpx:TrackPointExtension xmlns:gpxtpx="http://www.garmin.com/xmlschemas/TrackPointExtension/v1">
            <gpxtpx:hr>125</gpxtpx:hr>
          </gpxtpx:TrackPointExtension>
        </extensions>
      </trkpt>
      <trkpt lat="50.50236" lon="2.56792">
        <ele>33.4</ele>
        <time>2021-06-24T15:55:02Z</time>
        <extensions>
          <gpxtpx:TrackPointExtension xmlns:gpxtpx="http://www.garmin.com/xmlschemas/TrackPointExtension/v1">
            <gpxtpx:hr>125</gpxtpx:hr>
          </gpxtpx:TrackPointExtension>
        </extensions>
      </trkpt>
      <trkpt lat="50.50241" lon="2.56796">
        <ele>33.4</ele>
        <time>2021-06-24T15:55:03Z</time>
        <extensions>
          <gpxtpx:TrackPointExtension xmlns:gpxtpx="http://www.garmin.com/xmlschemas/TrackPointExtension/v1">
            <gpxtpx:hr>125</gpxtpx:hr>
          </gpxtpx:TrackPointExtension>
        </extensions>
      </trkpt>
      <trkpt lat="50.50244" lon="2.56799">
        <ele>33.4</ele>
        <time>2021-06-24T15:55:04Z</time>
        <extensions>
          <gpxtpx:TrackPointExtension xmlns:gpxtpx="http://www.garmin.com/xmlschemas/TrackPointExtension/v1">
            <gpxtpx:hr>126</gpxtpx:hr>
          </gpxtpx:TrackPointExtension>
        </extensions>
      </trkpt>
      <trkpt lat="50.50246" lon="2.56802">
        <ele>33.4</ele>
        <time>2021-06-24T15:55:05Z</time>
        <extensions>
          <gpxtpx:TrackPointExtension xmlns:gpxtpx="http://www.garmin.com/xmlschemas/TrackPointExtension/v1">
            <gpxtpx:hr>126</gpxtpx:hr>
          </gpxtpx:TrackPointExtension>
        </extensions>
      </trkpt>
      <trkpt lat="50.50248" lon="2.56807">
        <ele>33.4</ele>
        <time>2021-06-24T15:55:06Z</time>
        <extensions>
          <gpxtpx:TrackPointExtension xmlns:gpxtpx="http://www.garmin.com/xmlschemas/TrackPointExtension/v1">
            <gpxtpx:hr>126</gpxtpx:hr>
          </gpxtpx:TrackPointExtension>
        </extensions>
      </trkpt>
      <trkpt lat="50.50251" lon="2.56812">
        <ele>33.4</ele>
        <time>2021-06-24T15:55:07Z</time>
        <extensions>
          <gpxtpx:TrackPointExtension xmlns:gpxtpx="http://www.garmin.com/xmlschemas/TrackPointExtension/v1">
            <gpxtpx:hr>126</gpxtpx:hr>
          </gpxtpx:TrackPointExtension>
        </extensions>
      </trkpt>
      <trkpt lat="50.50252" lon="2.56818">
        <ele>33.4</ele>
        <time>2021-06-24T15:55:08Z</time>
        <extensions>
          <gpxtpx:TrackPointExtension xmlns:gpxtpx="http://www.garmin.com/xmlschemas/TrackPointExtension/v1">
            <gpxtpx:hr>126</gpxtpx:hr>
          </gpxtpx:TrackPointExtension>
        </extensions>
      </trkpt>
      <trkpt lat="50.50254" lon="2.56825">
        <ele>33.4</ele>
        <time>2021-06-24T15:55:09Z</time>
        <extensions>
          <gpxtpx:TrackPointExtension xmlns:gpxtpx="http://www.garmin.com/xmlschemas/TrackPointExtension/v1">
            <gpxtpx:hr>125</gpxtpx:hr>
          </gpxtpx:TrackPointExtension>
        </extensions>
      </trkpt>
      <trkpt lat="50.50256" lon="2.56832">
        <ele>33.4</ele>
        <time>2021-06-24T15:55:10Z</time>
        <extensions>
          <gpxtpx:TrackPointExtension xmlns:gpxtpx="http://www.garmin.com/xmlschemas/TrackPointExtension/v1">
            <gpxtpx:hr>125</gpxtpx:hr>
          </gpxtpx:TrackPointExtension>
        </extensions>
      </trkpt>
      <trkpt lat="50.50258" lon="2.56838">
        <ele>33.4</ele>
        <time>2021-06-24T15:55:11Z</time>
        <extensions>
          <gpxtpx:TrackPointExtension xmlns:gpxtpx="http://www.garmin.com/xmlschemas/TrackPointExtension/v1">
            <gpxtpx:hr>125</gpxtpx:hr>
          </gpxtpx:TrackPointExtension>
        </extensions>
      </trkpt>
      <trkpt lat="50.5026" lon="2.56843">
        <ele>33.4</ele>
        <time>2021-06-24T15:55:12Z</time>
        <extensions>
          <gpxtpx:TrackPointExtension xmlns:gpxtpx="http://www.garmin.com/xmlschemas/TrackPointExtension/v1">
            <gpxtpx:hr>125</gpxtpx:hr>
          </gpxtpx:TrackPointExtension>
        </extensions>
      </trkpt>
      <trkpt lat="50.50262" lon="2.56849">
        <ele>33.4</ele>
        <time>2021-06-24T15:55:13Z</time>
        <extensions>
          <gpxtpx:TrackPointExtension xmlns:gpxtpx="http://www.garmin.com/xmlschemas/TrackPointExtension/v1">
            <gpxtpx:hr>125</gpxtpx:hr>
          </gpxtpx:TrackPointExtension>
        </extensions>
      </trkpt>
      <trkpt lat="50.50264" lon="2.56854">
        <ele>33.4</ele>
        <time>2021-06-24T15:55:14Z</time>
        <extensions>
          <gpxtpx:TrackPointExtension xmlns:gpxtpx="http://www.garmin.com/xmlschemas/TrackPointExtension/v1">
            <gpxtpx:hr>125</gpxtpx:hr>
          </gpxtpx:TrackPointExtension>
        </extensions>
      </trkpt>
      <trkpt lat="50.50266" lon="2.5686">
        <ele>33.4</ele>
        <time>2021-06-24T15:55:15Z</time>
        <extensions>
          <gpxtpx:TrackPointExtension xmlns:gpxtpx="http://www.garmin.com/xmlschemas/TrackPointExtension/v1">
            <gpxtpx:hr>125</gpxtpx:hr>
          </gpxtpx:TrackPointExtension>
        </extensions>
      </trkpt>
      <trkpt lat="50.50267" lon="2.56865">
        <ele>33.4</ele>
        <time>2021-06-24T15:55:16Z</time>
        <extensions>
          <gpxtpx:TrackPointExtension xmlns:gpxtpx="http://www.garmin.com/xmlschemas/TrackPointExtension/v1">
            <gpxtpx:hr>125</gpxtpx:hr>
          </gpxtpx:TrackPointExtension>
        </extensions>
      </trkpt>
      <trkpt lat="50.50269" lon="2.5687">
        <ele>33.4</ele>
        <time>2021-06-24T15:55:17Z</time>
        <extensions>
          <gpxtpx:TrackPointExtension xmlns:gpxtpx="http://www.garmin.com/xmlschemas/TrackPointExtension/v1">
            <gpxtpx:hr>125</gpxtpx:hr>
          </gpxtpx:TrackPointExtension>
        </extensions>
      </trkpt>
      <trkpt lat="50.50271" lon="2.56875">
        <ele>33.6</ele>
        <time>2021-06-24T15:55:18Z</time>
        <extensions>
          <gpxtpx:TrackPointExtension xmlns:gpxtpx="http://www.garmin.com/xmlschemas/TrackPointExtension/v1">
            <gpxtpx:hr>125</gpxtpx:hr>
          </gpxtpx:TrackPointExtension>
        </extensions>
      </trkpt>
      <trkpt lat="50.50273" lon="2.5688">
        <ele>33.6</ele>
        <time>2021-06-24T15:55:19Z</time>
        <extensions>
          <gpxtpx:TrackPointExtension xmlns:gpxtpx="http://www.garmin.com/xmlschemas/TrackPointExtension/v1">
            <gpxtpx:hr>125</gpxtpx:hr>
          </gpxtpx:TrackPointExtension>
        </extensions>
      </trkpt>
      <trkpt lat="50.50274" lon="2.56886">
        <ele>33.6</ele>
        <time>2021-06-24T15:55:20Z</time>
        <extensions>
          <gpxtpx:TrackPointExtension xmlns:gpxtpx="http://www.garmin.com/xmlschemas/TrackPointExtension/v1">
            <gpxtpx:hr>125</gpxtpx:hr>
          </gpxtpx:TrackPointExtension>
        </extensions>
      </trkpt>
      <trkpt lat="50.50276" lon="2.56891">
        <ele>33.6</ele>
        <time>2021-06-24T15:55:21Z</time>
        <extensions>
          <gpxtpx:TrackPointExtension xmlns:gpxtpx="http://www.garmin.com/xmlschemas/TrackPointExtension/v1">
            <gpxtpx:hr>125</gpxtpx:hr>
          </gpxtpx:TrackPointExtension>
        </extensions>
      </trkpt>
      <trkpt lat="50.50277" lon="2.56895">
        <ele>33.6</ele>
        <time>2021-06-24T15:55:22Z</time>
        <extensions>
          <gpxtpx:TrackPointExtension xmlns:gpxtpx="http://www.garmin.com/xmlschemas/TrackPointExtension/v1">
            <gpxtpx:hr>125</gpxtpx:hr>
          </gpxtpx:TrackPointExtension>
        </extensions>
      </trkpt>
      <trkpt lat="50.5028" lon="2.56898">
        <ele>33.6</ele>
        <time>2021-06-24T15:55:23Z</time>
        <extensions>
          <gpxtpx:TrackPointExtension xmlns:gpxtpx="http://www.garmin.com/xmlschemas/TrackPointExtension/v1">
            <gpxtpx:hr>125</gpxtpx:hr>
          </gpxtpx:TrackPointExtension>
        </extensions>
      </trkpt>
      <trkpt lat="50.50282" lon="2.56901">
        <ele>33.6</ele>
        <time>2021-06-24T15:55:24Z</time>
        <extensions>
          <gpxtpx:TrackPointExtension xmlns:gpxtpx="http://www.garmin.com/xmlschemas/TrackPointExtension/v1">
            <gpxtpx:hr>125</gpxtpx:hr>
          </gpxtpx:TrackPointExtension>
        </extensions>
      </trkpt>
      <trkpt lat="50.50284" lon="2.56903">
        <ele>33.6</ele>
        <time>2021-06-24T15:55:25Z</time>
        <extensions>
          <gpxtpx:TrackPointExtension xmlns:gpxtpx="http://www.garmin.com/xmlschemas/TrackPointExtension/v1">
            <gpxtpx:hr>124</gpxtpx:hr>
          </gpxtpx:TrackPointExtension>
        </extensions>
      </trkpt>
      <trkpt lat="50.50284" lon="2.56906">
        <ele>33.6</ele>
        <time>2021-06-24T15:55:26Z</time>
        <extensions>
          <gpxtpx:TrackPointExtension xmlns:gpxtpx="http://www.garmin.com/xmlschemas/TrackPointExtension/v1">
            <gpxtpx:hr>124</gpxtpx:hr>
          </gpxtpx:TrackPointExtension>
        </extensions>
      </trkpt>
      <trkpt lat="50.50286" lon="2.56908">
        <ele>33.6</ele>
        <time>2021-06-24T15:55:27Z</time>
        <extensions>
          <gpxtpx:TrackPointExtension xmlns:gpxtpx="http://www.garmin.com/xmlschemas/TrackPointExtension/v1">
            <gpxtpx:hr>124</gpxtpx:hr>
          </gpxtpx:TrackPointExtension>
        </extensions>
      </trkpt>
      <trkpt lat="50.50288" lon="2.56911">
        <ele>33.6</ele>
        <time>2021-06-24T15:55:28Z</time>
        <extensions>
          <gpxtpx:TrackPointExtension xmlns:gpxtpx="http://www.garmin.com/xmlschemas/TrackPointExtension/v1">
            <gpxtpx:hr>124</gpxtpx:hr>
          </gpxtpx:TrackPointExtension>
        </extensions>
      </trkpt>
      <trkpt lat="50.5029" lon="2.56913">
        <ele>33.6</ele>
        <time>2021-06-24T15:55:29Z</time>
        <extensions>
          <gpxtpx:TrackPointExtension xmlns:gpxtpx="http://www.garmin.com/xmlschemas/TrackPointExtension/v1">
            <gpxtpx:hr>124</gpxtpx:hr>
          </gpxtpx:TrackPointExtension>
        </extensions>
      </trkpt>
      <trkpt lat="50.50292" lon="2.56915">
        <ele>33.8</ele>
        <time>2021-06-24T15:55:30Z</time>
        <extensions>
          <gpxtpx:TrackPointExtension xmlns:gpxtpx="http://www.garmin.com/xmlschemas/TrackPointExtension/v1">
            <gpxtpx:hr>124</gpxtpx:hr>
          </gpxtpx:TrackPointExtension>
        </extensions>
      </trkpt>
      <trkpt lat="50.50292" lon="2.56916">
        <ele>33.8</ele>
        <time>2021-06-24T15:55:31Z</time>
        <extensions>
          <gpxtpx:TrackPointExtension xmlns:gpxtpx="http://www.garmin.com/xmlschemas/TrackPointExtension/v1">
            <gpxtpx:hr>123</gpxtpx:hr>
          </gpxtpx:TrackPointExtension>
        </extensions>
      </trkpt>
      <trkpt lat="50.50294" lon="2.56918">
        <ele>33.8</ele>
        <time>2021-06-24T15:55:32Z</time>
        <extensions>
          <gpxtpx:TrackPointExtension xmlns:gpxtpx="http://www.garmin.com/xmlschemas/TrackPointExtension/v1">
            <gpxtpx:hr>123</gpxtpx:hr>
          </gpxtpx:TrackPointExtension>
        </extensions>
      </trkpt>
      <trkpt lat="50.50296" lon="2.56919">
        <ele>33.8</ele>
        <time>2021-06-24T15:55:33Z</time>
        <extensions>
          <gpxtpx:TrackPointExtension xmlns:gpxtpx="http://www.garmin.com/xmlschemas/TrackPointExtension/v1">
            <gpxtpx:hr>123</gpxtpx:hr>
          </gpxtpx:TrackPointExtension>
        </extensions>
      </trkpt>
      <trkpt lat="50.50296" lon="2.56922">
        <ele>34</ele>
        <time>2021-06-24T15:55:34Z</time>
        <extensions>
          <gpxtpx:TrackPointExtension xmlns:gpxtpx="http://www.garmin.com/xmlschemas/TrackPointExtension/v1">
            <gpxtpx:hr>123</gpxtpx:hr>
          </gpxtpx:TrackPointExtension>
        </extensions>
      </trkpt>
      <trkpt lat="50.50298" lon="2.56924">
        <ele>34</ele>
        <time>2021-06-24T15:55:35Z</time>
        <extensions>
          <gpxtpx:TrackPointExtension xmlns:gpxtpx="http://www.garmin.com/xmlschemas/TrackPointExtension/v1">
            <gpxtpx:hr>122</gpxtpx:hr>
          </gpxtpx:TrackPointExtension>
        </extensions>
      </trkpt>
      <trkpt lat="50.50298" lon="2.56926">
        <ele>34.2</ele>
        <time>2021-06-24T15:55:36Z</time>
        <extensions>
          <gpxtpx:TrackPointExtension xmlns:gpxtpx="http://www.garmin.com/xmlschemas/TrackPointExtension/v1">
            <gpxtpx:hr>122</gpxtpx:hr>
          </gpxtpx:TrackPointExtension>
        </extensions>
      </trkpt>
      <trkpt lat="50.50299" lon="2.56929">
        <ele>34.2</ele>
        <time>2021-06-24T15:55:37Z</time>
        <extensions>
          <gpxtpx:TrackPointExtension xmlns:gpxtpx="http://www.garmin.com/xmlschemas/TrackPointExtension/v1">
            <gpxtpx:hr>122</gpxtpx:hr>
          </gpxtpx:TrackPointExtension>
        </extensions>
      </trkpt>
      <trkpt lat="50.503" lon="2.56932">
        <ele>34.4</ele>
        <time>2021-06-24T15:55:38Z</time>
        <extensions>
          <gpxtpx:TrackPointExtension xmlns:gpxtpx="http://www.garmin.com/xmlschemas/TrackPointExtension/v1">
            <gpxtpx:hr>121</gpxtpx:hr>
          </gpxtpx:TrackPointExtension>
        </extensions>
      </trkpt>
      <trkpt lat="50.503" lon="2.56936">
        <ele>34.4</ele>
        <time>2021-06-24T15:55:39Z</time>
        <extensions>
          <gpxtpx:TrackPointExtension xmlns:gpxtpx="http://www.garmin.com/xmlschemas/TrackPointExtension/v1">
            <gpxtpx:hr>121</gpxtpx:hr>
          </gpxtpx:TrackPointExtension>
        </extensions>
      </trkpt>
      <trkpt lat="50.50301" lon="2.56939">
        <ele>34.6</ele>
        <time>2021-06-24T15:55:40Z</time>
        <extensions>
          <gpxtpx:TrackPointExtension xmlns:gpxtpx="http://www.garmin.com/xmlschemas/TrackPointExtension/v1">
            <gpxtpx:hr>121</gpxtpx:hr>
          </gpxtpx:TrackPointExtension>
        </extensions>
      </trkpt>
      <trkpt lat="50.50303" lon="2.56943">
        <ele>34.6</ele>
        <time>2021-06-24T15:55:41Z</time>
        <extensions>
          <gpxtpx:TrackPointExtension xmlns:gpxtpx="http://www.garmin.com/xmlschemas/TrackPointExtension/v1">
            <gpxtpx:hr>120</gpxtpx:hr>
          </gpxtpx:TrackPointExtension>
        </extensions>
      </trkpt>
      <trkpt lat="50.50305" lon="2.56946">
        <ele>34.6</ele>
        <time>2021-06-24T15:55:42Z</time>
        <extensions>
          <gpxtpx:TrackPointExtension xmlns:gpxtpx="http://www.garmin.com/xmlschemas/TrackPointExtension/v1">
            <gpxtpx:hr>120</gpxtpx:hr>
          </gpxtpx:TrackPointExtension>
        </extensions>
      </trkpt>
      <trkpt lat="50.50306" lon="2.5695">
        <ele>34.8</ele>
        <time>2021-06-24T15:55:43Z</time>
        <extensions>
          <gpxtpx:TrackPointExtension xmlns:gpxtpx="http://www.garmin.com/xmlschemas/TrackPointExtension/v1">
            <gpxtpx:hr>119</gpxtpx:hr>
          </gpxtpx:TrackPointExtension>
        </extensions>
      </trkpt>
      <trkpt lat="50.50307" lon="2.56955">
        <ele>34.8</ele>
        <time>2021-06-24T15:55:44Z</time>
        <extensions>
          <gpxtpx:TrackPointExtension xmlns:gpxtpx="http://www.garmin.com/xmlschemas/TrackPointExtension/v1">
            <gpxtpx:hr>118</gpxtpx:hr>
          </gpxtpx:TrackPointExtension>
        </extensions>
      </trkpt>
      <trkpt lat="50.50308" lon="2.5696">
        <ele>35</ele>
        <time>2021-06-24T15:55:45Z</time>
        <extensions>
          <gpxtpx:TrackPointExtension xmlns:gpxtpx="http://www.garmin.com/xmlschemas/TrackPointExtension/v1">
            <gpxtpx:hr>118</gpxtpx:hr>
          </gpxtpx:TrackPointExtension>
        </extensions>
      </trkpt>
      <trkpt lat="50.5031" lon="2.56965">
        <ele>35</ele>
        <time>2021-06-24T15:55:46Z</time>
        <extensions>
          <gpxtpx:TrackPointExtension xmlns:gpxtpx="http://www.garmin.com/xmlschemas/TrackPointExtension/v1">
            <gpxtpx:hr>117</gpxtpx:hr>
          </gpxtpx:TrackPointExtension>
        </extensions>
      </trkpt>
      <trkpt lat="50.50312" lon="2.56971">
        <ele>35.2</ele>
        <time>2021-06-24T15:55:47Z</time>
        <extensions>
          <gpxtpx:TrackPointExtension xmlns:gpxtpx="http://www.garmin.com/xmlschemas/TrackPointExtension/v1">
            <gpxtpx:hr>117</gpxtpx:hr>
          </gpxtpx:TrackPointExtension>
        </extensions>
      </trkpt>
      <trkpt lat="50.50313" lon="2.56976">
        <ele>35.2</ele>
        <time>2021-06-24T15:55:48Z</time>
        <extensions>
          <gpxtpx:TrackPointExtension xmlns:gpxtpx="http://www.garmin.com/xmlschemas/TrackPointExtension/v1">
            <gpxtpx:hr>117</gpxtpx:hr>
          </gpxtpx:TrackPointExtension>
        </extensions>
      </trkpt>
      <trkpt lat="50.50314" lon="2.56978">
        <ele>35.2</ele>
        <time>2021-06-24T15:55:49Z</time>
        <extensions>
          <gpxtpx:TrackPointExtension xmlns:gpxtpx="http://www.garmin.com/xmlschemas/TrackPointExtension/v1">
            <gpxtpx:hr>116</gpxtpx:hr>
          </gpxtpx:TrackPointExtension>
        </extensions>
      </trkpt>
      <trkpt lat="50.50315" lon="2.56981">
        <ele>35.4</ele>
        <time>2021-06-24T15:55:50Z</time>
        <extensions>
          <gpxtpx:TrackPointExtension xmlns:gpxtpx="http://www.garmin.com/xmlschemas/TrackPointExtension/v1">
            <gpxtpx:hr>116</gpxtpx:hr>
          </gpxtpx:TrackPointExtension>
        </extensions>
      </trkpt>
      <trkpt lat="50.50316" lon="2.56984">
        <ele>35.4</ele>
        <time>2021-06-24T15:55:51Z</time>
        <extensions>
          <gpxtpx:TrackPointExtension xmlns:gpxtpx="http://www.garmin.com/xmlschemas/TrackPointExtension/v1">
            <gpxtpx:hr>116</gpxtpx:hr>
          </gpxtpx:TrackPointExtension>
        </extensions>
      </trkpt>
      <trkpt lat="50.50317" lon="2.56987">
        <ele>35.4</ele>
        <time>2021-06-24T15:55:52Z</time>
        <extensions>
          <gpxtpx:TrackPointExtension xmlns:gpxtpx="http://www.garmin.com/xmlschemas/TrackPointExtension/v1">
            <gpxtpx:hr>116</gpxtpx:hr>
          </gpxtpx:TrackPointExtension>
        </extensions>
      </trkpt>
      <trkpt lat="50.50318" lon="2.5699">
        <ele>35.6</ele>
        <time>2021-06-24T15:55:53Z</time>
        <extensions>
          <gpxtpx:TrackPointExtension xmlns:gpxtpx="http://www.garmin.com/xmlschemas/TrackPointExtension/v1">
            <gpxtpx:hr>116</gpxtpx:hr>
          </gpxtpx:TrackPointExtension>
        </extensions>
      </trkpt>
      <trkpt lat="50.5032" lon="2.56992">
        <ele>35.6</ele>
        <time>2021-06-24T15:55:54Z</time>
        <extensions>
          <gpxtpx:TrackPointExtension xmlns:gpxtpx="http://www.garmin.com/xmlschemas/TrackPointExtension/v1">
            <gpxtpx:hr>116</gpxtpx:hr>
          </gpxtpx:TrackPointExtension>
        </extensions>
      </trkpt>
      <trkpt lat="50.50321" lon="2.56995">
        <ele>35.6</ele>
        <time>2021-06-24T15:55:55Z</time>
        <extensions>
          <gpxtpx:TrackPointExtension xmlns:gpxtpx="http://www.garmin.com/xmlschemas/TrackPointExtension/v1">
            <gpxtpx:hr>115</gpxtpx:hr>
          </gpxtpx:TrackPointExtension>
        </extensions>
      </trkpt>
      <trkpt lat="50.50323" lon="2.56997">
        <ele>35.8</ele>
        <time>2021-06-24T15:55:56Z</time>
        <extensions>
          <gpxtpx:TrackPointExtension xmlns:gpxtpx="http://www.garmin.com/xmlschemas/TrackPointExtension/v1">
            <gpxtpx:hr>115</gpxtpx:hr>
          </gpxtpx:TrackPointExtension>
        </extensions>
      </trkpt>
      <trkpt lat="50.50324" lon="2.57001">
        <ele>35.8</ele>
        <time>2021-06-24T15:55:57Z</time>
        <extensions>
          <gpxtpx:TrackPointExtension xmlns:gpxtpx="http://www.garmin.com/xmlschemas/TrackPointExtension/v1">
            <gpxtpx:hr>115</gpxtpx:hr>
          </gpxtpx:TrackPointExtension>
        </extensions>
      </trkpt>
      <trkpt lat="50.50324" lon="2.57005">
        <ele>35.8</ele>
        <time>2021-06-24T15:55:58Z</time>
        <extensions>
          <gpxtpx:TrackPointExtension xmlns:gpxtpx="http://www.garmin.com/xmlschemas/TrackPointExtension/v1">
            <gpxtpx:hr>115</gpxtpx:hr>
          </gpxtpx:TrackPointExtension>
        </extensions>
      </trkpt>
      <trkpt lat="50.50326" lon="2.57009">
        <ele>36</ele>
        <time>2021-06-24T15:55:59Z</time>
        <extensions>
          <gpxtpx:TrackPointExtension xmlns:gpxtpx="http://www.garmin.com/xmlschemas/TrackPointExtension/v1">
            <gpxtpx:hr>115</gpxtpx:hr>
          </gpxtpx:TrackPointExtension>
        </extensions>
      </trkpt>
      <trkpt lat="50.50328" lon="2.57014">
        <ele>36</ele>
        <time>2021-06-24T15:56:00Z</time>
        <extensions>
          <gpxtpx:TrackPointExtension xmlns:gpxtpx="http://www.garmin.com/xmlschemas/TrackPointExtension/v1">
            <gpxtpx:hr>114</gpxtpx:hr>
          </gpxtpx:TrackPointExtension>
        </extensions>
      </trkpt>
      <trkpt lat="50.5033" lon="2.57017">
        <ele>36</ele>
        <time>2021-06-24T15:56:01Z</time>
        <extensions>
          <gpxtpx:TrackPointExtension xmlns:gpxtpx="http://www.garmin.com/xmlschemas/TrackPointExtension/v1">
            <gpxtpx:hr>113</gpxtpx:hr>
          </gpxtpx:TrackPointExtension>
        </extensions>
      </trkpt>
      <trkpt lat="50.50331" lon="2.5702">
        <ele>36.2</ele>
        <time>2021-06-24T15:56:02Z</time>
        <extensions>
          <gpxtpx:TrackPointExtension xmlns:gpxtpx="http://www.garmin.com/xmlschemas/TrackPointExtension/v1">
            <gpxtpx:hr>112</gpxtpx:hr>
          </gpxtpx:TrackPointExtension>
        </extensions>
      </trkpt>
      <trkpt lat="50.50332" lon="2.57024">
        <ele>36.2</ele>
        <time>2021-06-24T15:56:03Z</time>
        <extensions>
          <gpxtpx:TrackPointExtension xmlns:gpxtpx="http://www.garmin.com/xmlschemas/TrackPointExtension/v1">
            <gpxtpx:hr>112</gpxtpx:hr>
          </gpxtpx:TrackPointExtension>
        </extensions>
      </trkpt>
      <trkpt lat="50.50332" lon="2.57028">
        <ele>36.4</ele>
        <time>2021-06-24T15:56:04Z</time>
        <extensions>
          <gpxtpx:TrackPointExtension xmlns:gpxtpx="http://www.garmin.com/xmlschemas/TrackPointExtension/v1">
            <gpxtpx:hr>111</gpxtpx:hr>
          </gpxtpx:TrackPointExtension>
        </extensions>
      </trkpt>
      <trkpt lat="50.50333" lon="2.57031">
        <ele>36.4</ele>
        <time>2021-06-24T15:56:05Z</time>
        <extensions>
          <gpxtpx:TrackPointExtension xmlns:gpxtpx="http://www.garmin.com/xmlschemas/TrackPointExtension/v1">
            <gpxtpx:hr>111</gpxtpx:hr>
          </gpxtpx:TrackPointExtension>
        </extensions>
      </trkpt>
      <trkpt lat="50.50334" lon="2.57036">
        <ele>36.6</ele>
        <time>2021-06-24T15:56:06Z</time>
        <extensions>
          <gpxtpx:TrackPointExtension xmlns:gpxtpx="http://www.garmin.com/xmlschemas/TrackPointExtension/v1">
            <gpxtpx:hr>112</gpxtpx:hr>
          </gpxtpx:TrackPointExtension>
        </extensions>
      </trkpt>
      <trkpt lat="50.50336" lon="2.57041">
        <ele>36.6</ele>
        <time>2021-06-24T15:56:07Z</time>
        <extensions>
          <gpxtpx:TrackPointExtension xmlns:gpxtpx="http://www.garmin.com/xmlschemas/TrackPointExtension/v1">
            <gpxtpx:hr>112</gpxtpx:hr>
          </gpxtpx:TrackPointExtension>
        </extensions>
      </trkpt>
      <trkpt lat="50.50339" lon="2.57045">
        <ele>36.6</ele>
        <time>2021-06-24T15:56:08Z</time>
        <extensions>
          <gpxtpx:TrackPointExtension xmlns:gpxtpx="http://www.garmin.com/xmlschemas/TrackPointExtension/v1">
            <gpxtpx:hr>112</gpxtpx:hr>
          </gpxtpx:TrackPointExtension>
        </extensions>
      </trkpt>
      <trkpt lat="50.5034" lon="2.57048">
        <ele>36.8</ele>
        <time>2021-06-24T15:56:09Z</time>
        <extensions>
          <gpxtpx:TrackPointExtension xmlns:gpxtpx="http://www.garmin.com/xmlschemas/TrackPointExtension/v1">
            <gpxtpx:hr>113</gpxtpx:hr>
          </gpxtpx:TrackPointExtension>
        </extensions>
      </trkpt>
      <trkpt lat="50.50341" lon="2.57051">
        <ele>36.8</ele>
        <time>2021-06-24T15:56:10Z</time>
        <extensions>
          <gpxtpx:TrackPointExtension xmlns:gpxtpx="http://www.garmin.com/xmlschemas/TrackPointExtension/v1">
            <gpxtpx:hr>113</gpxtpx:hr>
          </gpxtpx:TrackPointExtension>
        </extensions>
      </trkpt>
      <trkpt lat="50.50342" lon="2.57054">
        <ele>36.8</ele>
        <time>2021-06-24T15:56:11Z</time>
        <extensions>
          <gpxtpx:TrackPointExtension xmlns:gpxtpx="http://www.garmin.com/xmlschemas/TrackPointExtension/v1">
            <gpxtpx:hr>112</gpxtpx:hr>
          </gpxtpx:TrackPointExtension>
        </extensions>
      </trkpt>
      <trkpt lat="50.50344" lon="2.5706">
        <ele>36.8</ele>
        <time>2021-06-24T15:56:12Z</time>
        <extensions>
          <gpxtpx:TrackPointExtension xmlns:gpxtpx="http://www.garmin.com/xmlschemas/TrackPointExtension/v1">
            <gpxtpx:hr>112</gpxtpx:hr>
          </gpxtpx:TrackPointExtension>
        </extensions>
      </trkpt>
      <trkpt lat="50.50345" lon="2.57065">
        <ele>36.8</ele>
        <time>2021-06-24T15:56:13Z</time>
        <extensions>
          <gpxtpx:TrackPointExtension xmlns:gpxtpx="http://www.garmin.com/xmlschemas/TrackPointExtension/v1">
            <gpxtpx:hr>111</gpxtpx:hr>
          </gpxtpx:TrackPointExtension>
        </extensions>
      </trkpt>
      <trkpt lat="50.50346" lon="2.57071">
        <ele>36.8</ele>
        <time>2021-06-24T15:56:14Z</time>
        <extensions>
          <gpxtpx:TrackPointExtension xmlns:gpxtpx="http://www.garmin.com/xmlschemas/TrackPointExtension/v1">
            <gpxtpx:hr>111</gpxtpx:hr>
          </gpxtpx:TrackPointExtension>
        </extensions>
      </trkpt>
      <trkpt lat="50.50348" lon="2.57077">
        <ele>36.8</ele>
        <time>2021-06-24T15:56:15Z</time>
        <extensions>
          <gpxtpx:TrackPointExtension xmlns:gpxtpx="http://www.garmin.com/xmlschemas/TrackPointExtension/v1">
            <gpxtpx:hr>111</gpxtpx:hr>
          </gpxtpx:TrackPointExtension>
        </extensions>
      </trkpt>
      <trkpt lat="50.50349" lon="2.57082">
        <ele>36.8</ele>
        <time>2021-06-24T15:56:16Z</time>
        <extensions>
          <gpxtpx:TrackPointExtension xmlns:gpxtpx="http://www.garmin.com/xmlschemas/TrackPointExtension/v1">
            <gpxtpx:hr>111</gpxtpx:hr>
          </gpxtpx:TrackPointExtension>
        </extensions>
      </trkpt>
      <trkpt lat="50.50352" lon="2.57086">
        <ele>36.8</ele>
        <time>2021-06-24T15:56:17Z</time>
        <extensions>
          <gpxtpx:TrackPointExtension xmlns:gpxtpx="http://www.garmin.com/xmlschemas/TrackPointExtension/v1">
            <gpxtpx:hr>112</gpxtpx:hr>
          </gpxtpx:TrackPointExtension>
        </extensions>
      </trkpt>
      <trkpt lat="50.50355" lon="2.5709">
        <ele>36.8</ele>
        <time>2021-06-24T15:56:18Z</time>
        <extensions>
          <gpxtpx:TrackPointExtension xmlns:gpxtpx="http://www.garmin.com/xmlschemas/TrackPointExtension/v1">
            <gpxtpx:hr>112</gpxtpx:hr>
          </gpxtpx:TrackPointExtension>
        </extensions>
      </trkpt>
      <trkpt lat="50.50357" lon="2.57095">
        <ele>36.8</ele>
        <time>2021-06-24T15:56:19Z</time>
        <extensions>
          <gpxtpx:TrackPointExtension xmlns:gpxtpx="http://www.garmin.com/xmlschemas/TrackPointExtension/v1">
            <gpxtpx:hr>112</gpxtpx:hr>
          </gpxtpx:TrackPointExtension>
        </extensions>
      </trkpt>
      <trkpt lat="50.50359" lon="2.571">
        <ele>36.8</ele>
        <time>2021-06-24T15:56:20Z</time>
        <extensions>
          <gpxtpx:TrackPointExtension xmlns:gpxtpx="http://www.garmin.com/xmlschemas/TrackPointExtension/v1">
            <gpxtpx:hr>113</gpxtpx:hr>
          </gpxtpx:TrackPointExtension>
        </extensions>
      </trkpt>
      <trkpt lat="50.50361" lon="2.57105">
        <ele>36.8</ele>
        <time>2021-06-24T15:56:21Z</time>
        <extensions>
          <gpxtpx:TrackPointExtension xmlns:gpxtpx="http://www.garmin.com/xmlschemas/TrackPointExtension/v1">
            <gpxtpx:hr>114</gpxtpx:hr>
          </gpxtpx:TrackPointExtension>
        </extensions>
      </trkpt>
      <trkpt lat="50.50363" lon="2.5711">
        <ele>36.8</ele>
        <time>2021-06-24T15:56:22Z</time>
        <extensions>
          <gpxtpx:TrackPointExtension xmlns:gpxtpx="http://www.garmin.com/xmlschemas/TrackPointExtension/v1">
            <gpxtpx:hr>115</gpxtpx:hr>
          </gpxtpx:TrackPointExtension>
        </extensions>
      </trkpt>
      <trkpt lat="50.50366" lon="2.57116">
        <ele>36.8</ele>
        <time>2021-06-24T15:56:23Z</time>
        <extensions>
          <gpxtpx:TrackPointExtension xmlns:gpxtpx="http://www.garmin.com/xmlschemas/TrackPointExtension/v1">
            <gpxtpx:hr>115</gpxtpx:hr>
          </gpxtpx:TrackPointExtension>
        </extensions>
      </trkpt>
      <trkpt lat="50.50368" lon="2.57122">
        <ele>36.8</ele>
        <time>2021-06-24T15:56:24Z</time>
        <extensions>
          <gpxtpx:TrackPointExtension xmlns:gpxtpx="http://www.garmin.com/xmlschemas/TrackPointExtension/v1">
            <gpxtpx:hr>116</gpxtpx:hr>
          </gpxtpx:TrackPointExtension>
        </extensions>
      </trkpt>
      <trkpt lat="50.5037" lon="2.57129">
        <ele>36.6</ele>
        <time>2021-06-24T15:56:25Z</time>
        <extensions>
          <gpxtpx:TrackPointExtension xmlns:gpxtpx="http://www.garmin.com/xmlschemas/TrackPointExtension/v1">
            <gpxtpx:hr>116</gpxtpx:hr>
          </gpxtpx:TrackPointExtension>
        </extensions>
      </trkpt>
      <trkpt lat="50.50372" lon="2.57135">
        <ele>36.6</ele>
        <time>2021-06-24T15:56:26Z</time>
        <extensions>
          <gpxtpx:TrackPointExtension xmlns:gpxtpx="http://www.garmin.com/xmlschemas/TrackPointExtension/v1">
            <gpxtpx:hr>116</gpxtpx:hr>
          </gpxtpx:TrackPointExtension>
        </extensions>
      </trkpt>
      <trkpt lat="50.50375" lon="2.57141">
        <ele>36.6</ele>
        <time>2021-06-24T15:56:27Z</time>
        <extensions>
          <gpxtpx:TrackPointExtension xmlns:gpxtpx="http://www.garmin.com/xmlschemas/TrackPointExtension/v1">
            <gpxtpx:hr>117</gpxtpx:hr>
          </gpxtpx:TrackPointExtension>
        </extensions>
      </trkpt>
      <trkpt lat="50.50377" lon="2.57146">
        <ele>36.6</ele>
        <time>2021-06-24T15:56:28Z</time>
        <extensions>
          <gpxtpx:TrackPointExtension xmlns:gpxtpx="http://www.garmin.com/xmlschemas/TrackPointExtension/v1">
            <gpxtpx:hr>117</gpxtpx:hr>
          </gpxtpx:TrackPointExtension>
        </extensions>
      </trkpt>
      <trkpt lat="50.50379" lon="2.57152">
        <ele>36.6</ele>
        <time>2021-06-24T15:56:29Z</time>
        <extensions>
          <gpxtpx:TrackPointExtension xmlns:gpxtpx="http://www.garmin.com/xmlschemas/TrackPointExtension/v1">
            <gpxtpx:hr>117</gpxtpx:hr>
          </gpxtpx:TrackPointExtension>
        </extensions>
      </trkpt>
      <trkpt lat="50.50381" lon="2.57158">
        <ele>36.6</ele>
        <time>2021-06-24T15:56:30Z</time>
        <extensions>
          <gpxtpx:TrackPointExtension xmlns:gpxtpx="http://www.garmin.com/xmlschemas/TrackPointExtension/v1">
            <gpxtpx:hr>117</gpxtpx:hr>
          </gpxtpx:TrackPointExtension>
        </extensions>
      </trkpt>
      <trkpt lat="50.50383" lon="2.57164">
        <ele>36.6</ele>
        <time>2021-06-24T15:56:31Z</time>
        <extensions>
          <gpxtpx:TrackPointExtension xmlns:gpxtpx="http://www.garmin.com/xmlschemas/TrackPointExtension/v1">
            <gpxtpx:hr>117</gpxtpx:hr>
          </gpxtpx:TrackPointExtension>
        </extensions>
      </trkpt>
      <trkpt lat="50.50386" lon="2.5717">
        <ele>36.6</ele>
        <time>2021-06-24T15:56:32Z</time>
        <extensions>
          <gpxtpx:TrackPointExtension xmlns:gpxtpx="http://www.garmin.com/xmlschemas/TrackPointExtension/v1">
            <gpxtpx:hr>118</gpxtpx:hr>
          </gpxtpx:TrackPointExtension>
        </extensions>
      </trkpt>
      <trkpt lat="50.50388" lon="2.57175">
        <ele>36.6</ele>
        <time>2021-06-24T15:56:33Z</time>
        <extensions>
          <gpxtpx:TrackPointExtension xmlns:gpxtpx="http://www.garmin.com/xmlschemas/TrackPointExtension/v1">
            <gpxtpx:hr>118</gpxtpx:hr>
          </gpxtpx:TrackPointExtension>
        </extensions>
      </trkpt>
      <trkpt lat="50.5039" lon="2.5718">
        <ele>36.6</ele>
        <time>2021-06-24T15:56:34Z</time>
        <extensions>
          <gpxtpx:TrackPointExtension xmlns:gpxtpx="http://www.garmin.com/xmlschemas/TrackPointExtension/v1">
            <gpxtpx:hr>118</gpxtpx:hr>
          </gpxtpx:TrackPointExtension>
        </extensions>
      </trkpt>
      <trkpt lat="50.50392" lon="2.57186">
        <ele>36.6</ele>
        <time>2021-06-24T15:56:35Z</time>
        <extensions>
          <gpxtpx:TrackPointExtension xmlns:gpxtpx="http://www.garmin.com/xmlschemas/TrackPointExtension/v1">
            <gpxtpx:hr>118</gpxtpx:hr>
          </gpxtpx:TrackPointExtension>
        </extensions>
      </trkpt>
      <trkpt lat="50.50394" lon="2.57192">
        <ele>36.6</ele>
        <time>2021-06-24T15:56:36Z</time>
        <extensions>
          <gpxtpx:TrackPointExtension xmlns:gpxtpx="http://www.garmin.com/xmlschemas/TrackPointExtension/v1">
            <gpxtpx:hr>117</gpxtpx:hr>
          </gpxtpx:TrackPointExtension>
        </extensions>
      </trkpt>
      <trkpt lat="50.50396" lon="2.572">
        <ele>36.6</ele>
        <time>2021-06-24T15:56:37Z</time>
        <extensions>
          <gpxtpx:TrackPointExtension xmlns:gpxtpx="http://www.garmin.com/xmlschemas/TrackPointExtension/v1">
            <gpxtpx:hr>117</gpxtpx:hr>
          </gpxtpx:TrackPointExtension>
        </extensions>
      </trkpt>
      <trkpt lat="50.50397" lon="2.57206">
        <ele>36.6</ele>
        <time>2021-06-24T15:56:38Z</time>
        <extensions>
          <gpxtpx:TrackPointExtension xmlns:gpxtpx="http://www.garmin.com/xmlschemas/TrackPointExtension/v1">
            <gpxtpx:hr>117</gpxtpx:hr>
          </gpxtpx:TrackPointExtension>
        </extensions>
      </trkpt>
      <trkpt lat="50.50399" lon="2.57213">
        <ele>36.6</ele>
        <time>2021-06-24T15:56:39Z</time>
        <extensions>
          <gpxtpx:TrackPointExtension xmlns:gpxtpx="http://www.garmin.com/xmlschemas/TrackPointExtension/v1">
            <gpxtpx:hr>117</gpxtpx:hr>
          </gpxtpx:TrackPointExtension>
        </extensions>
      </trkpt>
      <trkpt lat="50.50401" lon="2.57218">
        <ele>36.8</ele>
        <time>2021-06-24T15:56:40Z</time>
        <extensions>
          <gpxtpx:TrackPointExtension xmlns:gpxtpx="http://www.garmin.com/xmlschemas/TrackPointExtension/v1">
            <gpxtpx:hr>117</gpxtpx:hr>
          </gpxtpx:TrackPointExtension>
        </extensions>
      </trkpt>
      <trkpt lat="50.50403" lon="2.57224">
        <ele>36.8</ele>
        <time>2021-06-24T15:56:41Z</time>
        <extensions>
          <gpxtpx:TrackPointExtension xmlns:gpxtpx="http://www.garmin.com/xmlschemas/TrackPointExtension/v1">
            <gpxtpx:hr>117</gpxtpx:hr>
          </gpxtpx:TrackPointExtension>
        </extensions>
      </trkpt>
      <trkpt lat="50.50406" lon="2.57229">
        <ele>36.8</ele>
        <time>2021-06-24T15:56:42Z</time>
        <extensions>
          <gpxtpx:TrackPointExtension xmlns:gpxtpx="http://www.garmin.com/xmlschemas/TrackPointExtension/v1">
            <gpxtpx:hr>117</gpxtpx:hr>
          </gpxtpx:TrackPointExtension>
        </extensions>
      </trkpt>
      <trkpt lat="50.50409" lon="2.57234">
        <ele>36.8</ele>
        <time>2021-06-24T15:56:43Z</time>
        <extensions>
          <gpxtpx:TrackPointExtension xmlns:gpxtpx="http://www.garmin.com/xmlschemas/TrackPointExtension/v1">
            <gpxtpx:hr>117</gpxtpx:hr>
          </gpxtpx:TrackPointExtension>
        </extensions>
      </trkpt>
      <trkpt lat="50.50413" lon="2.57241">
        <ele>37</ele>
        <time>2021-06-24T15:56:44Z</time>
        <extensions>
          <gpxtpx:TrackPointExtension xmlns:gpxtpx="http://www.garmin.com/xmlschemas/TrackPointExtension/v1">
            <gpxtpx:hr>117</gpxtpx:hr>
          </gpxtpx:TrackPointExtension>
        </extensions>
      </trkpt>
      <trkpt lat="50.50416" lon="2.57249">
        <ele>37</ele>
        <time>2021-06-24T15:56:45Z</time>
        <extensions>
          <gpxtpx:TrackPointExtension xmlns:gpxtpx="http://www.garmin.com/xmlschemas/TrackPointExtension/v1">
            <gpxtpx:hr>117</gpxtpx:hr>
          </gpxtpx:TrackPointExtension>
        </extensions>
      </trkpt>
      <trkpt lat="50.50419" lon="2.57256">
        <ele>37</ele>
        <time>2021-06-24T15:56:46Z</time>
        <extensions>
          <gpxtpx:TrackPointExtension xmlns:gpxtpx="http://www.garmin.com/xmlschemas/TrackPointExtension/v1">
            <gpxtpx:hr>117</gpxtpx:hr>
          </gpxtpx:TrackPointExtension>
        </extensions>
      </trkpt>
      <trkpt lat="50.50421" lon="2.57262">
        <ele>37.2</ele>
        <time>2021-06-24T15:56:47Z</time>
        <extensions>
          <gpxtpx:TrackPointExtension xmlns:gpxtpx="http://www.garmin.com/xmlschemas/TrackPointExtension/v1">
            <gpxtpx:hr>117</gpxtpx:hr>
          </gpxtpx:TrackPointExtension>
        </extensions>
      </trkpt>
      <trkpt lat="50.50423" lon="2.57267">
        <ele>37.2</ele>
        <time>2021-06-24T15:56:48Z</time>
        <extensions>
          <gpxtpx:TrackPointExtension xmlns:gpxtpx="http://www.garmin.com/xmlschemas/TrackPointExtension/v1">
            <gpxtpx:hr>116</gpxtpx:hr>
          </gpxtpx:TrackPointExtension>
        </extensions>
      </trkpt>
      <trkpt lat="50.50425" lon="2.57272">
        <ele>37.2</ele>
        <time>2021-06-24T15:56:49Z</time>
        <extensions>
          <gpxtpx:TrackPointExtension xmlns:gpxtpx="http://www.garmin.com/xmlschemas/TrackPointExtension/v1">
            <gpxtpx:hr>116</gpxtpx:hr>
          </gpxtpx:TrackPointExtension>
        </extensions>
      </trkpt>
      <trkpt lat="50.50427" lon="2.57276">
        <ele>37.2</ele>
        <time>2021-06-24T15:56:50Z</time>
        <extensions>
          <gpxtpx:TrackPointExtension xmlns:gpxtpx="http://www.garmin.com/xmlschemas/TrackPointExtension/v1">
            <gpxtpx:hr>116</gpxtpx:hr>
          </gpxtpx:TrackPointExtension>
        </extensions>
      </trkpt>
      <trkpt lat="50.50429" lon="2.57282">
        <ele>37.4</ele>
        <time>2021-06-24T15:56:51Z</time>
        <extensions>
          <gpxtpx:TrackPointExtension xmlns:gpxtpx="http://www.garmin.com/xmlschemas/TrackPointExtension/v1">
            <gpxtpx:hr>116</gpxtpx:hr>
          </gpxtpx:TrackPointExtension>
        </extensions>
      </trkpt>
      <trkpt lat="50.50431" lon="2.57288">
        <ele>37.4</ele>
        <time>2021-06-24T15:56:52Z</time>
        <extensions>
          <gpxtpx:TrackPointExtension xmlns:gpxtpx="http://www.garmin.com/xmlschemas/TrackPointExtension/v1">
            <gpxtpx:hr>116</gpxtpx:hr>
          </gpxtpx:TrackPointExtension>
        </extensions>
      </trkpt>
      <trkpt lat="50.50433" lon="2.57295">
        <ele>37.4</ele>
        <time>2021-06-24T15:56:53Z</time>
        <extensions>
          <gpxtpx:TrackPointExtension xmlns:gpxtpx="http://www.garmin.com/xmlschemas/TrackPointExtension/v1">
            <gpxtpx:hr>116</gpxtpx:hr>
          </gpxtpx:TrackPointExtension>
        </extensions>
      </trkpt>
      <trkpt lat="50.50436" lon="2.573">
        <ele>37.4</ele>
        <time>2021-06-24T15:56:54Z</time>
        <extensions>
          <gpxtpx:TrackPointExtension xmlns:gpxtpx="http://www.garmin.com/xmlschemas/TrackPointExtension/v1">
            <gpxtpx:hr>115</gpxtpx:hr>
          </gpxtpx:TrackPointExtension>
        </extensions>
      </trkpt>
      <trkpt lat="50.50439" lon="2.57305">
        <ele>37.4</ele>
        <time>2021-06-24T15:56:55Z</time>
        <extensions>
          <gpxtpx:TrackPointExtension xmlns:gpxtpx="http://www.garmin.com/xmlschemas/TrackPointExtension/v1">
            <gpxtpx:hr>115</gpxtpx:hr>
          </gpxtpx:TrackPointExtension>
        </extensions>
      </trkpt>
      <trkpt lat="50.50443" lon="2.57311">
        <ele>37.6</ele>
        <time>2021-06-24T15:56:56Z</time>
        <extensions>
          <gpxtpx:TrackPointExtension xmlns:gpxtpx="http://www.garmin.com/xmlschemas/TrackPointExtension/v1">
            <gpxtpx:hr>116</gpxtpx:hr>
          </gpxtpx:TrackPointExtension>
        </extensions>
      </trkpt>
      <trkpt lat="50.50445" lon="2.57317">
        <ele>37.6</ele>
        <time>2021-06-24T15:56:57Z</time>
        <extensions>
          <gpxtpx:TrackPointExtension xmlns:gpxtpx="http://www.garmin.com/xmlschemas/TrackPointExtension/v1">
            <gpxtpx:hr>116</gpxtpx:hr>
          </gpxtpx:TrackPointExtension>
        </extensions>
      </trkpt>
      <trkpt lat="50.50447" lon="2.57323">
        <ele>37.6</ele>
        <time>2021-06-24T15:56:58Z</time>
        <extensions>
          <gpxtpx:TrackPointExtension xmlns:gpxtpx="http://www.garmin.com/xmlschemas/TrackPointExtension/v1">
            <gpxtpx:hr>116</gpxtpx:hr>
          </gpxtpx:TrackPointExtension>
        </extensions>
      </trkpt>
      <trkpt lat="50.5045" lon="2.57329">
        <ele>37.6</ele>
        <time>2021-06-24T15:56:59Z</time>
        <extensions>
          <gpxtpx:TrackPointExtension xmlns:gpxtpx="http://www.garmin.com/xmlschemas/TrackPointExtension/v1">
            <gpxtpx:hr>116</gpxtpx:hr>
          </gpxtpx:TrackPointExtension>
        </extensions>
      </trkpt>
      <trkpt lat="50.50451" lon="2.57335">
        <ele>37.8</ele>
        <time>2021-06-24T15:57:00Z</time>
        <extensions>
          <gpxtpx:TrackPointExtension xmlns:gpxtpx="http://www.garmin.com/xmlschemas/TrackPointExtension/v1">
            <gpxtpx:hr>116</gpxtpx:hr>
          </gpxtpx:TrackPointExtension>
        </extensions>
      </trkpt>
      <trkpt lat="50.50453" lon="2.5734">
        <ele>37.8</ele>
        <time>2021-06-24T15:57:01Z</time>
        <extensions>
          <gpxtpx:TrackPointExtension xmlns:gpxtpx="http://www.garmin.com/xmlschemas/TrackPointExtension/v1">
            <gpxtpx:hr>117</gpxtpx:hr>
          </gpxtpx:TrackPointExtension>
        </extensions>
      </trkpt>
      <trkpt lat="50.50454" lon="2.57346">
        <ele>37.8</ele>
        <time>2021-06-24T15:57:02Z</time>
        <extensions>
          <gpxtpx:TrackPointExtension xmlns:gpxtpx="http://www.garmin.com/xmlschemas/TrackPointExtension/v1">
            <gpxtpx:hr>117</gpxtpx:hr>
          </gpxtpx:TrackPointExtension>
        </extensions>
      </trkpt>
      <trkpt lat="50.50457" lon="2.57353">
        <ele>37.8</ele>
        <time>2021-06-24T15:57:03Z</time>
        <extensions>
          <gpxtpx:TrackPointExtension xmlns:gpxtpx="http://www.garmin.com/xmlschemas/TrackPointExtension/v1">
            <gpxtpx:hr>117</gpxtpx:hr>
          </gpxtpx:TrackPointExtension>
        </extensions>
      </trkpt>
      <trkpt lat="50.50458" lon="2.57358">
        <ele>37.8</ele>
        <time>2021-06-24T15:57:04Z</time>
        <extensions>
          <gpxtpx:TrackPointExtension xmlns:gpxtpx="http://www.garmin.com/xmlschemas/TrackPointExtension/v1">
            <gpxtpx:hr>118</gpxtpx:hr>
          </gpxtpx:TrackPointExtension>
        </extensions>
      </trkpt>
      <trkpt lat="50.50459" lon="2.57363">
        <ele>37.8</ele>
        <time>2021-06-24T15:57:05Z</time>
        <extensions>
          <gpxtpx:TrackPointExtension xmlns:gpxtpx="http://www.garmin.com/xmlschemas/TrackPointExtension/v1">
            <gpxtpx:hr>118</gpxtpx:hr>
          </gpxtpx:TrackPointExtension>
        </extensions>
      </trkpt>
      <trkpt lat="50.50459" lon="2.57366">
        <ele>37.8</ele>
        <time>2021-06-24T15:57:06Z</time>
        <extensions>
          <gpxtpx:TrackPointExtension xmlns:gpxtpx="http://www.garmin.com/xmlschemas/TrackPointExtension/v1">
            <gpxtpx:hr>118</gpxtpx:hr>
          </gpxtpx:TrackPointExtension>
        </extensions>
      </trkpt>
      <trkpt lat="50.50461" lon="2.57369">
        <ele>37.8</ele>
        <time>2021-06-24T15:57:07Z</time>
        <extensions>
          <gpxtpx:TrackPointExtension xmlns:gpxtpx="http://www.garmin.com/xmlschemas/TrackPointExtension/v1">
            <gpxtpx:hr>118</gpxtpx:hr>
          </gpxtpx:TrackPointExtension>
        </extensions>
      </trkpt>
      <trkpt lat="50.50463" lon="2.57372">
        <ele>37.8</ele>
        <time>2021-06-24T15:57:08Z</time>
        <extensions>
          <gpxtpx:TrackPointExtension xmlns:gpxtpx="http://www.garmin.com/xmlschemas/TrackPointExtension/v1">
            <gpxtpx:hr>118</gpxtpx:hr>
          </gpxtpx:TrackPointExtension>
        </extensions>
      </trkpt>
      <trkpt lat="50.50464" lon="2.57376">
        <ele>37.8</ele>
        <time>2021-06-24T15:57:09Z</time>
        <extensions>
          <gpxtpx:TrackPointExtension xmlns:gpxtpx="http://www.garmin.com/xmlschemas/TrackPointExtension/v1">
            <gpxtpx:hr>118</gpxtpx:hr>
          </gpxtpx:TrackPointExtension>
        </extensions>
      </trkpt>
      <trkpt lat="50.50466" lon="2.57378">
        <ele>37.8</ele>
        <time>2021-06-24T15:57:10Z</time>
        <extensions>
          <gpxtpx:TrackPointExtension xmlns:gpxtpx="http://www.garmin.com/xmlschemas/TrackPointExtension/v1">
            <gpxtpx:hr>118</gpxtpx:hr>
          </gpxtpx:TrackPointExtension>
        </extensions>
      </trkpt>
      <trkpt lat="50.50468" lon="2.57381">
        <ele>37.8</ele>
        <time>2021-06-24T15:57:11Z</time>
        <extensions>
          <gpxtpx:TrackPointExtension xmlns:gpxtpx="http://www.garmin.com/xmlschemas/TrackPointExtension/v1">
            <gpxtpx:hr>118</gpxtpx:hr>
          </gpxtpx:TrackPointExtension>
        </extensions>
      </trkpt>
      <trkpt lat="50.50471" lon="2.57385">
        <ele>38</ele>
        <time>2021-06-24T15:57:13Z</time>
        <extensions>
          <gpxtpx:TrackPointExtension xmlns:gpxtpx="http://www.garmin.com/xmlschemas/TrackPointExtension/v1">
            <gpxtpx:hr>118</gpxtpx:hr>
          </gpxtpx:TrackPointExtension>
        </extensions>
      </trkpt>
      <trkpt lat="50.50471" lon="2.57388">
        <ele>38</ele>
        <time>2021-06-24T15:57:14Z</time>
        <extensions>
          <gpxtpx:TrackPointExtension xmlns:gpxtpx="http://www.garmin.com/xmlschemas/TrackPointExtension/v1">
            <gpxtpx:hr>118</gpxtpx:hr>
          </gpxtpx:TrackPointExtension>
        </extensions>
      </trkpt>
      <trkpt lat="50.50473" lon="2.57391">
        <ele>38</ele>
        <time>2021-06-24T15:57:15Z</time>
        <extensions>
          <gpxtpx:TrackPointExtension xmlns:gpxtpx="http://www.garmin.com/xmlschemas/TrackPointExtension/v1">
            <gpxtpx:hr>118</gpxtpx:hr>
          </gpxtpx:TrackPointExtension>
        </extensions>
      </trkpt>
      <trkpt lat="50.50474" lon="2.57393">
        <ele>38</ele>
        <time>2021-06-24T15:57:16Z</time>
        <extensions>
          <gpxtpx:TrackPointExtension xmlns:gpxtpx="http://www.garmin.com/xmlschemas/TrackPointExtension/v1">
            <gpxtpx:hr>118</gpxtpx:hr>
          </gpxtpx:TrackPointExtension>
        </extensions>
      </trkpt>
      <trkpt lat="50.50475" lon="2.57395">
        <ele>38</ele>
        <time>2021-06-24T15:57:17Z</time>
        <extensions>
          <gpxtpx:TrackPointExtension xmlns:gpxtpx="http://www.garmin.com/xmlschemas/TrackPointExtension/v1">
            <gpxtpx:hr>118</gpxtpx:hr>
          </gpxtpx:TrackPointExtension>
        </extensions>
      </trkpt>
      <trkpt lat="50.50477" lon="2.57398">
        <ele>38</ele>
        <time>2021-06-24T15:57:18Z</time>
        <extensions>
          <gpxtpx:TrackPointExtension xmlns:gpxtpx="http://www.garmin.com/xmlschemas/TrackPointExtension/v1">
            <gpxtpx:hr>117</gpxtpx:hr>
          </gpxtpx:TrackPointExtension>
        </extensions>
      </trkpt>
      <trkpt lat="50.50478" lon="2.574">
        <ele>38</ele>
        <time>2021-06-24T15:57:19Z</time>
        <extensions>
          <gpxtpx:TrackPointExtension xmlns:gpxtpx="http://www.garmin.com/xmlschemas/TrackPointExtension/v1">
            <gpxtpx:hr>117</gpxtpx:hr>
          </gpxtpx:TrackPointExtension>
        </extensions>
      </trkpt>
      <trkpt lat="50.50478" lon="2.57402">
        <ele>38</ele>
        <time>2021-06-24T15:57:20Z</time>
        <extensions>
          <gpxtpx:TrackPointExtension xmlns:gpxtpx="http://www.garmin.com/xmlschemas/TrackPointExtension/v1">
            <gpxtpx:hr>117</gpxtpx:hr>
          </gpxtpx:TrackPointExtension>
        </extensions>
      </trkpt>
      <trkpt lat="50.50478" lon="2.57406">
        <ele>38</ele>
        <time>2021-06-24T15:57:21Z</time>
        <extensions>
          <gpxtpx:TrackPointExtension xmlns:gpxtpx="http://www.garmin.com/xmlschemas/TrackPointExtension/v1">
            <gpxtpx:hr>117</gpxtpx:hr>
          </gpxtpx:TrackPointExtension>
        </extensions>
      </trkpt>
      <trkpt lat="50.50479" lon="2.57408">
        <ele>38.2</ele>
        <time>2021-06-24T15:57:22Z</time>
        <extensions>
          <gpxtpx:TrackPointExtension xmlns:gpxtpx="http://www.garmin.com/xmlschemas/TrackPointExtension/v1">
            <gpxtpx:hr>117</gpxtpx:hr>
          </gpxtpx:TrackPointExtension>
        </extensions>
      </trkpt>
      <trkpt lat="50.5048" lon="2.57411">
        <ele>38.2</ele>
        <time>2021-06-24T15:57:23Z</time>
        <extensions>
          <gpxtpx:TrackPointExtension xmlns:gpxtpx="http://www.garmin.com/xmlschemas/TrackPointExtension/v1">
            <gpxtpx:hr>117</gpxtpx:hr>
          </gpxtpx:TrackPointExtension>
        </extensions>
      </trkpt>
      <trkpt lat="50.50481" lon="2.57414">
        <ele>38.2</ele>
        <time>2021-06-24T15:57:24Z</time>
        <extensions>
          <gpxtpx:TrackPointExtension xmlns:gpxtpx="http://www.garmin.com/xmlschemas/TrackPointExtension/v1">
            <gpxtpx:hr>117</gpxtpx:hr>
          </gpxtpx:TrackPointExtension>
        </extensions>
      </trkpt>
      <trkpt lat="50.50482" lon="2.57417">
        <ele>38.2</ele>
        <time>2021-06-24T15:57:25Z</time>
        <extensions>
          <gpxtpx:TrackPointExtension xmlns:gpxtpx="http://www.garmin.com/xmlschemas/TrackPointExtension/v1">
            <gpxtpx:hr>117</gpxtpx:hr>
          </gpxtpx:TrackPointExtension>
        </extensions>
      </trkpt>
      <trkpt lat="50.50484" lon="2.57421">
        <ele>38.2</ele>
        <time>2021-06-24T15:57:26Z</time>
        <extensions>
          <gpxtpx:TrackPointExtension xmlns:gpxtpx="http://www.garmin.com/xmlschemas/TrackPointExtension/v1">
            <gpxtpx:hr>117</gpxtpx:hr>
          </gpxtpx:TrackPointExtension>
        </extensions>
      </trkpt>
      <trkpt lat="50.50485" lon="2.57424">
        <ele>38.2</ele>
        <time>2021-06-24T15:57:27Z</time>
        <extensions>
          <gpxtpx:TrackPointExtension xmlns:gpxtpx="http://www.garmin.com/xmlschemas/TrackPointExtension/v1">
            <gpxtpx:hr>117</gpxtpx:hr>
          </gpxtpx:TrackPointExtension>
        </extensions>
      </trkpt>
      <trkpt lat="50.50486" lon="2.57427">
        <ele>38.2</ele>
        <time>2021-06-24T15:57:28Z</time>
        <extensions>
          <gpxtpx:TrackPointExtension xmlns:gpxtpx="http://www.garmin.com/xmlschemas/TrackPointExtension/v1">
            <gpxtpx:hr>117</gpxtpx:hr>
          </gpxtpx:TrackPointExtension>
        </extensions>
      </trkpt>
      <trkpt lat="50.50488" lon="2.57431">
        <ele>38.2</ele>
        <time>2021-06-24T15:57:29Z</time>
        <extensions>
          <gpxtpx:TrackPointExtension xmlns:gpxtpx="http://www.garmin.com/xmlschemas/TrackPointExtension/v1">
            <gpxtpx:hr>117</gpxtpx:hr>
          </gpxtpx:TrackPointExtension>
        </extensions>
      </trkpt>
      <trkpt lat="50.50488" lon="2.57436">
        <ele>38.2</ele>
        <time>2021-06-24T15:57:30Z</time>
        <extensions>
          <gpxtpx:TrackPointExtension xmlns:gpxtpx="http://www.garmin.com/xmlschemas/TrackPointExtension/v1">
            <gpxtpx:hr>117</gpxtpx:hr>
          </gpxtpx:TrackPointExtension>
        </extensions>
      </trkpt>
      <trkpt lat="50.50488" lon="2.5744">
        <ele>38.2</ele>
        <time>2021-06-24T15:57:31Z</time>
        <extensions>
          <gpxtpx:TrackPointExtension xmlns:gpxtpx="http://www.garmin.com/xmlschemas/TrackPointExtension/v1">
            <gpxtpx:hr>117</gpxtpx:hr>
          </gpxtpx:TrackPointExtension>
        </extensions>
      </trkpt>
      <trkpt lat="50.50489" lon="2.57444">
        <ele>38.2</ele>
        <time>2021-06-24T15:57:32Z</time>
        <extensions>
          <gpxtpx:TrackPointExtension xmlns:gpxtpx="http://www.garmin.com/xmlschemas/TrackPointExtension/v1">
            <gpxtpx:hr>117</gpxtpx:hr>
          </gpxtpx:TrackPointExtension>
        </extensions>
      </trkpt>
      <trkpt lat="50.5049" lon="2.57447">
        <ele>38.4</ele>
        <time>2021-06-24T15:57:33Z</time>
        <extensions>
          <gpxtpx:TrackPointExtension xmlns:gpxtpx="http://www.garmin.com/xmlschemas/TrackPointExtension/v1">
            <gpxtpx:hr>117</gpxtpx:hr>
          </gpxtpx:TrackPointExtension>
        </extensions>
      </trkpt>
      <trkpt lat="50.50492" lon="2.57451">
        <ele>38.4</ele>
        <time>2021-06-24T15:57:34Z</time>
        <extensions>
          <gpxtpx:TrackPointExtension xmlns:gpxtpx="http://www.garmin.com/xmlschemas/TrackPointExtension/v1">
            <gpxtpx:hr>117</gpxtpx:hr>
          </gpxtpx:TrackPointExtension>
        </extensions>
      </trkpt>
      <trkpt lat="50.50494" lon="2.57454">
        <ele>38.4</ele>
        <time>2021-06-24T15:57:35Z</time>
        <extensions>
          <gpxtpx:TrackPointExtension xmlns:gpxtpx="http://www.garmin.com/xmlschemas/TrackPointExtension/v1">
            <gpxtpx:hr>117</gpxtpx:hr>
          </gpxtpx:TrackPointExtension>
        </extensions>
      </trkpt>
      <trkpt lat="50.50496" lon="2.57457">
        <ele>38.4</ele>
        <time>2021-06-24T15:57:36Z</time>
        <extensions>
          <gpxtpx:TrackPointExtension xmlns:gpxtpx="http://www.garmin.com/xmlschemas/TrackPointExtension/v1">
            <gpxtpx:hr>118</gpxtpx:hr>
          </gpxtpx:TrackPointExtension>
        </extensions>
      </trkpt>
      <trkpt lat="50.50501" lon="2.57461">
        <ele>38.4</ele>
        <time>2021-06-24T15:57:38Z</time>
        <extensions>
          <gpxtpx:TrackPointExtension xmlns:gpxtpx="http://www.garmin.com/xmlschemas/TrackPointExtension/v1">
            <gpxtpx:hr>118</gpxtpx:hr>
          </gpxtpx:TrackPointExtension>
        </extensions>
      </trkpt>
      <trkpt lat="50.50503" lon="2.57464">
        <ele>38.4</ele>
        <time>2021-06-24T15:57:39Z</time>
        <extensions>
          <gpxtpx:TrackPointExtension xmlns:gpxtpx="http://www.garmin.com/xmlschemas/TrackPointExtension/v1">
            <gpxtpx:hr>118</gpxtpx:hr>
          </gpxtpx:TrackPointExtension>
        </extensions>
      </trkpt>
      <trkpt lat="50.50505" lon="2.57467">
        <ele>38.2</ele>
        <time>2021-06-24T15:57:40Z</time>
        <extensions>
          <gpxtpx:TrackPointExtension xmlns:gpxtpx="http://www.garmin.com/xmlschemas/TrackPointExtension/v1">
            <gpxtpx:hr>118</gpxtpx:hr>
          </gpxtpx:TrackPointExtension>
        </extensions>
      </trkpt>
      <trkpt lat="50.50506" lon="2.57472">
        <ele>38.2</ele>
        <time>2021-06-24T15:57:41Z</time>
        <extensions>
          <gpxtpx:TrackPointExtension xmlns:gpxtpx="http://www.garmin.com/xmlschemas/TrackPointExtension/v1">
            <gpxtpx:hr>118</gpxtpx:hr>
          </gpxtpx:TrackPointExtension>
        </extensions>
      </trkpt>
      <trkpt lat="50.50507" lon="2.57475">
        <ele>38.2</ele>
        <time>2021-06-24T15:57:42Z</time>
        <extensions>
          <gpxtpx:TrackPointExtension xmlns:gpxtpx="http://www.garmin.com/xmlschemas/TrackPointExtension/v1">
            <gpxtpx:hr>118</gpxtpx:hr>
          </gpxtpx:TrackPointExtension>
        </extensions>
      </trkpt>
      <trkpt lat="50.5051" lon="2.57481">
        <ele>38.2</ele>
        <time>2021-06-24T15:57:43Z</time>
        <extensions>
          <gpxtpx:TrackPointExtension xmlns:gpxtpx="http://www.garmin.com/xmlschemas/TrackPointExtension/v1">
            <gpxtpx:hr>118</gpxtpx:hr>
          </gpxtpx:TrackPointExtension>
        </extensions>
      </trkpt>
      <trkpt lat="50.50513" lon="2.57484">
        <ele>38.2</ele>
        <time>2021-06-24T15:57:44Z</time>
        <extensions>
          <gpxtpx:TrackPointExtension xmlns:gpxtpx="http://www.garmin.com/xmlschemas/TrackPointExtension/v1">
            <gpxtpx:hr>118</gpxtpx:hr>
          </gpxtpx:TrackPointExtension>
        </extensions>
      </trkpt>
      <trkpt lat="50.50515" lon="2.57489">
        <ele>38.4</ele>
        <time>2021-06-24T15:57:45Z</time>
        <extensions>
          <gpxtpx:TrackPointExtension xmlns:gpxtpx="http://www.garmin.com/xmlschemas/TrackPointExtension/v1">
            <gpxtpx:hr>118</gpxtpx:hr>
          </gpxtpx:TrackPointExtension>
        </extensions>
      </trkpt>
      <trkpt lat="50.50516" lon="2.57495">
        <ele>38.4</ele>
        <time>2021-06-24T15:57:46Z</time>
        <extensions>
          <gpxtpx:TrackPointExtension xmlns:gpxtpx="http://www.garmin.com/xmlschemas/TrackPointExtension/v1">
            <gpxtpx:hr>118</gpxtpx:hr>
          </gpxtpx:TrackPointExtension>
        </extensions>
      </trkpt>
      <trkpt lat="50.50518" lon="2.575">
        <ele>38.4</ele>
        <time>2021-06-24T15:57:47Z</time>
        <extensions>
          <gpxtpx:TrackPointExtension xmlns:gpxtpx="http://www.garmin.com/xmlschemas/TrackPointExtension/v1">
            <gpxtpx:hr>118</gpxtpx:hr>
          </gpxtpx:TrackPointExtension>
        </extensions>
      </trkpt>
      <trkpt lat="50.50519" lon="2.57505">
        <ele>38.4</ele>
        <time>2021-06-24T15:57:48Z</time>
        <extensions>
          <gpxtpx:TrackPointExtension xmlns:gpxtpx="http://www.garmin.com/xmlschemas/TrackPointExtension/v1">
            <gpxtpx:hr>119</gpxtpx:hr>
          </gpxtpx:TrackPointExtension>
        </extensions>
      </trkpt>
      <trkpt lat="50.50521" lon="2.57509">
        <ele>38.4</ele>
        <time>2021-06-24T15:57:49Z</time>
        <extensions>
          <gpxtpx:TrackPointExtension xmlns:gpxtpx="http://www.garmin.com/xmlschemas/TrackPointExtension/v1">
            <gpxtpx:hr>119</gpxtpx:hr>
          </gpxtpx:TrackPointExtension>
        </extensions>
      </trkpt>
      <trkpt lat="50.50522" lon="2.57514">
        <ele>38.4</ele>
        <time>2021-06-24T15:57:50Z</time>
        <extensions>
          <gpxtpx:TrackPointExtension xmlns:gpxtpx="http://www.garmin.com/xmlschemas/TrackPointExtension/v1">
            <gpxtpx:hr>119</gpxtpx:hr>
          </gpxtpx:TrackPointExtension>
        </extensions>
      </trkpt>
      <trkpt lat="50.50524" lon="2.57518">
        <ele>38.4</ele>
        <time>2021-06-24T15:57:51Z</time>
        <extensions>
          <gpxtpx:TrackPointExtension xmlns:gpxtpx="http://www.garmin.com/xmlschemas/TrackPointExtension/v1">
            <gpxtpx:hr>119</gpxtpx:hr>
          </gpxtpx:TrackPointExtension>
        </extensions>
      </trkpt>
      <trkpt lat="50.50526" lon="2.57522">
        <ele>38.4</ele>
        <time>2021-06-24T15:57:52Z</time>
        <extensions>
          <gpxtpx:TrackPointExtension xmlns:gpxtpx="http://www.garmin.com/xmlschemas/TrackPointExtension/v1">
            <gpxtpx:hr>119</gpxtpx:hr>
          </gpxtpx:TrackPointExtension>
        </extensions>
      </trkpt>
      <trkpt lat="50.50528" lon="2.57526">
        <ele>38.6</ele>
        <time>2021-06-24T15:57:53Z</time>
        <extensions>
          <gpxtpx:TrackPointExtension xmlns:gpxtpx="http://www.garmin.com/xmlschemas/TrackPointExtension/v1">
            <gpxtpx:hr>119</gpxtpx:hr>
          </gpxtpx:TrackPointExtension>
        </extensions>
      </trkpt>
      <trkpt lat="50.50529" lon="2.5753">
        <ele>38.6</ele>
        <time>2021-06-24T15:57:54Z</time>
        <extensions>
          <gpxtpx:TrackPointExtension xmlns:gpxtpx="http://www.garmin.com/xmlschemas/TrackPointExtension/v1">
            <gpxtpx:hr>120</gpxtpx:hr>
          </gpxtpx:TrackPointExtension>
        </extensions>
      </trkpt>
      <trkpt lat="50.50531" lon="2.57534">
        <ele>38.6</ele>
        <time>2021-06-24T15:57:55Z</time>
        <extensions>
          <gpxtpx:TrackPointExtension xmlns:gpxtpx="http://www.garmin.com/xmlschemas/TrackPointExtension/v1">
            <gpxtpx:hr>120</gpxtpx:hr>
          </gpxtpx:TrackPointExtension>
        </extensions>
      </trkpt>
      <trkpt lat="50.50532" lon="2.57539">
        <ele>38.6</ele>
        <time>2021-06-24T15:57:56Z</time>
        <extensions>
          <gpxtpx:TrackPointExtension xmlns:gpxtpx="http://www.garmin.com/xmlschemas/TrackPointExtension/v1">
            <gpxtpx:hr>120</gpxtpx:hr>
          </gpxtpx:TrackPointExtension>
        </extensions>
      </trkpt>
      <trkpt lat="50.50533" lon="2.57545">
        <ele>38.6</ele>
        <time>2021-06-24T15:57:57Z</time>
        <extensions>
          <gpxtpx:TrackPointExtension xmlns:gpxtpx="http://www.garmin.com/xmlschemas/TrackPointExtension/v1">
            <gpxtpx:hr>120</gpxtpx:hr>
          </gpxtpx:TrackPointExtension>
        </extensions>
      </trkpt>
      <trkpt lat="50.50535" lon="2.57551">
        <ele>38.6</ele>
        <time>2021-06-24T15:57:58Z</time>
        <extensions>
          <gpxtpx:TrackPointExtension xmlns:gpxtpx="http://www.garmin.com/xmlschemas/TrackPointExtension/v1">
            <gpxtpx:hr>120</gpxtpx:hr>
          </gpxtpx:TrackPointExtension>
        </extensions>
      </trkpt>
      <trkpt lat="50.50537" lon="2.57557">
        <ele>38.6</ele>
        <time>2021-06-24T15:57:59Z</time>
        <extensions>
          <gpxtpx:TrackPointExtension xmlns:gpxtpx="http://www.garmin.com/xmlschemas/TrackPointExtension/v1">
            <gpxtpx:hr>120</gpxtpx:hr>
          </gpxtpx:TrackPointExtension>
        </extensions>
      </trkpt>
      <trkpt lat="50.5054" lon="2.57562">
        <ele>38.6</ele>
        <time>2021-06-24T15:58:00Z</time>
        <extensions>
          <gpxtpx:TrackPointExtension xmlns:gpxtpx="http://www.garmin.com/xmlschemas/TrackPointExtension/v1">
            <gpxtpx:hr>120</gpxtpx:hr>
          </gpxtpx:TrackPointExtension>
        </extensions>
      </trkpt>
      <trkpt lat="50.50542" lon="2.57568">
        <ele>38.6</ele>
        <time>2021-06-24T15:58:01Z</time>
        <extensions>
          <gpxtpx:TrackPointExtension xmlns:gpxtpx="http://www.garmin.com/xmlschemas/TrackPointExtension/v1">
            <gpxtpx:hr>120</gpxtpx:hr>
          </gpxtpx:TrackPointExtension>
        </extensions>
      </trkpt>
      <trkpt lat="50.50544" lon="2.57574">
        <ele>38.6</ele>
        <time>2021-06-24T15:58:02Z</time>
        <extensions>
          <gpxtpx:TrackPointExtension xmlns:gpxtpx="http://www.garmin.com/xmlschemas/TrackPointExtension/v1">
            <gpxtpx:hr>120</gpxtpx:hr>
          </gpxtpx:TrackPointExtension>
        </extensions>
      </trkpt>
      <trkpt lat="50.50546" lon="2.57581">
        <ele>38.6</ele>
        <time>2021-06-24T15:58:03Z</time>
        <extensions>
          <gpxtpx:TrackPointExtension xmlns:gpxtpx="http://www.garmin.com/xmlschemas/TrackPointExtension/v1">
            <gpxtpx:hr>119</gpxtpx:hr>
          </gpxtpx:TrackPointExtension>
        </extensions>
      </trkpt>
      <trkpt lat="50.50549" lon="2.57585">
        <ele>38.6</ele>
        <time>2021-06-24T15:58:04Z</time>
        <extensions>
          <gpxtpx:TrackPointExtension xmlns:gpxtpx="http://www.garmin.com/xmlschemas/TrackPointExtension/v1">
            <gpxtpx:hr>119</gpxtpx:hr>
          </gpxtpx:TrackPointExtension>
        </extensions>
      </trkpt>
      <trkpt lat="50.50551" lon="2.57588">
        <ele>38.8</ele>
        <time>2021-06-24T15:58:05Z</time>
        <extensions>
          <gpxtpx:TrackPointExtension xmlns:gpxtpx="http://www.garmin.com/xmlschemas/TrackPointExtension/v1">
            <gpxtpx:hr>119</gpxtpx:hr>
          </gpxtpx:TrackPointExtension>
        </extensions>
      </trkpt>
      <trkpt lat="50.50552" lon="2.57592">
        <ele>38.8</ele>
        <time>2021-06-24T15:58:06Z</time>
        <extensions>
          <gpxtpx:TrackPointExtension xmlns:gpxtpx="http://www.garmin.com/xmlschemas/TrackPointExtension/v1">
            <gpxtpx:hr>119</gpxtpx:hr>
          </gpxtpx:TrackPointExtension>
        </extensions>
      </trkpt>
      <trkpt lat="50.50554" lon="2.57597">
        <ele>38.8</ele>
        <time>2021-06-24T15:58:07Z</time>
        <extensions>
          <gpxtpx:TrackPointExtension xmlns:gpxtpx="http://www.garmin.com/xmlschemas/TrackPointExtension/v1">
            <gpxtpx:hr>118</gpxtpx:hr>
          </gpxtpx:TrackPointExtension>
        </extensions>
      </trkpt>
      <trkpt lat="50.50555" lon="2.57603">
        <ele>38.8</ele>
        <time>2021-06-24T15:58:08Z</time>
        <extensions>
          <gpxtpx:TrackPointExtension xmlns:gpxtpx="http://www.garmin.com/xmlschemas/TrackPointExtension/v1">
            <gpxtpx:hr>118</gpxtpx:hr>
          </gpxtpx:TrackPointExtension>
        </extensions>
      </trkpt>
      <trkpt lat="50.50556" lon="2.57606">
        <ele>38.8</ele>
        <time>2021-06-24T15:58:09Z</time>
        <extensions>
          <gpxtpx:TrackPointExtension xmlns:gpxtpx="http://www.garmin.com/xmlschemas/TrackPointExtension/v1">
            <gpxtpx:hr>118</gpxtpx:hr>
          </gpxtpx:TrackPointExtension>
        </extensions>
      </trkpt>
      <trkpt lat="50.50559" lon="2.57611">
        <ele>38.8</ele>
        <time>2021-06-24T15:58:10Z</time>
        <extensions>
          <gpxtpx:TrackPointExtension xmlns:gpxtpx="http://www.garmin.com/xmlschemas/TrackPointExtension/v1">
            <gpxtpx:hr>118</gpxtpx:hr>
          </gpxtpx:TrackPointExtension>
        </extensions>
      </trkpt>
      <trkpt lat="50.50562" lon="2.57615">
        <ele>38.8</ele>
        <time>2021-06-24T15:58:11Z</time>
        <extensions>
          <gpxtpx:TrackPointExtension xmlns:gpxtpx="http://www.garmin.com/xmlschemas/TrackPointExtension/v1">
            <gpxtpx:hr>118</gpxtpx:hr>
          </gpxtpx:TrackPointExtension>
        </extensions>
      </trkpt>
      <trkpt lat="50.50564" lon="2.57621">
        <ele>39</ele>
        <time>2021-06-24T15:58:12Z</time>
        <extensions>
          <gpxtpx:TrackPointExtension xmlns:gpxtpx="http://www.garmin.com/xmlschemas/TrackPointExtension/v1">
            <gpxtpx:hr>118</gpxtpx:hr>
          </gpxtpx:TrackPointExtension>
        </extensions>
      </trkpt>
      <trkpt lat="50.50567" lon="2.57627">
        <ele>39</ele>
        <time>2021-06-24T15:58:13Z</time>
        <extensions>
          <gpxtpx:TrackPointExtension xmlns:gpxtpx="http://www.garmin.com/xmlschemas/TrackPointExtension/v1">
            <gpxtpx:hr>119</gpxtpx:hr>
          </gpxtpx:TrackPointExtension>
        </extensions>
      </trkpt>
      <trkpt lat="50.5057" lon="2.57635">
        <ele>39</ele>
        <time>2021-06-24T15:58:14Z</time>
        <extensions>
          <gpxtpx:TrackPointExtension xmlns:gpxtpx="http://www.garmin.com/xmlschemas/TrackPointExtension/v1">
            <gpxtpx:hr>119</gpxtpx:hr>
          </gpxtpx:TrackPointExtension>
        </extensions>
      </trkpt>
      <trkpt lat="50.50575" lon="2.57643">
        <ele>39</ele>
        <time>2021-06-24T15:58:15Z</time>
        <extensions>
          <gpxtpx:TrackPointExtension xmlns:gpxtpx="http://www.garmin.com/xmlschemas/TrackPointExtension/v1">
            <gpxtpx:hr>120</gpxtpx:hr>
          </gpxtpx:TrackPointExtension>
        </extensions>
      </trkpt>
      <trkpt lat="50.50579" lon="2.5765">
        <ele>39</ele>
        <time>2021-06-24T15:58:16Z</time>
        <extensions>
          <gpxtpx:TrackPointExtension xmlns:gpxtpx="http://www.garmin.com/xmlschemas/TrackPointExtension/v1">
            <gpxtpx:hr>120</gpxtpx:hr>
          </gpxtpx:TrackPointExtension>
        </extensions>
      </trkpt>
      <trkpt lat="50.50583" lon="2.57659">
        <ele>39</ele>
        <time>2021-06-24T15:58:17Z</time>
        <extensions>
          <gpxtpx:TrackPointExtension xmlns:gpxtpx="http://www.garmin.com/xmlschemas/TrackPointExtension/v1">
            <gpxtpx:hr>120</gpxtpx:hr>
          </gpxtpx:TrackPointExtension>
        </extensions>
      </trkpt>
      <trkpt lat="50.50587" lon="2.5767">
        <ele>39.2</ele>
        <time>2021-06-24T15:58:18Z</time>
        <extensions>
          <gpxtpx:TrackPointExtension xmlns:gpxtpx="http://www.garmin.com/xmlschemas/TrackPointExtension/v1">
            <gpxtpx:hr>120</gpxtpx:hr>
          </gpxtpx:TrackPointExtension>
        </extensions>
      </trkpt>
      <trkpt lat="50.5059" lon="2.57678">
        <ele>39.2</ele>
        <time>2021-06-24T15:58:19Z</time>
        <extensions>
          <gpxtpx:TrackPointExtension xmlns:gpxtpx="http://www.garmin.com/xmlschemas/TrackPointExtension/v1">
            <gpxtpx:hr>121</gpxtpx:hr>
          </gpxtpx:TrackPointExtension>
        </extensions>
      </trkpt>
      <trkpt lat="50.50593" lon="2.57685">
        <ele>39.2</ele>
        <time>2021-06-24T15:58:20Z</time>
        <extensions>
          <gpxtpx:TrackPointExtension xmlns:gpxtpx="http://www.garmin.com/xmlschemas/TrackPointExtension/v1">
            <gpxtpx:hr>121</gpxtpx:hr>
          </gpxtpx:TrackPointExtension>
        </extensions>
      </trkpt>
      <trkpt lat="50.50594" lon="2.57685">
        <ele>39.2</ele>
        <time>2021-06-24T15:58:21Z</time>
        <extensions>
          <gpxtpx:TrackPointExtension xmlns:gpxtpx="http://www.garmin.com/xmlschemas/TrackPointExtension/v1">
            <gpxtpx:hr>122</gpxtpx:hr>
          </gpxtpx:TrackPointExtension>
        </extensions>
      </trkpt>
      <trkpt lat="50.50597" lon="2.57685">
        <ele>39.2</ele>
        <time>2021-06-24T15:58:22Z</time>
        <extensions>
          <gpxtpx:TrackPointExtension xmlns:gpxtpx="http://www.garmin.com/xmlschemas/TrackPointExtension/v1">
            <gpxtpx:hr>122</gpxtpx:hr>
          </gpxtpx:TrackPointExtension>
        </extensions>
      </trkpt>
      <trkpt lat="50.50601" lon="2.57686">
        <ele>39.2</ele>
        <time>2021-06-24T15:58:23Z</time>
        <extensions>
          <gpxtpx:TrackPointExtension xmlns:gpxtpx="http://www.garmin.com/xmlschemas/TrackPointExtension/v1">
            <gpxtpx:hr>123</gpxtpx:hr>
          </gpxtpx:TrackPointExtension>
        </extensions>
      </trkpt>
      <trkpt lat="50.50604" lon="2.57688">
        <ele>39.2</ele>
        <time>2021-06-24T15:58:24Z</time>
        <extensions>
          <gpxtpx:TrackPointExtension xmlns:gpxtpx="http://www.garmin.com/xmlschemas/TrackPointExtension/v1">
            <gpxtpx:hr>123</gpxtpx:hr>
          </gpxtpx:TrackPointExtension>
        </extensions>
      </trkpt>
      <trkpt lat="50.50608" lon="2.57692">
        <ele>39.4</ele>
        <time>2021-06-24T15:58:25Z</time>
        <extensions>
          <gpxtpx:TrackPointExtension xmlns:gpxtpx="http://www.garmin.com/xmlschemas/TrackPointExtension/v1">
            <gpxtpx:hr>123</gpxtpx:hr>
          </gpxtpx:TrackPointExtension>
        </extensions>
      </trkpt>
      <trkpt lat="50.5061" lon="2.57696">
        <ele>39.4</ele>
        <time>2021-06-24T15:58:26Z</time>
        <extensions>
          <gpxtpx:TrackPointExtension xmlns:gpxtpx="http://www.garmin.com/xmlschemas/TrackPointExtension/v1">
            <gpxtpx:hr>124</gpxtpx:hr>
          </gpxtpx:TrackPointExtension>
        </extensions>
      </trkpt>
      <trkpt lat="50.50611" lon="2.57701">
        <ele>39.4</ele>
        <time>2021-06-24T15:58:27Z</time>
        <extensions>
          <gpxtpx:TrackPointExtension xmlns:gpxtpx="http://www.garmin.com/xmlschemas/TrackPointExtension/v1">
            <gpxtpx:hr>124</gpxtpx:hr>
          </gpxtpx:TrackPointExtension>
        </extensions>
      </trkpt>
      <trkpt lat="50.50612" lon="2.57705">
        <ele>39.4</ele>
        <time>2021-06-24T15:58:28Z</time>
        <extensions>
          <gpxtpx:TrackPointExtension xmlns:gpxtpx="http://www.garmin.com/xmlschemas/TrackPointExtension/v1">
            <gpxtpx:hr>125</gpxtpx:hr>
          </gpxtpx:TrackPointExtension>
        </extensions>
      </trkpt>
      <trkpt lat="50.50613" lon="2.57709">
        <ele>39.4</ele>
        <time>2021-06-24T15:58:29Z</time>
        <extensions>
          <gpxtpx:TrackPointExtension xmlns:gpxtpx="http://www.garmin.com/xmlschemas/TrackPointExtension/v1">
            <gpxtpx:hr>125</gpxtpx:hr>
          </gpxtpx:TrackPointExtension>
        </extensions>
      </trkpt>
      <trkpt lat="50.50613" lon="2.57713">
        <ele>39.4</ele>
        <time>2021-06-24T15:58:30Z</time>
        <extensions>
          <gpxtpx:TrackPointExtension xmlns:gpxtpx="http://www.garmin.com/xmlschemas/TrackPointExtension/v1">
            <gpxtpx:hr>125</gpxtpx:hr>
          </gpxtpx:TrackPointExtension>
        </extensions>
      </trkpt>
      <trkpt lat="50.50614" lon="2.57717">
        <ele>39.4</ele>
        <time>2021-06-24T15:58:31Z</time>
        <extensions>
          <gpxtpx:TrackPointExtension xmlns:gpxtpx="http://www.garmin.com/xmlschemas/TrackPointExtension/v1">
            <gpxtpx:hr>126</gpxtpx:hr>
          </gpxtpx:TrackPointExtension>
        </extensions>
      </trkpt>
      <trkpt lat="50.50616" lon="2.5772">
        <ele>39.4</ele>
        <time>2021-06-24T15:58:32Z</time>
        <extensions>
          <gpxtpx:TrackPointExtension xmlns:gpxtpx="http://www.garmin.com/xmlschemas/TrackPointExtension/v1">
            <gpxtpx:hr>126</gpxtpx:hr>
          </gpxtpx:TrackPointExtension>
        </extensions>
      </trkpt>
      <trkpt lat="50.50618" lon="2.57724">
        <ele>39.6</ele>
        <time>2021-06-24T15:58:33Z</time>
        <extensions>
          <gpxtpx:TrackPointExtension xmlns:gpxtpx="http://www.garmin.com/xmlschemas/TrackPointExtension/v1">
            <gpxtpx:hr>126</gpxtpx:hr>
          </gpxtpx:TrackPointExtension>
        </extensions>
      </trkpt>
      <trkpt lat="50.50621" lon="2.57727">
        <ele>39.6</ele>
        <time>2021-06-24T15:58:34Z</time>
        <extensions>
          <gpxtpx:TrackPointExtension xmlns:gpxtpx="http://www.garmin.com/xmlschemas/TrackPointExtension/v1">
            <gpxtpx:hr>126</gpxtpx:hr>
          </gpxtpx:TrackPointExtension>
        </extensions>
      </trkpt>
      <trkpt lat="50.50624" lon="2.5773">
        <ele>39.6</ele>
        <time>2021-06-24T15:58:35Z</time>
        <extensions>
          <gpxtpx:TrackPointExtension xmlns:gpxtpx="http://www.garmin.com/xmlschemas/TrackPointExtension/v1">
            <gpxtpx:hr>126</gpxtpx:hr>
          </gpxtpx:TrackPointExtension>
        </extensions>
      </trkpt>
      <trkpt lat="50.50627" lon="2.57733">
        <ele>39.6</ele>
        <time>2021-06-24T15:58:36Z</time>
        <extensions>
          <gpxtpx:TrackPointExtension xmlns:gpxtpx="http://www.garmin.com/xmlschemas/TrackPointExtension/v1">
            <gpxtpx:hr>126</gpxtpx:hr>
          </gpxtpx:TrackPointExtension>
        </extensions>
      </trkpt>
      <trkpt lat="50.50628" lon="2.57737">
        <ele>39.8</ele>
        <time>2021-06-24T15:58:37Z</time>
        <extensions>
          <gpxtpx:TrackPointExtension xmlns:gpxtpx="http://www.garmin.com/xmlschemas/TrackPointExtension/v1">
            <gpxtpx:hr>125</gpxtpx:hr>
          </gpxtpx:TrackPointExtension>
        </extensions>
      </trkpt>
      <trkpt lat="50.50629" lon="2.57741">
        <ele>39.8</ele>
        <time>2021-06-24T15:58:38Z</time>
        <extensions>
          <gpxtpx:TrackPointExtension xmlns:gpxtpx="http://www.garmin.com/xmlschemas/TrackPointExtension/v1">
            <gpxtpx:hr>125</gpxtpx:hr>
          </gpxtpx:TrackPointExtension>
        </extensions>
      </trkpt>
      <trkpt lat="50.5063" lon="2.57743">
        <ele>39.8</ele>
        <time>2021-06-24T15:58:39Z</time>
        <extensions>
          <gpxtpx:TrackPointExtension xmlns:gpxtpx="http://www.garmin.com/xmlschemas/TrackPointExtension/v1">
            <gpxtpx:hr>125</gpxtpx:hr>
          </gpxtpx:TrackPointExtension>
        </extensions>
      </trkpt>
      <trkpt lat="50.50632" lon="2.57746">
        <ele>39.8</ele>
        <time>2021-06-24T15:58:40Z</time>
        <extensions>
          <gpxtpx:TrackPointExtension xmlns:gpxtpx="http://www.garmin.com/xmlschemas/TrackPointExtension/v1">
            <gpxtpx:hr>125</gpxtpx:hr>
          </gpxtpx:TrackPointExtension>
        </extensions>
      </trkpt>
      <trkpt lat="50.50634" lon="2.57749">
        <ele>39.8</ele>
        <time>2021-06-24T15:58:41Z</time>
        <extensions>
          <gpxtpx:TrackPointExtension xmlns:gpxtpx="http://www.garmin.com/xmlschemas/TrackPointExtension/v1">
            <gpxtpx:hr>125</gpxtpx:hr>
          </gpxtpx:TrackPointExtension>
        </extensions>
      </trkpt>
      <trkpt lat="50.50636" lon="2.57751">
        <ele>39.8</ele>
        <time>2021-06-24T15:58:42Z</time>
        <extensions>
          <gpxtpx:TrackPointExtension xmlns:gpxtpx="http://www.garmin.com/xmlschemas/TrackPointExtension/v1">
            <gpxtpx:hr>125</gpxtpx:hr>
          </gpxtpx:TrackPointExtension>
        </extensions>
      </trkpt>
      <trkpt lat="50.50638" lon="2.57755">
        <ele>39.8</ele>
        <time>2021-06-24T15:58:43Z</time>
        <extensions>
          <gpxtpx:TrackPointExtension xmlns:gpxtpx="http://www.garmin.com/xmlschemas/TrackPointExtension/v1">
            <gpxtpx:hr>125</gpxtpx:hr>
          </gpxtpx:TrackPointExtension>
        </extensions>
      </trkpt>
      <trkpt lat="50.50641" lon="2.57758">
        <ele>39.8</ele>
        <time>2021-06-24T15:58:44Z</time>
        <extensions>
          <gpxtpx:TrackPointExtension xmlns:gpxtpx="http://www.garmin.com/xmlschemas/TrackPointExtension/v1">
            <gpxtpx:hr>126</gpxtpx:hr>
          </gpxtpx:TrackPointExtension>
        </extensions>
      </trkpt>
      <trkpt lat="50.50644" lon="2.57762">
        <ele>39.8</ele>
        <time>2021-06-24T15:58:45Z</time>
        <extensions>
          <gpxtpx:TrackPointExtension xmlns:gpxtpx="http://www.garmin.com/xmlschemas/TrackPointExtension/v1">
            <gpxtpx:hr>126</gpxtpx:hr>
          </gpxtpx:TrackPointExtension>
        </extensions>
      </trkpt>
      <trkpt lat="50.50646" lon="2.57765">
        <ele>39.8</ele>
        <time>2021-06-24T15:58:46Z</time>
        <extensions>
          <gpxtpx:TrackPointExtension xmlns:gpxtpx="http://www.garmin.com/xmlschemas/TrackPointExtension/v1">
            <gpxtpx:hr>126</gpxtpx:hr>
          </gpxtpx:TrackPointExtension>
        </extensions>
      </trkpt>
      <trkpt lat="50.50649" lon="2.5777">
        <ele>39.8</ele>
        <time>2021-06-24T15:58:47Z</time>
        <extensions>
          <gpxtpx:TrackPointExtension xmlns:gpxtpx="http://www.garmin.com/xmlschemas/TrackPointExtension/v1">
            <gpxtpx:hr>127</gpxtpx:hr>
          </gpxtpx:TrackPointExtension>
        </extensions>
      </trkpt>
      <trkpt lat="50.50652" lon="2.57775">
        <ele>39.8</ele>
        <time>2021-06-24T15:58:48Z</time>
        <extensions>
          <gpxtpx:TrackPointExtension xmlns:gpxtpx="http://www.garmin.com/xmlschemas/TrackPointExtension/v1">
            <gpxtpx:hr>127</gpxtpx:hr>
          </gpxtpx:TrackPointExtension>
        </extensions>
      </trkpt>
      <trkpt lat="50.50655" lon="2.57779">
        <ele>39.6</ele>
        <time>2021-06-24T15:58:49Z</time>
        <extensions>
          <gpxtpx:TrackPointExtension xmlns:gpxtpx="http://www.garmin.com/xmlschemas/TrackPointExtension/v1">
            <gpxtpx:hr>127</gpxtpx:hr>
          </gpxtpx:TrackPointExtension>
        </extensions>
      </trkpt>
      <trkpt lat="50.50658" lon="2.57783">
        <ele>39.6</ele>
        <time>2021-06-24T15:58:50Z</time>
        <extensions>
          <gpxtpx:TrackPointExtension xmlns:gpxtpx="http://www.garmin.com/xmlschemas/TrackPointExtension/v1">
            <gpxtpx:hr>127</gpxtpx:hr>
          </gpxtpx:TrackPointExtension>
        </extensions>
      </trkpt>
      <trkpt lat="50.50661" lon="2.57787">
        <ele>39.6</ele>
        <time>2021-06-24T15:58:51Z</time>
        <extensions>
          <gpxtpx:TrackPointExtension xmlns:gpxtpx="http://www.garmin.com/xmlschemas/TrackPointExtension/v1">
            <gpxtpx:hr>127</gpxtpx:hr>
          </gpxtpx:TrackPointExtension>
        </extensions>
      </trkpt>
      <trkpt lat="50.50665" lon="2.57792">
        <ele>39.4</ele>
        <time>2021-06-24T15:58:52Z</time>
        <extensions>
          <gpxtpx:TrackPointExtension xmlns:gpxtpx="http://www.garmin.com/xmlschemas/TrackPointExtension/v1">
            <gpxtpx:hr>127</gpxtpx:hr>
          </gpxtpx:TrackPointExtension>
        </extensions>
      </trkpt>
      <trkpt lat="50.50668" lon="2.57795">
        <ele>39.4</ele>
        <time>2021-06-24T15:58:53Z</time>
        <extensions>
          <gpxtpx:TrackPointExtension xmlns:gpxtpx="http://www.garmin.com/xmlschemas/TrackPointExtension/v1">
            <gpxtpx:hr>126</gpxtpx:hr>
          </gpxtpx:TrackPointExtension>
        </extensions>
      </trkpt>
      <trkpt lat="50.50672" lon="2.57799">
        <ele>39.2</ele>
        <time>2021-06-24T15:58:54Z</time>
        <extensions>
          <gpxtpx:TrackPointExtension xmlns:gpxtpx="http://www.garmin.com/xmlschemas/TrackPointExtension/v1">
            <gpxtpx:hr>126</gpxtpx:hr>
          </gpxtpx:TrackPointExtension>
        </extensions>
      </trkpt>
      <trkpt lat="50.50676" lon="2.57803">
        <ele>39.2</ele>
        <time>2021-06-24T15:58:55Z</time>
        <extensions>
          <gpxtpx:TrackPointExtension xmlns:gpxtpx="http://www.garmin.com/xmlschemas/TrackPointExtension/v1">
            <gpxtpx:hr>125</gpxtpx:hr>
          </gpxtpx:TrackPointExtension>
        </extensions>
      </trkpt>
      <trkpt lat="50.5068" lon="2.57807">
        <ele>39</ele>
        <time>2021-06-24T15:58:56Z</time>
        <extensions>
          <gpxtpx:TrackPointExtension xmlns:gpxtpx="http://www.garmin.com/xmlschemas/TrackPointExtension/v1">
            <gpxtpx:hr>125</gpxtpx:hr>
          </gpxtpx:TrackPointExtension>
        </extensions>
      </trkpt>
      <trkpt lat="50.50684" lon="2.5781">
        <ele>39</ele>
        <time>2021-06-24T15:58:57Z</time>
        <extensions>
          <gpxtpx:TrackPointExtension xmlns:gpxtpx="http://www.garmin.com/xmlschemas/TrackPointExtension/v1">
            <gpxtpx:hr>124</gpxtpx:hr>
          </gpxtpx:TrackPointExtension>
        </extensions>
      </trkpt>
      <trkpt lat="50.50689" lon="2.57811">
        <ele>38.8</ele>
        <time>2021-06-24T15:58:58Z</time>
        <extensions>
          <gpxtpx:TrackPointExtension xmlns:gpxtpx="http://www.garmin.com/xmlschemas/TrackPointExtension/v1">
            <gpxtpx:hr>124</gpxtpx:hr>
          </gpxtpx:TrackPointExtension>
        </extensions>
      </trkpt>
      <trkpt lat="50.50694" lon="2.57812">
        <ele>38.6</ele>
        <time>2021-06-24T15:58:59Z</time>
        <extensions>
          <gpxtpx:TrackPointExtension xmlns:gpxtpx="http://www.garmin.com/xmlschemas/TrackPointExtension/v1">
            <gpxtpx:hr>123</gpxtpx:hr>
          </gpxtpx:TrackPointExtension>
        </extensions>
      </trkpt>
      <trkpt lat="50.50699" lon="2.57814">
        <ele>38.6</ele>
        <time>2021-06-24T15:59:00Z</time>
        <extensions>
          <gpxtpx:TrackPointExtension xmlns:gpxtpx="http://www.garmin.com/xmlschemas/TrackPointExtension/v1">
            <gpxtpx:hr>122</gpxtpx:hr>
          </gpxtpx:TrackPointExtension>
        </extensions>
      </trkpt>
      <trkpt lat="50.50703" lon="2.57817">
        <ele>38.4</ele>
        <time>2021-06-24T15:59:01Z</time>
        <extensions>
          <gpxtpx:TrackPointExtension xmlns:gpxtpx="http://www.garmin.com/xmlschemas/TrackPointExtension/v1">
            <gpxtpx:hr>122</gpxtpx:hr>
          </gpxtpx:TrackPointExtension>
        </extensions>
      </trkpt>
      <trkpt lat="50.50707" lon="2.5782">
        <ele>38.4</ele>
        <time>2021-06-24T15:59:02Z</time>
        <extensions>
          <gpxtpx:TrackPointExtension xmlns:gpxtpx="http://www.garmin.com/xmlschemas/TrackPointExtension/v1">
            <gpxtpx:hr>121</gpxtpx:hr>
          </gpxtpx:TrackPointExtension>
        </extensions>
      </trkpt>
      <trkpt lat="50.5071" lon="2.57824">
        <ele>38.2</ele>
        <time>2021-06-24T15:59:03Z</time>
        <extensions>
          <gpxtpx:TrackPointExtension xmlns:gpxtpx="http://www.garmin.com/xmlschemas/TrackPointExtension/v1">
            <gpxtpx:hr>120</gpxtpx:hr>
          </gpxtpx:TrackPointExtension>
        </extensions>
      </trkpt>
      <trkpt lat="50.50714" lon="2.57827">
        <ele>38.2</ele>
        <time>2021-06-24T15:59:04Z</time>
        <extensions>
          <gpxtpx:TrackPointExtension xmlns:gpxtpx="http://www.garmin.com/xmlschemas/TrackPointExtension/v1">
            <gpxtpx:hr>119</gpxtpx:hr>
          </gpxtpx:TrackPointExtension>
        </extensions>
      </trkpt>
      <trkpt lat="50.50717" lon="2.5783">
        <ele>38</ele>
        <time>2021-06-24T15:59:05Z</time>
        <extensions>
          <gpxtpx:TrackPointExtension xmlns:gpxtpx="http://www.garmin.com/xmlschemas/TrackPointExtension/v1">
            <gpxtpx:hr>118</gpxtpx:hr>
          </gpxtpx:TrackPointExtension>
        </extensions>
      </trkpt>
      <trkpt lat="50.5072" lon="2.57835">
        <ele>37.6</ele>
        <time>2021-06-24T15:59:06Z</time>
        <extensions>
          <gpxtpx:TrackPointExtension xmlns:gpxtpx="http://www.garmin.com/xmlschemas/TrackPointExtension/v1">
            <gpxtpx:hr>116</gpxtpx:hr>
          </gpxtpx:TrackPointExtension>
        </extensions>
      </trkpt>
      <trkpt lat="50.50723" lon="2.5784">
        <ele>37.4</ele>
        <time>2021-06-24T15:59:07Z</time>
        <extensions>
          <gpxtpx:TrackPointExtension xmlns:gpxtpx="http://www.garmin.com/xmlschemas/TrackPointExtension/v1">
            <gpxtpx:hr>114</gpxtpx:hr>
          </gpxtpx:TrackPointExtension>
        </extensions>
      </trkpt>
      <trkpt lat="50.50724" lon="2.57845">
        <ele>37.2</ele>
        <time>2021-06-24T15:59:08Z</time>
        <extensions>
          <gpxtpx:TrackPointExtension xmlns:gpxtpx="http://www.garmin.com/xmlschemas/TrackPointExtension/v1">
            <gpxtpx:hr>112</gpxtpx:hr>
          </gpxtpx:TrackPointExtension>
        </extensions>
      </trkpt>
      <trkpt lat="50.50727" lon="2.57851">
        <ele>37</ele>
        <time>2021-06-24T15:59:09Z</time>
        <extensions>
          <gpxtpx:TrackPointExtension xmlns:gpxtpx="http://www.garmin.com/xmlschemas/TrackPointExtension/v1">
            <gpxtpx:hr>110</gpxtpx:hr>
          </gpxtpx:TrackPointExtension>
        </extensions>
      </trkpt>
      <trkpt lat="50.5073" lon="2.57857">
        <ele>36.8</ele>
        <time>2021-06-24T15:59:10Z</time>
        <extensions>
          <gpxtpx:TrackPointExtension xmlns:gpxtpx="http://www.garmin.com/xmlschemas/TrackPointExtension/v1">
            <gpxtpx:hr>108</gpxtpx:hr>
          </gpxtpx:TrackPointExtension>
        </extensions>
      </trkpt>
      <trkpt lat="50.50733" lon="2.57863">
        <ele>36.6</ele>
        <time>2021-06-24T15:59:11Z</time>
        <extensions>
          <gpxtpx:TrackPointExtension xmlns:gpxtpx="http://www.garmin.com/xmlschemas/TrackPointExtension/v1">
            <gpxtpx:hr>106</gpxtpx:hr>
          </gpxtpx:TrackPointExtension>
        </extensions>
      </trkpt>
      <trkpt lat="50.50736" lon="2.57868">
        <ele>36.6</ele>
        <time>2021-06-24T15:59:12Z</time>
        <extensions>
          <gpxtpx:TrackPointExtension xmlns:gpxtpx="http://www.garmin.com/xmlschemas/TrackPointExtension/v1">
            <gpxtpx:hr>105</gpxtpx:hr>
          </gpxtpx:TrackPointExtension>
        </extensions>
      </trkpt>
      <trkpt lat="50.5074" lon="2.57874">
        <ele>36.4</ele>
        <time>2021-06-24T15:59:13Z</time>
        <extensions>
          <gpxtpx:TrackPointExtension xmlns:gpxtpx="http://www.garmin.com/xmlschemas/TrackPointExtension/v1">
            <gpxtpx:hr>105</gpxtpx:hr>
          </gpxtpx:TrackPointExtension>
        </extensions>
      </trkpt>
      <trkpt lat="50.50742" lon="2.5788">
        <ele>36.2</ele>
        <time>2021-06-24T15:59:14Z</time>
        <extensions>
          <gpxtpx:TrackPointExtension xmlns:gpxtpx="http://www.garmin.com/xmlschemas/TrackPointExtension/v1">
            <gpxtpx:hr>104</gpxtpx:hr>
          </gpxtpx:TrackPointExtension>
        </extensions>
      </trkpt>
      <trkpt lat="50.50744" lon="2.57886">
        <ele>36.2</ele>
        <time>2021-06-24T15:59:15Z</time>
        <extensions>
          <gpxtpx:TrackPointExtension xmlns:gpxtpx="http://www.garmin.com/xmlschemas/TrackPointExtension/v1">
            <gpxtpx:hr>104</gpxtpx:hr>
          </gpxtpx:TrackPointExtension>
        </extensions>
      </trkpt>
      <trkpt lat="50.50747" lon="2.57892">
        <ele>36</ele>
        <time>2021-06-24T15:59:16Z</time>
        <extensions>
          <gpxtpx:TrackPointExtension xmlns:gpxtpx="http://www.garmin.com/xmlschemas/TrackPointExtension/v1">
            <gpxtpx:hr>105</gpxtpx:hr>
          </gpxtpx:TrackPointExtension>
        </extensions>
      </trkpt>
      <trkpt lat="50.50749" lon="2.57898">
        <ele>36</ele>
        <time>2021-06-24T15:59:17Z</time>
        <extensions>
          <gpxtpx:TrackPointExtension xmlns:gpxtpx="http://www.garmin.com/xmlschemas/TrackPointExtension/v1">
            <gpxtpx:hr>105</gpxtpx:hr>
          </gpxtpx:TrackPointExtension>
        </extensions>
      </trkpt>
      <trkpt lat="50.50751" lon="2.57904">
        <ele>36</ele>
        <time>2021-06-24T15:59:18Z</time>
        <extensions>
          <gpxtpx:TrackPointExtension xmlns:gpxtpx="http://www.garmin.com/xmlschemas/TrackPointExtension/v1">
            <gpxtpx:hr>105</gpxtpx:hr>
          </gpxtpx:TrackPointExtension>
        </extensions>
      </trkpt>
      <trkpt lat="50.50753" lon="2.57911">
        <ele>35.8</ele>
        <time>2021-06-24T15:59:19Z</time>
        <extensions>
          <gpxtpx:TrackPointExtension xmlns:gpxtpx="http://www.garmin.com/xmlschemas/TrackPointExtension/v1">
            <gpxtpx:hr>106</gpxtpx:hr>
          </gpxtpx:TrackPointExtension>
        </extensions>
      </trkpt>
      <trkpt lat="50.50756" lon="2.57917">
        <ele>35.8</ele>
        <time>2021-06-24T15:59:20Z</time>
        <extensions>
          <gpxtpx:TrackPointExtension xmlns:gpxtpx="http://www.garmin.com/xmlschemas/TrackPointExtension/v1">
            <gpxtpx:hr>105</gpxtpx:hr>
          </gpxtpx:TrackPointExtension>
        </extensions>
      </trkpt>
      <trkpt lat="50.50758" lon="2.57924">
        <ele>35.6</ele>
        <time>2021-06-24T15:59:21Z</time>
        <extensions>
          <gpxtpx:TrackPointExtension xmlns:gpxtpx="http://www.garmin.com/xmlschemas/TrackPointExtension/v1">
            <gpxtpx:hr>105</gpxtpx:hr>
          </gpxtpx:TrackPointExtension>
        </extensions>
      </trkpt>
      <trkpt lat="50.50761" lon="2.57931">
        <ele>35.6</ele>
        <time>2021-06-24T15:59:22Z</time>
        <extensions>
          <gpxtpx:TrackPointExtension xmlns:gpxtpx="http://www.garmin.com/xmlschemas/TrackPointExtension/v1">
            <gpxtpx:hr>105</gpxtpx:hr>
          </gpxtpx:TrackPointExtension>
        </extensions>
      </trkpt>
      <trkpt lat="50.50763" lon="2.57937">
        <ele>35.4</ele>
        <time>2021-06-24T15:59:23Z</time>
        <extensions>
          <gpxtpx:TrackPointExtension xmlns:gpxtpx="http://www.garmin.com/xmlschemas/TrackPointExtension/v1">
            <gpxtpx:hr>105</gpxtpx:hr>
          </gpxtpx:TrackPointExtension>
        </extensions>
      </trkpt>
      <trkpt lat="50.50765" lon="2.57944">
        <ele>35.2</ele>
        <time>2021-06-24T15:59:24Z</time>
        <extensions>
          <gpxtpx:TrackPointExtension xmlns:gpxtpx="http://www.garmin.com/xmlschemas/TrackPointExtension/v1">
            <gpxtpx:hr>105</gpxtpx:hr>
          </gpxtpx:TrackPointExtension>
        </extensions>
      </trkpt>
      <trkpt lat="50.50767" lon="2.5795">
        <ele>35.2</ele>
        <time>2021-06-24T15:59:25Z</time>
        <extensions>
          <gpxtpx:TrackPointExtension xmlns:gpxtpx="http://www.garmin.com/xmlschemas/TrackPointExtension/v1">
            <gpxtpx:hr>105</gpxtpx:hr>
          </gpxtpx:TrackPointExtension>
        </extensions>
      </trkpt>
      <trkpt lat="50.5077" lon="2.57956">
        <ele>35</ele>
        <time>2021-06-24T15:59:26Z</time>
        <extensions>
          <gpxtpx:TrackPointExtension xmlns:gpxtpx="http://www.garmin.com/xmlschemas/TrackPointExtension/v1">
            <gpxtpx:hr>105</gpxtpx:hr>
          </gpxtpx:TrackPointExtension>
        </extensions>
      </trkpt>
      <trkpt lat="50.50772" lon="2.57962">
        <ele>34.8</ele>
        <time>2021-06-24T15:59:27Z</time>
        <extensions>
          <gpxtpx:TrackPointExtension xmlns:gpxtpx="http://www.garmin.com/xmlschemas/TrackPointExtension/v1">
            <gpxtpx:hr>106</gpxtpx:hr>
          </gpxtpx:TrackPointExtension>
        </extensions>
      </trkpt>
      <trkpt lat="50.50774" lon="2.57968">
        <ele>34.8</ele>
        <time>2021-06-24T15:59:28Z</time>
        <extensions>
          <gpxtpx:TrackPointExtension xmlns:gpxtpx="http://www.garmin.com/xmlschemas/TrackPointExtension/v1">
            <gpxtpx:hr>106</gpxtpx:hr>
          </gpxtpx:TrackPointExtension>
        </extensions>
      </trkpt>
      <trkpt lat="50.50776" lon="2.57974">
        <ele>34.6</ele>
        <time>2021-06-24T15:59:29Z</time>
        <extensions>
          <gpxtpx:TrackPointExtension xmlns:gpxtpx="http://www.garmin.com/xmlschemas/TrackPointExtension/v1">
            <gpxtpx:hr>106</gpxtpx:hr>
          </gpxtpx:TrackPointExtension>
        </extensions>
      </trkpt>
      <trkpt lat="50.50778" lon="2.57979">
        <ele>34.4</ele>
        <time>2021-06-24T15:59:30Z</time>
        <extensions>
          <gpxtpx:TrackPointExtension xmlns:gpxtpx="http://www.garmin.com/xmlschemas/TrackPointExtension/v1">
            <gpxtpx:hr>107</gpxtpx:hr>
          </gpxtpx:TrackPointExtension>
        </extensions>
      </trkpt>
      <trkpt lat="50.5078" lon="2.57984">
        <ele>34.4</ele>
        <time>2021-06-24T15:59:31Z</time>
        <extensions>
          <gpxtpx:TrackPointExtension xmlns:gpxtpx="http://www.garmin.com/xmlschemas/TrackPointExtension/v1">
            <gpxtpx:hr>107</gpxtpx:hr>
          </gpxtpx:TrackPointExtension>
        </extensions>
      </trkpt>
      <trkpt lat="50.50782" lon="2.57989">
        <ele>34.2</ele>
        <time>2021-06-24T15:59:32Z</time>
        <extensions>
          <gpxtpx:TrackPointExtension xmlns:gpxtpx="http://www.garmin.com/xmlschemas/TrackPointExtension/v1">
            <gpxtpx:hr>108</gpxtpx:hr>
          </gpxtpx:TrackPointExtension>
        </extensions>
      </trkpt>
      <trkpt lat="50.50786" lon="2.57992">
        <ele>34</ele>
        <time>2021-06-24T15:59:33Z</time>
        <extensions>
          <gpxtpx:TrackPointExtension xmlns:gpxtpx="http://www.garmin.com/xmlschemas/TrackPointExtension/v1">
            <gpxtpx:hr>108</gpxtpx:hr>
          </gpxtpx:TrackPointExtension>
        </extensions>
      </trkpt>
      <trkpt lat="50.50788" lon="2.57996">
        <ele>34</ele>
        <time>2021-06-24T15:59:34Z</time>
        <extensions>
          <gpxtpx:TrackPointExtension xmlns:gpxtpx="http://www.garmin.com/xmlschemas/TrackPointExtension/v1">
            <gpxtpx:hr>109</gpxtpx:hr>
          </gpxtpx:TrackPointExtension>
        </extensions>
      </trkpt>
      <trkpt lat="50.50792" lon="2.57999">
        <ele>33.8</ele>
        <time>2021-06-24T15:59:35Z</time>
        <extensions>
          <gpxtpx:TrackPointExtension xmlns:gpxtpx="http://www.garmin.com/xmlschemas/TrackPointExtension/v1">
            <gpxtpx:hr>110</gpxtpx:hr>
          </gpxtpx:TrackPointExtension>
        </extensions>
      </trkpt>
      <trkpt lat="50.50795" lon="2.58001">
        <ele>33.6</ele>
        <time>2021-06-24T15:59:36Z</time>
        <extensions>
          <gpxtpx:TrackPointExtension xmlns:gpxtpx="http://www.garmin.com/xmlschemas/TrackPointExtension/v1">
            <gpxtpx:hr>110</gpxtpx:hr>
          </gpxtpx:TrackPointExtension>
        </extensions>
      </trkpt>
      <trkpt lat="50.50799" lon="2.58003">
        <ele>33.4</ele>
        <time>2021-06-24T15:59:37Z</time>
        <extensions>
          <gpxtpx:TrackPointExtension xmlns:gpxtpx="http://www.garmin.com/xmlschemas/TrackPointExtension/v1">
            <gpxtpx:hr>111</gpxtpx:hr>
          </gpxtpx:TrackPointExtension>
        </extensions>
      </trkpt>
      <trkpt lat="50.50803" lon="2.58006">
        <ele>33.2</ele>
        <time>2021-06-24T15:59:38Z</time>
        <extensions>
          <gpxtpx:TrackPointExtension xmlns:gpxtpx="http://www.garmin.com/xmlschemas/TrackPointExtension/v1">
            <gpxtpx:hr>111</gpxtpx:hr>
          </gpxtpx:TrackPointExtension>
        </extensions>
      </trkpt>
      <trkpt lat="50.50807" lon="2.58009">
        <ele>33</ele>
        <time>2021-06-24T15:59:39Z</time>
        <extensions>
          <gpxtpx:TrackPointExtension xmlns:gpxtpx="http://www.garmin.com/xmlschemas/TrackPointExtension/v1">
            <gpxtpx:hr>111</gpxtpx:hr>
          </gpxtpx:TrackPointExtension>
        </extensions>
      </trkpt>
      <trkpt lat="50.50811" lon="2.58014">
        <ele>33</ele>
        <time>2021-06-24T15:59:40Z</time>
        <extensions>
          <gpxtpx:TrackPointExtension xmlns:gpxtpx="http://www.garmin.com/xmlschemas/TrackPointExtension/v1">
            <gpxtpx:hr>111</gpxtpx:hr>
          </gpxtpx:TrackPointExtension>
        </extensions>
      </trkpt>
      <trkpt lat="50.50814" lon="2.58019">
        <ele>32.8</ele>
        <time>2021-06-24T15:59:41Z</time>
        <extensions>
          <gpxtpx:TrackPointExtension xmlns:gpxtpx="http://www.garmin.com/xmlschemas/TrackPointExtension/v1">
            <gpxtpx:hr>112</gpxtpx:hr>
          </gpxtpx:TrackPointExtension>
        </extensions>
      </trkpt>
      <trkpt lat="50.50817" lon="2.58025">
        <ele>32.6</ele>
        <time>2021-06-24T15:59:42Z</time>
        <extensions>
          <gpxtpx:TrackPointExtension xmlns:gpxtpx="http://www.garmin.com/xmlschemas/TrackPointExtension/v1">
            <gpxtpx:hr>112</gpxtpx:hr>
          </gpxtpx:TrackPointExtension>
        </extensions>
      </trkpt>
      <trkpt lat="50.5082" lon="2.5803">
        <ele>32.2</ele>
        <time>2021-06-24T15:59:43Z</time>
        <extensions>
          <gpxtpx:TrackPointExtension xmlns:gpxtpx="http://www.garmin.com/xmlschemas/TrackPointExtension/v1">
            <gpxtpx:hr>112</gpxtpx:hr>
          </gpxtpx:TrackPointExtension>
        </extensions>
      </trkpt>
      <trkpt lat="50.50824" lon="2.58035">
        <ele>32</ele>
        <time>2021-06-24T15:59:44Z</time>
        <extensions>
          <gpxtpx:TrackPointExtension xmlns:gpxtpx="http://www.garmin.com/xmlschemas/TrackPointExtension/v1">
            <gpxtpx:hr>112</gpxtpx:hr>
          </gpxtpx:TrackPointExtension>
        </extensions>
      </trkpt>
      <trkpt lat="50.50828" lon="2.58041">
        <ele>31.8</ele>
        <time>2021-06-24T15:59:45Z</time>
        <extensions>
          <gpxtpx:TrackPointExtension xmlns:gpxtpx="http://www.garmin.com/xmlschemas/TrackPointExtension/v1">
            <gpxtpx:hr>113</gpxtpx:hr>
          </gpxtpx:TrackPointExtension>
        </extensions>
      </trkpt>
      <trkpt lat="50.50832" lon="2.58046">
        <ele>31.6</ele>
        <time>2021-06-24T15:59:46Z</time>
        <extensions>
          <gpxtpx:TrackPointExtension xmlns:gpxtpx="http://www.garmin.com/xmlschemas/TrackPointExtension/v1">
            <gpxtpx:hr>113</gpxtpx:hr>
          </gpxtpx:TrackPointExtension>
        </extensions>
      </trkpt>
      <trkpt lat="50.50836" lon="2.5805">
        <ele>31.6</ele>
        <time>2021-06-24T15:59:47Z</time>
        <extensions>
          <gpxtpx:TrackPointExtension xmlns:gpxtpx="http://www.garmin.com/xmlschemas/TrackPointExtension/v1">
            <gpxtpx:hr>114</gpxtpx:hr>
          </gpxtpx:TrackPointExtension>
        </extensions>
      </trkpt>
      <trkpt lat="50.5084" lon="2.58054">
        <ele>31.4</ele>
        <time>2021-06-24T15:59:48Z</time>
        <extensions>
          <gpxtpx:TrackPointExtension xmlns:gpxtpx="http://www.garmin.com/xmlschemas/TrackPointExtension/v1">
            <gpxtpx:hr>115</gpxtpx:hr>
          </gpxtpx:TrackPointExtension>
        </extensions>
      </trkpt>
      <trkpt lat="50.50844" lon="2.58059">
        <ele>31.2</ele>
        <time>2021-06-24T15:59:49Z</time>
        <extensions>
          <gpxtpx:TrackPointExtension xmlns:gpxtpx="http://www.garmin.com/xmlschemas/TrackPointExtension/v1">
            <gpxtpx:hr>116</gpxtpx:hr>
          </gpxtpx:TrackPointExtension>
        </extensions>
      </trkpt>
      <trkpt lat="50.50849" lon="2.58063">
        <ele>31.2</ele>
        <time>2021-06-24T15:59:50Z</time>
        <extensions>
          <gpxtpx:TrackPointExtension xmlns:gpxtpx="http://www.garmin.com/xmlschemas/TrackPointExtension/v1">
            <gpxtpx:hr>117</gpxtpx:hr>
          </gpxtpx:TrackPointExtension>
        </extensions>
      </trkpt>
      <trkpt lat="50.50852" lon="2.58068">
        <ele>31.2</ele>
        <time>2021-06-24T15:59:51Z</time>
        <extensions>
          <gpxtpx:TrackPointExtension xmlns:gpxtpx="http://www.garmin.com/xmlschemas/TrackPointExtension/v1">
            <gpxtpx:hr>117</gpxtpx:hr>
          </gpxtpx:TrackPointExtension>
        </extensions>
      </trkpt>
      <trkpt lat="50.50856" lon="2.58072">
        <ele>31</ele>
        <time>2021-06-24T15:59:52Z</time>
        <extensions>
          <gpxtpx:TrackPointExtension xmlns:gpxtpx="http://www.garmin.com/xmlschemas/TrackPointExtension/v1">
            <gpxtpx:hr>118</gpxtpx:hr>
          </gpxtpx:TrackPointExtension>
        </extensions>
      </trkpt>
      <trkpt lat="50.50859" lon="2.58077">
        <ele>31</ele>
        <time>2021-06-24T15:59:53Z</time>
        <extensions>
          <gpxtpx:TrackPointExtension xmlns:gpxtpx="http://www.garmin.com/xmlschemas/TrackPointExtension/v1">
            <gpxtpx:hr>118</gpxtpx:hr>
          </gpxtpx:TrackPointExtension>
        </extensions>
      </trkpt>
      <trkpt lat="50.50861" lon="2.58082">
        <ele>31</ele>
        <time>2021-06-24T15:59:54Z</time>
        <extensions>
          <gpxtpx:TrackPointExtension xmlns:gpxtpx="http://www.garmin.com/xmlschemas/TrackPointExtension/v1">
            <gpxtpx:hr>118</gpxtpx:hr>
          </gpxtpx:TrackPointExtension>
        </extensions>
      </trkpt>
      <trkpt lat="50.50863" lon="2.58087">
        <ele>31</ele>
        <time>2021-06-24T15:59:55Z</time>
        <extensions>
          <gpxtpx:TrackPointExtension xmlns:gpxtpx="http://www.garmin.com/xmlschemas/TrackPointExtension/v1">
            <gpxtpx:hr>118</gpxtpx:hr>
          </gpxtpx:TrackPointExtension>
        </extensions>
      </trkpt>
      <trkpt lat="50.50864" lon="2.58092">
        <ele>30.8</ele>
        <time>2021-06-24T15:59:56Z</time>
        <extensions>
          <gpxtpx:TrackPointExtension xmlns:gpxtpx="http://www.garmin.com/xmlschemas/TrackPointExtension/v1">
            <gpxtpx:hr>118</gpxtpx:hr>
          </gpxtpx:TrackPointExtension>
        </extensions>
      </trkpt>
      <trkpt lat="50.50865" lon="2.58096">
        <ele>30.8</ele>
        <time>2021-06-24T15:59:57Z</time>
        <extensions>
          <gpxtpx:TrackPointExtension xmlns:gpxtpx="http://www.garmin.com/xmlschemas/TrackPointExtension/v1">
            <gpxtpx:hr>117</gpxtpx:hr>
          </gpxtpx:TrackPointExtension>
        </extensions>
      </trkpt>
      <trkpt lat="50.50867" lon="2.58101">
        <ele>30.6</ele>
        <time>2021-06-24T15:59:58Z</time>
        <extensions>
          <gpxtpx:TrackPointExtension xmlns:gpxtpx="http://www.garmin.com/xmlschemas/TrackPointExtension/v1">
            <gpxtpx:hr>117</gpxtpx:hr>
          </gpxtpx:TrackPointExtension>
        </extensions>
      </trkpt>
      <trkpt lat="50.50868" lon="2.58105">
        <ele>30.4</ele>
        <time>2021-06-24T15:59:59Z</time>
        <extensions>
          <gpxtpx:TrackPointExtension xmlns:gpxtpx="http://www.garmin.com/xmlschemas/TrackPointExtension/v1">
            <gpxtpx:hr>116</gpxtpx:hr>
          </gpxtpx:TrackPointExtension>
        </extensions>
      </trkpt>
      <trkpt lat="50.5087" lon="2.58109">
        <ele>30.2</ele>
        <time>2021-06-24T16:00:00Z</time>
        <extensions>
          <gpxtpx:TrackPointExtension xmlns:gpxtpx="http://www.garmin.com/xmlschemas/TrackPointExtension/v1">
            <gpxtpx:hr>116</gpxtpx:hr>
          </gpxtpx:TrackPointExtension>
        </extensions>
      </trkpt>
      <trkpt lat="50.50872" lon="2.58113">
        <ele>30.2</ele>
        <time>2021-06-24T16:00:01Z</time>
        <extensions>
          <gpxtpx:TrackPointExtension xmlns:gpxtpx="http://www.garmin.com/xmlschemas/TrackPointExtension/v1">
            <gpxtpx:hr>116</gpxtpx:hr>
          </gpxtpx:TrackPointExtension>
        </extensions>
      </trkpt>
      <trkpt lat="50.50876" lon="2.58121">
        <ele>30</ele>
        <time>2021-06-24T16:00:03Z</time>
        <extensions>
          <gpxtpx:TrackPointExtension xmlns:gpxtpx="http://www.garmin.com/xmlschemas/TrackPointExtension/v1">
            <gpxtpx:hr>116</gpxtpx:hr>
          </gpxtpx:TrackPointExtension>
        </extensions>
      </trkpt>
      <trkpt lat="50.50878" lon="2.58125">
        <ele>29.8</ele>
        <time>2021-06-24T16:00:04Z</time>
        <extensions>
          <gpxtpx:TrackPointExtension xmlns:gpxtpx="http://www.garmin.com/xmlschemas/TrackPointExtension/v1">
            <gpxtpx:hr>116</gpxtpx:hr>
          </gpxtpx:TrackPointExtension>
        </extensions>
      </trkpt>
      <trkpt lat="50.5088" lon="2.58129">
        <ele>29.8</ele>
        <time>2021-06-24T16:00:05Z</time>
        <extensions>
          <gpxtpx:TrackPointExtension xmlns:gpxtpx="http://www.garmin.com/xmlschemas/TrackPointExtension/v1">
            <gpxtpx:hr>116</gpxtpx:hr>
          </gpxtpx:TrackPointExtension>
        </extensions>
      </trkpt>
      <trkpt lat="50.50884" lon="2.58138">
        <ele>29.8</ele>
        <time>2021-06-24T16:00:07Z</time>
        <extensions>
          <gpxtpx:TrackPointExtension xmlns:gpxtpx="http://www.garmin.com/xmlschemas/TrackPointExtension/v1">
            <gpxtpx:hr>116</gpxtpx:hr>
          </gpxtpx:TrackPointExtension>
        </extensions>
      </trkpt>
      <trkpt lat="50.50885" lon="2.58142">
        <ele>29.8</ele>
        <time>2021-06-24T16:00:08Z</time>
        <extensions>
          <gpxtpx:TrackPointExtension xmlns:gpxtpx="http://www.garmin.com/xmlschemas/TrackPointExtension/v1">
            <gpxtpx:hr>116</gpxtpx:hr>
          </gpxtpx:TrackPointExtension>
        </extensions>
      </trkpt>
      <trkpt lat="50.50886" lon="2.58147">
        <ele>30</ele>
        <time>2021-06-24T16:00:09Z</time>
        <extensions>
          <gpxtpx:TrackPointExtension xmlns:gpxtpx="http://www.garmin.com/xmlschemas/TrackPointExtension/v1">
            <gpxtpx:hr>116</gpxtpx:hr>
          </gpxtpx:TrackPointExtension>
        </extensions>
      </trkpt>
      <trkpt lat="50.50888" lon="2.58152">
        <ele>30</ele>
        <time>2021-06-24T16:00:10Z</time>
        <extensions>
          <gpxtpx:TrackPointExtension xmlns:gpxtpx="http://www.garmin.com/xmlschemas/TrackPointExtension/v1">
            <gpxtpx:hr>116</gpxtpx:hr>
          </gpxtpx:TrackPointExtension>
        </extensions>
      </trkpt>
      <trkpt lat="50.5089" lon="2.58156">
        <ele>30</ele>
        <time>2021-06-24T16:00:11Z</time>
        <extensions>
          <gpxtpx:TrackPointExtension xmlns:gpxtpx="http://www.garmin.com/xmlschemas/TrackPointExtension/v1">
            <gpxtpx:hr>116</gpxtpx:hr>
          </gpxtpx:TrackPointExtension>
        </extensions>
      </trkpt>
      <trkpt lat="50.50892" lon="2.58159">
        <ele>30.2</ele>
        <time>2021-06-24T16:00:12Z</time>
        <extensions>
          <gpxtpx:TrackPointExtension xmlns:gpxtpx="http://www.garmin.com/xmlschemas/TrackPointExtension/v1">
            <gpxtpx:hr>117</gpxtpx:hr>
          </gpxtpx:TrackPointExtension>
        </extensions>
      </trkpt>
      <trkpt lat="50.50893" lon="2.58162">
        <ele>30.2</ele>
        <time>2021-06-24T16:00:13Z</time>
        <extensions>
          <gpxtpx:TrackPointExtension xmlns:gpxtpx="http://www.garmin.com/xmlschemas/TrackPointExtension/v1">
            <gpxtpx:hr>118</gpxtpx:hr>
          </gpxtpx:TrackPointExtension>
        </extensions>
      </trkpt>
      <trkpt lat="50.50895" lon="2.58165">
        <ele>30.4</ele>
        <time>2021-06-24T16:00:14Z</time>
        <extensions>
          <gpxtpx:TrackPointExtension xmlns:gpxtpx="http://www.garmin.com/xmlschemas/TrackPointExtension/v1">
            <gpxtpx:hr>118</gpxtpx:hr>
          </gpxtpx:TrackPointExtension>
        </extensions>
      </trkpt>
      <trkpt lat="50.50897" lon="2.58167">
        <ele>30.4</ele>
        <time>2021-06-24T16:00:15Z</time>
        <extensions>
          <gpxtpx:TrackPointExtension xmlns:gpxtpx="http://www.garmin.com/xmlschemas/TrackPointExtension/v1">
            <gpxtpx:hr>120</gpxtpx:hr>
          </gpxtpx:TrackPointExtension>
        </extensions>
      </trkpt>
      <trkpt lat="50.50899" lon="2.5817">
        <ele>30.6</ele>
        <time>2021-06-24T16:00:16Z</time>
        <extensions>
          <gpxtpx:TrackPointExtension xmlns:gpxtpx="http://www.garmin.com/xmlschemas/TrackPointExtension/v1">
            <gpxtpx:hr>121</gpxtpx:hr>
          </gpxtpx:TrackPointExtension>
        </extensions>
      </trkpt>
      <trkpt lat="50.50902" lon="2.58172">
        <ele>30.8</ele>
        <time>2021-06-24T16:00:17Z</time>
        <extensions>
          <gpxtpx:TrackPointExtension xmlns:gpxtpx="http://www.garmin.com/xmlschemas/TrackPointExtension/v1">
            <gpxtpx:hr>122</gpxtpx:hr>
          </gpxtpx:TrackPointExtension>
        </extensions>
      </trkpt>
      <trkpt lat="50.50903" lon="2.58175">
        <ele>31</ele>
        <time>2021-06-24T16:00:18Z</time>
        <extensions>
          <gpxtpx:TrackPointExtension xmlns:gpxtpx="http://www.garmin.com/xmlschemas/TrackPointExtension/v1">
            <gpxtpx:hr>122</gpxtpx:hr>
          </gpxtpx:TrackPointExtension>
        </extensions>
      </trkpt>
      <trkpt lat="50.50905" lon="2.58178">
        <ele>31</ele>
        <time>2021-06-24T16:00:19Z</time>
        <extensions>
          <gpxtpx:TrackPointExtension xmlns:gpxtpx="http://www.garmin.com/xmlschemas/TrackPointExtension/v1">
            <gpxtpx:hr>124</gpxtpx:hr>
          </gpxtpx:TrackPointExtension>
        </extensions>
      </trkpt>
      <trkpt lat="50.50907" lon="2.58181">
        <ele>31</ele>
        <time>2021-06-24T16:00:20Z</time>
        <extensions>
          <gpxtpx:TrackPointExtension xmlns:gpxtpx="http://www.garmin.com/xmlschemas/TrackPointExtension/v1">
            <gpxtpx:hr>125</gpxtpx:hr>
          </gpxtpx:TrackPointExtension>
        </extensions>
      </trkpt>
      <trkpt lat="50.50909" lon="2.58185">
        <ele>31</ele>
        <time>2021-06-24T16:00:21Z</time>
        <extensions>
          <gpxtpx:TrackPointExtension xmlns:gpxtpx="http://www.garmin.com/xmlschemas/TrackPointExtension/v1">
            <gpxtpx:hr>126</gpxtpx:hr>
          </gpxtpx:TrackPointExtension>
        </extensions>
      </trkpt>
      <trkpt lat="50.50913" lon="2.58187">
        <ele>31.2</ele>
        <time>2021-06-24T16:00:22Z</time>
        <extensions>
          <gpxtpx:TrackPointExtension xmlns:gpxtpx="http://www.garmin.com/xmlschemas/TrackPointExtension/v1">
            <gpxtpx:hr>128</gpxtpx:hr>
          </gpxtpx:TrackPointExtension>
        </extensions>
      </trkpt>
      <trkpt lat="50.50917" lon="2.58189">
        <ele>31.2</ele>
        <time>2021-06-24T16:00:23Z</time>
        <extensions>
          <gpxtpx:TrackPointExtension xmlns:gpxtpx="http://www.garmin.com/xmlschemas/TrackPointExtension/v1">
            <gpxtpx:hr>129</gpxtpx:hr>
          </gpxtpx:TrackPointExtension>
        </extensions>
      </trkpt>
      <trkpt lat="50.5092" lon="2.58192">
        <ele>31.4</ele>
        <time>2021-06-24T16:00:24Z</time>
        <extensions>
          <gpxtpx:TrackPointExtension xmlns:gpxtpx="http://www.garmin.com/xmlschemas/TrackPointExtension/v1">
            <gpxtpx:hr>130</gpxtpx:hr>
          </gpxtpx:TrackPointExtension>
        </extensions>
      </trkpt>
      <trkpt lat="50.50924" lon="2.58195">
        <ele>31.4</ele>
        <time>2021-06-24T16:00:25Z</time>
        <extensions>
          <gpxtpx:TrackPointExtension xmlns:gpxtpx="http://www.garmin.com/xmlschemas/TrackPointExtension/v1">
            <gpxtpx:hr>131</gpxtpx:hr>
          </gpxtpx:TrackPointExtension>
        </extensions>
      </trkpt>
      <trkpt lat="50.50926" lon="2.58197">
        <ele>31.4</ele>
        <time>2021-06-24T16:00:26Z</time>
        <extensions>
          <gpxtpx:TrackPointExtension xmlns:gpxtpx="http://www.garmin.com/xmlschemas/TrackPointExtension/v1">
            <gpxtpx:hr>132</gpxtpx:hr>
          </gpxtpx:TrackPointExtension>
        </extensions>
      </trkpt>
      <trkpt lat="50.50929" lon="2.58201">
        <ele>31.6</ele>
        <time>2021-06-24T16:00:27Z</time>
        <extensions>
          <gpxtpx:TrackPointExtension xmlns:gpxtpx="http://www.garmin.com/xmlschemas/TrackPointExtension/v1">
            <gpxtpx:hr>133</gpxtpx:hr>
          </gpxtpx:TrackPointExtension>
        </extensions>
      </trkpt>
      <trkpt lat="50.50931" lon="2.58204">
        <ele>31.6</ele>
        <time>2021-06-24T16:00:28Z</time>
        <extensions>
          <gpxtpx:TrackPointExtension xmlns:gpxtpx="http://www.garmin.com/xmlschemas/TrackPointExtension/v1">
            <gpxtpx:hr>133</gpxtpx:hr>
          </gpxtpx:TrackPointExtension>
        </extensions>
      </trkpt>
      <trkpt lat="50.50934" lon="2.58207">
        <ele>31.6</ele>
        <time>2021-06-24T16:00:29Z</time>
        <extensions>
          <gpxtpx:TrackPointExtension xmlns:gpxtpx="http://www.garmin.com/xmlschemas/TrackPointExtension/v1">
            <gpxtpx:hr>134</gpxtpx:hr>
          </gpxtpx:TrackPointExtension>
        </extensions>
      </trkpt>
      <trkpt lat="50.50937" lon="2.58209">
        <ele>31.6</ele>
        <time>2021-06-24T16:00:30Z</time>
        <extensions>
          <gpxtpx:TrackPointExtension xmlns:gpxtpx="http://www.garmin.com/xmlschemas/TrackPointExtension/v1">
            <gpxtpx:hr>134</gpxtpx:hr>
          </gpxtpx:TrackPointExtension>
        </extensions>
      </trkpt>
      <trkpt lat="50.5094" lon="2.58212">
        <ele>31.8</ele>
        <time>2021-06-24T16:00:31Z</time>
        <extensions>
          <gpxtpx:TrackPointExtension xmlns:gpxtpx="http://www.garmin.com/xmlschemas/TrackPointExtension/v1">
            <gpxtpx:hr>134</gpxtpx:hr>
          </gpxtpx:TrackPointExtension>
        </extensions>
      </trkpt>
      <trkpt lat="50.50943" lon="2.58215">
        <ele>31.8</ele>
        <time>2021-06-24T16:00:32Z</time>
        <extensions>
          <gpxtpx:TrackPointExtension xmlns:gpxtpx="http://www.garmin.com/xmlschemas/TrackPointExtension/v1">
            <gpxtpx:hr>134</gpxtpx:hr>
          </gpxtpx:TrackPointExtension>
        </extensions>
      </trkpt>
      <trkpt lat="50.50947" lon="2.58218">
        <ele>31.8</ele>
        <time>2021-06-24T16:00:33Z</time>
        <extensions>
          <gpxtpx:TrackPointExtension xmlns:gpxtpx="http://www.garmin.com/xmlschemas/TrackPointExtension/v1">
            <gpxtpx:hr>134</gpxtpx:hr>
          </gpxtpx:TrackPointExtension>
        </extensions>
      </trkpt>
      <trkpt lat="50.50949" lon="2.58222">
        <ele>31.8</ele>
        <time>2021-06-24T16:00:34Z</time>
        <extensions>
          <gpxtpx:TrackPointExtension xmlns:gpxtpx="http://www.garmin.com/xmlschemas/TrackPointExtension/v1">
            <gpxtpx:hr>134</gpxtpx:hr>
          </gpxtpx:TrackPointExtension>
        </extensions>
      </trkpt>
      <trkpt lat="50.50953" lon="2.58225">
        <ele>32</ele>
        <time>2021-06-24T16:00:35Z</time>
        <extensions>
          <gpxtpx:TrackPointExtension xmlns:gpxtpx="http://www.garmin.com/xmlschemas/TrackPointExtension/v1">
            <gpxtpx:hr>134</gpxtpx:hr>
          </gpxtpx:TrackPointExtension>
        </extensions>
      </trkpt>
      <trkpt lat="50.50956" lon="2.58229">
        <ele>32</ele>
        <time>2021-06-24T16:00:36Z</time>
        <extensions>
          <gpxtpx:TrackPointExtension xmlns:gpxtpx="http://www.garmin.com/xmlschemas/TrackPointExtension/v1">
            <gpxtpx:hr>134</gpxtpx:hr>
          </gpxtpx:TrackPointExtension>
        </extensions>
      </trkpt>
      <trkpt lat="50.50959" lon="2.58233">
        <ele>32</ele>
        <time>2021-06-24T16:00:37Z</time>
        <extensions>
          <gpxtpx:TrackPointExtension xmlns:gpxtpx="http://www.garmin.com/xmlschemas/TrackPointExtension/v1">
            <gpxtpx:hr>135</gpxtpx:hr>
          </gpxtpx:TrackPointExtension>
        </extensions>
      </trkpt>
      <trkpt lat="50.50962" lon="2.58236">
        <ele>32.2</ele>
        <time>2021-06-24T16:00:38Z</time>
        <extensions>
          <gpxtpx:TrackPointExtension xmlns:gpxtpx="http://www.garmin.com/xmlschemas/TrackPointExtension/v1">
            <gpxtpx:hr>135</gpxtpx:hr>
          </gpxtpx:TrackPointExtension>
        </extensions>
      </trkpt>
      <trkpt lat="50.50967" lon="2.58241">
        <ele>32.2</ele>
        <time>2021-06-24T16:00:39Z</time>
        <extensions>
          <gpxtpx:TrackPointExtension xmlns:gpxtpx="http://www.garmin.com/xmlschemas/TrackPointExtension/v1">
            <gpxtpx:hr>134</gpxtpx:hr>
          </gpxtpx:TrackPointExtension>
        </extensions>
      </trkpt>
      <trkpt lat="50.50971" lon="2.58246">
        <ele>32.2</ele>
        <time>2021-06-24T16:00:40Z</time>
        <extensions>
          <gpxtpx:TrackPointExtension xmlns:gpxtpx="http://www.garmin.com/xmlschemas/TrackPointExtension/v1">
            <gpxtpx:hr>134</gpxtpx:hr>
          </gpxtpx:TrackPointExtension>
        </extensions>
      </trkpt>
      <trkpt lat="50.50975" lon="2.58251">
        <ele>32.2</ele>
        <time>2021-06-24T16:00:41Z</time>
        <extensions>
          <gpxtpx:TrackPointExtension xmlns:gpxtpx="http://www.garmin.com/xmlschemas/TrackPointExtension/v1">
            <gpxtpx:hr>135</gpxtpx:hr>
          </gpxtpx:TrackPointExtension>
        </extensions>
      </trkpt>
      <trkpt lat="50.50979" lon="2.58255">
        <ele>32.4</ele>
        <time>2021-06-24T16:00:42Z</time>
        <extensions>
          <gpxtpx:TrackPointExtension xmlns:gpxtpx="http://www.garmin.com/xmlschemas/TrackPointExtension/v1">
            <gpxtpx:hr>135</gpxtpx:hr>
          </gpxtpx:TrackPointExtension>
        </extensions>
      </trkpt>
      <trkpt lat="50.50983" lon="2.58258">
        <ele>32.4</ele>
        <time>2021-06-24T16:00:43Z</time>
        <extensions>
          <gpxtpx:TrackPointExtension xmlns:gpxtpx="http://www.garmin.com/xmlschemas/TrackPointExtension/v1">
            <gpxtpx:hr>135</gpxtpx:hr>
          </gpxtpx:TrackPointExtension>
        </extensions>
      </trkpt>
      <trkpt lat="50.50986" lon="2.58265">
        <ele>32.4</ele>
        <time>2021-06-24T16:00:44Z</time>
        <extensions>
          <gpxtpx:TrackPointExtension xmlns:gpxtpx="http://www.garmin.com/xmlschemas/TrackPointExtension/v1">
            <gpxtpx:hr>135</gpxtpx:hr>
          </gpxtpx:TrackPointExtension>
        </extensions>
      </trkpt>
      <trkpt lat="50.50991" lon="2.58271">
        <ele>32.4</ele>
        <time>2021-06-24T16:00:45Z</time>
        <extensions>
          <gpxtpx:TrackPointExtension xmlns:gpxtpx="http://www.garmin.com/xmlschemas/TrackPointExtension/v1">
            <gpxtpx:hr>135</gpxtpx:hr>
          </gpxtpx:TrackPointExtension>
        </extensions>
      </trkpt>
      <trkpt lat="50.50996" lon="2.58276">
        <ele>32.6</ele>
        <time>2021-06-24T16:00:46Z</time>
        <extensions>
          <gpxtpx:TrackPointExtension xmlns:gpxtpx="http://www.garmin.com/xmlschemas/TrackPointExtension/v1">
            <gpxtpx:hr>136</gpxtpx:hr>
          </gpxtpx:TrackPointExtension>
        </extensions>
      </trkpt>
      <trkpt lat="50.51001" lon="2.58281">
        <ele>32.6</ele>
        <time>2021-06-24T16:00:47Z</time>
        <extensions>
          <gpxtpx:TrackPointExtension xmlns:gpxtpx="http://www.garmin.com/xmlschemas/TrackPointExtension/v1">
            <gpxtpx:hr>136</gpxtpx:hr>
          </gpxtpx:TrackPointExtension>
        </extensions>
      </trkpt>
      <trkpt lat="50.51005" lon="2.58287">
        <ele>32.6</ele>
        <time>2021-06-24T16:00:48Z</time>
        <extensions>
          <gpxtpx:TrackPointExtension xmlns:gpxtpx="http://www.garmin.com/xmlschemas/TrackPointExtension/v1">
            <gpxtpx:hr>136</gpxtpx:hr>
          </gpxtpx:TrackPointExtension>
        </extensions>
      </trkpt>
      <trkpt lat="50.51009" lon="2.58292">
        <ele>32.6</ele>
        <time>2021-06-24T16:00:49Z</time>
        <extensions>
          <gpxtpx:TrackPointExtension xmlns:gpxtpx="http://www.garmin.com/xmlschemas/TrackPointExtension/v1">
            <gpxtpx:hr>136</gpxtpx:hr>
          </gpxtpx:TrackPointExtension>
        </extensions>
      </trkpt>
      <trkpt lat="50.51014" lon="2.58297">
        <ele>32.6</ele>
        <time>2021-06-24T16:00:50Z</time>
        <extensions>
          <gpxtpx:TrackPointExtension xmlns:gpxtpx="http://www.garmin.com/xmlschemas/TrackPointExtension/v1">
            <gpxtpx:hr>136</gpxtpx:hr>
          </gpxtpx:TrackPointExtension>
        </extensions>
      </trkpt>
      <trkpt lat="50.51019" lon="2.58302">
        <ele>32.8</ele>
        <time>2021-06-24T16:00:51Z</time>
        <extensions>
          <gpxtpx:TrackPointExtension xmlns:gpxtpx="http://www.garmin.com/xmlschemas/TrackPointExtension/v1">
            <gpxtpx:hr>136</gpxtpx:hr>
          </gpxtpx:TrackPointExtension>
        </extensions>
      </trkpt>
      <trkpt lat="50.51023" lon="2.58306">
        <ele>32.8</ele>
        <time>2021-06-24T16:00:52Z</time>
        <extensions>
          <gpxtpx:TrackPointExtension xmlns:gpxtpx="http://www.garmin.com/xmlschemas/TrackPointExtension/v1">
            <gpxtpx:hr>136</gpxtpx:hr>
          </gpxtpx:TrackPointExtension>
        </extensions>
      </trkpt>
      <trkpt lat="50.51028" lon="2.58311">
        <ele>32.8</ele>
        <time>2021-06-24T16:00:53Z</time>
        <extensions>
          <gpxtpx:TrackPointExtension xmlns:gpxtpx="http://www.garmin.com/xmlschemas/TrackPointExtension/v1">
            <gpxtpx:hr>137</gpxtpx:hr>
          </gpxtpx:TrackPointExtension>
        </extensions>
      </trkpt>
      <trkpt lat="50.51032" lon="2.58316">
        <ele>33</ele>
        <time>2021-06-24T16:00:54Z</time>
        <extensions>
          <gpxtpx:TrackPointExtension xmlns:gpxtpx="http://www.garmin.com/xmlschemas/TrackPointExtension/v1">
            <gpxtpx:hr>137</gpxtpx:hr>
          </gpxtpx:TrackPointExtension>
        </extensions>
      </trkpt>
      <trkpt lat="50.51036" lon="2.5832">
        <ele>33</ele>
        <time>2021-06-24T16:00:55Z</time>
        <extensions>
          <gpxtpx:TrackPointExtension xmlns:gpxtpx="http://www.garmin.com/xmlschemas/TrackPointExtension/v1">
            <gpxtpx:hr>137</gpxtpx:hr>
          </gpxtpx:TrackPointExtension>
        </extensions>
      </trkpt>
      <trkpt lat="50.51041" lon="2.58325">
        <ele>33</ele>
        <time>2021-06-24T16:00:56Z</time>
        <extensions>
          <gpxtpx:TrackPointExtension xmlns:gpxtpx="http://www.garmin.com/xmlschemas/TrackPointExtension/v1">
            <gpxtpx:hr>137</gpxtpx:hr>
          </gpxtpx:TrackPointExtension>
        </extensions>
      </trkpt>
      <trkpt lat="50.51045" lon="2.58329">
        <ele>33</ele>
        <time>2021-06-24T16:00:57Z</time>
        <extensions>
          <gpxtpx:TrackPointExtension xmlns:gpxtpx="http://www.garmin.com/xmlschemas/TrackPointExtension/v1">
            <gpxtpx:hr>137</gpxtpx:hr>
          </gpxtpx:TrackPointExtension>
        </extensions>
      </trkpt>
      <trkpt lat="50.51049" lon="2.58335">
        <ele>33</ele>
        <time>2021-06-24T16:00:58Z</time>
        <extensions>
          <gpxtpx:TrackPointExtension xmlns:gpxtpx="http://www.garmin.com/xmlschemas/TrackPointExtension/v1">
            <gpxtpx:hr>137</gpxtpx:hr>
          </gpxtpx:TrackPointExtension>
        </extensions>
      </trkpt>
      <trkpt lat="50.51054" lon="2.58341">
        <ele>33</ele>
        <time>2021-06-24T16:00:59Z</time>
        <extensions>
          <gpxtpx:TrackPointExtension xmlns:gpxtpx="http://www.garmin.com/xmlschemas/TrackPointExtension/v1">
            <gpxtpx:hr>137</gpxtpx:hr>
          </gpxtpx:TrackPointExtension>
        </extensions>
      </trkpt>
      <trkpt lat="50.51057" lon="2.58346">
        <ele>33</ele>
        <time>2021-06-24T16:01:00Z</time>
        <extensions>
          <gpxtpx:TrackPointExtension xmlns:gpxtpx="http://www.garmin.com/xmlschemas/TrackPointExtension/v1">
            <gpxtpx:hr>137</gpxtpx:hr>
          </gpxtpx:TrackPointExtension>
        </extensions>
      </trkpt>
      <trkpt lat="50.51062" lon="2.58352">
        <ele>33</ele>
        <time>2021-06-24T16:01:01Z</time>
        <extensions>
          <gpxtpx:TrackPointExtension xmlns:gpxtpx="http://www.garmin.com/xmlschemas/TrackPointExtension/v1">
            <gpxtpx:hr>137</gpxtpx:hr>
          </gpxtpx:TrackPointExtension>
        </extensions>
      </trkpt>
      <trkpt lat="50.51066" lon="2.58357">
        <ele>33</ele>
        <time>2021-06-24T16:01:02Z</time>
        <extensions>
          <gpxtpx:TrackPointExtension xmlns:gpxtpx="http://www.garmin.com/xmlschemas/TrackPointExtension/v1">
            <gpxtpx:hr>137</gpxtpx:hr>
          </gpxtpx:TrackPointExtension>
        </extensions>
      </trkpt>
      <trkpt lat="50.5107" lon="2.58362">
        <ele>33</ele>
        <time>2021-06-24T16:01:03Z</time>
        <extensions>
          <gpxtpx:TrackPointExtension xmlns:gpxtpx="http://www.garmin.com/xmlschemas/TrackPointExtension/v1">
            <gpxtpx:hr>136</gpxtpx:hr>
          </gpxtpx:TrackPointExtension>
        </extensions>
      </trkpt>
      <trkpt lat="50.51075" lon="2.58368">
        <ele>33</ele>
        <time>2021-06-24T16:01:04Z</time>
        <extensions>
          <gpxtpx:TrackPointExtension xmlns:gpxtpx="http://www.garmin.com/xmlschemas/TrackPointExtension/v1">
            <gpxtpx:hr>136</gpxtpx:hr>
          </gpxtpx:TrackPointExtension>
        </extensions>
      </trkpt>
      <trkpt lat="50.5108" lon="2.58374">
        <ele>33</ele>
        <time>2021-06-24T16:01:05Z</time>
        <extensions>
          <gpxtpx:TrackPointExtension xmlns:gpxtpx="http://www.garmin.com/xmlschemas/TrackPointExtension/v1">
            <gpxtpx:hr>136</gpxtpx:hr>
          </gpxtpx:TrackPointExtension>
        </extensions>
      </trkpt>
      <trkpt lat="50.51084" lon="2.5838">
        <ele>33</ele>
        <time>2021-06-24T16:01:06Z</time>
        <extensions>
          <gpxtpx:TrackPointExtension xmlns:gpxtpx="http://www.garmin.com/xmlschemas/TrackPointExtension/v1">
            <gpxtpx:hr>135</gpxtpx:hr>
          </gpxtpx:TrackPointExtension>
        </extensions>
      </trkpt>
      <trkpt lat="50.51088" lon="2.58386">
        <ele>32.8</ele>
        <time>2021-06-24T16:01:07Z</time>
        <extensions>
          <gpxtpx:TrackPointExtension xmlns:gpxtpx="http://www.garmin.com/xmlschemas/TrackPointExtension/v1">
            <gpxtpx:hr>135</gpxtpx:hr>
          </gpxtpx:TrackPointExtension>
        </extensions>
      </trkpt>
      <trkpt lat="50.51092" lon="2.5839">
        <ele>32.8</ele>
        <time>2021-06-24T16:01:08Z</time>
        <extensions>
          <gpxtpx:TrackPointExtension xmlns:gpxtpx="http://www.garmin.com/xmlschemas/TrackPointExtension/v1">
            <gpxtpx:hr>135</gpxtpx:hr>
          </gpxtpx:TrackPointExtension>
        </extensions>
      </trkpt>
      <trkpt lat="50.51097" lon="2.58396">
        <ele>32.8</ele>
        <time>2021-06-24T16:01:09Z</time>
        <extensions>
          <gpxtpx:TrackPointExtension xmlns:gpxtpx="http://www.garmin.com/xmlschemas/TrackPointExtension/v1">
            <gpxtpx:hr>134</gpxtpx:hr>
          </gpxtpx:TrackPointExtension>
        </extensions>
      </trkpt>
      <trkpt lat="50.51101" lon="2.58401">
        <ele>32.8</ele>
        <time>2021-06-24T16:01:10Z</time>
        <extensions>
          <gpxtpx:TrackPointExtension xmlns:gpxtpx="http://www.garmin.com/xmlschemas/TrackPointExtension/v1">
            <gpxtpx:hr>134</gpxtpx:hr>
          </gpxtpx:TrackPointExtension>
        </extensions>
      </trkpt>
      <trkpt lat="50.51106" lon="2.58407">
        <ele>32.8</ele>
        <time>2021-06-24T16:01:11Z</time>
        <extensions>
          <gpxtpx:TrackPointExtension xmlns:gpxtpx="http://www.garmin.com/xmlschemas/TrackPointExtension/v1">
            <gpxtpx:hr>133</gpxtpx:hr>
          </gpxtpx:TrackPointExtension>
        </extensions>
      </trkpt>
      <trkpt lat="50.5111" lon="2.58412">
        <ele>32.8</ele>
        <time>2021-06-24T16:01:12Z</time>
        <extensions>
          <gpxtpx:TrackPointExtension xmlns:gpxtpx="http://www.garmin.com/xmlschemas/TrackPointExtension/v1">
            <gpxtpx:hr>133</gpxtpx:hr>
          </gpxtpx:TrackPointExtension>
        </extensions>
      </trkpt>
      <trkpt lat="50.51114" lon="2.58418">
        <ele>32.6</ele>
        <time>2021-06-24T16:01:13Z</time>
        <extensions>
          <gpxtpx:TrackPointExtension xmlns:gpxtpx="http://www.garmin.com/xmlschemas/TrackPointExtension/v1">
            <gpxtpx:hr>133</gpxtpx:hr>
          </gpxtpx:TrackPointExtension>
        </extensions>
      </trkpt>
      <trkpt lat="50.51118" lon="2.58423">
        <ele>32.6</ele>
        <time>2021-06-24T16:01:14Z</time>
        <extensions>
          <gpxtpx:TrackPointExtension xmlns:gpxtpx="http://www.garmin.com/xmlschemas/TrackPointExtension/v1">
            <gpxtpx:hr>133</gpxtpx:hr>
          </gpxtpx:TrackPointExtension>
        </extensions>
      </trkpt>
      <trkpt lat="50.51122" lon="2.58429">
        <ele>32.6</ele>
        <time>2021-06-24T16:01:15Z</time>
        <extensions>
          <gpxtpx:TrackPointExtension xmlns:gpxtpx="http://www.garmin.com/xmlschemas/TrackPointExtension/v1">
            <gpxtpx:hr>133</gpxtpx:hr>
          </gpxtpx:TrackPointExtension>
        </extensions>
      </trkpt>
      <trkpt lat="50.51125" lon="2.58435">
        <ele>32.4</ele>
        <time>2021-06-24T16:01:16Z</time>
        <extensions>
          <gpxtpx:TrackPointExtension xmlns:gpxtpx="http://www.garmin.com/xmlschemas/TrackPointExtension/v1">
            <gpxtpx:hr>133</gpxtpx:hr>
          </gpxtpx:TrackPointExtension>
        </extensions>
      </trkpt>
      <trkpt lat="50.5113" lon="2.5844">
        <ele>32.4</ele>
        <time>2021-06-24T16:01:17Z</time>
        <extensions>
          <gpxtpx:TrackPointExtension xmlns:gpxtpx="http://www.garmin.com/xmlschemas/TrackPointExtension/v1">
            <gpxtpx:hr>133</gpxtpx:hr>
          </gpxtpx:TrackPointExtension>
        </extensions>
      </trkpt>
      <trkpt lat="50.51134" lon="2.58445">
        <ele>32.4</ele>
        <time>2021-06-24T16:01:18Z</time>
        <extensions>
          <gpxtpx:TrackPointExtension xmlns:gpxtpx="http://www.garmin.com/xmlschemas/TrackPointExtension/v1">
            <gpxtpx:hr>133</gpxtpx:hr>
          </gpxtpx:TrackPointExtension>
        </extensions>
      </trkpt>
      <trkpt lat="50.51138" lon="2.58451">
        <ele>32.4</ele>
        <time>2021-06-24T16:01:19Z</time>
        <extensions>
          <gpxtpx:TrackPointExtension xmlns:gpxtpx="http://www.garmin.com/xmlschemas/TrackPointExtension/v1">
            <gpxtpx:hr>133</gpxtpx:hr>
          </gpxtpx:TrackPointExtension>
        </extensions>
      </trkpt>
      <trkpt lat="50.51142" lon="2.58456">
        <ele>32.4</ele>
        <time>2021-06-24T16:01:20Z</time>
        <extensions>
          <gpxtpx:TrackPointExtension xmlns:gpxtpx="http://www.garmin.com/xmlschemas/TrackPointExtension/v1">
            <gpxtpx:hr>133</gpxtpx:hr>
          </gpxtpx:TrackPointExtension>
        </extensions>
      </trkpt>
      <trkpt lat="50.51146" lon="2.58462">
        <ele>32.4</ele>
        <time>2021-06-24T16:01:21Z</time>
        <extensions>
          <gpxtpx:TrackPointExtension xmlns:gpxtpx="http://www.garmin.com/xmlschemas/TrackPointExtension/v1">
            <gpxtpx:hr>133</gpxtpx:hr>
          </gpxtpx:TrackPointExtension>
        </extensions>
      </trkpt>
      <trkpt lat="50.51151" lon="2.58468">
        <ele>32.4</ele>
        <time>2021-06-24T16:01:22Z</time>
        <extensions>
          <gpxtpx:TrackPointExtension xmlns:gpxtpx="http://www.garmin.com/xmlschemas/TrackPointExtension/v1">
            <gpxtpx:hr>133</gpxtpx:hr>
          </gpxtpx:TrackPointExtension>
        </extensions>
      </trkpt>
      <trkpt lat="50.51155" lon="2.58473">
        <ele>32.4</ele>
        <time>2021-06-24T16:01:23Z</time>
        <extensions>
          <gpxtpx:TrackPointExtension xmlns:gpxtpx="http://www.garmin.com/xmlschemas/TrackPointExtension/v1">
            <gpxtpx:hr>133</gpxtpx:hr>
          </gpxtpx:TrackPointExtension>
        </extensions>
      </trkpt>
      <trkpt lat="50.51158" lon="2.58479">
        <ele>32.2</ele>
        <time>2021-06-24T16:01:24Z</time>
        <extensions>
          <gpxtpx:TrackPointExtension xmlns:gpxtpx="http://www.garmin.com/xmlschemas/TrackPointExtension/v1">
            <gpxtpx:hr>133</gpxtpx:hr>
          </gpxtpx:TrackPointExtension>
        </extensions>
      </trkpt>
      <trkpt lat="50.51162" lon="2.58485">
        <ele>32.2</ele>
        <time>2021-06-24T16:01:25Z</time>
        <extensions>
          <gpxtpx:TrackPointExtension xmlns:gpxtpx="http://www.garmin.com/xmlschemas/TrackPointExtension/v1">
            <gpxtpx:hr>133</gpxtpx:hr>
          </gpxtpx:TrackPointExtension>
        </extensions>
      </trkpt>
      <trkpt lat="50.51166" lon="2.58491">
        <ele>32.2</ele>
        <time>2021-06-24T16:01:26Z</time>
        <extensions>
          <gpxtpx:TrackPointExtension xmlns:gpxtpx="http://www.garmin.com/xmlschemas/TrackPointExtension/v1">
            <gpxtpx:hr>133</gpxtpx:hr>
          </gpxtpx:TrackPointExtension>
        </extensions>
      </trkpt>
      <trkpt lat="50.51171" lon="2.58497">
        <ele>32.2</ele>
        <time>2021-06-24T16:01:27Z</time>
        <extensions>
          <gpxtpx:TrackPointExtension xmlns:gpxtpx="http://www.garmin.com/xmlschemas/TrackPointExtension/v1">
            <gpxtpx:hr>133</gpxtpx:hr>
          </gpxtpx:TrackPointExtension>
        </extensions>
      </trkpt>
      <trkpt lat="50.51175" lon="2.58503">
        <ele>32.2</ele>
        <time>2021-06-24T16:01:28Z</time>
        <extensions>
          <gpxtpx:TrackPointExtension xmlns:gpxtpx="http://www.garmin.com/xmlschemas/TrackPointExtension/v1">
            <gpxtpx:hr>133</gpxtpx:hr>
          </gpxtpx:TrackPointExtension>
        </extensions>
      </trkpt>
      <trkpt lat="50.51179" lon="2.5851">
        <ele>32.2</ele>
        <time>2021-06-24T16:01:29Z</time>
        <extensions>
          <gpxtpx:TrackPointExtension xmlns:gpxtpx="http://www.garmin.com/xmlschemas/TrackPointExtension/v1">
            <gpxtpx:hr>133</gpxtpx:hr>
          </gpxtpx:TrackPointExtension>
        </extensions>
      </trkpt>
      <trkpt lat="50.51183" lon="2.58515">
        <ele>32.4</ele>
        <time>2021-06-24T16:01:30Z</time>
        <extensions>
          <gpxtpx:TrackPointExtension xmlns:gpxtpx="http://www.garmin.com/xmlschemas/TrackPointExtension/v1">
            <gpxtpx:hr>134</gpxtpx:hr>
          </gpxtpx:TrackPointExtension>
        </extensions>
      </trkpt>
      <trkpt lat="50.51188" lon="2.58521">
        <ele>32.4</ele>
        <time>2021-06-24T16:01:31Z</time>
        <extensions>
          <gpxtpx:TrackPointExtension xmlns:gpxtpx="http://www.garmin.com/xmlschemas/TrackPointExtension/v1">
            <gpxtpx:hr>134</gpxtpx:hr>
          </gpxtpx:TrackPointExtension>
        </extensions>
      </trkpt>
      <trkpt lat="50.51192" lon="2.58527">
        <ele>32.4</ele>
        <time>2021-06-24T16:01:32Z</time>
        <extensions>
          <gpxtpx:TrackPointExtension xmlns:gpxtpx="http://www.garmin.com/xmlschemas/TrackPointExtension/v1">
            <gpxtpx:hr>134</gpxtpx:hr>
          </gpxtpx:TrackPointExtension>
        </extensions>
      </trkpt>
      <trkpt lat="50.51196" lon="2.58533">
        <ele>32.6</ele>
        <time>2021-06-24T16:01:33Z</time>
        <extensions>
          <gpxtpx:TrackPointExtension xmlns:gpxtpx="http://www.garmin.com/xmlschemas/TrackPointExtension/v1">
            <gpxtpx:hr>134</gpxtpx:hr>
          </gpxtpx:TrackPointExtension>
        </extensions>
      </trkpt>
      <trkpt lat="50.51201" lon="2.5854">
        <ele>32.6</ele>
        <time>2021-06-24T16:01:34Z</time>
        <extensions>
          <gpxtpx:TrackPointExtension xmlns:gpxtpx="http://www.garmin.com/xmlschemas/TrackPointExtension/v1">
            <gpxtpx:hr>135</gpxtpx:hr>
          </gpxtpx:TrackPointExtension>
        </extensions>
      </trkpt>
      <trkpt lat="50.51205" lon="2.58547">
        <ele>32.6</ele>
        <time>2021-06-24T16:01:35Z</time>
        <extensions>
          <gpxtpx:TrackPointExtension xmlns:gpxtpx="http://www.garmin.com/xmlschemas/TrackPointExtension/v1">
            <gpxtpx:hr>135</gpxtpx:hr>
          </gpxtpx:TrackPointExtension>
        </extensions>
      </trkpt>
      <trkpt lat="50.51209" lon="2.58553">
        <ele>32.6</ele>
        <time>2021-06-24T16:01:36Z</time>
        <extensions>
          <gpxtpx:TrackPointExtension xmlns:gpxtpx="http://www.garmin.com/xmlschemas/TrackPointExtension/v1">
            <gpxtpx:hr>135</gpxtpx:hr>
          </gpxtpx:TrackPointExtension>
        </extensions>
      </trkpt>
      <trkpt lat="50.51213" lon="2.5856">
        <ele>32.6</ele>
        <time>2021-06-24T16:01:37Z</time>
        <extensions>
          <gpxtpx:TrackPointExtension xmlns:gpxtpx="http://www.garmin.com/xmlschemas/TrackPointExtension/v1">
            <gpxtpx:hr>135</gpxtpx:hr>
          </gpxtpx:TrackPointExtension>
        </extensions>
      </trkpt>
      <trkpt lat="50.51217" lon="2.58566">
        <ele>32.6</ele>
        <time>2021-06-24T16:01:38Z</time>
        <extensions>
          <gpxtpx:TrackPointExtension xmlns:gpxtpx="http://www.garmin.com/xmlschemas/TrackPointExtension/v1">
            <gpxtpx:hr>135</gpxtpx:hr>
          </gpxtpx:TrackPointExtension>
        </extensions>
      </trkpt>
      <trkpt lat="50.5122" lon="2.58573">
        <ele>32.6</ele>
        <time>2021-06-24T16:01:39Z</time>
        <extensions>
          <gpxtpx:TrackPointExtension xmlns:gpxtpx="http://www.garmin.com/xmlschemas/TrackPointExtension/v1">
            <gpxtpx:hr>135</gpxtpx:hr>
          </gpxtpx:TrackPointExtension>
        </extensions>
      </trkpt>
      <trkpt lat="50.51223" lon="2.58579">
        <ele>32.6</ele>
        <time>2021-06-24T16:01:40Z</time>
        <extensions>
          <gpxtpx:TrackPointExtension xmlns:gpxtpx="http://www.garmin.com/xmlschemas/TrackPointExtension/v1">
            <gpxtpx:hr>135</gpxtpx:hr>
          </gpxtpx:TrackPointExtension>
        </extensions>
      </trkpt>
      <trkpt lat="50.51227" lon="2.58586">
        <ele>32.6</ele>
        <time>2021-06-24T16:01:41Z</time>
        <extensions>
          <gpxtpx:TrackPointExtension xmlns:gpxtpx="http://www.garmin.com/xmlschemas/TrackPointExtension/v1">
            <gpxtpx:hr>135</gpxtpx:hr>
          </gpxtpx:TrackPointExtension>
        </extensions>
      </trkpt>
      <trkpt lat="50.5123" lon="2.58592">
        <ele>32.6</ele>
        <time>2021-06-24T16:01:42Z</time>
        <extensions>
          <gpxtpx:TrackPointExtension xmlns:gpxtpx="http://www.garmin.com/xmlschemas/TrackPointExtension/v1">
            <gpxtpx:hr>135</gpxtpx:hr>
          </gpxtpx:TrackPointExtension>
        </extensions>
      </trkpt>
      <trkpt lat="50.51235" lon="2.58597">
        <ele>32.4</ele>
        <time>2021-06-24T16:01:43Z</time>
        <extensions>
          <gpxtpx:TrackPointExtension xmlns:gpxtpx="http://www.garmin.com/xmlschemas/TrackPointExtension/v1">
            <gpxtpx:hr>135</gpxtpx:hr>
          </gpxtpx:TrackPointExtension>
        </extensions>
      </trkpt>
      <trkpt lat="50.51239" lon="2.58603">
        <ele>32.4</ele>
        <time>2021-06-24T16:01:44Z</time>
        <extensions>
          <gpxtpx:TrackPointExtension xmlns:gpxtpx="http://www.garmin.com/xmlschemas/TrackPointExtension/v1">
            <gpxtpx:hr>135</gpxtpx:hr>
          </gpxtpx:TrackPointExtension>
        </extensions>
      </trkpt>
      <trkpt lat="50.51243" lon="2.58609">
        <ele>32.4</ele>
        <time>2021-06-24T16:01:45Z</time>
        <extensions>
          <gpxtpx:TrackPointExtension xmlns:gpxtpx="http://www.garmin.com/xmlschemas/TrackPointExtension/v1">
            <gpxtpx:hr>135</gpxtpx:hr>
          </gpxtpx:TrackPointExtension>
        </extensions>
      </trkpt>
      <trkpt lat="50.51246" lon="2.58615">
        <ele>32.4</ele>
        <time>2021-06-24T16:01:46Z</time>
        <extensions>
          <gpxtpx:TrackPointExtension xmlns:gpxtpx="http://www.garmin.com/xmlschemas/TrackPointExtension/v1">
            <gpxtpx:hr>135</gpxtpx:hr>
          </gpxtpx:TrackPointExtension>
        </extensions>
      </trkpt>
      <trkpt lat="50.51251" lon="2.5862">
        <ele>32.4</ele>
        <time>2021-06-24T16:01:47Z</time>
        <extensions>
          <gpxtpx:TrackPointExtension xmlns:gpxtpx="http://www.garmin.com/xmlschemas/TrackPointExtension/v1">
            <gpxtpx:hr>135</gpxtpx:hr>
          </gpxtpx:TrackPointExtension>
        </extensions>
      </trkpt>
      <trkpt lat="50.51253" lon="2.58626">
        <ele>32.4</ele>
        <time>2021-06-24T16:01:48Z</time>
        <extensions>
          <gpxtpx:TrackPointExtension xmlns:gpxtpx="http://www.garmin.com/xmlschemas/TrackPointExtension/v1">
            <gpxtpx:hr>135</gpxtpx:hr>
          </gpxtpx:TrackPointExtension>
        </extensions>
      </trkpt>
      <trkpt lat="50.51257" lon="2.58631">
        <ele>32.4</ele>
        <time>2021-06-24T16:01:49Z</time>
        <extensions>
          <gpxtpx:TrackPointExtension xmlns:gpxtpx="http://www.garmin.com/xmlschemas/TrackPointExtension/v1">
            <gpxtpx:hr>135</gpxtpx:hr>
          </gpxtpx:TrackPointExtension>
        </extensions>
      </trkpt>
      <trkpt lat="50.5126" lon="2.58637">
        <ele>32.4</ele>
        <time>2021-06-24T16:01:50Z</time>
        <extensions>
          <gpxtpx:TrackPointExtension xmlns:gpxtpx="http://www.garmin.com/xmlschemas/TrackPointExtension/v1">
            <gpxtpx:hr>135</gpxtpx:hr>
          </gpxtpx:TrackPointExtension>
        </extensions>
      </trkpt>
      <trkpt lat="50.51264" lon="2.58642">
        <ele>32.4</ele>
        <time>2021-06-24T16:01:51Z</time>
        <extensions>
          <gpxtpx:TrackPointExtension xmlns:gpxtpx="http://www.garmin.com/xmlschemas/TrackPointExtension/v1">
            <gpxtpx:hr>135</gpxtpx:hr>
          </gpxtpx:TrackPointExtension>
        </extensions>
      </trkpt>
      <trkpt lat="50.51268" lon="2.58647">
        <ele>32.4</ele>
        <time>2021-06-24T16:01:52Z</time>
        <extensions>
          <gpxtpx:TrackPointExtension xmlns:gpxtpx="http://www.garmin.com/xmlschemas/TrackPointExtension/v1">
            <gpxtpx:hr>134</gpxtpx:hr>
          </gpxtpx:TrackPointExtension>
        </extensions>
      </trkpt>
      <trkpt lat="50.51272" lon="2.58654">
        <ele>32.4</ele>
        <time>2021-06-24T16:01:53Z</time>
        <extensions>
          <gpxtpx:TrackPointExtension xmlns:gpxtpx="http://www.garmin.com/xmlschemas/TrackPointExtension/v1">
            <gpxtpx:hr>134</gpxtpx:hr>
          </gpxtpx:TrackPointExtension>
        </extensions>
      </trkpt>
      <trkpt lat="50.51276" lon="2.58661">
        <ele>32.2</ele>
        <time>2021-06-24T16:01:54Z</time>
        <extensions>
          <gpxtpx:TrackPointExtension xmlns:gpxtpx="http://www.garmin.com/xmlschemas/TrackPointExtension/v1">
            <gpxtpx:hr>134</gpxtpx:hr>
          </gpxtpx:TrackPointExtension>
        </extensions>
      </trkpt>
      <trkpt lat="50.51279" lon="2.58667">
        <ele>32.2</ele>
        <time>2021-06-24T16:01:55Z</time>
        <extensions>
          <gpxtpx:TrackPointExtension xmlns:gpxtpx="http://www.garmin.com/xmlschemas/TrackPointExtension/v1">
            <gpxtpx:hr>134</gpxtpx:hr>
          </gpxtpx:TrackPointExtension>
        </extensions>
      </trkpt>
      <trkpt lat="50.51284" lon="2.58672">
        <ele>32.2</ele>
        <time>2021-06-24T16:01:56Z</time>
        <extensions>
          <gpxtpx:TrackPointExtension xmlns:gpxtpx="http://www.garmin.com/xmlschemas/TrackPointExtension/v1">
            <gpxtpx:hr>134</gpxtpx:hr>
          </gpxtpx:TrackPointExtension>
        </extensions>
      </trkpt>
      <trkpt lat="50.51288" lon="2.58678">
        <ele>32.2</ele>
        <time>2021-06-24T16:01:57Z</time>
        <extensions>
          <gpxtpx:TrackPointExtension xmlns:gpxtpx="http://www.garmin.com/xmlschemas/TrackPointExtension/v1">
            <gpxtpx:hr>133</gpxtpx:hr>
          </gpxtpx:TrackPointExtension>
        </extensions>
      </trkpt>
      <trkpt lat="50.51292" lon="2.58683">
        <ele>32.2</ele>
        <time>2021-06-24T16:01:58Z</time>
        <extensions>
          <gpxtpx:TrackPointExtension xmlns:gpxtpx="http://www.garmin.com/xmlschemas/TrackPointExtension/v1">
            <gpxtpx:hr>133</gpxtpx:hr>
          </gpxtpx:TrackPointExtension>
        </extensions>
      </trkpt>
      <trkpt lat="50.51296" lon="2.5869">
        <ele>32.2</ele>
        <time>2021-06-24T16:01:59Z</time>
        <extensions>
          <gpxtpx:TrackPointExtension xmlns:gpxtpx="http://www.garmin.com/xmlschemas/TrackPointExtension/v1">
            <gpxtpx:hr>133</gpxtpx:hr>
          </gpxtpx:TrackPointExtension>
        </extensions>
      </trkpt>
      <trkpt lat="50.513" lon="2.58695">
        <ele>32.2</ele>
        <time>2021-06-24T16:02:00Z</time>
        <extensions>
          <gpxtpx:TrackPointExtension xmlns:gpxtpx="http://www.garmin.com/xmlschemas/TrackPointExtension/v1">
            <gpxtpx:hr>133</gpxtpx:hr>
          </gpxtpx:TrackPointExtension>
        </extensions>
      </trkpt>
      <trkpt lat="50.51304" lon="2.58702">
        <ele>32.2</ele>
        <time>2021-06-24T16:02:01Z</time>
        <extensions>
          <gpxtpx:TrackPointExtension xmlns:gpxtpx="http://www.garmin.com/xmlschemas/TrackPointExtension/v1">
            <gpxtpx:hr>133</gpxtpx:hr>
          </gpxtpx:TrackPointExtension>
        </extensions>
      </trkpt>
      <trkpt lat="50.51308" lon="2.58708">
        <ele>32.2</ele>
        <time>2021-06-24T16:02:02Z</time>
        <extensions>
          <gpxtpx:TrackPointExtension xmlns:gpxtpx="http://www.garmin.com/xmlschemas/TrackPointExtension/v1">
            <gpxtpx:hr>133</gpxtpx:hr>
          </gpxtpx:TrackPointExtension>
        </extensions>
      </trkpt>
      <trkpt lat="50.51313" lon="2.58713">
        <ele>32.2</ele>
        <time>2021-06-24T16:02:03Z</time>
        <extensions>
          <gpxtpx:TrackPointExtension xmlns:gpxtpx="http://www.garmin.com/xmlschemas/TrackPointExtension/v1">
            <gpxtpx:hr>133</gpxtpx:hr>
          </gpxtpx:TrackPointExtension>
        </extensions>
      </trkpt>
      <trkpt lat="50.51316" lon="2.58719">
        <ele>32.2</ele>
        <time>2021-06-24T16:02:04Z</time>
        <extensions>
          <gpxtpx:TrackPointExtension xmlns:gpxtpx="http://www.garmin.com/xmlschemas/TrackPointExtension/v1">
            <gpxtpx:hr>133</gpxtpx:hr>
          </gpxtpx:TrackPointExtension>
        </extensions>
      </trkpt>
      <trkpt lat="50.51319" lon="2.58725">
        <ele>32.2</ele>
        <time>2021-06-24T16:02:05Z</time>
        <extensions>
          <gpxtpx:TrackPointExtension xmlns:gpxtpx="http://www.garmin.com/xmlschemas/TrackPointExtension/v1">
            <gpxtpx:hr>133</gpxtpx:hr>
          </gpxtpx:TrackPointExtension>
        </extensions>
      </trkpt>
      <trkpt lat="50.51321" lon="2.58731">
        <ele>32.2</ele>
        <time>2021-06-24T16:02:06Z</time>
        <extensions>
          <gpxtpx:TrackPointExtension xmlns:gpxtpx="http://www.garmin.com/xmlschemas/TrackPointExtension/v1">
            <gpxtpx:hr>133</gpxtpx:hr>
          </gpxtpx:TrackPointExtension>
        </extensions>
      </trkpt>
      <trkpt lat="50.51325" lon="2.58736">
        <ele>32.2</ele>
        <time>2021-06-24T16:02:07Z</time>
        <extensions>
          <gpxtpx:TrackPointExtension xmlns:gpxtpx="http://www.garmin.com/xmlschemas/TrackPointExtension/v1">
            <gpxtpx:hr>133</gpxtpx:hr>
          </gpxtpx:TrackPointExtension>
        </extensions>
      </trkpt>
      <trkpt lat="50.51328" lon="2.58743">
        <ele>32</ele>
        <time>2021-06-24T16:02:08Z</time>
        <extensions>
          <gpxtpx:TrackPointExtension xmlns:gpxtpx="http://www.garmin.com/xmlschemas/TrackPointExtension/v1">
            <gpxtpx:hr>133</gpxtpx:hr>
          </gpxtpx:TrackPointExtension>
        </extensions>
      </trkpt>
      <trkpt lat="50.51332" lon="2.58749">
        <ele>32</ele>
        <time>2021-06-24T16:02:09Z</time>
        <extensions>
          <gpxtpx:TrackPointExtension xmlns:gpxtpx="http://www.garmin.com/xmlschemas/TrackPointExtension/v1">
            <gpxtpx:hr>134</gpxtpx:hr>
          </gpxtpx:TrackPointExtension>
        </extensions>
      </trkpt>
      <trkpt lat="50.51335" lon="2.58756">
        <ele>32</ele>
        <time>2021-06-24T16:02:10Z</time>
        <extensions>
          <gpxtpx:TrackPointExtension xmlns:gpxtpx="http://www.garmin.com/xmlschemas/TrackPointExtension/v1">
            <gpxtpx:hr>134</gpxtpx:hr>
          </gpxtpx:TrackPointExtension>
        </extensions>
      </trkpt>
      <trkpt lat="50.51339" lon="2.58761">
        <ele>32</ele>
        <time>2021-06-24T16:02:11Z</time>
        <extensions>
          <gpxtpx:TrackPointExtension xmlns:gpxtpx="http://www.garmin.com/xmlschemas/TrackPointExtension/v1">
            <gpxtpx:hr>135</gpxtpx:hr>
          </gpxtpx:TrackPointExtension>
        </extensions>
      </trkpt>
      <trkpt lat="50.51344" lon="2.58767">
        <ele>32</ele>
        <time>2021-06-24T16:02:12Z</time>
        <extensions>
          <gpxtpx:TrackPointExtension xmlns:gpxtpx="http://www.garmin.com/xmlschemas/TrackPointExtension/v1">
            <gpxtpx:hr>135</gpxtpx:hr>
          </gpxtpx:TrackPointExtension>
        </extensions>
      </trkpt>
      <trkpt lat="50.51349" lon="2.5877">
        <ele>32</ele>
        <time>2021-06-24T16:02:13Z</time>
        <extensions>
          <gpxtpx:TrackPointExtension xmlns:gpxtpx="http://www.garmin.com/xmlschemas/TrackPointExtension/v1">
            <gpxtpx:hr>135</gpxtpx:hr>
          </gpxtpx:TrackPointExtension>
        </extensions>
      </trkpt>
      <trkpt lat="50.51355" lon="2.58774">
        <ele>32</ele>
        <time>2021-06-24T16:02:14Z</time>
        <extensions>
          <gpxtpx:TrackPointExtension xmlns:gpxtpx="http://www.garmin.com/xmlschemas/TrackPointExtension/v1">
            <gpxtpx:hr>135</gpxtpx:hr>
          </gpxtpx:TrackPointExtension>
        </extensions>
      </trkpt>
      <trkpt lat="50.51359" lon="2.58779">
        <ele>32.2</ele>
        <time>2021-06-24T16:02:15Z</time>
        <extensions>
          <gpxtpx:TrackPointExtension xmlns:gpxtpx="http://www.garmin.com/xmlschemas/TrackPointExtension/v1">
            <gpxtpx:hr>136</gpxtpx:hr>
          </gpxtpx:TrackPointExtension>
        </extensions>
      </trkpt>
      <trkpt lat="50.51362" lon="2.58784">
        <ele>32.2</ele>
        <time>2021-06-24T16:02:16Z</time>
        <extensions>
          <gpxtpx:TrackPointExtension xmlns:gpxtpx="http://www.garmin.com/xmlschemas/TrackPointExtension/v1">
            <gpxtpx:hr>136</gpxtpx:hr>
          </gpxtpx:TrackPointExtension>
        </extensions>
      </trkpt>
      <trkpt lat="50.51365" lon="2.5879">
        <ele>32.2</ele>
        <time>2021-06-24T16:02:17Z</time>
        <extensions>
          <gpxtpx:TrackPointExtension xmlns:gpxtpx="http://www.garmin.com/xmlschemas/TrackPointExtension/v1">
            <gpxtpx:hr>136</gpxtpx:hr>
          </gpxtpx:TrackPointExtension>
        </extensions>
      </trkpt>
      <trkpt lat="50.51368" lon="2.58796">
        <ele>32.2</ele>
        <time>2021-06-24T16:02:18Z</time>
        <extensions>
          <gpxtpx:TrackPointExtension xmlns:gpxtpx="http://www.garmin.com/xmlschemas/TrackPointExtension/v1">
            <gpxtpx:hr>136</gpxtpx:hr>
          </gpxtpx:TrackPointExtension>
        </extensions>
      </trkpt>
      <trkpt lat="50.51373" lon="2.58801">
        <ele>32.2</ele>
        <time>2021-06-24T16:02:19Z</time>
        <extensions>
          <gpxtpx:TrackPointExtension xmlns:gpxtpx="http://www.garmin.com/xmlschemas/TrackPointExtension/v1">
            <gpxtpx:hr>137</gpxtpx:hr>
          </gpxtpx:TrackPointExtension>
        </extensions>
      </trkpt>
      <trkpt lat="50.51376" lon="2.58806">
        <ele>32.2</ele>
        <time>2021-06-24T16:02:20Z</time>
        <extensions>
          <gpxtpx:TrackPointExtension xmlns:gpxtpx="http://www.garmin.com/xmlschemas/TrackPointExtension/v1">
            <gpxtpx:hr>137</gpxtpx:hr>
          </gpxtpx:TrackPointExtension>
        </extensions>
      </trkpt>
      <trkpt lat="50.5138" lon="2.58812">
        <ele>32.2</ele>
        <time>2021-06-24T16:02:21Z</time>
        <extensions>
          <gpxtpx:TrackPointExtension xmlns:gpxtpx="http://www.garmin.com/xmlschemas/TrackPointExtension/v1">
            <gpxtpx:hr>137</gpxtpx:hr>
          </gpxtpx:TrackPointExtension>
        </extensions>
      </trkpt>
      <trkpt lat="50.51383" lon="2.58819">
        <ele>32.2</ele>
        <time>2021-06-24T16:02:22Z</time>
        <extensions>
          <gpxtpx:TrackPointExtension xmlns:gpxtpx="http://www.garmin.com/xmlschemas/TrackPointExtension/v1">
            <gpxtpx:hr>137</gpxtpx:hr>
          </gpxtpx:TrackPointExtension>
        </extensions>
      </trkpt>
      <trkpt lat="50.51387" lon="2.58824">
        <ele>32.2</ele>
        <time>2021-06-24T16:02:23Z</time>
        <extensions>
          <gpxtpx:TrackPointExtension xmlns:gpxtpx="http://www.garmin.com/xmlschemas/TrackPointExtension/v1">
            <gpxtpx:hr>137</gpxtpx:hr>
          </gpxtpx:TrackPointExtension>
        </extensions>
      </trkpt>
      <trkpt lat="50.51389" lon="2.58832">
        <ele>32.2</ele>
        <time>2021-06-24T16:02:24Z</time>
        <extensions>
          <gpxtpx:TrackPointExtension xmlns:gpxtpx="http://www.garmin.com/xmlschemas/TrackPointExtension/v1">
            <gpxtpx:hr>137</gpxtpx:hr>
          </gpxtpx:TrackPointExtension>
        </extensions>
      </trkpt>
      <trkpt lat="50.51393" lon="2.58837">
        <ele>32.4</ele>
        <time>2021-06-24T16:02:25Z</time>
        <extensions>
          <gpxtpx:TrackPointExtension xmlns:gpxtpx="http://www.garmin.com/xmlschemas/TrackPointExtension/v1">
            <gpxtpx:hr>137</gpxtpx:hr>
          </gpxtpx:TrackPointExtension>
        </extensions>
      </trkpt>
      <trkpt lat="50.51397" lon="2.58842">
        <ele>32.4</ele>
        <time>2021-06-24T16:02:26Z</time>
        <extensions>
          <gpxtpx:TrackPointExtension xmlns:gpxtpx="http://www.garmin.com/xmlschemas/TrackPointExtension/v1">
            <gpxtpx:hr>137</gpxtpx:hr>
          </gpxtpx:TrackPointExtension>
        </extensions>
      </trkpt>
      <trkpt lat="50.51402" lon="2.58848">
        <ele>32.4</ele>
        <time>2021-06-24T16:02:27Z</time>
        <extensions>
          <gpxtpx:TrackPointExtension xmlns:gpxtpx="http://www.garmin.com/xmlschemas/TrackPointExtension/v1">
            <gpxtpx:hr>137</gpxtpx:hr>
          </gpxtpx:TrackPointExtension>
        </extensions>
      </trkpt>
      <trkpt lat="50.51406" lon="2.58852">
        <ele>32.4</ele>
        <time>2021-06-24T16:02:28Z</time>
        <extensions>
          <gpxtpx:TrackPointExtension xmlns:gpxtpx="http://www.garmin.com/xmlschemas/TrackPointExtension/v1">
            <gpxtpx:hr>137</gpxtpx:hr>
          </gpxtpx:TrackPointExtension>
        </extensions>
      </trkpt>
      <trkpt lat="50.5141" lon="2.58856">
        <ele>32.4</ele>
        <time>2021-06-24T16:02:29Z</time>
        <extensions>
          <gpxtpx:TrackPointExtension xmlns:gpxtpx="http://www.garmin.com/xmlschemas/TrackPointExtension/v1">
            <gpxtpx:hr>137</gpxtpx:hr>
          </gpxtpx:TrackPointExtension>
        </extensions>
      </trkpt>
      <trkpt lat="50.51412" lon="2.58861">
        <ele>32.6</ele>
        <time>2021-06-24T16:02:30Z</time>
        <extensions>
          <gpxtpx:TrackPointExtension xmlns:gpxtpx="http://www.garmin.com/xmlschemas/TrackPointExtension/v1">
            <gpxtpx:hr>137</gpxtpx:hr>
          </gpxtpx:TrackPointExtension>
        </extensions>
      </trkpt>
      <trkpt lat="50.51416" lon="2.58866">
        <ele>32.6</ele>
        <time>2021-06-24T16:02:31Z</time>
        <extensions>
          <gpxtpx:TrackPointExtension xmlns:gpxtpx="http://www.garmin.com/xmlschemas/TrackPointExtension/v1">
            <gpxtpx:hr>137</gpxtpx:hr>
          </gpxtpx:TrackPointExtension>
        </extensions>
      </trkpt>
      <trkpt lat="50.51419" lon="2.58871">
        <ele>32.6</ele>
        <time>2021-06-24T16:02:32Z</time>
        <extensions>
          <gpxtpx:TrackPointExtension xmlns:gpxtpx="http://www.garmin.com/xmlschemas/TrackPointExtension/v1">
            <gpxtpx:hr>137</gpxtpx:hr>
          </gpxtpx:TrackPointExtension>
        </extensions>
      </trkpt>
      <trkpt lat="50.51422" lon="2.58875">
        <ele>32.6</ele>
        <time>2021-06-24T16:02:33Z</time>
        <extensions>
          <gpxtpx:TrackPointExtension xmlns:gpxtpx="http://www.garmin.com/xmlschemas/TrackPointExtension/v1">
            <gpxtpx:hr>136</gpxtpx:hr>
          </gpxtpx:TrackPointExtension>
        </extensions>
      </trkpt>
      <trkpt lat="50.51424" lon="2.58881">
        <ele>32.8</ele>
        <time>2021-06-24T16:02:34Z</time>
        <extensions>
          <gpxtpx:TrackPointExtension xmlns:gpxtpx="http://www.garmin.com/xmlschemas/TrackPointExtension/v1">
            <gpxtpx:hr>136</gpxtpx:hr>
          </gpxtpx:TrackPointExtension>
        </extensions>
      </trkpt>
      <trkpt lat="50.51428" lon="2.58886">
        <ele>32.8</ele>
        <time>2021-06-24T16:02:35Z</time>
        <extensions>
          <gpxtpx:TrackPointExtension xmlns:gpxtpx="http://www.garmin.com/xmlschemas/TrackPointExtension/v1">
            <gpxtpx:hr>135</gpxtpx:hr>
          </gpxtpx:TrackPointExtension>
        </extensions>
      </trkpt>
      <trkpt lat="50.5143" lon="2.58891">
        <ele>32.8</ele>
        <time>2021-06-24T16:02:36Z</time>
        <extensions>
          <gpxtpx:TrackPointExtension xmlns:gpxtpx="http://www.garmin.com/xmlschemas/TrackPointExtension/v1">
            <gpxtpx:hr>135</gpxtpx:hr>
          </gpxtpx:TrackPointExtension>
        </extensions>
      </trkpt>
      <trkpt lat="50.51433" lon="2.58896">
        <ele>32.8</ele>
        <time>2021-06-24T16:02:37Z</time>
        <extensions>
          <gpxtpx:TrackPointExtension xmlns:gpxtpx="http://www.garmin.com/xmlschemas/TrackPointExtension/v1">
            <gpxtpx:hr>135</gpxtpx:hr>
          </gpxtpx:TrackPointExtension>
        </extensions>
      </trkpt>
      <trkpt lat="50.51435" lon="2.58901">
        <ele>33</ele>
        <time>2021-06-24T16:02:38Z</time>
        <extensions>
          <gpxtpx:TrackPointExtension xmlns:gpxtpx="http://www.garmin.com/xmlschemas/TrackPointExtension/v1">
            <gpxtpx:hr>135</gpxtpx:hr>
          </gpxtpx:TrackPointExtension>
        </extensions>
      </trkpt>
      <trkpt lat="50.51438" lon="2.58905">
        <ele>33</ele>
        <time>2021-06-24T16:02:39Z</time>
        <extensions>
          <gpxtpx:TrackPointExtension xmlns:gpxtpx="http://www.garmin.com/xmlschemas/TrackPointExtension/v1">
            <gpxtpx:hr>135</gpxtpx:hr>
          </gpxtpx:TrackPointExtension>
        </extensions>
      </trkpt>
      <trkpt lat="50.51441" lon="2.58909">
        <ele>33</ele>
        <time>2021-06-24T16:02:40Z</time>
        <extensions>
          <gpxtpx:TrackPointExtension xmlns:gpxtpx="http://www.garmin.com/xmlschemas/TrackPointExtension/v1">
            <gpxtpx:hr>135</gpxtpx:hr>
          </gpxtpx:TrackPointExtension>
        </extensions>
      </trkpt>
      <trkpt lat="50.51444" lon="2.58914">
        <ele>33</ele>
        <time>2021-06-24T16:02:41Z</time>
        <extensions>
          <gpxtpx:TrackPointExtension xmlns:gpxtpx="http://www.garmin.com/xmlschemas/TrackPointExtension/v1">
            <gpxtpx:hr>135</gpxtpx:hr>
          </gpxtpx:TrackPointExtension>
        </extensions>
      </trkpt>
      <trkpt lat="50.51448" lon="2.58919">
        <ele>33.2</ele>
        <time>2021-06-24T16:02:42Z</time>
        <extensions>
          <gpxtpx:TrackPointExtension xmlns:gpxtpx="http://www.garmin.com/xmlschemas/TrackPointExtension/v1">
            <gpxtpx:hr>135</gpxtpx:hr>
          </gpxtpx:TrackPointExtension>
        </extensions>
      </trkpt>
      <trkpt lat="50.51452" lon="2.58926">
        <ele>33.2</ele>
        <time>2021-06-24T16:02:43Z</time>
      </trkpt>
      <trkpt lat="50.51455" lon="2.58931">
        <ele>33.4</ele>
        <time>2021-06-24T16:02:44Z</time>
        <extensions>
          <gpxtpx:TrackPointExtension xmlns:gpxtpx="http://www.garmin.com/xmlschemas/TrackPointExtension/v1">
            <gpxtpx:hr>135</gpxtpx:hr>
          </gpxtpx:TrackPointExtension>
        </extensions>
      </trkpt>
      <trkpt lat="50.51459" lon="2.58937">
        <ele>33.4</ele>
        <time>2021-06-24T16:02:45Z</time>
        <extensions>
          <gpxtpx:TrackPointExtension xmlns:gpxtpx="http://www.garmin.com/xmlschemas/TrackPointExtension/v1">
            <gpxtpx:hr>135</gpxtpx:hr>
          </gpxtpx:TrackPointExtension>
        </extensions>
      </trkpt>
      <trkpt lat="50.51463" lon="2.58942">
        <ele>33.6</ele>
        <time>2021-06-24T16:02:46Z</time>
        <extensions>
          <gpxtpx:TrackPointExtension xmlns:gpxtpx="http://www.garmin.com/xmlschemas/TrackPointExtension/v1">
            <gpxtpx:hr>135</gpxtpx:hr>
          </gpxtpx:TrackPointExtension>
        </extensions>
      </trkpt>
      <trkpt lat="50.51466" lon="2.58949">
        <ele>33.6</ele>
        <time>2021-06-24T16:02:47Z</time>
        <extensions>
          <gpxtpx:TrackPointExtension xmlns:gpxtpx="http://www.garmin.com/xmlschemas/TrackPointExtension/v1">
            <gpxtpx:hr>135</gpxtpx:hr>
          </gpxtpx:TrackPointExtension>
        </extensions>
      </trkpt>
      <trkpt lat="50.5147" lon="2.58955">
        <ele>33.6</ele>
        <time>2021-06-24T16:02:48Z</time>
        <extensions>
          <gpxtpx:TrackPointExtension xmlns:gpxtpx="http://www.garmin.com/xmlschemas/TrackPointExtension/v1">
            <gpxtpx:hr>136</gpxtpx:hr>
          </gpxtpx:TrackPointExtension>
        </extensions>
      </trkpt>
      <trkpt lat="50.51473" lon="2.58961">
        <ele>33.8</ele>
        <time>2021-06-24T16:02:49Z</time>
        <extensions>
          <gpxtpx:TrackPointExtension xmlns:gpxtpx="http://www.garmin.com/xmlschemas/TrackPointExtension/v1">
            <gpxtpx:hr>136</gpxtpx:hr>
          </gpxtpx:TrackPointExtension>
        </extensions>
      </trkpt>
      <trkpt lat="50.51478" lon="2.58966">
        <ele>33.8</ele>
        <time>2021-06-24T16:02:50Z</time>
        <extensions>
          <gpxtpx:TrackPointExtension xmlns:gpxtpx="http://www.garmin.com/xmlschemas/TrackPointExtension/v1">
            <gpxtpx:hr>136</gpxtpx:hr>
          </gpxtpx:TrackPointExtension>
        </extensions>
      </trkpt>
      <trkpt lat="50.51482" lon="2.58972">
        <ele>33.8</ele>
        <time>2021-06-24T16:02:51Z</time>
        <extensions>
          <gpxtpx:TrackPointExtension xmlns:gpxtpx="http://www.garmin.com/xmlschemas/TrackPointExtension/v1">
            <gpxtpx:hr>137</gpxtpx:hr>
          </gpxtpx:TrackPointExtension>
        </extensions>
      </trkpt>
      <trkpt lat="50.51486" lon="2.58978">
        <ele>34</ele>
        <time>2021-06-24T16:02:52Z</time>
        <extensions>
          <gpxtpx:TrackPointExtension xmlns:gpxtpx="http://www.garmin.com/xmlschemas/TrackPointExtension/v1">
            <gpxtpx:hr>137</gpxtpx:hr>
          </gpxtpx:TrackPointExtension>
        </extensions>
      </trkpt>
      <trkpt lat="50.5149" lon="2.58985">
        <ele>34</ele>
        <time>2021-06-24T16:02:53Z</time>
        <extensions>
          <gpxtpx:TrackPointExtension xmlns:gpxtpx="http://www.garmin.com/xmlschemas/TrackPointExtension/v1">
            <gpxtpx:hr>137</gpxtpx:hr>
          </gpxtpx:TrackPointExtension>
        </extensions>
      </trkpt>
      <trkpt lat="50.51494" lon="2.58991">
        <ele>34</ele>
        <time>2021-06-24T16:02:54Z</time>
        <extensions>
          <gpxtpx:TrackPointExtension xmlns:gpxtpx="http://www.garmin.com/xmlschemas/TrackPointExtension/v1">
            <gpxtpx:hr>136</gpxtpx:hr>
          </gpxtpx:TrackPointExtension>
        </extensions>
      </trkpt>
      <trkpt lat="50.51498" lon="2.58997">
        <ele>34</ele>
        <time>2021-06-24T16:02:55Z</time>
        <extensions>
          <gpxtpx:TrackPointExtension xmlns:gpxtpx="http://www.garmin.com/xmlschemas/TrackPointExtension/v1">
            <gpxtpx:hr>136</gpxtpx:hr>
          </gpxtpx:TrackPointExtension>
        </extensions>
      </trkpt>
      <trkpt lat="50.51502" lon="2.59003">
        <ele>34.2</ele>
        <time>2021-06-24T16:02:56Z</time>
        <extensions>
          <gpxtpx:TrackPointExtension xmlns:gpxtpx="http://www.garmin.com/xmlschemas/TrackPointExtension/v1">
            <gpxtpx:hr>136</gpxtpx:hr>
          </gpxtpx:TrackPointExtension>
        </extensions>
      </trkpt>
      <trkpt lat="50.51506" lon="2.5901">
        <ele>34.2</ele>
        <time>2021-06-24T16:02:57Z</time>
        <extensions>
          <gpxtpx:TrackPointExtension xmlns:gpxtpx="http://www.garmin.com/xmlschemas/TrackPointExtension/v1">
            <gpxtpx:hr>136</gpxtpx:hr>
          </gpxtpx:TrackPointExtension>
        </extensions>
      </trkpt>
      <trkpt lat="50.51509" lon="2.59017">
        <ele>34.2</ele>
        <time>2021-06-24T16:02:58Z</time>
        <extensions>
          <gpxtpx:TrackPointExtension xmlns:gpxtpx="http://www.garmin.com/xmlschemas/TrackPointExtension/v1">
            <gpxtpx:hr>136</gpxtpx:hr>
          </gpxtpx:TrackPointExtension>
        </extensions>
      </trkpt>
      <trkpt lat="50.51513" lon="2.59023">
        <ele>34.2</ele>
        <time>2021-06-24T16:02:59Z</time>
        <extensions>
          <gpxtpx:TrackPointExtension xmlns:gpxtpx="http://www.garmin.com/xmlschemas/TrackPointExtension/v1">
            <gpxtpx:hr>136</gpxtpx:hr>
          </gpxtpx:TrackPointExtension>
        </extensions>
      </trkpt>
      <trkpt lat="50.51516" lon="2.59029">
        <ele>34.2</ele>
        <time>2021-06-24T16:03:00Z</time>
        <extensions>
          <gpxtpx:TrackPointExtension xmlns:gpxtpx="http://www.garmin.com/xmlschemas/TrackPointExtension/v1">
            <gpxtpx:hr>136</gpxtpx:hr>
          </gpxtpx:TrackPointExtension>
        </extensions>
      </trkpt>
      <trkpt lat="50.51519" lon="2.59035">
        <ele>34.2</ele>
        <time>2021-06-24T16:03:01Z</time>
        <extensions>
          <gpxtpx:TrackPointExtension xmlns:gpxtpx="http://www.garmin.com/xmlschemas/TrackPointExtension/v1">
            <gpxtpx:hr>135</gpxtpx:hr>
          </gpxtpx:TrackPointExtension>
        </extensions>
      </trkpt>
      <trkpt lat="50.51523" lon="2.5904">
        <ele>34.2</ele>
        <time>2021-06-24T16:03:02Z</time>
        <extensions>
          <gpxtpx:TrackPointExtension xmlns:gpxtpx="http://www.garmin.com/xmlschemas/TrackPointExtension/v1">
            <gpxtpx:hr>135</gpxtpx:hr>
          </gpxtpx:TrackPointExtension>
        </extensions>
      </trkpt>
      <trkpt lat="50.51526" lon="2.59046">
        <ele>34.2</ele>
        <time>2021-06-24T16:03:03Z</time>
        <extensions>
          <gpxtpx:TrackPointExtension xmlns:gpxtpx="http://www.garmin.com/xmlschemas/TrackPointExtension/v1">
            <gpxtpx:hr>135</gpxtpx:hr>
          </gpxtpx:TrackPointExtension>
        </extensions>
      </trkpt>
      <trkpt lat="50.51529" lon="2.59052">
        <ele>34</ele>
        <time>2021-06-24T16:03:04Z</time>
        <extensions>
          <gpxtpx:TrackPointExtension xmlns:gpxtpx="http://www.garmin.com/xmlschemas/TrackPointExtension/v1">
            <gpxtpx:hr>135</gpxtpx:hr>
          </gpxtpx:TrackPointExtension>
        </extensions>
      </trkpt>
      <trkpt lat="50.51532" lon="2.59057">
        <ele>34</ele>
        <time>2021-06-24T16:03:05Z</time>
        <extensions>
          <gpxtpx:TrackPointExtension xmlns:gpxtpx="http://www.garmin.com/xmlschemas/TrackPointExtension/v1">
            <gpxtpx:hr>135</gpxtpx:hr>
          </gpxtpx:TrackPointExtension>
        </extensions>
      </trkpt>
      <trkpt lat="50.51536" lon="2.59061">
        <ele>34</ele>
        <time>2021-06-24T16:03:06Z</time>
        <extensions>
          <gpxtpx:TrackPointExtension xmlns:gpxtpx="http://www.garmin.com/xmlschemas/TrackPointExtension/v1">
            <gpxtpx:hr>135</gpxtpx:hr>
          </gpxtpx:TrackPointExtension>
        </extensions>
      </trkpt>
      <trkpt lat="50.5154" lon="2.59065">
        <ele>34</ele>
        <time>2021-06-24T16:03:07Z</time>
        <extensions>
          <gpxtpx:TrackPointExtension xmlns:gpxtpx="http://www.garmin.com/xmlschemas/TrackPointExtension/v1">
            <gpxtpx:hr>135</gpxtpx:hr>
          </gpxtpx:TrackPointExtension>
        </extensions>
      </trkpt>
      <trkpt lat="50.51543" lon="2.5907">
        <ele>34</ele>
        <time>2021-06-24T16:03:08Z</time>
        <extensions>
          <gpxtpx:TrackPointExtension xmlns:gpxtpx="http://www.garmin.com/xmlschemas/TrackPointExtension/v1">
            <gpxtpx:hr>135</gpxtpx:hr>
          </gpxtpx:TrackPointExtension>
        </extensions>
      </trkpt>
      <trkpt lat="50.51546" lon="2.59075">
        <ele>34</ele>
        <time>2021-06-24T16:03:09Z</time>
        <extensions>
          <gpxtpx:TrackPointExtension xmlns:gpxtpx="http://www.garmin.com/xmlschemas/TrackPointExtension/v1">
            <gpxtpx:hr>135</gpxtpx:hr>
          </gpxtpx:TrackPointExtension>
        </extensions>
      </trkpt>
      <trkpt lat="50.51548" lon="2.59082">
        <ele>34</ele>
        <time>2021-06-24T16:03:10Z</time>
        <extensions>
          <gpxtpx:TrackPointExtension xmlns:gpxtpx="http://www.garmin.com/xmlschemas/TrackPointExtension/v1">
            <gpxtpx:hr>135</gpxtpx:hr>
          </gpxtpx:TrackPointExtension>
        </extensions>
      </trkpt>
      <trkpt lat="50.51551" lon="2.59085">
        <ele>34</ele>
        <time>2021-06-24T16:03:11Z</time>
        <extensions>
          <gpxtpx:TrackPointExtension xmlns:gpxtpx="http://www.garmin.com/xmlschemas/TrackPointExtension/v1">
            <gpxtpx:hr>134</gpxtpx:hr>
          </gpxtpx:TrackPointExtension>
        </extensions>
      </trkpt>
      <trkpt lat="50.51553" lon="2.59089">
        <ele>34</ele>
        <time>2021-06-24T16:03:12Z</time>
        <extensions>
          <gpxtpx:TrackPointExtension xmlns:gpxtpx="http://www.garmin.com/xmlschemas/TrackPointExtension/v1">
            <gpxtpx:hr>134</gpxtpx:hr>
          </gpxtpx:TrackPointExtension>
        </extensions>
      </trkpt>
      <trkpt lat="50.51557" lon="2.59095">
        <ele>34</ele>
        <time>2021-06-24T16:03:13Z</time>
        <extensions>
          <gpxtpx:TrackPointExtension xmlns:gpxtpx="http://www.garmin.com/xmlschemas/TrackPointExtension/v1">
            <gpxtpx:hr>133</gpxtpx:hr>
          </gpxtpx:TrackPointExtension>
        </extensions>
      </trkpt>
      <trkpt lat="50.51556" lon="2.59136">
        <ele>34</ele>
        <time>2021-06-24T16:03:19Z</time>
        <extensions>
          <gpxtpx:TrackPointExtension xmlns:gpxtpx="http://www.garmin.com/xmlschemas/TrackPointExtension/v1">
            <gpxtpx:hr>131</gpxtpx:hr>
          </gpxtpx:TrackPointExtension>
        </extensions>
      </trkpt>
      <trkpt lat="50.51572" lon="2.59134">
        <ele>34</ele>
        <time>2021-06-24T16:03:20Z</time>
        <extensions>
          <gpxtpx:TrackPointExtension xmlns:gpxtpx="http://www.garmin.com/xmlschemas/TrackPointExtension/v1">
            <gpxtpx:hr>131</gpxtpx:hr>
          </gpxtpx:TrackPointExtension>
        </extensions>
      </trkpt>
      <trkpt lat="50.51581" lon="2.5913">
        <ele>34</ele>
        <time>2021-06-24T16:03:21Z</time>
        <extensions>
          <gpxtpx:TrackPointExtension xmlns:gpxtpx="http://www.garmin.com/xmlschemas/TrackPointExtension/v1">
            <gpxtpx:hr>132</gpxtpx:hr>
          </gpxtpx:TrackPointExtension>
        </extensions>
      </trkpt>
      <trkpt lat="50.51587" lon="2.59146">
        <ele>34</ele>
        <time>2021-06-24T16:03:22Z</time>
        <extensions>
          <gpxtpx:TrackPointExtension xmlns:gpxtpx="http://www.garmin.com/xmlschemas/TrackPointExtension/v1">
            <gpxtpx:hr>132</gpxtpx:hr>
          </gpxtpx:TrackPointExtension>
        </extensions>
      </trkpt>
      <trkpt lat="50.51591" lon="2.59155">
        <ele>34</ele>
        <time>2021-06-24T16:03:23Z</time>
        <extensions>
          <gpxtpx:TrackPointExtension xmlns:gpxtpx="http://www.garmin.com/xmlschemas/TrackPointExtension/v1">
            <gpxtpx:hr>132</gpxtpx:hr>
          </gpxtpx:TrackPointExtension>
        </extensions>
      </trkpt>
      <trkpt lat="50.51594" lon="2.59164">
        <ele>34.2</ele>
        <time>2021-06-24T16:03:24Z</time>
        <extensions>
          <gpxtpx:TrackPointExtension xmlns:gpxtpx="http://www.garmin.com/xmlschemas/TrackPointExtension/v1">
            <gpxtpx:hr>132</gpxtpx:hr>
          </gpxtpx:TrackPointExtension>
        </extensions>
      </trkpt>
      <trkpt lat="50.51597" lon="2.59169">
        <ele>34.2</ele>
        <time>2021-06-24T16:03:25Z</time>
        <extensions>
          <gpxtpx:TrackPointExtension xmlns:gpxtpx="http://www.garmin.com/xmlschemas/TrackPointExtension/v1">
            <gpxtpx:hr>132</gpxtpx:hr>
          </gpxtpx:TrackPointExtension>
        </extensions>
      </trkpt>
      <trkpt lat="50.51601" lon="2.59174">
        <ele>34.4</ele>
        <time>2021-06-24T16:03:26Z</time>
        <extensions>
          <gpxtpx:TrackPointExtension xmlns:gpxtpx="http://www.garmin.com/xmlschemas/TrackPointExtension/v1">
            <gpxtpx:hr>132</gpxtpx:hr>
          </gpxtpx:TrackPointExtension>
        </extensions>
      </trkpt>
      <trkpt lat="50.51605" lon="2.59179">
        <ele>34.6</ele>
        <time>2021-06-24T16:03:27Z</time>
        <extensions>
          <gpxtpx:TrackPointExtension xmlns:gpxtpx="http://www.garmin.com/xmlschemas/TrackPointExtension/v1">
            <gpxtpx:hr>132</gpxtpx:hr>
          </gpxtpx:TrackPointExtension>
        </extensions>
      </trkpt>
      <trkpt lat="50.51609" lon="2.59183">
        <ele>34.6</ele>
        <time>2021-06-24T16:03:28Z</time>
        <extensions>
          <gpxtpx:TrackPointExtension xmlns:gpxtpx="http://www.garmin.com/xmlschemas/TrackPointExtension/v1">
            <gpxtpx:hr>132</gpxtpx:hr>
          </gpxtpx:TrackPointExtension>
        </extensions>
      </trkpt>
      <trkpt lat="50.51614" lon="2.59188">
        <ele>34.8</ele>
        <time>2021-06-24T16:03:29Z</time>
        <extensions>
          <gpxtpx:TrackPointExtension xmlns:gpxtpx="http://www.garmin.com/xmlschemas/TrackPointExtension/v1">
            <gpxtpx:hr>132</gpxtpx:hr>
          </gpxtpx:TrackPointExtension>
        </extensions>
      </trkpt>
      <trkpt lat="50.51618" lon="2.59193">
        <ele>35</ele>
        <time>2021-06-24T16:03:30Z</time>
        <extensions>
          <gpxtpx:TrackPointExtension xmlns:gpxtpx="http://www.garmin.com/xmlschemas/TrackPointExtension/v1">
            <gpxtpx:hr>131</gpxtpx:hr>
          </gpxtpx:TrackPointExtension>
        </extensions>
      </trkpt>
      <trkpt lat="50.51622" lon="2.59199">
        <ele>35.2</ele>
        <time>2021-06-24T16:03:31Z</time>
        <extensions>
          <gpxtpx:TrackPointExtension xmlns:gpxtpx="http://www.garmin.com/xmlschemas/TrackPointExtension/v1">
            <gpxtpx:hr>131</gpxtpx:hr>
          </gpxtpx:TrackPointExtension>
        </extensions>
      </trkpt>
      <trkpt lat="50.51624" lon="2.59206">
        <ele>35.4</ele>
        <time>2021-06-24T16:03:32Z</time>
        <extensions>
          <gpxtpx:TrackPointExtension xmlns:gpxtpx="http://www.garmin.com/xmlschemas/TrackPointExtension/v1">
            <gpxtpx:hr>131</gpxtpx:hr>
          </gpxtpx:TrackPointExtension>
        </extensions>
      </trkpt>
      <trkpt lat="50.51627" lon="2.59212">
        <ele>35.4</ele>
        <time>2021-06-24T16:03:33Z</time>
        <extensions>
          <gpxtpx:TrackPointExtension xmlns:gpxtpx="http://www.garmin.com/xmlschemas/TrackPointExtension/v1">
            <gpxtpx:hr>131</gpxtpx:hr>
          </gpxtpx:TrackPointExtension>
        </extensions>
      </trkpt>
      <trkpt lat="50.51631" lon="2.59217">
        <ele>35.6</ele>
        <time>2021-06-24T16:03:34Z</time>
        <extensions>
          <gpxtpx:TrackPointExtension xmlns:gpxtpx="http://www.garmin.com/xmlschemas/TrackPointExtension/v1">
            <gpxtpx:hr>131</gpxtpx:hr>
          </gpxtpx:TrackPointExtension>
        </extensions>
      </trkpt>
      <trkpt lat="50.51635" lon="2.59221">
        <ele>35.8</ele>
        <time>2021-06-24T16:03:35Z</time>
        <extensions>
          <gpxtpx:TrackPointExtension xmlns:gpxtpx="http://www.garmin.com/xmlschemas/TrackPointExtension/v1">
            <gpxtpx:hr>131</gpxtpx:hr>
          </gpxtpx:TrackPointExtension>
        </extensions>
      </trkpt>
      <trkpt lat="50.51638" lon="2.59226">
        <ele>35.8</ele>
        <time>2021-06-24T16:03:36Z</time>
        <extensions>
          <gpxtpx:TrackPointExtension xmlns:gpxtpx="http://www.garmin.com/xmlschemas/TrackPointExtension/v1">
            <gpxtpx:hr>131</gpxtpx:hr>
          </gpxtpx:TrackPointExtension>
        </extensions>
      </trkpt>
      <trkpt lat="50.51641" lon="2.5923">
        <ele>36</ele>
        <time>2021-06-24T16:03:37Z</time>
        <extensions>
          <gpxtpx:TrackPointExtension xmlns:gpxtpx="http://www.garmin.com/xmlschemas/TrackPointExtension/v1">
            <gpxtpx:hr>131</gpxtpx:hr>
          </gpxtpx:TrackPointExtension>
        </extensions>
      </trkpt>
      <trkpt lat="50.51643" lon="2.59235">
        <ele>36</ele>
        <time>2021-06-24T16:03:38Z</time>
        <extensions>
          <gpxtpx:TrackPointExtension xmlns:gpxtpx="http://www.garmin.com/xmlschemas/TrackPointExtension/v1">
            <gpxtpx:hr>131</gpxtpx:hr>
          </gpxtpx:TrackPointExtension>
        </extensions>
      </trkpt>
      <trkpt lat="50.51646" lon="2.59238">
        <ele>36.2</ele>
        <time>2021-06-24T16:03:39Z</time>
        <extensions>
          <gpxtpx:TrackPointExtension xmlns:gpxtpx="http://www.garmin.com/xmlschemas/TrackPointExtension/v1">
            <gpxtpx:hr>131</gpxtpx:hr>
          </gpxtpx:TrackPointExtension>
        </extensions>
      </trkpt>
      <trkpt lat="50.51648" lon="2.59243">
        <ele>36.2</ele>
        <time>2021-06-24T16:03:40Z</time>
        <extensions>
          <gpxtpx:TrackPointExtension xmlns:gpxtpx="http://www.garmin.com/xmlschemas/TrackPointExtension/v1">
            <gpxtpx:hr>131</gpxtpx:hr>
          </gpxtpx:TrackPointExtension>
        </extensions>
      </trkpt>
      <trkpt lat="50.51651" lon="2.59247">
        <ele>36.2</ele>
        <time>2021-06-24T16:03:41Z</time>
        <extensions>
          <gpxtpx:TrackPointExtension xmlns:gpxtpx="http://www.garmin.com/xmlschemas/TrackPointExtension/v1">
            <gpxtpx:hr>130</gpxtpx:hr>
          </gpxtpx:TrackPointExtension>
        </extensions>
      </trkpt>
      <trkpt lat="50.51653" lon="2.59251">
        <ele>36.4</ele>
        <time>2021-06-24T16:03:42Z</time>
        <extensions>
          <gpxtpx:TrackPointExtension xmlns:gpxtpx="http://www.garmin.com/xmlschemas/TrackPointExtension/v1">
            <gpxtpx:hr>130</gpxtpx:hr>
          </gpxtpx:TrackPointExtension>
        </extensions>
      </trkpt>
      <trkpt lat="50.51656" lon="2.59253">
        <ele>36.4</ele>
        <time>2021-06-24T16:03:43Z</time>
        <extensions>
          <gpxtpx:TrackPointExtension xmlns:gpxtpx="http://www.garmin.com/xmlschemas/TrackPointExtension/v1">
            <gpxtpx:hr>129</gpxtpx:hr>
          </gpxtpx:TrackPointExtension>
        </extensions>
      </trkpt>
      <trkpt lat="50.51659" lon="2.59255">
        <ele>36.4</ele>
        <time>2021-06-24T16:03:44Z</time>
        <extensions>
          <gpxtpx:TrackPointExtension xmlns:gpxtpx="http://www.garmin.com/xmlschemas/TrackPointExtension/v1">
            <gpxtpx:hr>129</gpxtpx:hr>
          </gpxtpx:TrackPointExtension>
        </extensions>
      </trkpt>
      <trkpt lat="50.51662" lon="2.59259">
        <ele>36.6</ele>
        <time>2021-06-24T16:03:45Z</time>
        <extensions>
          <gpxtpx:TrackPointExtension xmlns:gpxtpx="http://www.garmin.com/xmlschemas/TrackPointExtension/v1">
            <gpxtpx:hr>128</gpxtpx:hr>
          </gpxtpx:TrackPointExtension>
        </extensions>
      </trkpt>
      <trkpt lat="50.51665" lon="2.59263">
        <ele>36.6</ele>
        <time>2021-06-24T16:03:46Z</time>
        <extensions>
          <gpxtpx:TrackPointExtension xmlns:gpxtpx="http://www.garmin.com/xmlschemas/TrackPointExtension/v1">
            <gpxtpx:hr>127</gpxtpx:hr>
          </gpxtpx:TrackPointExtension>
        </extensions>
      </trkpt>
      <trkpt lat="50.51667" lon="2.59269">
        <ele>36.6</ele>
        <time>2021-06-24T16:03:47Z</time>
        <extensions>
          <gpxtpx:TrackPointExtension xmlns:gpxtpx="http://www.garmin.com/xmlschemas/TrackPointExtension/v1">
            <gpxtpx:hr>127</gpxtpx:hr>
          </gpxtpx:TrackPointExtension>
        </extensions>
      </trkpt>
      <trkpt lat="50.5167" lon="2.59274">
        <ele>36.8</ele>
        <time>2021-06-24T16:03:48Z</time>
        <extensions>
          <gpxtpx:TrackPointExtension xmlns:gpxtpx="http://www.garmin.com/xmlschemas/TrackPointExtension/v1">
            <gpxtpx:hr>126</gpxtpx:hr>
          </gpxtpx:TrackPointExtension>
        </extensions>
      </trkpt>
      <trkpt lat="50.51673" lon="2.59279">
        <ele>36.8</ele>
        <time>2021-06-24T16:03:49Z</time>
        <extensions>
          <gpxtpx:TrackPointExtension xmlns:gpxtpx="http://www.garmin.com/xmlschemas/TrackPointExtension/v1">
            <gpxtpx:hr>126</gpxtpx:hr>
          </gpxtpx:TrackPointExtension>
        </extensions>
      </trkpt>
      <trkpt lat="50.51676" lon="2.59283">
        <ele>36.8</ele>
        <time>2021-06-24T16:03:50Z</time>
        <extensions>
          <gpxtpx:TrackPointExtension xmlns:gpxtpx="http://www.garmin.com/xmlschemas/TrackPointExtension/v1">
            <gpxtpx:hr>126</gpxtpx:hr>
          </gpxtpx:TrackPointExtension>
        </extensions>
      </trkpt>
      <trkpt lat="50.5168" lon="2.59288">
        <ele>37</ele>
        <time>2021-06-24T16:03:51Z</time>
        <extensions>
          <gpxtpx:TrackPointExtension xmlns:gpxtpx="http://www.garmin.com/xmlschemas/TrackPointExtension/v1">
            <gpxtpx:hr>126</gpxtpx:hr>
          </gpxtpx:TrackPointExtension>
        </extensions>
      </trkpt>
      <trkpt lat="50.51682" lon="2.59292">
        <ele>37</ele>
        <time>2021-06-24T16:03:52Z</time>
        <extensions>
          <gpxtpx:TrackPointExtension xmlns:gpxtpx="http://www.garmin.com/xmlschemas/TrackPointExtension/v1">
            <gpxtpx:hr>126</gpxtpx:hr>
          </gpxtpx:TrackPointExtension>
        </extensions>
      </trkpt>
      <trkpt lat="50.51685" lon="2.59297">
        <ele>37</ele>
        <time>2021-06-24T16:03:53Z</time>
        <extensions>
          <gpxtpx:TrackPointExtension xmlns:gpxtpx="http://www.garmin.com/xmlschemas/TrackPointExtension/v1">
            <gpxtpx:hr>126</gpxtpx:hr>
          </gpxtpx:TrackPointExtension>
        </extensions>
      </trkpt>
      <trkpt lat="50.51688" lon="2.59302">
        <ele>37</ele>
        <time>2021-06-24T16:03:54Z</time>
        <extensions>
          <gpxtpx:TrackPointExtension xmlns:gpxtpx="http://www.garmin.com/xmlschemas/TrackPointExtension/v1">
            <gpxtpx:hr>126</gpxtpx:hr>
          </gpxtpx:TrackPointExtension>
        </extensions>
      </trkpt>
      <trkpt lat="50.51692" lon="2.59305">
        <ele>37</ele>
        <time>2021-06-24T16:03:55Z</time>
        <extensions>
          <gpxtpx:TrackPointExtension xmlns:gpxtpx="http://www.garmin.com/xmlschemas/TrackPointExtension/v1">
            <gpxtpx:hr>126</gpxtpx:hr>
          </gpxtpx:TrackPointExtension>
        </extensions>
      </trkpt>
      <trkpt lat="50.51694" lon="2.59309">
        <ele>37</ele>
        <time>2021-06-24T16:03:56Z</time>
        <extensions>
          <gpxtpx:TrackPointExtension xmlns:gpxtpx="http://www.garmin.com/xmlschemas/TrackPointExtension/v1">
            <gpxtpx:hr>126</gpxtpx:hr>
          </gpxtpx:TrackPointExtension>
        </extensions>
      </trkpt>
      <trkpt lat="50.51698" lon="2.59312">
        <ele>37</ele>
        <time>2021-06-24T16:03:57Z</time>
        <extensions>
          <gpxtpx:TrackPointExtension xmlns:gpxtpx="http://www.garmin.com/xmlschemas/TrackPointExtension/v1">
            <gpxtpx:hr>126</gpxtpx:hr>
          </gpxtpx:TrackPointExtension>
        </extensions>
      </trkpt>
      <trkpt lat="50.51702" lon="2.59315">
        <ele>37</ele>
        <time>2021-06-24T16:03:58Z</time>
        <extensions>
          <gpxtpx:TrackPointExtension xmlns:gpxtpx="http://www.garmin.com/xmlschemas/TrackPointExtension/v1">
            <gpxtpx:hr>126</gpxtpx:hr>
          </gpxtpx:TrackPointExtension>
        </extensions>
      </trkpt>
      <trkpt lat="50.51706" lon="2.59318">
        <ele>37</ele>
        <time>2021-06-24T16:03:59Z</time>
        <extensions>
          <gpxtpx:TrackPointExtension xmlns:gpxtpx="http://www.garmin.com/xmlschemas/TrackPointExtension/v1">
            <gpxtpx:hr>126</gpxtpx:hr>
          </gpxtpx:TrackPointExtension>
        </extensions>
      </trkpt>
      <trkpt lat="50.5171" lon="2.59321">
        <ele>37.2</ele>
        <time>2021-06-24T16:04:00Z</time>
        <extensions>
          <gpxtpx:TrackPointExtension xmlns:gpxtpx="http://www.garmin.com/xmlschemas/TrackPointExtension/v1">
            <gpxtpx:hr>126</gpxtpx:hr>
          </gpxtpx:TrackPointExtension>
        </extensions>
      </trkpt>
      <trkpt lat="50.51713" lon="2.59326">
        <ele>37.2</ele>
        <time>2021-06-24T16:04:01Z</time>
        <extensions>
          <gpxtpx:TrackPointExtension xmlns:gpxtpx="http://www.garmin.com/xmlschemas/TrackPointExtension/v1">
            <gpxtpx:hr>126</gpxtpx:hr>
          </gpxtpx:TrackPointExtension>
        </extensions>
      </trkpt>
      <trkpt lat="50.51717" lon="2.59331">
        <ele>37.2</ele>
        <time>2021-06-24T16:04:02Z</time>
        <extensions>
          <gpxtpx:TrackPointExtension xmlns:gpxtpx="http://www.garmin.com/xmlschemas/TrackPointExtension/v1">
            <gpxtpx:hr>125</gpxtpx:hr>
          </gpxtpx:TrackPointExtension>
        </extensions>
      </trkpt>
      <trkpt lat="50.5172" lon="2.59337">
        <ele>37.2</ele>
        <time>2021-06-24T16:04:03Z</time>
        <extensions>
          <gpxtpx:TrackPointExtension xmlns:gpxtpx="http://www.garmin.com/xmlschemas/TrackPointExtension/v1">
            <gpxtpx:hr>125</gpxtpx:hr>
          </gpxtpx:TrackPointExtension>
        </extensions>
      </trkpt>
      <trkpt lat="50.51724" lon="2.59343">
        <ele>37.2</ele>
        <time>2021-06-24T16:04:04Z</time>
        <extensions>
          <gpxtpx:TrackPointExtension xmlns:gpxtpx="http://www.garmin.com/xmlschemas/TrackPointExtension/v1">
            <gpxtpx:hr>125</gpxtpx:hr>
          </gpxtpx:TrackPointExtension>
        </extensions>
      </trkpt>
      <trkpt lat="50.51727" lon="2.59348">
        <ele>37.2</ele>
        <time>2021-06-24T16:04:05Z</time>
        <extensions>
          <gpxtpx:TrackPointExtension xmlns:gpxtpx="http://www.garmin.com/xmlschemas/TrackPointExtension/v1">
            <gpxtpx:hr>125</gpxtpx:hr>
          </gpxtpx:TrackPointExtension>
        </extensions>
      </trkpt>
      <trkpt lat="50.51731" lon="2.59354">
        <ele>37.2</ele>
        <time>2021-06-24T16:04:06Z</time>
        <extensions>
          <gpxtpx:TrackPointExtension xmlns:gpxtpx="http://www.garmin.com/xmlschemas/TrackPointExtension/v1">
            <gpxtpx:hr>124</gpxtpx:hr>
          </gpxtpx:TrackPointExtension>
        </extensions>
      </trkpt>
      <trkpt lat="50.51734" lon="2.59359">
        <ele>37.2</ele>
        <time>2021-06-24T16:04:07Z</time>
        <extensions>
          <gpxtpx:TrackPointExtension xmlns:gpxtpx="http://www.garmin.com/xmlschemas/TrackPointExtension/v1">
            <gpxtpx:hr>124</gpxtpx:hr>
          </gpxtpx:TrackPointExtension>
        </extensions>
      </trkpt>
      <trkpt lat="50.51738" lon="2.59364">
        <ele>37.2</ele>
        <time>2021-06-24T16:04:08Z</time>
        <extensions>
          <gpxtpx:TrackPointExtension xmlns:gpxtpx="http://www.garmin.com/xmlschemas/TrackPointExtension/v1">
            <gpxtpx:hr>124</gpxtpx:hr>
          </gpxtpx:TrackPointExtension>
        </extensions>
      </trkpt>
      <trkpt lat="50.51742" lon="2.59369">
        <ele>37.2</ele>
        <time>2021-06-24T16:04:09Z</time>
        <extensions>
          <gpxtpx:TrackPointExtension xmlns:gpxtpx="http://www.garmin.com/xmlschemas/TrackPointExtension/v1">
            <gpxtpx:hr>124</gpxtpx:hr>
          </gpxtpx:TrackPointExtension>
        </extensions>
      </trkpt>
      <trkpt lat="50.51746" lon="2.59374">
        <ele>37.2</ele>
        <time>2021-06-24T16:04:10Z</time>
        <extensions>
          <gpxtpx:TrackPointExtension xmlns:gpxtpx="http://www.garmin.com/xmlschemas/TrackPointExtension/v1">
            <gpxtpx:hr>124</gpxtpx:hr>
          </gpxtpx:TrackPointExtension>
        </extensions>
      </trkpt>
      <trkpt lat="50.5175" lon="2.5938">
        <ele>37.2</ele>
        <time>2021-06-24T16:04:11Z</time>
        <extensions>
          <gpxtpx:TrackPointExtension xmlns:gpxtpx="http://www.garmin.com/xmlschemas/TrackPointExtension/v1">
            <gpxtpx:hr>124</gpxtpx:hr>
          </gpxtpx:TrackPointExtension>
        </extensions>
      </trkpt>
      <trkpt lat="50.51754" lon="2.59385">
        <ele>37.2</ele>
        <time>2021-06-24T16:04:12Z</time>
        <extensions>
          <gpxtpx:TrackPointExtension xmlns:gpxtpx="http://www.garmin.com/xmlschemas/TrackPointExtension/v1">
            <gpxtpx:hr>124</gpxtpx:hr>
          </gpxtpx:TrackPointExtension>
        </extensions>
      </trkpt>
      <trkpt lat="50.51758" lon="2.59391">
        <ele>37.2</ele>
        <time>2021-06-24T16:04:13Z</time>
        <extensions>
          <gpxtpx:TrackPointExtension xmlns:gpxtpx="http://www.garmin.com/xmlschemas/TrackPointExtension/v1">
            <gpxtpx:hr>124</gpxtpx:hr>
          </gpxtpx:TrackPointExtension>
        </extensions>
      </trkpt>
      <trkpt lat="50.51762" lon="2.59396">
        <ele>37.2</ele>
        <time>2021-06-24T16:04:14Z</time>
        <extensions>
          <gpxtpx:TrackPointExtension xmlns:gpxtpx="http://www.garmin.com/xmlschemas/TrackPointExtension/v1">
            <gpxtpx:hr>123</gpxtpx:hr>
          </gpxtpx:TrackPointExtension>
        </extensions>
      </trkpt>
      <trkpt lat="50.51766" lon="2.59401">
        <ele>37</ele>
        <time>2021-06-24T16:04:15Z</time>
        <extensions>
          <gpxtpx:TrackPointExtension xmlns:gpxtpx="http://www.garmin.com/xmlschemas/TrackPointExtension/v1">
            <gpxtpx:hr>123</gpxtpx:hr>
          </gpxtpx:TrackPointExtension>
        </extensions>
      </trkpt>
      <trkpt lat="50.5177" lon="2.59407">
        <ele>37</ele>
        <time>2021-06-24T16:04:16Z</time>
        <extensions>
          <gpxtpx:TrackPointExtension xmlns:gpxtpx="http://www.garmin.com/xmlschemas/TrackPointExtension/v1">
            <gpxtpx:hr>122</gpxtpx:hr>
          </gpxtpx:TrackPointExtension>
        </extensions>
      </trkpt>
      <trkpt lat="50.51773" lon="2.59412">
        <ele>37</ele>
        <time>2021-06-24T16:04:17Z</time>
        <extensions>
          <gpxtpx:TrackPointExtension xmlns:gpxtpx="http://www.garmin.com/xmlschemas/TrackPointExtension/v1">
            <gpxtpx:hr>122</gpxtpx:hr>
          </gpxtpx:TrackPointExtension>
        </extensions>
      </trkpt>
      <trkpt lat="50.51778" lon="2.59417">
        <ele>37</ele>
        <time>2021-06-24T16:04:18Z</time>
        <extensions>
          <gpxtpx:TrackPointExtension xmlns:gpxtpx="http://www.garmin.com/xmlschemas/TrackPointExtension/v1">
            <gpxtpx:hr>122</gpxtpx:hr>
          </gpxtpx:TrackPointExtension>
        </extensions>
      </trkpt>
      <trkpt lat="50.51781" lon="2.59422">
        <ele>37</ele>
        <time>2021-06-24T16:04:19Z</time>
        <extensions>
          <gpxtpx:TrackPointExtension xmlns:gpxtpx="http://www.garmin.com/xmlschemas/TrackPointExtension/v1">
            <gpxtpx:hr>122</gpxtpx:hr>
          </gpxtpx:TrackPointExtension>
        </extensions>
      </trkpt>
      <trkpt lat="50.51785" lon="2.59427">
        <ele>37</ele>
        <time>2021-06-24T16:04:20Z</time>
        <extensions>
          <gpxtpx:TrackPointExtension xmlns:gpxtpx="http://www.garmin.com/xmlschemas/TrackPointExtension/v1">
            <gpxtpx:hr>122</gpxtpx:hr>
          </gpxtpx:TrackPointExtension>
        </extensions>
      </trkpt>
      <trkpt lat="50.51789" lon="2.59432">
        <ele>37</ele>
        <time>2021-06-24T16:04:21Z</time>
        <extensions>
          <gpxtpx:TrackPointExtension xmlns:gpxtpx="http://www.garmin.com/xmlschemas/TrackPointExtension/v1">
            <gpxtpx:hr>122</gpxtpx:hr>
          </gpxtpx:TrackPointExtension>
        </extensions>
      </trkpt>
      <trkpt lat="50.51793" lon="2.59437">
        <ele>36.8</ele>
        <time>2021-06-24T16:04:22Z</time>
        <extensions>
          <gpxtpx:TrackPointExtension xmlns:gpxtpx="http://www.garmin.com/xmlschemas/TrackPointExtension/v1">
            <gpxtpx:hr>122</gpxtpx:hr>
          </gpxtpx:TrackPointExtension>
        </extensions>
      </trkpt>
      <trkpt lat="50.51797" lon="2.5944">
        <ele>36.8</ele>
        <time>2021-06-24T16:04:23Z</time>
        <extensions>
          <gpxtpx:TrackPointExtension xmlns:gpxtpx="http://www.garmin.com/xmlschemas/TrackPointExtension/v1">
            <gpxtpx:hr>122</gpxtpx:hr>
          </gpxtpx:TrackPointExtension>
        </extensions>
      </trkpt>
      <trkpt lat="50.51801" lon="2.59445">
        <ele>36.8</ele>
        <time>2021-06-24T16:04:24Z</time>
        <extensions>
          <gpxtpx:TrackPointExtension xmlns:gpxtpx="http://www.garmin.com/xmlschemas/TrackPointExtension/v1">
            <gpxtpx:hr>122</gpxtpx:hr>
          </gpxtpx:TrackPointExtension>
        </extensions>
      </trkpt>
      <trkpt lat="50.51805" lon="2.5945">
        <ele>36.8</ele>
        <time>2021-06-24T16:04:25Z</time>
        <extensions>
          <gpxtpx:TrackPointExtension xmlns:gpxtpx="http://www.garmin.com/xmlschemas/TrackPointExtension/v1">
            <gpxtpx:hr>122</gpxtpx:hr>
          </gpxtpx:TrackPointExtension>
        </extensions>
      </trkpt>
      <trkpt lat="50.5181" lon="2.59453">
        <ele>36.8</ele>
        <time>2021-06-24T16:04:26Z</time>
        <extensions>
          <gpxtpx:TrackPointExtension xmlns:gpxtpx="http://www.garmin.com/xmlschemas/TrackPointExtension/v1">
            <gpxtpx:hr>122</gpxtpx:hr>
          </gpxtpx:TrackPointExtension>
        </extensions>
      </trkpt>
      <trkpt lat="50.51813" lon="2.59457">
        <ele>36.8</ele>
        <time>2021-06-24T16:04:27Z</time>
        <extensions>
          <gpxtpx:TrackPointExtension xmlns:gpxtpx="http://www.garmin.com/xmlschemas/TrackPointExtension/v1">
            <gpxtpx:hr>123</gpxtpx:hr>
          </gpxtpx:TrackPointExtension>
        </extensions>
      </trkpt>
      <trkpt lat="50.51817" lon="2.59461">
        <ele>36.6</ele>
        <time>2021-06-24T16:04:28Z</time>
        <extensions>
          <gpxtpx:TrackPointExtension xmlns:gpxtpx="http://www.garmin.com/xmlschemas/TrackPointExtension/v1">
            <gpxtpx:hr>123</gpxtpx:hr>
          </gpxtpx:TrackPointExtension>
        </extensions>
      </trkpt>
      <trkpt lat="50.51821" lon="2.59465">
        <ele>36.6</ele>
        <time>2021-06-24T16:04:29Z</time>
        <extensions>
          <gpxtpx:TrackPointExtension xmlns:gpxtpx="http://www.garmin.com/xmlschemas/TrackPointExtension/v1">
            <gpxtpx:hr>123</gpxtpx:hr>
          </gpxtpx:TrackPointExtension>
        </extensions>
      </trkpt>
      <trkpt lat="50.51826" lon="2.59469">
        <ele>36.6</ele>
        <time>2021-06-24T16:04:30Z</time>
        <extensions>
          <gpxtpx:TrackPointExtension xmlns:gpxtpx="http://www.garmin.com/xmlschemas/TrackPointExtension/v1">
            <gpxtpx:hr>123</gpxtpx:hr>
          </gpxtpx:TrackPointExtension>
        </extensions>
      </trkpt>
      <trkpt lat="50.51831" lon="2.59473">
        <ele>36.4</ele>
        <time>2021-06-24T16:04:31Z</time>
        <extensions>
          <gpxtpx:TrackPointExtension xmlns:gpxtpx="http://www.garmin.com/xmlschemas/TrackPointExtension/v1">
            <gpxtpx:hr>123</gpxtpx:hr>
          </gpxtpx:TrackPointExtension>
        </extensions>
      </trkpt>
      <trkpt lat="50.51837" lon="2.59477">
        <ele>36.4</ele>
        <time>2021-06-24T16:04:32Z</time>
        <extensions>
          <gpxtpx:TrackPointExtension xmlns:gpxtpx="http://www.garmin.com/xmlschemas/TrackPointExtension/v1">
            <gpxtpx:hr>123</gpxtpx:hr>
          </gpxtpx:TrackPointExtension>
        </extensions>
      </trkpt>
      <trkpt lat="50.51843" lon="2.5948">
        <ele>36.4</ele>
        <time>2021-06-24T16:04:33Z</time>
        <extensions>
          <gpxtpx:TrackPointExtension xmlns:gpxtpx="http://www.garmin.com/xmlschemas/TrackPointExtension/v1">
            <gpxtpx:hr>122</gpxtpx:hr>
          </gpxtpx:TrackPointExtension>
        </extensions>
      </trkpt>
      <trkpt lat="50.51848" lon="2.59483">
        <ele>36.4</ele>
        <time>2021-06-24T16:04:34Z</time>
        <extensions>
          <gpxtpx:TrackPointExtension xmlns:gpxtpx="http://www.garmin.com/xmlschemas/TrackPointExtension/v1">
            <gpxtpx:hr>122</gpxtpx:hr>
          </gpxtpx:TrackPointExtension>
        </extensions>
      </trkpt>
      <trkpt lat="50.51852" lon="2.59486">
        <ele>36.4</ele>
        <time>2021-06-24T16:04:35Z</time>
        <extensions>
          <gpxtpx:TrackPointExtension xmlns:gpxtpx="http://www.garmin.com/xmlschemas/TrackPointExtension/v1">
            <gpxtpx:hr>123</gpxtpx:hr>
          </gpxtpx:TrackPointExtension>
        </extensions>
      </trkpt>
      <trkpt lat="50.51857" lon="2.59489">
        <ele>36.4</ele>
        <time>2021-06-24T16:04:36Z</time>
        <extensions>
          <gpxtpx:TrackPointExtension xmlns:gpxtpx="http://www.garmin.com/xmlschemas/TrackPointExtension/v1">
            <gpxtpx:hr>123</gpxtpx:hr>
          </gpxtpx:TrackPointExtension>
        </extensions>
      </trkpt>
      <trkpt lat="50.5186" lon="2.59491">
        <ele>36.4</ele>
        <time>2021-06-24T16:04:37Z</time>
        <extensions>
          <gpxtpx:TrackPointExtension xmlns:gpxtpx="http://www.garmin.com/xmlschemas/TrackPointExtension/v1">
            <gpxtpx:hr>123</gpxtpx:hr>
          </gpxtpx:TrackPointExtension>
        </extensions>
      </trkpt>
      <trkpt lat="50.51863" lon="2.59493">
        <ele>36.4</ele>
        <time>2021-06-24T16:04:38Z</time>
        <extensions>
          <gpxtpx:TrackPointExtension xmlns:gpxtpx="http://www.garmin.com/xmlschemas/TrackPointExtension/v1">
            <gpxtpx:hr>124</gpxtpx:hr>
          </gpxtpx:TrackPointExtension>
        </extensions>
      </trkpt>
      <trkpt lat="50.51865" lon="2.59496">
        <ele>36.4</ele>
        <time>2021-06-24T16:04:39Z</time>
        <extensions>
          <gpxtpx:TrackPointExtension xmlns:gpxtpx="http://www.garmin.com/xmlschemas/TrackPointExtension/v1">
            <gpxtpx:hr>124</gpxtpx:hr>
          </gpxtpx:TrackPointExtension>
        </extensions>
      </trkpt>
      <trkpt lat="50.51866" lon="2.59499">
        <ele>36.4</ele>
        <time>2021-06-24T16:04:40Z</time>
        <extensions>
          <gpxtpx:TrackPointExtension xmlns:gpxtpx="http://www.garmin.com/xmlschemas/TrackPointExtension/v1">
            <gpxtpx:hr>124</gpxtpx:hr>
          </gpxtpx:TrackPointExtension>
        </extensions>
      </trkpt>
      <trkpt lat="50.51868" lon="2.59502">
        <ele>36.4</ele>
        <time>2021-06-24T16:04:41Z</time>
        <extensions>
          <gpxtpx:TrackPointExtension xmlns:gpxtpx="http://www.garmin.com/xmlschemas/TrackPointExtension/v1">
            <gpxtpx:hr>123</gpxtpx:hr>
          </gpxtpx:TrackPointExtension>
        </extensions>
      </trkpt>
      <trkpt lat="50.51869" lon="2.59504">
        <ele>36.4</ele>
        <time>2021-06-24T16:04:42Z</time>
        <extensions>
          <gpxtpx:TrackPointExtension xmlns:gpxtpx="http://www.garmin.com/xmlschemas/TrackPointExtension/v1">
            <gpxtpx:hr>122</gpxtpx:hr>
          </gpxtpx:TrackPointExtension>
        </extensions>
      </trkpt>
      <trkpt lat="50.51871" lon="2.59506">
        <ele>36.4</ele>
        <time>2021-06-24T16:04:43Z</time>
        <extensions>
          <gpxtpx:TrackPointExtension xmlns:gpxtpx="http://www.garmin.com/xmlschemas/TrackPointExtension/v1">
            <gpxtpx:hr>122</gpxtpx:hr>
          </gpxtpx:TrackPointExtension>
        </extensions>
      </trkpt>
      <trkpt lat="50.51871" lon="2.59509">
        <ele>36.4</ele>
        <time>2021-06-24T16:04:44Z</time>
        <extensions>
          <gpxtpx:TrackPointExtension xmlns:gpxtpx="http://www.garmin.com/xmlschemas/TrackPointExtension/v1">
            <gpxtpx:hr>121</gpxtpx:hr>
          </gpxtpx:TrackPointExtension>
        </extensions>
      </trkpt>
      <trkpt lat="50.51871" lon="2.59512">
        <ele>36.4</ele>
        <time>2021-06-24T16:04:45Z</time>
        <extensions>
          <gpxtpx:TrackPointExtension xmlns:gpxtpx="http://www.garmin.com/xmlschemas/TrackPointExtension/v1">
            <gpxtpx:hr>120</gpxtpx:hr>
          </gpxtpx:TrackPointExtension>
        </extensions>
      </trkpt>
      <trkpt lat="50.51873" lon="2.59519">
        <ele>36.6</ele>
        <time>2021-06-24T16:04:47Z</time>
        <extensions>
          <gpxtpx:TrackPointExtension xmlns:gpxtpx="http://www.garmin.com/xmlschemas/TrackPointExtension/v1">
            <gpxtpx:hr>119</gpxtpx:hr>
          </gpxtpx:TrackPointExtension>
        </extensions>
      </trkpt>
      <trkpt lat="50.51874" lon="2.59521">
        <ele>36.6</ele>
        <time>2021-06-24T16:04:48Z</time>
        <extensions>
          <gpxtpx:TrackPointExtension xmlns:gpxtpx="http://www.garmin.com/xmlschemas/TrackPointExtension/v1">
            <gpxtpx:hr>118</gpxtpx:hr>
          </gpxtpx:TrackPointExtension>
        </extensions>
      </trkpt>
      <trkpt lat="50.51876" lon="2.59524">
        <ele>36.6</ele>
        <time>2021-06-24T16:04:49Z</time>
        <extensions>
          <gpxtpx:TrackPointExtension xmlns:gpxtpx="http://www.garmin.com/xmlschemas/TrackPointExtension/v1">
            <gpxtpx:hr>118</gpxtpx:hr>
          </gpxtpx:TrackPointExtension>
        </extensions>
      </trkpt>
      <trkpt lat="50.51878" lon="2.59526">
        <ele>36.6</ele>
        <time>2021-06-24T16:04:50Z</time>
        <extensions>
          <gpxtpx:TrackPointExtension xmlns:gpxtpx="http://www.garmin.com/xmlschemas/TrackPointExtension/v1">
            <gpxtpx:hr>117</gpxtpx:hr>
          </gpxtpx:TrackPointExtension>
        </extensions>
      </trkpt>
      <trkpt lat="50.51881" lon="2.59527">
        <ele>36.6</ele>
        <time>2021-06-24T16:04:51Z</time>
        <extensions>
          <gpxtpx:TrackPointExtension xmlns:gpxtpx="http://www.garmin.com/xmlschemas/TrackPointExtension/v1">
            <gpxtpx:hr>117</gpxtpx:hr>
          </gpxtpx:TrackPointExtension>
        </extensions>
      </trkpt>
      <trkpt lat="50.51883" lon="2.59528">
        <ele>36.6</ele>
        <time>2021-06-24T16:04:52Z</time>
        <extensions>
          <gpxtpx:TrackPointExtension xmlns:gpxtpx="http://www.garmin.com/xmlschemas/TrackPointExtension/v1">
            <gpxtpx:hr>116</gpxtpx:hr>
          </gpxtpx:TrackPointExtension>
        </extensions>
      </trkpt>
      <trkpt lat="50.51886" lon="2.59528">
        <ele>36.6</ele>
        <time>2021-06-24T16:04:53Z</time>
        <extensions>
          <gpxtpx:TrackPointExtension xmlns:gpxtpx="http://www.garmin.com/xmlschemas/TrackPointExtension/v1">
            <gpxtpx:hr>115</gpxtpx:hr>
          </gpxtpx:TrackPointExtension>
        </extensions>
      </trkpt>
      <trkpt lat="50.51889" lon="2.59529">
        <ele>36.8</ele>
        <time>2021-06-24T16:04:54Z</time>
        <extensions>
          <gpxtpx:TrackPointExtension xmlns:gpxtpx="http://www.garmin.com/xmlschemas/TrackPointExtension/v1">
            <gpxtpx:hr>114</gpxtpx:hr>
          </gpxtpx:TrackPointExtension>
        </extensions>
      </trkpt>
      <trkpt lat="50.5189" lon="2.59531">
        <ele>36.8</ele>
        <time>2021-06-24T16:04:55Z</time>
        <extensions>
          <gpxtpx:TrackPointExtension xmlns:gpxtpx="http://www.garmin.com/xmlschemas/TrackPointExtension/v1">
            <gpxtpx:hr>114</gpxtpx:hr>
          </gpxtpx:TrackPointExtension>
        </extensions>
      </trkpt>
      <trkpt lat="50.51891" lon="2.59534">
        <ele>36.8</ele>
        <time>2021-06-24T16:04:56Z</time>
        <extensions>
          <gpxtpx:TrackPointExtension xmlns:gpxtpx="http://www.garmin.com/xmlschemas/TrackPointExtension/v1">
            <gpxtpx:hr>113</gpxtpx:hr>
          </gpxtpx:TrackPointExtension>
        </extensions>
      </trkpt>
      <trkpt lat="50.51893" lon="2.59537">
        <ele>36.8</ele>
        <time>2021-06-24T16:04:57Z</time>
        <extensions>
          <gpxtpx:TrackPointExtension xmlns:gpxtpx="http://www.garmin.com/xmlschemas/TrackPointExtension/v1">
            <gpxtpx:hr>113</gpxtpx:hr>
          </gpxtpx:TrackPointExtension>
        </extensions>
      </trkpt>
      <trkpt lat="50.51895" lon="2.59539">
        <ele>36.8</ele>
        <time>2021-06-24T16:04:58Z</time>
        <extensions>
          <gpxtpx:TrackPointExtension xmlns:gpxtpx="http://www.garmin.com/xmlschemas/TrackPointExtension/v1">
            <gpxtpx:hr>113</gpxtpx:hr>
          </gpxtpx:TrackPointExtension>
        </extensions>
      </trkpt>
      <trkpt lat="50.51896" lon="2.59541">
        <ele>37</ele>
        <time>2021-06-24T16:04:59Z</time>
        <extensions>
          <gpxtpx:TrackPointExtension xmlns:gpxtpx="http://www.garmin.com/xmlschemas/TrackPointExtension/v1">
            <gpxtpx:hr>113</gpxtpx:hr>
          </gpxtpx:TrackPointExtension>
        </extensions>
      </trkpt>
      <trkpt lat="50.51898" lon="2.59542">
        <ele>37</ele>
        <time>2021-06-24T16:05:00Z</time>
        <extensions>
          <gpxtpx:TrackPointExtension xmlns:gpxtpx="http://www.garmin.com/xmlschemas/TrackPointExtension/v1">
            <gpxtpx:hr>113</gpxtpx:hr>
          </gpxtpx:TrackPointExtension>
        </extensions>
      </trkpt>
      <trkpt lat="50.519" lon="2.59543">
        <ele>37</ele>
        <time>2021-06-24T16:05:01Z</time>
        <extensions>
          <gpxtpx:TrackPointExtension xmlns:gpxtpx="http://www.garmin.com/xmlschemas/TrackPointExtension/v1">
            <gpxtpx:hr>114</gpxtpx:hr>
          </gpxtpx:TrackPointExtension>
        </extensions>
      </trkpt>
      <trkpt lat="50.51902" lon="2.59544">
        <ele>37</ele>
        <time>2021-06-24T16:05:02Z</time>
        <extensions>
          <gpxtpx:TrackPointExtension xmlns:gpxtpx="http://www.garmin.com/xmlschemas/TrackPointExtension/v1">
            <gpxtpx:hr>114</gpxtpx:hr>
          </gpxtpx:TrackPointExtension>
        </extensions>
      </trkpt>
      <trkpt lat="50.51904" lon="2.59547">
        <ele>37</ele>
        <time>2021-06-24T16:05:03Z</time>
        <extensions>
          <gpxtpx:TrackPointExtension xmlns:gpxtpx="http://www.garmin.com/xmlschemas/TrackPointExtension/v1">
            <gpxtpx:hr>114</gpxtpx:hr>
          </gpxtpx:TrackPointExtension>
        </extensions>
      </trkpt>
      <trkpt lat="50.51906" lon="2.59549">
        <ele>37</ele>
        <time>2021-06-24T16:05:04Z</time>
        <extensions>
          <gpxtpx:TrackPointExtension xmlns:gpxtpx="http://www.garmin.com/xmlschemas/TrackPointExtension/v1">
            <gpxtpx:hr>115</gpxtpx:hr>
          </gpxtpx:TrackPointExtension>
        </extensions>
      </trkpt>
      <trkpt lat="50.51908" lon="2.59551">
        <ele>37</ele>
        <time>2021-06-24T16:05:05Z</time>
        <extensions>
          <gpxtpx:TrackPointExtension xmlns:gpxtpx="http://www.garmin.com/xmlschemas/TrackPointExtension/v1">
            <gpxtpx:hr>115</gpxtpx:hr>
          </gpxtpx:TrackPointExtension>
        </extensions>
      </trkpt>
      <trkpt lat="50.5191" lon="2.59553">
        <ele>37</ele>
        <time>2021-06-24T16:05:06Z</time>
        <extensions>
          <gpxtpx:TrackPointExtension xmlns:gpxtpx="http://www.garmin.com/xmlschemas/TrackPointExtension/v1">
            <gpxtpx:hr>116</gpxtpx:hr>
          </gpxtpx:TrackPointExtension>
        </extensions>
      </trkpt>
      <trkpt lat="50.51913" lon="2.59555">
        <ele>37</ele>
        <time>2021-06-24T16:05:07Z</time>
        <extensions>
          <gpxtpx:TrackPointExtension xmlns:gpxtpx="http://www.garmin.com/xmlschemas/TrackPointExtension/v1">
            <gpxtpx:hr>116</gpxtpx:hr>
          </gpxtpx:TrackPointExtension>
        </extensions>
      </trkpt>
      <trkpt lat="50.51914" lon="2.59556">
        <ele>37</ele>
        <time>2021-06-24T16:05:08Z</time>
        <extensions>
          <gpxtpx:TrackPointExtension xmlns:gpxtpx="http://www.garmin.com/xmlschemas/TrackPointExtension/v1">
            <gpxtpx:hr>117</gpxtpx:hr>
          </gpxtpx:TrackPointExtension>
        </extensions>
      </trkpt>
      <trkpt lat="50.51916" lon="2.59559">
        <ele>37</ele>
        <time>2021-06-24T16:05:09Z</time>
        <extensions>
          <gpxtpx:TrackPointExtension xmlns:gpxtpx="http://www.garmin.com/xmlschemas/TrackPointExtension/v1">
            <gpxtpx:hr>117</gpxtpx:hr>
          </gpxtpx:TrackPointExtension>
        </extensions>
      </trkpt>
      <trkpt lat="50.51918" lon="2.59561">
        <ele>37</ele>
        <time>2021-06-24T16:05:10Z</time>
        <extensions>
          <gpxtpx:TrackPointExtension xmlns:gpxtpx="http://www.garmin.com/xmlschemas/TrackPointExtension/v1">
            <gpxtpx:hr>118</gpxtpx:hr>
          </gpxtpx:TrackPointExtension>
        </extensions>
      </trkpt>
      <trkpt lat="50.51921" lon="2.59562">
        <ele>37</ele>
        <time>2021-06-24T16:05:11Z</time>
        <extensions>
          <gpxtpx:TrackPointExtension xmlns:gpxtpx="http://www.garmin.com/xmlschemas/TrackPointExtension/v1">
            <gpxtpx:hr>118</gpxtpx:hr>
          </gpxtpx:TrackPointExtension>
        </extensions>
      </trkpt>
      <trkpt lat="50.51924" lon="2.59564">
        <ele>37.2</ele>
        <time>2021-06-24T16:05:12Z</time>
        <extensions>
          <gpxtpx:TrackPointExtension xmlns:gpxtpx="http://www.garmin.com/xmlschemas/TrackPointExtension/v1">
            <gpxtpx:hr>118</gpxtpx:hr>
          </gpxtpx:TrackPointExtension>
        </extensions>
      </trkpt>
      <trkpt lat="50.51926" lon="2.59565">
        <ele>37.2</ele>
        <time>2021-06-24T16:05:13Z</time>
        <extensions>
          <gpxtpx:TrackPointExtension xmlns:gpxtpx="http://www.garmin.com/xmlschemas/TrackPointExtension/v1">
            <gpxtpx:hr>118</gpxtpx:hr>
          </gpxtpx:TrackPointExtension>
        </extensions>
      </trkpt>
      <trkpt lat="50.51928" lon="2.59567">
        <ele>37.2</ele>
        <time>2021-06-24T16:05:14Z</time>
        <extensions>
          <gpxtpx:TrackPointExtension xmlns:gpxtpx="http://www.garmin.com/xmlschemas/TrackPointExtension/v1">
            <gpxtpx:hr>118</gpxtpx:hr>
          </gpxtpx:TrackPointExtension>
        </extensions>
      </trkpt>
      <trkpt lat="50.51932" lon="2.59568">
        <ele>37.4</ele>
        <time>2021-06-24T16:05:15Z</time>
        <extensions>
          <gpxtpx:TrackPointExtension xmlns:gpxtpx="http://www.garmin.com/xmlschemas/TrackPointExtension/v1">
            <gpxtpx:hr>119</gpxtpx:hr>
          </gpxtpx:TrackPointExtension>
        </extensions>
      </trkpt>
      <trkpt lat="50.51934" lon="2.59569">
        <ele>37.4</ele>
        <time>2021-06-24T16:05:16Z</time>
        <extensions>
          <gpxtpx:TrackPointExtension xmlns:gpxtpx="http://www.garmin.com/xmlschemas/TrackPointExtension/v1">
            <gpxtpx:hr>120</gpxtpx:hr>
          </gpxtpx:TrackPointExtension>
        </extensions>
      </trkpt>
      <trkpt lat="50.51937" lon="2.59571">
        <ele>37.6</ele>
        <time>2021-06-24T16:05:17Z</time>
        <extensions>
          <gpxtpx:TrackPointExtension xmlns:gpxtpx="http://www.garmin.com/xmlschemas/TrackPointExtension/v1">
            <gpxtpx:hr>120</gpxtpx:hr>
          </gpxtpx:TrackPointExtension>
        </extensions>
      </trkpt>
      <trkpt lat="50.5194" lon="2.59571">
        <ele>37.6</ele>
        <time>2021-06-24T16:05:18Z</time>
        <extensions>
          <gpxtpx:TrackPointExtension xmlns:gpxtpx="http://www.garmin.com/xmlschemas/TrackPointExtension/v1">
            <gpxtpx:hr>121</gpxtpx:hr>
          </gpxtpx:TrackPointExtension>
        </extensions>
      </trkpt>
      <trkpt lat="50.51943" lon="2.59573">
        <ele>37.8</ele>
        <time>2021-06-24T16:05:19Z</time>
        <extensions>
          <gpxtpx:TrackPointExtension xmlns:gpxtpx="http://www.garmin.com/xmlschemas/TrackPointExtension/v1">
            <gpxtpx:hr>122</gpxtpx:hr>
          </gpxtpx:TrackPointExtension>
        </extensions>
      </trkpt>
      <trkpt lat="50.51947" lon="2.59574">
        <ele>37.8</ele>
        <time>2021-06-24T16:05:20Z</time>
        <extensions>
          <gpxtpx:TrackPointExtension xmlns:gpxtpx="http://www.garmin.com/xmlschemas/TrackPointExtension/v1">
            <gpxtpx:hr>124</gpxtpx:hr>
          </gpxtpx:TrackPointExtension>
        </extensions>
      </trkpt>
      <trkpt lat="50.5195" lon="2.59576">
        <ele>37.8</ele>
        <time>2021-06-24T16:05:21Z</time>
        <extensions>
          <gpxtpx:TrackPointExtension xmlns:gpxtpx="http://www.garmin.com/xmlschemas/TrackPointExtension/v1">
            <gpxtpx:hr>125</gpxtpx:hr>
          </gpxtpx:TrackPointExtension>
        </extensions>
      </trkpt>
      <trkpt lat="50.51955" lon="2.59577">
        <ele>37.8</ele>
        <time>2021-06-24T16:05:22Z</time>
        <extensions>
          <gpxtpx:TrackPointExtension xmlns:gpxtpx="http://www.garmin.com/xmlschemas/TrackPointExtension/v1">
            <gpxtpx:hr>125</gpxtpx:hr>
          </gpxtpx:TrackPointExtension>
        </extensions>
      </trkpt>
      <trkpt lat="50.51958" lon="2.59578">
        <ele>37.8</ele>
        <time>2021-06-24T16:05:23Z</time>
        <extensions>
          <gpxtpx:TrackPointExtension xmlns:gpxtpx="http://www.garmin.com/xmlschemas/TrackPointExtension/v1">
            <gpxtpx:hr>125</gpxtpx:hr>
          </gpxtpx:TrackPointExtension>
        </extensions>
      </trkpt>
      <trkpt lat="50.51962" lon="2.59578">
        <ele>37.8</ele>
        <time>2021-06-24T16:05:24Z</time>
        <extensions>
          <gpxtpx:TrackPointExtension xmlns:gpxtpx="http://www.garmin.com/xmlschemas/TrackPointExtension/v1">
            <gpxtpx:hr>126</gpxtpx:hr>
          </gpxtpx:TrackPointExtension>
        </extensions>
      </trkpt>
      <trkpt lat="50.51965" lon="2.59579">
        <ele>37.8</ele>
        <time>2021-06-24T16:05:25Z</time>
        <extensions>
          <gpxtpx:TrackPointExtension xmlns:gpxtpx="http://www.garmin.com/xmlschemas/TrackPointExtension/v1">
            <gpxtpx:hr>127</gpxtpx:hr>
          </gpxtpx:TrackPointExtension>
        </extensions>
      </trkpt>
      <trkpt lat="50.51968" lon="2.5958">
        <ele>38</ele>
        <time>2021-06-24T16:05:26Z</time>
        <extensions>
          <gpxtpx:TrackPointExtension xmlns:gpxtpx="http://www.garmin.com/xmlschemas/TrackPointExtension/v1">
            <gpxtpx:hr>128</gpxtpx:hr>
          </gpxtpx:TrackPointExtension>
        </extensions>
      </trkpt>
      <trkpt lat="50.51972" lon="2.59581">
        <ele>38</ele>
        <time>2021-06-24T16:05:27Z</time>
        <extensions>
          <gpxtpx:TrackPointExtension xmlns:gpxtpx="http://www.garmin.com/xmlschemas/TrackPointExtension/v1">
            <gpxtpx:hr>128</gpxtpx:hr>
          </gpxtpx:TrackPointExtension>
        </extensions>
      </trkpt>
      <trkpt lat="50.51976" lon="2.59583">
        <ele>38</ele>
        <time>2021-06-24T16:05:28Z</time>
        <extensions>
          <gpxtpx:TrackPointExtension xmlns:gpxtpx="http://www.garmin.com/xmlschemas/TrackPointExtension/v1">
            <gpxtpx:hr>129</gpxtpx:hr>
          </gpxtpx:TrackPointExtension>
        </extensions>
      </trkpt>
      <trkpt lat="50.51979" lon="2.59585">
        <ele>38</ele>
        <time>2021-06-24T16:05:29Z</time>
        <extensions>
          <gpxtpx:TrackPointExtension xmlns:gpxtpx="http://www.garmin.com/xmlschemas/TrackPointExtension/v1">
            <gpxtpx:hr>130</gpxtpx:hr>
          </gpxtpx:TrackPointExtension>
        </extensions>
      </trkpt>
      <trkpt lat="50.51981" lon="2.59589">
        <ele>38.2</ele>
        <time>2021-06-24T16:05:30Z</time>
        <extensions>
          <gpxtpx:TrackPointExtension xmlns:gpxtpx="http://www.garmin.com/xmlschemas/TrackPointExtension/v1">
            <gpxtpx:hr>130</gpxtpx:hr>
          </gpxtpx:TrackPointExtension>
        </extensions>
      </trkpt>
      <trkpt lat="50.51984" lon="2.59592">
        <ele>38.2</ele>
        <time>2021-06-24T16:05:31Z</time>
        <extensions>
          <gpxtpx:TrackPointExtension xmlns:gpxtpx="http://www.garmin.com/xmlschemas/TrackPointExtension/v1">
            <gpxtpx:hr>131</gpxtpx:hr>
          </gpxtpx:TrackPointExtension>
        </extensions>
      </trkpt>
      <trkpt lat="50.51987" lon="2.59596">
        <ele>38.4</ele>
        <time>2021-06-24T16:05:33Z</time>
        <extensions>
          <gpxtpx:TrackPointExtension xmlns:gpxtpx="http://www.garmin.com/xmlschemas/TrackPointExtension/v1">
            <gpxtpx:hr>132</gpxtpx:hr>
          </gpxtpx:TrackPointExtension>
        </extensions>
      </trkpt>
      <trkpt lat="50.51987" lon="2.59597">
        <ele>38.4</ele>
        <time>2021-06-24T16:05:34Z</time>
        <extensions>
          <gpxtpx:TrackPointExtension xmlns:gpxtpx="http://www.garmin.com/xmlschemas/TrackPointExtension/v1">
            <gpxtpx:hr>132</gpxtpx:hr>
          </gpxtpx:TrackPointExtension>
        </extensions>
      </trkpt>
      <trkpt lat="50.51988" lon="2.596">
        <ele>38.6</ele>
        <time>2021-06-24T16:05:35Z</time>
        <extensions>
          <gpxtpx:TrackPointExtension xmlns:gpxtpx="http://www.garmin.com/xmlschemas/TrackPointExtension/v1">
            <gpxtpx:hr>132</gpxtpx:hr>
          </gpxtpx:TrackPointExtension>
        </extensions>
      </trkpt>
      <trkpt lat="50.51988" lon="2.59603">
        <ele>38.6</ele>
        <time>2021-06-24T16:05:36Z</time>
        <extensions>
          <gpxtpx:TrackPointExtension xmlns:gpxtpx="http://www.garmin.com/xmlschemas/TrackPointExtension/v1">
            <gpxtpx:hr>132</gpxtpx:hr>
          </gpxtpx:TrackPointExtension>
        </extensions>
      </trkpt>
      <trkpt lat="50.51989" lon="2.59607">
        <ele>38.8</ele>
        <time>2021-06-24T16:05:37Z</time>
        <extensions>
          <gpxtpx:TrackPointExtension xmlns:gpxtpx="http://www.garmin.com/xmlschemas/TrackPointExtension/v1">
            <gpxtpx:hr>132</gpxtpx:hr>
          </gpxtpx:TrackPointExtension>
        </extensions>
      </trkpt>
      <trkpt lat="50.51989" lon="2.5961">
        <ele>38.8</ele>
        <time>2021-06-24T16:05:38Z</time>
        <extensions>
          <gpxtpx:TrackPointExtension xmlns:gpxtpx="http://www.garmin.com/xmlschemas/TrackPointExtension/v1">
            <gpxtpx:hr>132</gpxtpx:hr>
          </gpxtpx:TrackPointExtension>
        </extensions>
      </trkpt>
      <trkpt lat="50.51988" lon="2.59614">
        <ele>38.8</ele>
        <time>2021-06-24T16:05:39Z</time>
        <extensions>
          <gpxtpx:TrackPointExtension xmlns:gpxtpx="http://www.garmin.com/xmlschemas/TrackPointExtension/v1">
            <gpxtpx:hr>132</gpxtpx:hr>
          </gpxtpx:TrackPointExtension>
        </extensions>
      </trkpt>
      <trkpt lat="50.51988" lon="2.59617">
        <ele>39</ele>
        <time>2021-06-24T16:05:40Z</time>
        <extensions>
          <gpxtpx:TrackPointExtension xmlns:gpxtpx="http://www.garmin.com/xmlschemas/TrackPointExtension/v1">
            <gpxtpx:hr>132</gpxtpx:hr>
          </gpxtpx:TrackPointExtension>
        </extensions>
      </trkpt>
      <trkpt lat="50.51989" lon="2.5962">
        <ele>39</ele>
        <time>2021-06-24T16:05:41Z</time>
        <extensions>
          <gpxtpx:TrackPointExtension xmlns:gpxtpx="http://www.garmin.com/xmlschemas/TrackPointExtension/v1">
            <gpxtpx:hr>131</gpxtpx:hr>
          </gpxtpx:TrackPointExtension>
        </extensions>
      </trkpt>
      <trkpt lat="50.51991" lon="2.59623">
        <ele>39</ele>
        <time>2021-06-24T16:05:42Z</time>
        <extensions>
          <gpxtpx:TrackPointExtension xmlns:gpxtpx="http://www.garmin.com/xmlschemas/TrackPointExtension/v1">
            <gpxtpx:hr>131</gpxtpx:hr>
          </gpxtpx:TrackPointExtension>
        </extensions>
      </trkpt>
      <trkpt lat="50.51994" lon="2.59626">
        <ele>39</ele>
        <time>2021-06-24T16:05:43Z</time>
        <extensions>
          <gpxtpx:TrackPointExtension xmlns:gpxtpx="http://www.garmin.com/xmlschemas/TrackPointExtension/v1">
            <gpxtpx:hr>131</gpxtpx:hr>
          </gpxtpx:TrackPointExtension>
        </extensions>
      </trkpt>
      <trkpt lat="50.51997" lon="2.59627">
        <ele>39</ele>
        <time>2021-06-24T16:05:44Z</time>
        <extensions>
          <gpxtpx:TrackPointExtension xmlns:gpxtpx="http://www.garmin.com/xmlschemas/TrackPointExtension/v1">
            <gpxtpx:hr>131</gpxtpx:hr>
          </gpxtpx:TrackPointExtension>
        </extensions>
      </trkpt>
      <trkpt lat="50.52001" lon="2.59628">
        <ele>39</ele>
        <time>2021-06-24T16:05:45Z</time>
        <extensions>
          <gpxtpx:TrackPointExtension xmlns:gpxtpx="http://www.garmin.com/xmlschemas/TrackPointExtension/v1">
            <gpxtpx:hr>130</gpxtpx:hr>
          </gpxtpx:TrackPointExtension>
        </extensions>
      </trkpt>
      <trkpt lat="50.52004" lon="2.59629">
        <ele>39</ele>
        <time>2021-06-24T16:05:46Z</time>
        <extensions>
          <gpxtpx:TrackPointExtension xmlns:gpxtpx="http://www.garmin.com/xmlschemas/TrackPointExtension/v1">
            <gpxtpx:hr>130</gpxtpx:hr>
          </gpxtpx:TrackPointExtension>
        </extensions>
      </trkpt>
      <trkpt lat="50.52007" lon="2.5963">
        <ele>39</ele>
        <time>2021-06-24T16:05:47Z</time>
        <extensions>
          <gpxtpx:TrackPointExtension xmlns:gpxtpx="http://www.garmin.com/xmlschemas/TrackPointExtension/v1">
            <gpxtpx:hr>130</gpxtpx:hr>
          </gpxtpx:TrackPointExtension>
        </extensions>
      </trkpt>
      <trkpt lat="50.5201" lon="2.59632">
        <ele>39</ele>
        <time>2021-06-24T16:05:48Z</time>
        <extensions>
          <gpxtpx:TrackPointExtension xmlns:gpxtpx="http://www.garmin.com/xmlschemas/TrackPointExtension/v1">
            <gpxtpx:hr>130</gpxtpx:hr>
          </gpxtpx:TrackPointExtension>
        </extensions>
      </trkpt>
      <trkpt lat="50.52013" lon="2.59634">
        <ele>39</ele>
        <time>2021-06-24T16:05:49Z</time>
        <extensions>
          <gpxtpx:TrackPointExtension xmlns:gpxtpx="http://www.garmin.com/xmlschemas/TrackPointExtension/v1">
            <gpxtpx:hr>129</gpxtpx:hr>
          </gpxtpx:TrackPointExtension>
        </extensions>
      </trkpt>
      <trkpt lat="50.52017" lon="2.59636">
        <ele>38.8</ele>
        <time>2021-06-24T16:05:50Z</time>
        <extensions>
          <gpxtpx:TrackPointExtension xmlns:gpxtpx="http://www.garmin.com/xmlschemas/TrackPointExtension/v1">
            <gpxtpx:hr>129</gpxtpx:hr>
          </gpxtpx:TrackPointExtension>
        </extensions>
      </trkpt>
      <trkpt lat="50.52021" lon="2.59638">
        <ele>38.8</ele>
        <time>2021-06-24T16:05:51Z</time>
        <extensions>
          <gpxtpx:TrackPointExtension xmlns:gpxtpx="http://www.garmin.com/xmlschemas/TrackPointExtension/v1">
            <gpxtpx:hr>129</gpxtpx:hr>
          </gpxtpx:TrackPointExtension>
        </extensions>
      </trkpt>
      <trkpt lat="50.52025" lon="2.5964">
        <ele>38.8</ele>
        <time>2021-06-24T16:05:52Z</time>
        <extensions>
          <gpxtpx:TrackPointExtension xmlns:gpxtpx="http://www.garmin.com/xmlschemas/TrackPointExtension/v1">
            <gpxtpx:hr>129</gpxtpx:hr>
          </gpxtpx:TrackPointExtension>
        </extensions>
      </trkpt>
      <trkpt lat="50.52029" lon="2.59642">
        <ele>38.8</ele>
        <time>2021-06-24T16:05:53Z</time>
        <extensions>
          <gpxtpx:TrackPointExtension xmlns:gpxtpx="http://www.garmin.com/xmlschemas/TrackPointExtension/v1">
            <gpxtpx:hr>129</gpxtpx:hr>
          </gpxtpx:TrackPointExtension>
        </extensions>
      </trkpt>
      <trkpt lat="50.52034" lon="2.59644">
        <ele>38.8</ele>
        <time>2021-06-24T16:05:54Z</time>
        <extensions>
          <gpxtpx:TrackPointExtension xmlns:gpxtpx="http://www.garmin.com/xmlschemas/TrackPointExtension/v1">
            <gpxtpx:hr>129</gpxtpx:hr>
          </gpxtpx:TrackPointExtension>
        </extensions>
      </trkpt>
      <trkpt lat="50.52038" lon="2.59647">
        <ele>38.8</ele>
        <time>2021-06-24T16:05:55Z</time>
        <extensions>
          <gpxtpx:TrackPointExtension xmlns:gpxtpx="http://www.garmin.com/xmlschemas/TrackPointExtension/v1">
            <gpxtpx:hr>129</gpxtpx:hr>
          </gpxtpx:TrackPointExtension>
        </extensions>
      </trkpt>
      <trkpt lat="50.52044" lon="2.59651">
        <ele>38.8</ele>
        <time>2021-06-24T16:05:56Z</time>
        <extensions>
          <gpxtpx:TrackPointExtension xmlns:gpxtpx="http://www.garmin.com/xmlschemas/TrackPointExtension/v1">
            <gpxtpx:hr>129</gpxtpx:hr>
          </gpxtpx:TrackPointExtension>
        </extensions>
      </trkpt>
      <trkpt lat="50.52049" lon="2.59655">
        <ele>38.8</ele>
        <time>2021-06-24T16:05:57Z</time>
        <extensions>
          <gpxtpx:TrackPointExtension xmlns:gpxtpx="http://www.garmin.com/xmlschemas/TrackPointExtension/v1">
            <gpxtpx:hr>130</gpxtpx:hr>
          </gpxtpx:TrackPointExtension>
        </extensions>
      </trkpt>
      <trkpt lat="50.52053" lon="2.59658">
        <ele>38.8</ele>
        <time>2021-06-24T16:05:58Z</time>
        <extensions>
          <gpxtpx:TrackPointExtension xmlns:gpxtpx="http://www.garmin.com/xmlschemas/TrackPointExtension/v1">
            <gpxtpx:hr>130</gpxtpx:hr>
          </gpxtpx:TrackPointExtension>
        </extensions>
      </trkpt>
      <trkpt lat="50.52056" lon="2.59662">
        <ele>38.8</ele>
        <time>2021-06-24T16:05:59Z</time>
        <extensions>
          <gpxtpx:TrackPointExtension xmlns:gpxtpx="http://www.garmin.com/xmlschemas/TrackPointExtension/v1">
            <gpxtpx:hr>130</gpxtpx:hr>
          </gpxtpx:TrackPointExtension>
        </extensions>
      </trkpt>
      <trkpt lat="50.5206" lon="2.59665">
        <ele>38.8</ele>
        <time>2021-06-24T16:06:00Z</time>
        <extensions>
          <gpxtpx:TrackPointExtension xmlns:gpxtpx="http://www.garmin.com/xmlschemas/TrackPointExtension/v1">
            <gpxtpx:hr>130</gpxtpx:hr>
          </gpxtpx:TrackPointExtension>
        </extensions>
      </trkpt>
      <trkpt lat="50.52063" lon="2.59667">
        <ele>39</ele>
        <time>2021-06-24T16:06:01Z</time>
        <extensions>
          <gpxtpx:TrackPointExtension xmlns:gpxtpx="http://www.garmin.com/xmlschemas/TrackPointExtension/v1">
            <gpxtpx:hr>131</gpxtpx:hr>
          </gpxtpx:TrackPointExtension>
        </extensions>
      </trkpt>
      <trkpt lat="50.52067" lon="2.59671">
        <ele>39</ele>
        <time>2021-06-24T16:06:02Z</time>
        <extensions>
          <gpxtpx:TrackPointExtension xmlns:gpxtpx="http://www.garmin.com/xmlschemas/TrackPointExtension/v1">
            <gpxtpx:hr>131</gpxtpx:hr>
          </gpxtpx:TrackPointExtension>
        </extensions>
      </trkpt>
      <trkpt lat="50.5207" lon="2.59673">
        <ele>39</ele>
        <time>2021-06-24T16:06:03Z</time>
        <extensions>
          <gpxtpx:TrackPointExtension xmlns:gpxtpx="http://www.garmin.com/xmlschemas/TrackPointExtension/v1">
            <gpxtpx:hr>131</gpxtpx:hr>
          </gpxtpx:TrackPointExtension>
        </extensions>
      </trkpt>
      <trkpt lat="50.52073" lon="2.59675">
        <ele>39</ele>
        <time>2021-06-24T16:06:04Z</time>
        <extensions>
          <gpxtpx:TrackPointExtension xmlns:gpxtpx="http://www.garmin.com/xmlschemas/TrackPointExtension/v1">
            <gpxtpx:hr>131</gpxtpx:hr>
          </gpxtpx:TrackPointExtension>
        </extensions>
      </trkpt>
      <trkpt lat="50.52076" lon="2.59677">
        <ele>39</ele>
        <time>2021-06-24T16:06:05Z</time>
        <extensions>
          <gpxtpx:TrackPointExtension xmlns:gpxtpx="http://www.garmin.com/xmlschemas/TrackPointExtension/v1">
            <gpxtpx:hr>131</gpxtpx:hr>
          </gpxtpx:TrackPointExtension>
        </extensions>
      </trkpt>
      <trkpt lat="50.52081" lon="2.5968">
        <ele>39</ele>
        <time>2021-06-24T16:06:06Z</time>
        <extensions>
          <gpxtpx:TrackPointExtension xmlns:gpxtpx="http://www.garmin.com/xmlschemas/TrackPointExtension/v1">
            <gpxtpx:hr>131</gpxtpx:hr>
          </gpxtpx:TrackPointExtension>
        </extensions>
      </trkpt>
      <trkpt lat="50.52085" lon="2.59682">
        <ele>39</ele>
        <time>2021-06-24T16:06:07Z</time>
        <extensions>
          <gpxtpx:TrackPointExtension xmlns:gpxtpx="http://www.garmin.com/xmlschemas/TrackPointExtension/v1">
            <gpxtpx:hr>132</gpxtpx:hr>
          </gpxtpx:TrackPointExtension>
        </extensions>
      </trkpt>
      <trkpt lat="50.5209" lon="2.59685">
        <ele>39.2</ele>
        <time>2021-06-24T16:06:08Z</time>
        <extensions>
          <gpxtpx:TrackPointExtension xmlns:gpxtpx="http://www.garmin.com/xmlschemas/TrackPointExtension/v1">
            <gpxtpx:hr>132</gpxtpx:hr>
          </gpxtpx:TrackPointExtension>
        </extensions>
      </trkpt>
      <trkpt lat="50.52094" lon="2.59688">
        <ele>39.2</ele>
        <time>2021-06-24T16:06:09Z</time>
        <extensions>
          <gpxtpx:TrackPointExtension xmlns:gpxtpx="http://www.garmin.com/xmlschemas/TrackPointExtension/v1">
            <gpxtpx:hr>132</gpxtpx:hr>
          </gpxtpx:TrackPointExtension>
        </extensions>
      </trkpt>
      <trkpt lat="50.52098" lon="2.59691">
        <ele>39.2</ele>
        <time>2021-06-24T16:06:10Z</time>
        <extensions>
          <gpxtpx:TrackPointExtension xmlns:gpxtpx="http://www.garmin.com/xmlschemas/TrackPointExtension/v1">
            <gpxtpx:hr>132</gpxtpx:hr>
          </gpxtpx:TrackPointExtension>
        </extensions>
      </trkpt>
      <trkpt lat="50.52102" lon="2.59694">
        <ele>39.2</ele>
        <time>2021-06-24T16:06:11Z</time>
        <extensions>
          <gpxtpx:TrackPointExtension xmlns:gpxtpx="http://www.garmin.com/xmlschemas/TrackPointExtension/v1">
            <gpxtpx:hr>132</gpxtpx:hr>
          </gpxtpx:TrackPointExtension>
        </extensions>
      </trkpt>
      <trkpt lat="50.52107" lon="2.59697">
        <ele>39.2</ele>
        <time>2021-06-24T16:06:12Z</time>
        <extensions>
          <gpxtpx:TrackPointExtension xmlns:gpxtpx="http://www.garmin.com/xmlschemas/TrackPointExtension/v1">
            <gpxtpx:hr>132</gpxtpx:hr>
          </gpxtpx:TrackPointExtension>
        </extensions>
      </trkpt>
      <trkpt lat="50.52111" lon="2.597">
        <ele>39.2</ele>
        <time>2021-06-24T16:06:13Z</time>
        <extensions>
          <gpxtpx:TrackPointExtension xmlns:gpxtpx="http://www.garmin.com/xmlschemas/TrackPointExtension/v1">
            <gpxtpx:hr>131</gpxtpx:hr>
          </gpxtpx:TrackPointExtension>
        </extensions>
      </trkpt>
      <trkpt lat="50.52116" lon="2.59702">
        <ele>39.4</ele>
        <time>2021-06-24T16:06:14Z</time>
        <extensions>
          <gpxtpx:TrackPointExtension xmlns:gpxtpx="http://www.garmin.com/xmlschemas/TrackPointExtension/v1">
            <gpxtpx:hr>131</gpxtpx:hr>
          </gpxtpx:TrackPointExtension>
        </extensions>
      </trkpt>
      <trkpt lat="50.52121" lon="2.59704">
        <ele>39.4</ele>
        <time>2021-06-24T16:06:15Z</time>
        <extensions>
          <gpxtpx:TrackPointExtension xmlns:gpxtpx="http://www.garmin.com/xmlschemas/TrackPointExtension/v1">
            <gpxtpx:hr>131</gpxtpx:hr>
          </gpxtpx:TrackPointExtension>
        </extensions>
      </trkpt>
      <trkpt lat="50.52125" lon="2.59706">
        <ele>39.4</ele>
        <time>2021-06-24T16:06:16Z</time>
        <extensions>
          <gpxtpx:TrackPointExtension xmlns:gpxtpx="http://www.garmin.com/xmlschemas/TrackPointExtension/v1">
            <gpxtpx:hr>131</gpxtpx:hr>
          </gpxtpx:TrackPointExtension>
        </extensions>
      </trkpt>
      <trkpt lat="50.52131" lon="2.59708">
        <ele>39.4</ele>
        <time>2021-06-24T16:06:17Z</time>
        <extensions>
          <gpxtpx:TrackPointExtension xmlns:gpxtpx="http://www.garmin.com/xmlschemas/TrackPointExtension/v1">
            <gpxtpx:hr>130</gpxtpx:hr>
          </gpxtpx:TrackPointExtension>
        </extensions>
      </trkpt>
      <trkpt lat="50.52135" lon="2.59711">
        <ele>39.4</ele>
        <time>2021-06-24T16:06:18Z</time>
        <extensions>
          <gpxtpx:TrackPointExtension xmlns:gpxtpx="http://www.garmin.com/xmlschemas/TrackPointExtension/v1">
            <gpxtpx:hr>130</gpxtpx:hr>
          </gpxtpx:TrackPointExtension>
        </extensions>
      </trkpt>
      <trkpt lat="50.52139" lon="2.59714">
        <ele>39.4</ele>
        <time>2021-06-24T16:06:19Z</time>
        <extensions>
          <gpxtpx:TrackPointExtension xmlns:gpxtpx="http://www.garmin.com/xmlschemas/TrackPointExtension/v1">
            <gpxtpx:hr>130</gpxtpx:hr>
          </gpxtpx:TrackPointExtension>
        </extensions>
      </trkpt>
      <trkpt lat="50.52143" lon="2.59715">
        <ele>39.6</ele>
        <time>2021-06-24T16:06:20Z</time>
        <extensions>
          <gpxtpx:TrackPointExtension xmlns:gpxtpx="http://www.garmin.com/xmlschemas/TrackPointExtension/v1">
            <gpxtpx:hr>130</gpxtpx:hr>
          </gpxtpx:TrackPointExtension>
        </extensions>
      </trkpt>
      <trkpt lat="50.52147" lon="2.59717">
        <ele>39.6</ele>
        <time>2021-06-24T16:06:21Z</time>
        <extensions>
          <gpxtpx:TrackPointExtension xmlns:gpxtpx="http://www.garmin.com/xmlschemas/TrackPointExtension/v1">
            <gpxtpx:hr>130</gpxtpx:hr>
          </gpxtpx:TrackPointExtension>
        </extensions>
      </trkpt>
      <trkpt lat="50.52151" lon="2.59719">
        <ele>39.6</ele>
        <time>2021-06-24T16:06:22Z</time>
        <extensions>
          <gpxtpx:TrackPointExtension xmlns:gpxtpx="http://www.garmin.com/xmlschemas/TrackPointExtension/v1">
            <gpxtpx:hr>129</gpxtpx:hr>
          </gpxtpx:TrackPointExtension>
        </extensions>
      </trkpt>
      <trkpt lat="50.52156" lon="2.59722">
        <ele>39.6</ele>
        <time>2021-06-24T16:06:23Z</time>
        <extensions>
          <gpxtpx:TrackPointExtension xmlns:gpxtpx="http://www.garmin.com/xmlschemas/TrackPointExtension/v1">
            <gpxtpx:hr>129</gpxtpx:hr>
          </gpxtpx:TrackPointExtension>
        </extensions>
      </trkpt>
      <trkpt lat="50.5216" lon="2.59724">
        <ele>39.6</ele>
        <time>2021-06-24T16:06:24Z</time>
        <extensions>
          <gpxtpx:TrackPointExtension xmlns:gpxtpx="http://www.garmin.com/xmlschemas/TrackPointExtension/v1">
            <gpxtpx:hr>129</gpxtpx:hr>
          </gpxtpx:TrackPointExtension>
        </extensions>
      </trkpt>
      <trkpt lat="50.52165" lon="2.59726">
        <ele>39.8</ele>
        <time>2021-06-24T16:06:25Z</time>
        <extensions>
          <gpxtpx:TrackPointExtension xmlns:gpxtpx="http://www.garmin.com/xmlschemas/TrackPointExtension/v1">
            <gpxtpx:hr>129</gpxtpx:hr>
          </gpxtpx:TrackPointExtension>
        </extensions>
      </trkpt>
      <trkpt lat="50.52169" lon="2.59729">
        <ele>39.8</ele>
        <time>2021-06-24T16:06:26Z</time>
        <extensions>
          <gpxtpx:TrackPointExtension xmlns:gpxtpx="http://www.garmin.com/xmlschemas/TrackPointExtension/v1">
            <gpxtpx:hr>129</gpxtpx:hr>
          </gpxtpx:TrackPointExtension>
        </extensions>
      </trkpt>
      <trkpt lat="50.52173" lon="2.59732">
        <ele>39.8</ele>
        <time>2021-06-24T16:06:27Z</time>
        <extensions>
          <gpxtpx:TrackPointExtension xmlns:gpxtpx="http://www.garmin.com/xmlschemas/TrackPointExtension/v1">
            <gpxtpx:hr>129</gpxtpx:hr>
          </gpxtpx:TrackPointExtension>
        </extensions>
      </trkpt>
      <trkpt lat="50.52177" lon="2.59735">
        <ele>40</ele>
        <time>2021-06-24T16:06:28Z</time>
        <extensions>
          <gpxtpx:TrackPointExtension xmlns:gpxtpx="http://www.garmin.com/xmlschemas/TrackPointExtension/v1">
            <gpxtpx:hr>129</gpxtpx:hr>
          </gpxtpx:TrackPointExtension>
        </extensions>
      </trkpt>
      <trkpt lat="50.5218" lon="2.59738">
        <ele>40</ele>
        <time>2021-06-24T16:06:29Z</time>
        <extensions>
          <gpxtpx:TrackPointExtension xmlns:gpxtpx="http://www.garmin.com/xmlschemas/TrackPointExtension/v1">
            <gpxtpx:hr>129</gpxtpx:hr>
          </gpxtpx:TrackPointExtension>
        </extensions>
      </trkpt>
      <trkpt lat="50.52184" lon="2.59741">
        <ele>40</ele>
        <time>2021-06-24T16:06:30Z</time>
        <extensions>
          <gpxtpx:TrackPointExtension xmlns:gpxtpx="http://www.garmin.com/xmlschemas/TrackPointExtension/v1">
            <gpxtpx:hr>129</gpxtpx:hr>
          </gpxtpx:TrackPointExtension>
        </extensions>
      </trkpt>
      <trkpt lat="50.52187" lon="2.59741">
        <ele>40.2</ele>
        <time>2021-06-24T16:06:31Z</time>
        <extensions>
          <gpxtpx:TrackPointExtension xmlns:gpxtpx="http://www.garmin.com/xmlschemas/TrackPointExtension/v1">
            <gpxtpx:hr>129</gpxtpx:hr>
          </gpxtpx:TrackPointExtension>
        </extensions>
      </trkpt>
      <trkpt lat="50.5219" lon="2.59742">
        <ele>40.2</ele>
        <time>2021-06-24T16:06:32Z</time>
        <extensions>
          <gpxtpx:TrackPointExtension xmlns:gpxtpx="http://www.garmin.com/xmlschemas/TrackPointExtension/v1">
            <gpxtpx:hr>129</gpxtpx:hr>
          </gpxtpx:TrackPointExtension>
        </extensions>
      </trkpt>
      <trkpt lat="50.52194" lon="2.59743">
        <ele>40.2</ele>
        <time>2021-06-24T16:06:33Z</time>
        <extensions>
          <gpxtpx:TrackPointExtension xmlns:gpxtpx="http://www.garmin.com/xmlschemas/TrackPointExtension/v1">
            <gpxtpx:hr>129</gpxtpx:hr>
          </gpxtpx:TrackPointExtension>
        </extensions>
      </trkpt>
      <trkpt lat="50.52198" lon="2.59745">
        <ele>40.4</ele>
        <time>2021-06-24T16:06:34Z</time>
        <extensions>
          <gpxtpx:TrackPointExtension xmlns:gpxtpx="http://www.garmin.com/xmlschemas/TrackPointExtension/v1">
            <gpxtpx:hr>129</gpxtpx:hr>
          </gpxtpx:TrackPointExtension>
        </extensions>
      </trkpt>
      <trkpt lat="50.52202" lon="2.59746">
        <ele>40.4</ele>
        <time>2021-06-24T16:06:35Z</time>
        <extensions>
          <gpxtpx:TrackPointExtension xmlns:gpxtpx="http://www.garmin.com/xmlschemas/TrackPointExtension/v1">
            <gpxtpx:hr>128</gpxtpx:hr>
          </gpxtpx:TrackPointExtension>
        </extensions>
      </trkpt>
      <trkpt lat="50.52208" lon="2.59749">
        <ele>40.6</ele>
        <time>2021-06-24T16:06:36Z</time>
        <extensions>
          <gpxtpx:TrackPointExtension xmlns:gpxtpx="http://www.garmin.com/xmlschemas/TrackPointExtension/v1">
            <gpxtpx:hr>128</gpxtpx:hr>
          </gpxtpx:TrackPointExtension>
        </extensions>
      </trkpt>
      <trkpt lat="50.52213" lon="2.59751">
        <ele>40.6</ele>
        <time>2021-06-24T16:06:37Z</time>
        <extensions>
          <gpxtpx:TrackPointExtension xmlns:gpxtpx="http://www.garmin.com/xmlschemas/TrackPointExtension/v1">
            <gpxtpx:hr>128</gpxtpx:hr>
          </gpxtpx:TrackPointExtension>
        </extensions>
      </trkpt>
      <trkpt lat="50.52217" lon="2.59753">
        <ele>40.8</ele>
        <time>2021-06-24T16:06:38Z</time>
        <extensions>
          <gpxtpx:TrackPointExtension xmlns:gpxtpx="http://www.garmin.com/xmlschemas/TrackPointExtension/v1">
            <gpxtpx:hr>128</gpxtpx:hr>
          </gpxtpx:TrackPointExtension>
        </extensions>
      </trkpt>
      <trkpt lat="50.5222" lon="2.59755">
        <ele>40.8</ele>
        <time>2021-06-24T16:06:39Z</time>
        <extensions>
          <gpxtpx:TrackPointExtension xmlns:gpxtpx="http://www.garmin.com/xmlschemas/TrackPointExtension/v1">
            <gpxtpx:hr>128</gpxtpx:hr>
          </gpxtpx:TrackPointExtension>
        </extensions>
      </trkpt>
      <trkpt lat="50.52224" lon="2.59758">
        <ele>41</ele>
        <time>2021-06-24T16:06:40Z</time>
        <extensions>
          <gpxtpx:TrackPointExtension xmlns:gpxtpx="http://www.garmin.com/xmlschemas/TrackPointExtension/v1">
            <gpxtpx:hr>127</gpxtpx:hr>
          </gpxtpx:TrackPointExtension>
        </extensions>
      </trkpt>
      <trkpt lat="50.52228" lon="2.5976">
        <ele>41</ele>
        <time>2021-06-24T16:06:41Z</time>
        <extensions>
          <gpxtpx:TrackPointExtension xmlns:gpxtpx="http://www.garmin.com/xmlschemas/TrackPointExtension/v1">
            <gpxtpx:hr>127</gpxtpx:hr>
          </gpxtpx:TrackPointExtension>
        </extensions>
      </trkpt>
      <trkpt lat="50.5223" lon="2.59762">
        <ele>41.2</ele>
        <time>2021-06-24T16:06:42Z</time>
        <extensions>
          <gpxtpx:TrackPointExtension xmlns:gpxtpx="http://www.garmin.com/xmlschemas/TrackPointExtension/v1">
            <gpxtpx:hr>127</gpxtpx:hr>
          </gpxtpx:TrackPointExtension>
        </extensions>
      </trkpt>
      <trkpt lat="50.52234" lon="2.59763">
        <ele>41.2</ele>
        <time>2021-06-24T16:06:43Z</time>
        <extensions>
          <gpxtpx:TrackPointExtension xmlns:gpxtpx="http://www.garmin.com/xmlschemas/TrackPointExtension/v1">
            <gpxtpx:hr>127</gpxtpx:hr>
          </gpxtpx:TrackPointExtension>
        </extensions>
      </trkpt>
      <trkpt lat="50.52236" lon="2.59764">
        <ele>41.2</ele>
        <time>2021-06-24T16:06:44Z</time>
        <extensions>
          <gpxtpx:TrackPointExtension xmlns:gpxtpx="http://www.garmin.com/xmlschemas/TrackPointExtension/v1">
            <gpxtpx:hr>127</gpxtpx:hr>
          </gpxtpx:TrackPointExtension>
        </extensions>
      </trkpt>
      <trkpt lat="50.52239" lon="2.59766">
        <ele>41.4</ele>
        <time>2021-06-24T16:06:45Z</time>
        <extensions>
          <gpxtpx:TrackPointExtension xmlns:gpxtpx="http://www.garmin.com/xmlschemas/TrackPointExtension/v1">
            <gpxtpx:hr>127</gpxtpx:hr>
          </gpxtpx:TrackPointExtension>
        </extensions>
      </trkpt>
      <trkpt lat="50.52242" lon="2.59767">
        <ele>41.4</ele>
        <time>2021-06-24T16:06:46Z</time>
        <extensions>
          <gpxtpx:TrackPointExtension xmlns:gpxtpx="http://www.garmin.com/xmlschemas/TrackPointExtension/v1">
            <gpxtpx:hr>127</gpxtpx:hr>
          </gpxtpx:TrackPointExtension>
        </extensions>
      </trkpt>
      <trkpt lat="50.52247" lon="2.5977">
        <ele>41.6</ele>
        <time>2021-06-24T16:06:47Z</time>
        <extensions>
          <gpxtpx:TrackPointExtension xmlns:gpxtpx="http://www.garmin.com/xmlschemas/TrackPointExtension/v1">
            <gpxtpx:hr>127</gpxtpx:hr>
          </gpxtpx:TrackPointExtension>
        </extensions>
      </trkpt>
      <trkpt lat="50.52252" lon="2.59774">
        <ele>41.6</ele>
        <time>2021-06-24T16:06:48Z</time>
        <extensions>
          <gpxtpx:TrackPointExtension xmlns:gpxtpx="http://www.garmin.com/xmlschemas/TrackPointExtension/v1">
            <gpxtpx:hr>127</gpxtpx:hr>
          </gpxtpx:TrackPointExtension>
        </extensions>
      </trkpt>
      <trkpt lat="50.52255" lon="2.59775">
        <ele>41.8</ele>
        <time>2021-06-24T16:06:49Z</time>
        <extensions>
          <gpxtpx:TrackPointExtension xmlns:gpxtpx="http://www.garmin.com/xmlschemas/TrackPointExtension/v1">
            <gpxtpx:hr>127</gpxtpx:hr>
          </gpxtpx:TrackPointExtension>
        </extensions>
      </trkpt>
      <trkpt lat="50.52258" lon="2.59777">
        <ele>41.8</ele>
        <time>2021-06-24T16:06:50Z</time>
        <extensions>
          <gpxtpx:TrackPointExtension xmlns:gpxtpx="http://www.garmin.com/xmlschemas/TrackPointExtension/v1">
            <gpxtpx:hr>127</gpxtpx:hr>
          </gpxtpx:TrackPointExtension>
        </extensions>
      </trkpt>
      <trkpt lat="50.5226" lon="2.59779">
        <ele>42</ele>
        <time>2021-06-24T16:06:51Z</time>
        <extensions>
          <gpxtpx:TrackPointExtension xmlns:gpxtpx="http://www.garmin.com/xmlschemas/TrackPointExtension/v1">
            <gpxtpx:hr>127</gpxtpx:hr>
          </gpxtpx:TrackPointExtension>
        </extensions>
      </trkpt>
      <trkpt lat="50.52263" lon="2.59781">
        <ele>42</ele>
        <time>2021-06-24T16:06:52Z</time>
        <extensions>
          <gpxtpx:TrackPointExtension xmlns:gpxtpx="http://www.garmin.com/xmlschemas/TrackPointExtension/v1">
            <gpxtpx:hr>127</gpxtpx:hr>
          </gpxtpx:TrackPointExtension>
        </extensions>
      </trkpt>
      <trkpt lat="50.52266" lon="2.59783">
        <ele>42</ele>
        <time>2021-06-24T16:06:53Z</time>
        <extensions>
          <gpxtpx:TrackPointExtension xmlns:gpxtpx="http://www.garmin.com/xmlschemas/TrackPointExtension/v1">
            <gpxtpx:hr>127</gpxtpx:hr>
          </gpxtpx:TrackPointExtension>
        </extensions>
      </trkpt>
      <trkpt lat="50.52269" lon="2.59785">
        <ele>42</ele>
        <time>2021-06-24T16:06:54Z</time>
        <extensions>
          <gpxtpx:TrackPointExtension xmlns:gpxtpx="http://www.garmin.com/xmlschemas/TrackPointExtension/v1">
            <gpxtpx:hr>128</gpxtpx:hr>
          </gpxtpx:TrackPointExtension>
        </extensions>
      </trkpt>
      <trkpt lat="50.52272" lon="2.59787">
        <ele>42.2</ele>
        <time>2021-06-24T16:06:55Z</time>
        <extensions>
          <gpxtpx:TrackPointExtension xmlns:gpxtpx="http://www.garmin.com/xmlschemas/TrackPointExtension/v1">
            <gpxtpx:hr>128</gpxtpx:hr>
          </gpxtpx:TrackPointExtension>
        </extensions>
      </trkpt>
      <trkpt lat="50.52276" lon="2.59788">
        <ele>42.2</ele>
        <time>2021-06-24T16:06:56Z</time>
        <extensions>
          <gpxtpx:TrackPointExtension xmlns:gpxtpx="http://www.garmin.com/xmlschemas/TrackPointExtension/v1">
            <gpxtpx:hr>128</gpxtpx:hr>
          </gpxtpx:TrackPointExtension>
        </extensions>
      </trkpt>
      <trkpt lat="50.52282" lon="2.5979">
        <ele>42.2</ele>
        <time>2021-06-24T16:06:57Z</time>
        <extensions>
          <gpxtpx:TrackPointExtension xmlns:gpxtpx="http://www.garmin.com/xmlschemas/TrackPointExtension/v1">
            <gpxtpx:hr>128</gpxtpx:hr>
          </gpxtpx:TrackPointExtension>
        </extensions>
      </trkpt>
      <trkpt lat="50.52286" lon="2.59791">
        <ele>42.4</ele>
        <time>2021-06-24T16:06:58Z</time>
        <extensions>
          <gpxtpx:TrackPointExtension xmlns:gpxtpx="http://www.garmin.com/xmlschemas/TrackPointExtension/v1">
            <gpxtpx:hr>128</gpxtpx:hr>
          </gpxtpx:TrackPointExtension>
        </extensions>
      </trkpt>
      <trkpt lat="50.5229" lon="2.59793">
        <ele>42.4</ele>
        <time>2021-06-24T16:06:59Z</time>
        <extensions>
          <gpxtpx:TrackPointExtension xmlns:gpxtpx="http://www.garmin.com/xmlschemas/TrackPointExtension/v1">
            <gpxtpx:hr>127</gpxtpx:hr>
          </gpxtpx:TrackPointExtension>
        </extensions>
      </trkpt>
      <trkpt lat="50.52294" lon="2.59795">
        <ele>42.4</ele>
        <time>2021-06-24T16:07:00Z</time>
        <extensions>
          <gpxtpx:TrackPointExtension xmlns:gpxtpx="http://www.garmin.com/xmlschemas/TrackPointExtension/v1">
            <gpxtpx:hr>127</gpxtpx:hr>
          </gpxtpx:TrackPointExtension>
        </extensions>
      </trkpt>
      <trkpt lat="50.52299" lon="2.59797">
        <ele>42.6</ele>
        <time>2021-06-24T16:07:01Z</time>
        <extensions>
          <gpxtpx:TrackPointExtension xmlns:gpxtpx="http://www.garmin.com/xmlschemas/TrackPointExtension/v1">
            <gpxtpx:hr>127</gpxtpx:hr>
          </gpxtpx:TrackPointExtension>
        </extensions>
      </trkpt>
      <trkpt lat="50.52303" lon="2.59798">
        <ele>42.6</ele>
        <time>2021-06-24T16:07:02Z</time>
        <extensions>
          <gpxtpx:TrackPointExtension xmlns:gpxtpx="http://www.garmin.com/xmlschemas/TrackPointExtension/v1">
            <gpxtpx:hr>127</gpxtpx:hr>
          </gpxtpx:TrackPointExtension>
        </extensions>
      </trkpt>
      <trkpt lat="50.52308" lon="2.598">
        <ele>42.6</ele>
        <time>2021-06-24T16:07:03Z</time>
        <extensions>
          <gpxtpx:TrackPointExtension xmlns:gpxtpx="http://www.garmin.com/xmlschemas/TrackPointExtension/v1">
            <gpxtpx:hr>127</gpxtpx:hr>
          </gpxtpx:TrackPointExtension>
        </extensions>
      </trkpt>
      <trkpt lat="50.52312" lon="2.59802">
        <ele>42.8</ele>
        <time>2021-06-24T16:07:04Z</time>
        <extensions>
          <gpxtpx:TrackPointExtension xmlns:gpxtpx="http://www.garmin.com/xmlschemas/TrackPointExtension/v1">
            <gpxtpx:hr>127</gpxtpx:hr>
          </gpxtpx:TrackPointExtension>
        </extensions>
      </trkpt>
      <trkpt lat="50.52316" lon="2.59804">
        <ele>42.8</ele>
        <time>2021-06-24T16:07:05Z</time>
        <extensions>
          <gpxtpx:TrackPointExtension xmlns:gpxtpx="http://www.garmin.com/xmlschemas/TrackPointExtension/v1">
            <gpxtpx:hr>128</gpxtpx:hr>
          </gpxtpx:TrackPointExtension>
        </extensions>
      </trkpt>
      <trkpt lat="50.5232" lon="2.59807">
        <ele>42.8</ele>
        <time>2021-06-24T16:07:06Z</time>
        <extensions>
          <gpxtpx:TrackPointExtension xmlns:gpxtpx="http://www.garmin.com/xmlschemas/TrackPointExtension/v1">
            <gpxtpx:hr>128</gpxtpx:hr>
          </gpxtpx:TrackPointExtension>
        </extensions>
      </trkpt>
      <trkpt lat="50.52323" lon="2.59809">
        <ele>42.8</ele>
        <time>2021-06-24T16:07:07Z</time>
        <extensions>
          <gpxtpx:TrackPointExtension xmlns:gpxtpx="http://www.garmin.com/xmlschemas/TrackPointExtension/v1">
            <gpxtpx:hr>128</gpxtpx:hr>
          </gpxtpx:TrackPointExtension>
        </extensions>
      </trkpt>
      <trkpt lat="50.52327" lon="2.59811">
        <ele>42.8</ele>
        <time>2021-06-24T16:07:08Z</time>
        <extensions>
          <gpxtpx:TrackPointExtension xmlns:gpxtpx="http://www.garmin.com/xmlschemas/TrackPointExtension/v1">
            <gpxtpx:hr>128</gpxtpx:hr>
          </gpxtpx:TrackPointExtension>
        </extensions>
      </trkpt>
      <trkpt lat="50.52332" lon="2.59814">
        <ele>43</ele>
        <time>2021-06-24T16:07:09Z</time>
        <extensions>
          <gpxtpx:TrackPointExtension xmlns:gpxtpx="http://www.garmin.com/xmlschemas/TrackPointExtension/v1">
            <gpxtpx:hr>128</gpxtpx:hr>
          </gpxtpx:TrackPointExtension>
        </extensions>
      </trkpt>
      <trkpt lat="50.52337" lon="2.59818">
        <ele>43</ele>
        <time>2021-06-24T16:07:10Z</time>
        <extensions>
          <gpxtpx:TrackPointExtension xmlns:gpxtpx="http://www.garmin.com/xmlschemas/TrackPointExtension/v1">
            <gpxtpx:hr>128</gpxtpx:hr>
          </gpxtpx:TrackPointExtension>
        </extensions>
      </trkpt>
      <trkpt lat="50.52343" lon="2.59823">
        <ele>43</ele>
        <time>2021-06-24T16:07:11Z</time>
        <extensions>
          <gpxtpx:TrackPointExtension xmlns:gpxtpx="http://www.garmin.com/xmlschemas/TrackPointExtension/v1">
            <gpxtpx:hr>128</gpxtpx:hr>
          </gpxtpx:TrackPointExtension>
        </extensions>
      </trkpt>
      <trkpt lat="50.52349" lon="2.59828">
        <ele>43</ele>
        <time>2021-06-24T16:07:12Z</time>
        <extensions>
          <gpxtpx:TrackPointExtension xmlns:gpxtpx="http://www.garmin.com/xmlschemas/TrackPointExtension/v1">
            <gpxtpx:hr>128</gpxtpx:hr>
          </gpxtpx:TrackPointExtension>
        </extensions>
      </trkpt>
      <trkpt lat="50.52355" lon="2.59832">
        <ele>43</ele>
        <time>2021-06-24T16:07:13Z</time>
        <extensions>
          <gpxtpx:TrackPointExtension xmlns:gpxtpx="http://www.garmin.com/xmlschemas/TrackPointExtension/v1">
            <gpxtpx:hr>128</gpxtpx:hr>
          </gpxtpx:TrackPointExtension>
        </extensions>
      </trkpt>
      <trkpt lat="50.5236" lon="2.59835">
        <ele>43.2</ele>
        <time>2021-06-24T16:07:14Z</time>
        <extensions>
          <gpxtpx:TrackPointExtension xmlns:gpxtpx="http://www.garmin.com/xmlschemas/TrackPointExtension/v1">
            <gpxtpx:hr>127</gpxtpx:hr>
          </gpxtpx:TrackPointExtension>
        </extensions>
      </trkpt>
      <trkpt lat="50.52364" lon="2.59838">
        <ele>43.2</ele>
        <time>2021-06-24T16:07:15Z</time>
        <extensions>
          <gpxtpx:TrackPointExtension xmlns:gpxtpx="http://www.garmin.com/xmlschemas/TrackPointExtension/v1">
            <gpxtpx:hr>127</gpxtpx:hr>
          </gpxtpx:TrackPointExtension>
        </extensions>
      </trkpt>
      <trkpt lat="50.52369" lon="2.59841">
        <ele>43.2</ele>
        <time>2021-06-24T16:07:16Z</time>
        <extensions>
          <gpxtpx:TrackPointExtension xmlns:gpxtpx="http://www.garmin.com/xmlschemas/TrackPointExtension/v1">
            <gpxtpx:hr>127</gpxtpx:hr>
          </gpxtpx:TrackPointExtension>
        </extensions>
      </trkpt>
      <trkpt lat="50.52375" lon="2.59845">
        <ele>43.2</ele>
        <time>2021-06-24T16:07:17Z</time>
        <extensions>
          <gpxtpx:TrackPointExtension xmlns:gpxtpx="http://www.garmin.com/xmlschemas/TrackPointExtension/v1">
            <gpxtpx:hr>126</gpxtpx:hr>
          </gpxtpx:TrackPointExtension>
        </extensions>
      </trkpt>
      <trkpt lat="50.52381" lon="2.5985">
        <ele>43.4</ele>
        <time>2021-06-24T16:07:18Z</time>
        <extensions>
          <gpxtpx:TrackPointExtension xmlns:gpxtpx="http://www.garmin.com/xmlschemas/TrackPointExtension/v1">
            <gpxtpx:hr>126</gpxtpx:hr>
          </gpxtpx:TrackPointExtension>
        </extensions>
      </trkpt>
      <trkpt lat="50.52388" lon="2.59856">
        <ele>43.4</ele>
        <time>2021-06-24T16:07:19Z</time>
        <extensions>
          <gpxtpx:TrackPointExtension xmlns:gpxtpx="http://www.garmin.com/xmlschemas/TrackPointExtension/v1">
            <gpxtpx:hr>125</gpxtpx:hr>
          </gpxtpx:TrackPointExtension>
        </extensions>
      </trkpt>
      <trkpt lat="50.52393" lon="2.59861">
        <ele>43.4</ele>
        <time>2021-06-24T16:07:20Z</time>
        <extensions>
          <gpxtpx:TrackPointExtension xmlns:gpxtpx="http://www.garmin.com/xmlschemas/TrackPointExtension/v1">
            <gpxtpx:hr>125</gpxtpx:hr>
          </gpxtpx:TrackPointExtension>
        </extensions>
      </trkpt>
      <trkpt lat="50.52397" lon="2.59866">
        <ele>43.4</ele>
        <time>2021-06-24T16:07:21Z</time>
        <extensions>
          <gpxtpx:TrackPointExtension xmlns:gpxtpx="http://www.garmin.com/xmlschemas/TrackPointExtension/v1">
            <gpxtpx:hr>124</gpxtpx:hr>
          </gpxtpx:TrackPointExtension>
        </extensions>
      </trkpt>
      <trkpt lat="50.52403" lon="2.5987">
        <ele>43.4</ele>
        <time>2021-06-24T16:07:22Z</time>
        <extensions>
          <gpxtpx:TrackPointExtension xmlns:gpxtpx="http://www.garmin.com/xmlschemas/TrackPointExtension/v1">
            <gpxtpx:hr>124</gpxtpx:hr>
          </gpxtpx:TrackPointExtension>
        </extensions>
      </trkpt>
      <trkpt lat="50.52407" lon="2.59874">
        <ele>43.6</ele>
        <time>2021-06-24T16:07:23Z</time>
        <extensions>
          <gpxtpx:TrackPointExtension xmlns:gpxtpx="http://www.garmin.com/xmlschemas/TrackPointExtension/v1">
            <gpxtpx:hr>124</gpxtpx:hr>
          </gpxtpx:TrackPointExtension>
        </extensions>
      </trkpt>
      <trkpt lat="50.52412" lon="2.59878">
        <ele>43.6</ele>
        <time>2021-06-24T16:07:24Z</time>
        <extensions>
          <gpxtpx:TrackPointExtension xmlns:gpxtpx="http://www.garmin.com/xmlschemas/TrackPointExtension/v1">
            <gpxtpx:hr>124</gpxtpx:hr>
          </gpxtpx:TrackPointExtension>
        </extensions>
      </trkpt>
      <trkpt lat="50.52417" lon="2.59882">
        <ele>43.6</ele>
        <time>2021-06-24T16:07:25Z</time>
        <extensions>
          <gpxtpx:TrackPointExtension xmlns:gpxtpx="http://www.garmin.com/xmlschemas/TrackPointExtension/v1">
            <gpxtpx:hr>123</gpxtpx:hr>
          </gpxtpx:TrackPointExtension>
        </extensions>
      </trkpt>
      <trkpt lat="50.52421" lon="2.59885">
        <ele>43.6</ele>
        <time>2021-06-24T16:07:26Z</time>
        <extensions>
          <gpxtpx:TrackPointExtension xmlns:gpxtpx="http://www.garmin.com/xmlschemas/TrackPointExtension/v1">
            <gpxtpx:hr>123</gpxtpx:hr>
          </gpxtpx:TrackPointExtension>
        </extensions>
      </trkpt>
      <trkpt lat="50.52425" lon="2.59889">
        <ele>43.6</ele>
        <time>2021-06-24T16:07:27Z</time>
        <extensions>
          <gpxtpx:TrackPointExtension xmlns:gpxtpx="http://www.garmin.com/xmlschemas/TrackPointExtension/v1">
            <gpxtpx:hr>123</gpxtpx:hr>
          </gpxtpx:TrackPointExtension>
        </extensions>
      </trkpt>
      <trkpt lat="50.52429" lon="2.59894">
        <ele>43.8</ele>
        <time>2021-06-24T16:07:28Z</time>
        <extensions>
          <gpxtpx:TrackPointExtension xmlns:gpxtpx="http://www.garmin.com/xmlschemas/TrackPointExtension/v1">
            <gpxtpx:hr>123</gpxtpx:hr>
          </gpxtpx:TrackPointExtension>
        </extensions>
      </trkpt>
      <trkpt lat="50.52433" lon="2.59901">
        <ele>43.8</ele>
        <time>2021-06-24T16:07:29Z</time>
        <extensions>
          <gpxtpx:TrackPointExtension xmlns:gpxtpx="http://www.garmin.com/xmlschemas/TrackPointExtension/v1">
            <gpxtpx:hr>122</gpxtpx:hr>
          </gpxtpx:TrackPointExtension>
        </extensions>
      </trkpt>
      <trkpt lat="50.52436" lon="2.59906">
        <ele>43.8</ele>
        <time>2021-06-24T16:07:30Z</time>
        <extensions>
          <gpxtpx:TrackPointExtension xmlns:gpxtpx="http://www.garmin.com/xmlschemas/TrackPointExtension/v1">
            <gpxtpx:hr>121</gpxtpx:hr>
          </gpxtpx:TrackPointExtension>
        </extensions>
      </trkpt>
      <trkpt lat="50.5244" lon="2.59914">
        <ele>43.8</ele>
        <time>2021-06-24T16:07:31Z</time>
        <extensions>
          <gpxtpx:TrackPointExtension xmlns:gpxtpx="http://www.garmin.com/xmlschemas/TrackPointExtension/v1">
            <gpxtpx:hr>121</gpxtpx:hr>
          </gpxtpx:TrackPointExtension>
        </extensions>
      </trkpt>
      <trkpt lat="50.52445" lon="2.59922">
        <ele>43.8</ele>
        <time>2021-06-24T16:07:32Z</time>
        <extensions>
          <gpxtpx:TrackPointExtension xmlns:gpxtpx="http://www.garmin.com/xmlschemas/TrackPointExtension/v1">
            <gpxtpx:hr>120</gpxtpx:hr>
          </gpxtpx:TrackPointExtension>
        </extensions>
      </trkpt>
      <trkpt lat="50.5245" lon="2.59929">
        <ele>43.8</ele>
        <time>2021-06-24T16:07:33Z</time>
        <extensions>
          <gpxtpx:TrackPointExtension xmlns:gpxtpx="http://www.garmin.com/xmlschemas/TrackPointExtension/v1">
            <gpxtpx:hr>120</gpxtpx:hr>
          </gpxtpx:TrackPointExtension>
        </extensions>
      </trkpt>
      <trkpt lat="50.52455" lon="2.59934">
        <ele>43.8</ele>
        <time>2021-06-24T16:07:34Z</time>
        <extensions>
          <gpxtpx:TrackPointExtension xmlns:gpxtpx="http://www.garmin.com/xmlschemas/TrackPointExtension/v1">
            <gpxtpx:hr>121</gpxtpx:hr>
          </gpxtpx:TrackPointExtension>
        </extensions>
      </trkpt>
      <trkpt lat="50.52459" lon="2.59939">
        <ele>43.6</ele>
        <time>2021-06-24T16:07:35Z</time>
        <extensions>
          <gpxtpx:TrackPointExtension xmlns:gpxtpx="http://www.garmin.com/xmlschemas/TrackPointExtension/v1">
            <gpxtpx:hr>122</gpxtpx:hr>
          </gpxtpx:TrackPointExtension>
        </extensions>
      </trkpt>
      <trkpt lat="50.52463" lon="2.59943">
        <ele>43.6</ele>
        <time>2021-06-24T16:07:36Z</time>
        <extensions>
          <gpxtpx:TrackPointExtension xmlns:gpxtpx="http://www.garmin.com/xmlschemas/TrackPointExtension/v1">
            <gpxtpx:hr>123</gpxtpx:hr>
          </gpxtpx:TrackPointExtension>
        </extensions>
      </trkpt>
      <trkpt lat="50.52475" lon="2.5995">
        <ele>43.6</ele>
        <time>2021-06-24T16:07:59Z</time>
        <extensions>
          <gpxtpx:TrackPointExtension xmlns:gpxtpx="http://www.garmin.com/xmlschemas/TrackPointExtension/v1">
            <gpxtpx:hr>112</gpxtpx:hr>
          </gpxtpx:TrackPointExtension>
        </extensions>
      </trkpt>
      <trkpt lat="50.52477" lon="2.59948">
        <ele>43.6</ele>
        <time>2021-06-24T16:08:00Z</time>
        <extensions>
          <gpxtpx:TrackPointExtension xmlns:gpxtpx="http://www.garmin.com/xmlschemas/TrackPointExtension/v1">
            <gpxtpx:hr>113</gpxtpx:hr>
          </gpxtpx:TrackPointExtension>
        </extensions>
      </trkpt>
      <trkpt lat="50.5248" lon="2.59946">
        <ele>40.8</ele>
        <time>2021-06-24T16:08:01Z</time>
        <extensions>
          <gpxtpx:TrackPointExtension xmlns:gpxtpx="http://www.garmin.com/xmlschemas/TrackPointExtension/v1">
            <gpxtpx:hr>113</gpxtpx:hr>
          </gpxtpx:TrackPointExtension>
        </extensions>
      </trkpt>
      <trkpt lat="50.52482" lon="2.59943">
        <ele>40.6</ele>
        <time>2021-06-24T16:08:02Z</time>
        <extensions>
          <gpxtpx:TrackPointExtension xmlns:gpxtpx="http://www.garmin.com/xmlschemas/TrackPointExtension/v1">
            <gpxtpx:hr>113</gpxtpx:hr>
          </gpxtpx:TrackPointExtension>
        </extensions>
      </trkpt>
      <trkpt lat="50.52484" lon="2.5994">
        <ele>40.4</ele>
        <time>2021-06-24T16:08:03Z</time>
        <extensions>
          <gpxtpx:TrackPointExtension xmlns:gpxtpx="http://www.garmin.com/xmlschemas/TrackPointExtension/v1">
            <gpxtpx:hr>113</gpxtpx:hr>
          </gpxtpx:TrackPointExtension>
        </extensions>
      </trkpt>
      <trkpt lat="50.52487" lon="2.59938">
        <ele>40.2</ele>
        <time>2021-06-24T16:08:04Z</time>
        <extensions>
          <gpxtpx:TrackPointExtension xmlns:gpxtpx="http://www.garmin.com/xmlschemas/TrackPointExtension/v1">
            <gpxtpx:hr>113</gpxtpx:hr>
          </gpxtpx:TrackPointExtension>
        </extensions>
      </trkpt>
      <trkpt lat="50.5249" lon="2.59935">
        <ele>40.2</ele>
        <time>2021-06-24T16:08:05Z</time>
        <extensions>
          <gpxtpx:TrackPointExtension xmlns:gpxtpx="http://www.garmin.com/xmlschemas/TrackPointExtension/v1">
            <gpxtpx:hr>113</gpxtpx:hr>
          </gpxtpx:TrackPointExtension>
        </extensions>
      </trkpt>
      <trkpt lat="50.52493" lon="2.59931">
        <ele>40</ele>
        <time>2021-06-24T16:08:06Z</time>
        <extensions>
          <gpxtpx:TrackPointExtension xmlns:gpxtpx="http://www.garmin.com/xmlschemas/TrackPointExtension/v1">
            <gpxtpx:hr>113</gpxtpx:hr>
          </gpxtpx:TrackPointExtension>
        </extensions>
      </trkpt>
      <trkpt lat="50.52496" lon="2.59928">
        <ele>39.8</ele>
        <time>2021-06-24T16:08:07Z</time>
        <extensions>
          <gpxtpx:TrackPointExtension xmlns:gpxtpx="http://www.garmin.com/xmlschemas/TrackPointExtension/v1">
            <gpxtpx:hr>113</gpxtpx:hr>
          </gpxtpx:TrackPointExtension>
        </extensions>
      </trkpt>
      <trkpt lat="50.52499" lon="2.59925">
        <ele>39.6</ele>
        <time>2021-06-24T16:08:08Z</time>
        <extensions>
          <gpxtpx:TrackPointExtension xmlns:gpxtpx="http://www.garmin.com/xmlschemas/TrackPointExtension/v1">
            <gpxtpx:hr>113</gpxtpx:hr>
          </gpxtpx:TrackPointExtension>
        </extensions>
      </trkpt>
      <trkpt lat="50.52503" lon="2.59921">
        <ele>39.4</ele>
        <time>2021-06-24T16:08:09Z</time>
        <extensions>
          <gpxtpx:TrackPointExtension xmlns:gpxtpx="http://www.garmin.com/xmlschemas/TrackPointExtension/v1">
            <gpxtpx:hr>113</gpxtpx:hr>
          </gpxtpx:TrackPointExtension>
        </extensions>
      </trkpt>
      <trkpt lat="50.52506" lon="2.59919">
        <ele>39.2</ele>
        <time>2021-06-24T16:08:10Z</time>
        <extensions>
          <gpxtpx:TrackPointExtension xmlns:gpxtpx="http://www.garmin.com/xmlschemas/TrackPointExtension/v1">
            <gpxtpx:hr>113</gpxtpx:hr>
          </gpxtpx:TrackPointExtension>
        </extensions>
      </trkpt>
      <trkpt lat="50.5251" lon="2.59918">
        <ele>39</ele>
        <time>2021-06-24T16:08:11Z</time>
        <extensions>
          <gpxtpx:TrackPointExtension xmlns:gpxtpx="http://www.garmin.com/xmlschemas/TrackPointExtension/v1">
            <gpxtpx:hr>112</gpxtpx:hr>
          </gpxtpx:TrackPointExtension>
        </extensions>
      </trkpt>
      <trkpt lat="50.52512" lon="2.59916">
        <ele>38.8</ele>
        <time>2021-06-24T16:08:12Z</time>
        <extensions>
          <gpxtpx:TrackPointExtension xmlns:gpxtpx="http://www.garmin.com/xmlschemas/TrackPointExtension/v1">
            <gpxtpx:hr>111</gpxtpx:hr>
          </gpxtpx:TrackPointExtension>
        </extensions>
      </trkpt>
      <trkpt lat="50.52514" lon="2.59914">
        <ele>38.8</ele>
        <time>2021-06-24T16:08:13Z</time>
        <extensions>
          <gpxtpx:TrackPointExtension xmlns:gpxtpx="http://www.garmin.com/xmlschemas/TrackPointExtension/v1">
            <gpxtpx:hr>110</gpxtpx:hr>
          </gpxtpx:TrackPointExtension>
        </extensions>
      </trkpt>
      <trkpt lat="50.52517" lon="2.59912">
        <ele>38.6</ele>
        <time>2021-06-24T16:08:14Z</time>
        <extensions>
          <gpxtpx:TrackPointExtension xmlns:gpxtpx="http://www.garmin.com/xmlschemas/TrackPointExtension/v1">
            <gpxtpx:hr>108</gpxtpx:hr>
          </gpxtpx:TrackPointExtension>
        </extensions>
      </trkpt>
      <trkpt lat="50.5252" lon="2.5991">
        <ele>38.4</ele>
        <time>2021-06-24T16:08:15Z</time>
        <extensions>
          <gpxtpx:TrackPointExtension xmlns:gpxtpx="http://www.garmin.com/xmlschemas/TrackPointExtension/v1">
            <gpxtpx:hr>107</gpxtpx:hr>
          </gpxtpx:TrackPointExtension>
        </extensions>
      </trkpt>
      <trkpt lat="50.52526" lon="2.59909">
        <ele>38.4</ele>
        <time>2021-06-24T16:08:16Z</time>
        <extensions>
          <gpxtpx:TrackPointExtension xmlns:gpxtpx="http://www.garmin.com/xmlschemas/TrackPointExtension/v1">
            <gpxtpx:hr>106</gpxtpx:hr>
          </gpxtpx:TrackPointExtension>
        </extensions>
      </trkpt>
      <trkpt lat="50.52531" lon="2.59907">
        <ele>38.2</ele>
        <time>2021-06-24T16:08:17Z</time>
        <extensions>
          <gpxtpx:TrackPointExtension xmlns:gpxtpx="http://www.garmin.com/xmlschemas/TrackPointExtension/v1">
            <gpxtpx:hr>106</gpxtpx:hr>
          </gpxtpx:TrackPointExtension>
        </extensions>
      </trkpt>
      <trkpt lat="50.52536" lon="2.59905">
        <ele>38.2</ele>
        <time>2021-06-24T16:08:18Z</time>
        <extensions>
          <gpxtpx:TrackPointExtension xmlns:gpxtpx="http://www.garmin.com/xmlschemas/TrackPointExtension/v1">
            <gpxtpx:hr>106</gpxtpx:hr>
          </gpxtpx:TrackPointExtension>
        </extensions>
      </trkpt>
      <trkpt lat="50.5254" lon="2.59902">
        <ele>38.2</ele>
        <time>2021-06-24T16:08:19Z</time>
        <extensions>
          <gpxtpx:TrackPointExtension xmlns:gpxtpx="http://www.garmin.com/xmlschemas/TrackPointExtension/v1">
            <gpxtpx:hr>106</gpxtpx:hr>
          </gpxtpx:TrackPointExtension>
        </extensions>
      </trkpt>
      <trkpt lat="50.52544" lon="2.599">
        <ele>38</ele>
        <time>2021-06-24T16:08:20Z</time>
        <extensions>
          <gpxtpx:TrackPointExtension xmlns:gpxtpx="http://www.garmin.com/xmlschemas/TrackPointExtension/v1">
            <gpxtpx:hr>108</gpxtpx:hr>
          </gpxtpx:TrackPointExtension>
        </extensions>
      </trkpt>
      <trkpt lat="50.52548" lon="2.59898">
        <ele>38</ele>
        <time>2021-06-24T16:08:21Z</time>
        <extensions>
          <gpxtpx:TrackPointExtension xmlns:gpxtpx="http://www.garmin.com/xmlschemas/TrackPointExtension/v1">
            <gpxtpx:hr>110</gpxtpx:hr>
          </gpxtpx:TrackPointExtension>
        </extensions>
      </trkpt>
      <trkpt lat="50.52552" lon="2.59896">
        <ele>37.8</ele>
        <time>2021-06-24T16:08:22Z</time>
        <extensions>
          <gpxtpx:TrackPointExtension xmlns:gpxtpx="http://www.garmin.com/xmlschemas/TrackPointExtension/v1">
            <gpxtpx:hr>112</gpxtpx:hr>
          </gpxtpx:TrackPointExtension>
        </extensions>
      </trkpt>
      <trkpt lat="50.52556" lon="2.59895">
        <ele>37.8</ele>
        <time>2021-06-24T16:08:23Z</time>
        <extensions>
          <gpxtpx:TrackPointExtension xmlns:gpxtpx="http://www.garmin.com/xmlschemas/TrackPointExtension/v1">
            <gpxtpx:hr>115</gpxtpx:hr>
          </gpxtpx:TrackPointExtension>
        </extensions>
      </trkpt>
      <trkpt lat="50.52559" lon="2.59893">
        <ele>37.8</ele>
        <time>2021-06-24T16:08:24Z</time>
        <extensions>
          <gpxtpx:TrackPointExtension xmlns:gpxtpx="http://www.garmin.com/xmlschemas/TrackPointExtension/v1">
            <gpxtpx:hr>118</gpxtpx:hr>
          </gpxtpx:TrackPointExtension>
        </extensions>
      </trkpt>
      <trkpt lat="50.52562" lon="2.59891">
        <ele>37.8</ele>
        <time>2021-06-24T16:08:25Z</time>
        <extensions>
          <gpxtpx:TrackPointExtension xmlns:gpxtpx="http://www.garmin.com/xmlschemas/TrackPointExtension/v1">
            <gpxtpx:hr>118</gpxtpx:hr>
          </gpxtpx:TrackPointExtension>
        </extensions>
      </trkpt>
      <trkpt lat="50.52565" lon="2.59889">
        <ele>37.6</ele>
        <time>2021-06-24T16:08:26Z</time>
        <extensions>
          <gpxtpx:TrackPointExtension xmlns:gpxtpx="http://www.garmin.com/xmlschemas/TrackPointExtension/v1">
            <gpxtpx:hr>121</gpxtpx:hr>
          </gpxtpx:TrackPointExtension>
        </extensions>
      </trkpt>
      <trkpt lat="50.52569" lon="2.59887">
        <ele>37.6</ele>
        <time>2021-06-24T16:08:27Z</time>
        <extensions>
          <gpxtpx:TrackPointExtension xmlns:gpxtpx="http://www.garmin.com/xmlschemas/TrackPointExtension/v1">
            <gpxtpx:hr>124</gpxtpx:hr>
          </gpxtpx:TrackPointExtension>
        </extensions>
      </trkpt>
      <trkpt lat="50.52573" lon="2.59885">
        <ele>37.6</ele>
        <time>2021-06-24T16:08:28Z</time>
        <extensions>
          <gpxtpx:TrackPointExtension xmlns:gpxtpx="http://www.garmin.com/xmlschemas/TrackPointExtension/v1">
            <gpxtpx:hr>127</gpxtpx:hr>
          </gpxtpx:TrackPointExtension>
        </extensions>
      </trkpt>
      <trkpt lat="50.52576" lon="2.59883">
        <ele>37.6</ele>
        <time>2021-06-24T16:08:29Z</time>
        <extensions>
          <gpxtpx:TrackPointExtension xmlns:gpxtpx="http://www.garmin.com/xmlschemas/TrackPointExtension/v1">
            <gpxtpx:hr>129</gpxtpx:hr>
          </gpxtpx:TrackPointExtension>
        </extensions>
      </trkpt>
      <trkpt lat="50.5258" lon="2.5988">
        <ele>37.4</ele>
        <time>2021-06-24T16:08:30Z</time>
        <extensions>
          <gpxtpx:TrackPointExtension xmlns:gpxtpx="http://www.garmin.com/xmlschemas/TrackPointExtension/v1">
            <gpxtpx:hr>131</gpxtpx:hr>
          </gpxtpx:TrackPointExtension>
        </extensions>
      </trkpt>
      <trkpt lat="50.52583" lon="2.59879">
        <ele>37.4</ele>
        <time>2021-06-24T16:08:31Z</time>
        <extensions>
          <gpxtpx:TrackPointExtension xmlns:gpxtpx="http://www.garmin.com/xmlschemas/TrackPointExtension/v1">
            <gpxtpx:hr>132</gpxtpx:hr>
          </gpxtpx:TrackPointExtension>
        </extensions>
      </trkpt>
      <trkpt lat="50.52586" lon="2.59877">
        <ele>37.4</ele>
        <time>2021-06-24T16:08:32Z</time>
        <extensions>
          <gpxtpx:TrackPointExtension xmlns:gpxtpx="http://www.garmin.com/xmlschemas/TrackPointExtension/v1">
            <gpxtpx:hr>133</gpxtpx:hr>
          </gpxtpx:TrackPointExtension>
        </extensions>
      </trkpt>
      <trkpt lat="50.52589" lon="2.59876">
        <ele>37.2</ele>
        <time>2021-06-24T16:08:33Z</time>
        <extensions>
          <gpxtpx:TrackPointExtension xmlns:gpxtpx="http://www.garmin.com/xmlschemas/TrackPointExtension/v1">
            <gpxtpx:hr>134</gpxtpx:hr>
          </gpxtpx:TrackPointExtension>
        </extensions>
      </trkpt>
      <trkpt lat="50.52593" lon="2.59875">
        <ele>37.2</ele>
        <time>2021-06-24T16:08:34Z</time>
        <extensions>
          <gpxtpx:TrackPointExtension xmlns:gpxtpx="http://www.garmin.com/xmlschemas/TrackPointExtension/v1">
            <gpxtpx:hr>135</gpxtpx:hr>
          </gpxtpx:TrackPointExtension>
        </extensions>
      </trkpt>
      <trkpt lat="50.52597" lon="2.59876">
        <ele>37.2</ele>
        <time>2021-06-24T16:08:35Z</time>
        <extensions>
          <gpxtpx:TrackPointExtension xmlns:gpxtpx="http://www.garmin.com/xmlschemas/TrackPointExtension/v1">
            <gpxtpx:hr>136</gpxtpx:hr>
          </gpxtpx:TrackPointExtension>
        </extensions>
      </trkpt>
      <trkpt lat="50.526" lon="2.59877">
        <ele>37.2</ele>
        <time>2021-06-24T16:08:36Z</time>
        <extensions>
          <gpxtpx:TrackPointExtension xmlns:gpxtpx="http://www.garmin.com/xmlschemas/TrackPointExtension/v1">
            <gpxtpx:hr>137</gpxtpx:hr>
          </gpxtpx:TrackPointExtension>
        </extensions>
      </trkpt>
      <trkpt lat="50.52604" lon="2.59878">
        <ele>37</ele>
        <time>2021-06-24T16:08:37Z</time>
        <extensions>
          <gpxtpx:TrackPointExtension xmlns:gpxtpx="http://www.garmin.com/xmlschemas/TrackPointExtension/v1">
            <gpxtpx:hr>138</gpxtpx:hr>
          </gpxtpx:TrackPointExtension>
        </extensions>
      </trkpt>
      <trkpt lat="50.52608" lon="2.59879">
        <ele>37</ele>
        <time>2021-06-24T16:08:38Z</time>
        <extensions>
          <gpxtpx:TrackPointExtension xmlns:gpxtpx="http://www.garmin.com/xmlschemas/TrackPointExtension/v1">
            <gpxtpx:hr>138</gpxtpx:hr>
          </gpxtpx:TrackPointExtension>
        </extensions>
      </trkpt>
      <trkpt lat="50.52611" lon="2.5988">
        <ele>37</ele>
        <time>2021-06-24T16:08:39Z</time>
        <extensions>
          <gpxtpx:TrackPointExtension xmlns:gpxtpx="http://www.garmin.com/xmlschemas/TrackPointExtension/v1">
            <gpxtpx:hr>139</gpxtpx:hr>
          </gpxtpx:TrackPointExtension>
        </extensions>
      </trkpt>
      <trkpt lat="50.52615" lon="2.59881">
        <ele>37</ele>
        <time>2021-06-24T16:08:40Z</time>
        <extensions>
          <gpxtpx:TrackPointExtension xmlns:gpxtpx="http://www.garmin.com/xmlschemas/TrackPointExtension/v1">
            <gpxtpx:hr>140</gpxtpx:hr>
          </gpxtpx:TrackPointExtension>
        </extensions>
      </trkpt>
      <trkpt lat="50.5262" lon="2.59882">
        <ele>37</ele>
        <time>2021-06-24T16:08:41Z</time>
        <extensions>
          <gpxtpx:TrackPointExtension xmlns:gpxtpx="http://www.garmin.com/xmlschemas/TrackPointExtension/v1">
            <gpxtpx:hr>140</gpxtpx:hr>
          </gpxtpx:TrackPointExtension>
        </extensions>
      </trkpt>
      <trkpt lat="50.52624" lon="2.59883">
        <ele>37</ele>
        <time>2021-06-24T16:08:42Z</time>
        <extensions>
          <gpxtpx:TrackPointExtension xmlns:gpxtpx="http://www.garmin.com/xmlschemas/TrackPointExtension/v1">
            <gpxtpx:hr>140</gpxtpx:hr>
          </gpxtpx:TrackPointExtension>
        </extensions>
      </trkpt>
      <trkpt lat="50.52629" lon="2.59884">
        <ele>37</ele>
        <time>2021-06-24T16:08:43Z</time>
        <extensions>
          <gpxtpx:TrackPointExtension xmlns:gpxtpx="http://www.garmin.com/xmlschemas/TrackPointExtension/v1">
            <gpxtpx:hr>141</gpxtpx:hr>
          </gpxtpx:TrackPointExtension>
        </extensions>
      </trkpt>
      <trkpt lat="50.52635" lon="2.59885">
        <ele>36.8</ele>
        <time>2021-06-24T16:08:44Z</time>
        <extensions>
          <gpxtpx:TrackPointExtension xmlns:gpxtpx="http://www.garmin.com/xmlschemas/TrackPointExtension/v1">
            <gpxtpx:hr>141</gpxtpx:hr>
          </gpxtpx:TrackPointExtension>
        </extensions>
      </trkpt>
      <trkpt lat="50.52639" lon="2.59885">
        <ele>36.8</ele>
        <time>2021-06-24T16:08:45Z</time>
        <extensions>
          <gpxtpx:TrackPointExtension xmlns:gpxtpx="http://www.garmin.com/xmlschemas/TrackPointExtension/v1">
            <gpxtpx:hr>141</gpxtpx:hr>
          </gpxtpx:TrackPointExtension>
        </extensions>
      </trkpt>
      <trkpt lat="50.52644" lon="2.59886">
        <ele>36.8</ele>
        <time>2021-06-24T16:08:46Z</time>
        <extensions>
          <gpxtpx:TrackPointExtension xmlns:gpxtpx="http://www.garmin.com/xmlschemas/TrackPointExtension/v1">
            <gpxtpx:hr>142</gpxtpx:hr>
          </gpxtpx:TrackPointExtension>
        </extensions>
      </trkpt>
      <trkpt lat="50.52649" lon="2.59886">
        <ele>36.8</ele>
        <time>2021-06-24T16:08:47Z</time>
        <extensions>
          <gpxtpx:TrackPointExtension xmlns:gpxtpx="http://www.garmin.com/xmlschemas/TrackPointExtension/v1">
            <gpxtpx:hr>142</gpxtpx:hr>
          </gpxtpx:TrackPointExtension>
        </extensions>
      </trkpt>
      <trkpt lat="50.52653" lon="2.59887">
        <ele>36.8</ele>
        <time>2021-06-24T16:08:48Z</time>
        <extensions>
          <gpxtpx:TrackPointExtension xmlns:gpxtpx="http://www.garmin.com/xmlschemas/TrackPointExtension/v1">
            <gpxtpx:hr>142</gpxtpx:hr>
          </gpxtpx:TrackPointExtension>
        </extensions>
      </trkpt>
      <trkpt lat="50.52657" lon="2.59888">
        <ele>36.8</ele>
        <time>2021-06-24T16:08:49Z</time>
        <extensions>
          <gpxtpx:TrackPointExtension xmlns:gpxtpx="http://www.garmin.com/xmlschemas/TrackPointExtension/v1">
            <gpxtpx:hr>142</gpxtpx:hr>
          </gpxtpx:TrackPointExtension>
        </extensions>
      </trkpt>
      <trkpt lat="50.52661" lon="2.59889">
        <ele>36.8</ele>
        <time>2021-06-24T16:08:50Z</time>
        <extensions>
          <gpxtpx:TrackPointExtension xmlns:gpxtpx="http://www.garmin.com/xmlschemas/TrackPointExtension/v1">
            <gpxtpx:hr>143</gpxtpx:hr>
          </gpxtpx:TrackPointExtension>
        </extensions>
      </trkpt>
      <trkpt lat="50.52665" lon="2.5989">
        <ele>36.8</ele>
        <time>2021-06-24T16:08:51Z</time>
        <extensions>
          <gpxtpx:TrackPointExtension xmlns:gpxtpx="http://www.garmin.com/xmlschemas/TrackPointExtension/v1">
            <gpxtpx:hr>143</gpxtpx:hr>
          </gpxtpx:TrackPointExtension>
        </extensions>
      </trkpt>
      <trkpt lat="50.52668" lon="2.59892">
        <ele>36.8</ele>
        <time>2021-06-24T16:08:52Z</time>
        <extensions>
          <gpxtpx:TrackPointExtension xmlns:gpxtpx="http://www.garmin.com/xmlschemas/TrackPointExtension/v1">
            <gpxtpx:hr>143</gpxtpx:hr>
          </gpxtpx:TrackPointExtension>
        </extensions>
      </trkpt>
      <trkpt lat="50.52672" lon="2.59893">
        <ele>36.8</ele>
        <time>2021-06-24T16:08:53Z</time>
        <extensions>
          <gpxtpx:TrackPointExtension xmlns:gpxtpx="http://www.garmin.com/xmlschemas/TrackPointExtension/v1">
            <gpxtpx:hr>143</gpxtpx:hr>
          </gpxtpx:TrackPointExtension>
        </extensions>
      </trkpt>
      <trkpt lat="50.52676" lon="2.59894">
        <ele>36.8</ele>
        <time>2021-06-24T16:08:54Z</time>
        <extensions>
          <gpxtpx:TrackPointExtension xmlns:gpxtpx="http://www.garmin.com/xmlschemas/TrackPointExtension/v1">
            <gpxtpx:hr>143</gpxtpx:hr>
          </gpxtpx:TrackPointExtension>
        </extensions>
      </trkpt>
      <trkpt lat="50.5268" lon="2.59895">
        <ele>36.8</ele>
        <time>2021-06-24T16:08:55Z</time>
        <extensions>
          <gpxtpx:TrackPointExtension xmlns:gpxtpx="http://www.garmin.com/xmlschemas/TrackPointExtension/v1">
            <gpxtpx:hr>143</gpxtpx:hr>
          </gpxtpx:TrackPointExtension>
        </extensions>
      </trkpt>
      <trkpt lat="50.52689" lon="2.59896">
        <ele>36.8</ele>
        <time>2021-06-24T16:08:57Z</time>
        <extensions>
          <gpxtpx:TrackPointExtension xmlns:gpxtpx="http://www.garmin.com/xmlschemas/TrackPointExtension/v1">
            <gpxtpx:hr>142</gpxtpx:hr>
          </gpxtpx:TrackPointExtension>
        </extensions>
      </trkpt>
      <trkpt lat="50.52693" lon="2.59897">
        <ele>36.8</ele>
        <time>2021-06-24T16:08:58Z</time>
        <extensions>
          <gpxtpx:TrackPointExtension xmlns:gpxtpx="http://www.garmin.com/xmlschemas/TrackPointExtension/v1">
            <gpxtpx:hr>142</gpxtpx:hr>
          </gpxtpx:TrackPointExtension>
        </extensions>
      </trkpt>
      <trkpt lat="50.52698" lon="2.59898">
        <ele>36.8</ele>
        <time>2021-06-24T16:08:59Z</time>
        <extensions>
          <gpxtpx:TrackPointExtension xmlns:gpxtpx="http://www.garmin.com/xmlschemas/TrackPointExtension/v1">
            <gpxtpx:hr>142</gpxtpx:hr>
          </gpxtpx:TrackPointExtension>
        </extensions>
      </trkpt>
      <trkpt lat="50.52702" lon="2.59899">
        <ele>36.8</ele>
        <time>2021-06-24T16:09:00Z</time>
        <extensions>
          <gpxtpx:TrackPointExtension xmlns:gpxtpx="http://www.garmin.com/xmlschemas/TrackPointExtension/v1">
            <gpxtpx:hr>142</gpxtpx:hr>
          </gpxtpx:TrackPointExtension>
        </extensions>
      </trkpt>
      <trkpt lat="50.52707" lon="2.599">
        <ele>36.8</ele>
        <time>2021-06-24T16:09:01Z</time>
        <extensions>
          <gpxtpx:TrackPointExtension xmlns:gpxtpx="http://www.garmin.com/xmlschemas/TrackPointExtension/v1">
            <gpxtpx:hr>142</gpxtpx:hr>
          </gpxtpx:TrackPointExtension>
        </extensions>
      </trkpt>
      <trkpt lat="50.52712" lon="2.59902">
        <ele>36.8</ele>
        <time>2021-06-24T16:09:02Z</time>
        <extensions>
          <gpxtpx:TrackPointExtension xmlns:gpxtpx="http://www.garmin.com/xmlschemas/TrackPointExtension/v1">
            <gpxtpx:hr>142</gpxtpx:hr>
          </gpxtpx:TrackPointExtension>
        </extensions>
      </trkpt>
      <trkpt lat="50.52716" lon="2.59903">
        <ele>36.8</ele>
        <time>2021-06-24T16:09:03Z</time>
        <extensions>
          <gpxtpx:TrackPointExtension xmlns:gpxtpx="http://www.garmin.com/xmlschemas/TrackPointExtension/v1">
            <gpxtpx:hr>142</gpxtpx:hr>
          </gpxtpx:TrackPointExtension>
        </extensions>
      </trkpt>
      <trkpt lat="50.5272" lon="2.59905">
        <ele>36.8</ele>
        <time>2021-06-24T16:09:04Z</time>
        <extensions>
          <gpxtpx:TrackPointExtension xmlns:gpxtpx="http://www.garmin.com/xmlschemas/TrackPointExtension/v1">
            <gpxtpx:hr>142</gpxtpx:hr>
          </gpxtpx:TrackPointExtension>
        </extensions>
      </trkpt>
      <trkpt lat="50.52724" lon="2.59907">
        <ele>36.8</ele>
        <time>2021-06-24T16:09:05Z</time>
        <extensions>
          <gpxtpx:TrackPointExtension xmlns:gpxtpx="http://www.garmin.com/xmlschemas/TrackPointExtension/v1">
            <gpxtpx:hr>141</gpxtpx:hr>
          </gpxtpx:TrackPointExtension>
        </extensions>
      </trkpt>
      <trkpt lat="50.52728" lon="2.5991">
        <ele>36.8</ele>
        <time>2021-06-24T16:09:06Z</time>
        <extensions>
          <gpxtpx:TrackPointExtension xmlns:gpxtpx="http://www.garmin.com/xmlschemas/TrackPointExtension/v1">
            <gpxtpx:hr>141</gpxtpx:hr>
          </gpxtpx:TrackPointExtension>
        </extensions>
      </trkpt>
      <trkpt lat="50.52732" lon="2.59912">
        <ele>36.8</ele>
        <time>2021-06-24T16:09:07Z</time>
        <extensions>
          <gpxtpx:TrackPointExtension xmlns:gpxtpx="http://www.garmin.com/xmlschemas/TrackPointExtension/v1">
            <gpxtpx:hr>141</gpxtpx:hr>
          </gpxtpx:TrackPointExtension>
        </extensions>
      </trkpt>
      <trkpt lat="50.52737" lon="2.59914">
        <ele>36.8</ele>
        <time>2021-06-24T16:09:08Z</time>
        <extensions>
          <gpxtpx:TrackPointExtension xmlns:gpxtpx="http://www.garmin.com/xmlschemas/TrackPointExtension/v1">
            <gpxtpx:hr>141</gpxtpx:hr>
          </gpxtpx:TrackPointExtension>
        </extensions>
      </trkpt>
      <trkpt lat="50.5274" lon="2.59916">
        <ele>36.8</ele>
        <time>2021-06-24T16:09:09Z</time>
        <extensions>
          <gpxtpx:TrackPointExtension xmlns:gpxtpx="http://www.garmin.com/xmlschemas/TrackPointExtension/v1">
            <gpxtpx:hr>141</gpxtpx:hr>
          </gpxtpx:TrackPointExtension>
        </extensions>
      </trkpt>
      <trkpt lat="50.52745" lon="2.59919">
        <ele>36.8</ele>
        <time>2021-06-24T16:09:10Z</time>
        <extensions>
          <gpxtpx:TrackPointExtension xmlns:gpxtpx="http://www.garmin.com/xmlschemas/TrackPointExtension/v1">
            <gpxtpx:hr>141</gpxtpx:hr>
          </gpxtpx:TrackPointExtension>
        </extensions>
      </trkpt>
      <trkpt lat="50.52748" lon="2.59922">
        <ele>36.8</ele>
        <time>2021-06-24T16:09:11Z</time>
        <extensions>
          <gpxtpx:TrackPointExtension xmlns:gpxtpx="http://www.garmin.com/xmlschemas/TrackPointExtension/v1">
            <gpxtpx:hr>141</gpxtpx:hr>
          </gpxtpx:TrackPointExtension>
        </extensions>
      </trkpt>
      <trkpt lat="50.52753" lon="2.59924">
        <ele>36.8</ele>
        <time>2021-06-24T16:09:12Z</time>
        <extensions>
          <gpxtpx:TrackPointExtension xmlns:gpxtpx="http://www.garmin.com/xmlschemas/TrackPointExtension/v1">
            <gpxtpx:hr>142</gpxtpx:hr>
          </gpxtpx:TrackPointExtension>
        </extensions>
      </trkpt>
      <trkpt lat="50.52757" lon="2.59926">
        <ele>36.8</ele>
        <time>2021-06-24T16:09:13Z</time>
        <extensions>
          <gpxtpx:TrackPointExtension xmlns:gpxtpx="http://www.garmin.com/xmlschemas/TrackPointExtension/v1">
            <gpxtpx:hr>142</gpxtpx:hr>
          </gpxtpx:TrackPointExtension>
        </extensions>
      </trkpt>
      <trkpt lat="50.5277" lon="2.59932">
        <ele>36.8</ele>
        <time>2021-06-24T16:09:15Z</time>
        <extensions>
          <gpxtpx:TrackPointExtension xmlns:gpxtpx="http://www.garmin.com/xmlschemas/TrackPointExtension/v1">
            <gpxtpx:hr>142</gpxtpx:hr>
          </gpxtpx:TrackPointExtension>
        </extensions>
      </trkpt>
      <trkpt lat="50.52776" lon="2.59935">
        <ele>36.8</ele>
        <time>2021-06-24T16:09:16Z</time>
        <extensions>
          <gpxtpx:TrackPointExtension xmlns:gpxtpx="http://www.garmin.com/xmlschemas/TrackPointExtension/v1">
            <gpxtpx:hr>142</gpxtpx:hr>
          </gpxtpx:TrackPointExtension>
        </extensions>
      </trkpt>
      <trkpt lat="50.52782" lon="2.59938">
        <ele>36.8</ele>
        <time>2021-06-24T16:09:17Z</time>
        <extensions>
          <gpxtpx:TrackPointExtension xmlns:gpxtpx="http://www.garmin.com/xmlschemas/TrackPointExtension/v1">
            <gpxtpx:hr>142</gpxtpx:hr>
          </gpxtpx:TrackPointExtension>
        </extensions>
      </trkpt>
      <trkpt lat="50.52788" lon="2.59942">
        <ele>37</ele>
        <time>2021-06-24T16:09:18Z</time>
        <extensions>
          <gpxtpx:TrackPointExtension xmlns:gpxtpx="http://www.garmin.com/xmlschemas/TrackPointExtension/v1">
            <gpxtpx:hr>142</gpxtpx:hr>
          </gpxtpx:TrackPointExtension>
        </extensions>
      </trkpt>
      <trkpt lat="50.52794" lon="2.59946">
        <ele>37</ele>
        <time>2021-06-24T16:09:19Z</time>
        <extensions>
          <gpxtpx:TrackPointExtension xmlns:gpxtpx="http://www.garmin.com/xmlschemas/TrackPointExtension/v1">
            <gpxtpx:hr>142</gpxtpx:hr>
          </gpxtpx:TrackPointExtension>
        </extensions>
      </trkpt>
      <trkpt lat="50.52801" lon="2.5995">
        <ele>37</ele>
        <time>2021-06-24T16:09:20Z</time>
        <extensions>
          <gpxtpx:TrackPointExtension xmlns:gpxtpx="http://www.garmin.com/xmlschemas/TrackPointExtension/v1">
            <gpxtpx:hr>141</gpxtpx:hr>
          </gpxtpx:TrackPointExtension>
        </extensions>
      </trkpt>
      <trkpt lat="50.52807" lon="2.59955">
        <ele>37</ele>
        <time>2021-06-24T16:09:21Z</time>
        <extensions>
          <gpxtpx:TrackPointExtension xmlns:gpxtpx="http://www.garmin.com/xmlschemas/TrackPointExtension/v1">
            <gpxtpx:hr>141</gpxtpx:hr>
          </gpxtpx:TrackPointExtension>
        </extensions>
      </trkpt>
      <trkpt lat="50.52812" lon="2.5996">
        <ele>37</ele>
        <time>2021-06-24T16:09:22Z</time>
        <extensions>
          <gpxtpx:TrackPointExtension xmlns:gpxtpx="http://www.garmin.com/xmlschemas/TrackPointExtension/v1">
            <gpxtpx:hr>141</gpxtpx:hr>
          </gpxtpx:TrackPointExtension>
        </extensions>
      </trkpt>
      <trkpt lat="50.52817" lon="2.59964">
        <ele>37.2</ele>
        <time>2021-06-24T16:09:23Z</time>
        <extensions>
          <gpxtpx:TrackPointExtension xmlns:gpxtpx="http://www.garmin.com/xmlschemas/TrackPointExtension/v1">
            <gpxtpx:hr>141</gpxtpx:hr>
          </gpxtpx:TrackPointExtension>
        </extensions>
      </trkpt>
      <trkpt lat="50.52822" lon="2.59967">
        <ele>37.2</ele>
        <time>2021-06-24T16:09:24Z</time>
        <extensions>
          <gpxtpx:TrackPointExtension xmlns:gpxtpx="http://www.garmin.com/xmlschemas/TrackPointExtension/v1">
            <gpxtpx:hr>140</gpxtpx:hr>
          </gpxtpx:TrackPointExtension>
        </extensions>
      </trkpt>
      <trkpt lat="50.52828" lon="2.59971">
        <ele>37.2</ele>
        <time>2021-06-24T16:09:25Z</time>
        <extensions>
          <gpxtpx:TrackPointExtension xmlns:gpxtpx="http://www.garmin.com/xmlschemas/TrackPointExtension/v1">
            <gpxtpx:hr>140</gpxtpx:hr>
          </gpxtpx:TrackPointExtension>
        </extensions>
      </trkpt>
      <trkpt lat="50.52833" lon="2.59975">
        <ele>37.2</ele>
        <time>2021-06-24T16:09:26Z</time>
        <extensions>
          <gpxtpx:TrackPointExtension xmlns:gpxtpx="http://www.garmin.com/xmlschemas/TrackPointExtension/v1">
            <gpxtpx:hr>139</gpxtpx:hr>
          </gpxtpx:TrackPointExtension>
        </extensions>
      </trkpt>
      <trkpt lat="50.52838" lon="2.59978">
        <ele>37.4</ele>
        <time>2021-06-24T16:09:27Z</time>
        <extensions>
          <gpxtpx:TrackPointExtension xmlns:gpxtpx="http://www.garmin.com/xmlschemas/TrackPointExtension/v1">
            <gpxtpx:hr>139</gpxtpx:hr>
          </gpxtpx:TrackPointExtension>
        </extensions>
      </trkpt>
      <trkpt lat="50.52844" lon="2.59982">
        <ele>37.4</ele>
        <time>2021-06-24T16:09:28Z</time>
        <extensions>
          <gpxtpx:TrackPointExtension xmlns:gpxtpx="http://www.garmin.com/xmlschemas/TrackPointExtension/v1">
            <gpxtpx:hr>138</gpxtpx:hr>
          </gpxtpx:TrackPointExtension>
        </extensions>
      </trkpt>
      <trkpt lat="50.5285" lon="2.59986">
        <ele>37.4</ele>
        <time>2021-06-24T16:09:29Z</time>
        <extensions>
          <gpxtpx:TrackPointExtension xmlns:gpxtpx="http://www.garmin.com/xmlschemas/TrackPointExtension/v1">
            <gpxtpx:hr>138</gpxtpx:hr>
          </gpxtpx:TrackPointExtension>
        </extensions>
      </trkpt>
      <trkpt lat="50.52854" lon="2.5999">
        <ele>37.4</ele>
        <time>2021-06-24T16:09:30Z</time>
        <extensions>
          <gpxtpx:TrackPointExtension xmlns:gpxtpx="http://www.garmin.com/xmlschemas/TrackPointExtension/v1">
            <gpxtpx:hr>138</gpxtpx:hr>
          </gpxtpx:TrackPointExtension>
        </extensions>
      </trkpt>
      <trkpt lat="50.5286" lon="2.59995">
        <ele>37.4</ele>
        <time>2021-06-24T16:09:31Z</time>
        <extensions>
          <gpxtpx:TrackPointExtension xmlns:gpxtpx="http://www.garmin.com/xmlschemas/TrackPointExtension/v1">
            <gpxtpx:hr>139</gpxtpx:hr>
          </gpxtpx:TrackPointExtension>
        </extensions>
      </trkpt>
      <trkpt lat="50.52864" lon="2.6">
        <ele>37.6</ele>
        <time>2021-06-24T16:09:32Z</time>
        <extensions>
          <gpxtpx:TrackPointExtension xmlns:gpxtpx="http://www.garmin.com/xmlschemas/TrackPointExtension/v1">
            <gpxtpx:hr>139</gpxtpx:hr>
          </gpxtpx:TrackPointExtension>
        </extensions>
      </trkpt>
      <trkpt lat="50.52869" lon="2.60005">
        <ele>37.6</ele>
        <time>2021-06-24T16:09:33Z</time>
        <extensions>
          <gpxtpx:TrackPointExtension xmlns:gpxtpx="http://www.garmin.com/xmlschemas/TrackPointExtension/v1">
            <gpxtpx:hr>139</gpxtpx:hr>
          </gpxtpx:TrackPointExtension>
        </extensions>
      </trkpt>
      <trkpt lat="50.52874" lon="2.6001">
        <ele>37.6</ele>
        <time>2021-06-24T16:09:34Z</time>
        <extensions>
          <gpxtpx:TrackPointExtension xmlns:gpxtpx="http://www.garmin.com/xmlschemas/TrackPointExtension/v1">
            <gpxtpx:hr>139</gpxtpx:hr>
          </gpxtpx:TrackPointExtension>
        </extensions>
      </trkpt>
      <trkpt lat="50.52878" lon="2.60015">
        <ele>37.6</ele>
        <time>2021-06-24T16:09:35Z</time>
        <extensions>
          <gpxtpx:TrackPointExtension xmlns:gpxtpx="http://www.garmin.com/xmlschemas/TrackPointExtension/v1">
            <gpxtpx:hr>139</gpxtpx:hr>
          </gpxtpx:TrackPointExtension>
        </extensions>
      </trkpt>
      <trkpt lat="50.52883" lon="2.6002">
        <ele>37.6</ele>
        <time>2021-06-24T16:09:36Z</time>
        <extensions>
          <gpxtpx:TrackPointExtension xmlns:gpxtpx="http://www.garmin.com/xmlschemas/TrackPointExtension/v1">
            <gpxtpx:hr>139</gpxtpx:hr>
          </gpxtpx:TrackPointExtension>
        </extensions>
      </trkpt>
      <trkpt lat="50.52888" lon="2.60025">
        <ele>37.4</ele>
        <time>2021-06-24T16:09:37Z</time>
        <extensions>
          <gpxtpx:TrackPointExtension xmlns:gpxtpx="http://www.garmin.com/xmlschemas/TrackPointExtension/v1">
            <gpxtpx:hr>139</gpxtpx:hr>
          </gpxtpx:TrackPointExtension>
        </extensions>
      </trkpt>
      <trkpt lat="50.52893" lon="2.60031">
        <ele>37.4</ele>
        <time>2021-06-24T16:09:38Z</time>
        <extensions>
          <gpxtpx:TrackPointExtension xmlns:gpxtpx="http://www.garmin.com/xmlschemas/TrackPointExtension/v1">
            <gpxtpx:hr>139</gpxtpx:hr>
          </gpxtpx:TrackPointExtension>
        </extensions>
      </trkpt>
      <trkpt lat="50.52899" lon="2.60037">
        <ele>37.4</ele>
        <time>2021-06-24T16:09:39Z</time>
        <extensions>
          <gpxtpx:TrackPointExtension xmlns:gpxtpx="http://www.garmin.com/xmlschemas/TrackPointExtension/v1">
            <gpxtpx:hr>138</gpxtpx:hr>
          </gpxtpx:TrackPointExtension>
        </extensions>
      </trkpt>
      <trkpt lat="50.52903" lon="2.60043">
        <ele>37.4</ele>
        <time>2021-06-24T16:09:40Z</time>
        <extensions>
          <gpxtpx:TrackPointExtension xmlns:gpxtpx="http://www.garmin.com/xmlschemas/TrackPointExtension/v1">
            <gpxtpx:hr>138</gpxtpx:hr>
          </gpxtpx:TrackPointExtension>
        </extensions>
      </trkpt>
      <trkpt lat="50.52908" lon="2.60049">
        <ele>37.4</ele>
        <time>2021-06-24T16:09:41Z</time>
        <extensions>
          <gpxtpx:TrackPointExtension xmlns:gpxtpx="http://www.garmin.com/xmlschemas/TrackPointExtension/v1">
            <gpxtpx:hr>138</gpxtpx:hr>
          </gpxtpx:TrackPointExtension>
        </extensions>
      </trkpt>
      <trkpt lat="50.52913" lon="2.60056">
        <ele>37.2</ele>
        <time>2021-06-24T16:09:42Z</time>
        <extensions>
          <gpxtpx:TrackPointExtension xmlns:gpxtpx="http://www.garmin.com/xmlschemas/TrackPointExtension/v1">
            <gpxtpx:hr>138</gpxtpx:hr>
          </gpxtpx:TrackPointExtension>
        </extensions>
      </trkpt>
      <trkpt lat="50.52917" lon="2.60062">
        <ele>37.2</ele>
        <time>2021-06-24T16:09:43Z</time>
        <extensions>
          <gpxtpx:TrackPointExtension xmlns:gpxtpx="http://www.garmin.com/xmlschemas/TrackPointExtension/v1">
            <gpxtpx:hr>138</gpxtpx:hr>
          </gpxtpx:TrackPointExtension>
        </extensions>
      </trkpt>
      <trkpt lat="50.52921" lon="2.60069">
        <ele>37.2</ele>
        <time>2021-06-24T16:09:44Z</time>
        <extensions>
          <gpxtpx:TrackPointExtension xmlns:gpxtpx="http://www.garmin.com/xmlschemas/TrackPointExtension/v1">
            <gpxtpx:hr>138</gpxtpx:hr>
          </gpxtpx:TrackPointExtension>
        </extensions>
      </trkpt>
      <trkpt lat="50.52925" lon="2.60075">
        <ele>37.2</ele>
        <time>2021-06-24T16:09:45Z</time>
        <extensions>
          <gpxtpx:TrackPointExtension xmlns:gpxtpx="http://www.garmin.com/xmlschemas/TrackPointExtension/v1">
            <gpxtpx:hr>138</gpxtpx:hr>
          </gpxtpx:TrackPointExtension>
        </extensions>
      </trkpt>
      <trkpt lat="50.5293" lon="2.60082">
        <ele>37.2</ele>
        <time>2021-06-24T16:09:46Z</time>
        <extensions>
          <gpxtpx:TrackPointExtension xmlns:gpxtpx="http://www.garmin.com/xmlschemas/TrackPointExtension/v1">
            <gpxtpx:hr>139</gpxtpx:hr>
          </gpxtpx:TrackPointExtension>
        </extensions>
      </trkpt>
      <trkpt lat="50.52938" lon="2.60094">
        <ele>37</ele>
        <time>2021-06-24T16:09:48Z</time>
        <extensions>
          <gpxtpx:TrackPointExtension xmlns:gpxtpx="http://www.garmin.com/xmlschemas/TrackPointExtension/v1">
            <gpxtpx:hr>139</gpxtpx:hr>
          </gpxtpx:TrackPointExtension>
        </extensions>
      </trkpt>
      <trkpt lat="50.52943" lon="2.60102">
        <ele>37</ele>
        <time>2021-06-24T16:09:49Z</time>
        <extensions>
          <gpxtpx:TrackPointExtension xmlns:gpxtpx="http://www.garmin.com/xmlschemas/TrackPointExtension/v1">
            <gpxtpx:hr>139</gpxtpx:hr>
          </gpxtpx:TrackPointExtension>
        </extensions>
      </trkpt>
      <trkpt lat="50.52947" lon="2.60109">
        <ele>37</ele>
        <time>2021-06-24T16:09:50Z</time>
        <extensions>
          <gpxtpx:TrackPointExtension xmlns:gpxtpx="http://www.garmin.com/xmlschemas/TrackPointExtension/v1">
            <gpxtpx:hr>139</gpxtpx:hr>
          </gpxtpx:TrackPointExtension>
        </extensions>
      </trkpt>
      <trkpt lat="50.5295" lon="2.60115">
        <ele>36.8</ele>
        <time>2021-06-24T16:09:51Z</time>
        <extensions>
          <gpxtpx:TrackPointExtension xmlns:gpxtpx="http://www.garmin.com/xmlschemas/TrackPointExtension/v1">
            <gpxtpx:hr>139</gpxtpx:hr>
          </gpxtpx:TrackPointExtension>
        </extensions>
      </trkpt>
      <trkpt lat="50.52955" lon="2.60121">
        <ele>36.8</ele>
        <time>2021-06-24T16:09:52Z</time>
        <extensions>
          <gpxtpx:TrackPointExtension xmlns:gpxtpx="http://www.garmin.com/xmlschemas/TrackPointExtension/v1">
            <gpxtpx:hr>139</gpxtpx:hr>
          </gpxtpx:TrackPointExtension>
        </extensions>
      </trkpt>
      <trkpt lat="50.52958" lon="2.60129">
        <ele>36.8</ele>
        <time>2021-06-24T16:09:53Z</time>
        <extensions>
          <gpxtpx:TrackPointExtension xmlns:gpxtpx="http://www.garmin.com/xmlschemas/TrackPointExtension/v1">
            <gpxtpx:hr>139</gpxtpx:hr>
          </gpxtpx:TrackPointExtension>
        </extensions>
      </trkpt>
      <trkpt lat="50.52963" lon="2.60135">
        <ele>36.8</ele>
        <time>2021-06-24T16:09:54Z</time>
        <extensions>
          <gpxtpx:TrackPointExtension xmlns:gpxtpx="http://www.garmin.com/xmlschemas/TrackPointExtension/v1">
            <gpxtpx:hr>139</gpxtpx:hr>
          </gpxtpx:TrackPointExtension>
        </extensions>
      </trkpt>
      <trkpt lat="50.52966" lon="2.60141">
        <ele>36.6</ele>
        <time>2021-06-24T16:09:55Z</time>
        <extensions>
          <gpxtpx:TrackPointExtension xmlns:gpxtpx="http://www.garmin.com/xmlschemas/TrackPointExtension/v1">
            <gpxtpx:hr>140</gpxtpx:hr>
          </gpxtpx:TrackPointExtension>
        </extensions>
      </trkpt>
      <trkpt lat="50.52971" lon="2.60147">
        <ele>36.6</ele>
        <time>2021-06-24T16:09:56Z</time>
        <extensions>
          <gpxtpx:TrackPointExtension xmlns:gpxtpx="http://www.garmin.com/xmlschemas/TrackPointExtension/v1">
            <gpxtpx:hr>140</gpxtpx:hr>
          </gpxtpx:TrackPointExtension>
        </extensions>
      </trkpt>
      <trkpt lat="50.52974" lon="2.60154">
        <ele>36.6</ele>
        <time>2021-06-24T16:09:57Z</time>
        <extensions>
          <gpxtpx:TrackPointExtension xmlns:gpxtpx="http://www.garmin.com/xmlschemas/TrackPointExtension/v1">
            <gpxtpx:hr>140</gpxtpx:hr>
          </gpxtpx:TrackPointExtension>
        </extensions>
      </trkpt>
      <trkpt lat="50.52978" lon="2.6016">
        <ele>36.6</ele>
        <time>2021-06-24T16:09:58Z</time>
        <extensions>
          <gpxtpx:TrackPointExtension xmlns:gpxtpx="http://www.garmin.com/xmlschemas/TrackPointExtension/v1">
            <gpxtpx:hr>140</gpxtpx:hr>
          </gpxtpx:TrackPointExtension>
        </extensions>
      </trkpt>
      <trkpt lat="50.52981" lon="2.60167">
        <ele>36.6</ele>
        <time>2021-06-24T16:09:59Z</time>
        <extensions>
          <gpxtpx:TrackPointExtension xmlns:gpxtpx="http://www.garmin.com/xmlschemas/TrackPointExtension/v1">
            <gpxtpx:hr>140</gpxtpx:hr>
          </gpxtpx:TrackPointExtension>
        </extensions>
      </trkpt>
      <trkpt lat="50.52986" lon="2.60173">
        <ele>36.6</ele>
        <time>2021-06-24T16:10:00Z</time>
        <extensions>
          <gpxtpx:TrackPointExtension xmlns:gpxtpx="http://www.garmin.com/xmlschemas/TrackPointExtension/v1">
            <gpxtpx:hr>140</gpxtpx:hr>
          </gpxtpx:TrackPointExtension>
        </extensions>
      </trkpt>
      <trkpt lat="50.52989" lon="2.60179">
        <ele>36.6</ele>
        <time>2021-06-24T16:10:01Z</time>
        <extensions>
          <gpxtpx:TrackPointExtension xmlns:gpxtpx="http://www.garmin.com/xmlschemas/TrackPointExtension/v1">
            <gpxtpx:hr>141</gpxtpx:hr>
          </gpxtpx:TrackPointExtension>
        </extensions>
      </trkpt>
      <trkpt lat="50.52993" lon="2.60186">
        <ele>36.6</ele>
        <time>2021-06-24T16:10:02Z</time>
        <extensions>
          <gpxtpx:TrackPointExtension xmlns:gpxtpx="http://www.garmin.com/xmlschemas/TrackPointExtension/v1">
            <gpxtpx:hr>141</gpxtpx:hr>
          </gpxtpx:TrackPointExtension>
        </extensions>
      </trkpt>
      <trkpt lat="50.52996" lon="2.60191">
        <ele>36.6</ele>
        <time>2021-06-24T16:10:03Z</time>
        <extensions>
          <gpxtpx:TrackPointExtension xmlns:gpxtpx="http://www.garmin.com/xmlschemas/TrackPointExtension/v1">
            <gpxtpx:hr>141</gpxtpx:hr>
          </gpxtpx:TrackPointExtension>
        </extensions>
      </trkpt>
      <trkpt lat="50.53001" lon="2.60198">
        <ele>36.6</ele>
        <time>2021-06-24T16:10:04Z</time>
        <extensions>
          <gpxtpx:TrackPointExtension xmlns:gpxtpx="http://www.garmin.com/xmlschemas/TrackPointExtension/v1">
            <gpxtpx:hr>141</gpxtpx:hr>
          </gpxtpx:TrackPointExtension>
        </extensions>
      </trkpt>
      <trkpt lat="50.53004" lon="2.60204">
        <ele>36.6</ele>
        <time>2021-06-24T16:10:05Z</time>
        <extensions>
          <gpxtpx:TrackPointExtension xmlns:gpxtpx="http://www.garmin.com/xmlschemas/TrackPointExtension/v1">
            <gpxtpx:hr>141</gpxtpx:hr>
          </gpxtpx:TrackPointExtension>
        </extensions>
      </trkpt>
      <trkpt lat="50.53008" lon="2.60211">
        <ele>36.6</ele>
        <time>2021-06-24T16:10:06Z</time>
        <extensions>
          <gpxtpx:TrackPointExtension xmlns:gpxtpx="http://www.garmin.com/xmlschemas/TrackPointExtension/v1">
            <gpxtpx:hr>141</gpxtpx:hr>
          </gpxtpx:TrackPointExtension>
        </extensions>
      </trkpt>
      <trkpt lat="50.53012" lon="2.60217">
        <ele>36.6</ele>
        <time>2021-06-24T16:10:07Z</time>
        <extensions>
          <gpxtpx:TrackPointExtension xmlns:gpxtpx="http://www.garmin.com/xmlschemas/TrackPointExtension/v1">
            <gpxtpx:hr>141</gpxtpx:hr>
          </gpxtpx:TrackPointExtension>
        </extensions>
      </trkpt>
      <trkpt lat="50.53016" lon="2.60224">
        <ele>36.6</ele>
        <time>2021-06-24T16:10:08Z</time>
        <extensions>
          <gpxtpx:TrackPointExtension xmlns:gpxtpx="http://www.garmin.com/xmlschemas/TrackPointExtension/v1">
            <gpxtpx:hr>141</gpxtpx:hr>
          </gpxtpx:TrackPointExtension>
        </extensions>
      </trkpt>
      <trkpt lat="50.5302" lon="2.60231">
        <ele>36.6</ele>
        <time>2021-06-24T16:10:09Z</time>
        <extensions>
          <gpxtpx:TrackPointExtension xmlns:gpxtpx="http://www.garmin.com/xmlschemas/TrackPointExtension/v1">
            <gpxtpx:hr>141</gpxtpx:hr>
          </gpxtpx:TrackPointExtension>
        </extensions>
      </trkpt>
      <trkpt lat="50.53024" lon="2.60238">
        <ele>36.6</ele>
        <time>2021-06-24T16:10:10Z</time>
        <extensions>
          <gpxtpx:TrackPointExtension xmlns:gpxtpx="http://www.garmin.com/xmlschemas/TrackPointExtension/v1">
            <gpxtpx:hr>141</gpxtpx:hr>
          </gpxtpx:TrackPointExtension>
        </extensions>
      </trkpt>
      <trkpt lat="50.53028" lon="2.60245">
        <ele>36.8</ele>
        <time>2021-06-24T16:10:11Z</time>
        <extensions>
          <gpxtpx:TrackPointExtension xmlns:gpxtpx="http://www.garmin.com/xmlschemas/TrackPointExtension/v1">
            <gpxtpx:hr>141</gpxtpx:hr>
          </gpxtpx:TrackPointExtension>
        </extensions>
      </trkpt>
      <trkpt lat="50.53032" lon="2.60252">
        <ele>36.8</ele>
        <time>2021-06-24T16:10:12Z</time>
        <extensions>
          <gpxtpx:TrackPointExtension xmlns:gpxtpx="http://www.garmin.com/xmlschemas/TrackPointExtension/v1">
            <gpxtpx:hr>141</gpxtpx:hr>
          </gpxtpx:TrackPointExtension>
        </extensions>
      </trkpt>
      <trkpt lat="50.53035" lon="2.60259">
        <ele>36.8</ele>
        <time>2021-06-24T16:10:13Z</time>
        <extensions>
          <gpxtpx:TrackPointExtension xmlns:gpxtpx="http://www.garmin.com/xmlschemas/TrackPointExtension/v1">
            <gpxtpx:hr>141</gpxtpx:hr>
          </gpxtpx:TrackPointExtension>
        </extensions>
      </trkpt>
      <trkpt lat="50.53038" lon="2.60264">
        <ele>36.8</ele>
        <time>2021-06-24T16:10:14Z</time>
        <extensions>
          <gpxtpx:TrackPointExtension xmlns:gpxtpx="http://www.garmin.com/xmlschemas/TrackPointExtension/v1">
            <gpxtpx:hr>141</gpxtpx:hr>
          </gpxtpx:TrackPointExtension>
        </extensions>
      </trkpt>
      <trkpt lat="50.53043" lon="2.60272">
        <ele>36.8</ele>
        <time>2021-06-24T16:10:15Z</time>
        <extensions>
          <gpxtpx:TrackPointExtension xmlns:gpxtpx="http://www.garmin.com/xmlschemas/TrackPointExtension/v1">
            <gpxtpx:hr>141</gpxtpx:hr>
          </gpxtpx:TrackPointExtension>
        </extensions>
      </trkpt>
      <trkpt lat="50.53046" lon="2.60279">
        <ele>37</ele>
        <time>2021-06-24T16:10:16Z</time>
        <extensions>
          <gpxtpx:TrackPointExtension xmlns:gpxtpx="http://www.garmin.com/xmlschemas/TrackPointExtension/v1">
            <gpxtpx:hr>140</gpxtpx:hr>
          </gpxtpx:TrackPointExtension>
        </extensions>
      </trkpt>
      <trkpt lat="50.53051" lon="2.60285">
        <ele>37</ele>
        <time>2021-06-24T16:10:17Z</time>
        <extensions>
          <gpxtpx:TrackPointExtension xmlns:gpxtpx="http://www.garmin.com/xmlschemas/TrackPointExtension/v1">
            <gpxtpx:hr>140</gpxtpx:hr>
          </gpxtpx:TrackPointExtension>
        </extensions>
      </trkpt>
      <trkpt lat="50.53054" lon="2.60292">
        <ele>37</ele>
        <time>2021-06-24T16:10:18Z</time>
        <extensions>
          <gpxtpx:TrackPointExtension xmlns:gpxtpx="http://www.garmin.com/xmlschemas/TrackPointExtension/v1">
            <gpxtpx:hr>140</gpxtpx:hr>
          </gpxtpx:TrackPointExtension>
        </extensions>
      </trkpt>
      <trkpt lat="50.53058" lon="2.60298">
        <ele>37</ele>
        <time>2021-06-24T16:10:19Z</time>
        <extensions>
          <gpxtpx:TrackPointExtension xmlns:gpxtpx="http://www.garmin.com/xmlschemas/TrackPointExtension/v1">
            <gpxtpx:hr>140</gpxtpx:hr>
          </gpxtpx:TrackPointExtension>
        </extensions>
      </trkpt>
      <trkpt lat="50.53062" lon="2.60305">
        <ele>37</ele>
        <time>2021-06-24T16:10:20Z</time>
        <extensions>
          <gpxtpx:TrackPointExtension xmlns:gpxtpx="http://www.garmin.com/xmlschemas/TrackPointExtension/v1">
            <gpxtpx:hr>140</gpxtpx:hr>
          </gpxtpx:TrackPointExtension>
        </extensions>
      </trkpt>
      <trkpt lat="50.53066" lon="2.60311">
        <ele>37</ele>
        <time>2021-06-24T16:10:21Z</time>
        <extensions>
          <gpxtpx:TrackPointExtension xmlns:gpxtpx="http://www.garmin.com/xmlschemas/TrackPointExtension/v1">
            <gpxtpx:hr>139</gpxtpx:hr>
          </gpxtpx:TrackPointExtension>
        </extensions>
      </trkpt>
      <trkpt lat="50.53073" lon="2.60323">
        <ele>37</ele>
        <time>2021-06-24T16:10:23Z</time>
        <extensions>
          <gpxtpx:TrackPointExtension xmlns:gpxtpx="http://www.garmin.com/xmlschemas/TrackPointExtension/v1">
            <gpxtpx:hr>139</gpxtpx:hr>
          </gpxtpx:TrackPointExtension>
        </extensions>
      </trkpt>
      <trkpt lat="50.53077" lon="2.6033">
        <ele>37</ele>
        <time>2021-06-24T16:10:24Z</time>
        <extensions>
          <gpxtpx:TrackPointExtension xmlns:gpxtpx="http://www.garmin.com/xmlschemas/TrackPointExtension/v1">
            <gpxtpx:hr>139</gpxtpx:hr>
          </gpxtpx:TrackPointExtension>
        </extensions>
      </trkpt>
      <trkpt lat="50.53082" lon="2.60342">
        <ele>37.2</ele>
        <time>2021-06-24T16:10:26Z</time>
        <extensions>
          <gpxtpx:TrackPointExtension xmlns:gpxtpx="http://www.garmin.com/xmlschemas/TrackPointExtension/v1">
            <gpxtpx:hr>139</gpxtpx:hr>
          </gpxtpx:TrackPointExtension>
        </extensions>
      </trkpt>
      <trkpt lat="50.53084" lon="2.60345">
        <ele>37.2</ele>
        <time>2021-06-24T16:10:27Z</time>
        <extensions>
          <gpxtpx:TrackPointExtension xmlns:gpxtpx="http://www.garmin.com/xmlschemas/TrackPointExtension/v1">
            <gpxtpx:hr>139</gpxtpx:hr>
          </gpxtpx:TrackPointExtension>
        </extensions>
      </trkpt>
      <trkpt lat="50.53086" lon="2.60351">
        <ele>37</ele>
        <time>2021-06-24T16:10:28Z</time>
        <extensions>
          <gpxtpx:TrackPointExtension xmlns:gpxtpx="http://www.garmin.com/xmlschemas/TrackPointExtension/v1">
            <gpxtpx:hr>139</gpxtpx:hr>
          </gpxtpx:TrackPointExtension>
        </extensions>
      </trkpt>
      <trkpt lat="50.53088" lon="2.60357">
        <ele>37</ele>
        <time>2021-06-24T16:10:29Z</time>
        <extensions>
          <gpxtpx:TrackPointExtension xmlns:gpxtpx="http://www.garmin.com/xmlschemas/TrackPointExtension/v1">
            <gpxtpx:hr>139</gpxtpx:hr>
          </gpxtpx:TrackPointExtension>
        </extensions>
      </trkpt>
      <trkpt lat="50.53089" lon="2.60363">
        <ele>37</ele>
        <time>2021-06-24T16:10:30Z</time>
        <extensions>
          <gpxtpx:TrackPointExtension xmlns:gpxtpx="http://www.garmin.com/xmlschemas/TrackPointExtension/v1">
            <gpxtpx:hr>139</gpxtpx:hr>
          </gpxtpx:TrackPointExtension>
        </extensions>
      </trkpt>
      <trkpt lat="50.5309" lon="2.60367">
        <ele>37.2</ele>
        <time>2021-06-24T16:10:31Z</time>
        <extensions>
          <gpxtpx:TrackPointExtension xmlns:gpxtpx="http://www.garmin.com/xmlschemas/TrackPointExtension/v1">
            <gpxtpx:hr>139</gpxtpx:hr>
          </gpxtpx:TrackPointExtension>
        </extensions>
      </trkpt>
      <trkpt lat="50.53092" lon="2.60375">
        <ele>37.2</ele>
        <time>2021-06-24T16:10:33Z</time>
        <extensions>
          <gpxtpx:TrackPointExtension xmlns:gpxtpx="http://www.garmin.com/xmlschemas/TrackPointExtension/v1">
            <gpxtpx:hr>138</gpxtpx:hr>
          </gpxtpx:TrackPointExtension>
        </extensions>
      </trkpt>
      <trkpt lat="50.53094" lon="2.60378">
        <ele>37.2</ele>
        <time>2021-06-24T16:10:34Z</time>
        <extensions>
          <gpxtpx:TrackPointExtension xmlns:gpxtpx="http://www.garmin.com/xmlschemas/TrackPointExtension/v1">
            <gpxtpx:hr>137</gpxtpx:hr>
          </gpxtpx:TrackPointExtension>
        </extensions>
      </trkpt>
      <trkpt lat="50.53094" lon="2.60382">
        <ele>37.2</ele>
        <time>2021-06-24T16:10:35Z</time>
        <extensions>
          <gpxtpx:TrackPointExtension xmlns:gpxtpx="http://www.garmin.com/xmlschemas/TrackPointExtension/v1">
            <gpxtpx:hr>137</gpxtpx:hr>
          </gpxtpx:TrackPointExtension>
        </extensions>
      </trkpt>
      <trkpt lat="50.53094" lon="2.60385">
        <ele>37.2</ele>
        <time>2021-06-24T16:10:36Z</time>
        <extensions>
          <gpxtpx:TrackPointExtension xmlns:gpxtpx="http://www.garmin.com/xmlschemas/TrackPointExtension/v1">
            <gpxtpx:hr>136</gpxtpx:hr>
          </gpxtpx:TrackPointExtension>
        </extensions>
      </trkpt>
      <trkpt lat="50.53096" lon="2.60389">
        <ele>37</ele>
        <time>2021-06-24T16:10:37Z</time>
        <extensions>
          <gpxtpx:TrackPointExtension xmlns:gpxtpx="http://www.garmin.com/xmlschemas/TrackPointExtension/v1">
            <gpxtpx:hr>136</gpxtpx:hr>
          </gpxtpx:TrackPointExtension>
        </extensions>
      </trkpt>
      <trkpt lat="50.53097" lon="2.60392">
        <ele>37.2</ele>
        <time>2021-06-24T16:10:38Z</time>
        <extensions>
          <gpxtpx:TrackPointExtension xmlns:gpxtpx="http://www.garmin.com/xmlschemas/TrackPointExtension/v1">
            <gpxtpx:hr>136</gpxtpx:hr>
          </gpxtpx:TrackPointExtension>
        </extensions>
      </trkpt>
      <trkpt lat="50.53098" lon="2.60396">
        <ele>37</ele>
        <time>2021-06-24T16:10:39Z</time>
        <extensions>
          <gpxtpx:TrackPointExtension xmlns:gpxtpx="http://www.garmin.com/xmlschemas/TrackPointExtension/v1">
            <gpxtpx:hr>135</gpxtpx:hr>
          </gpxtpx:TrackPointExtension>
        </extensions>
      </trkpt>
      <trkpt lat="50.531" lon="2.604">
        <ele>37</ele>
        <time>2021-06-24T16:10:40Z</time>
        <extensions>
          <gpxtpx:TrackPointExtension xmlns:gpxtpx="http://www.garmin.com/xmlschemas/TrackPointExtension/v1">
            <gpxtpx:hr>135</gpxtpx:hr>
          </gpxtpx:TrackPointExtension>
        </extensions>
      </trkpt>
      <trkpt lat="50.53101" lon="2.60404">
        <ele>37</ele>
        <time>2021-06-24T16:10:41Z</time>
        <extensions>
          <gpxtpx:TrackPointExtension xmlns:gpxtpx="http://www.garmin.com/xmlschemas/TrackPointExtension/v1">
            <gpxtpx:hr>134</gpxtpx:hr>
          </gpxtpx:TrackPointExtension>
        </extensions>
      </trkpt>
      <trkpt lat="50.53104" lon="2.60407">
        <ele>37</ele>
        <time>2021-06-24T16:10:42Z</time>
        <extensions>
          <gpxtpx:TrackPointExtension xmlns:gpxtpx="http://www.garmin.com/xmlschemas/TrackPointExtension/v1">
            <gpxtpx:hr>133</gpxtpx:hr>
          </gpxtpx:TrackPointExtension>
        </extensions>
      </trkpt>
      <trkpt lat="50.53106" lon="2.60411">
        <ele>36.8</ele>
        <time>2021-06-24T16:10:43Z</time>
        <extensions>
          <gpxtpx:TrackPointExtension xmlns:gpxtpx="http://www.garmin.com/xmlschemas/TrackPointExtension/v1">
            <gpxtpx:hr>132</gpxtpx:hr>
          </gpxtpx:TrackPointExtension>
        </extensions>
      </trkpt>
      <trkpt lat="50.53109" lon="2.60415">
        <ele>36.8</ele>
        <time>2021-06-24T16:10:44Z</time>
        <extensions>
          <gpxtpx:TrackPointExtension xmlns:gpxtpx="http://www.garmin.com/xmlschemas/TrackPointExtension/v1">
            <gpxtpx:hr>131</gpxtpx:hr>
          </gpxtpx:TrackPointExtension>
        </extensions>
      </trkpt>
      <trkpt lat="50.53112" lon="2.60419">
        <ele>36.8</ele>
        <time>2021-06-24T16:10:45Z</time>
        <extensions>
          <gpxtpx:TrackPointExtension xmlns:gpxtpx="http://www.garmin.com/xmlschemas/TrackPointExtension/v1">
            <gpxtpx:hr>131</gpxtpx:hr>
          </gpxtpx:TrackPointExtension>
        </extensions>
      </trkpt>
      <trkpt lat="50.53115" lon="2.60424">
        <ele>36.8</ele>
        <time>2021-06-24T16:10:46Z</time>
        <extensions>
          <gpxtpx:TrackPointExtension xmlns:gpxtpx="http://www.garmin.com/xmlschemas/TrackPointExtension/v1">
            <gpxtpx:hr>130</gpxtpx:hr>
          </gpxtpx:TrackPointExtension>
        </extensions>
      </trkpt>
      <trkpt lat="50.53118" lon="2.60429">
        <ele>37</ele>
        <time>2021-06-24T16:10:47Z</time>
        <extensions>
          <gpxtpx:TrackPointExtension xmlns:gpxtpx="http://www.garmin.com/xmlschemas/TrackPointExtension/v1">
            <gpxtpx:hr>130</gpxtpx:hr>
          </gpxtpx:TrackPointExtension>
        </extensions>
      </trkpt>
      <trkpt lat="50.53121" lon="2.60435">
        <ele>37</ele>
        <time>2021-06-24T16:10:48Z</time>
        <extensions>
          <gpxtpx:TrackPointExtension xmlns:gpxtpx="http://www.garmin.com/xmlschemas/TrackPointExtension/v1">
            <gpxtpx:hr>129</gpxtpx:hr>
          </gpxtpx:TrackPointExtension>
        </extensions>
      </trkpt>
      <trkpt lat="50.53124" lon="2.6044">
        <ele>37</ele>
        <time>2021-06-24T16:10:49Z</time>
        <extensions>
          <gpxtpx:TrackPointExtension xmlns:gpxtpx="http://www.garmin.com/xmlschemas/TrackPointExtension/v1">
            <gpxtpx:hr>129</gpxtpx:hr>
          </gpxtpx:TrackPointExtension>
        </extensions>
      </trkpt>
      <trkpt lat="50.53126" lon="2.60447">
        <ele>37</ele>
        <time>2021-06-24T16:10:50Z</time>
        <extensions>
          <gpxtpx:TrackPointExtension xmlns:gpxtpx="http://www.garmin.com/xmlschemas/TrackPointExtension/v1">
            <gpxtpx:hr>129</gpxtpx:hr>
          </gpxtpx:TrackPointExtension>
        </extensions>
      </trkpt>
      <trkpt lat="50.53127" lon="2.60453">
        <ele>37</ele>
        <time>2021-06-24T16:10:51Z</time>
        <extensions>
          <gpxtpx:TrackPointExtension xmlns:gpxtpx="http://www.garmin.com/xmlschemas/TrackPointExtension/v1">
            <gpxtpx:hr>128</gpxtpx:hr>
          </gpxtpx:TrackPointExtension>
        </extensions>
      </trkpt>
      <trkpt lat="50.53128" lon="2.60459">
        <ele>37</ele>
        <time>2021-06-24T16:10:52Z</time>
        <extensions>
          <gpxtpx:TrackPointExtension xmlns:gpxtpx="http://www.garmin.com/xmlschemas/TrackPointExtension/v1">
            <gpxtpx:hr>128</gpxtpx:hr>
          </gpxtpx:TrackPointExtension>
        </extensions>
      </trkpt>
      <trkpt lat="50.5313" lon="2.60467">
        <ele>37</ele>
        <time>2021-06-24T16:10:53Z</time>
        <extensions>
          <gpxtpx:TrackPointExtension xmlns:gpxtpx="http://www.garmin.com/xmlschemas/TrackPointExtension/v1">
            <gpxtpx:hr>128</gpxtpx:hr>
          </gpxtpx:TrackPointExtension>
        </extensions>
      </trkpt>
      <trkpt lat="50.53132" lon="2.60473">
        <ele>37</ele>
        <time>2021-06-24T16:10:54Z</time>
        <extensions>
          <gpxtpx:TrackPointExtension xmlns:gpxtpx="http://www.garmin.com/xmlschemas/TrackPointExtension/v1">
            <gpxtpx:hr>128</gpxtpx:hr>
          </gpxtpx:TrackPointExtension>
        </extensions>
      </trkpt>
      <trkpt lat="50.53135" lon="2.60488">
        <ele>37</ele>
        <time>2021-06-24T16:10:56Z</time>
        <extensions>
          <gpxtpx:TrackPointExtension xmlns:gpxtpx="http://www.garmin.com/xmlschemas/TrackPointExtension/v1">
            <gpxtpx:hr>127</gpxtpx:hr>
          </gpxtpx:TrackPointExtension>
        </extensions>
      </trkpt>
      <trkpt lat="50.53137" lon="2.60494">
        <ele>37</ele>
        <time>2021-06-24T16:10:57Z</time>
        <extensions>
          <gpxtpx:TrackPointExtension xmlns:gpxtpx="http://www.garmin.com/xmlschemas/TrackPointExtension/v1">
            <gpxtpx:hr>127</gpxtpx:hr>
          </gpxtpx:TrackPointExtension>
        </extensions>
      </trkpt>
      <trkpt lat="50.53139" lon="2.60502">
        <ele>37</ele>
        <time>2021-06-24T16:10:58Z</time>
        <extensions>
          <gpxtpx:TrackPointExtension xmlns:gpxtpx="http://www.garmin.com/xmlschemas/TrackPointExtension/v1">
            <gpxtpx:hr>127</gpxtpx:hr>
          </gpxtpx:TrackPointExtension>
        </extensions>
      </trkpt>
      <trkpt lat="50.53141" lon="2.60512">
        <ele>37</ele>
        <time>2021-06-24T16:10:59Z</time>
        <extensions>
          <gpxtpx:TrackPointExtension xmlns:gpxtpx="http://www.garmin.com/xmlschemas/TrackPointExtension/v1">
            <gpxtpx:hr>126</gpxtpx:hr>
          </gpxtpx:TrackPointExtension>
        </extensions>
      </trkpt>
      <trkpt lat="50.53143" lon="2.60519">
        <ele>37</ele>
        <time>2021-06-24T16:11:00Z</time>
        <extensions>
          <gpxtpx:TrackPointExtension xmlns:gpxtpx="http://www.garmin.com/xmlschemas/TrackPointExtension/v1">
            <gpxtpx:hr>126</gpxtpx:hr>
          </gpxtpx:TrackPointExtension>
        </extensions>
      </trkpt>
      <trkpt lat="50.53145" lon="2.60527">
        <ele>37</ele>
        <time>2021-06-24T16:11:01Z</time>
        <extensions>
          <gpxtpx:TrackPointExtension xmlns:gpxtpx="http://www.garmin.com/xmlschemas/TrackPointExtension/v1">
            <gpxtpx:hr>125</gpxtpx:hr>
          </gpxtpx:TrackPointExtension>
        </extensions>
      </trkpt>
      <trkpt lat="50.53148" lon="2.60537">
        <ele>37</ele>
        <time>2021-06-24T16:11:02Z</time>
        <extensions>
          <gpxtpx:TrackPointExtension xmlns:gpxtpx="http://www.garmin.com/xmlschemas/TrackPointExtension/v1">
            <gpxtpx:hr>125</gpxtpx:hr>
          </gpxtpx:TrackPointExtension>
        </extensions>
      </trkpt>
      <trkpt lat="50.5315" lon="2.60544">
        <ele>37</ele>
        <time>2021-06-24T16:11:03Z</time>
        <extensions>
          <gpxtpx:TrackPointExtension xmlns:gpxtpx="http://www.garmin.com/xmlschemas/TrackPointExtension/v1">
            <gpxtpx:hr>124</gpxtpx:hr>
          </gpxtpx:TrackPointExtension>
        </extensions>
      </trkpt>
      <trkpt lat="50.53153" lon="2.60554">
        <ele>37</ele>
        <time>2021-06-24T16:11:04Z</time>
        <extensions>
          <gpxtpx:TrackPointExtension xmlns:gpxtpx="http://www.garmin.com/xmlschemas/TrackPointExtension/v1">
            <gpxtpx:hr>124</gpxtpx:hr>
          </gpxtpx:TrackPointExtension>
        </extensions>
      </trkpt>
      <trkpt lat="50.53155" lon="2.60561">
        <ele>37.2</ele>
        <time>2021-06-24T16:11:05Z</time>
        <extensions>
          <gpxtpx:TrackPointExtension xmlns:gpxtpx="http://www.garmin.com/xmlschemas/TrackPointExtension/v1">
            <gpxtpx:hr>124</gpxtpx:hr>
          </gpxtpx:TrackPointExtension>
        </extensions>
      </trkpt>
      <trkpt lat="50.53158" lon="2.60571">
        <ele>37.2</ele>
        <time>2021-06-24T16:11:06Z</time>
        <extensions>
          <gpxtpx:TrackPointExtension xmlns:gpxtpx="http://www.garmin.com/xmlschemas/TrackPointExtension/v1">
            <gpxtpx:hr>124</gpxtpx:hr>
          </gpxtpx:TrackPointExtension>
        </extensions>
      </trkpt>
      <trkpt lat="50.5316" lon="2.60578">
        <ele>37.2</ele>
        <time>2021-06-24T16:11:07Z</time>
        <extensions>
          <gpxtpx:TrackPointExtension xmlns:gpxtpx="http://www.garmin.com/xmlschemas/TrackPointExtension/v1">
            <gpxtpx:hr>124</gpxtpx:hr>
          </gpxtpx:TrackPointExtension>
        </extensions>
      </trkpt>
      <trkpt lat="50.53162" lon="2.60587">
        <ele>37.2</ele>
        <time>2021-06-24T16:11:08Z</time>
        <extensions>
          <gpxtpx:TrackPointExtension xmlns:gpxtpx="http://www.garmin.com/xmlschemas/TrackPointExtension/v1">
            <gpxtpx:hr>123</gpxtpx:hr>
          </gpxtpx:TrackPointExtension>
        </extensions>
      </trkpt>
      <trkpt lat="50.53165" lon="2.60595">
        <ele>37.2</ele>
        <time>2021-06-24T16:11:09Z</time>
        <extensions>
          <gpxtpx:TrackPointExtension xmlns:gpxtpx="http://www.garmin.com/xmlschemas/TrackPointExtension/v1">
            <gpxtpx:hr>123</gpxtpx:hr>
          </gpxtpx:TrackPointExtension>
        </extensions>
      </trkpt>
      <trkpt lat="50.53168" lon="2.60603">
        <ele>37.2</ele>
        <time>2021-06-24T16:11:10Z</time>
        <extensions>
          <gpxtpx:TrackPointExtension xmlns:gpxtpx="http://www.garmin.com/xmlschemas/TrackPointExtension/v1">
            <gpxtpx:hr>123</gpxtpx:hr>
          </gpxtpx:TrackPointExtension>
        </extensions>
      </trkpt>
      <trkpt lat="50.5317" lon="2.60611">
        <ele>37</ele>
        <time>2021-06-24T16:11:11Z</time>
        <extensions>
          <gpxtpx:TrackPointExtension xmlns:gpxtpx="http://www.garmin.com/xmlschemas/TrackPointExtension/v1">
            <gpxtpx:hr>123</gpxtpx:hr>
          </gpxtpx:TrackPointExtension>
        </extensions>
      </trkpt>
      <trkpt lat="50.53173" lon="2.60619">
        <ele>37</ele>
        <time>2021-06-24T16:11:12Z</time>
        <extensions>
          <gpxtpx:TrackPointExtension xmlns:gpxtpx="http://www.garmin.com/xmlschemas/TrackPointExtension/v1">
            <gpxtpx:hr>123</gpxtpx:hr>
          </gpxtpx:TrackPointExtension>
        </extensions>
      </trkpt>
      <trkpt lat="50.53177" lon="2.60627">
        <ele>37</ele>
        <time>2021-06-24T16:11:13Z</time>
        <extensions>
          <gpxtpx:TrackPointExtension xmlns:gpxtpx="http://www.garmin.com/xmlschemas/TrackPointExtension/v1">
            <gpxtpx:hr>122</gpxtpx:hr>
          </gpxtpx:TrackPointExtension>
        </extensions>
      </trkpt>
      <trkpt lat="50.5318" lon="2.60635">
        <ele>37</ele>
        <time>2021-06-24T16:11:14Z</time>
        <extensions>
          <gpxtpx:TrackPointExtension xmlns:gpxtpx="http://www.garmin.com/xmlschemas/TrackPointExtension/v1">
            <gpxtpx:hr>122</gpxtpx:hr>
          </gpxtpx:TrackPointExtension>
        </extensions>
      </trkpt>
      <trkpt lat="50.53183" lon="2.60644">
        <ele>36.8</ele>
        <time>2021-06-24T16:11:15Z</time>
        <extensions>
          <gpxtpx:TrackPointExtension xmlns:gpxtpx="http://www.garmin.com/xmlschemas/TrackPointExtension/v1">
            <gpxtpx:hr>122</gpxtpx:hr>
          </gpxtpx:TrackPointExtension>
        </extensions>
      </trkpt>
      <trkpt lat="50.53187" lon="2.60653">
        <ele>36.8</ele>
        <time>2021-06-24T16:11:16Z</time>
        <extensions>
          <gpxtpx:TrackPointExtension xmlns:gpxtpx="http://www.garmin.com/xmlschemas/TrackPointExtension/v1">
            <gpxtpx:hr>122</gpxtpx:hr>
          </gpxtpx:TrackPointExtension>
        </extensions>
      </trkpt>
      <trkpt lat="50.53189" lon="2.60659">
        <ele>36.6</ele>
        <time>2021-06-24T16:11:17Z</time>
        <extensions>
          <gpxtpx:TrackPointExtension xmlns:gpxtpx="http://www.garmin.com/xmlschemas/TrackPointExtension/v1">
            <gpxtpx:hr>122</gpxtpx:hr>
          </gpxtpx:TrackPointExtension>
        </extensions>
      </trkpt>
      <trkpt lat="50.53194" lon="2.60668">
        <ele>36.4</ele>
        <time>2021-06-24T16:11:18Z</time>
        <extensions>
          <gpxtpx:TrackPointExtension xmlns:gpxtpx="http://www.garmin.com/xmlschemas/TrackPointExtension/v1">
            <gpxtpx:hr>122</gpxtpx:hr>
          </gpxtpx:TrackPointExtension>
        </extensions>
      </trkpt>
      <trkpt lat="50.53196" lon="2.60676">
        <ele>36.4</ele>
        <time>2021-06-24T16:11:19Z</time>
        <extensions>
          <gpxtpx:TrackPointExtension xmlns:gpxtpx="http://www.garmin.com/xmlschemas/TrackPointExtension/v1">
            <gpxtpx:hr>122</gpxtpx:hr>
          </gpxtpx:TrackPointExtension>
        </extensions>
      </trkpt>
      <trkpt lat="50.532" lon="2.60684">
        <ele>36.2</ele>
        <time>2021-06-24T16:11:20Z</time>
        <extensions>
          <gpxtpx:TrackPointExtension xmlns:gpxtpx="http://www.garmin.com/xmlschemas/TrackPointExtension/v1">
            <gpxtpx:hr>122</gpxtpx:hr>
          </gpxtpx:TrackPointExtension>
        </extensions>
      </trkpt>
      <trkpt lat="50.53204" lon="2.60691">
        <ele>36</ele>
        <time>2021-06-24T16:11:21Z</time>
        <extensions>
          <gpxtpx:TrackPointExtension xmlns:gpxtpx="http://www.garmin.com/xmlschemas/TrackPointExtension/v1">
            <gpxtpx:hr>122</gpxtpx:hr>
          </gpxtpx:TrackPointExtension>
        </extensions>
      </trkpt>
      <trkpt lat="50.53208" lon="2.60697">
        <ele>36</ele>
        <time>2021-06-24T16:11:22Z</time>
        <extensions>
          <gpxtpx:TrackPointExtension xmlns:gpxtpx="http://www.garmin.com/xmlschemas/TrackPointExtension/v1">
            <gpxtpx:hr>123</gpxtpx:hr>
          </gpxtpx:TrackPointExtension>
        </extensions>
      </trkpt>
      <trkpt lat="50.53212" lon="2.60704">
        <ele>36</ele>
        <time>2021-06-24T16:11:23Z</time>
        <extensions>
          <gpxtpx:TrackPointExtension xmlns:gpxtpx="http://www.garmin.com/xmlschemas/TrackPointExtension/v1">
            <gpxtpx:hr>123</gpxtpx:hr>
          </gpxtpx:TrackPointExtension>
        </extensions>
      </trkpt>
      <trkpt lat="50.53216" lon="2.60712">
        <ele>36</ele>
        <time>2021-06-24T16:11:24Z</time>
        <extensions>
          <gpxtpx:TrackPointExtension xmlns:gpxtpx="http://www.garmin.com/xmlschemas/TrackPointExtension/v1">
            <gpxtpx:hr>123</gpxtpx:hr>
          </gpxtpx:TrackPointExtension>
        </extensions>
      </trkpt>
      <trkpt lat="50.53223" lon="2.60727">
        <ele>36.2</ele>
        <time>2021-06-24T16:11:26Z</time>
        <extensions>
          <gpxtpx:TrackPointExtension xmlns:gpxtpx="http://www.garmin.com/xmlschemas/TrackPointExtension/v1">
            <gpxtpx:hr>123</gpxtpx:hr>
          </gpxtpx:TrackPointExtension>
        </extensions>
      </trkpt>
      <trkpt lat="50.53227" lon="2.60735">
        <ele>36.2</ele>
        <time>2021-06-24T16:11:27Z</time>
        <extensions>
          <gpxtpx:TrackPointExtension xmlns:gpxtpx="http://www.garmin.com/xmlschemas/TrackPointExtension/v1">
            <gpxtpx:hr>123</gpxtpx:hr>
          </gpxtpx:TrackPointExtension>
        </extensions>
      </trkpt>
      <trkpt lat="50.53231" lon="2.60742">
        <ele>36.2</ele>
        <time>2021-06-24T16:11:28Z</time>
        <extensions>
          <gpxtpx:TrackPointExtension xmlns:gpxtpx="http://www.garmin.com/xmlschemas/TrackPointExtension/v1">
            <gpxtpx:hr>124</gpxtpx:hr>
          </gpxtpx:TrackPointExtension>
        </extensions>
      </trkpt>
      <trkpt lat="50.53234" lon="2.60749">
        <ele>36.4</ele>
        <time>2021-06-24T16:11:29Z</time>
        <extensions>
          <gpxtpx:TrackPointExtension xmlns:gpxtpx="http://www.garmin.com/xmlschemas/TrackPointExtension/v1">
            <gpxtpx:hr>124</gpxtpx:hr>
          </gpxtpx:TrackPointExtension>
        </extensions>
      </trkpt>
      <trkpt lat="50.53241" lon="2.60762">
        <ele>36.4</ele>
        <time>2021-06-24T16:11:31Z</time>
        <extensions>
          <gpxtpx:TrackPointExtension xmlns:gpxtpx="http://www.garmin.com/xmlschemas/TrackPointExtension/v1">
            <gpxtpx:hr>125</gpxtpx:hr>
          </gpxtpx:TrackPointExtension>
        </extensions>
      </trkpt>
      <trkpt lat="50.53245" lon="2.60769">
        <ele>36.4</ele>
        <time>2021-06-24T16:11:32Z</time>
        <extensions>
          <gpxtpx:TrackPointExtension xmlns:gpxtpx="http://www.garmin.com/xmlschemas/TrackPointExtension/v1">
            <gpxtpx:hr>126</gpxtpx:hr>
          </gpxtpx:TrackPointExtension>
        </extensions>
      </trkpt>
      <trkpt lat="50.53247" lon="2.60776">
        <ele>36.4</ele>
        <time>2021-06-24T16:11:33Z</time>
        <extensions>
          <gpxtpx:TrackPointExtension xmlns:gpxtpx="http://www.garmin.com/xmlschemas/TrackPointExtension/v1">
            <gpxtpx:hr>126</gpxtpx:hr>
          </gpxtpx:TrackPointExtension>
        </extensions>
      </trkpt>
      <trkpt lat="50.53265" lon="2.60801">
        <ele>36.4</ele>
        <time>2021-06-24T16:11:38Z</time>
        <extensions>
          <gpxtpx:TrackPointExtension xmlns:gpxtpx="http://www.garmin.com/xmlschemas/TrackPointExtension/v1">
            <gpxtpx:hr>128</gpxtpx:hr>
          </gpxtpx:TrackPointExtension>
        </extensions>
      </trkpt>
      <trkpt lat="50.53268" lon="2.60806">
        <ele>36.2</ele>
        <time>2021-06-24T16:11:39Z</time>
        <extensions>
          <gpxtpx:TrackPointExtension xmlns:gpxtpx="http://www.garmin.com/xmlschemas/TrackPointExtension/v1">
            <gpxtpx:hr>128</gpxtpx:hr>
          </gpxtpx:TrackPointExtension>
        </extensions>
      </trkpt>
      <trkpt lat="50.53271" lon="2.60813">
        <ele>36.2</ele>
        <time>2021-06-24T16:11:40Z</time>
        <extensions>
          <gpxtpx:TrackPointExtension xmlns:gpxtpx="http://www.garmin.com/xmlschemas/TrackPointExtension/v1">
            <gpxtpx:hr>128</gpxtpx:hr>
          </gpxtpx:TrackPointExtension>
        </extensions>
      </trkpt>
      <trkpt lat="50.53274" lon="2.60818">
        <ele>36.2</ele>
        <time>2021-06-24T16:11:41Z</time>
        <extensions>
          <gpxtpx:TrackPointExtension xmlns:gpxtpx="http://www.garmin.com/xmlschemas/TrackPointExtension/v1">
            <gpxtpx:hr>128</gpxtpx:hr>
          </gpxtpx:TrackPointExtension>
        </extensions>
      </trkpt>
      <trkpt lat="50.53277" lon="2.60825">
        <ele>36.2</ele>
        <time>2021-06-24T16:11:42Z</time>
        <extensions>
          <gpxtpx:TrackPointExtension xmlns:gpxtpx="http://www.garmin.com/xmlschemas/TrackPointExtension/v1">
            <gpxtpx:hr>127</gpxtpx:hr>
          </gpxtpx:TrackPointExtension>
        </extensions>
      </trkpt>
      <trkpt lat="50.53281" lon="2.60832">
        <ele>36</ele>
        <time>2021-06-24T16:11:43Z</time>
        <extensions>
          <gpxtpx:TrackPointExtension xmlns:gpxtpx="http://www.garmin.com/xmlschemas/TrackPointExtension/v1">
            <gpxtpx:hr>127</gpxtpx:hr>
          </gpxtpx:TrackPointExtension>
        </extensions>
      </trkpt>
      <trkpt lat="50.53287" lon="2.60847">
        <ele>36</ele>
        <time>2021-06-24T16:11:45Z</time>
        <extensions>
          <gpxtpx:TrackPointExtension xmlns:gpxtpx="http://www.garmin.com/xmlschemas/TrackPointExtension/v1">
            <gpxtpx:hr>125</gpxtpx:hr>
          </gpxtpx:TrackPointExtension>
        </extensions>
      </trkpt>
      <trkpt lat="50.53289" lon="2.60855">
        <ele>36</ele>
        <time>2021-06-24T16:11:46Z</time>
        <extensions>
          <gpxtpx:TrackPointExtension xmlns:gpxtpx="http://www.garmin.com/xmlschemas/TrackPointExtension/v1">
            <gpxtpx:hr>125</gpxtpx:hr>
          </gpxtpx:TrackPointExtension>
        </extensions>
      </trkpt>
      <trkpt lat="50.53292" lon="2.60864">
        <ele>35.8</ele>
        <time>2021-06-24T16:11:47Z</time>
        <extensions>
          <gpxtpx:TrackPointExtension xmlns:gpxtpx="http://www.garmin.com/xmlschemas/TrackPointExtension/v1">
            <gpxtpx:hr>124</gpxtpx:hr>
          </gpxtpx:TrackPointExtension>
        </extensions>
      </trkpt>
      <trkpt lat="50.53296" lon="2.60873">
        <ele>35.8</ele>
        <time>2021-06-24T16:11:48Z</time>
        <extensions>
          <gpxtpx:TrackPointExtension xmlns:gpxtpx="http://www.garmin.com/xmlschemas/TrackPointExtension/v1">
            <gpxtpx:hr>123</gpxtpx:hr>
          </gpxtpx:TrackPointExtension>
        </extensions>
      </trkpt>
      <trkpt lat="50.53299" lon="2.60879">
        <ele>35.8</ele>
        <time>2021-06-24T16:11:49Z</time>
        <extensions>
          <gpxtpx:TrackPointExtension xmlns:gpxtpx="http://www.garmin.com/xmlschemas/TrackPointExtension/v1">
            <gpxtpx:hr>122</gpxtpx:hr>
          </gpxtpx:TrackPointExtension>
        </extensions>
      </trkpt>
      <trkpt lat="50.53302" lon="2.60888">
        <ele>35.6</ele>
        <time>2021-06-24T16:11:50Z</time>
        <extensions>
          <gpxtpx:TrackPointExtension xmlns:gpxtpx="http://www.garmin.com/xmlschemas/TrackPointExtension/v1">
            <gpxtpx:hr>122</gpxtpx:hr>
          </gpxtpx:TrackPointExtension>
        </extensions>
      </trkpt>
      <trkpt lat="50.53305" lon="2.60897">
        <ele>35.4</ele>
        <time>2021-06-24T16:11:51Z</time>
        <extensions>
          <gpxtpx:TrackPointExtension xmlns:gpxtpx="http://www.garmin.com/xmlschemas/TrackPointExtension/v1">
            <gpxtpx:hr>121</gpxtpx:hr>
          </gpxtpx:TrackPointExtension>
        </extensions>
      </trkpt>
      <trkpt lat="50.53306" lon="2.60906">
        <ele>35.4</ele>
        <time>2021-06-24T16:11:52Z</time>
        <extensions>
          <gpxtpx:TrackPointExtension xmlns:gpxtpx="http://www.garmin.com/xmlschemas/TrackPointExtension/v1">
            <gpxtpx:hr>121</gpxtpx:hr>
          </gpxtpx:TrackPointExtension>
        </extensions>
      </trkpt>
      <trkpt lat="50.53308" lon="2.60911">
        <ele>35.2</ele>
        <time>2021-06-24T16:11:53Z</time>
        <extensions>
          <gpxtpx:TrackPointExtension xmlns:gpxtpx="http://www.garmin.com/xmlschemas/TrackPointExtension/v1">
            <gpxtpx:hr>121</gpxtpx:hr>
          </gpxtpx:TrackPointExtension>
        </extensions>
      </trkpt>
      <trkpt lat="50.53311" lon="2.60919">
        <ele>35.2</ele>
        <time>2021-06-24T16:11:54Z</time>
        <extensions>
          <gpxtpx:TrackPointExtension xmlns:gpxtpx="http://www.garmin.com/xmlschemas/TrackPointExtension/v1">
            <gpxtpx:hr>121</gpxtpx:hr>
          </gpxtpx:TrackPointExtension>
        </extensions>
      </trkpt>
      <trkpt lat="50.53314" lon="2.60926">
        <ele>35</ele>
        <time>2021-06-24T16:11:55Z</time>
        <extensions>
          <gpxtpx:TrackPointExtension xmlns:gpxtpx="http://www.garmin.com/xmlschemas/TrackPointExtension/v1">
            <gpxtpx:hr>121</gpxtpx:hr>
          </gpxtpx:TrackPointExtension>
        </extensions>
      </trkpt>
      <trkpt lat="50.53318" lon="2.60937">
        <ele>35</ele>
        <time>2021-06-24T16:11:56Z</time>
        <extensions>
          <gpxtpx:TrackPointExtension xmlns:gpxtpx="http://www.garmin.com/xmlschemas/TrackPointExtension/v1">
            <gpxtpx:hr>121</gpxtpx:hr>
          </gpxtpx:TrackPointExtension>
        </extensions>
      </trkpt>
      <trkpt lat="50.53321" lon="2.60946">
        <ele>35</ele>
        <time>2021-06-24T16:11:57Z</time>
        <extensions>
          <gpxtpx:TrackPointExtension xmlns:gpxtpx="http://www.garmin.com/xmlschemas/TrackPointExtension/v1">
            <gpxtpx:hr>121</gpxtpx:hr>
          </gpxtpx:TrackPointExtension>
        </extensions>
      </trkpt>
      <trkpt lat="50.53326" lon="2.60962">
        <ele>34.8</ele>
        <time>2021-06-24T16:11:59Z</time>
        <extensions>
          <gpxtpx:TrackPointExtension xmlns:gpxtpx="http://www.garmin.com/xmlschemas/TrackPointExtension/v1">
            <gpxtpx:hr>122</gpxtpx:hr>
          </gpxtpx:TrackPointExtension>
        </extensions>
      </trkpt>
      <trkpt lat="50.5333" lon="2.60971">
        <ele>34.6</ele>
        <time>2021-06-24T16:12:00Z</time>
        <extensions>
          <gpxtpx:TrackPointExtension xmlns:gpxtpx="http://www.garmin.com/xmlschemas/TrackPointExtension/v1">
            <gpxtpx:hr>122</gpxtpx:hr>
          </gpxtpx:TrackPointExtension>
        </extensions>
      </trkpt>
      <trkpt lat="50.53332" lon="2.60979">
        <ele>34.6</ele>
        <time>2021-06-24T16:12:01Z</time>
        <extensions>
          <gpxtpx:TrackPointExtension xmlns:gpxtpx="http://www.garmin.com/xmlschemas/TrackPointExtension/v1">
            <gpxtpx:hr>123</gpxtpx:hr>
          </gpxtpx:TrackPointExtension>
        </extensions>
      </trkpt>
      <trkpt lat="50.53335" lon="2.60987">
        <ele>34.4</ele>
        <time>2021-06-24T16:12:02Z</time>
        <extensions>
          <gpxtpx:TrackPointExtension xmlns:gpxtpx="http://www.garmin.com/xmlschemas/TrackPointExtension/v1">
            <gpxtpx:hr>123</gpxtpx:hr>
          </gpxtpx:TrackPointExtension>
        </extensions>
      </trkpt>
      <trkpt lat="50.53338" lon="2.60994">
        <ele>34.2</ele>
        <time>2021-06-24T16:12:03Z</time>
        <extensions>
          <gpxtpx:TrackPointExtension xmlns:gpxtpx="http://www.garmin.com/xmlschemas/TrackPointExtension/v1">
            <gpxtpx:hr>123</gpxtpx:hr>
          </gpxtpx:TrackPointExtension>
        </extensions>
      </trkpt>
      <trkpt lat="50.53341" lon="2.61006">
        <ele>34.2</ele>
        <time>2021-06-24T16:12:04Z</time>
        <extensions>
          <gpxtpx:TrackPointExtension xmlns:gpxtpx="http://www.garmin.com/xmlschemas/TrackPointExtension/v1">
            <gpxtpx:hr>123</gpxtpx:hr>
          </gpxtpx:TrackPointExtension>
        </extensions>
      </trkpt>
      <trkpt lat="50.53344" lon="2.61015">
        <ele>34.2</ele>
        <time>2021-06-24T16:12:05Z</time>
        <extensions>
          <gpxtpx:TrackPointExtension xmlns:gpxtpx="http://www.garmin.com/xmlschemas/TrackPointExtension/v1">
            <gpxtpx:hr>123</gpxtpx:hr>
          </gpxtpx:TrackPointExtension>
        </extensions>
      </trkpt>
      <trkpt lat="50.53347" lon="2.61022">
        <ele>34</ele>
        <time>2021-06-24T16:12:06Z</time>
        <extensions>
          <gpxtpx:TrackPointExtension xmlns:gpxtpx="http://www.garmin.com/xmlschemas/TrackPointExtension/v1">
            <gpxtpx:hr>122</gpxtpx:hr>
          </gpxtpx:TrackPointExtension>
        </extensions>
      </trkpt>
      <trkpt lat="50.5335" lon="2.61028">
        <ele>33.8</ele>
        <time>2021-06-24T16:12:07Z</time>
        <extensions>
          <gpxtpx:TrackPointExtension xmlns:gpxtpx="http://www.garmin.com/xmlschemas/TrackPointExtension/v1">
            <gpxtpx:hr>122</gpxtpx:hr>
          </gpxtpx:TrackPointExtension>
        </extensions>
      </trkpt>
      <trkpt lat="50.53354" lon="2.61038">
        <ele>33.8</ele>
        <time>2021-06-24T16:12:08Z</time>
        <extensions>
          <gpxtpx:TrackPointExtension xmlns:gpxtpx="http://www.garmin.com/xmlschemas/TrackPointExtension/v1">
            <gpxtpx:hr>122</gpxtpx:hr>
          </gpxtpx:TrackPointExtension>
        </extensions>
      </trkpt>
      <trkpt lat="50.53356" lon="2.61045">
        <ele>33.8</ele>
        <time>2021-06-24T16:12:09Z</time>
        <extensions>
          <gpxtpx:TrackPointExtension xmlns:gpxtpx="http://www.garmin.com/xmlschemas/TrackPointExtension/v1">
            <gpxtpx:hr>121</gpxtpx:hr>
          </gpxtpx:TrackPointExtension>
        </extensions>
      </trkpt>
      <trkpt lat="50.53358" lon="2.61053">
        <ele>33.6</ele>
        <time>2021-06-24T16:12:10Z</time>
        <extensions>
          <gpxtpx:TrackPointExtension xmlns:gpxtpx="http://www.garmin.com/xmlschemas/TrackPointExtension/v1">
            <gpxtpx:hr>121</gpxtpx:hr>
          </gpxtpx:TrackPointExtension>
        </extensions>
      </trkpt>
      <trkpt lat="50.5336" lon="2.6106">
        <ele>33.4</ele>
        <time>2021-06-24T16:12:11Z</time>
        <extensions>
          <gpxtpx:TrackPointExtension xmlns:gpxtpx="http://www.garmin.com/xmlschemas/TrackPointExtension/v1">
            <gpxtpx:hr>121</gpxtpx:hr>
          </gpxtpx:TrackPointExtension>
        </extensions>
      </trkpt>
      <trkpt lat="50.53363" lon="2.61068">
        <ele>33.2</ele>
        <time>2021-06-24T16:12:12Z</time>
        <extensions>
          <gpxtpx:TrackPointExtension xmlns:gpxtpx="http://www.garmin.com/xmlschemas/TrackPointExtension/v1">
            <gpxtpx:hr>120</gpxtpx:hr>
          </gpxtpx:TrackPointExtension>
        </extensions>
      </trkpt>
      <trkpt lat="50.53366" lon="2.61076">
        <ele>33</ele>
        <time>2021-06-24T16:12:13Z</time>
        <extensions>
          <gpxtpx:TrackPointExtension xmlns:gpxtpx="http://www.garmin.com/xmlschemas/TrackPointExtension/v1">
            <gpxtpx:hr>120</gpxtpx:hr>
          </gpxtpx:TrackPointExtension>
        </extensions>
      </trkpt>
      <trkpt lat="50.53369" lon="2.61084">
        <ele>33</ele>
        <time>2021-06-24T16:12:14Z</time>
        <extensions>
          <gpxtpx:TrackPointExtension xmlns:gpxtpx="http://www.garmin.com/xmlschemas/TrackPointExtension/v1">
            <gpxtpx:hr>120</gpxtpx:hr>
          </gpxtpx:TrackPointExtension>
        </extensions>
      </trkpt>
      <trkpt lat="50.53372" lon="2.61093">
        <ele>32.8</ele>
        <time>2021-06-24T16:12:15Z</time>
        <extensions>
          <gpxtpx:TrackPointExtension xmlns:gpxtpx="http://www.garmin.com/xmlschemas/TrackPointExtension/v1">
            <gpxtpx:hr>120</gpxtpx:hr>
          </gpxtpx:TrackPointExtension>
        </extensions>
      </trkpt>
      <trkpt lat="50.53374" lon="2.61101">
        <ele>32.8</ele>
        <time>2021-06-24T16:12:16Z</time>
        <extensions>
          <gpxtpx:TrackPointExtension xmlns:gpxtpx="http://www.garmin.com/xmlschemas/TrackPointExtension/v1">
            <gpxtpx:hr>119</gpxtpx:hr>
          </gpxtpx:TrackPointExtension>
        </extensions>
      </trkpt>
      <trkpt lat="50.53377" lon="2.61108">
        <ele>32.6</ele>
        <time>2021-06-24T16:12:17Z</time>
        <extensions>
          <gpxtpx:TrackPointExtension xmlns:gpxtpx="http://www.garmin.com/xmlschemas/TrackPointExtension/v1">
            <gpxtpx:hr>119</gpxtpx:hr>
          </gpxtpx:TrackPointExtension>
        </extensions>
      </trkpt>
      <trkpt lat="50.53379" lon="2.61114">
        <ele>32.6</ele>
        <time>2021-06-24T16:12:18Z</time>
        <extensions>
          <gpxtpx:TrackPointExtension xmlns:gpxtpx="http://www.garmin.com/xmlschemas/TrackPointExtension/v1">
            <gpxtpx:hr>119</gpxtpx:hr>
          </gpxtpx:TrackPointExtension>
        </extensions>
      </trkpt>
      <trkpt lat="50.53382" lon="2.61122">
        <ele>32.4</ele>
        <time>2021-06-24T16:12:19Z</time>
        <extensions>
          <gpxtpx:TrackPointExtension xmlns:gpxtpx="http://www.garmin.com/xmlschemas/TrackPointExtension/v1">
            <gpxtpx:hr>119</gpxtpx:hr>
          </gpxtpx:TrackPointExtension>
        </extensions>
      </trkpt>
      <trkpt lat="50.53384" lon="2.61129">
        <ele>32.2</ele>
        <time>2021-06-24T16:12:20Z</time>
        <extensions>
          <gpxtpx:TrackPointExtension xmlns:gpxtpx="http://www.garmin.com/xmlschemas/TrackPointExtension/v1">
            <gpxtpx:hr>119</gpxtpx:hr>
          </gpxtpx:TrackPointExtension>
        </extensions>
      </trkpt>
      <trkpt lat="50.53386" lon="2.61136">
        <ele>32</ele>
        <time>2021-06-24T16:12:21Z</time>
        <extensions>
          <gpxtpx:TrackPointExtension xmlns:gpxtpx="http://www.garmin.com/xmlschemas/TrackPointExtension/v1">
            <gpxtpx:hr>118</gpxtpx:hr>
          </gpxtpx:TrackPointExtension>
        </extensions>
      </trkpt>
      <trkpt lat="50.53389" lon="2.61143">
        <ele>32</ele>
        <time>2021-06-24T16:12:22Z</time>
        <extensions>
          <gpxtpx:TrackPointExtension xmlns:gpxtpx="http://www.garmin.com/xmlschemas/TrackPointExtension/v1">
            <gpxtpx:hr>118</gpxtpx:hr>
          </gpxtpx:TrackPointExtension>
        </extensions>
      </trkpt>
      <trkpt lat="50.53392" lon="2.61149">
        <ele>31.8</ele>
        <time>2021-06-24T16:12:23Z</time>
        <extensions>
          <gpxtpx:TrackPointExtension xmlns:gpxtpx="http://www.garmin.com/xmlschemas/TrackPointExtension/v1">
            <gpxtpx:hr>117</gpxtpx:hr>
          </gpxtpx:TrackPointExtension>
        </extensions>
      </trkpt>
      <trkpt lat="50.53395" lon="2.61156">
        <ele>31.6</ele>
        <time>2021-06-24T16:12:24Z</time>
        <extensions>
          <gpxtpx:TrackPointExtension xmlns:gpxtpx="http://www.garmin.com/xmlschemas/TrackPointExtension/v1">
            <gpxtpx:hr>116</gpxtpx:hr>
          </gpxtpx:TrackPointExtension>
        </extensions>
      </trkpt>
      <trkpt lat="50.53396" lon="2.61161">
        <ele>31.6</ele>
        <time>2021-06-24T16:12:25Z</time>
        <extensions>
          <gpxtpx:TrackPointExtension xmlns:gpxtpx="http://www.garmin.com/xmlschemas/TrackPointExtension/v1">
            <gpxtpx:hr>116</gpxtpx:hr>
          </gpxtpx:TrackPointExtension>
        </extensions>
      </trkpt>
      <trkpt lat="50.53398" lon="2.61167">
        <ele>31.6</ele>
        <time>2021-06-24T16:12:26Z</time>
        <extensions>
          <gpxtpx:TrackPointExtension xmlns:gpxtpx="http://www.garmin.com/xmlschemas/TrackPointExtension/v1">
            <gpxtpx:hr>116</gpxtpx:hr>
          </gpxtpx:TrackPointExtension>
        </extensions>
      </trkpt>
      <trkpt lat="50.53401" lon="2.6117">
        <ele>31.6</ele>
        <time>2021-06-24T16:12:27Z</time>
        <extensions>
          <gpxtpx:TrackPointExtension xmlns:gpxtpx="http://www.garmin.com/xmlschemas/TrackPointExtension/v1">
            <gpxtpx:hr>115</gpxtpx:hr>
          </gpxtpx:TrackPointExtension>
        </extensions>
      </trkpt>
      <trkpt lat="50.53404" lon="2.61172">
        <ele>31.6</ele>
        <time>2021-06-24T16:12:28Z</time>
        <extensions>
          <gpxtpx:TrackPointExtension xmlns:gpxtpx="http://www.garmin.com/xmlschemas/TrackPointExtension/v1">
            <gpxtpx:hr>115</gpxtpx:hr>
          </gpxtpx:TrackPointExtension>
        </extensions>
      </trkpt>
      <trkpt lat="50.53406" lon="2.61172">
        <ele>31.6</ele>
        <time>2021-06-24T16:12:29Z</time>
        <extensions>
          <gpxtpx:TrackPointExtension xmlns:gpxtpx="http://www.garmin.com/xmlschemas/TrackPointExtension/v1">
            <gpxtpx:hr>115</gpxtpx:hr>
          </gpxtpx:TrackPointExtension>
        </extensions>
      </trkpt>
      <trkpt lat="50.53409" lon="2.61171">
        <ele>31.6</ele>
        <time>2021-06-24T16:12:30Z</time>
        <extensions>
          <gpxtpx:TrackPointExtension xmlns:gpxtpx="http://www.garmin.com/xmlschemas/TrackPointExtension/v1">
            <gpxtpx:hr>115</gpxtpx:hr>
          </gpxtpx:TrackPointExtension>
        </extensions>
      </trkpt>
      <trkpt lat="50.53412" lon="2.61169">
        <ele>31.6</ele>
        <time>2021-06-24T16:12:31Z</time>
        <extensions>
          <gpxtpx:TrackPointExtension xmlns:gpxtpx="http://www.garmin.com/xmlschemas/TrackPointExtension/v1">
            <gpxtpx:hr>115</gpxtpx:hr>
          </gpxtpx:TrackPointExtension>
        </extensions>
      </trkpt>
      <trkpt lat="50.53414" lon="2.61165">
        <ele>31.6</ele>
        <time>2021-06-24T16:12:32Z</time>
        <extensions>
          <gpxtpx:TrackPointExtension xmlns:gpxtpx="http://www.garmin.com/xmlschemas/TrackPointExtension/v1">
            <gpxtpx:hr>116</gpxtpx:hr>
          </gpxtpx:TrackPointExtension>
        </extensions>
      </trkpt>
      <trkpt lat="50.53417" lon="2.6116">
        <ele>31.6</ele>
        <time>2021-06-24T16:12:33Z</time>
        <extensions>
          <gpxtpx:TrackPointExtension xmlns:gpxtpx="http://www.garmin.com/xmlschemas/TrackPointExtension/v1">
            <gpxtpx:hr>116</gpxtpx:hr>
          </gpxtpx:TrackPointExtension>
        </extensions>
      </trkpt>
      <trkpt lat="50.53418" lon="2.61152">
        <ele>31.6</ele>
        <time>2021-06-24T16:12:34Z</time>
        <extensions>
          <gpxtpx:TrackPointExtension xmlns:gpxtpx="http://www.garmin.com/xmlschemas/TrackPointExtension/v1">
            <gpxtpx:hr>116</gpxtpx:hr>
          </gpxtpx:TrackPointExtension>
        </extensions>
      </trkpt>
      <trkpt lat="50.53419" lon="2.61145">
        <ele>31.6</ele>
        <time>2021-06-24T16:12:35Z</time>
        <extensions>
          <gpxtpx:TrackPointExtension xmlns:gpxtpx="http://www.garmin.com/xmlschemas/TrackPointExtension/v1">
            <gpxtpx:hr>116</gpxtpx:hr>
          </gpxtpx:TrackPointExtension>
        </extensions>
      </trkpt>
      <trkpt lat="50.5342" lon="2.6114">
        <ele>31.4</ele>
        <time>2021-06-24T16:12:36Z</time>
        <extensions>
          <gpxtpx:TrackPointExtension xmlns:gpxtpx="http://www.garmin.com/xmlschemas/TrackPointExtension/v1">
            <gpxtpx:hr>116</gpxtpx:hr>
          </gpxtpx:TrackPointExtension>
        </extensions>
      </trkpt>
      <trkpt lat="50.5342" lon="2.61133">
        <ele>31.4</ele>
        <time>2021-06-24T16:12:37Z</time>
        <extensions>
          <gpxtpx:TrackPointExtension xmlns:gpxtpx="http://www.garmin.com/xmlschemas/TrackPointExtension/v1">
            <gpxtpx:hr>117</gpxtpx:hr>
          </gpxtpx:TrackPointExtension>
        </extensions>
      </trkpt>
      <trkpt lat="50.53421" lon="2.61126">
        <ele>31.4</ele>
        <time>2021-06-24T16:12:38Z</time>
        <extensions>
          <gpxtpx:TrackPointExtension xmlns:gpxtpx="http://www.garmin.com/xmlschemas/TrackPointExtension/v1">
            <gpxtpx:hr>117</gpxtpx:hr>
          </gpxtpx:TrackPointExtension>
        </extensions>
      </trkpt>
      <trkpt lat="50.53422" lon="2.61118">
        <ele>31.4</ele>
        <time>2021-06-24T16:12:39Z</time>
        <extensions>
          <gpxtpx:TrackPointExtension xmlns:gpxtpx="http://www.garmin.com/xmlschemas/TrackPointExtension/v1">
            <gpxtpx:hr>117</gpxtpx:hr>
          </gpxtpx:TrackPointExtension>
        </extensions>
      </trkpt>
      <trkpt lat="50.53422" lon="2.6111">
        <ele>31.2</ele>
        <time>2021-06-24T16:12:40Z</time>
        <extensions>
          <gpxtpx:TrackPointExtension xmlns:gpxtpx="http://www.garmin.com/xmlschemas/TrackPointExtension/v1">
            <gpxtpx:hr>117</gpxtpx:hr>
          </gpxtpx:TrackPointExtension>
        </extensions>
      </trkpt>
      <trkpt lat="50.53422" lon="2.61101">
        <ele>31.2</ele>
        <time>2021-06-24T16:12:41Z</time>
        <extensions>
          <gpxtpx:TrackPointExtension xmlns:gpxtpx="http://www.garmin.com/xmlschemas/TrackPointExtension/v1">
            <gpxtpx:hr>117</gpxtpx:hr>
          </gpxtpx:TrackPointExtension>
        </extensions>
      </trkpt>
      <trkpt lat="50.53422" lon="2.61094">
        <ele>31.2</ele>
        <time>2021-06-24T16:12:42Z</time>
        <extensions>
          <gpxtpx:TrackPointExtension xmlns:gpxtpx="http://www.garmin.com/xmlschemas/TrackPointExtension/v1">
            <gpxtpx:hr>118</gpxtpx:hr>
          </gpxtpx:TrackPointExtension>
        </extensions>
      </trkpt>
      <trkpt lat="50.53422" lon="2.61086">
        <ele>31</ele>
        <time>2021-06-24T16:12:43Z</time>
        <extensions>
          <gpxtpx:TrackPointExtension xmlns:gpxtpx="http://www.garmin.com/xmlschemas/TrackPointExtension/v1">
            <gpxtpx:hr>118</gpxtpx:hr>
          </gpxtpx:TrackPointExtension>
        </extensions>
      </trkpt>
      <trkpt lat="50.53422" lon="2.61078">
        <ele>31</ele>
        <time>2021-06-24T16:12:44Z</time>
        <extensions>
          <gpxtpx:TrackPointExtension xmlns:gpxtpx="http://www.garmin.com/xmlschemas/TrackPointExtension/v1">
            <gpxtpx:hr>118</gpxtpx:hr>
          </gpxtpx:TrackPointExtension>
        </extensions>
      </trkpt>
      <trkpt lat="50.53422" lon="2.61071">
        <ele>30.8</ele>
        <time>2021-06-24T16:12:45Z</time>
        <extensions>
          <gpxtpx:TrackPointExtension xmlns:gpxtpx="http://www.garmin.com/xmlschemas/TrackPointExtension/v1">
            <gpxtpx:hr>118</gpxtpx:hr>
          </gpxtpx:TrackPointExtension>
        </extensions>
      </trkpt>
      <trkpt lat="50.53423" lon="2.61064">
        <ele>30.8</ele>
        <time>2021-06-24T16:12:46Z</time>
        <extensions>
          <gpxtpx:TrackPointExtension xmlns:gpxtpx="http://www.garmin.com/xmlschemas/TrackPointExtension/v1">
            <gpxtpx:hr>118</gpxtpx:hr>
          </gpxtpx:TrackPointExtension>
        </extensions>
      </trkpt>
      <trkpt lat="50.53423" lon="2.61058">
        <ele>30.6</ele>
        <time>2021-06-24T16:12:47Z</time>
        <extensions>
          <gpxtpx:TrackPointExtension xmlns:gpxtpx="http://www.garmin.com/xmlschemas/TrackPointExtension/v1">
            <gpxtpx:hr>118</gpxtpx:hr>
          </gpxtpx:TrackPointExtension>
        </extensions>
      </trkpt>
      <trkpt lat="50.53424" lon="2.61052">
        <ele>30.6</ele>
        <time>2021-06-24T16:12:48Z</time>
        <extensions>
          <gpxtpx:TrackPointExtension xmlns:gpxtpx="http://www.garmin.com/xmlschemas/TrackPointExtension/v1">
            <gpxtpx:hr>119</gpxtpx:hr>
          </gpxtpx:TrackPointExtension>
        </extensions>
      </trkpt>
      <trkpt lat="50.53424" lon="2.61047">
        <ele>30.6</ele>
        <time>2021-06-24T16:12:49Z</time>
        <extensions>
          <gpxtpx:TrackPointExtension xmlns:gpxtpx="http://www.garmin.com/xmlschemas/TrackPointExtension/v1">
            <gpxtpx:hr>119</gpxtpx:hr>
          </gpxtpx:TrackPointExtension>
        </extensions>
      </trkpt>
      <trkpt lat="50.53425" lon="2.6104">
        <ele>30.6</ele>
        <time>2021-06-24T16:12:50Z</time>
        <extensions>
          <gpxtpx:TrackPointExtension xmlns:gpxtpx="http://www.garmin.com/xmlschemas/TrackPointExtension/v1">
            <gpxtpx:hr>120</gpxtpx:hr>
          </gpxtpx:TrackPointExtension>
        </extensions>
      </trkpt>
      <trkpt lat="50.53426" lon="2.61034">
        <ele>30.6</ele>
        <time>2021-06-24T16:12:51Z</time>
        <extensions>
          <gpxtpx:TrackPointExtension xmlns:gpxtpx="http://www.garmin.com/xmlschemas/TrackPointExtension/v1">
            <gpxtpx:hr>120</gpxtpx:hr>
          </gpxtpx:TrackPointExtension>
        </extensions>
      </trkpt>
      <trkpt lat="50.53426" lon="2.61027">
        <ele>30.6</ele>
        <time>2021-06-24T16:12:52Z</time>
        <extensions>
          <gpxtpx:TrackPointExtension xmlns:gpxtpx="http://www.garmin.com/xmlschemas/TrackPointExtension/v1">
            <gpxtpx:hr>120</gpxtpx:hr>
          </gpxtpx:TrackPointExtension>
        </extensions>
      </trkpt>
      <trkpt lat="50.53426" lon="2.61021">
        <ele>30.6</ele>
        <time>2021-06-24T16:12:53Z</time>
        <extensions>
          <gpxtpx:TrackPointExtension xmlns:gpxtpx="http://www.garmin.com/xmlschemas/TrackPointExtension/v1">
            <gpxtpx:hr>121</gpxtpx:hr>
          </gpxtpx:TrackPointExtension>
        </extensions>
      </trkpt>
      <trkpt lat="50.53426" lon="2.61013">
        <ele>30.6</ele>
        <time>2021-06-24T16:12:54Z</time>
        <extensions>
          <gpxtpx:TrackPointExtension xmlns:gpxtpx="http://www.garmin.com/xmlschemas/TrackPointExtension/v1">
            <gpxtpx:hr>121</gpxtpx:hr>
          </gpxtpx:TrackPointExtension>
        </extensions>
      </trkpt>
      <trkpt lat="50.53426" lon="2.61006">
        <ele>30.6</ele>
        <time>2021-06-24T16:12:55Z</time>
        <extensions>
          <gpxtpx:TrackPointExtension xmlns:gpxtpx="http://www.garmin.com/xmlschemas/TrackPointExtension/v1">
            <gpxtpx:hr>121</gpxtpx:hr>
          </gpxtpx:TrackPointExtension>
        </extensions>
      </trkpt>
      <trkpt lat="50.53426" lon="2.60997">
        <ele>30.8</ele>
        <time>2021-06-24T16:12:56Z</time>
        <extensions>
          <gpxtpx:TrackPointExtension xmlns:gpxtpx="http://www.garmin.com/xmlschemas/TrackPointExtension/v1">
            <gpxtpx:hr>122</gpxtpx:hr>
          </gpxtpx:TrackPointExtension>
        </extensions>
      </trkpt>
      <trkpt lat="50.53426" lon="2.6099">
        <ele>30.8</ele>
        <time>2021-06-24T16:12:57Z</time>
        <extensions>
          <gpxtpx:TrackPointExtension xmlns:gpxtpx="http://www.garmin.com/xmlschemas/TrackPointExtension/v1">
            <gpxtpx:hr>123</gpxtpx:hr>
          </gpxtpx:TrackPointExtension>
        </extensions>
      </trkpt>
      <trkpt lat="50.53425" lon="2.60983">
        <ele>30.8</ele>
        <time>2021-06-24T16:12:58Z</time>
        <extensions>
          <gpxtpx:TrackPointExtension xmlns:gpxtpx="http://www.garmin.com/xmlschemas/TrackPointExtension/v1">
            <gpxtpx:hr>124</gpxtpx:hr>
          </gpxtpx:TrackPointExtension>
        </extensions>
      </trkpt>
      <trkpt lat="50.53425" lon="2.60976">
        <ele>30.8</ele>
        <time>2021-06-24T16:12:59Z</time>
        <extensions>
          <gpxtpx:TrackPointExtension xmlns:gpxtpx="http://www.garmin.com/xmlschemas/TrackPointExtension/v1">
            <gpxtpx:hr>125</gpxtpx:hr>
          </gpxtpx:TrackPointExtension>
        </extensions>
      </trkpt>
      <trkpt lat="50.53424" lon="2.6097">
        <ele>30.8</ele>
        <time>2021-06-24T16:13:00Z</time>
        <extensions>
          <gpxtpx:TrackPointExtension xmlns:gpxtpx="http://www.garmin.com/xmlschemas/TrackPointExtension/v1">
            <gpxtpx:hr>125</gpxtpx:hr>
          </gpxtpx:TrackPointExtension>
        </extensions>
      </trkpt>
      <trkpt lat="50.53424" lon="2.60963">
        <ele>30.8</ele>
        <time>2021-06-24T16:13:01Z</time>
        <extensions>
          <gpxtpx:TrackPointExtension xmlns:gpxtpx="http://www.garmin.com/xmlschemas/TrackPointExtension/v1">
            <gpxtpx:hr>126</gpxtpx:hr>
          </gpxtpx:TrackPointExtension>
        </extensions>
      </trkpt>
      <trkpt lat="50.53424" lon="2.60957">
        <ele>30.8</ele>
        <time>2021-06-24T16:13:02Z</time>
        <extensions>
          <gpxtpx:TrackPointExtension xmlns:gpxtpx="http://www.garmin.com/xmlschemas/TrackPointExtension/v1">
            <gpxtpx:hr>126</gpxtpx:hr>
          </gpxtpx:TrackPointExtension>
        </extensions>
      </trkpt>
      <trkpt lat="50.53424" lon="2.60951">
        <ele>30.8</ele>
        <time>2021-06-24T16:13:03Z</time>
        <extensions>
          <gpxtpx:TrackPointExtension xmlns:gpxtpx="http://www.garmin.com/xmlschemas/TrackPointExtension/v1">
            <gpxtpx:hr>127</gpxtpx:hr>
          </gpxtpx:TrackPointExtension>
        </extensions>
      </trkpt>
      <trkpt lat="50.53424" lon="2.60944">
        <ele>30.8</ele>
        <time>2021-06-24T16:13:04Z</time>
        <extensions>
          <gpxtpx:TrackPointExtension xmlns:gpxtpx="http://www.garmin.com/xmlschemas/TrackPointExtension/v1">
            <gpxtpx:hr>128</gpxtpx:hr>
          </gpxtpx:TrackPointExtension>
        </extensions>
      </trkpt>
      <trkpt lat="50.53423" lon="2.60936">
        <ele>30.8</ele>
        <time>2021-06-24T16:13:05Z</time>
        <extensions>
          <gpxtpx:TrackPointExtension xmlns:gpxtpx="http://www.garmin.com/xmlschemas/TrackPointExtension/v1">
            <gpxtpx:hr>128</gpxtpx:hr>
          </gpxtpx:TrackPointExtension>
        </extensions>
      </trkpt>
      <trkpt lat="50.53423" lon="2.6093">
        <ele>30.8</ele>
        <time>2021-06-24T16:13:06Z</time>
        <extensions>
          <gpxtpx:TrackPointExtension xmlns:gpxtpx="http://www.garmin.com/xmlschemas/TrackPointExtension/v1">
            <gpxtpx:hr>129</gpxtpx:hr>
          </gpxtpx:TrackPointExtension>
        </extensions>
      </trkpt>
      <trkpt lat="50.53424" lon="2.60923">
        <ele>30.8</ele>
        <time>2021-06-24T16:13:07Z</time>
        <extensions>
          <gpxtpx:TrackPointExtension xmlns:gpxtpx="http://www.garmin.com/xmlschemas/TrackPointExtension/v1">
            <gpxtpx:hr>130</gpxtpx:hr>
          </gpxtpx:TrackPointExtension>
        </extensions>
      </trkpt>
      <trkpt lat="50.53424" lon="2.60916">
        <ele>30.8</ele>
        <time>2021-06-24T16:13:08Z</time>
        <extensions>
          <gpxtpx:TrackPointExtension xmlns:gpxtpx="http://www.garmin.com/xmlschemas/TrackPointExtension/v1">
            <gpxtpx:hr>130</gpxtpx:hr>
          </gpxtpx:TrackPointExtension>
        </extensions>
      </trkpt>
      <trkpt lat="50.53425" lon="2.60909">
        <ele>30.8</ele>
        <time>2021-06-24T16:13:09Z</time>
        <extensions>
          <gpxtpx:TrackPointExtension xmlns:gpxtpx="http://www.garmin.com/xmlschemas/TrackPointExtension/v1">
            <gpxtpx:hr>130</gpxtpx:hr>
          </gpxtpx:TrackPointExtension>
        </extensions>
      </trkpt>
      <trkpt lat="50.53425" lon="2.60902">
        <ele>31</ele>
        <time>2021-06-24T16:13:10Z</time>
        <extensions>
          <gpxtpx:TrackPointExtension xmlns:gpxtpx="http://www.garmin.com/xmlschemas/TrackPointExtension/v1">
            <gpxtpx:hr>130</gpxtpx:hr>
          </gpxtpx:TrackPointExtension>
        </extensions>
      </trkpt>
      <trkpt lat="50.53426" lon="2.60895">
        <ele>31</ele>
        <time>2021-06-24T16:13:11Z</time>
        <extensions>
          <gpxtpx:TrackPointExtension xmlns:gpxtpx="http://www.garmin.com/xmlschemas/TrackPointExtension/v1">
            <gpxtpx:hr>130</gpxtpx:hr>
          </gpxtpx:TrackPointExtension>
        </extensions>
      </trkpt>
      <trkpt lat="50.53426" lon="2.60888">
        <ele>31</ele>
        <time>2021-06-24T16:13:12Z</time>
        <extensions>
          <gpxtpx:TrackPointExtension xmlns:gpxtpx="http://www.garmin.com/xmlschemas/TrackPointExtension/v1">
            <gpxtpx:hr>130</gpxtpx:hr>
          </gpxtpx:TrackPointExtension>
        </extensions>
      </trkpt>
      <trkpt lat="50.53426" lon="2.6088">
        <ele>31.2</ele>
        <time>2021-06-24T16:13:13Z</time>
        <extensions>
          <gpxtpx:TrackPointExtension xmlns:gpxtpx="http://www.garmin.com/xmlschemas/TrackPointExtension/v1">
            <gpxtpx:hr>130</gpxtpx:hr>
          </gpxtpx:TrackPointExtension>
        </extensions>
      </trkpt>
      <trkpt lat="50.53426" lon="2.60874">
        <ele>31.2</ele>
        <time>2021-06-24T16:13:14Z</time>
        <extensions>
          <gpxtpx:TrackPointExtension xmlns:gpxtpx="http://www.garmin.com/xmlschemas/TrackPointExtension/v1">
            <gpxtpx:hr>130</gpxtpx:hr>
          </gpxtpx:TrackPointExtension>
        </extensions>
      </trkpt>
      <trkpt lat="50.53427" lon="2.60867">
        <ele>31.4</ele>
        <time>2021-06-24T16:13:15Z</time>
        <extensions>
          <gpxtpx:TrackPointExtension xmlns:gpxtpx="http://www.garmin.com/xmlschemas/TrackPointExtension/v1">
            <gpxtpx:hr>131</gpxtpx:hr>
          </gpxtpx:TrackPointExtension>
        </extensions>
      </trkpt>
      <trkpt lat="50.53428" lon="2.6086">
        <ele>31.4</ele>
        <time>2021-06-24T16:13:16Z</time>
        <extensions>
          <gpxtpx:TrackPointExtension xmlns:gpxtpx="http://www.garmin.com/xmlschemas/TrackPointExtension/v1">
            <gpxtpx:hr>131</gpxtpx:hr>
          </gpxtpx:TrackPointExtension>
        </extensions>
      </trkpt>
      <trkpt lat="50.53429" lon="2.60853">
        <ele>31.4</ele>
        <time>2021-06-24T16:13:17Z</time>
        <extensions>
          <gpxtpx:TrackPointExtension xmlns:gpxtpx="http://www.garmin.com/xmlschemas/TrackPointExtension/v1">
            <gpxtpx:hr>132</gpxtpx:hr>
          </gpxtpx:TrackPointExtension>
        </extensions>
      </trkpt>
      <trkpt lat="50.53429" lon="2.60847">
        <ele>31.6</ele>
        <time>2021-06-24T16:13:18Z</time>
        <extensions>
          <gpxtpx:TrackPointExtension xmlns:gpxtpx="http://www.garmin.com/xmlschemas/TrackPointExtension/v1">
            <gpxtpx:hr>132</gpxtpx:hr>
          </gpxtpx:TrackPointExtension>
        </extensions>
      </trkpt>
      <trkpt lat="50.5343" lon="2.6084">
        <ele>31.8</ele>
        <time>2021-06-24T16:13:19Z</time>
        <extensions>
          <gpxtpx:TrackPointExtension xmlns:gpxtpx="http://www.garmin.com/xmlschemas/TrackPointExtension/v1">
            <gpxtpx:hr>133</gpxtpx:hr>
          </gpxtpx:TrackPointExtension>
        </extensions>
      </trkpt>
      <trkpt lat="50.5343" lon="2.60833">
        <ele>31.8</ele>
        <time>2021-06-24T16:13:20Z</time>
        <extensions>
          <gpxtpx:TrackPointExtension xmlns:gpxtpx="http://www.garmin.com/xmlschemas/TrackPointExtension/v1">
            <gpxtpx:hr>133</gpxtpx:hr>
          </gpxtpx:TrackPointExtension>
        </extensions>
      </trkpt>
      <trkpt lat="50.5343" lon="2.60827">
        <ele>32</ele>
        <time>2021-06-24T16:13:21Z</time>
        <extensions>
          <gpxtpx:TrackPointExtension xmlns:gpxtpx="http://www.garmin.com/xmlschemas/TrackPointExtension/v1">
            <gpxtpx:hr>134</gpxtpx:hr>
          </gpxtpx:TrackPointExtension>
        </extensions>
      </trkpt>
      <trkpt lat="50.53429" lon="2.60821">
        <ele>32</ele>
        <time>2021-06-24T16:13:22Z</time>
        <extensions>
          <gpxtpx:TrackPointExtension xmlns:gpxtpx="http://www.garmin.com/xmlschemas/TrackPointExtension/v1">
            <gpxtpx:hr>135</gpxtpx:hr>
          </gpxtpx:TrackPointExtension>
        </extensions>
      </trkpt>
      <trkpt lat="50.5343" lon="2.60815">
        <ele>32.2</ele>
        <time>2021-06-24T16:13:23Z</time>
        <extensions>
          <gpxtpx:TrackPointExtension xmlns:gpxtpx="http://www.garmin.com/xmlschemas/TrackPointExtension/v1">
            <gpxtpx:hr>136</gpxtpx:hr>
          </gpxtpx:TrackPointExtension>
        </extensions>
      </trkpt>
      <trkpt lat="50.53431" lon="2.60811">
        <ele>32.4</ele>
        <time>2021-06-24T16:13:24Z</time>
        <extensions>
          <gpxtpx:TrackPointExtension xmlns:gpxtpx="http://www.garmin.com/xmlschemas/TrackPointExtension/v1">
            <gpxtpx:hr>136</gpxtpx:hr>
          </gpxtpx:TrackPointExtension>
        </extensions>
      </trkpt>
      <trkpt lat="50.53432" lon="2.60807">
        <ele>32.4</ele>
        <time>2021-06-24T16:13:25Z</time>
        <extensions>
          <gpxtpx:TrackPointExtension xmlns:gpxtpx="http://www.garmin.com/xmlschemas/TrackPointExtension/v1">
            <gpxtpx:hr>136</gpxtpx:hr>
          </gpxtpx:TrackPointExtension>
        </extensions>
      </trkpt>
      <trkpt lat="50.53434" lon="2.60804">
        <ele>32.6</ele>
        <time>2021-06-24T16:13:26Z</time>
        <extensions>
          <gpxtpx:TrackPointExtension xmlns:gpxtpx="http://www.garmin.com/xmlschemas/TrackPointExtension/v1">
            <gpxtpx:hr>136</gpxtpx:hr>
          </gpxtpx:TrackPointExtension>
        </extensions>
      </trkpt>
      <trkpt lat="50.53435" lon="2.60804">
        <ele>32.8</ele>
        <time>2021-06-24T16:13:27Z</time>
        <extensions>
          <gpxtpx:TrackPointExtension xmlns:gpxtpx="http://www.garmin.com/xmlschemas/TrackPointExtension/v1">
            <gpxtpx:hr>136</gpxtpx:hr>
          </gpxtpx:TrackPointExtension>
        </extensions>
      </trkpt>
      <trkpt lat="50.53436" lon="2.60803">
        <ele>32.8</ele>
        <time>2021-06-24T16:13:28Z</time>
        <extensions>
          <gpxtpx:TrackPointExtension xmlns:gpxtpx="http://www.garmin.com/xmlschemas/TrackPointExtension/v1">
            <gpxtpx:hr>136</gpxtpx:hr>
          </gpxtpx:TrackPointExtension>
        </extensions>
      </trkpt>
      <trkpt lat="50.53437" lon="2.60801">
        <ele>33</ele>
        <time>2021-06-24T16:13:29Z</time>
        <extensions>
          <gpxtpx:TrackPointExtension xmlns:gpxtpx="http://www.garmin.com/xmlschemas/TrackPointExtension/v1">
            <gpxtpx:hr>136</gpxtpx:hr>
          </gpxtpx:TrackPointExtension>
        </extensions>
      </trkpt>
      <trkpt lat="50.53439" lon="2.60797">
        <ele>33</ele>
        <time>2021-06-24T16:13:30Z</time>
        <extensions>
          <gpxtpx:TrackPointExtension xmlns:gpxtpx="http://www.garmin.com/xmlschemas/TrackPointExtension/v1">
            <gpxtpx:hr>136</gpxtpx:hr>
          </gpxtpx:TrackPointExtension>
        </extensions>
      </trkpt>
      <trkpt lat="50.53439" lon="2.60793">
        <ele>33.2</ele>
        <time>2021-06-24T16:13:31Z</time>
        <extensions>
          <gpxtpx:TrackPointExtension xmlns:gpxtpx="http://www.garmin.com/xmlschemas/TrackPointExtension/v1">
            <gpxtpx:hr>136</gpxtpx:hr>
          </gpxtpx:TrackPointExtension>
        </extensions>
      </trkpt>
      <trkpt lat="50.5344" lon="2.6079">
        <ele>33.4</ele>
        <time>2021-06-24T16:13:32Z</time>
        <extensions>
          <gpxtpx:TrackPointExtension xmlns:gpxtpx="http://www.garmin.com/xmlschemas/TrackPointExtension/v1">
            <gpxtpx:hr>136</gpxtpx:hr>
          </gpxtpx:TrackPointExtension>
        </extensions>
      </trkpt>
      <trkpt lat="50.53442" lon="2.60786">
        <ele>33.6</ele>
        <time>2021-06-24T16:13:33Z</time>
        <extensions>
          <gpxtpx:TrackPointExtension xmlns:gpxtpx="http://www.garmin.com/xmlschemas/TrackPointExtension/v1">
            <gpxtpx:hr>136</gpxtpx:hr>
          </gpxtpx:TrackPointExtension>
        </extensions>
      </trkpt>
      <trkpt lat="50.53443" lon="2.60783">
        <ele>33.8</ele>
        <time>2021-06-24T16:13:34Z</time>
        <extensions>
          <gpxtpx:TrackPointExtension xmlns:gpxtpx="http://www.garmin.com/xmlschemas/TrackPointExtension/v1">
            <gpxtpx:hr>137</gpxtpx:hr>
          </gpxtpx:TrackPointExtension>
        </extensions>
      </trkpt>
      <trkpt lat="50.53444" lon="2.60783">
        <ele>34</ele>
        <time>2021-06-24T16:13:35Z</time>
        <extensions>
          <gpxtpx:TrackPointExtension xmlns:gpxtpx="http://www.garmin.com/xmlschemas/TrackPointExtension/v1">
            <gpxtpx:hr>137</gpxtpx:hr>
          </gpxtpx:TrackPointExtension>
        </extensions>
      </trkpt>
      <trkpt lat="50.53445" lon="2.60785">
        <ele>34</ele>
        <time>2021-06-24T16:13:36Z</time>
        <extensions>
          <gpxtpx:TrackPointExtension xmlns:gpxtpx="http://www.garmin.com/xmlschemas/TrackPointExtension/v1">
            <gpxtpx:hr>137</gpxtpx:hr>
          </gpxtpx:TrackPointExtension>
        </extensions>
      </trkpt>
      <trkpt lat="50.53446" lon="2.60787">
        <ele>34.2</ele>
        <time>2021-06-24T16:13:37Z</time>
        <extensions>
          <gpxtpx:TrackPointExtension xmlns:gpxtpx="http://www.garmin.com/xmlschemas/TrackPointExtension/v1">
            <gpxtpx:hr>137</gpxtpx:hr>
          </gpxtpx:TrackPointExtension>
        </extensions>
      </trkpt>
      <trkpt lat="50.53446" lon="2.60789">
        <ele>34.4</ele>
        <time>2021-06-24T16:13:38Z</time>
        <extensions>
          <gpxtpx:TrackPointExtension xmlns:gpxtpx="http://www.garmin.com/xmlschemas/TrackPointExtension/v1">
            <gpxtpx:hr>137</gpxtpx:hr>
          </gpxtpx:TrackPointExtension>
        </extensions>
      </trkpt>
      <trkpt lat="50.53445" lon="2.60792">
        <ele>34.6</ele>
        <time>2021-06-24T16:13:39Z</time>
        <extensions>
          <gpxtpx:TrackPointExtension xmlns:gpxtpx="http://www.garmin.com/xmlschemas/TrackPointExtension/v1">
            <gpxtpx:hr>137</gpxtpx:hr>
          </gpxtpx:TrackPointExtension>
        </extensions>
      </trkpt>
      <trkpt lat="50.53445" lon="2.60793">
        <ele>34.8</ele>
        <time>2021-06-24T16:13:40Z</time>
        <extensions>
          <gpxtpx:TrackPointExtension xmlns:gpxtpx="http://www.garmin.com/xmlschemas/TrackPointExtension/v1">
            <gpxtpx:hr>136</gpxtpx:hr>
          </gpxtpx:TrackPointExtension>
        </extensions>
      </trkpt>
      <trkpt lat="50.53445" lon="2.60795">
        <ele>34.8</ele>
        <time>2021-06-24T16:13:41Z</time>
        <extensions>
          <gpxtpx:TrackPointExtension xmlns:gpxtpx="http://www.garmin.com/xmlschemas/TrackPointExtension/v1">
            <gpxtpx:hr>136</gpxtpx:hr>
          </gpxtpx:TrackPointExtension>
        </extensions>
      </trkpt>
      <trkpt lat="50.53445" lon="2.60796">
        <ele>35</ele>
        <time>2021-06-24T16:13:42Z</time>
        <extensions>
          <gpxtpx:TrackPointExtension xmlns:gpxtpx="http://www.garmin.com/xmlschemas/TrackPointExtension/v1">
            <gpxtpx:hr>135</gpxtpx:hr>
          </gpxtpx:TrackPointExtension>
        </extensions>
      </trkpt>
      <trkpt lat="50.53447" lon="2.60798">
        <ele>35.2</ele>
        <time>2021-06-24T16:13:43Z</time>
        <extensions>
          <gpxtpx:TrackPointExtension xmlns:gpxtpx="http://www.garmin.com/xmlschemas/TrackPointExtension/v1">
            <gpxtpx:hr>135</gpxtpx:hr>
          </gpxtpx:TrackPointExtension>
        </extensions>
      </trkpt>
      <trkpt lat="50.53449" lon="2.608">
        <ele>35.2</ele>
        <time>2021-06-24T16:13:44Z</time>
        <extensions>
          <gpxtpx:TrackPointExtension xmlns:gpxtpx="http://www.garmin.com/xmlschemas/TrackPointExtension/v1">
            <gpxtpx:hr>134</gpxtpx:hr>
          </gpxtpx:TrackPointExtension>
        </extensions>
      </trkpt>
      <trkpt lat="50.5345" lon="2.60803">
        <ele>35.4</ele>
        <time>2021-06-24T16:13:45Z</time>
        <extensions>
          <gpxtpx:TrackPointExtension xmlns:gpxtpx="http://www.garmin.com/xmlschemas/TrackPointExtension/v1">
            <gpxtpx:hr>134</gpxtpx:hr>
          </gpxtpx:TrackPointExtension>
        </extensions>
      </trkpt>
      <trkpt lat="50.53452" lon="2.60806">
        <ele>35.6</ele>
        <time>2021-06-24T16:13:46Z</time>
        <extensions>
          <gpxtpx:TrackPointExtension xmlns:gpxtpx="http://www.garmin.com/xmlschemas/TrackPointExtension/v1">
            <gpxtpx:hr>133</gpxtpx:hr>
          </gpxtpx:TrackPointExtension>
        </extensions>
      </trkpt>
      <trkpt lat="50.53454" lon="2.60808">
        <ele>35.6</ele>
        <time>2021-06-24T16:13:47Z</time>
        <extensions>
          <gpxtpx:TrackPointExtension xmlns:gpxtpx="http://www.garmin.com/xmlschemas/TrackPointExtension/v1">
            <gpxtpx:hr>132</gpxtpx:hr>
          </gpxtpx:TrackPointExtension>
        </extensions>
      </trkpt>
      <trkpt lat="50.53456" lon="2.60811">
        <ele>35.8</ele>
        <time>2021-06-24T16:13:48Z</time>
        <extensions>
          <gpxtpx:TrackPointExtension xmlns:gpxtpx="http://www.garmin.com/xmlschemas/TrackPointExtension/v1">
            <gpxtpx:hr>131</gpxtpx:hr>
          </gpxtpx:TrackPointExtension>
        </extensions>
      </trkpt>
      <trkpt lat="50.53457" lon="2.60812">
        <ele>36</ele>
        <time>2021-06-24T16:13:49Z</time>
        <extensions>
          <gpxtpx:TrackPointExtension xmlns:gpxtpx="http://www.garmin.com/xmlschemas/TrackPointExtension/v1">
            <gpxtpx:hr>131</gpxtpx:hr>
          </gpxtpx:TrackPointExtension>
        </extensions>
      </trkpt>
      <trkpt lat="50.53458" lon="2.60812">
        <ele>36.2</ele>
        <time>2021-06-24T16:13:51Z</time>
        <extensions>
          <gpxtpx:TrackPointExtension xmlns:gpxtpx="http://www.garmin.com/xmlschemas/TrackPointExtension/v1">
            <gpxtpx:hr>128</gpxtpx:hr>
          </gpxtpx:TrackPointExtension>
        </extensions>
      </trkpt>
      <trkpt lat="50.53459" lon="2.6081">
        <ele>36.2</ele>
        <time>2021-06-24T16:13:52Z</time>
        <extensions>
          <gpxtpx:TrackPointExtension xmlns:gpxtpx="http://www.garmin.com/xmlschemas/TrackPointExtension/v1">
            <gpxtpx:hr>127</gpxtpx:hr>
          </gpxtpx:TrackPointExtension>
        </extensions>
      </trkpt>
      <trkpt lat="50.53458" lon="2.60809">
        <ele>36.4</ele>
        <time>2021-06-24T16:13:53Z</time>
        <extensions>
          <gpxtpx:TrackPointExtension xmlns:gpxtpx="http://www.garmin.com/xmlschemas/TrackPointExtension/v1">
            <gpxtpx:hr>126</gpxtpx:hr>
          </gpxtpx:TrackPointExtension>
        </extensions>
      </trkpt>
      <trkpt lat="50.53457" lon="2.60808">
        <ele>36.4</ele>
        <time>2021-06-24T16:13:54Z</time>
        <extensions>
          <gpxtpx:TrackPointExtension xmlns:gpxtpx="http://www.garmin.com/xmlschemas/TrackPointExtension/v1">
            <gpxtpx:hr>125</gpxtpx:hr>
          </gpxtpx:TrackPointExtension>
        </extensions>
      </trkpt>
      <trkpt lat="50.53455" lon="2.60808">
        <ele>36.6</ele>
        <time>2021-06-24T16:13:55Z</time>
        <extensions>
          <gpxtpx:TrackPointExtension xmlns:gpxtpx="http://www.garmin.com/xmlschemas/TrackPointExtension/v1">
            <gpxtpx:hr>125</gpxtpx:hr>
          </gpxtpx:TrackPointExtension>
        </extensions>
      </trkpt>
      <trkpt lat="50.53453" lon="2.60806">
        <ele>36.6</ele>
        <time>2021-06-24T16:13:56Z</time>
        <extensions>
          <gpxtpx:TrackPointExtension xmlns:gpxtpx="http://www.garmin.com/xmlschemas/TrackPointExtension/v1">
            <gpxtpx:hr>125</gpxtpx:hr>
          </gpxtpx:TrackPointExtension>
        </extensions>
      </trkpt>
      <trkpt lat="50.53451" lon="2.60804">
        <ele>36.6</ele>
        <time>2021-06-24T16:13:57Z</time>
        <extensions>
          <gpxtpx:TrackPointExtension xmlns:gpxtpx="http://www.garmin.com/xmlschemas/TrackPointExtension/v1">
            <gpxtpx:hr>125</gpxtpx:hr>
          </gpxtpx:TrackPointExtension>
        </extensions>
      </trkpt>
      <trkpt lat="50.53451" lon="2.60801">
        <ele>36.8</ele>
        <time>2021-06-24T16:13:58Z</time>
        <extensions>
          <gpxtpx:TrackPointExtension xmlns:gpxtpx="http://www.garmin.com/xmlschemas/TrackPointExtension/v1">
            <gpxtpx:hr>125</gpxtpx:hr>
          </gpxtpx:TrackPointExtension>
        </extensions>
      </trkpt>
      <trkpt lat="50.53451" lon="2.60798">
        <ele>36.8</ele>
        <time>2021-06-24T16:13:59Z</time>
        <extensions>
          <gpxtpx:TrackPointExtension xmlns:gpxtpx="http://www.garmin.com/xmlschemas/TrackPointExtension/v1">
            <gpxtpx:hr>125</gpxtpx:hr>
          </gpxtpx:TrackPointExtension>
        </extensions>
      </trkpt>
      <trkpt lat="50.53452" lon="2.60794">
        <ele>36.8</ele>
        <time>2021-06-24T16:14:00Z</time>
        <extensions>
          <gpxtpx:TrackPointExtension xmlns:gpxtpx="http://www.garmin.com/xmlschemas/TrackPointExtension/v1">
            <gpxtpx:hr>126</gpxtpx:hr>
          </gpxtpx:TrackPointExtension>
        </extensions>
      </trkpt>
      <trkpt lat="50.53453" lon="2.6079">
        <ele>36.8</ele>
        <time>2021-06-24T16:14:01Z</time>
        <extensions>
          <gpxtpx:TrackPointExtension xmlns:gpxtpx="http://www.garmin.com/xmlschemas/TrackPointExtension/v1">
            <gpxtpx:hr>126</gpxtpx:hr>
          </gpxtpx:TrackPointExtension>
        </extensions>
      </trkpt>
      <trkpt lat="50.53455" lon="2.60787">
        <ele>36.8</ele>
        <time>2021-06-24T16:14:02Z</time>
        <extensions>
          <gpxtpx:TrackPointExtension xmlns:gpxtpx="http://www.garmin.com/xmlschemas/TrackPointExtension/v1">
            <gpxtpx:hr>125</gpxtpx:hr>
          </gpxtpx:TrackPointExtension>
        </extensions>
      </trkpt>
      <trkpt lat="50.53455" lon="2.60782">
        <ele>36.8</ele>
        <time>2021-06-24T16:14:03Z</time>
        <extensions>
          <gpxtpx:TrackPointExtension xmlns:gpxtpx="http://www.garmin.com/xmlschemas/TrackPointExtension/v1">
            <gpxtpx:hr>125</gpxtpx:hr>
          </gpxtpx:TrackPointExtension>
        </extensions>
      </trkpt>
      <trkpt lat="50.53456" lon="2.60778">
        <ele>36.8</ele>
        <time>2021-06-24T16:14:04Z</time>
        <extensions>
          <gpxtpx:TrackPointExtension xmlns:gpxtpx="http://www.garmin.com/xmlschemas/TrackPointExtension/v1">
            <gpxtpx:hr>124</gpxtpx:hr>
          </gpxtpx:TrackPointExtension>
        </extensions>
      </trkpt>
      <trkpt lat="50.53455" lon="2.60773">
        <ele>36.8</ele>
        <time>2021-06-24T16:14:05Z</time>
        <extensions>
          <gpxtpx:TrackPointExtension xmlns:gpxtpx="http://www.garmin.com/xmlschemas/TrackPointExtension/v1">
            <gpxtpx:hr>124</gpxtpx:hr>
          </gpxtpx:TrackPointExtension>
        </extensions>
      </trkpt>
      <trkpt lat="50.53455" lon="2.60769">
        <ele>36.8</ele>
        <time>2021-06-24T16:14:06Z</time>
        <extensions>
          <gpxtpx:TrackPointExtension xmlns:gpxtpx="http://www.garmin.com/xmlschemas/TrackPointExtension/v1">
            <gpxtpx:hr>123</gpxtpx:hr>
          </gpxtpx:TrackPointExtension>
        </extensions>
      </trkpt>
      <trkpt lat="50.53454" lon="2.60765">
        <ele>36.8</ele>
        <time>2021-06-24T16:14:07Z</time>
        <extensions>
          <gpxtpx:TrackPointExtension xmlns:gpxtpx="http://www.garmin.com/xmlschemas/TrackPointExtension/v1">
            <gpxtpx:hr>122</gpxtpx:hr>
          </gpxtpx:TrackPointExtension>
        </extensions>
      </trkpt>
      <trkpt lat="50.53453" lon="2.60762">
        <ele>37</ele>
        <time>2021-06-24T16:14:08Z</time>
        <extensions>
          <gpxtpx:TrackPointExtension xmlns:gpxtpx="http://www.garmin.com/xmlschemas/TrackPointExtension/v1">
            <gpxtpx:hr>122</gpxtpx:hr>
          </gpxtpx:TrackPointExtension>
        </extensions>
      </trkpt>
      <trkpt lat="50.53453" lon="2.60757">
        <ele>37</ele>
        <time>2021-06-24T16:14:09Z</time>
        <extensions>
          <gpxtpx:TrackPointExtension xmlns:gpxtpx="http://www.garmin.com/xmlschemas/TrackPointExtension/v1">
            <gpxtpx:hr>122</gpxtpx:hr>
          </gpxtpx:TrackPointExtension>
        </extensions>
      </trkpt>
      <trkpt lat="50.53453" lon="2.60751">
        <ele>37</ele>
        <time>2021-06-24T16:14:10Z</time>
        <extensions>
          <gpxtpx:TrackPointExtension xmlns:gpxtpx="http://www.garmin.com/xmlschemas/TrackPointExtension/v1">
            <gpxtpx:hr>122</gpxtpx:hr>
          </gpxtpx:TrackPointExtension>
        </extensions>
      </trkpt>
      <trkpt lat="50.53453" lon="2.60746">
        <ele>37</ele>
        <time>2021-06-24T16:14:11Z</time>
        <extensions>
          <gpxtpx:TrackPointExtension xmlns:gpxtpx="http://www.garmin.com/xmlschemas/TrackPointExtension/v1">
            <gpxtpx:hr>122</gpxtpx:hr>
          </gpxtpx:TrackPointExtension>
        </extensions>
      </trkpt>
      <trkpt lat="50.53453" lon="2.60739">
        <ele>37</ele>
        <time>2021-06-24T16:14:12Z</time>
        <extensions>
          <gpxtpx:TrackPointExtension xmlns:gpxtpx="http://www.garmin.com/xmlschemas/TrackPointExtension/v1">
            <gpxtpx:hr>122</gpxtpx:hr>
          </gpxtpx:TrackPointExtension>
        </extensions>
      </trkpt>
      <trkpt lat="50.53453" lon="2.60733">
        <ele>37</ele>
        <time>2021-06-24T16:14:13Z</time>
        <extensions>
          <gpxtpx:TrackPointExtension xmlns:gpxtpx="http://www.garmin.com/xmlschemas/TrackPointExtension/v1">
            <gpxtpx:hr>122</gpxtpx:hr>
          </gpxtpx:TrackPointExtension>
        </extensions>
      </trkpt>
      <trkpt lat="50.53453" lon="2.6073">
        <ele>37</ele>
        <time>2021-06-24T16:14:14Z</time>
        <extensions>
          <gpxtpx:TrackPointExtension xmlns:gpxtpx="http://www.garmin.com/xmlschemas/TrackPointExtension/v1">
            <gpxtpx:hr>122</gpxtpx:hr>
          </gpxtpx:TrackPointExtension>
        </extensions>
      </trkpt>
      <trkpt lat="50.53455" lon="2.60727">
        <ele>37.2</ele>
        <time>2021-06-24T16:14:15Z</time>
        <extensions>
          <gpxtpx:TrackPointExtension xmlns:gpxtpx="http://www.garmin.com/xmlschemas/TrackPointExtension/v1">
            <gpxtpx:hr>122</gpxtpx:hr>
          </gpxtpx:TrackPointExtension>
        </extensions>
      </trkpt>
      <trkpt lat="50.53457" lon="2.60727">
        <ele>37.2</ele>
        <time>2021-06-24T16:14:16Z</time>
        <extensions>
          <gpxtpx:TrackPointExtension xmlns:gpxtpx="http://www.garmin.com/xmlschemas/TrackPointExtension/v1">
            <gpxtpx:hr>122</gpxtpx:hr>
          </gpxtpx:TrackPointExtension>
        </extensions>
      </trkpt>
      <trkpt lat="50.53458" lon="2.60728">
        <ele>37.2</ele>
        <time>2021-06-24T16:14:17Z</time>
        <extensions>
          <gpxtpx:TrackPointExtension xmlns:gpxtpx="http://www.garmin.com/xmlschemas/TrackPointExtension/v1">
            <gpxtpx:hr>122</gpxtpx:hr>
          </gpxtpx:TrackPointExtension>
        </extensions>
      </trkpt>
      <trkpt lat="50.53459" lon="2.6073">
        <ele>37.2</ele>
        <time>2021-06-24T16:14:18Z</time>
        <extensions>
          <gpxtpx:TrackPointExtension xmlns:gpxtpx="http://www.garmin.com/xmlschemas/TrackPointExtension/v1">
            <gpxtpx:hr>122</gpxtpx:hr>
          </gpxtpx:TrackPointExtension>
        </extensions>
      </trkpt>
      <trkpt lat="50.53461" lon="2.60733">
        <ele>37.2</ele>
        <time>2021-06-24T16:14:19Z</time>
        <extensions>
          <gpxtpx:TrackPointExtension xmlns:gpxtpx="http://www.garmin.com/xmlschemas/TrackPointExtension/v1">
            <gpxtpx:hr>122</gpxtpx:hr>
          </gpxtpx:TrackPointExtension>
        </extensions>
      </trkpt>
      <trkpt lat="50.53463" lon="2.60736">
        <ele>37.2</ele>
        <time>2021-06-24T16:14:20Z</time>
        <extensions>
          <gpxtpx:TrackPointExtension xmlns:gpxtpx="http://www.garmin.com/xmlschemas/TrackPointExtension/v1">
            <gpxtpx:hr>122</gpxtpx:hr>
          </gpxtpx:TrackPointExtension>
        </extensions>
      </trkpt>
      <trkpt lat="50.53465" lon="2.6074">
        <ele>37.2</ele>
        <time>2021-06-24T16:14:21Z</time>
        <extensions>
          <gpxtpx:TrackPointExtension xmlns:gpxtpx="http://www.garmin.com/xmlschemas/TrackPointExtension/v1">
            <gpxtpx:hr>122</gpxtpx:hr>
          </gpxtpx:TrackPointExtension>
        </extensions>
      </trkpt>
      <trkpt lat="50.53467" lon="2.60743">
        <ele>37.2</ele>
        <time>2021-06-24T16:14:22Z</time>
        <extensions>
          <gpxtpx:TrackPointExtension xmlns:gpxtpx="http://www.garmin.com/xmlschemas/TrackPointExtension/v1">
            <gpxtpx:hr>121</gpxtpx:hr>
          </gpxtpx:TrackPointExtension>
        </extensions>
      </trkpt>
      <trkpt lat="50.53469" lon="2.60746">
        <ele>37.2</ele>
        <time>2021-06-24T16:14:23Z</time>
        <extensions>
          <gpxtpx:TrackPointExtension xmlns:gpxtpx="http://www.garmin.com/xmlschemas/TrackPointExtension/v1">
            <gpxtpx:hr>121</gpxtpx:hr>
          </gpxtpx:TrackPointExtension>
        </extensions>
      </trkpt>
      <trkpt lat="50.53471" lon="2.60749">
        <ele>37.2</ele>
        <time>2021-06-24T16:14:24Z</time>
        <extensions>
          <gpxtpx:TrackPointExtension xmlns:gpxtpx="http://www.garmin.com/xmlschemas/TrackPointExtension/v1">
            <gpxtpx:hr>121</gpxtpx:hr>
          </gpxtpx:TrackPointExtension>
        </extensions>
      </trkpt>
      <trkpt lat="50.53473" lon="2.60752">
        <ele>37.2</ele>
        <time>2021-06-24T16:14:25Z</time>
        <extensions>
          <gpxtpx:TrackPointExtension xmlns:gpxtpx="http://www.garmin.com/xmlschemas/TrackPointExtension/v1">
            <gpxtpx:hr>121</gpxtpx:hr>
          </gpxtpx:TrackPointExtension>
        </extensions>
      </trkpt>
      <trkpt lat="50.53476" lon="2.60754">
        <ele>37.2</ele>
        <time>2021-06-24T16:14:26Z</time>
        <extensions>
          <gpxtpx:TrackPointExtension xmlns:gpxtpx="http://www.garmin.com/xmlschemas/TrackPointExtension/v1">
            <gpxtpx:hr>122</gpxtpx:hr>
          </gpxtpx:TrackPointExtension>
        </extensions>
      </trkpt>
      <trkpt lat="50.5348" lon="2.60756">
        <ele>37.2</ele>
        <time>2021-06-24T16:14:27Z</time>
        <extensions>
          <gpxtpx:TrackPointExtension xmlns:gpxtpx="http://www.garmin.com/xmlschemas/TrackPointExtension/v1">
            <gpxtpx:hr>122</gpxtpx:hr>
          </gpxtpx:TrackPointExtension>
        </extensions>
      </trkpt>
      <trkpt lat="50.53483" lon="2.60758">
        <ele>37.2</ele>
        <time>2021-06-24T16:14:28Z</time>
        <extensions>
          <gpxtpx:TrackPointExtension xmlns:gpxtpx="http://www.garmin.com/xmlschemas/TrackPointExtension/v1">
            <gpxtpx:hr>122</gpxtpx:hr>
          </gpxtpx:TrackPointExtension>
        </extensions>
      </trkpt>
      <trkpt lat="50.53487" lon="2.60762">
        <ele>37.2</ele>
        <time>2021-06-24T16:14:29Z</time>
        <extensions>
          <gpxtpx:TrackPointExtension xmlns:gpxtpx="http://www.garmin.com/xmlschemas/TrackPointExtension/v1">
            <gpxtpx:hr>123</gpxtpx:hr>
          </gpxtpx:TrackPointExtension>
        </extensions>
      </trkpt>
      <trkpt lat="50.5349" lon="2.60766">
        <ele>37</ele>
        <time>2021-06-24T16:14:30Z</time>
        <extensions>
          <gpxtpx:TrackPointExtension xmlns:gpxtpx="http://www.garmin.com/xmlschemas/TrackPointExtension/v1">
            <gpxtpx:hr>123</gpxtpx:hr>
          </gpxtpx:TrackPointExtension>
        </extensions>
      </trkpt>
      <trkpt lat="50.53493" lon="2.6077">
        <ele>37</ele>
        <time>2021-06-24T16:14:31Z</time>
        <extensions>
          <gpxtpx:TrackPointExtension xmlns:gpxtpx="http://www.garmin.com/xmlschemas/TrackPointExtension/v1">
            <gpxtpx:hr>122</gpxtpx:hr>
          </gpxtpx:TrackPointExtension>
        </extensions>
      </trkpt>
      <trkpt lat="50.53497" lon="2.60774">
        <ele>37</ele>
        <time>2021-06-24T16:14:32Z</time>
        <extensions>
          <gpxtpx:TrackPointExtension xmlns:gpxtpx="http://www.garmin.com/xmlschemas/TrackPointExtension/v1">
            <gpxtpx:hr>122</gpxtpx:hr>
          </gpxtpx:TrackPointExtension>
        </extensions>
      </trkpt>
      <trkpt lat="50.535" lon="2.60777">
        <ele>37</ele>
        <time>2021-06-24T16:14:33Z</time>
        <extensions>
          <gpxtpx:TrackPointExtension xmlns:gpxtpx="http://www.garmin.com/xmlschemas/TrackPointExtension/v1">
            <gpxtpx:hr>122</gpxtpx:hr>
          </gpxtpx:TrackPointExtension>
        </extensions>
      </trkpt>
      <trkpt lat="50.53504" lon="2.60782">
        <ele>37</ele>
        <time>2021-06-24T16:14:34Z</time>
        <extensions>
          <gpxtpx:TrackPointExtension xmlns:gpxtpx="http://www.garmin.com/xmlschemas/TrackPointExtension/v1">
            <gpxtpx:hr>123</gpxtpx:hr>
          </gpxtpx:TrackPointExtension>
        </extensions>
      </trkpt>
      <trkpt lat="50.53508" lon="2.60786">
        <ele>36.8</ele>
        <time>2021-06-24T16:14:35Z</time>
        <extensions>
          <gpxtpx:TrackPointExtension xmlns:gpxtpx="http://www.garmin.com/xmlschemas/TrackPointExtension/v1">
            <gpxtpx:hr>123</gpxtpx:hr>
          </gpxtpx:TrackPointExtension>
        </extensions>
      </trkpt>
      <trkpt lat="50.53511" lon="2.6079">
        <ele>36.8</ele>
        <time>2021-06-24T16:14:36Z</time>
        <extensions>
          <gpxtpx:TrackPointExtension xmlns:gpxtpx="http://www.garmin.com/xmlschemas/TrackPointExtension/v1">
            <gpxtpx:hr>123</gpxtpx:hr>
          </gpxtpx:TrackPointExtension>
        </extensions>
      </trkpt>
      <trkpt lat="50.53516" lon="2.60793">
        <ele>36.8</ele>
        <time>2021-06-24T16:14:37Z</time>
        <extensions>
          <gpxtpx:TrackPointExtension xmlns:gpxtpx="http://www.garmin.com/xmlschemas/TrackPointExtension/v1">
            <gpxtpx:hr>124</gpxtpx:hr>
          </gpxtpx:TrackPointExtension>
        </extensions>
      </trkpt>
      <trkpt lat="50.5352" lon="2.60798">
        <ele>36.8</ele>
        <time>2021-06-24T16:14:38Z</time>
        <extensions>
          <gpxtpx:TrackPointExtension xmlns:gpxtpx="http://www.garmin.com/xmlschemas/TrackPointExtension/v1">
            <gpxtpx:hr>125</gpxtpx:hr>
          </gpxtpx:TrackPointExtension>
        </extensions>
      </trkpt>
      <trkpt lat="50.53525" lon="2.60802">
        <ele>36.8</ele>
        <time>2021-06-24T16:14:39Z</time>
        <extensions>
          <gpxtpx:TrackPointExtension xmlns:gpxtpx="http://www.garmin.com/xmlschemas/TrackPointExtension/v1">
            <gpxtpx:hr>126</gpxtpx:hr>
          </gpxtpx:TrackPointExtension>
        </extensions>
      </trkpt>
      <trkpt lat="50.53529" lon="2.60808">
        <ele>36.8</ele>
        <time>2021-06-24T16:14:40Z</time>
        <extensions>
          <gpxtpx:TrackPointExtension xmlns:gpxtpx="http://www.garmin.com/xmlschemas/TrackPointExtension/v1">
            <gpxtpx:hr>126</gpxtpx:hr>
          </gpxtpx:TrackPointExtension>
        </extensions>
      </trkpt>
      <trkpt lat="50.53532" lon="2.60814">
        <ele>36.8</ele>
        <time>2021-06-24T16:14:41Z</time>
        <extensions>
          <gpxtpx:TrackPointExtension xmlns:gpxtpx="http://www.garmin.com/xmlschemas/TrackPointExtension/v1">
            <gpxtpx:hr>126</gpxtpx:hr>
          </gpxtpx:TrackPointExtension>
        </extensions>
      </trkpt>
      <trkpt lat="50.53536" lon="2.60817">
        <ele>36.6</ele>
        <time>2021-06-24T16:14:42Z</time>
        <extensions>
          <gpxtpx:TrackPointExtension xmlns:gpxtpx="http://www.garmin.com/xmlschemas/TrackPointExtension/v1">
            <gpxtpx:hr>127</gpxtpx:hr>
          </gpxtpx:TrackPointExtension>
        </extensions>
      </trkpt>
      <trkpt lat="50.5354" lon="2.6082">
        <ele>36.6</ele>
        <time>2021-06-24T16:14:43Z</time>
        <extensions>
          <gpxtpx:TrackPointExtension xmlns:gpxtpx="http://www.garmin.com/xmlschemas/TrackPointExtension/v1">
            <gpxtpx:hr>127</gpxtpx:hr>
          </gpxtpx:TrackPointExtension>
        </extensions>
      </trkpt>
      <trkpt lat="50.53545" lon="2.60823">
        <ele>36.6</ele>
        <time>2021-06-24T16:14:44Z</time>
        <extensions>
          <gpxtpx:TrackPointExtension xmlns:gpxtpx="http://www.garmin.com/xmlschemas/TrackPointExtension/v1">
            <gpxtpx:hr>127</gpxtpx:hr>
          </gpxtpx:TrackPointExtension>
        </extensions>
      </trkpt>
      <trkpt lat="50.53548" lon="2.60826">
        <ele>36.6</ele>
        <time>2021-06-24T16:14:45Z</time>
        <extensions>
          <gpxtpx:TrackPointExtension xmlns:gpxtpx="http://www.garmin.com/xmlschemas/TrackPointExtension/v1">
            <gpxtpx:hr>127</gpxtpx:hr>
          </gpxtpx:TrackPointExtension>
        </extensions>
      </trkpt>
      <trkpt lat="50.53553" lon="2.60831">
        <ele>36.6</ele>
        <time>2021-06-24T16:14:46Z</time>
        <extensions>
          <gpxtpx:TrackPointExtension xmlns:gpxtpx="http://www.garmin.com/xmlschemas/TrackPointExtension/v1">
            <gpxtpx:hr>128</gpxtpx:hr>
          </gpxtpx:TrackPointExtension>
        </extensions>
      </trkpt>
      <trkpt lat="50.53556" lon="2.60834">
        <ele>36.6</ele>
        <time>2021-06-24T16:14:47Z</time>
        <extensions>
          <gpxtpx:TrackPointExtension xmlns:gpxtpx="http://www.garmin.com/xmlschemas/TrackPointExtension/v1">
            <gpxtpx:hr>128</gpxtpx:hr>
          </gpxtpx:TrackPointExtension>
        </extensions>
      </trkpt>
      <trkpt lat="50.53559" lon="2.6084">
        <ele>36.6</ele>
        <time>2021-06-24T16:14:48Z</time>
        <extensions>
          <gpxtpx:TrackPointExtension xmlns:gpxtpx="http://www.garmin.com/xmlschemas/TrackPointExtension/v1">
            <gpxtpx:hr>128</gpxtpx:hr>
          </gpxtpx:TrackPointExtension>
        </extensions>
      </trkpt>
      <trkpt lat="50.53564" lon="2.60846">
        <ele>36.4</ele>
        <time>2021-06-24T16:14:49Z</time>
        <extensions>
          <gpxtpx:TrackPointExtension xmlns:gpxtpx="http://www.garmin.com/xmlschemas/TrackPointExtension/v1">
            <gpxtpx:hr>128</gpxtpx:hr>
          </gpxtpx:TrackPointExtension>
        </extensions>
      </trkpt>
      <trkpt lat="50.53567" lon="2.6085">
        <ele>36.4</ele>
        <time>2021-06-24T16:14:50Z</time>
        <extensions>
          <gpxtpx:TrackPointExtension xmlns:gpxtpx="http://www.garmin.com/xmlschemas/TrackPointExtension/v1">
            <gpxtpx:hr>128</gpxtpx:hr>
          </gpxtpx:TrackPointExtension>
        </extensions>
      </trkpt>
      <trkpt lat="50.53571" lon="2.60853">
        <ele>36.4</ele>
        <time>2021-06-24T16:14:51Z</time>
        <extensions>
          <gpxtpx:TrackPointExtension xmlns:gpxtpx="http://www.garmin.com/xmlschemas/TrackPointExtension/v1">
            <gpxtpx:hr>128</gpxtpx:hr>
          </gpxtpx:TrackPointExtension>
        </extensions>
      </trkpt>
      <trkpt lat="50.53575" lon="2.60857">
        <ele>36.2</ele>
        <time>2021-06-24T16:14:52Z</time>
        <extensions>
          <gpxtpx:TrackPointExtension xmlns:gpxtpx="http://www.garmin.com/xmlschemas/TrackPointExtension/v1">
            <gpxtpx:hr>128</gpxtpx:hr>
          </gpxtpx:TrackPointExtension>
        </extensions>
      </trkpt>
      <trkpt lat="50.53579" lon="2.60861">
        <ele>36.2</ele>
        <time>2021-06-24T16:14:53Z</time>
        <extensions>
          <gpxtpx:TrackPointExtension xmlns:gpxtpx="http://www.garmin.com/xmlschemas/TrackPointExtension/v1">
            <gpxtpx:hr>128</gpxtpx:hr>
          </gpxtpx:TrackPointExtension>
        </extensions>
      </trkpt>
      <trkpt lat="50.53584" lon="2.60865">
        <ele>36</ele>
        <time>2021-06-24T16:14:54Z</time>
        <extensions>
          <gpxtpx:TrackPointExtension xmlns:gpxtpx="http://www.garmin.com/xmlschemas/TrackPointExtension/v1">
            <gpxtpx:hr>127</gpxtpx:hr>
          </gpxtpx:TrackPointExtension>
        </extensions>
      </trkpt>
      <trkpt lat="50.53586" lon="2.60869">
        <ele>36</ele>
        <time>2021-06-24T16:14:55Z</time>
      </trkpt>
      <trkpt lat="50.5359" lon="2.60873">
        <ele>36</ele>
        <time>2021-06-24T16:14:56Z</time>
        <extensions>
          <gpxtpx:TrackPointExtension xmlns:gpxtpx="http://www.garmin.com/xmlschemas/TrackPointExtension/v1">
            <gpxtpx:hr>127</gpxtpx:hr>
          </gpxtpx:TrackPointExtension>
        </extensions>
      </trkpt>
      <trkpt lat="50.53594" lon="2.60877">
        <ele>36</ele>
        <time>2021-06-24T16:14:57Z</time>
        <extensions>
          <gpxtpx:TrackPointExtension xmlns:gpxtpx="http://www.garmin.com/xmlschemas/TrackPointExtension/v1">
            <gpxtpx:hr>127</gpxtpx:hr>
          </gpxtpx:TrackPointExtension>
        </extensions>
      </trkpt>
      <trkpt lat="50.53598" lon="2.60881">
        <ele>35.8</ele>
        <time>2021-06-24T16:14:58Z</time>
        <extensions>
          <gpxtpx:TrackPointExtension xmlns:gpxtpx="http://www.garmin.com/xmlschemas/TrackPointExtension/v1">
            <gpxtpx:hr>127</gpxtpx:hr>
          </gpxtpx:TrackPointExtension>
        </extensions>
      </trkpt>
      <trkpt lat="50.53602" lon="2.60885">
        <ele>35.8</ele>
        <time>2021-06-24T16:14:59Z</time>
        <extensions>
          <gpxtpx:TrackPointExtension xmlns:gpxtpx="http://www.garmin.com/xmlschemas/TrackPointExtension/v1">
            <gpxtpx:hr>127</gpxtpx:hr>
          </gpxtpx:TrackPointExtension>
        </extensions>
      </trkpt>
      <trkpt lat="50.53604" lon="2.6089">
        <ele>35.8</ele>
        <time>2021-06-24T16:15:00Z</time>
        <extensions>
          <gpxtpx:TrackPointExtension xmlns:gpxtpx="http://www.garmin.com/xmlschemas/TrackPointExtension/v1">
            <gpxtpx:hr>126</gpxtpx:hr>
          </gpxtpx:TrackPointExtension>
        </extensions>
      </trkpt>
      <trkpt lat="50.53605" lon="2.60896">
        <ele>35.8</ele>
        <time>2021-06-24T16:15:01Z</time>
        <extensions>
          <gpxtpx:TrackPointExtension xmlns:gpxtpx="http://www.garmin.com/xmlschemas/TrackPointExtension/v1">
            <gpxtpx:hr>126</gpxtpx:hr>
          </gpxtpx:TrackPointExtension>
        </extensions>
      </trkpt>
      <trkpt lat="50.53606" lon="2.60903">
        <ele>35.6</ele>
        <time>2021-06-24T16:15:02Z</time>
        <extensions>
          <gpxtpx:TrackPointExtension xmlns:gpxtpx="http://www.garmin.com/xmlschemas/TrackPointExtension/v1">
            <gpxtpx:hr>126</gpxtpx:hr>
          </gpxtpx:TrackPointExtension>
        </extensions>
      </trkpt>
      <trkpt lat="50.53606" lon="2.6091">
        <ele>35.6</ele>
        <time>2021-06-24T16:15:03Z</time>
        <extensions>
          <gpxtpx:TrackPointExtension xmlns:gpxtpx="http://www.garmin.com/xmlschemas/TrackPointExtension/v1">
            <gpxtpx:hr>125</gpxtpx:hr>
          </gpxtpx:TrackPointExtension>
        </extensions>
      </trkpt>
      <trkpt lat="50.53604" lon="2.60916">
        <ele>35.6</ele>
        <time>2021-06-24T16:15:04Z</time>
        <extensions>
          <gpxtpx:TrackPointExtension xmlns:gpxtpx="http://www.garmin.com/xmlschemas/TrackPointExtension/v1">
            <gpxtpx:hr>125</gpxtpx:hr>
          </gpxtpx:TrackPointExtension>
        </extensions>
      </trkpt>
      <trkpt lat="50.53604" lon="2.60921">
        <ele>35.6</ele>
        <time>2021-06-24T16:15:05Z</time>
        <extensions>
          <gpxtpx:TrackPointExtension xmlns:gpxtpx="http://www.garmin.com/xmlschemas/TrackPointExtension/v1">
            <gpxtpx:hr>125</gpxtpx:hr>
          </gpxtpx:TrackPointExtension>
        </extensions>
      </trkpt>
      <trkpt lat="50.53602" lon="2.60929">
        <ele>35.6</ele>
        <time>2021-06-24T16:15:06Z</time>
        <extensions>
          <gpxtpx:TrackPointExtension xmlns:gpxtpx="http://www.garmin.com/xmlschemas/TrackPointExtension/v1">
            <gpxtpx:hr>125</gpxtpx:hr>
          </gpxtpx:TrackPointExtension>
        </extensions>
      </trkpt>
      <trkpt lat="50.53602" lon="2.60936">
        <ele>35.4</ele>
        <time>2021-06-24T16:15:07Z</time>
        <extensions>
          <gpxtpx:TrackPointExtension xmlns:gpxtpx="http://www.garmin.com/xmlschemas/TrackPointExtension/v1">
            <gpxtpx:hr>125</gpxtpx:hr>
          </gpxtpx:TrackPointExtension>
        </extensions>
      </trkpt>
      <trkpt lat="50.53601" lon="2.60942">
        <ele>35.4</ele>
        <time>2021-06-24T16:15:08Z</time>
        <extensions>
          <gpxtpx:TrackPointExtension xmlns:gpxtpx="http://www.garmin.com/xmlschemas/TrackPointExtension/v1">
            <gpxtpx:hr>125</gpxtpx:hr>
          </gpxtpx:TrackPointExtension>
        </extensions>
      </trkpt>
      <trkpt lat="50.53602" lon="2.60948">
        <ele>35.4</ele>
        <time>2021-06-24T16:15:09Z</time>
        <extensions>
          <gpxtpx:TrackPointExtension xmlns:gpxtpx="http://www.garmin.com/xmlschemas/TrackPointExtension/v1">
            <gpxtpx:hr>125</gpxtpx:hr>
          </gpxtpx:TrackPointExtension>
        </extensions>
      </trkpt>
      <trkpt lat="50.53603" lon="2.60953">
        <ele>35.4</ele>
        <time>2021-06-24T16:15:10Z</time>
        <extensions>
          <gpxtpx:TrackPointExtension xmlns:gpxtpx="http://www.garmin.com/xmlschemas/TrackPointExtension/v1">
            <gpxtpx:hr>124</gpxtpx:hr>
          </gpxtpx:TrackPointExtension>
        </extensions>
      </trkpt>
      <trkpt lat="50.53603" lon="2.60959">
        <ele>35.4</ele>
        <time>2021-06-24T16:15:11Z</time>
        <extensions>
          <gpxtpx:TrackPointExtension xmlns:gpxtpx="http://www.garmin.com/xmlschemas/TrackPointExtension/v1">
            <gpxtpx:hr>123</gpxtpx:hr>
          </gpxtpx:TrackPointExtension>
        </extensions>
      </trkpt>
      <trkpt lat="50.53602" lon="2.60966">
        <ele>35.4</ele>
        <time>2021-06-24T16:15:12Z</time>
        <extensions>
          <gpxtpx:TrackPointExtension xmlns:gpxtpx="http://www.garmin.com/xmlschemas/TrackPointExtension/v1">
            <gpxtpx:hr>122</gpxtpx:hr>
          </gpxtpx:TrackPointExtension>
        </extensions>
      </trkpt>
      <trkpt lat="50.53599" lon="2.60972">
        <ele>35.4</ele>
        <time>2021-06-24T16:15:13Z</time>
        <extensions>
          <gpxtpx:TrackPointExtension xmlns:gpxtpx="http://www.garmin.com/xmlschemas/TrackPointExtension/v1">
            <gpxtpx:hr>122</gpxtpx:hr>
          </gpxtpx:TrackPointExtension>
        </extensions>
      </trkpt>
      <trkpt lat="50.53596" lon="2.60977">
        <ele>35.2</ele>
        <time>2021-06-24T16:15:14Z</time>
        <extensions>
          <gpxtpx:TrackPointExtension xmlns:gpxtpx="http://www.garmin.com/xmlschemas/TrackPointExtension/v1">
            <gpxtpx:hr>121</gpxtpx:hr>
          </gpxtpx:TrackPointExtension>
        </extensions>
      </trkpt>
      <trkpt lat="50.53594" lon="2.60984">
        <ele>35.2</ele>
        <time>2021-06-24T16:15:15Z</time>
        <extensions>
          <gpxtpx:TrackPointExtension xmlns:gpxtpx="http://www.garmin.com/xmlschemas/TrackPointExtension/v1">
            <gpxtpx:hr>121</gpxtpx:hr>
          </gpxtpx:TrackPointExtension>
        </extensions>
      </trkpt>
      <trkpt lat="50.53592" lon="2.6099">
        <ele>35.2</ele>
        <time>2021-06-24T16:15:16Z</time>
        <extensions>
          <gpxtpx:TrackPointExtension xmlns:gpxtpx="http://www.garmin.com/xmlschemas/TrackPointExtension/v1">
            <gpxtpx:hr>121</gpxtpx:hr>
          </gpxtpx:TrackPointExtension>
        </extensions>
      </trkpt>
      <trkpt lat="50.5359" lon="2.60995">
        <ele>35.2</ele>
        <time>2021-06-24T16:15:17Z</time>
        <extensions>
          <gpxtpx:TrackPointExtension xmlns:gpxtpx="http://www.garmin.com/xmlschemas/TrackPointExtension/v1">
            <gpxtpx:hr>120</gpxtpx:hr>
          </gpxtpx:TrackPointExtension>
        </extensions>
      </trkpt>
      <trkpt lat="50.53587" lon="2.60998">
        <ele>35.2</ele>
        <time>2021-06-24T16:15:18Z</time>
        <extensions>
          <gpxtpx:TrackPointExtension xmlns:gpxtpx="http://www.garmin.com/xmlschemas/TrackPointExtension/v1">
            <gpxtpx:hr>120</gpxtpx:hr>
          </gpxtpx:TrackPointExtension>
        </extensions>
      </trkpt>
      <trkpt lat="50.53586" lon="2.61002">
        <ele>35.2</ele>
        <time>2021-06-24T16:15:19Z</time>
        <extensions>
          <gpxtpx:TrackPointExtension xmlns:gpxtpx="http://www.garmin.com/xmlschemas/TrackPointExtension/v1">
            <gpxtpx:hr>120</gpxtpx:hr>
          </gpxtpx:TrackPointExtension>
        </extensions>
      </trkpt>
      <trkpt lat="50.53584" lon="2.61008">
        <ele>35.2</ele>
        <time>2021-06-24T16:15:20Z</time>
        <extensions>
          <gpxtpx:TrackPointExtension xmlns:gpxtpx="http://www.garmin.com/xmlschemas/TrackPointExtension/v1">
            <gpxtpx:hr>120</gpxtpx:hr>
          </gpxtpx:TrackPointExtension>
        </extensions>
      </trkpt>
      <trkpt lat="50.53584" lon="2.61015">
        <ele>35.2</ele>
        <time>2021-06-24T16:15:21Z</time>
        <extensions>
          <gpxtpx:TrackPointExtension xmlns:gpxtpx="http://www.garmin.com/xmlschemas/TrackPointExtension/v1">
            <gpxtpx:hr>120</gpxtpx:hr>
          </gpxtpx:TrackPointExtension>
        </extensions>
      </trkpt>
      <trkpt lat="50.53584" lon="2.61021">
        <ele>35.2</ele>
        <time>2021-06-24T16:15:22Z</time>
        <extensions>
          <gpxtpx:TrackPointExtension xmlns:gpxtpx="http://www.garmin.com/xmlschemas/TrackPointExtension/v1">
            <gpxtpx:hr>120</gpxtpx:hr>
          </gpxtpx:TrackPointExtension>
        </extensions>
      </trkpt>
      <trkpt lat="50.53584" lon="2.61028">
        <ele>35.2</ele>
        <time>2021-06-24T16:15:23Z</time>
        <extensions>
          <gpxtpx:TrackPointExtension xmlns:gpxtpx="http://www.garmin.com/xmlschemas/TrackPointExtension/v1">
            <gpxtpx:hr>120</gpxtpx:hr>
          </gpxtpx:TrackPointExtension>
        </extensions>
      </trkpt>
      <trkpt lat="50.53586" lon="2.61036">
        <ele>35.2</ele>
        <time>2021-06-24T16:15:24Z</time>
        <extensions>
          <gpxtpx:TrackPointExtension xmlns:gpxtpx="http://www.garmin.com/xmlschemas/TrackPointExtension/v1">
            <gpxtpx:hr>120</gpxtpx:hr>
          </gpxtpx:TrackPointExtension>
        </extensions>
      </trkpt>
      <trkpt lat="50.53587" lon="2.61043">
        <ele>35.2</ele>
        <time>2021-06-24T16:15:25Z</time>
        <extensions>
          <gpxtpx:TrackPointExtension xmlns:gpxtpx="http://www.garmin.com/xmlschemas/TrackPointExtension/v1">
            <gpxtpx:hr>120</gpxtpx:hr>
          </gpxtpx:TrackPointExtension>
        </extensions>
      </trkpt>
      <trkpt lat="50.53588" lon="2.61049">
        <ele>35.4</ele>
        <time>2021-06-24T16:15:26Z</time>
        <extensions>
          <gpxtpx:TrackPointExtension xmlns:gpxtpx="http://www.garmin.com/xmlschemas/TrackPointExtension/v1">
            <gpxtpx:hr>120</gpxtpx:hr>
          </gpxtpx:TrackPointExtension>
        </extensions>
      </trkpt>
      <trkpt lat="50.5359" lon="2.61055">
        <ele>35.4</ele>
        <time>2021-06-24T16:15:27Z</time>
        <extensions>
          <gpxtpx:TrackPointExtension xmlns:gpxtpx="http://www.garmin.com/xmlschemas/TrackPointExtension/v1">
            <gpxtpx:hr>121</gpxtpx:hr>
          </gpxtpx:TrackPointExtension>
        </extensions>
      </trkpt>
      <trkpt lat="50.53593" lon="2.61061">
        <ele>35.4</ele>
        <time>2021-06-24T16:15:28Z</time>
        <extensions>
          <gpxtpx:TrackPointExtension xmlns:gpxtpx="http://www.garmin.com/xmlschemas/TrackPointExtension/v1">
            <gpxtpx:hr>121</gpxtpx:hr>
          </gpxtpx:TrackPointExtension>
        </extensions>
      </trkpt>
      <trkpt lat="50.53594" lon="2.61066">
        <ele>35.4</ele>
        <time>2021-06-24T16:15:29Z</time>
        <extensions>
          <gpxtpx:TrackPointExtension xmlns:gpxtpx="http://www.garmin.com/xmlschemas/TrackPointExtension/v1">
            <gpxtpx:hr>121</gpxtpx:hr>
          </gpxtpx:TrackPointExtension>
        </extensions>
      </trkpt>
      <trkpt lat="50.53596" lon="2.6107">
        <ele>35.6</ele>
        <time>2021-06-24T16:15:30Z</time>
        <extensions>
          <gpxtpx:TrackPointExtension xmlns:gpxtpx="http://www.garmin.com/xmlschemas/TrackPointExtension/v1">
            <gpxtpx:hr>121</gpxtpx:hr>
          </gpxtpx:TrackPointExtension>
        </extensions>
      </trkpt>
      <trkpt lat="50.53597" lon="2.61071">
        <ele>35.6</ele>
        <time>2021-06-24T16:15:31Z</time>
        <extensions>
          <gpxtpx:TrackPointExtension xmlns:gpxtpx="http://www.garmin.com/xmlschemas/TrackPointExtension/v1">
            <gpxtpx:hr>122</gpxtpx:hr>
          </gpxtpx:TrackPointExtension>
        </extensions>
      </trkpt>
      <trkpt lat="50.536" lon="2.61073">
        <ele>35.6</ele>
        <time>2021-06-24T16:15:32Z</time>
        <extensions>
          <gpxtpx:TrackPointExtension xmlns:gpxtpx="http://www.garmin.com/xmlschemas/TrackPointExtension/v1">
            <gpxtpx:hr>122</gpxtpx:hr>
          </gpxtpx:TrackPointExtension>
        </extensions>
      </trkpt>
      <trkpt lat="50.53603" lon="2.61075">
        <ele>35.6</ele>
        <time>2021-06-24T16:15:33Z</time>
        <extensions>
          <gpxtpx:TrackPointExtension xmlns:gpxtpx="http://www.garmin.com/xmlschemas/TrackPointExtension/v1">
            <gpxtpx:hr>122</gpxtpx:hr>
          </gpxtpx:TrackPointExtension>
        </extensions>
      </trkpt>
      <trkpt lat="50.53604" lon="2.61078">
        <ele>35.6</ele>
        <time>2021-06-24T16:15:34Z</time>
        <extensions>
          <gpxtpx:TrackPointExtension xmlns:gpxtpx="http://www.garmin.com/xmlschemas/TrackPointExtension/v1">
            <gpxtpx:hr>122</gpxtpx:hr>
          </gpxtpx:TrackPointExtension>
        </extensions>
      </trkpt>
      <trkpt lat="50.53607" lon="2.61082">
        <ele>35.6</ele>
        <time>2021-06-24T16:15:35Z</time>
        <extensions>
          <gpxtpx:TrackPointExtension xmlns:gpxtpx="http://www.garmin.com/xmlschemas/TrackPointExtension/v1">
            <gpxtpx:hr>122</gpxtpx:hr>
          </gpxtpx:TrackPointExtension>
        </extensions>
      </trkpt>
      <trkpt lat="50.53608" lon="2.61086">
        <ele>35.8</ele>
        <time>2021-06-24T16:15:36Z</time>
        <extensions>
          <gpxtpx:TrackPointExtension xmlns:gpxtpx="http://www.garmin.com/xmlschemas/TrackPointExtension/v1">
            <gpxtpx:hr>122</gpxtpx:hr>
          </gpxtpx:TrackPointExtension>
        </extensions>
      </trkpt>
      <trkpt lat="50.5361" lon="2.6109">
        <ele>35.8</ele>
        <time>2021-06-24T16:15:37Z</time>
        <extensions>
          <gpxtpx:TrackPointExtension xmlns:gpxtpx="http://www.garmin.com/xmlschemas/TrackPointExtension/v1">
            <gpxtpx:hr>121</gpxtpx:hr>
          </gpxtpx:TrackPointExtension>
        </extensions>
      </trkpt>
      <trkpt lat="50.53612" lon="2.61094">
        <ele>35.8</ele>
        <time>2021-06-24T16:15:38Z</time>
        <extensions>
          <gpxtpx:TrackPointExtension xmlns:gpxtpx="http://www.garmin.com/xmlschemas/TrackPointExtension/v1">
            <gpxtpx:hr>121</gpxtpx:hr>
          </gpxtpx:TrackPointExtension>
        </extensions>
      </trkpt>
      <trkpt lat="50.53614" lon="2.61098">
        <ele>35.8</ele>
        <time>2021-06-24T16:15:39Z</time>
        <extensions>
          <gpxtpx:TrackPointExtension xmlns:gpxtpx="http://www.garmin.com/xmlschemas/TrackPointExtension/v1">
            <gpxtpx:hr>120</gpxtpx:hr>
          </gpxtpx:TrackPointExtension>
        </extensions>
      </trkpt>
      <trkpt lat="50.53616" lon="2.61102">
        <ele>35.8</ele>
        <time>2021-06-24T16:15:40Z</time>
        <extensions>
          <gpxtpx:TrackPointExtension xmlns:gpxtpx="http://www.garmin.com/xmlschemas/TrackPointExtension/v1">
            <gpxtpx:hr>120</gpxtpx:hr>
          </gpxtpx:TrackPointExtension>
        </extensions>
      </trkpt>
      <trkpt lat="50.53617" lon="2.61106">
        <ele>35.8</ele>
        <time>2021-06-24T16:15:41Z</time>
        <extensions>
          <gpxtpx:TrackPointExtension xmlns:gpxtpx="http://www.garmin.com/xmlschemas/TrackPointExtension/v1">
            <gpxtpx:hr>119</gpxtpx:hr>
          </gpxtpx:TrackPointExtension>
        </extensions>
      </trkpt>
      <trkpt lat="50.53617" lon="2.61112">
        <ele>35.8</ele>
        <time>2021-06-24T16:15:42Z</time>
        <extensions>
          <gpxtpx:TrackPointExtension xmlns:gpxtpx="http://www.garmin.com/xmlschemas/TrackPointExtension/v1">
            <gpxtpx:hr>119</gpxtpx:hr>
          </gpxtpx:TrackPointExtension>
        </extensions>
      </trkpt>
      <trkpt lat="50.53616" lon="2.61119">
        <ele>35.8</ele>
        <time>2021-06-24T16:15:43Z</time>
        <extensions>
          <gpxtpx:TrackPointExtension xmlns:gpxtpx="http://www.garmin.com/xmlschemas/TrackPointExtension/v1">
            <gpxtpx:hr>118</gpxtpx:hr>
          </gpxtpx:TrackPointExtension>
        </extensions>
      </trkpt>
      <trkpt lat="50.53615" lon="2.61127">
        <ele>35.8</ele>
        <time>2021-06-24T16:15:44Z</time>
        <extensions>
          <gpxtpx:TrackPointExtension xmlns:gpxtpx="http://www.garmin.com/xmlschemas/TrackPointExtension/v1">
            <gpxtpx:hr>118</gpxtpx:hr>
          </gpxtpx:TrackPointExtension>
        </extensions>
      </trkpt>
      <trkpt lat="50.53614" lon="2.61133">
        <ele>35.8</ele>
        <time>2021-06-24T16:15:45Z</time>
        <extensions>
          <gpxtpx:TrackPointExtension xmlns:gpxtpx="http://www.garmin.com/xmlschemas/TrackPointExtension/v1">
            <gpxtpx:hr>118</gpxtpx:hr>
          </gpxtpx:TrackPointExtension>
        </extensions>
      </trkpt>
      <trkpt lat="50.53612" lon="2.6114">
        <ele>35.8</ele>
        <time>2021-06-24T16:15:46Z</time>
        <extensions>
          <gpxtpx:TrackPointExtension xmlns:gpxtpx="http://www.garmin.com/xmlschemas/TrackPointExtension/v1">
            <gpxtpx:hr>118</gpxtpx:hr>
          </gpxtpx:TrackPointExtension>
        </extensions>
      </trkpt>
      <trkpt lat="50.53611" lon="2.61147">
        <ele>35.8</ele>
        <time>2021-06-24T16:15:47Z</time>
        <extensions>
          <gpxtpx:TrackPointExtension xmlns:gpxtpx="http://www.garmin.com/xmlschemas/TrackPointExtension/v1">
            <gpxtpx:hr>118</gpxtpx:hr>
          </gpxtpx:TrackPointExtension>
        </extensions>
      </trkpt>
      <trkpt lat="50.53609" lon="2.61153">
        <ele>35.8</ele>
        <time>2021-06-24T16:15:48Z</time>
        <extensions>
          <gpxtpx:TrackPointExtension xmlns:gpxtpx="http://www.garmin.com/xmlschemas/TrackPointExtension/v1">
            <gpxtpx:hr>118</gpxtpx:hr>
          </gpxtpx:TrackPointExtension>
        </extensions>
      </trkpt>
      <trkpt lat="50.53608" lon="2.6116">
        <ele>35.8</ele>
        <time>2021-06-24T16:15:49Z</time>
        <extensions>
          <gpxtpx:TrackPointExtension xmlns:gpxtpx="http://www.garmin.com/xmlschemas/TrackPointExtension/v1">
            <gpxtpx:hr>118</gpxtpx:hr>
          </gpxtpx:TrackPointExtension>
        </extensions>
      </trkpt>
      <trkpt lat="50.53606" lon="2.61166">
        <ele>35.8</ele>
        <time>2021-06-24T16:15:50Z</time>
        <extensions>
          <gpxtpx:TrackPointExtension xmlns:gpxtpx="http://www.garmin.com/xmlschemas/TrackPointExtension/v1">
            <gpxtpx:hr>119</gpxtpx:hr>
          </gpxtpx:TrackPointExtension>
        </extensions>
      </trkpt>
      <trkpt lat="50.53604" lon="2.61173">
        <ele>35.8</ele>
        <time>2021-06-24T16:15:51Z</time>
        <extensions>
          <gpxtpx:TrackPointExtension xmlns:gpxtpx="http://www.garmin.com/xmlschemas/TrackPointExtension/v1">
            <gpxtpx:hr>119</gpxtpx:hr>
          </gpxtpx:TrackPointExtension>
        </extensions>
      </trkpt>
      <trkpt lat="50.53602" lon="2.61179">
        <ele>35.8</ele>
        <time>2021-06-24T16:15:52Z</time>
        <extensions>
          <gpxtpx:TrackPointExtension xmlns:gpxtpx="http://www.garmin.com/xmlschemas/TrackPointExtension/v1">
            <gpxtpx:hr>119</gpxtpx:hr>
          </gpxtpx:TrackPointExtension>
        </extensions>
      </trkpt>
      <trkpt lat="50.536" lon="2.61186">
        <ele>35.8</ele>
        <time>2021-06-24T16:15:53Z</time>
        <extensions>
          <gpxtpx:TrackPointExtension xmlns:gpxtpx="http://www.garmin.com/xmlschemas/TrackPointExtension/v1">
            <gpxtpx:hr>119</gpxtpx:hr>
          </gpxtpx:TrackPointExtension>
        </extensions>
      </trkpt>
      <trkpt lat="50.53598" lon="2.61192">
        <ele>35.8</ele>
        <time>2021-06-24T16:15:54Z</time>
        <extensions>
          <gpxtpx:TrackPointExtension xmlns:gpxtpx="http://www.garmin.com/xmlschemas/TrackPointExtension/v1">
            <gpxtpx:hr>119</gpxtpx:hr>
          </gpxtpx:TrackPointExtension>
        </extensions>
      </trkpt>
      <trkpt lat="50.53596" lon="2.61199">
        <ele>35.8</ele>
        <time>2021-06-24T16:15:55Z</time>
        <extensions>
          <gpxtpx:TrackPointExtension xmlns:gpxtpx="http://www.garmin.com/xmlschemas/TrackPointExtension/v1">
            <gpxtpx:hr>119</gpxtpx:hr>
          </gpxtpx:TrackPointExtension>
        </extensions>
      </trkpt>
      <trkpt lat="50.53595" lon="2.61205">
        <ele>35.6</ele>
        <time>2021-06-24T16:15:56Z</time>
        <extensions>
          <gpxtpx:TrackPointExtension xmlns:gpxtpx="http://www.garmin.com/xmlschemas/TrackPointExtension/v1">
            <gpxtpx:hr>119</gpxtpx:hr>
          </gpxtpx:TrackPointExtension>
        </extensions>
      </trkpt>
      <trkpt lat="50.53594" lon="2.61213">
        <ele>35.6</ele>
        <time>2021-06-24T16:15:57Z</time>
        <extensions>
          <gpxtpx:TrackPointExtension xmlns:gpxtpx="http://www.garmin.com/xmlschemas/TrackPointExtension/v1">
            <gpxtpx:hr>118</gpxtpx:hr>
          </gpxtpx:TrackPointExtension>
        </extensions>
      </trkpt>
      <trkpt lat="50.53593" lon="2.61221">
        <ele>35.6</ele>
        <time>2021-06-24T16:15:58Z</time>
        <extensions>
          <gpxtpx:TrackPointExtension xmlns:gpxtpx="http://www.garmin.com/xmlschemas/TrackPointExtension/v1">
            <gpxtpx:hr>118</gpxtpx:hr>
          </gpxtpx:TrackPointExtension>
        </extensions>
      </trkpt>
      <trkpt lat="50.53592" lon="2.6123">
        <ele>35.6</ele>
        <time>2021-06-24T16:15:59Z</time>
        <extensions>
          <gpxtpx:TrackPointExtension xmlns:gpxtpx="http://www.garmin.com/xmlschemas/TrackPointExtension/v1">
            <gpxtpx:hr>118</gpxtpx:hr>
          </gpxtpx:TrackPointExtension>
        </extensions>
      </trkpt>
      <trkpt lat="50.53589" lon="2.61238">
        <ele>35.4</ele>
        <time>2021-06-24T16:16:00Z</time>
        <extensions>
          <gpxtpx:TrackPointExtension xmlns:gpxtpx="http://www.garmin.com/xmlschemas/TrackPointExtension/v1">
            <gpxtpx:hr>118</gpxtpx:hr>
          </gpxtpx:TrackPointExtension>
        </extensions>
      </trkpt>
      <trkpt lat="50.53588" lon="2.61245">
        <ele>35.4</ele>
        <time>2021-06-24T16:16:01Z</time>
        <extensions>
          <gpxtpx:TrackPointExtension xmlns:gpxtpx="http://www.garmin.com/xmlschemas/TrackPointExtension/v1">
            <gpxtpx:hr>118</gpxtpx:hr>
          </gpxtpx:TrackPointExtension>
        </extensions>
      </trkpt>
      <trkpt lat="50.53587" lon="2.61253">
        <ele>35.4</ele>
        <time>2021-06-24T16:16:02Z</time>
        <extensions>
          <gpxtpx:TrackPointExtension xmlns:gpxtpx="http://www.garmin.com/xmlschemas/TrackPointExtension/v1">
            <gpxtpx:hr>118</gpxtpx:hr>
          </gpxtpx:TrackPointExtension>
        </extensions>
      </trkpt>
      <trkpt lat="50.53586" lon="2.61261">
        <ele>35.4</ele>
        <time>2021-06-24T16:16:03Z</time>
        <extensions>
          <gpxtpx:TrackPointExtension xmlns:gpxtpx="http://www.garmin.com/xmlschemas/TrackPointExtension/v1">
            <gpxtpx:hr>118</gpxtpx:hr>
          </gpxtpx:TrackPointExtension>
        </extensions>
      </trkpt>
      <trkpt lat="50.53585" lon="2.61268">
        <ele>35.4</ele>
        <time>2021-06-24T16:16:04Z</time>
        <extensions>
          <gpxtpx:TrackPointExtension xmlns:gpxtpx="http://www.garmin.com/xmlschemas/TrackPointExtension/v1">
            <gpxtpx:hr>118</gpxtpx:hr>
          </gpxtpx:TrackPointExtension>
        </extensions>
      </trkpt>
      <trkpt lat="50.53583" lon="2.61276">
        <ele>35.2</ele>
        <time>2021-06-24T16:16:05Z</time>
        <extensions>
          <gpxtpx:TrackPointExtension xmlns:gpxtpx="http://www.garmin.com/xmlschemas/TrackPointExtension/v1">
            <gpxtpx:hr>118</gpxtpx:hr>
          </gpxtpx:TrackPointExtension>
        </extensions>
      </trkpt>
      <trkpt lat="50.53581" lon="2.61286">
        <ele>35.2</ele>
        <time>2021-06-24T16:16:06Z</time>
        <extensions>
          <gpxtpx:TrackPointExtension xmlns:gpxtpx="http://www.garmin.com/xmlschemas/TrackPointExtension/v1">
            <gpxtpx:hr>118</gpxtpx:hr>
          </gpxtpx:TrackPointExtension>
        </extensions>
      </trkpt>
      <trkpt lat="50.5358" lon="2.61293">
        <ele>35.2</ele>
        <time>2021-06-24T16:16:07Z</time>
        <extensions>
          <gpxtpx:TrackPointExtension xmlns:gpxtpx="http://www.garmin.com/xmlschemas/TrackPointExtension/v1">
            <gpxtpx:hr>118</gpxtpx:hr>
          </gpxtpx:TrackPointExtension>
        </extensions>
      </trkpt>
      <trkpt lat="50.53578" lon="2.61302">
        <ele>35.2</ele>
        <time>2021-06-24T16:16:08Z</time>
        <extensions>
          <gpxtpx:TrackPointExtension xmlns:gpxtpx="http://www.garmin.com/xmlschemas/TrackPointExtension/v1">
            <gpxtpx:hr>118</gpxtpx:hr>
          </gpxtpx:TrackPointExtension>
        </extensions>
      </trkpt>
      <trkpt lat="50.53576" lon="2.6131">
        <ele>35.2</ele>
        <time>2021-06-24T16:16:09Z</time>
        <extensions>
          <gpxtpx:TrackPointExtension xmlns:gpxtpx="http://www.garmin.com/xmlschemas/TrackPointExtension/v1">
            <gpxtpx:hr>119</gpxtpx:hr>
          </gpxtpx:TrackPointExtension>
        </extensions>
      </trkpt>
      <trkpt lat="50.53574" lon="2.61317">
        <ele>35</ele>
        <time>2021-06-24T16:16:10Z</time>
        <extensions>
          <gpxtpx:TrackPointExtension xmlns:gpxtpx="http://www.garmin.com/xmlschemas/TrackPointExtension/v1">
            <gpxtpx:hr>120</gpxtpx:hr>
          </gpxtpx:TrackPointExtension>
        </extensions>
      </trkpt>
      <trkpt lat="50.53572" lon="2.61322">
        <ele>35</ele>
        <time>2021-06-24T16:16:11Z</time>
        <extensions>
          <gpxtpx:TrackPointExtension xmlns:gpxtpx="http://www.garmin.com/xmlschemas/TrackPointExtension/v1">
            <gpxtpx:hr>120</gpxtpx:hr>
          </gpxtpx:TrackPointExtension>
        </extensions>
      </trkpt>
      <trkpt lat="50.53569" lon="2.61327">
        <ele>35</ele>
        <time>2021-06-24T16:16:12Z</time>
        <extensions>
          <gpxtpx:TrackPointExtension xmlns:gpxtpx="http://www.garmin.com/xmlschemas/TrackPointExtension/v1">
            <gpxtpx:hr>121</gpxtpx:hr>
          </gpxtpx:TrackPointExtension>
        </extensions>
      </trkpt>
      <trkpt lat="50.53566" lon="2.61332">
        <ele>35</ele>
        <time>2021-06-24T16:16:13Z</time>
        <extensions>
          <gpxtpx:TrackPointExtension xmlns:gpxtpx="http://www.garmin.com/xmlschemas/TrackPointExtension/v1">
            <gpxtpx:hr>121</gpxtpx:hr>
          </gpxtpx:TrackPointExtension>
        </extensions>
      </trkpt>
      <trkpt lat="50.53563" lon="2.61339">
        <ele>34.8</ele>
        <time>2021-06-24T16:16:14Z</time>
        <extensions>
          <gpxtpx:TrackPointExtension xmlns:gpxtpx="http://www.garmin.com/xmlschemas/TrackPointExtension/v1">
            <gpxtpx:hr>122</gpxtpx:hr>
          </gpxtpx:TrackPointExtension>
        </extensions>
      </trkpt>
      <trkpt lat="50.5356" lon="2.61346">
        <ele>34.8</ele>
        <time>2021-06-24T16:16:15Z</time>
        <extensions>
          <gpxtpx:TrackPointExtension xmlns:gpxtpx="http://www.garmin.com/xmlschemas/TrackPointExtension/v1">
            <gpxtpx:hr>122</gpxtpx:hr>
          </gpxtpx:TrackPointExtension>
        </extensions>
      </trkpt>
      <trkpt lat="50.53557" lon="2.61353">
        <ele>34.8</ele>
        <time>2021-06-24T16:16:16Z</time>
        <extensions>
          <gpxtpx:TrackPointExtension xmlns:gpxtpx="http://www.garmin.com/xmlschemas/TrackPointExtension/v1">
            <gpxtpx:hr>122</gpxtpx:hr>
          </gpxtpx:TrackPointExtension>
        </extensions>
      </trkpt>
      <trkpt lat="50.53554" lon="2.61359">
        <ele>34.8</ele>
        <time>2021-06-24T16:16:17Z</time>
        <extensions>
          <gpxtpx:TrackPointExtension xmlns:gpxtpx="http://www.garmin.com/xmlschemas/TrackPointExtension/v1">
            <gpxtpx:hr>122</gpxtpx:hr>
          </gpxtpx:TrackPointExtension>
        </extensions>
      </trkpt>
      <trkpt lat="50.53551" lon="2.61364">
        <ele>34.8</ele>
        <time>2021-06-24T16:16:18Z</time>
        <extensions>
          <gpxtpx:TrackPointExtension xmlns:gpxtpx="http://www.garmin.com/xmlschemas/TrackPointExtension/v1">
            <gpxtpx:hr>122</gpxtpx:hr>
          </gpxtpx:TrackPointExtension>
        </extensions>
      </trkpt>
      <trkpt lat="50.53547" lon="2.6137">
        <ele>34.8</ele>
        <time>2021-06-24T16:16:19Z</time>
        <extensions>
          <gpxtpx:TrackPointExtension xmlns:gpxtpx="http://www.garmin.com/xmlschemas/TrackPointExtension/v1">
            <gpxtpx:hr>122</gpxtpx:hr>
          </gpxtpx:TrackPointExtension>
        </extensions>
      </trkpt>
      <trkpt lat="50.53544" lon="2.61377">
        <ele>34.8</ele>
        <time>2021-06-24T16:16:20Z</time>
        <extensions>
          <gpxtpx:TrackPointExtension xmlns:gpxtpx="http://www.garmin.com/xmlschemas/TrackPointExtension/v1">
            <gpxtpx:hr>123</gpxtpx:hr>
          </gpxtpx:TrackPointExtension>
        </extensions>
      </trkpt>
      <trkpt lat="50.53541" lon="2.61382">
        <ele>34.8</ele>
        <time>2021-06-24T16:16:21Z</time>
        <extensions>
          <gpxtpx:TrackPointExtension xmlns:gpxtpx="http://www.garmin.com/xmlschemas/TrackPointExtension/v1">
            <gpxtpx:hr>123</gpxtpx:hr>
          </gpxtpx:TrackPointExtension>
        </extensions>
      </trkpt>
      <trkpt lat="50.53537" lon="2.61388">
        <ele>34.8</ele>
        <time>2021-06-24T16:16:22Z</time>
        <extensions>
          <gpxtpx:TrackPointExtension xmlns:gpxtpx="http://www.garmin.com/xmlschemas/TrackPointExtension/v1">
            <gpxtpx:hr>123</gpxtpx:hr>
          </gpxtpx:TrackPointExtension>
        </extensions>
      </trkpt>
      <trkpt lat="50.53533" lon="2.61394">
        <ele>34.8</ele>
        <time>2021-06-24T16:16:23Z</time>
        <extensions>
          <gpxtpx:TrackPointExtension xmlns:gpxtpx="http://www.garmin.com/xmlschemas/TrackPointExtension/v1">
            <gpxtpx:hr>123</gpxtpx:hr>
          </gpxtpx:TrackPointExtension>
        </extensions>
      </trkpt>
      <trkpt lat="50.5353" lon="2.614">
        <ele>34.8</ele>
        <time>2021-06-24T16:16:24Z</time>
        <extensions>
          <gpxtpx:TrackPointExtension xmlns:gpxtpx="http://www.garmin.com/xmlschemas/TrackPointExtension/v1">
            <gpxtpx:hr>124</gpxtpx:hr>
          </gpxtpx:TrackPointExtension>
        </extensions>
      </trkpt>
      <trkpt lat="50.53527" lon="2.61406">
        <ele>34.8</ele>
        <time>2021-06-24T16:16:25Z</time>
        <extensions>
          <gpxtpx:TrackPointExtension xmlns:gpxtpx="http://www.garmin.com/xmlschemas/TrackPointExtension/v1">
            <gpxtpx:hr>124</gpxtpx:hr>
          </gpxtpx:TrackPointExtension>
        </extensions>
      </trkpt>
      <trkpt lat="50.53525" lon="2.61411">
        <ele>34.8</ele>
        <time>2021-06-24T16:16:26Z</time>
        <extensions>
          <gpxtpx:TrackPointExtension xmlns:gpxtpx="http://www.garmin.com/xmlschemas/TrackPointExtension/v1">
            <gpxtpx:hr>124</gpxtpx:hr>
          </gpxtpx:TrackPointExtension>
        </extensions>
      </trkpt>
      <trkpt lat="50.53523" lon="2.61418">
        <ele>34.8</ele>
        <time>2021-06-24T16:16:27Z</time>
        <extensions>
          <gpxtpx:TrackPointExtension xmlns:gpxtpx="http://www.garmin.com/xmlschemas/TrackPointExtension/v1">
            <gpxtpx:hr>124</gpxtpx:hr>
          </gpxtpx:TrackPointExtension>
        </extensions>
      </trkpt>
      <trkpt lat="50.53521" lon="2.61425">
        <ele>34.8</ele>
        <time>2021-06-24T16:16:28Z</time>
        <extensions>
          <gpxtpx:TrackPointExtension xmlns:gpxtpx="http://www.garmin.com/xmlschemas/TrackPointExtension/v1">
            <gpxtpx:hr>124</gpxtpx:hr>
          </gpxtpx:TrackPointExtension>
        </extensions>
      </trkpt>
      <trkpt lat="50.5352" lon="2.61431">
        <ele>34.6</ele>
        <time>2021-06-24T16:16:29Z</time>
        <extensions>
          <gpxtpx:TrackPointExtension xmlns:gpxtpx="http://www.garmin.com/xmlschemas/TrackPointExtension/v1">
            <gpxtpx:hr>124</gpxtpx:hr>
          </gpxtpx:TrackPointExtension>
        </extensions>
      </trkpt>
      <trkpt lat="50.53519" lon="2.61437">
        <ele>34.6</ele>
        <time>2021-06-24T16:16:30Z</time>
        <extensions>
          <gpxtpx:TrackPointExtension xmlns:gpxtpx="http://www.garmin.com/xmlschemas/TrackPointExtension/v1">
            <gpxtpx:hr>123</gpxtpx:hr>
          </gpxtpx:TrackPointExtension>
        </extensions>
      </trkpt>
      <trkpt lat="50.53517" lon="2.61444">
        <ele>34.6</ele>
        <time>2021-06-24T16:16:31Z</time>
        <extensions>
          <gpxtpx:TrackPointExtension xmlns:gpxtpx="http://www.garmin.com/xmlschemas/TrackPointExtension/v1">
            <gpxtpx:hr>122</gpxtpx:hr>
          </gpxtpx:TrackPointExtension>
        </extensions>
      </trkpt>
      <trkpt lat="50.53515" lon="2.61448">
        <ele>34.4</ele>
        <time>2021-06-24T16:16:32Z</time>
        <extensions>
          <gpxtpx:TrackPointExtension xmlns:gpxtpx="http://www.garmin.com/xmlschemas/TrackPointExtension/v1">
            <gpxtpx:hr>122</gpxtpx:hr>
          </gpxtpx:TrackPointExtension>
        </extensions>
      </trkpt>
      <trkpt lat="50.53515" lon="2.61452">
        <ele>34.4</ele>
        <time>2021-06-24T16:16:33Z</time>
        <extensions>
          <gpxtpx:TrackPointExtension xmlns:gpxtpx="http://www.garmin.com/xmlschemas/TrackPointExtension/v1">
            <gpxtpx:hr>121</gpxtpx:hr>
          </gpxtpx:TrackPointExtension>
        </extensions>
      </trkpt>
      <trkpt lat="50.53513" lon="2.61456">
        <ele>34.4</ele>
        <time>2021-06-24T16:16:34Z</time>
        <extensions>
          <gpxtpx:TrackPointExtension xmlns:gpxtpx="http://www.garmin.com/xmlschemas/TrackPointExtension/v1">
            <gpxtpx:hr>121</gpxtpx:hr>
          </gpxtpx:TrackPointExtension>
        </extensions>
      </trkpt>
      <trkpt lat="50.53512" lon="2.61461">
        <ele>34.4</ele>
        <time>2021-06-24T16:16:35Z</time>
        <extensions>
          <gpxtpx:TrackPointExtension xmlns:gpxtpx="http://www.garmin.com/xmlschemas/TrackPointExtension/v1">
            <gpxtpx:hr>120</gpxtpx:hr>
          </gpxtpx:TrackPointExtension>
        </extensions>
      </trkpt>
      <trkpt lat="50.53511" lon="2.61465">
        <ele>34.2</ele>
        <time>2021-06-24T16:16:36Z</time>
        <extensions>
          <gpxtpx:TrackPointExtension xmlns:gpxtpx="http://www.garmin.com/xmlschemas/TrackPointExtension/v1">
            <gpxtpx:hr>120</gpxtpx:hr>
          </gpxtpx:TrackPointExtension>
        </extensions>
      </trkpt>
      <trkpt lat="50.53511" lon="2.6147">
        <ele>34.2</ele>
        <time>2021-06-24T16:16:37Z</time>
        <extensions>
          <gpxtpx:TrackPointExtension xmlns:gpxtpx="http://www.garmin.com/xmlschemas/TrackPointExtension/v1">
            <gpxtpx:hr>120</gpxtpx:hr>
          </gpxtpx:TrackPointExtension>
        </extensions>
      </trkpt>
      <trkpt lat="50.53511" lon="2.61475">
        <ele>34</ele>
        <time>2021-06-24T16:16:38Z</time>
        <extensions>
          <gpxtpx:TrackPointExtension xmlns:gpxtpx="http://www.garmin.com/xmlschemas/TrackPointExtension/v1">
            <gpxtpx:hr>119</gpxtpx:hr>
          </gpxtpx:TrackPointExtension>
        </extensions>
      </trkpt>
      <trkpt lat="50.53511" lon="2.61478">
        <ele>34</ele>
        <time>2021-06-24T16:16:39Z</time>
        <extensions>
          <gpxtpx:TrackPointExtension xmlns:gpxtpx="http://www.garmin.com/xmlschemas/TrackPointExtension/v1">
            <gpxtpx:hr>118</gpxtpx:hr>
          </gpxtpx:TrackPointExtension>
        </extensions>
      </trkpt>
      <trkpt lat="50.53513" lon="2.61484">
        <ele>34</ele>
        <time>2021-06-24T16:16:40Z</time>
        <extensions>
          <gpxtpx:TrackPointExtension xmlns:gpxtpx="http://www.garmin.com/xmlschemas/TrackPointExtension/v1">
            <gpxtpx:hr>118</gpxtpx:hr>
          </gpxtpx:TrackPointExtension>
        </extensions>
      </trkpt>
      <trkpt lat="50.53513" lon="2.61488">
        <ele>33.8</ele>
        <time>2021-06-24T16:16:41Z</time>
        <extensions>
          <gpxtpx:TrackPointExtension xmlns:gpxtpx="http://www.garmin.com/xmlschemas/TrackPointExtension/v1">
            <gpxtpx:hr>117</gpxtpx:hr>
          </gpxtpx:TrackPointExtension>
        </extensions>
      </trkpt>
      <trkpt lat="50.53513" lon="2.61493">
        <ele>33.8</ele>
        <time>2021-06-24T16:16:42Z</time>
        <extensions>
          <gpxtpx:TrackPointExtension xmlns:gpxtpx="http://www.garmin.com/xmlschemas/TrackPointExtension/v1">
            <gpxtpx:hr>117</gpxtpx:hr>
          </gpxtpx:TrackPointExtension>
        </extensions>
      </trkpt>
      <trkpt lat="50.53513" lon="2.61497">
        <ele>33.6</ele>
        <time>2021-06-24T16:16:43Z</time>
        <extensions>
          <gpxtpx:TrackPointExtension xmlns:gpxtpx="http://www.garmin.com/xmlschemas/TrackPointExtension/v1">
            <gpxtpx:hr>116</gpxtpx:hr>
          </gpxtpx:TrackPointExtension>
        </extensions>
      </trkpt>
      <trkpt lat="50.53512" lon="2.61502">
        <ele>33.6</ele>
        <time>2021-06-24T16:16:44Z</time>
        <extensions>
          <gpxtpx:TrackPointExtension xmlns:gpxtpx="http://www.garmin.com/xmlschemas/TrackPointExtension/v1">
            <gpxtpx:hr>116</gpxtpx:hr>
          </gpxtpx:TrackPointExtension>
        </extensions>
      </trkpt>
      <trkpt lat="50.53511" lon="2.61507">
        <ele>33.4</ele>
        <time>2021-06-24T16:16:45Z</time>
        <extensions>
          <gpxtpx:TrackPointExtension xmlns:gpxtpx="http://www.garmin.com/xmlschemas/TrackPointExtension/v1">
            <gpxtpx:hr>116</gpxtpx:hr>
          </gpxtpx:TrackPointExtension>
        </extensions>
      </trkpt>
      <trkpt lat="50.5351" lon="2.61513">
        <ele>33.4</ele>
        <time>2021-06-24T16:16:46Z</time>
        <extensions>
          <gpxtpx:TrackPointExtension xmlns:gpxtpx="http://www.garmin.com/xmlschemas/TrackPointExtension/v1">
            <gpxtpx:hr>115</gpxtpx:hr>
          </gpxtpx:TrackPointExtension>
        </extensions>
      </trkpt>
      <trkpt lat="50.53509" lon="2.61518">
        <ele>33.4</ele>
        <time>2021-06-24T16:16:47Z</time>
        <extensions>
          <gpxtpx:TrackPointExtension xmlns:gpxtpx="http://www.garmin.com/xmlschemas/TrackPointExtension/v1">
            <gpxtpx:hr>115</gpxtpx:hr>
          </gpxtpx:TrackPointExtension>
        </extensions>
      </trkpt>
      <trkpt lat="50.53509" lon="2.61525">
        <ele>33.2</ele>
        <time>2021-06-24T16:16:48Z</time>
        <extensions>
          <gpxtpx:TrackPointExtension xmlns:gpxtpx="http://www.garmin.com/xmlschemas/TrackPointExtension/v1">
            <gpxtpx:hr>114</gpxtpx:hr>
          </gpxtpx:TrackPointExtension>
        </extensions>
      </trkpt>
      <trkpt lat="50.53509" lon="2.61532">
        <ele>33.2</ele>
        <time>2021-06-24T16:16:49Z</time>
        <extensions>
          <gpxtpx:TrackPointExtension xmlns:gpxtpx="http://www.garmin.com/xmlschemas/TrackPointExtension/v1">
            <gpxtpx:hr>114</gpxtpx:hr>
          </gpxtpx:TrackPointExtension>
        </extensions>
      </trkpt>
      <trkpt lat="50.53511" lon="2.61539">
        <ele>33.2</ele>
        <time>2021-06-24T16:16:50Z</time>
        <extensions>
          <gpxtpx:TrackPointExtension xmlns:gpxtpx="http://www.garmin.com/xmlschemas/TrackPointExtension/v1">
            <gpxtpx:hr>113</gpxtpx:hr>
          </gpxtpx:TrackPointExtension>
        </extensions>
      </trkpt>
      <trkpt lat="50.53511" lon="2.61547">
        <ele>33</ele>
        <time>2021-06-24T16:16:51Z</time>
        <extensions>
          <gpxtpx:TrackPointExtension xmlns:gpxtpx="http://www.garmin.com/xmlschemas/TrackPointExtension/v1">
            <gpxtpx:hr>112</gpxtpx:hr>
          </gpxtpx:TrackPointExtension>
        </extensions>
      </trkpt>
      <trkpt lat="50.53511" lon="2.61554">
        <ele>33</ele>
        <time>2021-06-24T16:16:52Z</time>
        <extensions>
          <gpxtpx:TrackPointExtension xmlns:gpxtpx="http://www.garmin.com/xmlschemas/TrackPointExtension/v1">
            <gpxtpx:hr>112</gpxtpx:hr>
          </gpxtpx:TrackPointExtension>
        </extensions>
      </trkpt>
      <trkpt lat="50.53511" lon="2.61561">
        <ele>33</ele>
        <time>2021-06-24T16:16:53Z</time>
        <extensions>
          <gpxtpx:TrackPointExtension xmlns:gpxtpx="http://www.garmin.com/xmlschemas/TrackPointExtension/v1">
            <gpxtpx:hr>112</gpxtpx:hr>
          </gpxtpx:TrackPointExtension>
        </extensions>
      </trkpt>
      <trkpt lat="50.53511" lon="2.61567">
        <ele>32.8</ele>
        <time>2021-06-24T16:16:54Z</time>
        <extensions>
          <gpxtpx:TrackPointExtension xmlns:gpxtpx="http://www.garmin.com/xmlschemas/TrackPointExtension/v1">
            <gpxtpx:hr>112</gpxtpx:hr>
          </gpxtpx:TrackPointExtension>
        </extensions>
      </trkpt>
      <trkpt lat="50.5351" lon="2.61574">
        <ele>32.8</ele>
        <time>2021-06-24T16:16:55Z</time>
        <extensions>
          <gpxtpx:TrackPointExtension xmlns:gpxtpx="http://www.garmin.com/xmlschemas/TrackPointExtension/v1">
            <gpxtpx:hr>112</gpxtpx:hr>
          </gpxtpx:TrackPointExtension>
        </extensions>
      </trkpt>
      <trkpt lat="50.53509" lon="2.6158">
        <ele>32.6</ele>
        <time>2021-06-24T16:16:56Z</time>
        <extensions>
          <gpxtpx:TrackPointExtension xmlns:gpxtpx="http://www.garmin.com/xmlschemas/TrackPointExtension/v1">
            <gpxtpx:hr>112</gpxtpx:hr>
          </gpxtpx:TrackPointExtension>
        </extensions>
      </trkpt>
      <trkpt lat="50.53509" lon="2.61589">
        <ele>32.6</ele>
        <time>2021-06-24T16:16:57Z</time>
        <extensions>
          <gpxtpx:TrackPointExtension xmlns:gpxtpx="http://www.garmin.com/xmlschemas/TrackPointExtension/v1">
            <gpxtpx:hr>113</gpxtpx:hr>
          </gpxtpx:TrackPointExtension>
        </extensions>
      </trkpt>
      <trkpt lat="50.53509" lon="2.61596">
        <ele>32.4</ele>
        <time>2021-06-24T16:16:58Z</time>
        <extensions>
          <gpxtpx:TrackPointExtension xmlns:gpxtpx="http://www.garmin.com/xmlschemas/TrackPointExtension/v1">
            <gpxtpx:hr>113</gpxtpx:hr>
          </gpxtpx:TrackPointExtension>
        </extensions>
      </trkpt>
      <trkpt lat="50.53508" lon="2.61603">
        <ele>32.4</ele>
        <time>2021-06-24T16:16:59Z</time>
        <extensions>
          <gpxtpx:TrackPointExtension xmlns:gpxtpx="http://www.garmin.com/xmlschemas/TrackPointExtension/v1">
            <gpxtpx:hr>113</gpxtpx:hr>
          </gpxtpx:TrackPointExtension>
        </extensions>
      </trkpt>
      <trkpt lat="50.53508" lon="2.61609">
        <ele>32.2</ele>
        <time>2021-06-24T16:17:00Z</time>
        <extensions>
          <gpxtpx:TrackPointExtension xmlns:gpxtpx="http://www.garmin.com/xmlschemas/TrackPointExtension/v1">
            <gpxtpx:hr>113</gpxtpx:hr>
          </gpxtpx:TrackPointExtension>
        </extensions>
      </trkpt>
      <trkpt lat="50.53509" lon="2.61617">
        <ele>32.2</ele>
        <time>2021-06-24T16:17:01Z</time>
        <extensions>
          <gpxtpx:TrackPointExtension xmlns:gpxtpx="http://www.garmin.com/xmlschemas/TrackPointExtension/v1">
            <gpxtpx:hr>112</gpxtpx:hr>
          </gpxtpx:TrackPointExtension>
        </extensions>
      </trkpt>
      <trkpt lat="50.53509" lon="2.61624">
        <ele>32</ele>
        <time>2021-06-24T16:17:02Z</time>
        <extensions>
          <gpxtpx:TrackPointExtension xmlns:gpxtpx="http://www.garmin.com/xmlschemas/TrackPointExtension/v1">
            <gpxtpx:hr>112</gpxtpx:hr>
          </gpxtpx:TrackPointExtension>
        </extensions>
      </trkpt>
      <trkpt lat="50.53509" lon="2.61631">
        <ele>32</ele>
        <time>2021-06-24T16:17:03Z</time>
        <extensions>
          <gpxtpx:TrackPointExtension xmlns:gpxtpx="http://www.garmin.com/xmlschemas/TrackPointExtension/v1">
            <gpxtpx:hr>112</gpxtpx:hr>
          </gpxtpx:TrackPointExtension>
        </extensions>
      </trkpt>
      <trkpt lat="50.53508" lon="2.61639">
        <ele>31.8</ele>
        <time>2021-06-24T16:17:04Z</time>
        <extensions>
          <gpxtpx:TrackPointExtension xmlns:gpxtpx="http://www.garmin.com/xmlschemas/TrackPointExtension/v1">
            <gpxtpx:hr>112</gpxtpx:hr>
          </gpxtpx:TrackPointExtension>
        </extensions>
      </trkpt>
      <trkpt lat="50.53508" lon="2.61648">
        <ele>31.8</ele>
        <time>2021-06-24T16:17:05Z</time>
        <extensions>
          <gpxtpx:TrackPointExtension xmlns:gpxtpx="http://www.garmin.com/xmlschemas/TrackPointExtension/v1">
            <gpxtpx:hr>112</gpxtpx:hr>
          </gpxtpx:TrackPointExtension>
        </extensions>
      </trkpt>
      <trkpt lat="50.53508" lon="2.61656">
        <ele>31.6</ele>
        <time>2021-06-24T16:17:06Z</time>
        <extensions>
          <gpxtpx:TrackPointExtension xmlns:gpxtpx="http://www.garmin.com/xmlschemas/TrackPointExtension/v1">
            <gpxtpx:hr>112</gpxtpx:hr>
          </gpxtpx:TrackPointExtension>
        </extensions>
      </trkpt>
      <trkpt lat="50.53509" lon="2.61665">
        <ele>31.6</ele>
        <time>2021-06-24T16:17:07Z</time>
        <extensions>
          <gpxtpx:TrackPointExtension xmlns:gpxtpx="http://www.garmin.com/xmlschemas/TrackPointExtension/v1">
            <gpxtpx:hr>112</gpxtpx:hr>
          </gpxtpx:TrackPointExtension>
        </extensions>
      </trkpt>
      <trkpt lat="50.53509" lon="2.61673">
        <ele>31.4</ele>
        <time>2021-06-24T16:17:08Z</time>
        <extensions>
          <gpxtpx:TrackPointExtension xmlns:gpxtpx="http://www.garmin.com/xmlschemas/TrackPointExtension/v1">
            <gpxtpx:hr>113</gpxtpx:hr>
          </gpxtpx:TrackPointExtension>
        </extensions>
      </trkpt>
      <trkpt lat="50.53509" lon="2.61681">
        <ele>31.4</ele>
        <time>2021-06-24T16:17:09Z</time>
        <extensions>
          <gpxtpx:TrackPointExtension xmlns:gpxtpx="http://www.garmin.com/xmlschemas/TrackPointExtension/v1">
            <gpxtpx:hr>113</gpxtpx:hr>
          </gpxtpx:TrackPointExtension>
        </extensions>
      </trkpt>
      <trkpt lat="50.53508" lon="2.6169">
        <ele>31.2</ele>
        <time>2021-06-24T16:17:10Z</time>
        <extensions>
          <gpxtpx:TrackPointExtension xmlns:gpxtpx="http://www.garmin.com/xmlschemas/TrackPointExtension/v1">
            <gpxtpx:hr>114</gpxtpx:hr>
          </gpxtpx:TrackPointExtension>
        </extensions>
      </trkpt>
      <trkpt lat="50.53508" lon="2.61698">
        <ele>31.2</ele>
        <time>2021-06-24T16:17:11Z</time>
        <extensions>
          <gpxtpx:TrackPointExtension xmlns:gpxtpx="http://www.garmin.com/xmlschemas/TrackPointExtension/v1">
            <gpxtpx:hr>114</gpxtpx:hr>
          </gpxtpx:TrackPointExtension>
        </extensions>
      </trkpt>
      <trkpt lat="50.53508" lon="2.61707">
        <ele>31</ele>
        <time>2021-06-24T16:17:12Z</time>
        <extensions>
          <gpxtpx:TrackPointExtension xmlns:gpxtpx="http://www.garmin.com/xmlschemas/TrackPointExtension/v1">
            <gpxtpx:hr>114</gpxtpx:hr>
          </gpxtpx:TrackPointExtension>
        </extensions>
      </trkpt>
      <trkpt lat="50.53508" lon="2.61715">
        <ele>31</ele>
        <time>2021-06-24T16:17:13Z</time>
        <extensions>
          <gpxtpx:TrackPointExtension xmlns:gpxtpx="http://www.garmin.com/xmlschemas/TrackPointExtension/v1">
            <gpxtpx:hr>114</gpxtpx:hr>
          </gpxtpx:TrackPointExtension>
        </extensions>
      </trkpt>
      <trkpt lat="50.53508" lon="2.61724">
        <ele>30.8</ele>
        <time>2021-06-24T16:17:14Z</time>
        <extensions>
          <gpxtpx:TrackPointExtension xmlns:gpxtpx="http://www.garmin.com/xmlschemas/TrackPointExtension/v1">
            <gpxtpx:hr>114</gpxtpx:hr>
          </gpxtpx:TrackPointExtension>
        </extensions>
      </trkpt>
      <trkpt lat="50.53507" lon="2.61731">
        <ele>30.8</ele>
        <time>2021-06-24T16:17:15Z</time>
        <extensions>
          <gpxtpx:TrackPointExtension xmlns:gpxtpx="http://www.garmin.com/xmlschemas/TrackPointExtension/v1">
            <gpxtpx:hr>114</gpxtpx:hr>
          </gpxtpx:TrackPointExtension>
        </extensions>
      </trkpt>
      <trkpt lat="50.53507" lon="2.61737">
        <ele>30.6</ele>
        <time>2021-06-24T16:17:16Z</time>
        <extensions>
          <gpxtpx:TrackPointExtension xmlns:gpxtpx="http://www.garmin.com/xmlschemas/TrackPointExtension/v1">
            <gpxtpx:hr>114</gpxtpx:hr>
          </gpxtpx:TrackPointExtension>
        </extensions>
      </trkpt>
      <trkpt lat="50.53508" lon="2.61745">
        <ele>30.6</ele>
        <time>2021-06-24T16:17:17Z</time>
        <extensions>
          <gpxtpx:TrackPointExtension xmlns:gpxtpx="http://www.garmin.com/xmlschemas/TrackPointExtension/v1">
            <gpxtpx:hr>114</gpxtpx:hr>
          </gpxtpx:TrackPointExtension>
        </extensions>
      </trkpt>
      <trkpt lat="50.53508" lon="2.61753">
        <ele>30.6</ele>
        <time>2021-06-24T16:17:18Z</time>
        <extensions>
          <gpxtpx:TrackPointExtension xmlns:gpxtpx="http://www.garmin.com/xmlschemas/TrackPointExtension/v1">
            <gpxtpx:hr>114</gpxtpx:hr>
          </gpxtpx:TrackPointExtension>
        </extensions>
      </trkpt>
      <trkpt lat="50.53509" lon="2.6176">
        <ele>30.4</ele>
        <time>2021-06-24T16:17:19Z</time>
        <extensions>
          <gpxtpx:TrackPointExtension xmlns:gpxtpx="http://www.garmin.com/xmlschemas/TrackPointExtension/v1">
            <gpxtpx:hr>114</gpxtpx:hr>
          </gpxtpx:TrackPointExtension>
        </extensions>
      </trkpt>
      <trkpt lat="50.5351" lon="2.61769">
        <ele>30.4</ele>
        <time>2021-06-24T16:17:20Z</time>
        <extensions>
          <gpxtpx:TrackPointExtension xmlns:gpxtpx="http://www.garmin.com/xmlschemas/TrackPointExtension/v1">
            <gpxtpx:hr>114</gpxtpx:hr>
          </gpxtpx:TrackPointExtension>
        </extensions>
      </trkpt>
      <trkpt lat="50.53511" lon="2.61777">
        <ele>30.4</ele>
        <time>2021-06-24T16:17:21Z</time>
        <extensions>
          <gpxtpx:TrackPointExtension xmlns:gpxtpx="http://www.garmin.com/xmlschemas/TrackPointExtension/v1">
            <gpxtpx:hr>115</gpxtpx:hr>
          </gpxtpx:TrackPointExtension>
        </extensions>
      </trkpt>
      <trkpt lat="50.53511" lon="2.61785">
        <ele>30.2</ele>
        <time>2021-06-24T16:17:22Z</time>
        <extensions>
          <gpxtpx:TrackPointExtension xmlns:gpxtpx="http://www.garmin.com/xmlschemas/TrackPointExtension/v1">
            <gpxtpx:hr>114</gpxtpx:hr>
          </gpxtpx:TrackPointExtension>
        </extensions>
      </trkpt>
      <trkpt lat="50.53512" lon="2.61793">
        <ele>30.2</ele>
        <time>2021-06-24T16:17:23Z</time>
        <extensions>
          <gpxtpx:TrackPointExtension xmlns:gpxtpx="http://www.garmin.com/xmlschemas/TrackPointExtension/v1">
            <gpxtpx:hr>114</gpxtpx:hr>
          </gpxtpx:TrackPointExtension>
        </extensions>
      </trkpt>
      <trkpt lat="50.53513" lon="2.61802">
        <ele>30.2</ele>
        <time>2021-06-24T16:17:24Z</time>
        <extensions>
          <gpxtpx:TrackPointExtension xmlns:gpxtpx="http://www.garmin.com/xmlschemas/TrackPointExtension/v1">
            <gpxtpx:hr>114</gpxtpx:hr>
          </gpxtpx:TrackPointExtension>
        </extensions>
      </trkpt>
      <trkpt lat="50.53515" lon="2.61811">
        <ele>30</ele>
        <time>2021-06-24T16:17:25Z</time>
        <extensions>
          <gpxtpx:TrackPointExtension xmlns:gpxtpx="http://www.garmin.com/xmlschemas/TrackPointExtension/v1">
            <gpxtpx:hr>114</gpxtpx:hr>
          </gpxtpx:TrackPointExtension>
        </extensions>
      </trkpt>
      <trkpt lat="50.53516" lon="2.6182">
        <ele>30</ele>
        <time>2021-06-24T16:17:26Z</time>
        <extensions>
          <gpxtpx:TrackPointExtension xmlns:gpxtpx="http://www.garmin.com/xmlschemas/TrackPointExtension/v1">
            <gpxtpx:hr>113</gpxtpx:hr>
          </gpxtpx:TrackPointExtension>
        </extensions>
      </trkpt>
      <trkpt lat="50.53517" lon="2.6183">
        <ele>30</ele>
        <time>2021-06-24T16:17:27Z</time>
        <extensions>
          <gpxtpx:TrackPointExtension xmlns:gpxtpx="http://www.garmin.com/xmlschemas/TrackPointExtension/v1">
            <gpxtpx:hr>114</gpxtpx:hr>
          </gpxtpx:TrackPointExtension>
        </extensions>
      </trkpt>
      <trkpt lat="50.53519" lon="2.61839">
        <ele>30</ele>
        <time>2021-06-24T16:17:28Z</time>
        <extensions>
          <gpxtpx:TrackPointExtension xmlns:gpxtpx="http://www.garmin.com/xmlschemas/TrackPointExtension/v1">
            <gpxtpx:hr>114</gpxtpx:hr>
          </gpxtpx:TrackPointExtension>
        </extensions>
      </trkpt>
      <trkpt lat="50.5352" lon="2.61848">
        <ele>30</ele>
        <time>2021-06-24T16:17:29Z</time>
        <extensions>
          <gpxtpx:TrackPointExtension xmlns:gpxtpx="http://www.garmin.com/xmlschemas/TrackPointExtension/v1">
            <gpxtpx:hr>114</gpxtpx:hr>
          </gpxtpx:TrackPointExtension>
        </extensions>
      </trkpt>
      <trkpt lat="50.53522" lon="2.61856">
        <ele>30</ele>
        <time>2021-06-24T16:17:30Z</time>
        <extensions>
          <gpxtpx:TrackPointExtension xmlns:gpxtpx="http://www.garmin.com/xmlschemas/TrackPointExtension/v1">
            <gpxtpx:hr>115</gpxtpx:hr>
          </gpxtpx:TrackPointExtension>
        </extensions>
      </trkpt>
      <trkpt lat="50.53523" lon="2.61864">
        <ele>29.8</ele>
        <time>2021-06-24T16:17:31Z</time>
        <extensions>
          <gpxtpx:TrackPointExtension xmlns:gpxtpx="http://www.garmin.com/xmlschemas/TrackPointExtension/v1">
            <gpxtpx:hr>115</gpxtpx:hr>
          </gpxtpx:TrackPointExtension>
        </extensions>
      </trkpt>
      <trkpt lat="50.53524" lon="2.61871">
        <ele>29.8</ele>
        <time>2021-06-24T16:17:32Z</time>
        <extensions>
          <gpxtpx:TrackPointExtension xmlns:gpxtpx="http://www.garmin.com/xmlschemas/TrackPointExtension/v1">
            <gpxtpx:hr>115</gpxtpx:hr>
          </gpxtpx:TrackPointExtension>
        </extensions>
      </trkpt>
      <trkpt lat="50.53525" lon="2.61877">
        <ele>29.8</ele>
        <time>2021-06-24T16:17:33Z</time>
        <extensions>
          <gpxtpx:TrackPointExtension xmlns:gpxtpx="http://www.garmin.com/xmlschemas/TrackPointExtension/v1">
            <gpxtpx:hr>115</gpxtpx:hr>
          </gpxtpx:TrackPointExtension>
        </extensions>
      </trkpt>
      <trkpt lat="50.53525" lon="2.61882">
        <ele>29.8</ele>
        <time>2021-06-24T16:17:34Z</time>
        <extensions>
          <gpxtpx:TrackPointExtension xmlns:gpxtpx="http://www.garmin.com/xmlschemas/TrackPointExtension/v1">
            <gpxtpx:hr>115</gpxtpx:hr>
          </gpxtpx:TrackPointExtension>
        </extensions>
      </trkpt>
      <trkpt lat="50.53525" lon="2.61888">
        <ele>29.4</ele>
        <time>2021-06-24T16:17:42Z</time>
        <extensions>
          <gpxtpx:TrackPointExtension xmlns:gpxtpx="http://www.garmin.com/xmlschemas/TrackPointExtension/v1">
            <gpxtpx:hr>111</gpxtpx:hr>
          </gpxtpx:TrackPointExtension>
        </extensions>
      </trkpt>
      <trkpt lat="50.53523" lon="2.61896">
        <ele>29</ele>
        <time>2021-06-24T16:17:45Z</time>
        <extensions>
          <gpxtpx:TrackPointExtension xmlns:gpxtpx="http://www.garmin.com/xmlschemas/TrackPointExtension/v1">
            <gpxtpx:hr>110</gpxtpx:hr>
          </gpxtpx:TrackPointExtension>
        </extensions>
      </trkpt>
      <trkpt lat="50.53522" lon="2.61899">
        <ele>28.8</ele>
        <time>2021-06-24T16:17:46Z</time>
        <extensions>
          <gpxtpx:TrackPointExtension xmlns:gpxtpx="http://www.garmin.com/xmlschemas/TrackPointExtension/v1">
            <gpxtpx:hr>110</gpxtpx:hr>
          </gpxtpx:TrackPointExtension>
        </extensions>
      </trkpt>
      <trkpt lat="50.53521" lon="2.61902">
        <ele>28.8</ele>
        <time>2021-06-24T16:17:47Z</time>
        <extensions>
          <gpxtpx:TrackPointExtension xmlns:gpxtpx="http://www.garmin.com/xmlschemas/TrackPointExtension/v1">
            <gpxtpx:hr>111</gpxtpx:hr>
          </gpxtpx:TrackPointExtension>
        </extensions>
      </trkpt>
      <trkpt lat="50.5352" lon="2.61905">
        <ele>28.6</ele>
        <time>2021-06-24T16:17:48Z</time>
        <extensions>
          <gpxtpx:TrackPointExtension xmlns:gpxtpx="http://www.garmin.com/xmlschemas/TrackPointExtension/v1">
            <gpxtpx:hr>111</gpxtpx:hr>
          </gpxtpx:TrackPointExtension>
        </extensions>
      </trkpt>
      <trkpt lat="50.5352" lon="2.61907">
        <ele>28.6</ele>
        <time>2021-06-24T16:17:49Z</time>
        <extensions>
          <gpxtpx:TrackPointExtension xmlns:gpxtpx="http://www.garmin.com/xmlschemas/TrackPointExtension/v1">
            <gpxtpx:hr>111</gpxtpx:hr>
          </gpxtpx:TrackPointExtension>
        </extensions>
      </trkpt>
      <trkpt lat="50.5352" lon="2.61909">
        <ele>28.4</ele>
        <time>2021-06-24T16:17:50Z</time>
        <extensions>
          <gpxtpx:TrackPointExtension xmlns:gpxtpx="http://www.garmin.com/xmlschemas/TrackPointExtension/v1">
            <gpxtpx:hr>112</gpxtpx:hr>
          </gpxtpx:TrackPointExtension>
        </extensions>
      </trkpt>
      <trkpt lat="50.5352" lon="2.61912">
        <ele>28.2</ele>
        <time>2021-06-24T16:17:52Z</time>
        <extensions>
          <gpxtpx:TrackPointExtension xmlns:gpxtpx="http://www.garmin.com/xmlschemas/TrackPointExtension/v1">
            <gpxtpx:hr>111</gpxtpx:hr>
          </gpxtpx:TrackPointExtension>
        </extensions>
      </trkpt>
      <trkpt lat="50.53521" lon="2.61913">
        <ele>28</ele>
        <time>2021-06-24T16:17:54Z</time>
        <extensions>
          <gpxtpx:TrackPointExtension xmlns:gpxtpx="http://www.garmin.com/xmlschemas/TrackPointExtension/v1">
            <gpxtpx:hr>110</gpxtpx:hr>
          </gpxtpx:TrackPointExtension>
        </extensions>
      </trkpt>
      <trkpt lat="50.5353" lon="2.61924">
        <ele>28</ele>
        <time>2021-06-24T16:18:14Z</time>
        <extensions>
          <gpxtpx:TrackPointExtension xmlns:gpxtpx="http://www.garmin.com/xmlschemas/TrackPointExtension/v1">
            <gpxtpx:hr>90</gpxtpx:hr>
          </gpxtpx:TrackPointExtension>
        </extensions>
      </trkpt>
      <trkpt lat="50.53533" lon="2.61929">
        <ele>28</ele>
        <time>2021-06-24T16:18:15Z</time>
        <extensions>
          <gpxtpx:TrackPointExtension xmlns:gpxtpx="http://www.garmin.com/xmlschemas/TrackPointExtension/v1">
            <gpxtpx:hr>91</gpxtpx:hr>
          </gpxtpx:TrackPointExtension>
        </extensions>
      </trkpt>
      <trkpt lat="50.53535" lon="2.61934">
        <ele>27.4</ele>
        <time>2021-06-24T16:18:16Z</time>
        <extensions>
          <gpxtpx:TrackPointExtension xmlns:gpxtpx="http://www.garmin.com/xmlschemas/TrackPointExtension/v1">
            <gpxtpx:hr>91</gpxtpx:hr>
          </gpxtpx:TrackPointExtension>
        </extensions>
      </trkpt>
      <trkpt lat="50.53538" lon="2.61938">
        <ele>27.4</ele>
        <time>2021-06-24T16:18:17Z</time>
        <extensions>
          <gpxtpx:TrackPointExtension xmlns:gpxtpx="http://www.garmin.com/xmlschemas/TrackPointExtension/v1">
            <gpxtpx:hr>92</gpxtpx:hr>
          </gpxtpx:TrackPointExtension>
        </extensions>
      </trkpt>
      <trkpt lat="50.53541" lon="2.61943">
        <ele>27.4</ele>
        <time>2021-06-24T16:18:18Z</time>
        <extensions>
          <gpxtpx:TrackPointExtension xmlns:gpxtpx="http://www.garmin.com/xmlschemas/TrackPointExtension/v1">
            <gpxtpx:hr>91</gpxtpx:hr>
          </gpxtpx:TrackPointExtension>
        </extensions>
      </trkpt>
      <trkpt lat="50.53543" lon="2.61949">
        <ele>27.2</ele>
        <time>2021-06-24T16:18:19Z</time>
        <extensions>
          <gpxtpx:TrackPointExtension xmlns:gpxtpx="http://www.garmin.com/xmlschemas/TrackPointExtension/v1">
            <gpxtpx:hr>91</gpxtpx:hr>
          </gpxtpx:TrackPointExtension>
        </extensions>
      </trkpt>
      <trkpt lat="50.53546" lon="2.61954">
        <ele>27.2</ele>
        <time>2021-06-24T16:18:20Z</time>
        <extensions>
          <gpxtpx:TrackPointExtension xmlns:gpxtpx="http://www.garmin.com/xmlschemas/TrackPointExtension/v1">
            <gpxtpx:hr>91</gpxtpx:hr>
          </gpxtpx:TrackPointExtension>
        </extensions>
      </trkpt>
      <trkpt lat="50.53548" lon="2.61959">
        <ele>27.2</ele>
        <time>2021-06-24T16:18:21Z</time>
        <extensions>
          <gpxtpx:TrackPointExtension xmlns:gpxtpx="http://www.garmin.com/xmlschemas/TrackPointExtension/v1">
            <gpxtpx:hr>92</gpxtpx:hr>
          </gpxtpx:TrackPointExtension>
        </extensions>
      </trkpt>
      <trkpt lat="50.5355" lon="2.61964">
        <ele>27.2</ele>
        <time>2021-06-24T16:18:22Z</time>
        <extensions>
          <gpxtpx:TrackPointExtension xmlns:gpxtpx="http://www.garmin.com/xmlschemas/TrackPointExtension/v1">
            <gpxtpx:hr>93</gpxtpx:hr>
          </gpxtpx:TrackPointExtension>
        </extensions>
      </trkpt>
      <trkpt lat="50.53551" lon="2.61968">
        <ele>27</ele>
        <time>2021-06-24T16:18:23Z</time>
        <extensions>
          <gpxtpx:TrackPointExtension xmlns:gpxtpx="http://www.garmin.com/xmlschemas/TrackPointExtension/v1">
            <gpxtpx:hr>94</gpxtpx:hr>
          </gpxtpx:TrackPointExtension>
        </extensions>
      </trkpt>
      <trkpt lat="50.53553" lon="2.61974">
        <ele>27</ele>
        <time>2021-06-24T16:18:24Z</time>
        <extensions>
          <gpxtpx:TrackPointExtension xmlns:gpxtpx="http://www.garmin.com/xmlschemas/TrackPointExtension/v1">
            <gpxtpx:hr>95</gpxtpx:hr>
          </gpxtpx:TrackPointExtension>
        </extensions>
      </trkpt>
      <trkpt lat="50.53555" lon="2.61979">
        <ele>26.8</ele>
        <time>2021-06-24T16:18:25Z</time>
        <extensions>
          <gpxtpx:TrackPointExtension xmlns:gpxtpx="http://www.garmin.com/xmlschemas/TrackPointExtension/v1">
            <gpxtpx:hr>97</gpxtpx:hr>
          </gpxtpx:TrackPointExtension>
        </extensions>
      </trkpt>
      <trkpt lat="50.53557" lon="2.61985">
        <ele>26.6</ele>
        <time>2021-06-24T16:18:26Z</time>
        <extensions>
          <gpxtpx:TrackPointExtension xmlns:gpxtpx="http://www.garmin.com/xmlschemas/TrackPointExtension/v1">
            <gpxtpx:hr>99</gpxtpx:hr>
          </gpxtpx:TrackPointExtension>
        </extensions>
      </trkpt>
      <trkpt lat="50.53559" lon="2.6199">
        <ele>26.6</ele>
        <time>2021-06-24T16:18:27Z</time>
        <extensions>
          <gpxtpx:TrackPointExtension xmlns:gpxtpx="http://www.garmin.com/xmlschemas/TrackPointExtension/v1">
            <gpxtpx:hr>101</gpxtpx:hr>
          </gpxtpx:TrackPointExtension>
        </extensions>
      </trkpt>
      <trkpt lat="50.53562" lon="2.61996">
        <ele>26.4</ele>
        <time>2021-06-24T16:18:28Z</time>
        <extensions>
          <gpxtpx:TrackPointExtension xmlns:gpxtpx="http://www.garmin.com/xmlschemas/TrackPointExtension/v1">
            <gpxtpx:hr>101</gpxtpx:hr>
          </gpxtpx:TrackPointExtension>
        </extensions>
      </trkpt>
      <trkpt lat="50.53564" lon="2.62001">
        <ele>26.4</ele>
        <time>2021-06-24T16:18:29Z</time>
        <extensions>
          <gpxtpx:TrackPointExtension xmlns:gpxtpx="http://www.garmin.com/xmlschemas/TrackPointExtension/v1">
            <gpxtpx:hr>101</gpxtpx:hr>
          </gpxtpx:TrackPointExtension>
        </extensions>
      </trkpt>
      <trkpt lat="50.53567" lon="2.62006">
        <ele>26.2</ele>
        <time>2021-06-24T16:18:30Z</time>
        <extensions>
          <gpxtpx:TrackPointExtension xmlns:gpxtpx="http://www.garmin.com/xmlschemas/TrackPointExtension/v1">
            <gpxtpx:hr>101</gpxtpx:hr>
          </gpxtpx:TrackPointExtension>
        </extensions>
      </trkpt>
      <trkpt lat="50.53569" lon="2.62011">
        <ele>26</ele>
        <time>2021-06-24T16:18:31Z</time>
        <extensions>
          <gpxtpx:TrackPointExtension xmlns:gpxtpx="http://www.garmin.com/xmlschemas/TrackPointExtension/v1">
            <gpxtpx:hr>100</gpxtpx:hr>
          </gpxtpx:TrackPointExtension>
        </extensions>
      </trkpt>
      <trkpt lat="50.53572" lon="2.62017">
        <ele>26</ele>
        <time>2021-06-24T16:18:32Z</time>
        <extensions>
          <gpxtpx:TrackPointExtension xmlns:gpxtpx="http://www.garmin.com/xmlschemas/TrackPointExtension/v1">
            <gpxtpx:hr>98</gpxtpx:hr>
          </gpxtpx:TrackPointExtension>
        </extensions>
      </trkpt>
      <trkpt lat="50.53575" lon="2.62022">
        <ele>25.8</ele>
        <time>2021-06-24T16:18:33Z</time>
        <extensions>
          <gpxtpx:TrackPointExtension xmlns:gpxtpx="http://www.garmin.com/xmlschemas/TrackPointExtension/v1">
            <gpxtpx:hr>97</gpxtpx:hr>
          </gpxtpx:TrackPointExtension>
        </extensions>
      </trkpt>
      <trkpt lat="50.53577" lon="2.62028">
        <ele>25.8</ele>
        <time>2021-06-24T16:18:34Z</time>
        <extensions>
          <gpxtpx:TrackPointExtension xmlns:gpxtpx="http://www.garmin.com/xmlschemas/TrackPointExtension/v1">
            <gpxtpx:hr>95</gpxtpx:hr>
          </gpxtpx:TrackPointExtension>
        </extensions>
      </trkpt>
      <trkpt lat="50.5358" lon="2.62034">
        <ele>25.8</ele>
        <time>2021-06-24T16:18:35Z</time>
        <extensions>
          <gpxtpx:TrackPointExtension xmlns:gpxtpx="http://www.garmin.com/xmlschemas/TrackPointExtension/v1">
            <gpxtpx:hr>94</gpxtpx:hr>
          </gpxtpx:TrackPointExtension>
        </extensions>
      </trkpt>
      <trkpt lat="50.53583" lon="2.6204">
        <ele>25.6</ele>
        <time>2021-06-24T16:18:36Z</time>
        <extensions>
          <gpxtpx:TrackPointExtension xmlns:gpxtpx="http://www.garmin.com/xmlschemas/TrackPointExtension/v1">
            <gpxtpx:hr>93</gpxtpx:hr>
          </gpxtpx:TrackPointExtension>
        </extensions>
      </trkpt>
      <trkpt lat="50.53586" lon="2.62046">
        <ele>25.6</ele>
        <time>2021-06-24T16:18:37Z</time>
        <extensions>
          <gpxtpx:TrackPointExtension xmlns:gpxtpx="http://www.garmin.com/xmlschemas/TrackPointExtension/v1">
            <gpxtpx:hr>93</gpxtpx:hr>
          </gpxtpx:TrackPointExtension>
        </extensions>
      </trkpt>
      <trkpt lat="50.53588" lon="2.62052">
        <ele>25.4</ele>
        <time>2021-06-24T16:18:38Z</time>
        <extensions>
          <gpxtpx:TrackPointExtension xmlns:gpxtpx="http://www.garmin.com/xmlschemas/TrackPointExtension/v1">
            <gpxtpx:hr>94</gpxtpx:hr>
          </gpxtpx:TrackPointExtension>
        </extensions>
      </trkpt>
      <trkpt lat="50.5359" lon="2.62059">
        <ele>25.4</ele>
        <time>2021-06-24T16:18:39Z</time>
        <extensions>
          <gpxtpx:TrackPointExtension xmlns:gpxtpx="http://www.garmin.com/xmlschemas/TrackPointExtension/v1">
            <gpxtpx:hr>96</gpxtpx:hr>
          </gpxtpx:TrackPointExtension>
        </extensions>
      </trkpt>
      <trkpt lat="50.53593" lon="2.62065">
        <ele>25.2</ele>
        <time>2021-06-24T16:18:40Z</time>
        <extensions>
          <gpxtpx:TrackPointExtension xmlns:gpxtpx="http://www.garmin.com/xmlschemas/TrackPointExtension/v1">
            <gpxtpx:hr>99</gpxtpx:hr>
          </gpxtpx:TrackPointExtension>
        </extensions>
      </trkpt>
      <trkpt lat="50.53595" lon="2.62071">
        <ele>25.2</ele>
        <time>2021-06-24T16:18:41Z</time>
        <extensions>
          <gpxtpx:TrackPointExtension xmlns:gpxtpx="http://www.garmin.com/xmlschemas/TrackPointExtension/v1">
            <gpxtpx:hr>103</gpxtpx:hr>
          </gpxtpx:TrackPointExtension>
        </extensions>
      </trkpt>
      <trkpt lat="50.53598" lon="2.62078">
        <ele>25</ele>
        <time>2021-06-24T16:18:42Z</time>
        <extensions>
          <gpxtpx:TrackPointExtension xmlns:gpxtpx="http://www.garmin.com/xmlschemas/TrackPointExtension/v1">
            <gpxtpx:hr>107</gpxtpx:hr>
          </gpxtpx:TrackPointExtension>
        </extensions>
      </trkpt>
      <trkpt lat="50.536" lon="2.62085">
        <ele>25</ele>
        <time>2021-06-24T16:18:43Z</time>
        <extensions>
          <gpxtpx:TrackPointExtension xmlns:gpxtpx="http://www.garmin.com/xmlschemas/TrackPointExtension/v1">
            <gpxtpx:hr>110</gpxtpx:hr>
          </gpxtpx:TrackPointExtension>
        </extensions>
      </trkpt>
      <trkpt lat="50.53603" lon="2.62092">
        <ele>24.8</ele>
        <time>2021-06-24T16:18:44Z</time>
        <extensions>
          <gpxtpx:TrackPointExtension xmlns:gpxtpx="http://www.garmin.com/xmlschemas/TrackPointExtension/v1">
            <gpxtpx:hr>114</gpxtpx:hr>
          </gpxtpx:TrackPointExtension>
        </extensions>
      </trkpt>
      <trkpt lat="50.53606" lon="2.62099">
        <ele>24.8</ele>
        <time>2021-06-24T16:18:45Z</time>
        <extensions>
          <gpxtpx:TrackPointExtension xmlns:gpxtpx="http://www.garmin.com/xmlschemas/TrackPointExtension/v1">
            <gpxtpx:hr>116</gpxtpx:hr>
          </gpxtpx:TrackPointExtension>
        </extensions>
      </trkpt>
      <trkpt lat="50.53608" lon="2.62107">
        <ele>24.8</ele>
        <time>2021-06-24T16:18:46Z</time>
        <extensions>
          <gpxtpx:TrackPointExtension xmlns:gpxtpx="http://www.garmin.com/xmlschemas/TrackPointExtension/v1">
            <gpxtpx:hr>119</gpxtpx:hr>
          </gpxtpx:TrackPointExtension>
        </extensions>
      </trkpt>
      <trkpt lat="50.53612" lon="2.62115">
        <ele>24.6</ele>
        <time>2021-06-24T16:18:47Z</time>
        <extensions>
          <gpxtpx:TrackPointExtension xmlns:gpxtpx="http://www.garmin.com/xmlschemas/TrackPointExtension/v1">
            <gpxtpx:hr>120</gpxtpx:hr>
          </gpxtpx:TrackPointExtension>
        </extensions>
      </trkpt>
      <trkpt lat="50.53614" lon="2.62122">
        <ele>24.6</ele>
        <time>2021-06-24T16:18:48Z</time>
        <extensions>
          <gpxtpx:TrackPointExtension xmlns:gpxtpx="http://www.garmin.com/xmlschemas/TrackPointExtension/v1">
            <gpxtpx:hr>122</gpxtpx:hr>
          </gpxtpx:TrackPointExtension>
        </extensions>
      </trkpt>
      <trkpt lat="50.53617" lon="2.62131">
        <ele>24.6</ele>
        <time>2021-06-24T16:18:49Z</time>
        <extensions>
          <gpxtpx:TrackPointExtension xmlns:gpxtpx="http://www.garmin.com/xmlschemas/TrackPointExtension/v1">
            <gpxtpx:hr>123</gpxtpx:hr>
          </gpxtpx:TrackPointExtension>
        </extensions>
      </trkpt>
      <trkpt lat="50.5362" lon="2.6214">
        <ele>24.6</ele>
        <time>2021-06-24T16:18:50Z</time>
        <extensions>
          <gpxtpx:TrackPointExtension xmlns:gpxtpx="http://www.garmin.com/xmlschemas/TrackPointExtension/v1">
            <gpxtpx:hr>123</gpxtpx:hr>
          </gpxtpx:TrackPointExtension>
        </extensions>
      </trkpt>
      <trkpt lat="50.53623" lon="2.62148">
        <ele>24.6</ele>
        <time>2021-06-24T16:18:51Z</time>
        <extensions>
          <gpxtpx:TrackPointExtension xmlns:gpxtpx="http://www.garmin.com/xmlschemas/TrackPointExtension/v1">
            <gpxtpx:hr>123</gpxtpx:hr>
          </gpxtpx:TrackPointExtension>
        </extensions>
      </trkpt>
      <trkpt lat="50.53626" lon="2.62157">
        <ele>24.4</ele>
        <time>2021-06-24T16:18:52Z</time>
        <extensions>
          <gpxtpx:TrackPointExtension xmlns:gpxtpx="http://www.garmin.com/xmlschemas/TrackPointExtension/v1">
            <gpxtpx:hr>124</gpxtpx:hr>
          </gpxtpx:TrackPointExtension>
        </extensions>
      </trkpt>
      <trkpt lat="50.53629" lon="2.62165">
        <ele>24.4</ele>
        <time>2021-06-24T16:18:53Z</time>
        <extensions>
          <gpxtpx:TrackPointExtension xmlns:gpxtpx="http://www.garmin.com/xmlschemas/TrackPointExtension/v1">
            <gpxtpx:hr>124</gpxtpx:hr>
          </gpxtpx:TrackPointExtension>
        </extensions>
      </trkpt>
      <trkpt lat="50.53632" lon="2.62174">
        <ele>24.4</ele>
        <time>2021-06-24T16:18:54Z</time>
        <extensions>
          <gpxtpx:TrackPointExtension xmlns:gpxtpx="http://www.garmin.com/xmlschemas/TrackPointExtension/v1">
            <gpxtpx:hr>124</gpxtpx:hr>
          </gpxtpx:TrackPointExtension>
        </extensions>
      </trkpt>
      <trkpt lat="50.53635" lon="2.62182">
        <ele>24.2</ele>
        <time>2021-06-24T16:18:55Z</time>
        <extensions>
          <gpxtpx:TrackPointExtension xmlns:gpxtpx="http://www.garmin.com/xmlschemas/TrackPointExtension/v1">
            <gpxtpx:hr>125</gpxtpx:hr>
          </gpxtpx:TrackPointExtension>
        </extensions>
      </trkpt>
      <trkpt lat="50.53638" lon="2.62191">
        <ele>24.2</ele>
        <time>2021-06-24T16:18:56Z</time>
        <extensions>
          <gpxtpx:TrackPointExtension xmlns:gpxtpx="http://www.garmin.com/xmlschemas/TrackPointExtension/v1">
            <gpxtpx:hr>125</gpxtpx:hr>
          </gpxtpx:TrackPointExtension>
        </extensions>
      </trkpt>
      <trkpt lat="50.53641" lon="2.62199">
        <ele>24.2</ele>
        <time>2021-06-24T16:18:57Z</time>
        <extensions>
          <gpxtpx:TrackPointExtension xmlns:gpxtpx="http://www.garmin.com/xmlschemas/TrackPointExtension/v1">
            <gpxtpx:hr>126</gpxtpx:hr>
          </gpxtpx:TrackPointExtension>
        </extensions>
      </trkpt>
      <trkpt lat="50.53644" lon="2.62207">
        <ele>24</ele>
        <time>2021-06-24T16:18:58Z</time>
        <extensions>
          <gpxtpx:TrackPointExtension xmlns:gpxtpx="http://www.garmin.com/xmlschemas/TrackPointExtension/v1">
            <gpxtpx:hr>126</gpxtpx:hr>
          </gpxtpx:TrackPointExtension>
        </extensions>
      </trkpt>
      <trkpt lat="50.53647" lon="2.62216">
        <ele>24</ele>
        <time>2021-06-24T16:18:59Z</time>
        <extensions>
          <gpxtpx:TrackPointExtension xmlns:gpxtpx="http://www.garmin.com/xmlschemas/TrackPointExtension/v1">
            <gpxtpx:hr>127</gpxtpx:hr>
          </gpxtpx:TrackPointExtension>
        </extensions>
      </trkpt>
      <trkpt lat="50.5365" lon="2.62224">
        <ele>24</ele>
        <time>2021-06-24T16:19:00Z</time>
        <extensions>
          <gpxtpx:TrackPointExtension xmlns:gpxtpx="http://www.garmin.com/xmlschemas/TrackPointExtension/v1">
            <gpxtpx:hr>127</gpxtpx:hr>
          </gpxtpx:TrackPointExtension>
        </extensions>
      </trkpt>
      <trkpt lat="50.53653" lon="2.62232">
        <ele>24</ele>
        <time>2021-06-24T16:19:01Z</time>
        <extensions>
          <gpxtpx:TrackPointExtension xmlns:gpxtpx="http://www.garmin.com/xmlschemas/TrackPointExtension/v1">
            <gpxtpx:hr>127</gpxtpx:hr>
          </gpxtpx:TrackPointExtension>
        </extensions>
      </trkpt>
      <trkpt lat="50.53656" lon="2.62241">
        <ele>24</ele>
        <time>2021-06-24T16:19:02Z</time>
        <extensions>
          <gpxtpx:TrackPointExtension xmlns:gpxtpx="http://www.garmin.com/xmlschemas/TrackPointExtension/v1">
            <gpxtpx:hr>128</gpxtpx:hr>
          </gpxtpx:TrackPointExtension>
        </extensions>
      </trkpt>
      <trkpt lat="50.53659" lon="2.6225">
        <ele>24</ele>
        <time>2021-06-24T16:19:03Z</time>
        <extensions>
          <gpxtpx:TrackPointExtension xmlns:gpxtpx="http://www.garmin.com/xmlschemas/TrackPointExtension/v1">
            <gpxtpx:hr>128</gpxtpx:hr>
          </gpxtpx:TrackPointExtension>
        </extensions>
      </trkpt>
      <trkpt lat="50.53662" lon="2.62258">
        <ele>24</ele>
        <time>2021-06-24T16:19:04Z</time>
        <extensions>
          <gpxtpx:TrackPointExtension xmlns:gpxtpx="http://www.garmin.com/xmlschemas/TrackPointExtension/v1">
            <gpxtpx:hr>128</gpxtpx:hr>
          </gpxtpx:TrackPointExtension>
        </extensions>
      </trkpt>
      <trkpt lat="50.53664" lon="2.62266">
        <ele>24</ele>
        <time>2021-06-24T16:19:05Z</time>
        <extensions>
          <gpxtpx:TrackPointExtension xmlns:gpxtpx="http://www.garmin.com/xmlschemas/TrackPointExtension/v1">
            <gpxtpx:hr>128</gpxtpx:hr>
          </gpxtpx:TrackPointExtension>
        </extensions>
      </trkpt>
      <trkpt lat="50.53668" lon="2.62274">
        <ele>23.8</ele>
        <time>2021-06-24T16:19:06Z</time>
        <extensions>
          <gpxtpx:TrackPointExtension xmlns:gpxtpx="http://www.garmin.com/xmlschemas/TrackPointExtension/v1">
            <gpxtpx:hr>129</gpxtpx:hr>
          </gpxtpx:TrackPointExtension>
        </extensions>
      </trkpt>
      <trkpt lat="50.5367" lon="2.62282">
        <ele>23.8</ele>
        <time>2021-06-24T16:19:07Z</time>
        <extensions>
          <gpxtpx:TrackPointExtension xmlns:gpxtpx="http://www.garmin.com/xmlschemas/TrackPointExtension/v1">
            <gpxtpx:hr>129</gpxtpx:hr>
          </gpxtpx:TrackPointExtension>
        </extensions>
      </trkpt>
      <trkpt lat="50.53674" lon="2.6229">
        <ele>23.6</ele>
        <time>2021-06-24T16:19:08Z</time>
        <extensions>
          <gpxtpx:TrackPointExtension xmlns:gpxtpx="http://www.garmin.com/xmlschemas/TrackPointExtension/v1">
            <gpxtpx:hr>129</gpxtpx:hr>
          </gpxtpx:TrackPointExtension>
        </extensions>
      </trkpt>
      <trkpt lat="50.53677" lon="2.62298">
        <ele>23.6</ele>
        <time>2021-06-24T16:19:09Z</time>
        <extensions>
          <gpxtpx:TrackPointExtension xmlns:gpxtpx="http://www.garmin.com/xmlschemas/TrackPointExtension/v1">
            <gpxtpx:hr>129</gpxtpx:hr>
          </gpxtpx:TrackPointExtension>
        </extensions>
      </trkpt>
      <trkpt lat="50.5368" lon="2.62306">
        <ele>23.6</ele>
        <time>2021-06-24T16:19:10Z</time>
        <extensions>
          <gpxtpx:TrackPointExtension xmlns:gpxtpx="http://www.garmin.com/xmlschemas/TrackPointExtension/v1">
            <gpxtpx:hr>129</gpxtpx:hr>
          </gpxtpx:TrackPointExtension>
        </extensions>
      </trkpt>
      <trkpt lat="50.53683" lon="2.62314">
        <ele>23.4</ele>
        <time>2021-06-24T16:19:11Z</time>
        <extensions>
          <gpxtpx:TrackPointExtension xmlns:gpxtpx="http://www.garmin.com/xmlschemas/TrackPointExtension/v1">
            <gpxtpx:hr>129</gpxtpx:hr>
          </gpxtpx:TrackPointExtension>
        </extensions>
      </trkpt>
      <trkpt lat="50.53686" lon="2.62322">
        <ele>23.4</ele>
        <time>2021-06-24T16:19:12Z</time>
        <extensions>
          <gpxtpx:TrackPointExtension xmlns:gpxtpx="http://www.garmin.com/xmlschemas/TrackPointExtension/v1">
            <gpxtpx:hr>129</gpxtpx:hr>
          </gpxtpx:TrackPointExtension>
        </extensions>
      </trkpt>
      <trkpt lat="50.5369" lon="2.62329">
        <ele>23.4</ele>
        <time>2021-06-24T16:19:13Z</time>
        <extensions>
          <gpxtpx:TrackPointExtension xmlns:gpxtpx="http://www.garmin.com/xmlschemas/TrackPointExtension/v1">
            <gpxtpx:hr>129</gpxtpx:hr>
          </gpxtpx:TrackPointExtension>
        </extensions>
      </trkpt>
      <trkpt lat="50.53694" lon="2.62337">
        <ele>23.4</ele>
        <time>2021-06-24T16:19:14Z</time>
        <extensions>
          <gpxtpx:TrackPointExtension xmlns:gpxtpx="http://www.garmin.com/xmlschemas/TrackPointExtension/v1">
            <gpxtpx:hr>129</gpxtpx:hr>
          </gpxtpx:TrackPointExtension>
        </extensions>
      </trkpt>
      <trkpt lat="50.53698" lon="2.62344">
        <ele>23.4</ele>
        <time>2021-06-24T16:19:15Z</time>
        <extensions>
          <gpxtpx:TrackPointExtension xmlns:gpxtpx="http://www.garmin.com/xmlschemas/TrackPointExtension/v1">
            <gpxtpx:hr>129</gpxtpx:hr>
          </gpxtpx:TrackPointExtension>
        </extensions>
      </trkpt>
      <trkpt lat="50.53702" lon="2.62351">
        <ele>23.4</ele>
        <time>2021-06-24T16:19:16Z</time>
        <extensions>
          <gpxtpx:TrackPointExtension xmlns:gpxtpx="http://www.garmin.com/xmlschemas/TrackPointExtension/v1">
            <gpxtpx:hr>129</gpxtpx:hr>
          </gpxtpx:TrackPointExtension>
        </extensions>
      </trkpt>
      <trkpt lat="50.53705" lon="2.62358">
        <ele>23.4</ele>
        <time>2021-06-24T16:19:17Z</time>
        <extensions>
          <gpxtpx:TrackPointExtension xmlns:gpxtpx="http://www.garmin.com/xmlschemas/TrackPointExtension/v1">
            <gpxtpx:hr>129</gpxtpx:hr>
          </gpxtpx:TrackPointExtension>
        </extensions>
      </trkpt>
      <trkpt lat="50.53709" lon="2.62366">
        <ele>23.2</ele>
        <time>2021-06-24T16:19:18Z</time>
        <extensions>
          <gpxtpx:TrackPointExtension xmlns:gpxtpx="http://www.garmin.com/xmlschemas/TrackPointExtension/v1">
            <gpxtpx:hr>129</gpxtpx:hr>
          </gpxtpx:TrackPointExtension>
        </extensions>
      </trkpt>
      <trkpt lat="50.53712" lon="2.62374">
        <ele>23.2</ele>
        <time>2021-06-24T16:19:19Z</time>
        <extensions>
          <gpxtpx:TrackPointExtension xmlns:gpxtpx="http://www.garmin.com/xmlschemas/TrackPointExtension/v1">
            <gpxtpx:hr>129</gpxtpx:hr>
          </gpxtpx:TrackPointExtension>
        </extensions>
      </trkpt>
      <trkpt lat="50.53715" lon="2.62382">
        <ele>23.2</ele>
        <time>2021-06-24T16:19:20Z</time>
        <extensions>
          <gpxtpx:TrackPointExtension xmlns:gpxtpx="http://www.garmin.com/xmlschemas/TrackPointExtension/v1">
            <gpxtpx:hr>129</gpxtpx:hr>
          </gpxtpx:TrackPointExtension>
        </extensions>
      </trkpt>
      <trkpt lat="50.53719" lon="2.62388">
        <ele>23.2</ele>
        <time>2021-06-24T16:19:21Z</time>
        <extensions>
          <gpxtpx:TrackPointExtension xmlns:gpxtpx="http://www.garmin.com/xmlschemas/TrackPointExtension/v1">
            <gpxtpx:hr>129</gpxtpx:hr>
          </gpxtpx:TrackPointExtension>
        </extensions>
      </trkpt>
      <trkpt lat="50.53722" lon="2.62394">
        <ele>23</ele>
        <time>2021-06-24T16:19:22Z</time>
        <extensions>
          <gpxtpx:TrackPointExtension xmlns:gpxtpx="http://www.garmin.com/xmlschemas/TrackPointExtension/v1">
            <gpxtpx:hr>128</gpxtpx:hr>
          </gpxtpx:TrackPointExtension>
        </extensions>
      </trkpt>
      <trkpt lat="50.53725" lon="2.624">
        <ele>23</ele>
        <time>2021-06-24T16:19:23Z</time>
        <extensions>
          <gpxtpx:TrackPointExtension xmlns:gpxtpx="http://www.garmin.com/xmlschemas/TrackPointExtension/v1">
            <gpxtpx:hr>128</gpxtpx:hr>
          </gpxtpx:TrackPointExtension>
        </extensions>
      </trkpt>
      <trkpt lat="50.53728" lon="2.62408">
        <ele>22.8</ele>
        <time>2021-06-24T16:19:24Z</time>
        <extensions>
          <gpxtpx:TrackPointExtension xmlns:gpxtpx="http://www.garmin.com/xmlschemas/TrackPointExtension/v1">
            <gpxtpx:hr>128</gpxtpx:hr>
          </gpxtpx:TrackPointExtension>
        </extensions>
      </trkpt>
      <trkpt lat="50.53731" lon="2.62416">
        <ele>22.8</ele>
        <time>2021-06-24T16:19:25Z</time>
        <extensions>
          <gpxtpx:TrackPointExtension xmlns:gpxtpx="http://www.garmin.com/xmlschemas/TrackPointExtension/v1">
            <gpxtpx:hr>128</gpxtpx:hr>
          </gpxtpx:TrackPointExtension>
        </extensions>
      </trkpt>
      <trkpt lat="50.53735" lon="2.62424">
        <ele>22.6</ele>
        <time>2021-06-24T16:19:26Z</time>
        <extensions>
          <gpxtpx:TrackPointExtension xmlns:gpxtpx="http://www.garmin.com/xmlschemas/TrackPointExtension/v1">
            <gpxtpx:hr>128</gpxtpx:hr>
          </gpxtpx:TrackPointExtension>
        </extensions>
      </trkpt>
      <trkpt lat="50.53738" lon="2.62431">
        <ele>22.4</ele>
        <time>2021-06-24T16:19:27Z</time>
        <extensions>
          <gpxtpx:TrackPointExtension xmlns:gpxtpx="http://www.garmin.com/xmlschemas/TrackPointExtension/v1">
            <gpxtpx:hr>128</gpxtpx:hr>
          </gpxtpx:TrackPointExtension>
        </extensions>
      </trkpt>
      <trkpt lat="50.53741" lon="2.62438">
        <ele>22.4</ele>
        <time>2021-06-24T16:19:28Z</time>
        <extensions>
          <gpxtpx:TrackPointExtension xmlns:gpxtpx="http://www.garmin.com/xmlschemas/TrackPointExtension/v1">
            <gpxtpx:hr>128</gpxtpx:hr>
          </gpxtpx:TrackPointExtension>
        </extensions>
      </trkpt>
      <trkpt lat="50.53746" lon="2.62444">
        <ele>22.2</ele>
        <time>2021-06-24T16:19:29Z</time>
        <extensions>
          <gpxtpx:TrackPointExtension xmlns:gpxtpx="http://www.garmin.com/xmlschemas/TrackPointExtension/v1">
            <gpxtpx:hr>129</gpxtpx:hr>
          </gpxtpx:TrackPointExtension>
        </extensions>
      </trkpt>
      <trkpt lat="50.5375" lon="2.6245">
        <ele>22</ele>
        <time>2021-06-24T16:19:30Z</time>
        <extensions>
          <gpxtpx:TrackPointExtension xmlns:gpxtpx="http://www.garmin.com/xmlschemas/TrackPointExtension/v1">
            <gpxtpx:hr>129</gpxtpx:hr>
          </gpxtpx:TrackPointExtension>
        </extensions>
      </trkpt>
      <trkpt lat="50.53753" lon="2.62457">
        <ele>22</ele>
        <time>2021-06-24T16:19:31Z</time>
        <extensions>
          <gpxtpx:TrackPointExtension xmlns:gpxtpx="http://www.garmin.com/xmlschemas/TrackPointExtension/v1">
            <gpxtpx:hr>129</gpxtpx:hr>
          </gpxtpx:TrackPointExtension>
        </extensions>
      </trkpt>
      <trkpt lat="50.53756" lon="2.62464">
        <ele>21.8</ele>
        <time>2021-06-24T16:19:32Z</time>
        <extensions>
          <gpxtpx:TrackPointExtension xmlns:gpxtpx="http://www.garmin.com/xmlschemas/TrackPointExtension/v1">
            <gpxtpx:hr>129</gpxtpx:hr>
          </gpxtpx:TrackPointExtension>
        </extensions>
      </trkpt>
      <trkpt lat="50.53759" lon="2.62472">
        <ele>21.8</ele>
        <time>2021-06-24T16:19:33Z</time>
        <extensions>
          <gpxtpx:TrackPointExtension xmlns:gpxtpx="http://www.garmin.com/xmlschemas/TrackPointExtension/v1">
            <gpxtpx:hr>129</gpxtpx:hr>
          </gpxtpx:TrackPointExtension>
        </extensions>
      </trkpt>
      <trkpt lat="50.53763" lon="2.62477">
        <ele>21.6</ele>
        <time>2021-06-24T16:19:34Z</time>
        <extensions>
          <gpxtpx:TrackPointExtension xmlns:gpxtpx="http://www.garmin.com/xmlschemas/TrackPointExtension/v1">
            <gpxtpx:hr>129</gpxtpx:hr>
          </gpxtpx:TrackPointExtension>
        </extensions>
      </trkpt>
      <trkpt lat="50.53766" lon="2.62484">
        <ele>21.6</ele>
        <time>2021-06-24T16:19:35Z</time>
        <extensions>
          <gpxtpx:TrackPointExtension xmlns:gpxtpx="http://www.garmin.com/xmlschemas/TrackPointExtension/v1">
            <gpxtpx:hr>129</gpxtpx:hr>
          </gpxtpx:TrackPointExtension>
        </extensions>
      </trkpt>
      <trkpt lat="50.5377" lon="2.62489">
        <ele>21.6</ele>
        <time>2021-06-24T16:19:36Z</time>
        <extensions>
          <gpxtpx:TrackPointExtension xmlns:gpxtpx="http://www.garmin.com/xmlschemas/TrackPointExtension/v1">
            <gpxtpx:hr>129</gpxtpx:hr>
          </gpxtpx:TrackPointExtension>
        </extensions>
      </trkpt>
      <trkpt lat="50.53772" lon="2.62497">
        <ele>21.4</ele>
        <time>2021-06-24T16:19:37Z</time>
        <extensions>
          <gpxtpx:TrackPointExtension xmlns:gpxtpx="http://www.garmin.com/xmlschemas/TrackPointExtension/v1">
            <gpxtpx:hr>128</gpxtpx:hr>
          </gpxtpx:TrackPointExtension>
        </extensions>
      </trkpt>
      <trkpt lat="50.53774" lon="2.62505">
        <ele>21.4</ele>
        <time>2021-06-24T16:19:38Z</time>
        <extensions>
          <gpxtpx:TrackPointExtension xmlns:gpxtpx="http://www.garmin.com/xmlschemas/TrackPointExtension/v1">
            <gpxtpx:hr>128</gpxtpx:hr>
          </gpxtpx:TrackPointExtension>
        </extensions>
      </trkpt>
      <trkpt lat="50.53775" lon="2.62512">
        <ele>21.2</ele>
        <time>2021-06-24T16:19:39Z</time>
        <extensions>
          <gpxtpx:TrackPointExtension xmlns:gpxtpx="http://www.garmin.com/xmlschemas/TrackPointExtension/v1">
            <gpxtpx:hr>127</gpxtpx:hr>
          </gpxtpx:TrackPointExtension>
        </extensions>
      </trkpt>
      <trkpt lat="50.53776" lon="2.62518">
        <ele>21.2</ele>
        <time>2021-06-24T16:19:40Z</time>
        <extensions>
          <gpxtpx:TrackPointExtension xmlns:gpxtpx="http://www.garmin.com/xmlschemas/TrackPointExtension/v1">
            <gpxtpx:hr>126</gpxtpx:hr>
          </gpxtpx:TrackPointExtension>
        </extensions>
      </trkpt>
      <trkpt lat="50.53777" lon="2.62524">
        <ele>21.2</ele>
        <time>2021-06-24T16:19:41Z</time>
        <extensions>
          <gpxtpx:TrackPointExtension xmlns:gpxtpx="http://www.garmin.com/xmlschemas/TrackPointExtension/v1">
            <gpxtpx:hr>126</gpxtpx:hr>
          </gpxtpx:TrackPointExtension>
        </extensions>
      </trkpt>
      <trkpt lat="50.53778" lon="2.62527">
        <ele>21</ele>
        <time>2021-06-24T16:19:42Z</time>
        <extensions>
          <gpxtpx:TrackPointExtension xmlns:gpxtpx="http://www.garmin.com/xmlschemas/TrackPointExtension/v1">
            <gpxtpx:hr>125</gpxtpx:hr>
          </gpxtpx:TrackPointExtension>
        </extensions>
      </trkpt>
      <trkpt lat="50.53779" lon="2.62536">
        <ele>20.6</ele>
        <time>2021-06-24T16:19:48Z</time>
        <extensions>
          <gpxtpx:TrackPointExtension xmlns:gpxtpx="http://www.garmin.com/xmlschemas/TrackPointExtension/v1">
            <gpxtpx:hr>121</gpxtpx:hr>
          </gpxtpx:TrackPointExtension>
        </extensions>
      </trkpt>
      <trkpt lat="50.53779" lon="2.62539">
        <ele>20.6</ele>
        <time>2021-06-24T16:19:49Z</time>
        <extensions>
          <gpxtpx:TrackPointExtension xmlns:gpxtpx="http://www.garmin.com/xmlschemas/TrackPointExtension/v1">
            <gpxtpx:hr>121</gpxtpx:hr>
          </gpxtpx:TrackPointExtension>
        </extensions>
      </trkpt>
      <trkpt lat="50.5378" lon="2.62543">
        <ele>20.4</ele>
        <time>2021-06-24T16:19:51Z</time>
        <extensions>
          <gpxtpx:TrackPointExtension xmlns:gpxtpx="http://www.garmin.com/xmlschemas/TrackPointExtension/v1">
            <gpxtpx:hr>121</gpxtpx:hr>
          </gpxtpx:TrackPointExtension>
        </extensions>
      </trkpt>
      <trkpt lat="50.53781" lon="2.62546">
        <ele>20.4</ele>
        <time>2021-06-24T16:19:53Z</time>
        <extensions>
          <gpxtpx:TrackPointExtension xmlns:gpxtpx="http://www.garmin.com/xmlschemas/TrackPointExtension/v1">
            <gpxtpx:hr>122</gpxtpx:hr>
          </gpxtpx:TrackPointExtension>
        </extensions>
      </trkpt>
      <trkpt lat="50.53782" lon="2.6255">
        <ele>20.2</ele>
        <time>2021-06-24T16:19:55Z</time>
        <extensions>
          <gpxtpx:TrackPointExtension xmlns:gpxtpx="http://www.garmin.com/xmlschemas/TrackPointExtension/v1">
            <gpxtpx:hr>122</gpxtpx:hr>
          </gpxtpx:TrackPointExtension>
        </extensions>
      </trkpt>
      <trkpt lat="50.53783" lon="2.62553">
        <ele>20.2</ele>
        <time>2021-06-24T16:19:56Z</time>
        <extensions>
          <gpxtpx:TrackPointExtension xmlns:gpxtpx="http://www.garmin.com/xmlschemas/TrackPointExtension/v1">
            <gpxtpx:hr>122</gpxtpx:hr>
          </gpxtpx:TrackPointExtension>
        </extensions>
      </trkpt>
      <trkpt lat="50.53785" lon="2.62556">
        <ele>20.2</ele>
        <time>2021-06-24T16:19:57Z</time>
        <extensions>
          <gpxtpx:TrackPointExtension xmlns:gpxtpx="http://www.garmin.com/xmlschemas/TrackPointExtension/v1">
            <gpxtpx:hr>122</gpxtpx:hr>
          </gpxtpx:TrackPointExtension>
        </extensions>
      </trkpt>
      <trkpt lat="50.53788" lon="2.62558">
        <ele>20.2</ele>
        <time>2021-06-24T16:19:58Z</time>
        <extensions>
          <gpxtpx:TrackPointExtension xmlns:gpxtpx="http://www.garmin.com/xmlschemas/TrackPointExtension/v1">
            <gpxtpx:hr>123</gpxtpx:hr>
          </gpxtpx:TrackPointExtension>
        </extensions>
      </trkpt>
      <trkpt lat="50.5379" lon="2.62561">
        <ele>20.2</ele>
        <time>2021-06-24T16:19:59Z</time>
        <extensions>
          <gpxtpx:TrackPointExtension xmlns:gpxtpx="http://www.garmin.com/xmlschemas/TrackPointExtension/v1">
            <gpxtpx:hr>122</gpxtpx:hr>
          </gpxtpx:TrackPointExtension>
        </extensions>
      </trkpt>
      <trkpt lat="50.53792" lon="2.62564">
        <ele>20.2</ele>
        <time>2021-06-24T16:20:00Z</time>
        <extensions>
          <gpxtpx:TrackPointExtension xmlns:gpxtpx="http://www.garmin.com/xmlschemas/TrackPointExtension/v1">
            <gpxtpx:hr>122</gpxtpx:hr>
          </gpxtpx:TrackPointExtension>
        </extensions>
      </trkpt>
      <trkpt lat="50.53795" lon="2.62569">
        <ele>20.2</ele>
        <time>2021-06-24T16:20:01Z</time>
        <extensions>
          <gpxtpx:TrackPointExtension xmlns:gpxtpx="http://www.garmin.com/xmlschemas/TrackPointExtension/v1">
            <gpxtpx:hr>121</gpxtpx:hr>
          </gpxtpx:TrackPointExtension>
        </extensions>
      </trkpt>
      <trkpt lat="50.53797" lon="2.62573">
        <ele>20.2</ele>
        <time>2021-06-24T16:20:02Z</time>
        <extensions>
          <gpxtpx:TrackPointExtension xmlns:gpxtpx="http://www.garmin.com/xmlschemas/TrackPointExtension/v1">
            <gpxtpx:hr>121</gpxtpx:hr>
          </gpxtpx:TrackPointExtension>
        </extensions>
      </trkpt>
      <trkpt lat="50.53801" lon="2.62577">
        <ele>20.2</ele>
        <time>2021-06-24T16:20:03Z</time>
        <extensions>
          <gpxtpx:TrackPointExtension xmlns:gpxtpx="http://www.garmin.com/xmlschemas/TrackPointExtension/v1">
            <gpxtpx:hr>121</gpxtpx:hr>
          </gpxtpx:TrackPointExtension>
        </extensions>
      </trkpt>
      <trkpt lat="50.53807" lon="2.62584">
        <ele>20</ele>
        <time>2021-06-24T16:20:05Z</time>
        <extensions>
          <gpxtpx:TrackPointExtension xmlns:gpxtpx="http://www.garmin.com/xmlschemas/TrackPointExtension/v1">
            <gpxtpx:hr>120</gpxtpx:hr>
          </gpxtpx:TrackPointExtension>
        </extensions>
      </trkpt>
      <trkpt lat="50.5381" lon="2.62589">
        <ele>20</ele>
        <time>2021-06-24T16:20:06Z</time>
        <extensions>
          <gpxtpx:TrackPointExtension xmlns:gpxtpx="http://www.garmin.com/xmlschemas/TrackPointExtension/v1">
            <gpxtpx:hr>120</gpxtpx:hr>
          </gpxtpx:TrackPointExtension>
        </extensions>
      </trkpt>
      <trkpt lat="50.53813" lon="2.62594">
        <ele>20</ele>
        <time>2021-06-24T16:20:07Z</time>
        <extensions>
          <gpxtpx:TrackPointExtension xmlns:gpxtpx="http://www.garmin.com/xmlschemas/TrackPointExtension/v1">
            <gpxtpx:hr>119</gpxtpx:hr>
          </gpxtpx:TrackPointExtension>
        </extensions>
      </trkpt>
      <trkpt lat="50.53817" lon="2.62598">
        <ele>20</ele>
        <time>2021-06-24T16:20:08Z</time>
        <extensions>
          <gpxtpx:TrackPointExtension xmlns:gpxtpx="http://www.garmin.com/xmlschemas/TrackPointExtension/v1">
            <gpxtpx:hr>119</gpxtpx:hr>
          </gpxtpx:TrackPointExtension>
        </extensions>
      </trkpt>
      <trkpt lat="50.5382" lon="2.62603">
        <ele>20</ele>
        <time>2021-06-24T16:20:09Z</time>
        <extensions>
          <gpxtpx:TrackPointExtension xmlns:gpxtpx="http://www.garmin.com/xmlschemas/TrackPointExtension/v1">
            <gpxtpx:hr>118</gpxtpx:hr>
          </gpxtpx:TrackPointExtension>
        </extensions>
      </trkpt>
      <trkpt lat="50.53827" lon="2.62613">
        <ele>20</ele>
        <time>2021-06-24T16:20:11Z</time>
        <extensions>
          <gpxtpx:TrackPointExtension xmlns:gpxtpx="http://www.garmin.com/xmlschemas/TrackPointExtension/v1">
            <gpxtpx:hr>117</gpxtpx:hr>
          </gpxtpx:TrackPointExtension>
        </extensions>
      </trkpt>
      <trkpt lat="50.53831" lon="2.62619">
        <ele>20.2</ele>
        <time>2021-06-24T16:20:12Z</time>
        <extensions>
          <gpxtpx:TrackPointExtension xmlns:gpxtpx="http://www.garmin.com/xmlschemas/TrackPointExtension/v1">
            <gpxtpx:hr>117</gpxtpx:hr>
          </gpxtpx:TrackPointExtension>
        </extensions>
      </trkpt>
      <trkpt lat="50.53834" lon="2.62626">
        <ele>20.2</ele>
        <time>2021-06-24T16:20:13Z</time>
        <extensions>
          <gpxtpx:TrackPointExtension xmlns:gpxtpx="http://www.garmin.com/xmlschemas/TrackPointExtension/v1">
            <gpxtpx:hr>118</gpxtpx:hr>
          </gpxtpx:TrackPointExtension>
        </extensions>
      </trkpt>
      <trkpt lat="50.53837" lon="2.62632">
        <ele>20.4</ele>
        <time>2021-06-24T16:20:14Z</time>
        <extensions>
          <gpxtpx:TrackPointExtension xmlns:gpxtpx="http://www.garmin.com/xmlschemas/TrackPointExtension/v1">
            <gpxtpx:hr>118</gpxtpx:hr>
          </gpxtpx:TrackPointExtension>
        </extensions>
      </trkpt>
      <trkpt lat="50.53841" lon="2.62638">
        <ele>20.4</ele>
        <time>2021-06-24T16:20:15Z</time>
        <extensions>
          <gpxtpx:TrackPointExtension xmlns:gpxtpx="http://www.garmin.com/xmlschemas/TrackPointExtension/v1">
            <gpxtpx:hr>118</gpxtpx:hr>
          </gpxtpx:TrackPointExtension>
        </extensions>
      </trkpt>
      <trkpt lat="50.53844" lon="2.62645">
        <ele>20.4</ele>
        <time>2021-06-24T16:20:16Z</time>
        <extensions>
          <gpxtpx:TrackPointExtension xmlns:gpxtpx="http://www.garmin.com/xmlschemas/TrackPointExtension/v1">
            <gpxtpx:hr>118</gpxtpx:hr>
          </gpxtpx:TrackPointExtension>
        </extensions>
      </trkpt>
      <trkpt lat="50.53847" lon="2.62652">
        <ele>20.2</ele>
        <time>2021-06-24T16:20:17Z</time>
        <extensions>
          <gpxtpx:TrackPointExtension xmlns:gpxtpx="http://www.garmin.com/xmlschemas/TrackPointExtension/v1">
            <gpxtpx:hr>118</gpxtpx:hr>
          </gpxtpx:TrackPointExtension>
        </extensions>
      </trkpt>
      <trkpt lat="50.5385" lon="2.62659">
        <ele>20.2</ele>
        <time>2021-06-24T16:20:18Z</time>
        <extensions>
          <gpxtpx:TrackPointExtension xmlns:gpxtpx="http://www.garmin.com/xmlschemas/TrackPointExtension/v1">
            <gpxtpx:hr>119</gpxtpx:hr>
          </gpxtpx:TrackPointExtension>
        </extensions>
      </trkpt>
      <trkpt lat="50.53854" lon="2.62665">
        <ele>20.2</ele>
        <time>2021-06-24T16:20:19Z</time>
        <extensions>
          <gpxtpx:TrackPointExtension xmlns:gpxtpx="http://www.garmin.com/xmlschemas/TrackPointExtension/v1">
            <gpxtpx:hr>119</gpxtpx:hr>
          </gpxtpx:TrackPointExtension>
        </extensions>
      </trkpt>
      <trkpt lat="50.53857" lon="2.62672">
        <ele>20.2</ele>
        <time>2021-06-24T16:20:20Z</time>
        <extensions>
          <gpxtpx:TrackPointExtension xmlns:gpxtpx="http://www.garmin.com/xmlschemas/TrackPointExtension/v1">
            <gpxtpx:hr>119</gpxtpx:hr>
          </gpxtpx:TrackPointExtension>
        </extensions>
      </trkpt>
      <trkpt lat="50.53861" lon="2.62678">
        <ele>20</ele>
        <time>2021-06-24T16:20:21Z</time>
        <extensions>
          <gpxtpx:TrackPointExtension xmlns:gpxtpx="http://www.garmin.com/xmlschemas/TrackPointExtension/v1">
            <gpxtpx:hr>119</gpxtpx:hr>
          </gpxtpx:TrackPointExtension>
        </extensions>
      </trkpt>
      <trkpt lat="50.53865" lon="2.62685">
        <ele>20</ele>
        <time>2021-06-24T16:20:22Z</time>
        <extensions>
          <gpxtpx:TrackPointExtension xmlns:gpxtpx="http://www.garmin.com/xmlschemas/TrackPointExtension/v1">
            <gpxtpx:hr>119</gpxtpx:hr>
          </gpxtpx:TrackPointExtension>
        </extensions>
      </trkpt>
      <trkpt lat="50.53868" lon="2.62691">
        <ele>20</ele>
        <time>2021-06-24T16:20:23Z</time>
        <extensions>
          <gpxtpx:TrackPointExtension xmlns:gpxtpx="http://www.garmin.com/xmlschemas/TrackPointExtension/v1">
            <gpxtpx:hr>119</gpxtpx:hr>
          </gpxtpx:TrackPointExtension>
        </extensions>
      </trkpt>
      <trkpt lat="50.53872" lon="2.62697">
        <ele>20</ele>
        <time>2021-06-24T16:20:24Z</time>
        <extensions>
          <gpxtpx:TrackPointExtension xmlns:gpxtpx="http://www.garmin.com/xmlschemas/TrackPointExtension/v1">
            <gpxtpx:hr>119</gpxtpx:hr>
          </gpxtpx:TrackPointExtension>
        </extensions>
      </trkpt>
      <trkpt lat="50.53876" lon="2.62704">
        <ele>20</ele>
        <time>2021-06-24T16:20:25Z</time>
        <extensions>
          <gpxtpx:TrackPointExtension xmlns:gpxtpx="http://www.garmin.com/xmlschemas/TrackPointExtension/v1">
            <gpxtpx:hr>119</gpxtpx:hr>
          </gpxtpx:TrackPointExtension>
        </extensions>
      </trkpt>
      <trkpt lat="50.5388" lon="2.6271">
        <ele>20</ele>
        <time>2021-06-24T16:20:26Z</time>
        <extensions>
          <gpxtpx:TrackPointExtension xmlns:gpxtpx="http://www.garmin.com/xmlschemas/TrackPointExtension/v1">
            <gpxtpx:hr>119</gpxtpx:hr>
          </gpxtpx:TrackPointExtension>
        </extensions>
      </trkpt>
      <trkpt lat="50.53884" lon="2.62717">
        <ele>20</ele>
        <time>2021-06-24T16:20:27Z</time>
        <extensions>
          <gpxtpx:TrackPointExtension xmlns:gpxtpx="http://www.garmin.com/xmlschemas/TrackPointExtension/v1">
            <gpxtpx:hr>119</gpxtpx:hr>
          </gpxtpx:TrackPointExtension>
        </extensions>
      </trkpt>
      <trkpt lat="50.53887" lon="2.62724">
        <ele>20</ele>
        <time>2021-06-24T16:20:28Z</time>
        <extensions>
          <gpxtpx:TrackPointExtension xmlns:gpxtpx="http://www.garmin.com/xmlschemas/TrackPointExtension/v1">
            <gpxtpx:hr>120</gpxtpx:hr>
          </gpxtpx:TrackPointExtension>
        </extensions>
      </trkpt>
      <trkpt lat="50.5389" lon="2.62731">
        <ele>20</ele>
        <time>2021-06-24T16:20:29Z</time>
        <extensions>
          <gpxtpx:TrackPointExtension xmlns:gpxtpx="http://www.garmin.com/xmlschemas/TrackPointExtension/v1">
            <gpxtpx:hr>120</gpxtpx:hr>
          </gpxtpx:TrackPointExtension>
        </extensions>
      </trkpt>
      <trkpt lat="50.53893" lon="2.62738">
        <ele>20.2</ele>
        <time>2021-06-24T16:20:30Z</time>
        <extensions>
          <gpxtpx:TrackPointExtension xmlns:gpxtpx="http://www.garmin.com/xmlschemas/TrackPointExtension/v1">
            <gpxtpx:hr>120</gpxtpx:hr>
          </gpxtpx:TrackPointExtension>
        </extensions>
      </trkpt>
      <trkpt lat="50.53897" lon="2.62744">
        <ele>20.2</ele>
        <time>2021-06-24T16:20:31Z</time>
        <extensions>
          <gpxtpx:TrackPointExtension xmlns:gpxtpx="http://www.garmin.com/xmlschemas/TrackPointExtension/v1">
            <gpxtpx:hr>120</gpxtpx:hr>
          </gpxtpx:TrackPointExtension>
        </extensions>
      </trkpt>
      <trkpt lat="50.53901" lon="2.6275">
        <ele>20.2</ele>
        <time>2021-06-24T16:20:32Z</time>
        <extensions>
          <gpxtpx:TrackPointExtension xmlns:gpxtpx="http://www.garmin.com/xmlschemas/TrackPointExtension/v1">
            <gpxtpx:hr>120</gpxtpx:hr>
          </gpxtpx:TrackPointExtension>
        </extensions>
      </trkpt>
      <trkpt lat="50.53904" lon="2.62757">
        <ele>20.2</ele>
        <time>2021-06-24T16:20:33Z</time>
        <extensions>
          <gpxtpx:TrackPointExtension xmlns:gpxtpx="http://www.garmin.com/xmlschemas/TrackPointExtension/v1">
            <gpxtpx:hr>120</gpxtpx:hr>
          </gpxtpx:TrackPointExtension>
        </extensions>
      </trkpt>
      <trkpt lat="50.53908" lon="2.62763">
        <ele>20.2</ele>
        <time>2021-06-24T16:20:34Z</time>
        <extensions>
          <gpxtpx:TrackPointExtension xmlns:gpxtpx="http://www.garmin.com/xmlschemas/TrackPointExtension/v1">
            <gpxtpx:hr>120</gpxtpx:hr>
          </gpxtpx:TrackPointExtension>
        </extensions>
      </trkpt>
      <trkpt lat="50.53911" lon="2.62769">
        <ele>20.2</ele>
        <time>2021-06-24T16:20:35Z</time>
        <extensions>
          <gpxtpx:TrackPointExtension xmlns:gpxtpx="http://www.garmin.com/xmlschemas/TrackPointExtension/v1">
            <gpxtpx:hr>120</gpxtpx:hr>
          </gpxtpx:TrackPointExtension>
        </extensions>
      </trkpt>
      <trkpt lat="50.53914" lon="2.62773">
        <ele>20.2</ele>
        <time>2021-06-24T16:20:36Z</time>
        <extensions>
          <gpxtpx:TrackPointExtension xmlns:gpxtpx="http://www.garmin.com/xmlschemas/TrackPointExtension/v1">
            <gpxtpx:hr>120</gpxtpx:hr>
          </gpxtpx:TrackPointExtension>
        </extensions>
      </trkpt>
      <trkpt lat="50.53916" lon="2.62776">
        <ele>20.2</ele>
        <time>2021-06-24T16:20:37Z</time>
        <extensions>
          <gpxtpx:TrackPointExtension xmlns:gpxtpx="http://www.garmin.com/xmlschemas/TrackPointExtension/v1">
            <gpxtpx:hr>120</gpxtpx:hr>
          </gpxtpx:TrackPointExtension>
        </extensions>
      </trkpt>
      <trkpt lat="50.53917" lon="2.6278">
        <ele>20.2</ele>
        <time>2021-06-24T16:20:38Z</time>
        <extensions>
          <gpxtpx:TrackPointExtension xmlns:gpxtpx="http://www.garmin.com/xmlschemas/TrackPointExtension/v1">
            <gpxtpx:hr>120</gpxtpx:hr>
          </gpxtpx:TrackPointExtension>
        </extensions>
      </trkpt>
      <trkpt lat="50.53919" lon="2.62783">
        <ele>20</ele>
        <time>2021-06-24T16:20:39Z</time>
        <extensions>
          <gpxtpx:TrackPointExtension xmlns:gpxtpx="http://www.garmin.com/xmlschemas/TrackPointExtension/v1">
            <gpxtpx:hr>120</gpxtpx:hr>
          </gpxtpx:TrackPointExtension>
        </extensions>
      </trkpt>
      <trkpt lat="50.53921" lon="2.62786">
        <ele>20</ele>
        <time>2021-06-24T16:20:40Z</time>
        <extensions>
          <gpxtpx:TrackPointExtension xmlns:gpxtpx="http://www.garmin.com/xmlschemas/TrackPointExtension/v1">
            <gpxtpx:hr>120</gpxtpx:hr>
          </gpxtpx:TrackPointExtension>
        </extensions>
      </trkpt>
      <trkpt lat="50.53923" lon="2.62788">
        <ele>20</ele>
        <time>2021-06-24T16:20:41Z</time>
        <extensions>
          <gpxtpx:TrackPointExtension xmlns:gpxtpx="http://www.garmin.com/xmlschemas/TrackPointExtension/v1">
            <gpxtpx:hr>120</gpxtpx:hr>
          </gpxtpx:TrackPointExtension>
        </extensions>
      </trkpt>
      <trkpt lat="50.53924" lon="2.62791">
        <ele>20</ele>
        <time>2021-06-24T16:20:42Z</time>
        <extensions>
          <gpxtpx:TrackPointExtension xmlns:gpxtpx="http://www.garmin.com/xmlschemas/TrackPointExtension/v1">
            <gpxtpx:hr>120</gpxtpx:hr>
          </gpxtpx:TrackPointExtension>
        </extensions>
      </trkpt>
      <trkpt lat="50.53925" lon="2.62794">
        <ele>20</ele>
        <time>2021-06-24T16:20:43Z</time>
        <extensions>
          <gpxtpx:TrackPointExtension xmlns:gpxtpx="http://www.garmin.com/xmlschemas/TrackPointExtension/v1">
            <gpxtpx:hr>120</gpxtpx:hr>
          </gpxtpx:TrackPointExtension>
        </extensions>
      </trkpt>
      <trkpt lat="50.53926" lon="2.62797">
        <ele>20</ele>
        <time>2021-06-24T16:20:44Z</time>
        <extensions>
          <gpxtpx:TrackPointExtension xmlns:gpxtpx="http://www.garmin.com/xmlschemas/TrackPointExtension/v1">
            <gpxtpx:hr>121</gpxtpx:hr>
          </gpxtpx:TrackPointExtension>
        </extensions>
      </trkpt>
      <trkpt lat="50.53927" lon="2.628">
        <ele>20</ele>
        <time>2021-06-24T16:20:45Z</time>
        <extensions>
          <gpxtpx:TrackPointExtension xmlns:gpxtpx="http://www.garmin.com/xmlschemas/TrackPointExtension/v1">
            <gpxtpx:hr>121</gpxtpx:hr>
          </gpxtpx:TrackPointExtension>
        </extensions>
      </trkpt>
      <trkpt lat="50.53928" lon="2.62804">
        <ele>20</ele>
        <time>2021-06-24T16:20:46Z</time>
        <extensions>
          <gpxtpx:TrackPointExtension xmlns:gpxtpx="http://www.garmin.com/xmlschemas/TrackPointExtension/v1">
            <gpxtpx:hr>121</gpxtpx:hr>
          </gpxtpx:TrackPointExtension>
        </extensions>
      </trkpt>
      <trkpt lat="50.53929" lon="2.62808">
        <ele>20</ele>
        <time>2021-06-24T16:20:47Z</time>
        <extensions>
          <gpxtpx:TrackPointExtension xmlns:gpxtpx="http://www.garmin.com/xmlschemas/TrackPointExtension/v1">
            <gpxtpx:hr>121</gpxtpx:hr>
          </gpxtpx:TrackPointExtension>
        </extensions>
      </trkpt>
      <trkpt lat="50.5393" lon="2.62813">
        <ele>20</ele>
        <time>2021-06-24T16:20:48Z</time>
        <extensions>
          <gpxtpx:TrackPointExtension xmlns:gpxtpx="http://www.garmin.com/xmlschemas/TrackPointExtension/v1">
            <gpxtpx:hr>120</gpxtpx:hr>
          </gpxtpx:TrackPointExtension>
        </extensions>
      </trkpt>
      <trkpt lat="50.53932" lon="2.62818">
        <ele>19.8</ele>
        <time>2021-06-24T16:20:49Z</time>
        <extensions>
          <gpxtpx:TrackPointExtension xmlns:gpxtpx="http://www.garmin.com/xmlschemas/TrackPointExtension/v1">
            <gpxtpx:hr>120</gpxtpx:hr>
          </gpxtpx:TrackPointExtension>
        </extensions>
      </trkpt>
      <trkpt lat="50.53934" lon="2.62823">
        <ele>19.8</ele>
        <time>2021-06-24T16:20:50Z</time>
        <extensions>
          <gpxtpx:TrackPointExtension xmlns:gpxtpx="http://www.garmin.com/xmlschemas/TrackPointExtension/v1">
            <gpxtpx:hr>119</gpxtpx:hr>
          </gpxtpx:TrackPointExtension>
        </extensions>
      </trkpt>
      <trkpt lat="50.53937" lon="2.62827">
        <ele>19.8</ele>
        <time>2021-06-24T16:20:51Z</time>
        <extensions>
          <gpxtpx:TrackPointExtension xmlns:gpxtpx="http://www.garmin.com/xmlschemas/TrackPointExtension/v1">
            <gpxtpx:hr>119</gpxtpx:hr>
          </gpxtpx:TrackPointExtension>
        </extensions>
      </trkpt>
      <trkpt lat="50.53941" lon="2.62829">
        <ele>19.8</ele>
        <time>2021-06-24T16:20:52Z</time>
        <extensions>
          <gpxtpx:TrackPointExtension xmlns:gpxtpx="http://www.garmin.com/xmlschemas/TrackPointExtension/v1">
            <gpxtpx:hr>118</gpxtpx:hr>
          </gpxtpx:TrackPointExtension>
        </extensions>
      </trkpt>
      <trkpt lat="50.53945" lon="2.6283">
        <ele>19.8</ele>
        <time>2021-06-24T16:20:53Z</time>
        <extensions>
          <gpxtpx:TrackPointExtension xmlns:gpxtpx="http://www.garmin.com/xmlschemas/TrackPointExtension/v1">
            <gpxtpx:hr>118</gpxtpx:hr>
          </gpxtpx:TrackPointExtension>
        </extensions>
      </trkpt>
      <trkpt lat="50.53949" lon="2.62832">
        <ele>19.8</ele>
        <time>2021-06-24T16:20:54Z</time>
        <extensions>
          <gpxtpx:TrackPointExtension xmlns:gpxtpx="http://www.garmin.com/xmlschemas/TrackPointExtension/v1">
            <gpxtpx:hr>118</gpxtpx:hr>
          </gpxtpx:TrackPointExtension>
        </extensions>
      </trkpt>
      <trkpt lat="50.53953" lon="2.62834">
        <ele>19.8</ele>
        <time>2021-06-24T16:20:55Z</time>
        <extensions>
          <gpxtpx:TrackPointExtension xmlns:gpxtpx="http://www.garmin.com/xmlschemas/TrackPointExtension/v1">
            <gpxtpx:hr>118</gpxtpx:hr>
          </gpxtpx:TrackPointExtension>
        </extensions>
      </trkpt>
      <trkpt lat="50.53956" lon="2.62839">
        <ele>19.8</ele>
        <time>2021-06-24T16:20:56Z</time>
        <extensions>
          <gpxtpx:TrackPointExtension xmlns:gpxtpx="http://www.garmin.com/xmlschemas/TrackPointExtension/v1">
            <gpxtpx:hr>118</gpxtpx:hr>
          </gpxtpx:TrackPointExtension>
        </extensions>
      </trkpt>
      <trkpt lat="50.5396" lon="2.62844">
        <ele>19.8</ele>
        <time>2021-06-24T16:20:57Z</time>
        <extensions>
          <gpxtpx:TrackPointExtension xmlns:gpxtpx="http://www.garmin.com/xmlschemas/TrackPointExtension/v1">
            <gpxtpx:hr>118</gpxtpx:hr>
          </gpxtpx:TrackPointExtension>
        </extensions>
      </trkpt>
      <trkpt lat="50.53964" lon="2.6285">
        <ele>19.8</ele>
        <time>2021-06-24T16:20:58Z</time>
        <extensions>
          <gpxtpx:TrackPointExtension xmlns:gpxtpx="http://www.garmin.com/xmlschemas/TrackPointExtension/v1">
            <gpxtpx:hr>118</gpxtpx:hr>
          </gpxtpx:TrackPointExtension>
        </extensions>
      </trkpt>
      <trkpt lat="50.53967" lon="2.62856">
        <ele>19.8</ele>
        <time>2021-06-24T16:20:59Z</time>
        <extensions>
          <gpxtpx:TrackPointExtension xmlns:gpxtpx="http://www.garmin.com/xmlschemas/TrackPointExtension/v1">
            <gpxtpx:hr>118</gpxtpx:hr>
          </gpxtpx:TrackPointExtension>
        </extensions>
      </trkpt>
      <trkpt lat="50.53971" lon="2.62862">
        <ele>19.8</ele>
        <time>2021-06-24T16:21:00Z</time>
        <extensions>
          <gpxtpx:TrackPointExtension xmlns:gpxtpx="http://www.garmin.com/xmlschemas/TrackPointExtension/v1">
            <gpxtpx:hr>117</gpxtpx:hr>
          </gpxtpx:TrackPointExtension>
        </extensions>
      </trkpt>
      <trkpt lat="50.53975" lon="2.62869">
        <ele>19.8</ele>
        <time>2021-06-24T16:21:01Z</time>
        <extensions>
          <gpxtpx:TrackPointExtension xmlns:gpxtpx="http://www.garmin.com/xmlschemas/TrackPointExtension/v1">
            <gpxtpx:hr>117</gpxtpx:hr>
          </gpxtpx:TrackPointExtension>
        </extensions>
      </trkpt>
      <trkpt lat="50.53978" lon="2.62875">
        <ele>19.8</ele>
        <time>2021-06-24T16:21:02Z</time>
        <extensions>
          <gpxtpx:TrackPointExtension xmlns:gpxtpx="http://www.garmin.com/xmlschemas/TrackPointExtension/v1">
            <gpxtpx:hr>117</gpxtpx:hr>
          </gpxtpx:TrackPointExtension>
        </extensions>
      </trkpt>
      <trkpt lat="50.53982" lon="2.62882">
        <ele>19.6</ele>
        <time>2021-06-24T16:21:03Z</time>
        <extensions>
          <gpxtpx:TrackPointExtension xmlns:gpxtpx="http://www.garmin.com/xmlschemas/TrackPointExtension/v1">
            <gpxtpx:hr>117</gpxtpx:hr>
          </gpxtpx:TrackPointExtension>
        </extensions>
      </trkpt>
      <trkpt lat="50.53986" lon="2.62889">
        <ele>19.6</ele>
        <time>2021-06-24T16:21:04Z</time>
        <extensions>
          <gpxtpx:TrackPointExtension xmlns:gpxtpx="http://www.garmin.com/xmlschemas/TrackPointExtension/v1">
            <gpxtpx:hr>116</gpxtpx:hr>
          </gpxtpx:TrackPointExtension>
        </extensions>
      </trkpt>
      <trkpt lat="50.5399" lon="2.62897">
        <ele>19.6</ele>
        <time>2021-06-24T16:21:05Z</time>
        <extensions>
          <gpxtpx:TrackPointExtension xmlns:gpxtpx="http://www.garmin.com/xmlschemas/TrackPointExtension/v1">
            <gpxtpx:hr>116</gpxtpx:hr>
          </gpxtpx:TrackPointExtension>
        </extensions>
      </trkpt>
      <trkpt lat="50.53994" lon="2.62905">
        <ele>19.6</ele>
        <time>2021-06-24T16:21:06Z</time>
        <extensions>
          <gpxtpx:TrackPointExtension xmlns:gpxtpx="http://www.garmin.com/xmlschemas/TrackPointExtension/v1">
            <gpxtpx:hr>116</gpxtpx:hr>
          </gpxtpx:TrackPointExtension>
        </extensions>
      </trkpt>
      <trkpt lat="50.53997" lon="2.62912">
        <ele>19.6</ele>
        <time>2021-06-24T16:21:07Z</time>
        <extensions>
          <gpxtpx:TrackPointExtension xmlns:gpxtpx="http://www.garmin.com/xmlschemas/TrackPointExtension/v1">
            <gpxtpx:hr>116</gpxtpx:hr>
          </gpxtpx:TrackPointExtension>
        </extensions>
      </trkpt>
      <trkpt lat="50.54" lon="2.6292">
        <ele>19.6</ele>
        <time>2021-06-24T16:21:08Z</time>
        <extensions>
          <gpxtpx:TrackPointExtension xmlns:gpxtpx="http://www.garmin.com/xmlschemas/TrackPointExtension/v1">
            <gpxtpx:hr>116</gpxtpx:hr>
          </gpxtpx:TrackPointExtension>
        </extensions>
      </trkpt>
      <trkpt lat="50.54003" lon="2.62928">
        <ele>19.6</ele>
        <time>2021-06-24T16:21:09Z</time>
        <extensions>
          <gpxtpx:TrackPointExtension xmlns:gpxtpx="http://www.garmin.com/xmlschemas/TrackPointExtension/v1">
            <gpxtpx:hr>116</gpxtpx:hr>
          </gpxtpx:TrackPointExtension>
        </extensions>
      </trkpt>
      <trkpt lat="50.54006" lon="2.62936">
        <ele>19.6</ele>
        <time>2021-06-24T16:21:10Z</time>
        <extensions>
          <gpxtpx:TrackPointExtension xmlns:gpxtpx="http://www.garmin.com/xmlschemas/TrackPointExtension/v1">
            <gpxtpx:hr>116</gpxtpx:hr>
          </gpxtpx:TrackPointExtension>
        </extensions>
      </trkpt>
      <trkpt lat="50.5401" lon="2.62943">
        <ele>19.6</ele>
        <time>2021-06-24T16:21:11Z</time>
        <extensions>
          <gpxtpx:TrackPointExtension xmlns:gpxtpx="http://www.garmin.com/xmlschemas/TrackPointExtension/v1">
            <gpxtpx:hr>116</gpxtpx:hr>
          </gpxtpx:TrackPointExtension>
        </extensions>
      </trkpt>
      <trkpt lat="50.54014" lon="2.62951">
        <ele>19.4</ele>
        <time>2021-06-24T16:21:12Z</time>
        <extensions>
          <gpxtpx:TrackPointExtension xmlns:gpxtpx="http://www.garmin.com/xmlschemas/TrackPointExtension/v1">
            <gpxtpx:hr>117</gpxtpx:hr>
          </gpxtpx:TrackPointExtension>
        </extensions>
      </trkpt>
      <trkpt lat="50.54018" lon="2.62958">
        <ele>19.4</ele>
        <time>2021-06-24T16:21:13Z</time>
        <extensions>
          <gpxtpx:TrackPointExtension xmlns:gpxtpx="http://www.garmin.com/xmlschemas/TrackPointExtension/v1">
            <gpxtpx:hr>117</gpxtpx:hr>
          </gpxtpx:TrackPointExtension>
        </extensions>
      </trkpt>
      <trkpt lat="50.54021" lon="2.62965">
        <ele>19.4</ele>
        <time>2021-06-24T16:21:14Z</time>
        <extensions>
          <gpxtpx:TrackPointExtension xmlns:gpxtpx="http://www.garmin.com/xmlschemas/TrackPointExtension/v1">
            <gpxtpx:hr>117</gpxtpx:hr>
          </gpxtpx:TrackPointExtension>
        </extensions>
      </trkpt>
      <trkpt lat="50.54026" lon="2.62971">
        <ele>19.4</ele>
        <time>2021-06-24T16:21:15Z</time>
        <extensions>
          <gpxtpx:TrackPointExtension xmlns:gpxtpx="http://www.garmin.com/xmlschemas/TrackPointExtension/v1">
            <gpxtpx:hr>117</gpxtpx:hr>
          </gpxtpx:TrackPointExtension>
        </extensions>
      </trkpt>
      <trkpt lat="50.5403" lon="2.62978">
        <ele>19.4</ele>
        <time>2021-06-24T16:21:16Z</time>
        <extensions>
          <gpxtpx:TrackPointExtension xmlns:gpxtpx="http://www.garmin.com/xmlschemas/TrackPointExtension/v1">
            <gpxtpx:hr>117</gpxtpx:hr>
          </gpxtpx:TrackPointExtension>
        </extensions>
      </trkpt>
      <trkpt lat="50.54034" lon="2.62985">
        <ele>19.6</ele>
        <time>2021-06-24T16:21:17Z</time>
        <extensions>
          <gpxtpx:TrackPointExtension xmlns:gpxtpx="http://www.garmin.com/xmlschemas/TrackPointExtension/v1">
            <gpxtpx:hr>117</gpxtpx:hr>
          </gpxtpx:TrackPointExtension>
        </extensions>
      </trkpt>
      <trkpt lat="50.54037" lon="2.62993">
        <ele>19.6</ele>
        <time>2021-06-24T16:21:18Z</time>
        <extensions>
          <gpxtpx:TrackPointExtension xmlns:gpxtpx="http://www.garmin.com/xmlschemas/TrackPointExtension/v1">
            <gpxtpx:hr>118</gpxtpx:hr>
          </gpxtpx:TrackPointExtension>
        </extensions>
      </trkpt>
      <trkpt lat="50.54041" lon="2.63">
        <ele>19.6</ele>
        <time>2021-06-24T16:21:19Z</time>
        <extensions>
          <gpxtpx:TrackPointExtension xmlns:gpxtpx="http://www.garmin.com/xmlschemas/TrackPointExtension/v1">
            <gpxtpx:hr>118</gpxtpx:hr>
          </gpxtpx:TrackPointExtension>
        </extensions>
      </trkpt>
      <trkpt lat="50.54043" lon="2.63006">
        <ele>19.6</ele>
        <time>2021-06-24T16:21:20Z</time>
        <extensions>
          <gpxtpx:TrackPointExtension xmlns:gpxtpx="http://www.garmin.com/xmlschemas/TrackPointExtension/v1">
            <gpxtpx:hr>118</gpxtpx:hr>
          </gpxtpx:TrackPointExtension>
        </extensions>
      </trkpt>
      <trkpt lat="50.54046" lon="2.63012">
        <ele>19.6</ele>
        <time>2021-06-24T16:21:21Z</time>
        <extensions>
          <gpxtpx:TrackPointExtension xmlns:gpxtpx="http://www.garmin.com/xmlschemas/TrackPointExtension/v1">
            <gpxtpx:hr>118</gpxtpx:hr>
          </gpxtpx:TrackPointExtension>
        </extensions>
      </trkpt>
      <trkpt lat="50.5405" lon="2.63017">
        <ele>19.6</ele>
        <time>2021-06-24T16:21:22Z</time>
        <extensions>
          <gpxtpx:TrackPointExtension xmlns:gpxtpx="http://www.garmin.com/xmlschemas/TrackPointExtension/v1">
            <gpxtpx:hr>118</gpxtpx:hr>
          </gpxtpx:TrackPointExtension>
        </extensions>
      </trkpt>
      <trkpt lat="50.54053" lon="2.63024">
        <ele>19.6</ele>
        <time>2021-06-24T16:21:23Z</time>
        <extensions>
          <gpxtpx:TrackPointExtension xmlns:gpxtpx="http://www.garmin.com/xmlschemas/TrackPointExtension/v1">
            <gpxtpx:hr>118</gpxtpx:hr>
          </gpxtpx:TrackPointExtension>
        </extensions>
      </trkpt>
      <trkpt lat="50.54056" lon="2.6303">
        <ele>19.6</ele>
        <time>2021-06-24T16:21:24Z</time>
        <extensions>
          <gpxtpx:TrackPointExtension xmlns:gpxtpx="http://www.garmin.com/xmlschemas/TrackPointExtension/v1">
            <gpxtpx:hr>118</gpxtpx:hr>
          </gpxtpx:TrackPointExtension>
        </extensions>
      </trkpt>
      <trkpt lat="50.54059" lon="2.63036">
        <ele>19.6</ele>
        <time>2021-06-24T16:21:25Z</time>
        <extensions>
          <gpxtpx:TrackPointExtension xmlns:gpxtpx="http://www.garmin.com/xmlschemas/TrackPointExtension/v1">
            <gpxtpx:hr>118</gpxtpx:hr>
          </gpxtpx:TrackPointExtension>
        </extensions>
      </trkpt>
      <trkpt lat="50.54061" lon="2.63042">
        <ele>19.6</ele>
        <time>2021-06-24T16:21:26Z</time>
        <extensions>
          <gpxtpx:TrackPointExtension xmlns:gpxtpx="http://www.garmin.com/xmlschemas/TrackPointExtension/v1">
            <gpxtpx:hr>119</gpxtpx:hr>
          </gpxtpx:TrackPointExtension>
        </extensions>
      </trkpt>
      <trkpt lat="50.54064" lon="2.63048">
        <ele>19.6</ele>
        <time>2021-06-24T16:21:27Z</time>
        <extensions>
          <gpxtpx:TrackPointExtension xmlns:gpxtpx="http://www.garmin.com/xmlschemas/TrackPointExtension/v1">
            <gpxtpx:hr>119</gpxtpx:hr>
          </gpxtpx:TrackPointExtension>
        </extensions>
      </trkpt>
      <trkpt lat="50.5407" lon="2.6306">
        <ele>19.4</ele>
        <time>2021-06-24T16:21:29Z</time>
        <extensions>
          <gpxtpx:TrackPointExtension xmlns:gpxtpx="http://www.garmin.com/xmlschemas/TrackPointExtension/v1">
            <gpxtpx:hr>119</gpxtpx:hr>
          </gpxtpx:TrackPointExtension>
        </extensions>
      </trkpt>
      <trkpt lat="50.54073" lon="2.63067">
        <ele>19.4</ele>
        <time>2021-06-24T16:21:30Z</time>
        <extensions>
          <gpxtpx:TrackPointExtension xmlns:gpxtpx="http://www.garmin.com/xmlschemas/TrackPointExtension/v1">
            <gpxtpx:hr>119</gpxtpx:hr>
          </gpxtpx:TrackPointExtension>
        </extensions>
      </trkpt>
      <trkpt lat="50.54074" lon="2.63075">
        <ele>19.4</ele>
        <time>2021-06-24T16:21:31Z</time>
        <extensions>
          <gpxtpx:TrackPointExtension xmlns:gpxtpx="http://www.garmin.com/xmlschemas/TrackPointExtension/v1">
            <gpxtpx:hr>120</gpxtpx:hr>
          </gpxtpx:TrackPointExtension>
        </extensions>
      </trkpt>
      <trkpt lat="50.54075" lon="2.63083">
        <ele>19.2</ele>
        <time>2021-06-24T16:21:32Z</time>
        <extensions>
          <gpxtpx:TrackPointExtension xmlns:gpxtpx="http://www.garmin.com/xmlschemas/TrackPointExtension/v1">
            <gpxtpx:hr>120</gpxtpx:hr>
          </gpxtpx:TrackPointExtension>
        </extensions>
      </trkpt>
      <trkpt lat="50.54075" lon="2.63091">
        <ele>19.2</ele>
        <time>2021-06-24T16:21:33Z</time>
        <extensions>
          <gpxtpx:TrackPointExtension xmlns:gpxtpx="http://www.garmin.com/xmlschemas/TrackPointExtension/v1">
            <gpxtpx:hr>120</gpxtpx:hr>
          </gpxtpx:TrackPointExtension>
        </extensions>
      </trkpt>
      <trkpt lat="50.54076" lon="2.63099">
        <ele>19.2</ele>
        <time>2021-06-24T16:21:34Z</time>
        <extensions>
          <gpxtpx:TrackPointExtension xmlns:gpxtpx="http://www.garmin.com/xmlschemas/TrackPointExtension/v1">
            <gpxtpx:hr>120</gpxtpx:hr>
          </gpxtpx:TrackPointExtension>
        </extensions>
      </trkpt>
      <trkpt lat="50.54078" lon="2.63106">
        <ele>19.2</ele>
        <time>2021-06-24T16:21:35Z</time>
        <extensions>
          <gpxtpx:TrackPointExtension xmlns:gpxtpx="http://www.garmin.com/xmlschemas/TrackPointExtension/v1">
            <gpxtpx:hr>121</gpxtpx:hr>
          </gpxtpx:TrackPointExtension>
        </extensions>
      </trkpt>
      <trkpt lat="50.54081" lon="2.63113">
        <ele>19.2</ele>
        <time>2021-06-24T16:21:36Z</time>
        <extensions>
          <gpxtpx:TrackPointExtension xmlns:gpxtpx="http://www.garmin.com/xmlschemas/TrackPointExtension/v1">
            <gpxtpx:hr>121</gpxtpx:hr>
          </gpxtpx:TrackPointExtension>
        </extensions>
      </trkpt>
      <trkpt lat="50.54084" lon="2.6312">
        <ele>19.2</ele>
        <time>2021-06-24T16:21:37Z</time>
        <extensions>
          <gpxtpx:TrackPointExtension xmlns:gpxtpx="http://www.garmin.com/xmlschemas/TrackPointExtension/v1">
            <gpxtpx:hr>121</gpxtpx:hr>
          </gpxtpx:TrackPointExtension>
        </extensions>
      </trkpt>
      <trkpt lat="50.54087" lon="2.63126">
        <ele>19</ele>
        <time>2021-06-24T16:21:38Z</time>
        <extensions>
          <gpxtpx:TrackPointExtension xmlns:gpxtpx="http://www.garmin.com/xmlschemas/TrackPointExtension/v1">
            <gpxtpx:hr>121</gpxtpx:hr>
          </gpxtpx:TrackPointExtension>
        </extensions>
      </trkpt>
      <trkpt lat="50.54091" lon="2.63132">
        <ele>19</ele>
        <time>2021-06-24T16:21:39Z</time>
        <extensions>
          <gpxtpx:TrackPointExtension xmlns:gpxtpx="http://www.garmin.com/xmlschemas/TrackPointExtension/v1">
            <gpxtpx:hr>121</gpxtpx:hr>
          </gpxtpx:TrackPointExtension>
        </extensions>
      </trkpt>
      <trkpt lat="50.54095" lon="2.63139">
        <ele>19</ele>
        <time>2021-06-24T16:21:40Z</time>
        <extensions>
          <gpxtpx:TrackPointExtension xmlns:gpxtpx="http://www.garmin.com/xmlschemas/TrackPointExtension/v1">
            <gpxtpx:hr>121</gpxtpx:hr>
          </gpxtpx:TrackPointExtension>
        </extensions>
      </trkpt>
      <trkpt lat="50.54099" lon="2.63145">
        <ele>19</ele>
        <time>2021-06-24T16:21:41Z</time>
        <extensions>
          <gpxtpx:TrackPointExtension xmlns:gpxtpx="http://www.garmin.com/xmlschemas/TrackPointExtension/v1">
            <gpxtpx:hr>122</gpxtpx:hr>
          </gpxtpx:TrackPointExtension>
        </extensions>
      </trkpt>
      <trkpt lat="50.54103" lon="2.63152">
        <ele>18.8</ele>
        <time>2021-06-24T16:21:42Z</time>
        <extensions>
          <gpxtpx:TrackPointExtension xmlns:gpxtpx="http://www.garmin.com/xmlschemas/TrackPointExtension/v1">
            <gpxtpx:hr>122</gpxtpx:hr>
          </gpxtpx:TrackPointExtension>
        </extensions>
      </trkpt>
      <trkpt lat="50.54106" lon="2.63159">
        <ele>19</ele>
        <time>2021-06-24T16:21:43Z</time>
        <extensions>
          <gpxtpx:TrackPointExtension xmlns:gpxtpx="http://www.garmin.com/xmlschemas/TrackPointExtension/v1">
            <gpxtpx:hr>122</gpxtpx:hr>
          </gpxtpx:TrackPointExtension>
        </extensions>
      </trkpt>
      <trkpt lat="50.54109" lon="2.63166">
        <ele>19</ele>
        <time>2021-06-24T16:21:44Z</time>
        <extensions>
          <gpxtpx:TrackPointExtension xmlns:gpxtpx="http://www.garmin.com/xmlschemas/TrackPointExtension/v1">
            <gpxtpx:hr>122</gpxtpx:hr>
          </gpxtpx:TrackPointExtension>
        </extensions>
      </trkpt>
      <trkpt lat="50.54113" lon="2.63173">
        <ele>19</ele>
        <time>2021-06-24T16:21:45Z</time>
        <extensions>
          <gpxtpx:TrackPointExtension xmlns:gpxtpx="http://www.garmin.com/xmlschemas/TrackPointExtension/v1">
            <gpxtpx:hr>123</gpxtpx:hr>
          </gpxtpx:TrackPointExtension>
        </extensions>
      </trkpt>
      <trkpt lat="50.54116" lon="2.6318">
        <ele>19</ele>
        <time>2021-06-24T16:21:46Z</time>
        <extensions>
          <gpxtpx:TrackPointExtension xmlns:gpxtpx="http://www.garmin.com/xmlschemas/TrackPointExtension/v1">
            <gpxtpx:hr>123</gpxtpx:hr>
          </gpxtpx:TrackPointExtension>
        </extensions>
      </trkpt>
      <trkpt lat="50.54119" lon="2.63187">
        <ele>18.8</ele>
        <time>2021-06-24T16:21:47Z</time>
        <extensions>
          <gpxtpx:TrackPointExtension xmlns:gpxtpx="http://www.garmin.com/xmlschemas/TrackPointExtension/v1">
            <gpxtpx:hr>124</gpxtpx:hr>
          </gpxtpx:TrackPointExtension>
        </extensions>
      </trkpt>
      <trkpt lat="50.54123" lon="2.63194">
        <ele>18.8</ele>
        <time>2021-06-24T16:21:48Z</time>
        <extensions>
          <gpxtpx:TrackPointExtension xmlns:gpxtpx="http://www.garmin.com/xmlschemas/TrackPointExtension/v1">
            <gpxtpx:hr>124</gpxtpx:hr>
          </gpxtpx:TrackPointExtension>
        </extensions>
      </trkpt>
      <trkpt lat="50.54127" lon="2.63201">
        <ele>18.8</ele>
        <time>2021-06-24T16:21:49Z</time>
        <extensions>
          <gpxtpx:TrackPointExtension xmlns:gpxtpx="http://www.garmin.com/xmlschemas/TrackPointExtension/v1">
            <gpxtpx:hr>125</gpxtpx:hr>
          </gpxtpx:TrackPointExtension>
        </extensions>
      </trkpt>
      <trkpt lat="50.54131" lon="2.63208">
        <ele>18.6</ele>
        <time>2021-06-24T16:21:50Z</time>
        <extensions>
          <gpxtpx:TrackPointExtension xmlns:gpxtpx="http://www.garmin.com/xmlschemas/TrackPointExtension/v1">
            <gpxtpx:hr>125</gpxtpx:hr>
          </gpxtpx:TrackPointExtension>
        </extensions>
      </trkpt>
      <trkpt lat="50.54134" lon="2.63214">
        <ele>18.6</ele>
        <time>2021-06-24T16:21:51Z</time>
        <extensions>
          <gpxtpx:TrackPointExtension xmlns:gpxtpx="http://www.garmin.com/xmlschemas/TrackPointExtension/v1">
            <gpxtpx:hr>126</gpxtpx:hr>
          </gpxtpx:TrackPointExtension>
        </extensions>
      </trkpt>
      <trkpt lat="50.54137" lon="2.63221">
        <ele>18.6</ele>
        <time>2021-06-24T16:21:52Z</time>
        <extensions>
          <gpxtpx:TrackPointExtension xmlns:gpxtpx="http://www.garmin.com/xmlschemas/TrackPointExtension/v1">
            <gpxtpx:hr>126</gpxtpx:hr>
          </gpxtpx:TrackPointExtension>
        </extensions>
      </trkpt>
      <trkpt lat="50.5414" lon="2.63229">
        <ele>18.4</ele>
        <time>2021-06-24T16:21:53Z</time>
        <extensions>
          <gpxtpx:TrackPointExtension xmlns:gpxtpx="http://www.garmin.com/xmlschemas/TrackPointExtension/v1">
            <gpxtpx:hr>126</gpxtpx:hr>
          </gpxtpx:TrackPointExtension>
        </extensions>
      </trkpt>
      <trkpt lat="50.54144" lon="2.63236">
        <ele>18.4</ele>
        <time>2021-06-24T16:21:54Z</time>
        <extensions>
          <gpxtpx:TrackPointExtension xmlns:gpxtpx="http://www.garmin.com/xmlschemas/TrackPointExtension/v1">
            <gpxtpx:hr>126</gpxtpx:hr>
          </gpxtpx:TrackPointExtension>
        </extensions>
      </trkpt>
      <trkpt lat="50.54147" lon="2.63243">
        <ele>18.4</ele>
        <time>2021-06-24T16:21:55Z</time>
        <extensions>
          <gpxtpx:TrackPointExtension xmlns:gpxtpx="http://www.garmin.com/xmlschemas/TrackPointExtension/v1">
            <gpxtpx:hr>126</gpxtpx:hr>
          </gpxtpx:TrackPointExtension>
        </extensions>
      </trkpt>
      <trkpt lat="50.54151" lon="2.63249">
        <ele>18.4</ele>
        <time>2021-06-24T16:21:56Z</time>
        <extensions>
          <gpxtpx:TrackPointExtension xmlns:gpxtpx="http://www.garmin.com/xmlschemas/TrackPointExtension/v1">
            <gpxtpx:hr>127</gpxtpx:hr>
          </gpxtpx:TrackPointExtension>
        </extensions>
      </trkpt>
      <trkpt lat="50.54154" lon="2.63256">
        <ele>18.4</ele>
        <time>2021-06-24T16:21:57Z</time>
        <extensions>
          <gpxtpx:TrackPointExtension xmlns:gpxtpx="http://www.garmin.com/xmlschemas/TrackPointExtension/v1">
            <gpxtpx:hr>127</gpxtpx:hr>
          </gpxtpx:TrackPointExtension>
        </extensions>
      </trkpt>
      <trkpt lat="50.54158" lon="2.63262">
        <ele>18.4</ele>
        <time>2021-06-24T16:21:58Z</time>
        <extensions>
          <gpxtpx:TrackPointExtension xmlns:gpxtpx="http://www.garmin.com/xmlschemas/TrackPointExtension/v1">
            <gpxtpx:hr>127</gpxtpx:hr>
          </gpxtpx:TrackPointExtension>
        </extensions>
      </trkpt>
      <trkpt lat="50.54161" lon="2.63268">
        <ele>18.4</ele>
        <time>2021-06-24T16:21:59Z</time>
        <extensions>
          <gpxtpx:TrackPointExtension xmlns:gpxtpx="http://www.garmin.com/xmlschemas/TrackPointExtension/v1">
            <gpxtpx:hr>127</gpxtpx:hr>
          </gpxtpx:TrackPointExtension>
        </extensions>
      </trkpt>
      <trkpt lat="50.54164" lon="2.63275">
        <ele>18.4</ele>
        <time>2021-06-24T16:22:00Z</time>
        <extensions>
          <gpxtpx:TrackPointExtension xmlns:gpxtpx="http://www.garmin.com/xmlschemas/TrackPointExtension/v1">
            <gpxtpx:hr>128</gpxtpx:hr>
          </gpxtpx:TrackPointExtension>
        </extensions>
      </trkpt>
      <trkpt lat="50.54168" lon="2.63282">
        <ele>18.2</ele>
        <time>2021-06-24T16:22:01Z</time>
        <extensions>
          <gpxtpx:TrackPointExtension xmlns:gpxtpx="http://www.garmin.com/xmlschemas/TrackPointExtension/v1">
            <gpxtpx:hr>129</gpxtpx:hr>
          </gpxtpx:TrackPointExtension>
        </extensions>
      </trkpt>
      <trkpt lat="50.54172" lon="2.63289">
        <ele>18.2</ele>
        <time>2021-06-24T16:22:02Z</time>
        <extensions>
          <gpxtpx:TrackPointExtension xmlns:gpxtpx="http://www.garmin.com/xmlschemas/TrackPointExtension/v1">
            <gpxtpx:hr>130</gpxtpx:hr>
          </gpxtpx:TrackPointExtension>
        </extensions>
      </trkpt>
      <trkpt lat="50.54175" lon="2.63296">
        <ele>18.2</ele>
        <time>2021-06-24T16:22:03Z</time>
        <extensions>
          <gpxtpx:TrackPointExtension xmlns:gpxtpx="http://www.garmin.com/xmlschemas/TrackPointExtension/v1">
            <gpxtpx:hr>130</gpxtpx:hr>
          </gpxtpx:TrackPointExtension>
        </extensions>
      </trkpt>
      <trkpt lat="50.54179" lon="2.63302">
        <ele>18.2</ele>
        <time>2021-06-24T16:22:04Z</time>
        <extensions>
          <gpxtpx:TrackPointExtension xmlns:gpxtpx="http://www.garmin.com/xmlschemas/TrackPointExtension/v1">
            <gpxtpx:hr>131</gpxtpx:hr>
          </gpxtpx:TrackPointExtension>
        </extensions>
      </trkpt>
      <trkpt lat="50.54182" lon="2.63309">
        <ele>18</ele>
        <time>2021-06-24T16:22:05Z</time>
        <extensions>
          <gpxtpx:TrackPointExtension xmlns:gpxtpx="http://www.garmin.com/xmlschemas/TrackPointExtension/v1">
            <gpxtpx:hr>131</gpxtpx:hr>
          </gpxtpx:TrackPointExtension>
        </extensions>
      </trkpt>
      <trkpt lat="50.54186" lon="2.63316">
        <ele>18</ele>
        <time>2021-06-24T16:22:06Z</time>
        <extensions>
          <gpxtpx:TrackPointExtension xmlns:gpxtpx="http://www.garmin.com/xmlschemas/TrackPointExtension/v1">
            <gpxtpx:hr>132</gpxtpx:hr>
          </gpxtpx:TrackPointExtension>
        </extensions>
      </trkpt>
      <trkpt lat="50.54192" lon="2.6333">
        <ele>18</ele>
        <time>2021-06-24T16:22:08Z</time>
        <extensions>
          <gpxtpx:TrackPointExtension xmlns:gpxtpx="http://www.garmin.com/xmlschemas/TrackPointExtension/v1">
            <gpxtpx:hr>132</gpxtpx:hr>
          </gpxtpx:TrackPointExtension>
        </extensions>
      </trkpt>
      <trkpt lat="50.54196" lon="2.63338">
        <ele>18</ele>
        <time>2021-06-24T16:22:09Z</time>
        <extensions>
          <gpxtpx:TrackPointExtension xmlns:gpxtpx="http://www.garmin.com/xmlschemas/TrackPointExtension/v1">
            <gpxtpx:hr>132</gpxtpx:hr>
          </gpxtpx:TrackPointExtension>
        </extensions>
      </trkpt>
      <trkpt lat="50.542" lon="2.63344">
        <ele>18</ele>
        <time>2021-06-24T16:22:10Z</time>
        <extensions>
          <gpxtpx:TrackPointExtension xmlns:gpxtpx="http://www.garmin.com/xmlschemas/TrackPointExtension/v1">
            <gpxtpx:hr>132</gpxtpx:hr>
          </gpxtpx:TrackPointExtension>
        </extensions>
      </trkpt>
      <trkpt lat="50.54203" lon="2.63351">
        <ele>18</ele>
        <time>2021-06-24T16:22:11Z</time>
        <extensions>
          <gpxtpx:TrackPointExtension xmlns:gpxtpx="http://www.garmin.com/xmlschemas/TrackPointExtension/v1">
            <gpxtpx:hr>133</gpxtpx:hr>
          </gpxtpx:TrackPointExtension>
        </extensions>
      </trkpt>
      <trkpt lat="50.54207" lon="2.63358">
        <ele>18</ele>
        <time>2021-06-24T16:22:12Z</time>
        <extensions>
          <gpxtpx:TrackPointExtension xmlns:gpxtpx="http://www.garmin.com/xmlschemas/TrackPointExtension/v1">
            <gpxtpx:hr>133</gpxtpx:hr>
          </gpxtpx:TrackPointExtension>
        </extensions>
      </trkpt>
      <trkpt lat="50.5421" lon="2.63365">
        <ele>18</ele>
        <time>2021-06-24T16:22:13Z</time>
        <extensions>
          <gpxtpx:TrackPointExtension xmlns:gpxtpx="http://www.garmin.com/xmlschemas/TrackPointExtension/v1">
            <gpxtpx:hr>133</gpxtpx:hr>
          </gpxtpx:TrackPointExtension>
        </extensions>
      </trkpt>
      <trkpt lat="50.54214" lon="2.63372">
        <ele>18</ele>
        <time>2021-06-24T16:22:14Z</time>
        <extensions>
          <gpxtpx:TrackPointExtension xmlns:gpxtpx="http://www.garmin.com/xmlschemas/TrackPointExtension/v1">
            <gpxtpx:hr>133</gpxtpx:hr>
          </gpxtpx:TrackPointExtension>
        </extensions>
      </trkpt>
      <trkpt lat="50.54218" lon="2.63379">
        <ele>18</ele>
        <time>2021-06-24T16:22:15Z</time>
        <extensions>
          <gpxtpx:TrackPointExtension xmlns:gpxtpx="http://www.garmin.com/xmlschemas/TrackPointExtension/v1">
            <gpxtpx:hr>133</gpxtpx:hr>
          </gpxtpx:TrackPointExtension>
        </extensions>
      </trkpt>
      <trkpt lat="50.54221" lon="2.63386">
        <ele>18.2</ele>
        <time>2021-06-24T16:22:16Z</time>
        <extensions>
          <gpxtpx:TrackPointExtension xmlns:gpxtpx="http://www.garmin.com/xmlschemas/TrackPointExtension/v1">
            <gpxtpx:hr>133</gpxtpx:hr>
          </gpxtpx:TrackPointExtension>
        </extensions>
      </trkpt>
      <trkpt lat="50.54225" lon="2.63394">
        <ele>18.2</ele>
        <time>2021-06-24T16:22:17Z</time>
        <extensions>
          <gpxtpx:TrackPointExtension xmlns:gpxtpx="http://www.garmin.com/xmlschemas/TrackPointExtension/v1">
            <gpxtpx:hr>133</gpxtpx:hr>
          </gpxtpx:TrackPointExtension>
        </extensions>
      </trkpt>
      <trkpt lat="50.54228" lon="2.63401">
        <ele>18.2</ele>
        <time>2021-06-24T16:22:18Z</time>
        <extensions>
          <gpxtpx:TrackPointExtension xmlns:gpxtpx="http://www.garmin.com/xmlschemas/TrackPointExtension/v1">
            <gpxtpx:hr>133</gpxtpx:hr>
          </gpxtpx:TrackPointExtension>
        </extensions>
      </trkpt>
      <trkpt lat="50.54231" lon="2.63408">
        <ele>18.2</ele>
        <time>2021-06-24T16:22:19Z</time>
        <extensions>
          <gpxtpx:TrackPointExtension xmlns:gpxtpx="http://www.garmin.com/xmlschemas/TrackPointExtension/v1">
            <gpxtpx:hr>133</gpxtpx:hr>
          </gpxtpx:TrackPointExtension>
        </extensions>
      </trkpt>
      <trkpt lat="50.54235" lon="2.63415">
        <ele>18.2</ele>
        <time>2021-06-24T16:22:20Z</time>
        <extensions>
          <gpxtpx:TrackPointExtension xmlns:gpxtpx="http://www.garmin.com/xmlschemas/TrackPointExtension/v1">
            <gpxtpx:hr>133</gpxtpx:hr>
          </gpxtpx:TrackPointExtension>
        </extensions>
      </trkpt>
      <trkpt lat="50.54238" lon="2.63422">
        <ele>18.2</ele>
        <time>2021-06-24T16:22:21Z</time>
        <extensions>
          <gpxtpx:TrackPointExtension xmlns:gpxtpx="http://www.garmin.com/xmlschemas/TrackPointExtension/v1">
            <gpxtpx:hr>133</gpxtpx:hr>
          </gpxtpx:TrackPointExtension>
        </extensions>
      </trkpt>
      <trkpt lat="50.54242" lon="2.63429">
        <ele>18.2</ele>
        <time>2021-06-24T16:22:22Z</time>
        <extensions>
          <gpxtpx:TrackPointExtension xmlns:gpxtpx="http://www.garmin.com/xmlschemas/TrackPointExtension/v1">
            <gpxtpx:hr>133</gpxtpx:hr>
          </gpxtpx:TrackPointExtension>
        </extensions>
      </trkpt>
      <trkpt lat="50.54244" lon="2.63436">
        <ele>18.2</ele>
        <time>2021-06-24T16:22:23Z</time>
        <extensions>
          <gpxtpx:TrackPointExtension xmlns:gpxtpx="http://www.garmin.com/xmlschemas/TrackPointExtension/v1">
            <gpxtpx:hr>133</gpxtpx:hr>
          </gpxtpx:TrackPointExtension>
        </extensions>
      </trkpt>
      <trkpt lat="50.54247" lon="2.63443">
        <ele>18.2</ele>
        <time>2021-06-24T16:22:24Z</time>
        <extensions>
          <gpxtpx:TrackPointExtension xmlns:gpxtpx="http://www.garmin.com/xmlschemas/TrackPointExtension/v1">
            <gpxtpx:hr>133</gpxtpx:hr>
          </gpxtpx:TrackPointExtension>
        </extensions>
      </trkpt>
      <trkpt lat="50.5425" lon="2.63449">
        <ele>18.2</ele>
        <time>2021-06-24T16:22:25Z</time>
        <extensions>
          <gpxtpx:TrackPointExtension xmlns:gpxtpx="http://www.garmin.com/xmlschemas/TrackPointExtension/v1">
            <gpxtpx:hr>133</gpxtpx:hr>
          </gpxtpx:TrackPointExtension>
        </extensions>
      </trkpt>
      <trkpt lat="50.54252" lon="2.63454">
        <ele>18.2</ele>
        <time>2021-06-24T16:22:26Z</time>
        <extensions>
          <gpxtpx:TrackPointExtension xmlns:gpxtpx="http://www.garmin.com/xmlschemas/TrackPointExtension/v1">
            <gpxtpx:hr>133</gpxtpx:hr>
          </gpxtpx:TrackPointExtension>
        </extensions>
      </trkpt>
      <trkpt lat="50.54256" lon="2.63458">
        <ele>18.2</ele>
        <time>2021-06-24T16:22:27Z</time>
        <extensions>
          <gpxtpx:TrackPointExtension xmlns:gpxtpx="http://www.garmin.com/xmlschemas/TrackPointExtension/v1">
            <gpxtpx:hr>133</gpxtpx:hr>
          </gpxtpx:TrackPointExtension>
        </extensions>
      </trkpt>
      <trkpt lat="50.54258" lon="2.63463">
        <ele>18.2</ele>
        <time>2021-06-24T16:22:28Z</time>
        <extensions>
          <gpxtpx:TrackPointExtension xmlns:gpxtpx="http://www.garmin.com/xmlschemas/TrackPointExtension/v1">
            <gpxtpx:hr>133</gpxtpx:hr>
          </gpxtpx:TrackPointExtension>
        </extensions>
      </trkpt>
      <trkpt lat="50.5426" lon="2.63467">
        <ele>18.2</ele>
        <time>2021-06-24T16:22:29Z</time>
        <extensions>
          <gpxtpx:TrackPointExtension xmlns:gpxtpx="http://www.garmin.com/xmlschemas/TrackPointExtension/v1">
            <gpxtpx:hr>133</gpxtpx:hr>
          </gpxtpx:TrackPointExtension>
        </extensions>
      </trkpt>
      <trkpt lat="50.54263" lon="2.63471">
        <ele>18.2</ele>
        <time>2021-06-24T16:22:30Z</time>
        <extensions>
          <gpxtpx:TrackPointExtension xmlns:gpxtpx="http://www.garmin.com/xmlschemas/TrackPointExtension/v1">
            <gpxtpx:hr>133</gpxtpx:hr>
          </gpxtpx:TrackPointExtension>
        </extensions>
      </trkpt>
      <trkpt lat="50.54266" lon="2.63475">
        <ele>18.2</ele>
        <time>2021-06-24T16:22:31Z</time>
        <extensions>
          <gpxtpx:TrackPointExtension xmlns:gpxtpx="http://www.garmin.com/xmlschemas/TrackPointExtension/v1">
            <gpxtpx:hr>134</gpxtpx:hr>
          </gpxtpx:TrackPointExtension>
        </extensions>
      </trkpt>
      <trkpt lat="50.54269" lon="2.63479">
        <ele>18.2</ele>
        <time>2021-06-24T16:22:32Z</time>
        <extensions>
          <gpxtpx:TrackPointExtension xmlns:gpxtpx="http://www.garmin.com/xmlschemas/TrackPointExtension/v1">
            <gpxtpx:hr>133</gpxtpx:hr>
          </gpxtpx:TrackPointExtension>
        </extensions>
      </trkpt>
      <trkpt lat="50.54271" lon="2.63482">
        <ele>18.2</ele>
        <time>2021-06-24T16:22:33Z</time>
        <extensions>
          <gpxtpx:TrackPointExtension xmlns:gpxtpx="http://www.garmin.com/xmlschemas/TrackPointExtension/v1">
            <gpxtpx:hr>133</gpxtpx:hr>
          </gpxtpx:TrackPointExtension>
        </extensions>
      </trkpt>
      <trkpt lat="50.54273" lon="2.63486">
        <ele>18.2</ele>
        <time>2021-06-24T16:22:34Z</time>
        <extensions>
          <gpxtpx:TrackPointExtension xmlns:gpxtpx="http://www.garmin.com/xmlschemas/TrackPointExtension/v1">
            <gpxtpx:hr>133</gpxtpx:hr>
          </gpxtpx:TrackPointExtension>
        </extensions>
      </trkpt>
      <trkpt lat="50.54275" lon="2.63489">
        <ele>18.2</ele>
        <time>2021-06-24T16:22:35Z</time>
        <extensions>
          <gpxtpx:TrackPointExtension xmlns:gpxtpx="http://www.garmin.com/xmlschemas/TrackPointExtension/v1">
            <gpxtpx:hr>132</gpxtpx:hr>
          </gpxtpx:TrackPointExtension>
        </extensions>
      </trkpt>
      <trkpt lat="50.54277" lon="2.63492">
        <ele>18.2</ele>
        <time>2021-06-24T16:22:36Z</time>
        <extensions>
          <gpxtpx:TrackPointExtension xmlns:gpxtpx="http://www.garmin.com/xmlschemas/TrackPointExtension/v1">
            <gpxtpx:hr>131</gpxtpx:hr>
          </gpxtpx:TrackPointExtension>
        </extensions>
      </trkpt>
      <trkpt lat="50.54279" lon="2.63495">
        <ele>18.2</ele>
        <time>2021-06-24T16:22:37Z</time>
        <extensions>
          <gpxtpx:TrackPointExtension xmlns:gpxtpx="http://www.garmin.com/xmlschemas/TrackPointExtension/v1">
            <gpxtpx:hr>131</gpxtpx:hr>
          </gpxtpx:TrackPointExtension>
        </extensions>
      </trkpt>
      <trkpt lat="50.5428" lon="2.63497">
        <ele>18.2</ele>
        <time>2021-06-24T16:22:38Z</time>
        <extensions>
          <gpxtpx:TrackPointExtension xmlns:gpxtpx="http://www.garmin.com/xmlschemas/TrackPointExtension/v1">
            <gpxtpx:hr>131</gpxtpx:hr>
          </gpxtpx:TrackPointExtension>
        </extensions>
      </trkpt>
      <trkpt lat="50.54282" lon="2.635">
        <ele>18.2</ele>
        <time>2021-06-24T16:22:39Z</time>
        <extensions>
          <gpxtpx:TrackPointExtension xmlns:gpxtpx="http://www.garmin.com/xmlschemas/TrackPointExtension/v1">
            <gpxtpx:hr>131</gpxtpx:hr>
          </gpxtpx:TrackPointExtension>
        </extensions>
      </trkpt>
      <trkpt lat="50.54284" lon="2.63502">
        <ele>18.2</ele>
        <time>2021-06-24T16:22:40Z</time>
        <extensions>
          <gpxtpx:TrackPointExtension xmlns:gpxtpx="http://www.garmin.com/xmlschemas/TrackPointExtension/v1">
            <gpxtpx:hr>131</gpxtpx:hr>
          </gpxtpx:TrackPointExtension>
        </extensions>
      </trkpt>
      <trkpt lat="50.54286" lon="2.63503">
        <ele>18</ele>
        <time>2021-06-24T16:22:41Z</time>
        <extensions>
          <gpxtpx:TrackPointExtension xmlns:gpxtpx="http://www.garmin.com/xmlschemas/TrackPointExtension/v1">
            <gpxtpx:hr>131</gpxtpx:hr>
          </gpxtpx:TrackPointExtension>
        </extensions>
      </trkpt>
      <trkpt lat="50.54289" lon="2.63504">
        <ele>18</ele>
        <time>2021-06-24T16:22:42Z</time>
        <extensions>
          <gpxtpx:TrackPointExtension xmlns:gpxtpx="http://www.garmin.com/xmlschemas/TrackPointExtension/v1">
            <gpxtpx:hr>130</gpxtpx:hr>
          </gpxtpx:TrackPointExtension>
        </extensions>
      </trkpt>
      <trkpt lat="50.54291" lon="2.63505">
        <ele>18</ele>
        <time>2021-06-24T16:22:43Z</time>
        <extensions>
          <gpxtpx:TrackPointExtension xmlns:gpxtpx="http://www.garmin.com/xmlschemas/TrackPointExtension/v1">
            <gpxtpx:hr>130</gpxtpx:hr>
          </gpxtpx:TrackPointExtension>
        </extensions>
      </trkpt>
      <trkpt lat="50.54293" lon="2.63507">
        <ele>18</ele>
        <time>2021-06-24T16:22:44Z</time>
        <extensions>
          <gpxtpx:TrackPointExtension xmlns:gpxtpx="http://www.garmin.com/xmlschemas/TrackPointExtension/v1">
            <gpxtpx:hr>130</gpxtpx:hr>
          </gpxtpx:TrackPointExtension>
        </extensions>
      </trkpt>
      <trkpt lat="50.54294" lon="2.6351">
        <ele>17.8</ele>
        <time>2021-06-24T16:22:45Z</time>
        <extensions>
          <gpxtpx:TrackPointExtension xmlns:gpxtpx="http://www.garmin.com/xmlschemas/TrackPointExtension/v1">
            <gpxtpx:hr>129</gpxtpx:hr>
          </gpxtpx:TrackPointExtension>
        </extensions>
      </trkpt>
      <trkpt lat="50.54297" lon="2.63516">
        <ele>17.8</ele>
        <time>2021-06-24T16:22:47Z</time>
        <extensions>
          <gpxtpx:TrackPointExtension xmlns:gpxtpx="http://www.garmin.com/xmlschemas/TrackPointExtension/v1">
            <gpxtpx:hr>128</gpxtpx:hr>
          </gpxtpx:TrackPointExtension>
        </extensions>
      </trkpt>
      <trkpt lat="50.54299" lon="2.63519">
        <ele>17.8</ele>
        <time>2021-06-24T16:22:48Z</time>
        <extensions>
          <gpxtpx:TrackPointExtension xmlns:gpxtpx="http://www.garmin.com/xmlschemas/TrackPointExtension/v1">
            <gpxtpx:hr>127</gpxtpx:hr>
          </gpxtpx:TrackPointExtension>
        </extensions>
      </trkpt>
      <trkpt lat="50.54299" lon="2.63522">
        <ele>17.8</ele>
        <time>2021-06-24T16:22:49Z</time>
        <extensions>
          <gpxtpx:TrackPointExtension xmlns:gpxtpx="http://www.garmin.com/xmlschemas/TrackPointExtension/v1">
            <gpxtpx:hr>127</gpxtpx:hr>
          </gpxtpx:TrackPointExtension>
        </extensions>
      </trkpt>
      <trkpt lat="50.54299" lon="2.63526">
        <ele>17.8</ele>
        <time>2021-06-24T16:22:50Z</time>
        <extensions>
          <gpxtpx:TrackPointExtension xmlns:gpxtpx="http://www.garmin.com/xmlschemas/TrackPointExtension/v1">
            <gpxtpx:hr>126</gpxtpx:hr>
          </gpxtpx:TrackPointExtension>
        </extensions>
      </trkpt>
      <trkpt lat="50.54299" lon="2.6353">
        <ele>17.8</ele>
        <time>2021-06-24T16:22:51Z</time>
        <extensions>
          <gpxtpx:TrackPointExtension xmlns:gpxtpx="http://www.garmin.com/xmlschemas/TrackPointExtension/v1">
            <gpxtpx:hr>125</gpxtpx:hr>
          </gpxtpx:TrackPointExtension>
        </extensions>
      </trkpt>
      <trkpt lat="50.54301" lon="2.63539">
        <ele>17.8</ele>
        <time>2021-06-24T16:22:53Z</time>
        <extensions>
          <gpxtpx:TrackPointExtension xmlns:gpxtpx="http://www.garmin.com/xmlschemas/TrackPointExtension/v1">
            <gpxtpx:hr>123</gpxtpx:hr>
          </gpxtpx:TrackPointExtension>
        </extensions>
      </trkpt>
      <trkpt lat="50.54303" lon="2.63542">
        <ele>17.8</ele>
        <time>2021-06-24T16:22:54Z</time>
        <extensions>
          <gpxtpx:TrackPointExtension xmlns:gpxtpx="http://www.garmin.com/xmlschemas/TrackPointExtension/v1">
            <gpxtpx:hr>122</gpxtpx:hr>
          </gpxtpx:TrackPointExtension>
        </extensions>
      </trkpt>
      <trkpt lat="50.54305" lon="2.63547">
        <ele>17.8</ele>
        <time>2021-06-24T16:22:55Z</time>
        <extensions>
          <gpxtpx:TrackPointExtension xmlns:gpxtpx="http://www.garmin.com/xmlschemas/TrackPointExtension/v1">
            <gpxtpx:hr>122</gpxtpx:hr>
          </gpxtpx:TrackPointExtension>
        </extensions>
      </trkpt>
      <trkpt lat="50.54308" lon="2.63552">
        <ele>18</ele>
        <time>2021-06-24T16:22:56Z</time>
        <extensions>
          <gpxtpx:TrackPointExtension xmlns:gpxtpx="http://www.garmin.com/xmlschemas/TrackPointExtension/v1">
            <gpxtpx:hr>121</gpxtpx:hr>
          </gpxtpx:TrackPointExtension>
        </extensions>
      </trkpt>
      <trkpt lat="50.54311" lon="2.63556">
        <ele>17.8</ele>
        <time>2021-06-24T16:22:57Z</time>
        <extensions>
          <gpxtpx:TrackPointExtension xmlns:gpxtpx="http://www.garmin.com/xmlschemas/TrackPointExtension/v1">
            <gpxtpx:hr>120</gpxtpx:hr>
          </gpxtpx:TrackPointExtension>
        </extensions>
      </trkpt>
      <trkpt lat="50.54313" lon="2.6356">
        <ele>17.8</ele>
        <time>2021-06-24T16:22:58Z</time>
        <extensions>
          <gpxtpx:TrackPointExtension xmlns:gpxtpx="http://www.garmin.com/xmlschemas/TrackPointExtension/v1">
            <gpxtpx:hr>120</gpxtpx:hr>
          </gpxtpx:TrackPointExtension>
        </extensions>
      </trkpt>
      <trkpt lat="50.54315" lon="2.63565">
        <ele>17.8</ele>
        <time>2021-06-24T16:22:59Z</time>
        <extensions>
          <gpxtpx:TrackPointExtension xmlns:gpxtpx="http://www.garmin.com/xmlschemas/TrackPointExtension/v1">
            <gpxtpx:hr>119</gpxtpx:hr>
          </gpxtpx:TrackPointExtension>
        </extensions>
      </trkpt>
      <trkpt lat="50.54317" lon="2.6357">
        <ele>17.8</ele>
        <time>2021-06-24T16:23:00Z</time>
        <extensions>
          <gpxtpx:TrackPointExtension xmlns:gpxtpx="http://www.garmin.com/xmlschemas/TrackPointExtension/v1">
            <gpxtpx:hr>119</gpxtpx:hr>
          </gpxtpx:TrackPointExtension>
        </extensions>
      </trkpt>
      <trkpt lat="50.54324" lon="2.63583">
        <ele>17.8</ele>
        <time>2021-06-24T16:23:02Z</time>
        <extensions>
          <gpxtpx:TrackPointExtension xmlns:gpxtpx="http://www.garmin.com/xmlschemas/TrackPointExtension/v1">
            <gpxtpx:hr>119</gpxtpx:hr>
          </gpxtpx:TrackPointExtension>
        </extensions>
      </trkpt>
      <trkpt lat="50.54329" lon="2.6359">
        <ele>17.8</ele>
        <time>2021-06-24T16:23:03Z</time>
        <extensions>
          <gpxtpx:TrackPointExtension xmlns:gpxtpx="http://www.garmin.com/xmlschemas/TrackPointExtension/v1">
            <gpxtpx:hr>119</gpxtpx:hr>
          </gpxtpx:TrackPointExtension>
        </extensions>
      </trkpt>
      <trkpt lat="50.54336" lon="2.63605">
        <ele>18</ele>
        <time>2021-06-24T16:23:05Z</time>
        <extensions>
          <gpxtpx:TrackPointExtension xmlns:gpxtpx="http://www.garmin.com/xmlschemas/TrackPointExtension/v1">
            <gpxtpx:hr>120</gpxtpx:hr>
          </gpxtpx:TrackPointExtension>
        </extensions>
      </trkpt>
      <trkpt lat="50.5434" lon="2.63612">
        <ele>18</ele>
        <time>2021-06-24T16:23:06Z</time>
        <extensions>
          <gpxtpx:TrackPointExtension xmlns:gpxtpx="http://www.garmin.com/xmlschemas/TrackPointExtension/v1">
            <gpxtpx:hr>121</gpxtpx:hr>
          </gpxtpx:TrackPointExtension>
        </extensions>
      </trkpt>
      <trkpt lat="50.54344" lon="2.63621">
        <ele>18</ele>
        <time>2021-06-24T16:23:07Z</time>
        <extensions>
          <gpxtpx:TrackPointExtension xmlns:gpxtpx="http://www.garmin.com/xmlschemas/TrackPointExtension/v1">
            <gpxtpx:hr>123</gpxtpx:hr>
          </gpxtpx:TrackPointExtension>
        </extensions>
      </trkpt>
      <trkpt lat="50.54347" lon="2.63628">
        <ele>18</ele>
        <time>2021-06-24T16:23:08Z</time>
        <extensions>
          <gpxtpx:TrackPointExtension xmlns:gpxtpx="http://www.garmin.com/xmlschemas/TrackPointExtension/v1">
            <gpxtpx:hr>124</gpxtpx:hr>
          </gpxtpx:TrackPointExtension>
        </extensions>
      </trkpt>
      <trkpt lat="50.54351" lon="2.63635">
        <ele>18</ele>
        <time>2021-06-24T16:23:09Z</time>
        <extensions>
          <gpxtpx:TrackPointExtension xmlns:gpxtpx="http://www.garmin.com/xmlschemas/TrackPointExtension/v1">
            <gpxtpx:hr>125</gpxtpx:hr>
          </gpxtpx:TrackPointExtension>
        </extensions>
      </trkpt>
      <trkpt lat="50.54356" lon="2.63649">
        <ele>18</ele>
        <time>2021-06-24T16:23:11Z</time>
        <extensions>
          <gpxtpx:TrackPointExtension xmlns:gpxtpx="http://www.garmin.com/xmlschemas/TrackPointExtension/v1">
            <gpxtpx:hr>126</gpxtpx:hr>
          </gpxtpx:TrackPointExtension>
        </extensions>
      </trkpt>
      <trkpt lat="50.5436" lon="2.63655">
        <ele>18</ele>
        <time>2021-06-24T16:23:12Z</time>
        <extensions>
          <gpxtpx:TrackPointExtension xmlns:gpxtpx="http://www.garmin.com/xmlschemas/TrackPointExtension/v1">
            <gpxtpx:hr>127</gpxtpx:hr>
          </gpxtpx:TrackPointExtension>
        </extensions>
      </trkpt>
      <trkpt lat="50.54363" lon="2.63663">
        <ele>18</ele>
        <time>2021-06-24T16:23:13Z</time>
        <extensions>
          <gpxtpx:TrackPointExtension xmlns:gpxtpx="http://www.garmin.com/xmlschemas/TrackPointExtension/v1">
            <gpxtpx:hr>127</gpxtpx:hr>
          </gpxtpx:TrackPointExtension>
        </extensions>
      </trkpt>
      <trkpt lat="50.54365" lon="2.63669">
        <ele>18.2</ele>
        <time>2021-06-24T16:23:14Z</time>
        <extensions>
          <gpxtpx:TrackPointExtension xmlns:gpxtpx="http://www.garmin.com/xmlschemas/TrackPointExtension/v1">
            <gpxtpx:hr>127</gpxtpx:hr>
          </gpxtpx:TrackPointExtension>
        </extensions>
      </trkpt>
      <trkpt lat="50.54369" lon="2.63675">
        <ele>18.2</ele>
        <time>2021-06-24T16:23:15Z</time>
        <extensions>
          <gpxtpx:TrackPointExtension xmlns:gpxtpx="http://www.garmin.com/xmlschemas/TrackPointExtension/v1">
            <gpxtpx:hr>127</gpxtpx:hr>
          </gpxtpx:TrackPointExtension>
        </extensions>
      </trkpt>
      <trkpt lat="50.54372" lon="2.63682">
        <ele>18.2</ele>
        <time>2021-06-24T16:23:16Z</time>
        <extensions>
          <gpxtpx:TrackPointExtension xmlns:gpxtpx="http://www.garmin.com/xmlschemas/TrackPointExtension/v1">
            <gpxtpx:hr>127</gpxtpx:hr>
          </gpxtpx:TrackPointExtension>
        </extensions>
      </trkpt>
      <trkpt lat="50.54375" lon="2.63688">
        <ele>18</ele>
        <time>2021-06-24T16:23:17Z</time>
        <extensions>
          <gpxtpx:TrackPointExtension xmlns:gpxtpx="http://www.garmin.com/xmlschemas/TrackPointExtension/v1">
            <gpxtpx:hr>126</gpxtpx:hr>
          </gpxtpx:TrackPointExtension>
        </extensions>
      </trkpt>
      <trkpt lat="50.54379" lon="2.63694">
        <ele>18</ele>
        <time>2021-06-24T16:23:18Z</time>
        <extensions>
          <gpxtpx:TrackPointExtension xmlns:gpxtpx="http://www.garmin.com/xmlschemas/TrackPointExtension/v1">
            <gpxtpx:hr>126</gpxtpx:hr>
          </gpxtpx:TrackPointExtension>
        </extensions>
      </trkpt>
      <trkpt lat="50.54385" lon="2.63706">
        <ele>18.2</ele>
        <time>2021-06-24T16:23:20Z</time>
        <extensions>
          <gpxtpx:TrackPointExtension xmlns:gpxtpx="http://www.garmin.com/xmlschemas/TrackPointExtension/v1">
            <gpxtpx:hr>127</gpxtpx:hr>
          </gpxtpx:TrackPointExtension>
        </extensions>
      </trkpt>
      <trkpt lat="50.54388" lon="2.63713">
        <ele>18.2</ele>
        <time>2021-06-24T16:23:21Z</time>
        <extensions>
          <gpxtpx:TrackPointExtension xmlns:gpxtpx="http://www.garmin.com/xmlschemas/TrackPointExtension/v1">
            <gpxtpx:hr>128</gpxtpx:hr>
          </gpxtpx:TrackPointExtension>
        </extensions>
      </trkpt>
      <trkpt lat="50.54392" lon="2.63719">
        <ele>18.2</ele>
        <time>2021-06-24T16:23:22Z</time>
        <extensions>
          <gpxtpx:TrackPointExtension xmlns:gpxtpx="http://www.garmin.com/xmlschemas/TrackPointExtension/v1">
            <gpxtpx:hr>129</gpxtpx:hr>
          </gpxtpx:TrackPointExtension>
        </extensions>
      </trkpt>
      <trkpt lat="50.54395" lon="2.63724">
        <ele>18.2</ele>
        <time>2021-06-24T16:23:23Z</time>
        <extensions>
          <gpxtpx:TrackPointExtension xmlns:gpxtpx="http://www.garmin.com/xmlschemas/TrackPointExtension/v1">
            <gpxtpx:hr>131</gpxtpx:hr>
          </gpxtpx:TrackPointExtension>
        </extensions>
      </trkpt>
      <trkpt lat="50.54399" lon="2.63731">
        <ele>18.2</ele>
        <time>2021-06-24T16:23:24Z</time>
        <extensions>
          <gpxtpx:TrackPointExtension xmlns:gpxtpx="http://www.garmin.com/xmlschemas/TrackPointExtension/v1">
            <gpxtpx:hr>132</gpxtpx:hr>
          </gpxtpx:TrackPointExtension>
        </extensions>
      </trkpt>
      <trkpt lat="50.54403" lon="2.63737">
        <ele>18.2</ele>
        <time>2021-06-24T16:23:25Z</time>
        <extensions>
          <gpxtpx:TrackPointExtension xmlns:gpxtpx="http://www.garmin.com/xmlschemas/TrackPointExtension/v1">
            <gpxtpx:hr>134</gpxtpx:hr>
          </gpxtpx:TrackPointExtension>
        </extensions>
      </trkpt>
      <trkpt lat="50.54406" lon="2.63743">
        <ele>18.2</ele>
        <time>2021-06-24T16:23:26Z</time>
        <extensions>
          <gpxtpx:TrackPointExtension xmlns:gpxtpx="http://www.garmin.com/xmlschemas/TrackPointExtension/v1">
            <gpxtpx:hr>135</gpxtpx:hr>
          </gpxtpx:TrackPointExtension>
        </extensions>
      </trkpt>
      <trkpt lat="50.5441" lon="2.63749">
        <ele>18.2</ele>
        <time>2021-06-24T16:23:27Z</time>
        <extensions>
          <gpxtpx:TrackPointExtension xmlns:gpxtpx="http://www.garmin.com/xmlschemas/TrackPointExtension/v1">
            <gpxtpx:hr>136</gpxtpx:hr>
          </gpxtpx:TrackPointExtension>
        </extensions>
      </trkpt>
      <trkpt lat="50.54414" lon="2.63755">
        <ele>18.2</ele>
        <time>2021-06-24T16:23:28Z</time>
        <extensions>
          <gpxtpx:TrackPointExtension xmlns:gpxtpx="http://www.garmin.com/xmlschemas/TrackPointExtension/v1">
            <gpxtpx:hr>137</gpxtpx:hr>
          </gpxtpx:TrackPointExtension>
        </extensions>
      </trkpt>
      <trkpt lat="50.54417" lon="2.63761">
        <ele>18.2</ele>
        <time>2021-06-24T16:23:29Z</time>
        <extensions>
          <gpxtpx:TrackPointExtension xmlns:gpxtpx="http://www.garmin.com/xmlschemas/TrackPointExtension/v1">
            <gpxtpx:hr>137</gpxtpx:hr>
          </gpxtpx:TrackPointExtension>
        </extensions>
      </trkpt>
      <trkpt lat="50.5442" lon="2.63768">
        <ele>18.2</ele>
        <time>2021-06-24T16:23:30Z</time>
        <extensions>
          <gpxtpx:TrackPointExtension xmlns:gpxtpx="http://www.garmin.com/xmlschemas/TrackPointExtension/v1">
            <gpxtpx:hr>138</gpxtpx:hr>
          </gpxtpx:TrackPointExtension>
        </extensions>
      </trkpt>
      <trkpt lat="50.54422" lon="2.63773">
        <ele>18.2</ele>
        <time>2021-06-24T16:23:31Z</time>
        <extensions>
          <gpxtpx:TrackPointExtension xmlns:gpxtpx="http://www.garmin.com/xmlschemas/TrackPointExtension/v1">
            <gpxtpx:hr>138</gpxtpx:hr>
          </gpxtpx:TrackPointExtension>
        </extensions>
      </trkpt>
      <trkpt lat="50.54425" lon="2.63779">
        <ele>18.2</ele>
        <time>2021-06-24T16:23:32Z</time>
        <extensions>
          <gpxtpx:TrackPointExtension xmlns:gpxtpx="http://www.garmin.com/xmlschemas/TrackPointExtension/v1">
            <gpxtpx:hr>139</gpxtpx:hr>
          </gpxtpx:TrackPointExtension>
        </extensions>
      </trkpt>
      <trkpt lat="50.5443" lon="2.6379">
        <ele>18.2</ele>
        <time>2021-06-24T16:23:34Z</time>
        <extensions>
          <gpxtpx:TrackPointExtension xmlns:gpxtpx="http://www.garmin.com/xmlschemas/TrackPointExtension/v1">
            <gpxtpx:hr>140</gpxtpx:hr>
          </gpxtpx:TrackPointExtension>
        </extensions>
      </trkpt>
      <trkpt lat="50.54432" lon="2.63795">
        <ele>18.2</ele>
        <time>2021-06-24T16:23:35Z</time>
        <extensions>
          <gpxtpx:TrackPointExtension xmlns:gpxtpx="http://www.garmin.com/xmlschemas/TrackPointExtension/v1">
            <gpxtpx:hr>140</gpxtpx:hr>
          </gpxtpx:TrackPointExtension>
        </extensions>
      </trkpt>
      <trkpt lat="50.54434" lon="2.638">
        <ele>18.2</ele>
        <time>2021-06-24T16:23:36Z</time>
        <extensions>
          <gpxtpx:TrackPointExtension xmlns:gpxtpx="http://www.garmin.com/xmlschemas/TrackPointExtension/v1">
            <gpxtpx:hr>141</gpxtpx:hr>
          </gpxtpx:TrackPointExtension>
        </extensions>
      </trkpt>
      <trkpt lat="50.54437" lon="2.6381">
        <ele>22</ele>
      </trkpt>
      <trkpt lat="50.54442" lon="2.63817">
        <ele>22</ele>
      </trkpt>
      <trkpt lat="50.54452" lon="2.6382">
        <ele>22</ele>
      </trkpt>
      <trkpt lat="50.54458" lon="2.63831">
        <ele>22</ele>
      </trkpt>
      <trkpt lat="50.54458" lon="2.63843">
        <ele>21.9</ele>
      </trkpt>
      <trkpt lat="50.54455" lon="2.63847">
        <ele>21.8</ele>
      </trkpt>
      <trkpt lat="50.5445" lon="2.63849">
        <ele>21.8</ele>
      </trkpt>
      <trkpt lat="50.54451" lon="2.63843">
        <ele>21.9</ele>
      </trkpt>
      <trkpt lat="50.54452" lon="2.63833">
        <ele>22</ele>
      </trkpt>
      <trkpt lat="50.54454" lon="2.63829">
        <ele>22</ele>
      </trkpt>
      <trkpt lat="50.54455" lon="2.63828">
        <ele>22</ele>
      </trkpt>
      <trkpt lat="50.54463" lon="2.63817">
        <ele>22</ele>
      </trkpt>
      <trkpt lat="50.54463" lon="2.63817">
        <ele>22</ele>
      </trkpt>
      <trkpt lat="50.54472" lon="2.63805">
        <ele>22</ele>
      </trkpt>
      <trkpt lat="50.54512" lon="2.63737">
        <ele>21.6</ele>
      </trkpt>
      <trkpt lat="50.5451" lon="2.63735">
        <ele>21.7</ele>
      </trkpt>
      <trkpt lat="50.54505" lon="2.63728">
        <ele>21.8</ele>
      </trkpt>
      <trkpt lat="50.54488" lon="2.63713">
        <ele>22</ele>
      </trkpt>
      <trkpt lat="50.54429" lon="2.63638">
        <ele>21.7</ele>
      </trkpt>
      <trkpt lat="50.54425" lon="2.6363">
        <ele>21.6</ele>
      </trkpt>
      <trkpt lat="50.54424" lon="2.63626">
        <ele>21.5</ele>
      </trkpt>
      <trkpt lat="50.5443" lon="2.6362">
        <ele>21.4</ele>
      </trkpt>
      <trkpt lat="50.54433" lon="2.63612">
        <ele>21.3</ele>
      </trkpt>
      <trkpt lat="50.54453" lon="2.63628">
        <ele>21.5</ele>
      </trkpt>
      <trkpt lat="50.54466" lon="2.6364">
        <ele>21.7</ele>
      </trkpt>
      <trkpt lat="50.54478" lon="2.63649">
        <ele>21.8</ele>
      </trkpt>
      <trkpt lat="50.54485" lon="2.63655">
        <ele>21.9</ele>
      </trkpt>
      <trkpt lat="50.54488" lon="2.63662">
        <ele>21.9</ele>
      </trkpt>
      <trkpt lat="50.54491" lon="2.6367">
        <ele>22</ele>
      </trkpt>
      <trkpt lat="50.54499" lon="2.63684">
        <ele>22</ele>
      </trkpt>
      <trkpt lat="50.54504" lon="2.63688">
        <ele>21.9</ele>
      </trkpt>
      <trkpt lat="50.5451" lon="2.63689">
        <ele>21.7</ele>
      </trkpt>
      <trkpt lat="50.54521" lon="2.63686">
        <ele>21.4</ele>
      </trkpt>
      <trkpt lat="50.5453" lon="2.63676">
        <ele>21.2</ele>
      </trkpt>
      <trkpt lat="50.54535" lon="2.63662">
        <ele>21.2</ele>
      </trkpt>
      <trkpt lat="50.54536" lon="2.63652">
        <ele>21.1</ele>
      </trkpt>
      <trkpt lat="50.54535" lon="2.63642">
        <ele>21.1</ele>
      </trkpt>
      <trkpt lat="50.54533" lon="2.63633">
        <ele>21.1</ele>
      </trkpt>
      <trkpt lat="50.54534" lon="2.63626">
        <ele>21.1</ele>
      </trkpt>
      <trkpt lat="50.54537" lon="2.63617">
        <ele>21</ele>
      </trkpt>
      <trkpt lat="50.54528" lon="2.63607">
        <ele>21.1</ele>
      </trkpt>
      <trkpt lat="50.54525" lon="2.636">
        <ele>21.1</ele>
      </trkpt>
      <trkpt lat="50.54528" lon="2.63607">
        <ele>21.1</ele>
      </trkpt>
      <trkpt lat="50.54537" lon="2.63617">
        <ele>21</ele>
      </trkpt>
      <trkpt lat="50.54539" lon="2.63619">
        <ele>21</ele>
      </trkpt>
      <trkpt lat="50.54547" lon="2.63611">
        <ele>21</ele>
      </trkpt>
      <trkpt lat="50.54557" lon="2.63604">
        <ele>20.9</ele>
      </trkpt>
      <trkpt lat="50.54563" lon="2.63599">
        <ele>20.9</ele>
      </trkpt>
      <trkpt lat="50.54563" lon="2.636">
        <ele>20.9</ele>
      </trkpt>
      <trkpt lat="50.54563" lon="2.63599">
        <ele>20.9</ele>
      </trkpt>
      <trkpt lat="50.54569" lon="2.63585">
        <ele>21</ele>
      </trkpt>
      <trkpt lat="50.54576" lon="2.63574">
        <ele>21</ele>
      </trkpt>
      <trkpt lat="50.54589" lon="2.63566">
        <ele>21</ele>
      </trkpt>
      <trkpt lat="50.54604" lon="2.63562">
        <ele>21</ele>
      </trkpt>
      <trkpt lat="50.54615" lon="2.6356">
        <ele>21</ele>
      </trkpt>
      <trkpt lat="50.54615" lon="2.6356">
        <ele>21</ele>
      </trkpt>
      <trkpt lat="50.54615" lon="2.6356">
        <ele>21</ele>
      </trkpt>
      <trkpt lat="50.54665" lon="2.63636">
        <ele>21</ele>
      </trkpt>
      <trkpt lat="50.54676" lon="2.63639">
        <ele>21</ele>
      </trkpt>
      <trkpt lat="50.54681" lon="2.63643">
        <ele>21</ele>
      </trkpt>
      <trkpt lat="50.54694" lon="2.63676">
        <ele>21</ele>
      </trkpt>
      <trkpt lat="50.54738" lon="2.6374">
        <ele>21</ele>
      </trkpt>
      <trkpt lat="50.5475" lon="2.63747">
        <ele>21</ele>
      </trkpt>
      <trkpt lat="50.54752" lon="2.63748">
        <ele>21</ele>
      </trkpt>
      <trkpt lat="50.54763" lon="2.63778">
        <ele>20.8</ele>
      </trkpt>
      <trkpt lat="50.54792" lon="2.63822">
        <ele>20.2</ele>
      </trkpt>
      <trkpt lat="50.54846" lon="2.63899">
        <ele>19.8</ele>
      </trkpt>
      <trkpt lat="50.54862" lon="2.63912">
        <ele>19.7</ele>
      </trkpt>
      <trkpt lat="50.54883" lon="2.63939">
        <ele>19.5</ele>
      </trkpt>
      <trkpt lat="50.5489" lon="2.63938">
        <ele>19.4</ele>
      </trkpt>
      <trkpt lat="50.54922" lon="2.63979">
        <ele>19.8</ele>
      </trkpt>
      <trkpt lat="50.54976" lon="2.64027">
        <ele>20.5</ele>
      </trkpt>
      <trkpt lat="50.5498" lon="2.64029">
        <ele>20.5</ele>
      </trkpt>
      <trkpt lat="50.55019" lon="2.64049">
        <ele>20.4</ele>
      </trkpt>
      <trkpt lat="50.55096" lon="2.64084">
        <ele>20.1</ele>
      </trkpt>
      <trkpt lat="50.55171" lon="2.64115">
        <ele>20.9</ele>
      </trkpt>
      <trkpt lat="50.55254" lon="2.64132">
        <ele>19.9</ele>
      </trkpt>
      <trkpt lat="50.55353" lon="2.64146">
        <ele>18.7</ele>
      </trkpt>
      <trkpt lat="50.55378" lon="2.64142">
        <ele>19.4</ele>
      </trkpt>
      <trkpt lat="50.55381" lon="2.64159">
        <ele>19.2</ele>
      </trkpt>
      <trkpt lat="50.55382" lon="2.64174">
        <ele>19.2</ele>
      </trkpt>
      <trkpt lat="50.55378" lon="2.64184">
        <ele>19.1</ele>
      </trkpt>
      <trkpt lat="50.5537" lon="2.64194">
        <ele>18.9</ele>
      </trkpt>
      <trkpt lat="50.55372" lon="2.64194">
        <ele>18.9</ele>
      </trkpt>
      <trkpt lat="50.55387" lon="2.64188">
        <ele>19.3</ele>
      </trkpt>
      <trkpt lat="50.55401" lon="2.64187">
        <ele>19.6</ele>
      </trkpt>
      <trkpt lat="50.55457" lon="2.64169">
        <ele>19.5</ele>
      </trkpt>
      <trkpt lat="50.55515" lon="2.64156">
        <ele>19.6</ele>
      </trkpt>
      <trkpt lat="50.55594" lon="2.64152">
        <ele>21.1</ele>
      </trkpt>
      <trkpt lat="50.55598" lon="2.64152">
        <ele>21</ele>
      </trkpt>
      <trkpt lat="50.55669" lon="2.64157">
        <ele>19.4</ele>
      </trkpt>
      <trkpt lat="50.5575" lon="2.64173">
        <ele>20.4</ele>
      </trkpt>
      <trkpt lat="50.5586" lon="2.64185">
        <ele>19.4</ele>
      </trkpt>
      <trkpt lat="50.55942" lon="2.64193">
        <ele>18.8</ele>
      </trkpt>
      <trkpt lat="50.56145" lon="2.64208">
        <ele>20.6</ele>
      </trkpt>
      <trkpt lat="50.56151" lon="2.64212">
        <ele>20.6</ele>
      </trkpt>
      <trkpt lat="50.56157" lon="2.64216">
        <ele>20.5</ele>
      </trkpt>
      <trkpt lat="50.56155" lon="2.64287">
        <ele>19.3</ele>
      </trkpt>
      <trkpt lat="50.56155" lon="2.64302">
        <ele>19</ele>
      </trkpt>
      <trkpt lat="50.56155" lon="2.64307">
        <ele>18.9</ele>
      </trkpt>
      <trkpt lat="50.56148" lon="2.64306">
        <ele>19</ele>
      </trkpt>
      <trkpt lat="50.5607" lon="2.64295">
        <ele>20.3</ele>
      </trkpt>
      <trkpt lat="50.56023" lon="2.64292">
        <ele>19.8</ele>
      </trkpt>
      <trkpt lat="50.55987" lon="2.64289">
        <ele>19.3</ele>
      </trkpt>
      <trkpt lat="50.5597" lon="2.64287">
        <ele>19</ele>
      </trkpt>
      <trkpt lat="50.55954" lon="2.64286">
        <ele>18.7</ele>
      </trkpt>
      <trkpt lat="50.55882" lon="2.64276">
        <ele>21.1</ele>
      </trkpt>
      <trkpt lat="50.55875" lon="2.64275">
        <ele>21.7</ele>
      </trkpt>
      <trkpt lat="50.55834" lon="2.64273">
        <ele>25.3</ele>
      </trkpt>
      <trkpt lat="50.55634" lon="2.64252">
        <ele>20</ele>
      </trkpt>
      <trkpt lat="50.55607" lon="2.6425">
        <ele>20</ele>
      </trkpt>
      <trkpt lat="50.55551" lon="2.64252">
        <ele>19.6</ele>
      </trkpt>
      <trkpt lat="50.55515" lon="2.64256">
        <ele>19.1</ele>
      </trkpt>
      <trkpt lat="50.5544" lon="2.64273">
        <ele>19.6</ele>
      </trkpt>
      <trkpt lat="50.55378" lon="2.64296">
        <ele>19.3</ele>
      </trkpt>
      <trkpt lat="50.55359" lon="2.6431">
        <ele>19.1</ele>
      </trkpt>
      <trkpt lat="50.55339" lon="2.64324">
        <ele>19</ele>
      </trkpt>
      <trkpt lat="50.55331" lon="2.6433">
        <ele>19</ele>
      </trkpt>
      <trkpt lat="50.55324" lon="2.64333">
        <ele>22</ele>
        <time>2021-06-24T16:35:16Z</time>
        <extensions>
          <gpxtpx:TrackPointExtension xmlns:gpxtpx="http://www.garmin.com/xmlschemas/TrackPointExtension/v1">
            <gpxtpx:hr>130</gpxtpx:hr>
          </gpxtpx:TrackPointExtension>
        </extensions>
      </trkpt>
      <trkpt lat="50.55315" lon="2.6434">
        <ele>22.2</ele>
        <time>2021-06-24T16:35:18Z</time>
        <extensions>
          <gpxtpx:TrackPointExtension xmlns:gpxtpx="http://www.garmin.com/xmlschemas/TrackPointExtension/v1">
            <gpxtpx:hr>130</gpxtpx:hr>
          </gpxtpx:TrackPointExtension>
        </extensions>
      </trkpt>
      <trkpt lat="50.55311" lon="2.64343">
        <ele>22.2</ele>
        <time>2021-06-24T16:35:19Z</time>
        <extensions>
          <gpxtpx:TrackPointExtension xmlns:gpxtpx="http://www.garmin.com/xmlschemas/TrackPointExtension/v1">
            <gpxtpx:hr>129</gpxtpx:hr>
          </gpxtpx:TrackPointExtension>
        </extensions>
      </trkpt>
      <trkpt lat="50.55307" lon="2.64347">
        <ele>22.4</ele>
        <time>2021-06-24T16:35:20Z</time>
        <extensions>
          <gpxtpx:TrackPointExtension xmlns:gpxtpx="http://www.garmin.com/xmlschemas/TrackPointExtension/v1">
            <gpxtpx:hr>129</gpxtpx:hr>
          </gpxtpx:TrackPointExtension>
        </extensions>
      </trkpt>
      <trkpt lat="50.55303" lon="2.64351">
        <ele>22.4</ele>
        <time>2021-06-24T16:35:21Z</time>
        <extensions>
          <gpxtpx:TrackPointExtension xmlns:gpxtpx="http://www.garmin.com/xmlschemas/TrackPointExtension/v1">
            <gpxtpx:hr>129</gpxtpx:hr>
          </gpxtpx:TrackPointExtension>
        </extensions>
      </trkpt>
      <trkpt lat="50.55299" lon="2.64355">
        <ele>22.6</ele>
        <time>2021-06-24T16:35:22Z</time>
        <extensions>
          <gpxtpx:TrackPointExtension xmlns:gpxtpx="http://www.garmin.com/xmlschemas/TrackPointExtension/v1">
            <gpxtpx:hr>129</gpxtpx:hr>
          </gpxtpx:TrackPointExtension>
        </extensions>
      </trkpt>
      <trkpt lat="50.55295" lon="2.64359">
        <ele>22.6</ele>
        <time>2021-06-24T16:35:23Z</time>
        <extensions>
          <gpxtpx:TrackPointExtension xmlns:gpxtpx="http://www.garmin.com/xmlschemas/TrackPointExtension/v1">
            <gpxtpx:hr>129</gpxtpx:hr>
          </gpxtpx:TrackPointExtension>
        </extensions>
      </trkpt>
      <trkpt lat="50.5529" lon="2.64363">
        <ele>22.6</ele>
        <time>2021-06-24T16:35:24Z</time>
        <extensions>
          <gpxtpx:TrackPointExtension xmlns:gpxtpx="http://www.garmin.com/xmlschemas/TrackPointExtension/v1">
            <gpxtpx:hr>129</gpxtpx:hr>
          </gpxtpx:TrackPointExtension>
        </extensions>
      </trkpt>
      <trkpt lat="50.55286" lon="2.64367">
        <ele>22.8</ele>
        <time>2021-06-24T16:35:25Z</time>
        <extensions>
          <gpxtpx:TrackPointExtension xmlns:gpxtpx="http://www.garmin.com/xmlschemas/TrackPointExtension/v1">
            <gpxtpx:hr>129</gpxtpx:hr>
          </gpxtpx:TrackPointExtension>
        </extensions>
      </trkpt>
      <trkpt lat="50.55283" lon="2.64371">
        <ele>22.8</ele>
        <time>2021-06-24T16:35:26Z</time>
        <extensions>
          <gpxtpx:TrackPointExtension xmlns:gpxtpx="http://www.garmin.com/xmlschemas/TrackPointExtension/v1">
            <gpxtpx:hr>129</gpxtpx:hr>
          </gpxtpx:TrackPointExtension>
        </extensions>
      </trkpt>
      <trkpt lat="50.55278" lon="2.64374">
        <ele>23</ele>
        <time>2021-06-24T16:35:27Z</time>
        <extensions>
          <gpxtpx:TrackPointExtension xmlns:gpxtpx="http://www.garmin.com/xmlschemas/TrackPointExtension/v1">
            <gpxtpx:hr>129</gpxtpx:hr>
          </gpxtpx:TrackPointExtension>
        </extensions>
      </trkpt>
      <trkpt lat="50.55274" lon="2.64377">
        <ele>23</ele>
        <time>2021-06-24T16:35:28Z</time>
        <extensions>
          <gpxtpx:TrackPointExtension xmlns:gpxtpx="http://www.garmin.com/xmlschemas/TrackPointExtension/v1">
            <gpxtpx:hr>130</gpxtpx:hr>
          </gpxtpx:TrackPointExtension>
        </extensions>
      </trkpt>
      <trkpt lat="50.55269" lon="2.64382">
        <ele>23</ele>
        <time>2021-06-24T16:35:29Z</time>
        <extensions>
          <gpxtpx:TrackPointExtension xmlns:gpxtpx="http://www.garmin.com/xmlschemas/TrackPointExtension/v1">
            <gpxtpx:hr>130</gpxtpx:hr>
          </gpxtpx:TrackPointExtension>
        </extensions>
      </trkpt>
      <trkpt lat="50.55264" lon="2.64385">
        <ele>23.2</ele>
        <time>2021-06-24T16:35:30Z</time>
        <extensions>
          <gpxtpx:TrackPointExtension xmlns:gpxtpx="http://www.garmin.com/xmlschemas/TrackPointExtension/v1">
            <gpxtpx:hr>131</gpxtpx:hr>
          </gpxtpx:TrackPointExtension>
        </extensions>
      </trkpt>
      <trkpt lat="50.55259" lon="2.64389">
        <ele>23.2</ele>
        <time>2021-06-24T16:35:31Z</time>
        <extensions>
          <gpxtpx:TrackPointExtension xmlns:gpxtpx="http://www.garmin.com/xmlschemas/TrackPointExtension/v1">
            <gpxtpx:hr>131</gpxtpx:hr>
          </gpxtpx:TrackPointExtension>
        </extensions>
      </trkpt>
      <trkpt lat="50.55254" lon="2.64392">
        <ele>23.4</ele>
        <time>2021-06-24T16:35:32Z</time>
        <extensions>
          <gpxtpx:TrackPointExtension xmlns:gpxtpx="http://www.garmin.com/xmlschemas/TrackPointExtension/v1">
            <gpxtpx:hr>132</gpxtpx:hr>
          </gpxtpx:TrackPointExtension>
        </extensions>
      </trkpt>
      <trkpt lat="50.55249" lon="2.64395">
        <ele>23.4</ele>
        <time>2021-06-24T16:35:33Z</time>
        <extensions>
          <gpxtpx:TrackPointExtension xmlns:gpxtpx="http://www.garmin.com/xmlschemas/TrackPointExtension/v1">
            <gpxtpx:hr>132</gpxtpx:hr>
          </gpxtpx:TrackPointExtension>
        </extensions>
      </trkpt>
      <trkpt lat="50.55244" lon="2.64398">
        <ele>23.6</ele>
        <time>2021-06-24T16:35:34Z</time>
        <extensions>
          <gpxtpx:TrackPointExtension xmlns:gpxtpx="http://www.garmin.com/xmlschemas/TrackPointExtension/v1">
            <gpxtpx:hr>133</gpxtpx:hr>
          </gpxtpx:TrackPointExtension>
        </extensions>
      </trkpt>
      <trkpt lat="50.55239" lon="2.644">
        <ele>23.6</ele>
        <time>2021-06-24T16:35:35Z</time>
        <extensions>
          <gpxtpx:TrackPointExtension xmlns:gpxtpx="http://www.garmin.com/xmlschemas/TrackPointExtension/v1">
            <gpxtpx:hr>133</gpxtpx:hr>
          </gpxtpx:TrackPointExtension>
        </extensions>
      </trkpt>
      <trkpt lat="50.55235" lon="2.64403">
        <ele>23.6</ele>
        <time>2021-06-24T16:35:36Z</time>
        <extensions>
          <gpxtpx:TrackPointExtension xmlns:gpxtpx="http://www.garmin.com/xmlschemas/TrackPointExtension/v1">
            <gpxtpx:hr>134</gpxtpx:hr>
          </gpxtpx:TrackPointExtension>
        </extensions>
      </trkpt>
      <trkpt lat="50.5523" lon="2.64406">
        <ele>23.8</ele>
        <time>2021-06-24T16:35:37Z</time>
        <extensions>
          <gpxtpx:TrackPointExtension xmlns:gpxtpx="http://www.garmin.com/xmlschemas/TrackPointExtension/v1">
            <gpxtpx:hr>135</gpxtpx:hr>
          </gpxtpx:TrackPointExtension>
        </extensions>
      </trkpt>
      <trkpt lat="50.55226" lon="2.6441">
        <ele>23.8</ele>
        <time>2021-06-24T16:35:38Z</time>
        <extensions>
          <gpxtpx:TrackPointExtension xmlns:gpxtpx="http://www.garmin.com/xmlschemas/TrackPointExtension/v1">
            <gpxtpx:hr>136</gpxtpx:hr>
          </gpxtpx:TrackPointExtension>
        </extensions>
      </trkpt>
      <trkpt lat="50.55221" lon="2.64414">
        <ele>23.8</ele>
        <time>2021-06-24T16:35:39Z</time>
        <extensions>
          <gpxtpx:TrackPointExtension xmlns:gpxtpx="http://www.garmin.com/xmlschemas/TrackPointExtension/v1">
            <gpxtpx:hr>136</gpxtpx:hr>
          </gpxtpx:TrackPointExtension>
        </extensions>
      </trkpt>
      <trkpt lat="50.55217" lon="2.64418">
        <ele>23.8</ele>
        <time>2021-06-24T16:35:40Z</time>
        <extensions>
          <gpxtpx:TrackPointExtension xmlns:gpxtpx="http://www.garmin.com/xmlschemas/TrackPointExtension/v1">
            <gpxtpx:hr>136</gpxtpx:hr>
          </gpxtpx:TrackPointExtension>
        </extensions>
      </trkpt>
      <trkpt lat="50.55213" lon="2.64422">
        <ele>24</ele>
        <time>2021-06-24T16:35:41Z</time>
        <extensions>
          <gpxtpx:TrackPointExtension xmlns:gpxtpx="http://www.garmin.com/xmlschemas/TrackPointExtension/v1">
            <gpxtpx:hr>137</gpxtpx:hr>
          </gpxtpx:TrackPointExtension>
        </extensions>
      </trkpt>
      <trkpt lat="50.5521" lon="2.64426">
        <ele>24</ele>
        <time>2021-06-24T16:35:42Z</time>
        <extensions>
          <gpxtpx:TrackPointExtension xmlns:gpxtpx="http://www.garmin.com/xmlschemas/TrackPointExtension/v1">
            <gpxtpx:hr>137</gpxtpx:hr>
          </gpxtpx:TrackPointExtension>
        </extensions>
      </trkpt>
      <trkpt lat="50.55207" lon="2.64429">
        <ele>24</ele>
        <time>2021-06-24T16:35:43Z</time>
        <extensions>
          <gpxtpx:TrackPointExtension xmlns:gpxtpx="http://www.garmin.com/xmlschemas/TrackPointExtension/v1">
            <gpxtpx:hr>137</gpxtpx:hr>
          </gpxtpx:TrackPointExtension>
        </extensions>
      </trkpt>
      <trkpt lat="50.55204" lon="2.6443">
        <ele>24</ele>
        <time>2021-06-24T16:35:44Z</time>
        <extensions>
          <gpxtpx:TrackPointExtension xmlns:gpxtpx="http://www.garmin.com/xmlschemas/TrackPointExtension/v1">
            <gpxtpx:hr>137</gpxtpx:hr>
          </gpxtpx:TrackPointExtension>
        </extensions>
      </trkpt>
      <trkpt lat="50.552" lon="2.64433">
        <ele>24</ele>
        <time>2021-06-24T16:35:45Z</time>
        <extensions>
          <gpxtpx:TrackPointExtension xmlns:gpxtpx="http://www.garmin.com/xmlschemas/TrackPointExtension/v1">
            <gpxtpx:hr>137</gpxtpx:hr>
          </gpxtpx:TrackPointExtension>
        </extensions>
      </trkpt>
      <trkpt lat="50.55196" lon="2.64435">
        <ele>24.2</ele>
        <time>2021-06-24T16:35:46Z</time>
        <extensions>
          <gpxtpx:TrackPointExtension xmlns:gpxtpx="http://www.garmin.com/xmlschemas/TrackPointExtension/v1">
            <gpxtpx:hr>137</gpxtpx:hr>
          </gpxtpx:TrackPointExtension>
        </extensions>
      </trkpt>
      <trkpt lat="50.55187" lon="2.6444">
        <ele>24.2</ele>
        <time>2021-06-24T16:35:48Z</time>
        <extensions>
          <gpxtpx:TrackPointExtension xmlns:gpxtpx="http://www.garmin.com/xmlschemas/TrackPointExtension/v1">
            <gpxtpx:hr>137</gpxtpx:hr>
          </gpxtpx:TrackPointExtension>
        </extensions>
      </trkpt>
      <trkpt lat="50.55182" lon="2.64441">
        <ele>24.2</ele>
        <time>2021-06-24T16:35:49Z</time>
        <extensions>
          <gpxtpx:TrackPointExtension xmlns:gpxtpx="http://www.garmin.com/xmlschemas/TrackPointExtension/v1">
            <gpxtpx:hr>137</gpxtpx:hr>
          </gpxtpx:TrackPointExtension>
        </extensions>
      </trkpt>
      <trkpt lat="50.55178" lon="2.64442">
        <ele>24.2</ele>
        <time>2021-06-24T16:35:50Z</time>
        <extensions>
          <gpxtpx:TrackPointExtension xmlns:gpxtpx="http://www.garmin.com/xmlschemas/TrackPointExtension/v1">
            <gpxtpx:hr>136</gpxtpx:hr>
          </gpxtpx:TrackPointExtension>
        </extensions>
      </trkpt>
      <trkpt lat="50.55172" lon="2.64444">
        <ele>24.2</ele>
        <time>2021-06-24T16:35:51Z</time>
        <extensions>
          <gpxtpx:TrackPointExtension xmlns:gpxtpx="http://www.garmin.com/xmlschemas/TrackPointExtension/v1">
            <gpxtpx:hr>136</gpxtpx:hr>
          </gpxtpx:TrackPointExtension>
        </extensions>
      </trkpt>
      <trkpt lat="50.55166" lon="2.64447">
        <ele>24.2</ele>
        <time>2021-06-24T16:35:52Z</time>
        <extensions>
          <gpxtpx:TrackPointExtension xmlns:gpxtpx="http://www.garmin.com/xmlschemas/TrackPointExtension/v1">
            <gpxtpx:hr>136</gpxtpx:hr>
          </gpxtpx:TrackPointExtension>
        </extensions>
      </trkpt>
      <trkpt lat="50.55161" lon="2.64449">
        <ele>24.2</ele>
        <time>2021-06-24T16:35:53Z</time>
        <extensions>
          <gpxtpx:TrackPointExtension xmlns:gpxtpx="http://www.garmin.com/xmlschemas/TrackPointExtension/v1">
            <gpxtpx:hr>135</gpxtpx:hr>
          </gpxtpx:TrackPointExtension>
        </extensions>
      </trkpt>
      <trkpt lat="50.55153" lon="2.6445">
        <ele>24.2</ele>
        <time>2021-06-24T16:35:54Z</time>
        <extensions>
          <gpxtpx:TrackPointExtension xmlns:gpxtpx="http://www.garmin.com/xmlschemas/TrackPointExtension/v1">
            <gpxtpx:hr>135</gpxtpx:hr>
          </gpxtpx:TrackPointExtension>
        </extensions>
      </trkpt>
      <trkpt lat="50.55148" lon="2.6445">
        <ele>24.2</ele>
        <time>2021-06-24T16:35:55Z</time>
        <extensions>
          <gpxtpx:TrackPointExtension xmlns:gpxtpx="http://www.garmin.com/xmlschemas/TrackPointExtension/v1">
            <gpxtpx:hr>135</gpxtpx:hr>
          </gpxtpx:TrackPointExtension>
        </extensions>
      </trkpt>
      <trkpt lat="50.55142" lon="2.64451">
        <ele>24.2</ele>
        <time>2021-06-24T16:35:56Z</time>
        <extensions>
          <gpxtpx:TrackPointExtension xmlns:gpxtpx="http://www.garmin.com/xmlschemas/TrackPointExtension/v1">
            <gpxtpx:hr>135</gpxtpx:hr>
          </gpxtpx:TrackPointExtension>
        </extensions>
      </trkpt>
      <trkpt lat="50.55137" lon="2.64455">
        <ele>24</ele>
        <time>2021-06-24T16:35:57Z</time>
        <extensions>
          <gpxtpx:TrackPointExtension xmlns:gpxtpx="http://www.garmin.com/xmlschemas/TrackPointExtension/v1">
            <gpxtpx:hr>134</gpxtpx:hr>
          </gpxtpx:TrackPointExtension>
        </extensions>
      </trkpt>
      <trkpt lat="50.55132" lon="2.64459">
        <ele>24</ele>
        <time>2021-06-24T16:35:58Z</time>
        <extensions>
          <gpxtpx:TrackPointExtension xmlns:gpxtpx="http://www.garmin.com/xmlschemas/TrackPointExtension/v1">
            <gpxtpx:hr>134</gpxtpx:hr>
          </gpxtpx:TrackPointExtension>
        </extensions>
      </trkpt>
      <trkpt lat="50.55128" lon="2.64465">
        <ele>23.8</ele>
        <time>2021-06-24T16:35:59Z</time>
        <extensions>
          <gpxtpx:TrackPointExtension xmlns:gpxtpx="http://www.garmin.com/xmlschemas/TrackPointExtension/v1">
            <gpxtpx:hr>133</gpxtpx:hr>
          </gpxtpx:TrackPointExtension>
        </extensions>
      </trkpt>
      <trkpt lat="50.55123" lon="2.64472">
        <ele>23.8</ele>
        <time>2021-06-24T16:36:00Z</time>
        <extensions>
          <gpxtpx:TrackPointExtension xmlns:gpxtpx="http://www.garmin.com/xmlschemas/TrackPointExtension/v1">
            <gpxtpx:hr>133</gpxtpx:hr>
          </gpxtpx:TrackPointExtension>
        </extensions>
      </trkpt>
      <trkpt lat="50.55118" lon="2.64478">
        <ele>23.6</ele>
        <time>2021-06-24T16:36:01Z</time>
        <extensions>
          <gpxtpx:TrackPointExtension xmlns:gpxtpx="http://www.garmin.com/xmlschemas/TrackPointExtension/v1">
            <gpxtpx:hr>132</gpxtpx:hr>
          </gpxtpx:TrackPointExtension>
        </extensions>
      </trkpt>
      <trkpt lat="50.55113" lon="2.64484">
        <ele>23.4</ele>
        <time>2021-06-24T16:36:02Z</time>
        <extensions>
          <gpxtpx:TrackPointExtension xmlns:gpxtpx="http://www.garmin.com/xmlschemas/TrackPointExtension/v1">
            <gpxtpx:hr>131</gpxtpx:hr>
          </gpxtpx:TrackPointExtension>
        </extensions>
      </trkpt>
      <trkpt lat="50.55108" lon="2.64491">
        <ele>23.4</ele>
        <time>2021-06-24T16:36:03Z</time>
        <extensions>
          <gpxtpx:TrackPointExtension xmlns:gpxtpx="http://www.garmin.com/xmlschemas/TrackPointExtension/v1">
            <gpxtpx:hr>131</gpxtpx:hr>
          </gpxtpx:TrackPointExtension>
        </extensions>
      </trkpt>
      <trkpt lat="50.55103" lon="2.64497">
        <ele>23.2</ele>
        <time>2021-06-24T16:36:04Z</time>
        <extensions>
          <gpxtpx:TrackPointExtension xmlns:gpxtpx="http://www.garmin.com/xmlschemas/TrackPointExtension/v1">
            <gpxtpx:hr>130</gpxtpx:hr>
          </gpxtpx:TrackPointExtension>
        </extensions>
      </trkpt>
      <trkpt lat="50.55098" lon="2.64502">
        <ele>23</ele>
        <time>2021-06-24T16:36:05Z</time>
        <extensions>
          <gpxtpx:TrackPointExtension xmlns:gpxtpx="http://www.garmin.com/xmlschemas/TrackPointExtension/v1">
            <gpxtpx:hr>130</gpxtpx:hr>
          </gpxtpx:TrackPointExtension>
        </extensions>
      </trkpt>
      <trkpt lat="50.55093" lon="2.64508">
        <ele>23</ele>
        <time>2021-06-24T16:36:06Z</time>
        <extensions>
          <gpxtpx:TrackPointExtension xmlns:gpxtpx="http://www.garmin.com/xmlschemas/TrackPointExtension/v1">
            <gpxtpx:hr>130</gpxtpx:hr>
          </gpxtpx:TrackPointExtension>
        </extensions>
      </trkpt>
      <trkpt lat="50.55088" lon="2.64514">
        <ele>22.8</ele>
        <time>2021-06-24T16:36:07Z</time>
        <extensions>
          <gpxtpx:TrackPointExtension xmlns:gpxtpx="http://www.garmin.com/xmlschemas/TrackPointExtension/v1">
            <gpxtpx:hr>130</gpxtpx:hr>
          </gpxtpx:TrackPointExtension>
        </extensions>
      </trkpt>
      <trkpt lat="50.55083" lon="2.6452">
        <ele>22.6</ele>
        <time>2021-06-24T16:36:08Z</time>
        <extensions>
          <gpxtpx:TrackPointExtension xmlns:gpxtpx="http://www.garmin.com/xmlschemas/TrackPointExtension/v1">
            <gpxtpx:hr>130</gpxtpx:hr>
          </gpxtpx:TrackPointExtension>
        </extensions>
      </trkpt>
      <trkpt lat="50.55078" lon="2.64526">
        <ele>22.6</ele>
        <time>2021-06-24T16:36:09Z</time>
        <extensions>
          <gpxtpx:TrackPointExtension xmlns:gpxtpx="http://www.garmin.com/xmlschemas/TrackPointExtension/v1">
            <gpxtpx:hr>130</gpxtpx:hr>
          </gpxtpx:TrackPointExtension>
        </extensions>
      </trkpt>
      <trkpt lat="50.55073" lon="2.64533">
        <ele>22.4</ele>
        <time>2021-06-24T16:36:10Z</time>
        <extensions>
          <gpxtpx:TrackPointExtension xmlns:gpxtpx="http://www.garmin.com/xmlschemas/TrackPointExtension/v1">
            <gpxtpx:hr>130</gpxtpx:hr>
          </gpxtpx:TrackPointExtension>
        </extensions>
      </trkpt>
      <trkpt lat="50.55067" lon="2.64541">
        <ele>22.4</ele>
        <time>2021-06-24T16:36:11Z</time>
        <extensions>
          <gpxtpx:TrackPointExtension xmlns:gpxtpx="http://www.garmin.com/xmlschemas/TrackPointExtension/v1">
            <gpxtpx:hr>130</gpxtpx:hr>
          </gpxtpx:TrackPointExtension>
        </extensions>
      </trkpt>
      <trkpt lat="50.55064" lon="2.64546">
        <ele>22.2</ele>
        <time>2021-06-24T16:36:12Z</time>
        <extensions>
          <gpxtpx:TrackPointExtension xmlns:gpxtpx="http://www.garmin.com/xmlschemas/TrackPointExtension/v1">
            <gpxtpx:hr>130</gpxtpx:hr>
          </gpxtpx:TrackPointExtension>
        </extensions>
      </trkpt>
      <trkpt lat="50.55059" lon="2.64552">
        <ele>22.2</ele>
        <time>2021-06-24T16:36:13Z</time>
        <extensions>
          <gpxtpx:TrackPointExtension xmlns:gpxtpx="http://www.garmin.com/xmlschemas/TrackPointExtension/v1">
            <gpxtpx:hr>130</gpxtpx:hr>
          </gpxtpx:TrackPointExtension>
        </extensions>
      </trkpt>
      <trkpt lat="50.55054" lon="2.64558">
        <ele>22</ele>
        <time>2021-06-24T16:36:14Z</time>
        <extensions>
          <gpxtpx:TrackPointExtension xmlns:gpxtpx="http://www.garmin.com/xmlschemas/TrackPointExtension/v1">
            <gpxtpx:hr>130</gpxtpx:hr>
          </gpxtpx:TrackPointExtension>
        </extensions>
      </trkpt>
      <trkpt lat="50.55045" lon="2.64571">
        <ele>21.8</ele>
        <time>2021-06-24T16:36:16Z</time>
        <extensions>
          <gpxtpx:TrackPointExtension xmlns:gpxtpx="http://www.garmin.com/xmlschemas/TrackPointExtension/v1">
            <gpxtpx:hr>129</gpxtpx:hr>
          </gpxtpx:TrackPointExtension>
        </extensions>
      </trkpt>
      <trkpt lat="50.5504" lon="2.64578">
        <ele>21.8</ele>
        <time>2021-06-24T16:36:17Z</time>
        <extensions>
          <gpxtpx:TrackPointExtension xmlns:gpxtpx="http://www.garmin.com/xmlschemas/TrackPointExtension/v1">
            <gpxtpx:hr>129</gpxtpx:hr>
          </gpxtpx:TrackPointExtension>
        </extensions>
      </trkpt>
      <trkpt lat="50.55036" lon="2.64585">
        <ele>21.6</ele>
        <time>2021-06-24T16:36:18Z</time>
        <extensions>
          <gpxtpx:TrackPointExtension xmlns:gpxtpx="http://www.garmin.com/xmlschemas/TrackPointExtension/v1">
            <gpxtpx:hr>128</gpxtpx:hr>
          </gpxtpx:TrackPointExtension>
        </extensions>
      </trkpt>
      <trkpt lat="50.55031" lon="2.64592">
        <ele>21.4</ele>
        <time>2021-06-24T16:36:19Z</time>
        <extensions>
          <gpxtpx:TrackPointExtension xmlns:gpxtpx="http://www.garmin.com/xmlschemas/TrackPointExtension/v1">
            <gpxtpx:hr>128</gpxtpx:hr>
          </gpxtpx:TrackPointExtension>
        </extensions>
      </trkpt>
      <trkpt lat="50.55027" lon="2.64599">
        <ele>21.4</ele>
        <time>2021-06-24T16:36:20Z</time>
        <extensions>
          <gpxtpx:TrackPointExtension xmlns:gpxtpx="http://www.garmin.com/xmlschemas/TrackPointExtension/v1">
            <gpxtpx:hr>128</gpxtpx:hr>
          </gpxtpx:TrackPointExtension>
        </extensions>
      </trkpt>
      <trkpt lat="50.55022" lon="2.64606">
        <ele>21.2</ele>
        <time>2021-06-24T16:36:21Z</time>
        <extensions>
          <gpxtpx:TrackPointExtension xmlns:gpxtpx="http://www.garmin.com/xmlschemas/TrackPointExtension/v1">
            <gpxtpx:hr>127</gpxtpx:hr>
          </gpxtpx:TrackPointExtension>
        </extensions>
      </trkpt>
      <trkpt lat="50.55018" lon="2.64614">
        <ele>21.2</ele>
        <time>2021-06-24T16:36:22Z</time>
        <extensions>
          <gpxtpx:TrackPointExtension xmlns:gpxtpx="http://www.garmin.com/xmlschemas/TrackPointExtension/v1">
            <gpxtpx:hr>127</gpxtpx:hr>
          </gpxtpx:TrackPointExtension>
        </extensions>
      </trkpt>
      <trkpt lat="50.55013" lon="2.64621">
        <ele>21</ele>
        <time>2021-06-24T16:36:23Z</time>
        <extensions>
          <gpxtpx:TrackPointExtension xmlns:gpxtpx="http://www.garmin.com/xmlschemas/TrackPointExtension/v1">
            <gpxtpx:hr>127</gpxtpx:hr>
          </gpxtpx:TrackPointExtension>
        </extensions>
      </trkpt>
      <trkpt lat="50.55008" lon="2.64628">
        <ele>20.8</ele>
        <time>2021-06-24T16:36:24Z</time>
        <extensions>
          <gpxtpx:TrackPointExtension xmlns:gpxtpx="http://www.garmin.com/xmlschemas/TrackPointExtension/v1">
            <gpxtpx:hr>127</gpxtpx:hr>
          </gpxtpx:TrackPointExtension>
        </extensions>
      </trkpt>
      <trkpt lat="50.54998" lon="2.64644">
        <ele>20.6</ele>
        <time>2021-06-24T16:36:26Z</time>
        <extensions>
          <gpxtpx:TrackPointExtension xmlns:gpxtpx="http://www.garmin.com/xmlschemas/TrackPointExtension/v1">
            <gpxtpx:hr>127</gpxtpx:hr>
          </gpxtpx:TrackPointExtension>
        </extensions>
      </trkpt>
      <trkpt lat="50.54994" lon="2.64649">
        <ele>20.6</ele>
        <time>2021-06-24T16:36:27Z</time>
        <extensions>
          <gpxtpx:TrackPointExtension xmlns:gpxtpx="http://www.garmin.com/xmlschemas/TrackPointExtension/v1">
            <gpxtpx:hr>127</gpxtpx:hr>
          </gpxtpx:TrackPointExtension>
        </extensions>
      </trkpt>
      <trkpt lat="50.54988" lon="2.64656">
        <ele>20.6</ele>
        <time>2021-06-24T16:36:28Z</time>
        <extensions>
          <gpxtpx:TrackPointExtension xmlns:gpxtpx="http://www.garmin.com/xmlschemas/TrackPointExtension/v1">
            <gpxtpx:hr>127</gpxtpx:hr>
          </gpxtpx:TrackPointExtension>
        </extensions>
      </trkpt>
      <trkpt lat="50.54977" lon="2.64671">
        <ele>20.6</ele>
        <time>2021-06-24T16:36:30Z</time>
        <extensions>
          <gpxtpx:TrackPointExtension xmlns:gpxtpx="http://www.garmin.com/xmlschemas/TrackPointExtension/v1">
            <gpxtpx:hr>127</gpxtpx:hr>
          </gpxtpx:TrackPointExtension>
        </extensions>
      </trkpt>
      <trkpt lat="50.54972" lon="2.64678">
        <ele>20.6</ele>
        <time>2021-06-24T16:36:31Z</time>
        <extensions>
          <gpxtpx:TrackPointExtension xmlns:gpxtpx="http://www.garmin.com/xmlschemas/TrackPointExtension/v1">
            <gpxtpx:hr>126</gpxtpx:hr>
          </gpxtpx:TrackPointExtension>
        </extensions>
      </trkpt>
      <trkpt lat="50.54967" lon="2.64684">
        <ele>20.6</ele>
        <time>2021-06-24T16:36:32Z</time>
        <extensions>
          <gpxtpx:TrackPointExtension xmlns:gpxtpx="http://www.garmin.com/xmlschemas/TrackPointExtension/v1">
            <gpxtpx:hr>126</gpxtpx:hr>
          </gpxtpx:TrackPointExtension>
        </extensions>
      </trkpt>
      <trkpt lat="50.54962" lon="2.64692">
        <ele>20.6</ele>
        <time>2021-06-24T16:36:33Z</time>
        <extensions>
          <gpxtpx:TrackPointExtension xmlns:gpxtpx="http://www.garmin.com/xmlschemas/TrackPointExtension/v1">
            <gpxtpx:hr>126</gpxtpx:hr>
          </gpxtpx:TrackPointExtension>
        </extensions>
      </trkpt>
      <trkpt lat="50.54957" lon="2.64699">
        <ele>20.6</ele>
        <time>2021-06-24T16:36:34Z</time>
        <extensions>
          <gpxtpx:TrackPointExtension xmlns:gpxtpx="http://www.garmin.com/xmlschemas/TrackPointExtension/v1">
            <gpxtpx:hr>127</gpxtpx:hr>
          </gpxtpx:TrackPointExtension>
        </extensions>
      </trkpt>
      <trkpt lat="50.54951" lon="2.64706">
        <ele>20.8</ele>
        <time>2021-06-24T16:36:35Z</time>
        <extensions>
          <gpxtpx:TrackPointExtension xmlns:gpxtpx="http://www.garmin.com/xmlschemas/TrackPointExtension/v1">
            <gpxtpx:hr>127</gpxtpx:hr>
          </gpxtpx:TrackPointExtension>
        </extensions>
      </trkpt>
      <trkpt lat="50.54947" lon="2.64714">
        <ele>20.8</ele>
        <time>2021-06-24T16:36:36Z</time>
        <extensions>
          <gpxtpx:TrackPointExtension xmlns:gpxtpx="http://www.garmin.com/xmlschemas/TrackPointExtension/v1">
            <gpxtpx:hr>128</gpxtpx:hr>
          </gpxtpx:TrackPointExtension>
        </extensions>
      </trkpt>
      <trkpt lat="50.54941" lon="2.64721">
        <ele>20.8</ele>
        <time>2021-06-24T16:36:37Z</time>
        <extensions>
          <gpxtpx:TrackPointExtension xmlns:gpxtpx="http://www.garmin.com/xmlschemas/TrackPointExtension/v1">
            <gpxtpx:hr>128</gpxtpx:hr>
          </gpxtpx:TrackPointExtension>
        </extensions>
      </trkpt>
      <trkpt lat="50.54936" lon="2.64729">
        <ele>20.8</ele>
        <time>2021-06-24T16:36:38Z</time>
        <extensions>
          <gpxtpx:TrackPointExtension xmlns:gpxtpx="http://www.garmin.com/xmlschemas/TrackPointExtension/v1">
            <gpxtpx:hr>128</gpxtpx:hr>
          </gpxtpx:TrackPointExtension>
        </extensions>
      </trkpt>
      <trkpt lat="50.54931" lon="2.64736">
        <ele>20.8</ele>
        <time>2021-06-24T16:36:39Z</time>
        <extensions>
          <gpxtpx:TrackPointExtension xmlns:gpxtpx="http://www.garmin.com/xmlschemas/TrackPointExtension/v1">
            <gpxtpx:hr>129</gpxtpx:hr>
          </gpxtpx:TrackPointExtension>
        </extensions>
      </trkpt>
      <trkpt lat="50.54922" lon="2.64751">
        <ele>20.8</ele>
        <time>2021-06-24T16:36:41Z</time>
        <extensions>
          <gpxtpx:TrackPointExtension xmlns:gpxtpx="http://www.garmin.com/xmlschemas/TrackPointExtension/v1">
            <gpxtpx:hr>130</gpxtpx:hr>
          </gpxtpx:TrackPointExtension>
        </extensions>
      </trkpt>
      <trkpt lat="50.54917" lon="2.64757">
        <ele>20.8</ele>
        <time>2021-06-24T16:36:42Z</time>
        <extensions>
          <gpxtpx:TrackPointExtension xmlns:gpxtpx="http://www.garmin.com/xmlschemas/TrackPointExtension/v1">
            <gpxtpx:hr>130</gpxtpx:hr>
          </gpxtpx:TrackPointExtension>
        </extensions>
      </trkpt>
      <trkpt lat="50.54912" lon="2.64763">
        <ele>20.8</ele>
        <time>2021-06-24T16:36:43Z</time>
        <extensions>
          <gpxtpx:TrackPointExtension xmlns:gpxtpx="http://www.garmin.com/xmlschemas/TrackPointExtension/v1">
            <gpxtpx:hr>130</gpxtpx:hr>
          </gpxtpx:TrackPointExtension>
        </extensions>
      </trkpt>
      <trkpt lat="50.54908" lon="2.6477">
        <ele>20.8</ele>
        <time>2021-06-24T16:36:44Z</time>
        <extensions>
          <gpxtpx:TrackPointExtension xmlns:gpxtpx="http://www.garmin.com/xmlschemas/TrackPointExtension/v1">
            <gpxtpx:hr>131</gpxtpx:hr>
          </gpxtpx:TrackPointExtension>
        </extensions>
      </trkpt>
      <trkpt lat="50.54897" lon="2.64785">
        <ele>21</ele>
        <time>2021-06-24T16:36:46Z</time>
        <extensions>
          <gpxtpx:TrackPointExtension xmlns:gpxtpx="http://www.garmin.com/xmlschemas/TrackPointExtension/v1">
            <gpxtpx:hr>131</gpxtpx:hr>
          </gpxtpx:TrackPointExtension>
        </extensions>
      </trkpt>
      <trkpt lat="50.54892" lon="2.64792">
        <ele>21</ele>
        <time>2021-06-24T16:36:47Z</time>
        <extensions>
          <gpxtpx:TrackPointExtension xmlns:gpxtpx="http://www.garmin.com/xmlschemas/TrackPointExtension/v1">
            <gpxtpx:hr>131</gpxtpx:hr>
          </gpxtpx:TrackPointExtension>
        </extensions>
      </trkpt>
      <trkpt lat="50.54888" lon="2.64798">
        <ele>21</ele>
        <time>2021-06-24T16:36:48Z</time>
        <extensions>
          <gpxtpx:TrackPointExtension xmlns:gpxtpx="http://www.garmin.com/xmlschemas/TrackPointExtension/v1">
            <gpxtpx:hr>131</gpxtpx:hr>
          </gpxtpx:TrackPointExtension>
        </extensions>
      </trkpt>
      <trkpt lat="50.54883" lon="2.64805">
        <ele>21</ele>
        <time>2021-06-24T16:36:49Z</time>
        <extensions>
          <gpxtpx:TrackPointExtension xmlns:gpxtpx="http://www.garmin.com/xmlschemas/TrackPointExtension/v1">
            <gpxtpx:hr>131</gpxtpx:hr>
          </gpxtpx:TrackPointExtension>
        </extensions>
      </trkpt>
      <trkpt lat="50.54873" lon="2.64819">
        <ele>21</ele>
        <time>2021-06-24T16:36:51Z</time>
        <extensions>
          <gpxtpx:TrackPointExtension xmlns:gpxtpx="http://www.garmin.com/xmlschemas/TrackPointExtension/v1">
            <gpxtpx:hr>131</gpxtpx:hr>
          </gpxtpx:TrackPointExtension>
        </extensions>
      </trkpt>
      <trkpt lat="50.54868" lon="2.64826">
        <ele>21</ele>
        <time>2021-06-24T16:36:52Z</time>
        <extensions>
          <gpxtpx:TrackPointExtension xmlns:gpxtpx="http://www.garmin.com/xmlschemas/TrackPointExtension/v1">
            <gpxtpx:hr>132</gpxtpx:hr>
          </gpxtpx:TrackPointExtension>
        </extensions>
      </trkpt>
      <trkpt lat="50.54863" lon="2.64833">
        <ele>21</ele>
        <time>2021-06-24T16:36:53Z</time>
        <extensions>
          <gpxtpx:TrackPointExtension xmlns:gpxtpx="http://www.garmin.com/xmlschemas/TrackPointExtension/v1">
            <gpxtpx:hr>132</gpxtpx:hr>
          </gpxtpx:TrackPointExtension>
        </extensions>
      </trkpt>
      <trkpt lat="50.54858" lon="2.64839">
        <ele>21</ele>
        <time>2021-06-24T16:36:54Z</time>
        <extensions>
          <gpxtpx:TrackPointExtension xmlns:gpxtpx="http://www.garmin.com/xmlschemas/TrackPointExtension/v1">
            <gpxtpx:hr>132</gpxtpx:hr>
          </gpxtpx:TrackPointExtension>
        </extensions>
      </trkpt>
      <trkpt lat="50.54852" lon="2.64846">
        <ele>21</ele>
        <time>2021-06-24T16:36:55Z</time>
        <extensions>
          <gpxtpx:TrackPointExtension xmlns:gpxtpx="http://www.garmin.com/xmlschemas/TrackPointExtension/v1">
            <gpxtpx:hr>132</gpxtpx:hr>
          </gpxtpx:TrackPointExtension>
        </extensions>
      </trkpt>
      <trkpt lat="50.54847" lon="2.64853">
        <ele>21</ele>
        <time>2021-06-24T16:36:56Z</time>
        <extensions>
          <gpxtpx:TrackPointExtension xmlns:gpxtpx="http://www.garmin.com/xmlschemas/TrackPointExtension/v1">
            <gpxtpx:hr>133</gpxtpx:hr>
          </gpxtpx:TrackPointExtension>
        </extensions>
      </trkpt>
      <trkpt lat="50.54843" lon="2.6486">
        <ele>21</ele>
        <time>2021-06-24T16:36:57Z</time>
        <extensions>
          <gpxtpx:TrackPointExtension xmlns:gpxtpx="http://www.garmin.com/xmlschemas/TrackPointExtension/v1">
            <gpxtpx:hr>133</gpxtpx:hr>
          </gpxtpx:TrackPointExtension>
        </extensions>
      </trkpt>
      <trkpt lat="50.54833" lon="2.64874">
        <ele>21</ele>
        <time>2021-06-24T16:36:59Z</time>
        <extensions>
          <gpxtpx:TrackPointExtension xmlns:gpxtpx="http://www.garmin.com/xmlschemas/TrackPointExtension/v1">
            <gpxtpx:hr>133</gpxtpx:hr>
          </gpxtpx:TrackPointExtension>
        </extensions>
      </trkpt>
      <trkpt lat="50.54828" lon="2.64881">
        <ele>21</ele>
        <time>2021-06-24T16:37:00Z</time>
        <extensions>
          <gpxtpx:TrackPointExtension xmlns:gpxtpx="http://www.garmin.com/xmlschemas/TrackPointExtension/v1">
            <gpxtpx:hr>133</gpxtpx:hr>
          </gpxtpx:TrackPointExtension>
        </extensions>
      </trkpt>
      <trkpt lat="50.54823" lon="2.64888">
        <ele>21</ele>
        <time>2021-06-24T16:37:01Z</time>
        <extensions>
          <gpxtpx:TrackPointExtension xmlns:gpxtpx="http://www.garmin.com/xmlschemas/TrackPointExtension/v1">
            <gpxtpx:hr>134</gpxtpx:hr>
          </gpxtpx:TrackPointExtension>
        </extensions>
      </trkpt>
      <trkpt lat="50.54818" lon="2.64894">
        <ele>20.8</ele>
        <time>2021-06-24T16:37:02Z</time>
        <extensions>
          <gpxtpx:TrackPointExtension xmlns:gpxtpx="http://www.garmin.com/xmlschemas/TrackPointExtension/v1">
            <gpxtpx:hr>134</gpxtpx:hr>
          </gpxtpx:TrackPointExtension>
        </extensions>
      </trkpt>
      <trkpt lat="50.54814" lon="2.64901">
        <ele>20.8</ele>
        <time>2021-06-24T16:37:03Z</time>
        <extensions>
          <gpxtpx:TrackPointExtension xmlns:gpxtpx="http://www.garmin.com/xmlschemas/TrackPointExtension/v1">
            <gpxtpx:hr>134</gpxtpx:hr>
          </gpxtpx:TrackPointExtension>
        </extensions>
      </trkpt>
      <trkpt lat="50.54809" lon="2.64907">
        <ele>20.8</ele>
        <time>2021-06-24T16:37:04Z</time>
        <extensions>
          <gpxtpx:TrackPointExtension xmlns:gpxtpx="http://www.garmin.com/xmlschemas/TrackPointExtension/v1">
            <gpxtpx:hr>134</gpxtpx:hr>
          </gpxtpx:TrackPointExtension>
        </extensions>
      </trkpt>
      <trkpt lat="50.54804" lon="2.64914">
        <ele>20.8</ele>
        <time>2021-06-24T16:37:05Z</time>
        <extensions>
          <gpxtpx:TrackPointExtension xmlns:gpxtpx="http://www.garmin.com/xmlschemas/TrackPointExtension/v1">
            <gpxtpx:hr>134</gpxtpx:hr>
          </gpxtpx:TrackPointExtension>
        </extensions>
      </trkpt>
      <trkpt lat="50.548" lon="2.6492">
        <ele>20.8</ele>
        <time>2021-06-24T16:37:06Z</time>
        <extensions>
          <gpxtpx:TrackPointExtension xmlns:gpxtpx="http://www.garmin.com/xmlschemas/TrackPointExtension/v1">
            <gpxtpx:hr>134</gpxtpx:hr>
          </gpxtpx:TrackPointExtension>
        </extensions>
      </trkpt>
      <trkpt lat="50.54795" lon="2.64928">
        <ele>20.6</ele>
        <time>2021-06-24T16:37:07Z</time>
        <extensions>
          <gpxtpx:TrackPointExtension xmlns:gpxtpx="http://www.garmin.com/xmlschemas/TrackPointExtension/v1">
            <gpxtpx:hr>134</gpxtpx:hr>
          </gpxtpx:TrackPointExtension>
        </extensions>
      </trkpt>
      <trkpt lat="50.54789" lon="2.64935">
        <ele>20.6</ele>
        <time>2021-06-24T16:37:08Z</time>
        <extensions>
          <gpxtpx:TrackPointExtension xmlns:gpxtpx="http://www.garmin.com/xmlschemas/TrackPointExtension/v1">
            <gpxtpx:hr>134</gpxtpx:hr>
          </gpxtpx:TrackPointExtension>
        </extensions>
      </trkpt>
      <trkpt lat="50.54784" lon="2.64943">
        <ele>20.6</ele>
        <time>2021-06-24T16:37:09Z</time>
        <extensions>
          <gpxtpx:TrackPointExtension xmlns:gpxtpx="http://www.garmin.com/xmlschemas/TrackPointExtension/v1">
            <gpxtpx:hr>134</gpxtpx:hr>
          </gpxtpx:TrackPointExtension>
        </extensions>
      </trkpt>
      <trkpt lat="50.54779" lon="2.6495">
        <ele>20.6</ele>
        <time>2021-06-24T16:37:10Z</time>
        <extensions>
          <gpxtpx:TrackPointExtension xmlns:gpxtpx="http://www.garmin.com/xmlschemas/TrackPointExtension/v1">
            <gpxtpx:hr>134</gpxtpx:hr>
          </gpxtpx:TrackPointExtension>
        </extensions>
      </trkpt>
      <trkpt lat="50.54773" lon="2.64957">
        <ele>20.4</ele>
        <time>2021-06-24T16:37:11Z</time>
        <extensions>
          <gpxtpx:TrackPointExtension xmlns:gpxtpx="http://www.garmin.com/xmlschemas/TrackPointExtension/v1">
            <gpxtpx:hr>134</gpxtpx:hr>
          </gpxtpx:TrackPointExtension>
        </extensions>
      </trkpt>
      <trkpt lat="50.54768" lon="2.64964">
        <ele>20.4</ele>
        <time>2021-06-24T16:37:12Z</time>
        <extensions>
          <gpxtpx:TrackPointExtension xmlns:gpxtpx="http://www.garmin.com/xmlschemas/TrackPointExtension/v1">
            <gpxtpx:hr>134</gpxtpx:hr>
          </gpxtpx:TrackPointExtension>
        </extensions>
      </trkpt>
      <trkpt lat="50.54762" lon="2.64971">
        <ele>20.4</ele>
        <time>2021-06-24T16:37:13Z</time>
        <extensions>
          <gpxtpx:TrackPointExtension xmlns:gpxtpx="http://www.garmin.com/xmlschemas/TrackPointExtension/v1">
            <gpxtpx:hr>133</gpxtpx:hr>
          </gpxtpx:TrackPointExtension>
        </extensions>
      </trkpt>
      <trkpt lat="50.54757" lon="2.64977">
        <ele>20.4</ele>
        <time>2021-06-24T16:37:14Z</time>
        <extensions>
          <gpxtpx:TrackPointExtension xmlns:gpxtpx="http://www.garmin.com/xmlschemas/TrackPointExtension/v1">
            <gpxtpx:hr>133</gpxtpx:hr>
          </gpxtpx:TrackPointExtension>
        </extensions>
      </trkpt>
      <trkpt lat="50.54752" lon="2.64984">
        <ele>20.4</ele>
        <time>2021-06-24T16:37:15Z</time>
        <extensions>
          <gpxtpx:TrackPointExtension xmlns:gpxtpx="http://www.garmin.com/xmlschemas/TrackPointExtension/v1">
            <gpxtpx:hr>133</gpxtpx:hr>
          </gpxtpx:TrackPointExtension>
        </extensions>
      </trkpt>
      <trkpt lat="50.54747" lon="2.64991">
        <ele>20.4</ele>
        <time>2021-06-24T16:37:16Z</time>
        <extensions>
          <gpxtpx:TrackPointExtension xmlns:gpxtpx="http://www.garmin.com/xmlschemas/TrackPointExtension/v1">
            <gpxtpx:hr>133</gpxtpx:hr>
          </gpxtpx:TrackPointExtension>
        </extensions>
      </trkpt>
      <trkpt lat="50.54742" lon="2.64998">
        <ele>20.4</ele>
        <time>2021-06-24T16:37:17Z</time>
        <extensions>
          <gpxtpx:TrackPointExtension xmlns:gpxtpx="http://www.garmin.com/xmlschemas/TrackPointExtension/v1">
            <gpxtpx:hr>133</gpxtpx:hr>
          </gpxtpx:TrackPointExtension>
        </extensions>
      </trkpt>
      <trkpt lat="50.54737" lon="2.65006">
        <ele>20.4</ele>
        <time>2021-06-24T16:37:18Z</time>
        <extensions>
          <gpxtpx:TrackPointExtension xmlns:gpxtpx="http://www.garmin.com/xmlschemas/TrackPointExtension/v1">
            <gpxtpx:hr>133</gpxtpx:hr>
          </gpxtpx:TrackPointExtension>
        </extensions>
      </trkpt>
      <trkpt lat="50.54732" lon="2.65013">
        <ele>20.4</ele>
        <time>2021-06-24T16:37:19Z</time>
        <extensions>
          <gpxtpx:TrackPointExtension xmlns:gpxtpx="http://www.garmin.com/xmlschemas/TrackPointExtension/v1">
            <gpxtpx:hr>134</gpxtpx:hr>
          </gpxtpx:TrackPointExtension>
        </extensions>
      </trkpt>
      <trkpt lat="50.54726" lon="2.6502">
        <ele>20.2</ele>
        <time>2021-06-24T16:37:20Z</time>
        <extensions>
          <gpxtpx:TrackPointExtension xmlns:gpxtpx="http://www.garmin.com/xmlschemas/TrackPointExtension/v1">
            <gpxtpx:hr>134</gpxtpx:hr>
          </gpxtpx:TrackPointExtension>
        </extensions>
      </trkpt>
      <trkpt lat="50.54722" lon="2.65027">
        <ele>20.2</ele>
        <time>2021-06-24T16:37:21Z</time>
        <extensions>
          <gpxtpx:TrackPointExtension xmlns:gpxtpx="http://www.garmin.com/xmlschemas/TrackPointExtension/v1">
            <gpxtpx:hr>135</gpxtpx:hr>
          </gpxtpx:TrackPointExtension>
        </extensions>
      </trkpt>
      <trkpt lat="50.54716" lon="2.65034">
        <ele>20.2</ele>
        <time>2021-06-24T16:37:22Z</time>
        <extensions>
          <gpxtpx:TrackPointExtension xmlns:gpxtpx="http://www.garmin.com/xmlschemas/TrackPointExtension/v1">
            <gpxtpx:hr>136</gpxtpx:hr>
          </gpxtpx:TrackPointExtension>
        </extensions>
      </trkpt>
      <trkpt lat="50.54711" lon="2.65041">
        <ele>20.2</ele>
        <time>2021-06-24T16:37:23Z</time>
        <extensions>
          <gpxtpx:TrackPointExtension xmlns:gpxtpx="http://www.garmin.com/xmlschemas/TrackPointExtension/v1">
            <gpxtpx:hr>136</gpxtpx:hr>
          </gpxtpx:TrackPointExtension>
        </extensions>
      </trkpt>
      <trkpt lat="50.54706" lon="2.65048">
        <ele>20.2</ele>
        <time>2021-06-24T16:37:24Z</time>
        <extensions>
          <gpxtpx:TrackPointExtension xmlns:gpxtpx="http://www.garmin.com/xmlschemas/TrackPointExtension/v1">
            <gpxtpx:hr>137</gpxtpx:hr>
          </gpxtpx:TrackPointExtension>
        </extensions>
      </trkpt>
      <trkpt lat="50.54701" lon="2.65056">
        <ele>20.2</ele>
        <time>2021-06-24T16:37:25Z</time>
        <extensions>
          <gpxtpx:TrackPointExtension xmlns:gpxtpx="http://www.garmin.com/xmlschemas/TrackPointExtension/v1">
            <gpxtpx:hr>137</gpxtpx:hr>
          </gpxtpx:TrackPointExtension>
        </extensions>
      </trkpt>
      <trkpt lat="50.54696" lon="2.65062">
        <ele>20.2</ele>
        <time>2021-06-24T16:37:26Z</time>
        <extensions>
          <gpxtpx:TrackPointExtension xmlns:gpxtpx="http://www.garmin.com/xmlschemas/TrackPointExtension/v1">
            <gpxtpx:hr>138</gpxtpx:hr>
          </gpxtpx:TrackPointExtension>
        </extensions>
      </trkpt>
      <trkpt lat="50.5469" lon="2.65069">
        <ele>20.2</ele>
        <time>2021-06-24T16:37:27Z</time>
        <extensions>
          <gpxtpx:TrackPointExtension xmlns:gpxtpx="http://www.garmin.com/xmlschemas/TrackPointExtension/v1">
            <gpxtpx:hr>138</gpxtpx:hr>
          </gpxtpx:TrackPointExtension>
        </extensions>
      </trkpt>
      <trkpt lat="50.54685" lon="2.65076">
        <ele>20.2</ele>
        <time>2021-06-24T16:37:28Z</time>
        <extensions>
          <gpxtpx:TrackPointExtension xmlns:gpxtpx="http://www.garmin.com/xmlschemas/TrackPointExtension/v1">
            <gpxtpx:hr>139</gpxtpx:hr>
          </gpxtpx:TrackPointExtension>
        </extensions>
      </trkpt>
      <trkpt lat="50.5468" lon="2.65083">
        <ele>20.2</ele>
        <time>2021-06-24T16:37:29Z</time>
        <extensions>
          <gpxtpx:TrackPointExtension xmlns:gpxtpx="http://www.garmin.com/xmlschemas/TrackPointExtension/v1">
            <gpxtpx:hr>139</gpxtpx:hr>
          </gpxtpx:TrackPointExtension>
        </extensions>
      </trkpt>
      <trkpt lat="50.54675" lon="2.65091">
        <ele>20.2</ele>
        <time>2021-06-24T16:37:30Z</time>
        <extensions>
          <gpxtpx:TrackPointExtension xmlns:gpxtpx="http://www.garmin.com/xmlschemas/TrackPointExtension/v1">
            <gpxtpx:hr>139</gpxtpx:hr>
          </gpxtpx:TrackPointExtension>
        </extensions>
      </trkpt>
      <trkpt lat="50.54669" lon="2.65098">
        <ele>20.2</ele>
        <time>2021-06-24T16:37:31Z</time>
        <extensions>
          <gpxtpx:TrackPointExtension xmlns:gpxtpx="http://www.garmin.com/xmlschemas/TrackPointExtension/v1">
            <gpxtpx:hr>139</gpxtpx:hr>
          </gpxtpx:TrackPointExtension>
        </extensions>
      </trkpt>
      <trkpt lat="50.54665" lon="2.65105">
        <ele>20.2</ele>
        <time>2021-06-24T16:37:32Z</time>
        <extensions>
          <gpxtpx:TrackPointExtension xmlns:gpxtpx="http://www.garmin.com/xmlschemas/TrackPointExtension/v1">
            <gpxtpx:hr>139</gpxtpx:hr>
          </gpxtpx:TrackPointExtension>
        </extensions>
      </trkpt>
      <trkpt lat="50.54659" lon="2.65113">
        <ele>20.2</ele>
        <time>2021-06-24T16:37:33Z</time>
        <extensions>
          <gpxtpx:TrackPointExtension xmlns:gpxtpx="http://www.garmin.com/xmlschemas/TrackPointExtension/v1">
            <gpxtpx:hr>139</gpxtpx:hr>
          </gpxtpx:TrackPointExtension>
        </extensions>
      </trkpt>
      <trkpt lat="50.54654" lon="2.6512">
        <ele>20.2</ele>
        <time>2021-06-24T16:37:34Z</time>
        <extensions>
          <gpxtpx:TrackPointExtension xmlns:gpxtpx="http://www.garmin.com/xmlschemas/TrackPointExtension/v1">
            <gpxtpx:hr>139</gpxtpx:hr>
          </gpxtpx:TrackPointExtension>
        </extensions>
      </trkpt>
      <trkpt lat="50.54649" lon="2.65127">
        <ele>20.2</ele>
        <time>2021-06-24T16:37:35Z</time>
        <extensions>
          <gpxtpx:TrackPointExtension xmlns:gpxtpx="http://www.garmin.com/xmlschemas/TrackPointExtension/v1">
            <gpxtpx:hr>139</gpxtpx:hr>
          </gpxtpx:TrackPointExtension>
        </extensions>
      </trkpt>
      <trkpt lat="50.54644" lon="2.65135">
        <ele>20.2</ele>
        <time>2021-06-24T16:37:36Z</time>
        <extensions>
          <gpxtpx:TrackPointExtension xmlns:gpxtpx="http://www.garmin.com/xmlschemas/TrackPointExtension/v1">
            <gpxtpx:hr>139</gpxtpx:hr>
          </gpxtpx:TrackPointExtension>
        </extensions>
      </trkpt>
      <trkpt lat="50.54639" lon="2.65142">
        <ele>20.2</ele>
        <time>2021-06-24T16:37:37Z</time>
        <extensions>
          <gpxtpx:TrackPointExtension xmlns:gpxtpx="http://www.garmin.com/xmlschemas/TrackPointExtension/v1">
            <gpxtpx:hr>139</gpxtpx:hr>
          </gpxtpx:TrackPointExtension>
        </extensions>
      </trkpt>
      <trkpt lat="50.54634" lon="2.65149">
        <ele>20</ele>
        <time>2021-06-24T16:37:38Z</time>
        <extensions>
          <gpxtpx:TrackPointExtension xmlns:gpxtpx="http://www.garmin.com/xmlschemas/TrackPointExtension/v1">
            <gpxtpx:hr>139</gpxtpx:hr>
          </gpxtpx:TrackPointExtension>
        </extensions>
      </trkpt>
      <trkpt lat="50.54629" lon="2.65155">
        <ele>20</ele>
        <time>2021-06-24T16:37:39Z</time>
        <extensions>
          <gpxtpx:TrackPointExtension xmlns:gpxtpx="http://www.garmin.com/xmlschemas/TrackPointExtension/v1">
            <gpxtpx:hr>139</gpxtpx:hr>
          </gpxtpx:TrackPointExtension>
        </extensions>
      </trkpt>
      <trkpt lat="50.54624" lon="2.65163">
        <ele>20</ele>
        <time>2021-06-24T16:37:40Z</time>
        <extensions>
          <gpxtpx:TrackPointExtension xmlns:gpxtpx="http://www.garmin.com/xmlschemas/TrackPointExtension/v1">
            <gpxtpx:hr>139</gpxtpx:hr>
          </gpxtpx:TrackPointExtension>
        </extensions>
      </trkpt>
      <trkpt lat="50.54619" lon="2.6517">
        <ele>20</ele>
        <time>2021-06-24T16:37:41Z</time>
        <extensions>
          <gpxtpx:TrackPointExtension xmlns:gpxtpx="http://www.garmin.com/xmlschemas/TrackPointExtension/v1">
            <gpxtpx:hr>139</gpxtpx:hr>
          </gpxtpx:TrackPointExtension>
        </extensions>
      </trkpt>
      <trkpt lat="50.54613" lon="2.65177">
        <ele>20</ele>
        <time>2021-06-24T16:37:42Z</time>
        <extensions>
          <gpxtpx:TrackPointExtension xmlns:gpxtpx="http://www.garmin.com/xmlschemas/TrackPointExtension/v1">
            <gpxtpx:hr>139</gpxtpx:hr>
          </gpxtpx:TrackPointExtension>
        </extensions>
      </trkpt>
      <trkpt lat="50.54608" lon="2.65184">
        <ele>20</ele>
        <time>2021-06-24T16:37:43Z</time>
        <extensions>
          <gpxtpx:TrackPointExtension xmlns:gpxtpx="http://www.garmin.com/xmlschemas/TrackPointExtension/v1">
            <gpxtpx:hr>139</gpxtpx:hr>
          </gpxtpx:TrackPointExtension>
        </extensions>
      </trkpt>
      <trkpt lat="50.54603" lon="2.65191">
        <ele>19.8</ele>
        <time>2021-06-24T16:37:44Z</time>
        <extensions>
          <gpxtpx:TrackPointExtension xmlns:gpxtpx="http://www.garmin.com/xmlschemas/TrackPointExtension/v1">
            <gpxtpx:hr>139</gpxtpx:hr>
          </gpxtpx:TrackPointExtension>
        </extensions>
      </trkpt>
      <trkpt lat="50.54598" lon="2.65198">
        <ele>19.8</ele>
        <time>2021-06-24T16:37:45Z</time>
        <extensions>
          <gpxtpx:TrackPointExtension xmlns:gpxtpx="http://www.garmin.com/xmlschemas/TrackPointExtension/v1">
            <gpxtpx:hr>138</gpxtpx:hr>
          </gpxtpx:TrackPointExtension>
        </extensions>
      </trkpt>
      <trkpt lat="50.54593" lon="2.65205">
        <ele>19.6</ele>
        <time>2021-06-24T16:37:46Z</time>
        <extensions>
          <gpxtpx:TrackPointExtension xmlns:gpxtpx="http://www.garmin.com/xmlschemas/TrackPointExtension/v1">
            <gpxtpx:hr>138</gpxtpx:hr>
          </gpxtpx:TrackPointExtension>
        </extensions>
      </trkpt>
      <trkpt lat="50.54588" lon="2.65212">
        <ele>19.6</ele>
        <time>2021-06-24T16:37:47Z</time>
        <extensions>
          <gpxtpx:TrackPointExtension xmlns:gpxtpx="http://www.garmin.com/xmlschemas/TrackPointExtension/v1">
            <gpxtpx:hr>137</gpxtpx:hr>
          </gpxtpx:TrackPointExtension>
        </extensions>
      </trkpt>
      <trkpt lat="50.54583" lon="2.65219">
        <ele>19.4</ele>
        <time>2021-06-24T16:37:48Z</time>
        <extensions>
          <gpxtpx:TrackPointExtension xmlns:gpxtpx="http://www.garmin.com/xmlschemas/TrackPointExtension/v1">
            <gpxtpx:hr>137</gpxtpx:hr>
          </gpxtpx:TrackPointExtension>
        </extensions>
      </trkpt>
      <trkpt lat="50.54578" lon="2.65226">
        <ele>19.4</ele>
        <time>2021-06-24T16:37:49Z</time>
        <extensions>
          <gpxtpx:TrackPointExtension xmlns:gpxtpx="http://www.garmin.com/xmlschemas/TrackPointExtension/v1">
            <gpxtpx:hr>137</gpxtpx:hr>
          </gpxtpx:TrackPointExtension>
        </extensions>
      </trkpt>
      <trkpt lat="50.54573" lon="2.65233">
        <ele>19.4</ele>
        <time>2021-06-24T16:37:50Z</time>
        <extensions>
          <gpxtpx:TrackPointExtension xmlns:gpxtpx="http://www.garmin.com/xmlschemas/TrackPointExtension/v1">
            <gpxtpx:hr>137</gpxtpx:hr>
          </gpxtpx:TrackPointExtension>
        </extensions>
      </trkpt>
      <trkpt lat="50.54568" lon="2.6524">
        <ele>19.2</ele>
        <time>2021-06-24T16:37:51Z</time>
        <extensions>
          <gpxtpx:TrackPointExtension xmlns:gpxtpx="http://www.garmin.com/xmlschemas/TrackPointExtension/v1">
            <gpxtpx:hr>137</gpxtpx:hr>
          </gpxtpx:TrackPointExtension>
        </extensions>
      </trkpt>
      <trkpt lat="50.54563" lon="2.65247">
        <ele>19.2</ele>
        <time>2021-06-24T16:37:52Z</time>
        <extensions>
          <gpxtpx:TrackPointExtension xmlns:gpxtpx="http://www.garmin.com/xmlschemas/TrackPointExtension/v1">
            <gpxtpx:hr>137</gpxtpx:hr>
          </gpxtpx:TrackPointExtension>
        </extensions>
      </trkpt>
      <trkpt lat="50.54558" lon="2.65255">
        <ele>19.2</ele>
        <time>2021-06-24T16:37:53Z</time>
        <extensions>
          <gpxtpx:TrackPointExtension xmlns:gpxtpx="http://www.garmin.com/xmlschemas/TrackPointExtension/v1">
            <gpxtpx:hr>137</gpxtpx:hr>
          </gpxtpx:TrackPointExtension>
        </extensions>
      </trkpt>
      <trkpt lat="50.54553" lon="2.65261">
        <ele>19.2</ele>
        <time>2021-06-24T16:37:54Z</time>
        <extensions>
          <gpxtpx:TrackPointExtension xmlns:gpxtpx="http://www.garmin.com/xmlschemas/TrackPointExtension/v1">
            <gpxtpx:hr>138</gpxtpx:hr>
          </gpxtpx:TrackPointExtension>
        </extensions>
      </trkpt>
      <trkpt lat="50.54548" lon="2.65268">
        <ele>19.2</ele>
        <time>2021-06-24T16:37:55Z</time>
        <extensions>
          <gpxtpx:TrackPointExtension xmlns:gpxtpx="http://www.garmin.com/xmlschemas/TrackPointExtension/v1">
            <gpxtpx:hr>138</gpxtpx:hr>
          </gpxtpx:TrackPointExtension>
        </extensions>
      </trkpt>
      <trkpt lat="50.54543" lon="2.65274">
        <ele>19.2</ele>
        <time>2021-06-24T16:37:56Z</time>
        <extensions>
          <gpxtpx:TrackPointExtension xmlns:gpxtpx="http://www.garmin.com/xmlschemas/TrackPointExtension/v1">
            <gpxtpx:hr>138</gpxtpx:hr>
          </gpxtpx:TrackPointExtension>
        </extensions>
      </trkpt>
      <trkpt lat="50.54538" lon="2.65281">
        <ele>19.2</ele>
        <time>2021-06-24T16:37:57Z</time>
        <extensions>
          <gpxtpx:TrackPointExtension xmlns:gpxtpx="http://www.garmin.com/xmlschemas/TrackPointExtension/v1">
            <gpxtpx:hr>138</gpxtpx:hr>
          </gpxtpx:TrackPointExtension>
        </extensions>
      </trkpt>
      <trkpt lat="50.54533" lon="2.65288">
        <ele>19.2</ele>
        <time>2021-06-24T16:37:58Z</time>
        <extensions>
          <gpxtpx:TrackPointExtension xmlns:gpxtpx="http://www.garmin.com/xmlschemas/TrackPointExtension/v1">
            <gpxtpx:hr>138</gpxtpx:hr>
          </gpxtpx:TrackPointExtension>
        </extensions>
      </trkpt>
      <trkpt lat="50.54528" lon="2.65295">
        <ele>19.2</ele>
        <time>2021-06-24T16:37:59Z</time>
        <extensions>
          <gpxtpx:TrackPointExtension xmlns:gpxtpx="http://www.garmin.com/xmlschemas/TrackPointExtension/v1">
            <gpxtpx:hr>138</gpxtpx:hr>
          </gpxtpx:TrackPointExtension>
        </extensions>
      </trkpt>
      <trkpt lat="50.54524" lon="2.65303">
        <ele>19.2</ele>
        <time>2021-06-24T16:38:00Z</time>
        <extensions>
          <gpxtpx:TrackPointExtension xmlns:gpxtpx="http://www.garmin.com/xmlschemas/TrackPointExtension/v1">
            <gpxtpx:hr>138</gpxtpx:hr>
          </gpxtpx:TrackPointExtension>
        </extensions>
      </trkpt>
      <trkpt lat="50.54519" lon="2.65309">
        <ele>19.2</ele>
        <time>2021-06-24T16:38:01Z</time>
        <extensions>
          <gpxtpx:TrackPointExtension xmlns:gpxtpx="http://www.garmin.com/xmlschemas/TrackPointExtension/v1">
            <gpxtpx:hr>138</gpxtpx:hr>
          </gpxtpx:TrackPointExtension>
        </extensions>
      </trkpt>
      <trkpt lat="50.54515" lon="2.65316">
        <ele>19.2</ele>
        <time>2021-06-24T16:38:02Z</time>
        <extensions>
          <gpxtpx:TrackPointExtension xmlns:gpxtpx="http://www.garmin.com/xmlschemas/TrackPointExtension/v1">
            <gpxtpx:hr>138</gpxtpx:hr>
          </gpxtpx:TrackPointExtension>
        </extensions>
      </trkpt>
      <trkpt lat="50.5451" lon="2.65322">
        <ele>19.2</ele>
        <time>2021-06-24T16:38:03Z</time>
        <extensions>
          <gpxtpx:TrackPointExtension xmlns:gpxtpx="http://www.garmin.com/xmlschemas/TrackPointExtension/v1">
            <gpxtpx:hr>138</gpxtpx:hr>
          </gpxtpx:TrackPointExtension>
        </extensions>
      </trkpt>
      <trkpt lat="50.54505" lon="2.65329">
        <ele>19.2</ele>
        <time>2021-06-24T16:38:04Z</time>
        <extensions>
          <gpxtpx:TrackPointExtension xmlns:gpxtpx="http://www.garmin.com/xmlschemas/TrackPointExtension/v1">
            <gpxtpx:hr>138</gpxtpx:hr>
          </gpxtpx:TrackPointExtension>
        </extensions>
      </trkpt>
      <trkpt lat="50.545" lon="2.65336">
        <ele>19</ele>
        <time>2021-06-24T16:38:05Z</time>
        <extensions>
          <gpxtpx:TrackPointExtension xmlns:gpxtpx="http://www.garmin.com/xmlschemas/TrackPointExtension/v1">
            <gpxtpx:hr>138</gpxtpx:hr>
          </gpxtpx:TrackPointExtension>
        </extensions>
      </trkpt>
      <trkpt lat="50.54495" lon="2.65342">
        <ele>19</ele>
        <time>2021-06-24T16:38:06Z</time>
        <extensions>
          <gpxtpx:TrackPointExtension xmlns:gpxtpx="http://www.garmin.com/xmlschemas/TrackPointExtension/v1">
            <gpxtpx:hr>138</gpxtpx:hr>
          </gpxtpx:TrackPointExtension>
        </extensions>
      </trkpt>
      <trkpt lat="50.54491" lon="2.65349">
        <ele>19</ele>
        <time>2021-06-24T16:38:07Z</time>
        <extensions>
          <gpxtpx:TrackPointExtension xmlns:gpxtpx="http://www.garmin.com/xmlschemas/TrackPointExtension/v1">
            <gpxtpx:hr>138</gpxtpx:hr>
          </gpxtpx:TrackPointExtension>
        </extensions>
      </trkpt>
      <trkpt lat="50.54486" lon="2.65356">
        <ele>19</ele>
        <time>2021-06-24T16:38:08Z</time>
        <extensions>
          <gpxtpx:TrackPointExtension xmlns:gpxtpx="http://www.garmin.com/xmlschemas/TrackPointExtension/v1">
            <gpxtpx:hr>137</gpxtpx:hr>
          </gpxtpx:TrackPointExtension>
        </extensions>
      </trkpt>
      <trkpt lat="50.54482" lon="2.65363">
        <ele>19</ele>
        <time>2021-06-24T16:38:09Z</time>
        <extensions>
          <gpxtpx:TrackPointExtension xmlns:gpxtpx="http://www.garmin.com/xmlschemas/TrackPointExtension/v1">
            <gpxtpx:hr>137</gpxtpx:hr>
          </gpxtpx:TrackPointExtension>
        </extensions>
      </trkpt>
      <trkpt lat="50.54477" lon="2.6537">
        <ele>18.8</ele>
        <time>2021-06-24T16:38:10Z</time>
        <extensions>
          <gpxtpx:TrackPointExtension xmlns:gpxtpx="http://www.garmin.com/xmlschemas/TrackPointExtension/v1">
            <gpxtpx:hr>137</gpxtpx:hr>
          </gpxtpx:TrackPointExtension>
        </extensions>
      </trkpt>
      <trkpt lat="50.54472" lon="2.65378">
        <ele>18.8</ele>
        <time>2021-06-24T16:38:11Z</time>
        <extensions>
          <gpxtpx:TrackPointExtension xmlns:gpxtpx="http://www.garmin.com/xmlschemas/TrackPointExtension/v1">
            <gpxtpx:hr>137</gpxtpx:hr>
          </gpxtpx:TrackPointExtension>
        </extensions>
      </trkpt>
      <trkpt lat="50.54468" lon="2.65385">
        <ele>18.6</ele>
        <time>2021-06-24T16:38:12Z</time>
        <extensions>
          <gpxtpx:TrackPointExtension xmlns:gpxtpx="http://www.garmin.com/xmlschemas/TrackPointExtension/v1">
            <gpxtpx:hr>137</gpxtpx:hr>
          </gpxtpx:TrackPointExtension>
        </extensions>
      </trkpt>
      <trkpt lat="50.54463" lon="2.65392">
        <ele>18.6</ele>
        <time>2021-06-24T16:38:13Z</time>
        <extensions>
          <gpxtpx:TrackPointExtension xmlns:gpxtpx="http://www.garmin.com/xmlschemas/TrackPointExtension/v1">
            <gpxtpx:hr>137</gpxtpx:hr>
          </gpxtpx:TrackPointExtension>
        </extensions>
      </trkpt>
      <trkpt lat="50.54458" lon="2.65398">
        <ele>18.6</ele>
        <time>2021-06-24T16:38:14Z</time>
        <extensions>
          <gpxtpx:TrackPointExtension xmlns:gpxtpx="http://www.garmin.com/xmlschemas/TrackPointExtension/v1">
            <gpxtpx:hr>137</gpxtpx:hr>
          </gpxtpx:TrackPointExtension>
        </extensions>
      </trkpt>
      <trkpt lat="50.54452" lon="2.65406">
        <ele>18.4</ele>
        <time>2021-06-24T16:38:15Z</time>
        <extensions>
          <gpxtpx:TrackPointExtension xmlns:gpxtpx="http://www.garmin.com/xmlschemas/TrackPointExtension/v1">
            <gpxtpx:hr>137</gpxtpx:hr>
          </gpxtpx:TrackPointExtension>
        </extensions>
      </trkpt>
      <trkpt lat="50.54447" lon="2.65415">
        <ele>18.4</ele>
        <time>2021-06-24T16:38:16Z</time>
        <extensions>
          <gpxtpx:TrackPointExtension xmlns:gpxtpx="http://www.garmin.com/xmlschemas/TrackPointExtension/v1">
            <gpxtpx:hr>137</gpxtpx:hr>
          </gpxtpx:TrackPointExtension>
        </extensions>
      </trkpt>
      <trkpt lat="50.54443" lon="2.65423">
        <ele>18.4</ele>
        <time>2021-06-24T16:38:17Z</time>
        <extensions>
          <gpxtpx:TrackPointExtension xmlns:gpxtpx="http://www.garmin.com/xmlschemas/TrackPointExtension/v1">
            <gpxtpx:hr>137</gpxtpx:hr>
          </gpxtpx:TrackPointExtension>
        </extensions>
      </trkpt>
      <trkpt lat="50.54439" lon="2.65432">
        <ele>18.4</ele>
        <time>2021-06-24T16:38:18Z</time>
        <extensions>
          <gpxtpx:TrackPointExtension xmlns:gpxtpx="http://www.garmin.com/xmlschemas/TrackPointExtension/v1">
            <gpxtpx:hr>137</gpxtpx:hr>
          </gpxtpx:TrackPointExtension>
        </extensions>
      </trkpt>
      <trkpt lat="50.54435" lon="2.65441">
        <ele>18.4</ele>
        <time>2021-06-24T16:38:19Z</time>
        <extensions>
          <gpxtpx:TrackPointExtension xmlns:gpxtpx="http://www.garmin.com/xmlschemas/TrackPointExtension/v1">
            <gpxtpx:hr>137</gpxtpx:hr>
          </gpxtpx:TrackPointExtension>
        </extensions>
      </trkpt>
      <trkpt lat="50.5443" lon="2.65449">
        <ele>18.4</ele>
        <time>2021-06-24T16:38:20Z</time>
        <extensions>
          <gpxtpx:TrackPointExtension xmlns:gpxtpx="http://www.garmin.com/xmlschemas/TrackPointExtension/v1">
            <gpxtpx:hr>138</gpxtpx:hr>
          </gpxtpx:TrackPointExtension>
        </extensions>
      </trkpt>
      <trkpt lat="50.54425" lon="2.65459">
        <ele>18.4</ele>
        <time>2021-06-24T16:38:21Z</time>
        <extensions>
          <gpxtpx:TrackPointExtension xmlns:gpxtpx="http://www.garmin.com/xmlschemas/TrackPointExtension/v1">
            <gpxtpx:hr>138</gpxtpx:hr>
          </gpxtpx:TrackPointExtension>
        </extensions>
      </trkpt>
      <trkpt lat="50.54422" lon="2.65466">
        <ele>18.2</ele>
        <time>2021-06-24T16:38:22Z</time>
        <extensions>
          <gpxtpx:TrackPointExtension xmlns:gpxtpx="http://www.garmin.com/xmlschemas/TrackPointExtension/v1">
            <gpxtpx:hr>138</gpxtpx:hr>
          </gpxtpx:TrackPointExtension>
        </extensions>
      </trkpt>
      <trkpt lat="50.54417" lon="2.65475">
        <ele>18.2</ele>
        <time>2021-06-24T16:38:23Z</time>
        <extensions>
          <gpxtpx:TrackPointExtension xmlns:gpxtpx="http://www.garmin.com/xmlschemas/TrackPointExtension/v1">
            <gpxtpx:hr>138</gpxtpx:hr>
          </gpxtpx:TrackPointExtension>
        </extensions>
      </trkpt>
      <trkpt lat="50.54413" lon="2.65483">
        <ele>18</ele>
        <time>2021-06-24T16:38:24Z</time>
        <extensions>
          <gpxtpx:TrackPointExtension xmlns:gpxtpx="http://www.garmin.com/xmlschemas/TrackPointExtension/v1">
            <gpxtpx:hr>138</gpxtpx:hr>
          </gpxtpx:TrackPointExtension>
        </extensions>
      </trkpt>
      <trkpt lat="50.54409" lon="2.65491">
        <ele>18</ele>
        <time>2021-06-24T16:38:25Z</time>
        <extensions>
          <gpxtpx:TrackPointExtension xmlns:gpxtpx="http://www.garmin.com/xmlschemas/TrackPointExtension/v1">
            <gpxtpx:hr>138</gpxtpx:hr>
          </gpxtpx:TrackPointExtension>
        </extensions>
      </trkpt>
      <trkpt lat="50.54404" lon="2.65499">
        <ele>18</ele>
        <time>2021-06-24T16:38:26Z</time>
        <extensions>
          <gpxtpx:TrackPointExtension xmlns:gpxtpx="http://www.garmin.com/xmlschemas/TrackPointExtension/v1">
            <gpxtpx:hr>138</gpxtpx:hr>
          </gpxtpx:TrackPointExtension>
        </extensions>
      </trkpt>
      <trkpt lat="50.54399" lon="2.65509">
        <ele>17.8</ele>
        <time>2021-06-24T16:38:27Z</time>
        <extensions>
          <gpxtpx:TrackPointExtension xmlns:gpxtpx="http://www.garmin.com/xmlschemas/TrackPointExtension/v1">
            <gpxtpx:hr>138</gpxtpx:hr>
          </gpxtpx:TrackPointExtension>
        </extensions>
      </trkpt>
      <trkpt lat="50.54395" lon="2.65515">
        <ele>17.8</ele>
        <time>2021-06-24T16:38:28Z</time>
        <extensions>
          <gpxtpx:TrackPointExtension xmlns:gpxtpx="http://www.garmin.com/xmlschemas/TrackPointExtension/v1">
            <gpxtpx:hr>138</gpxtpx:hr>
          </gpxtpx:TrackPointExtension>
        </extensions>
      </trkpt>
      <trkpt lat="50.5439" lon="2.65525">
        <ele>17.8</ele>
        <time>2021-06-24T16:38:29Z</time>
        <extensions>
          <gpxtpx:TrackPointExtension xmlns:gpxtpx="http://www.garmin.com/xmlschemas/TrackPointExtension/v1">
            <gpxtpx:hr>138</gpxtpx:hr>
          </gpxtpx:TrackPointExtension>
        </extensions>
      </trkpt>
      <trkpt lat="50.54387" lon="2.65532">
        <ele>17.8</ele>
        <time>2021-06-24T16:38:30Z</time>
        <extensions>
          <gpxtpx:TrackPointExtension xmlns:gpxtpx="http://www.garmin.com/xmlschemas/TrackPointExtension/v1">
            <gpxtpx:hr>138</gpxtpx:hr>
          </gpxtpx:TrackPointExtension>
        </extensions>
      </trkpt>
      <trkpt lat="50.54381" lon="2.65542">
        <ele>17.8</ele>
        <time>2021-06-24T16:38:31Z</time>
        <extensions>
          <gpxtpx:TrackPointExtension xmlns:gpxtpx="http://www.garmin.com/xmlschemas/TrackPointExtension/v1">
            <gpxtpx:hr>138</gpxtpx:hr>
          </gpxtpx:TrackPointExtension>
        </extensions>
      </trkpt>
      <trkpt lat="50.54379" lon="2.65548">
        <ele>17.8</ele>
        <time>2021-06-24T16:38:32Z</time>
        <extensions>
          <gpxtpx:TrackPointExtension xmlns:gpxtpx="http://www.garmin.com/xmlschemas/TrackPointExtension/v1">
            <gpxtpx:hr>139</gpxtpx:hr>
          </gpxtpx:TrackPointExtension>
        </extensions>
      </trkpt>
      <trkpt lat="50.54374" lon="2.65557">
        <ele>17.8</ele>
        <time>2021-06-24T16:38:33Z</time>
        <extensions>
          <gpxtpx:TrackPointExtension xmlns:gpxtpx="http://www.garmin.com/xmlschemas/TrackPointExtension/v1">
            <gpxtpx:hr>139</gpxtpx:hr>
          </gpxtpx:TrackPointExtension>
        </extensions>
      </trkpt>
      <trkpt lat="50.5437" lon="2.65567">
        <ele>17.6</ele>
        <time>2021-06-24T16:38:34Z</time>
        <extensions>
          <gpxtpx:TrackPointExtension xmlns:gpxtpx="http://www.garmin.com/xmlschemas/TrackPointExtension/v1">
            <gpxtpx:hr>139</gpxtpx:hr>
          </gpxtpx:TrackPointExtension>
        </extensions>
      </trkpt>
      <trkpt lat="50.54367" lon="2.65574">
        <ele>17.6</ele>
        <time>2021-06-24T16:38:35Z</time>
        <extensions>
          <gpxtpx:TrackPointExtension xmlns:gpxtpx="http://www.garmin.com/xmlschemas/TrackPointExtension/v1">
            <gpxtpx:hr>139</gpxtpx:hr>
          </gpxtpx:TrackPointExtension>
        </extensions>
      </trkpt>
      <trkpt lat="50.54363" lon="2.65583">
        <ele>17.6</ele>
        <time>2021-06-24T16:38:36Z</time>
        <extensions>
          <gpxtpx:TrackPointExtension xmlns:gpxtpx="http://www.garmin.com/xmlschemas/TrackPointExtension/v1">
            <gpxtpx:hr>139</gpxtpx:hr>
          </gpxtpx:TrackPointExtension>
        </extensions>
      </trkpt>
      <trkpt lat="50.54359" lon="2.65592">
        <ele>17.6</ele>
        <time>2021-06-24T16:38:37Z</time>
        <extensions>
          <gpxtpx:TrackPointExtension xmlns:gpxtpx="http://www.garmin.com/xmlschemas/TrackPointExtension/v1">
            <gpxtpx:hr>140</gpxtpx:hr>
          </gpxtpx:TrackPointExtension>
        </extensions>
      </trkpt>
      <trkpt lat="50.54355" lon="2.65603">
        <ele>17.6</ele>
        <time>2021-06-24T16:38:38Z</time>
        <extensions>
          <gpxtpx:TrackPointExtension xmlns:gpxtpx="http://www.garmin.com/xmlschemas/TrackPointExtension/v1">
            <gpxtpx:hr>140</gpxtpx:hr>
          </gpxtpx:TrackPointExtension>
        </extensions>
      </trkpt>
      <trkpt lat="50.54351" lon="2.65612">
        <ele>17.6</ele>
        <time>2021-06-24T16:38:39Z</time>
        <extensions>
          <gpxtpx:TrackPointExtension xmlns:gpxtpx="http://www.garmin.com/xmlschemas/TrackPointExtension/v1">
            <gpxtpx:hr>140</gpxtpx:hr>
          </gpxtpx:TrackPointExtension>
        </extensions>
      </trkpt>
      <trkpt lat="50.54348" lon="2.65619">
        <ele>17.6</ele>
        <time>2021-06-24T16:38:40Z</time>
        <extensions>
          <gpxtpx:TrackPointExtension xmlns:gpxtpx="http://www.garmin.com/xmlschemas/TrackPointExtension/v1">
            <gpxtpx:hr>140</gpxtpx:hr>
          </gpxtpx:TrackPointExtension>
        </extensions>
      </trkpt>
      <trkpt lat="50.54343" lon="2.6563">
        <ele>17.6</ele>
        <time>2021-06-24T16:38:41Z</time>
        <extensions>
          <gpxtpx:TrackPointExtension xmlns:gpxtpx="http://www.garmin.com/xmlschemas/TrackPointExtension/v1">
            <gpxtpx:hr>141</gpxtpx:hr>
          </gpxtpx:TrackPointExtension>
        </extensions>
      </trkpt>
      <trkpt lat="50.5434" lon="2.65637">
        <ele>17.6</ele>
        <time>2021-06-24T16:38:42Z</time>
        <extensions>
          <gpxtpx:TrackPointExtension xmlns:gpxtpx="http://www.garmin.com/xmlschemas/TrackPointExtension/v1">
            <gpxtpx:hr>140</gpxtpx:hr>
          </gpxtpx:TrackPointExtension>
        </extensions>
      </trkpt>
      <trkpt lat="50.54336" lon="2.65648">
        <ele>17.4</ele>
        <time>2021-06-24T16:38:43Z</time>
        <extensions>
          <gpxtpx:TrackPointExtension xmlns:gpxtpx="http://www.garmin.com/xmlschemas/TrackPointExtension/v1">
            <gpxtpx:hr>140</gpxtpx:hr>
          </gpxtpx:TrackPointExtension>
        </extensions>
      </trkpt>
      <trkpt lat="50.54333" lon="2.65655">
        <ele>17.4</ele>
        <time>2021-06-24T16:38:44Z</time>
        <extensions>
          <gpxtpx:TrackPointExtension xmlns:gpxtpx="http://www.garmin.com/xmlschemas/TrackPointExtension/v1">
            <gpxtpx:hr>140</gpxtpx:hr>
          </gpxtpx:TrackPointExtension>
        </extensions>
      </trkpt>
      <trkpt lat="50.54329" lon="2.65664">
        <ele>17.4</ele>
        <time>2021-06-24T16:38:45Z</time>
        <extensions>
          <gpxtpx:TrackPointExtension xmlns:gpxtpx="http://www.garmin.com/xmlschemas/TrackPointExtension/v1">
            <gpxtpx:hr>139</gpxtpx:hr>
          </gpxtpx:TrackPointExtension>
        </extensions>
      </trkpt>
      <trkpt lat="50.54325" lon="2.65673">
        <ele>17.4</ele>
        <time>2021-06-24T16:38:46Z</time>
        <extensions>
          <gpxtpx:TrackPointExtension xmlns:gpxtpx="http://www.garmin.com/xmlschemas/TrackPointExtension/v1">
            <gpxtpx:hr>139</gpxtpx:hr>
          </gpxtpx:TrackPointExtension>
        </extensions>
      </trkpt>
      <trkpt lat="50.54322" lon="2.65684">
        <ele>17.4</ele>
        <time>2021-06-24T16:38:47Z</time>
        <extensions>
          <gpxtpx:TrackPointExtension xmlns:gpxtpx="http://www.garmin.com/xmlschemas/TrackPointExtension/v1">
            <gpxtpx:hr>139</gpxtpx:hr>
          </gpxtpx:TrackPointExtension>
        </extensions>
      </trkpt>
      <trkpt lat="50.54318" lon="2.65694">
        <ele>17.4</ele>
        <time>2021-06-24T16:38:48Z</time>
        <extensions>
          <gpxtpx:TrackPointExtension xmlns:gpxtpx="http://www.garmin.com/xmlschemas/TrackPointExtension/v1">
            <gpxtpx:hr>138</gpxtpx:hr>
          </gpxtpx:TrackPointExtension>
        </extensions>
      </trkpt>
      <trkpt lat="50.54315" lon="2.65703">
        <ele>17.4</ele>
        <time>2021-06-24T16:38:49Z</time>
        <extensions>
          <gpxtpx:TrackPointExtension xmlns:gpxtpx="http://www.garmin.com/xmlschemas/TrackPointExtension/v1">
            <gpxtpx:hr>138</gpxtpx:hr>
          </gpxtpx:TrackPointExtension>
        </extensions>
      </trkpt>
      <trkpt lat="50.54312" lon="2.65712">
        <ele>17.2</ele>
        <time>2021-06-24T16:38:50Z</time>
        <extensions>
          <gpxtpx:TrackPointExtension xmlns:gpxtpx="http://www.garmin.com/xmlschemas/TrackPointExtension/v1">
            <gpxtpx:hr>138</gpxtpx:hr>
          </gpxtpx:TrackPointExtension>
        </extensions>
      </trkpt>
      <trkpt lat="50.54308" lon="2.65721">
        <ele>17.2</ele>
        <time>2021-06-24T16:38:51Z</time>
        <extensions>
          <gpxtpx:TrackPointExtension xmlns:gpxtpx="http://www.garmin.com/xmlschemas/TrackPointExtension/v1">
            <gpxtpx:hr>138</gpxtpx:hr>
          </gpxtpx:TrackPointExtension>
        </extensions>
      </trkpt>
      <trkpt lat="50.54305" lon="2.6573">
        <ele>17.4</ele>
        <time>2021-06-24T16:38:52Z</time>
        <extensions>
          <gpxtpx:TrackPointExtension xmlns:gpxtpx="http://www.garmin.com/xmlschemas/TrackPointExtension/v1">
            <gpxtpx:hr>138</gpxtpx:hr>
          </gpxtpx:TrackPointExtension>
        </extensions>
      </trkpt>
      <trkpt lat="50.54302" lon="2.65739">
        <ele>17.4</ele>
        <time>2021-06-24T16:38:53Z</time>
        <extensions>
          <gpxtpx:TrackPointExtension xmlns:gpxtpx="http://www.garmin.com/xmlschemas/TrackPointExtension/v1">
            <gpxtpx:hr>138</gpxtpx:hr>
          </gpxtpx:TrackPointExtension>
        </extensions>
      </trkpt>
      <trkpt lat="50.54299" lon="2.65749">
        <ele>17.6</ele>
        <time>2021-06-24T16:38:54Z</time>
        <extensions>
          <gpxtpx:TrackPointExtension xmlns:gpxtpx="http://www.garmin.com/xmlschemas/TrackPointExtension/v1">
            <gpxtpx:hr>139</gpxtpx:hr>
          </gpxtpx:TrackPointExtension>
        </extensions>
      </trkpt>
      <trkpt lat="50.54296" lon="2.65756">
        <ele>17.6</ele>
        <time>2021-06-24T16:38:55Z</time>
        <extensions>
          <gpxtpx:TrackPointExtension xmlns:gpxtpx="http://www.garmin.com/xmlschemas/TrackPointExtension/v1">
            <gpxtpx:hr>139</gpxtpx:hr>
          </gpxtpx:TrackPointExtension>
        </extensions>
      </trkpt>
      <trkpt lat="50.54293" lon="2.65765">
        <ele>17.8</ele>
        <time>2021-06-24T16:38:56Z</time>
        <extensions>
          <gpxtpx:TrackPointExtension xmlns:gpxtpx="http://www.garmin.com/xmlschemas/TrackPointExtension/v1">
            <gpxtpx:hr>139</gpxtpx:hr>
          </gpxtpx:TrackPointExtension>
        </extensions>
      </trkpt>
      <trkpt lat="50.54289" lon="2.65777">
        <ele>17.8</ele>
        <time>2021-06-24T16:38:57Z</time>
        <extensions>
          <gpxtpx:TrackPointExtension xmlns:gpxtpx="http://www.garmin.com/xmlschemas/TrackPointExtension/v1">
            <gpxtpx:hr>139</gpxtpx:hr>
          </gpxtpx:TrackPointExtension>
        </extensions>
      </trkpt>
      <trkpt lat="50.54287" lon="2.65784">
        <ele>18</ele>
        <time>2021-06-24T16:38:58Z</time>
        <extensions>
          <gpxtpx:TrackPointExtension xmlns:gpxtpx="http://www.garmin.com/xmlschemas/TrackPointExtension/v1">
            <gpxtpx:hr>139</gpxtpx:hr>
          </gpxtpx:TrackPointExtension>
        </extensions>
      </trkpt>
      <trkpt lat="50.54283" lon="2.65794">
        <ele>18</ele>
        <time>2021-06-24T16:38:59Z</time>
        <extensions>
          <gpxtpx:TrackPointExtension xmlns:gpxtpx="http://www.garmin.com/xmlschemas/TrackPointExtension/v1">
            <gpxtpx:hr>140</gpxtpx:hr>
          </gpxtpx:TrackPointExtension>
        </extensions>
      </trkpt>
      <trkpt lat="50.5428" lon="2.65804">
        <ele>18.2</ele>
        <time>2021-06-24T16:39:00Z</time>
        <extensions>
          <gpxtpx:TrackPointExtension xmlns:gpxtpx="http://www.garmin.com/xmlschemas/TrackPointExtension/v1">
            <gpxtpx:hr>140</gpxtpx:hr>
          </gpxtpx:TrackPointExtension>
        </extensions>
      </trkpt>
      <trkpt lat="50.54277" lon="2.65813">
        <ele>18.2</ele>
        <time>2021-06-24T16:39:01Z</time>
        <extensions>
          <gpxtpx:TrackPointExtension xmlns:gpxtpx="http://www.garmin.com/xmlschemas/TrackPointExtension/v1">
            <gpxtpx:hr>140</gpxtpx:hr>
          </gpxtpx:TrackPointExtension>
        </extensions>
      </trkpt>
      <trkpt lat="50.54274" lon="2.65823">
        <ele>18.2</ele>
        <time>2021-06-24T16:39:02Z</time>
        <extensions>
          <gpxtpx:TrackPointExtension xmlns:gpxtpx="http://www.garmin.com/xmlschemas/TrackPointExtension/v1">
            <gpxtpx:hr>140</gpxtpx:hr>
          </gpxtpx:TrackPointExtension>
        </extensions>
      </trkpt>
      <trkpt lat="50.54271" lon="2.65833">
        <ele>18.2</ele>
        <time>2021-06-24T16:39:03Z</time>
        <extensions>
          <gpxtpx:TrackPointExtension xmlns:gpxtpx="http://www.garmin.com/xmlschemas/TrackPointExtension/v1">
            <gpxtpx:hr>140</gpxtpx:hr>
          </gpxtpx:TrackPointExtension>
        </extensions>
      </trkpt>
      <trkpt lat="50.54268" lon="2.65842">
        <ele>18.2</ele>
        <time>2021-06-24T16:39:04Z</time>
        <extensions>
          <gpxtpx:TrackPointExtension xmlns:gpxtpx="http://www.garmin.com/xmlschemas/TrackPointExtension/v1">
            <gpxtpx:hr>140</gpxtpx:hr>
          </gpxtpx:TrackPointExtension>
        </extensions>
      </trkpt>
      <trkpt lat="50.54265" lon="2.65852">
        <ele>18.2</ele>
        <time>2021-06-24T16:39:05Z</time>
        <extensions>
          <gpxtpx:TrackPointExtension xmlns:gpxtpx="http://www.garmin.com/xmlschemas/TrackPointExtension/v1">
            <gpxtpx:hr>140</gpxtpx:hr>
          </gpxtpx:TrackPointExtension>
        </extensions>
      </trkpt>
      <trkpt lat="50.54262" lon="2.65861">
        <ele>18.2</ele>
        <time>2021-06-24T16:39:06Z</time>
        <extensions>
          <gpxtpx:TrackPointExtension xmlns:gpxtpx="http://www.garmin.com/xmlschemas/TrackPointExtension/v1">
            <gpxtpx:hr>140</gpxtpx:hr>
          </gpxtpx:TrackPointExtension>
        </extensions>
      </trkpt>
      <trkpt lat="50.54259" lon="2.65871">
        <ele>18.2</ele>
        <time>2021-06-24T16:39:07Z</time>
        <extensions>
          <gpxtpx:TrackPointExtension xmlns:gpxtpx="http://www.garmin.com/xmlschemas/TrackPointExtension/v1">
            <gpxtpx:hr>140</gpxtpx:hr>
          </gpxtpx:TrackPointExtension>
        </extensions>
      </trkpt>
      <trkpt lat="50.54256" lon="2.65881">
        <ele>18.2</ele>
        <time>2021-06-24T16:39:08Z</time>
        <extensions>
          <gpxtpx:TrackPointExtension xmlns:gpxtpx="http://www.garmin.com/xmlschemas/TrackPointExtension/v1">
            <gpxtpx:hr>140</gpxtpx:hr>
          </gpxtpx:TrackPointExtension>
        </extensions>
      </trkpt>
      <trkpt lat="50.54252" lon="2.6589">
        <ele>18.2</ele>
        <time>2021-06-24T16:39:09Z</time>
        <extensions>
          <gpxtpx:TrackPointExtension xmlns:gpxtpx="http://www.garmin.com/xmlschemas/TrackPointExtension/v1">
            <gpxtpx:hr>140</gpxtpx:hr>
          </gpxtpx:TrackPointExtension>
        </extensions>
      </trkpt>
      <trkpt lat="50.54249" lon="2.65899">
        <ele>18.2</ele>
        <time>2021-06-24T16:39:10Z</time>
        <extensions>
          <gpxtpx:TrackPointExtension xmlns:gpxtpx="http://www.garmin.com/xmlschemas/TrackPointExtension/v1">
            <gpxtpx:hr>140</gpxtpx:hr>
          </gpxtpx:TrackPointExtension>
        </extensions>
      </trkpt>
      <trkpt lat="50.54245" lon="2.65911">
        <ele>18.4</ele>
        <time>2021-06-24T16:39:11Z</time>
        <extensions>
          <gpxtpx:TrackPointExtension xmlns:gpxtpx="http://www.garmin.com/xmlschemas/TrackPointExtension/v1">
            <gpxtpx:hr>141</gpxtpx:hr>
          </gpxtpx:TrackPointExtension>
        </extensions>
      </trkpt>
      <trkpt lat="50.54242" lon="2.6592">
        <ele>18.4</ele>
        <time>2021-06-24T16:39:12Z</time>
        <extensions>
          <gpxtpx:TrackPointExtension xmlns:gpxtpx="http://www.garmin.com/xmlschemas/TrackPointExtension/v1">
            <gpxtpx:hr>141</gpxtpx:hr>
          </gpxtpx:TrackPointExtension>
        </extensions>
      </trkpt>
      <trkpt lat="50.54239" lon="2.65928">
        <ele>18.4</ele>
        <time>2021-06-24T16:39:13Z</time>
        <extensions>
          <gpxtpx:TrackPointExtension xmlns:gpxtpx="http://www.garmin.com/xmlschemas/TrackPointExtension/v1">
            <gpxtpx:hr>141</gpxtpx:hr>
          </gpxtpx:TrackPointExtension>
        </extensions>
      </trkpt>
      <trkpt lat="50.54236" lon="2.65937">
        <ele>18.6</ele>
        <time>2021-06-24T16:39:14Z</time>
        <extensions>
          <gpxtpx:TrackPointExtension xmlns:gpxtpx="http://www.garmin.com/xmlschemas/TrackPointExtension/v1">
            <gpxtpx:hr>141</gpxtpx:hr>
          </gpxtpx:TrackPointExtension>
        </extensions>
      </trkpt>
      <trkpt lat="50.54233" lon="2.65946">
        <ele>18.6</ele>
        <time>2021-06-24T16:39:15Z</time>
        <extensions>
          <gpxtpx:TrackPointExtension xmlns:gpxtpx="http://www.garmin.com/xmlschemas/TrackPointExtension/v1">
            <gpxtpx:hr>141</gpxtpx:hr>
          </gpxtpx:TrackPointExtension>
        </extensions>
      </trkpt>
      <trkpt lat="50.5423" lon="2.65955">
        <ele>18.8</ele>
        <time>2021-06-24T16:39:16Z</time>
        <extensions>
          <gpxtpx:TrackPointExtension xmlns:gpxtpx="http://www.garmin.com/xmlschemas/TrackPointExtension/v1">
            <gpxtpx:hr>141</gpxtpx:hr>
          </gpxtpx:TrackPointExtension>
        </extensions>
      </trkpt>
      <trkpt lat="50.54226" lon="2.65966">
        <ele>18.8</ele>
        <time>2021-06-24T16:39:17Z</time>
        <extensions>
          <gpxtpx:TrackPointExtension xmlns:gpxtpx="http://www.garmin.com/xmlschemas/TrackPointExtension/v1">
            <gpxtpx:hr>141</gpxtpx:hr>
          </gpxtpx:TrackPointExtension>
        </extensions>
      </trkpt>
      <trkpt lat="50.54223" lon="2.65974">
        <ele>18.8</ele>
        <time>2021-06-24T16:39:18Z</time>
        <extensions>
          <gpxtpx:TrackPointExtension xmlns:gpxtpx="http://www.garmin.com/xmlschemas/TrackPointExtension/v1">
            <gpxtpx:hr>141</gpxtpx:hr>
          </gpxtpx:TrackPointExtension>
        </extensions>
      </trkpt>
      <trkpt lat="50.5422" lon="2.65985">
        <ele>18.8</ele>
        <time>2021-06-24T16:39:19Z</time>
        <extensions>
          <gpxtpx:TrackPointExtension xmlns:gpxtpx="http://www.garmin.com/xmlschemas/TrackPointExtension/v1">
            <gpxtpx:hr>141</gpxtpx:hr>
          </gpxtpx:TrackPointExtension>
        </extensions>
      </trkpt>
      <trkpt lat="50.54216" lon="2.65995">
        <ele>19</ele>
        <time>2021-06-24T16:39:20Z</time>
        <extensions>
          <gpxtpx:TrackPointExtension xmlns:gpxtpx="http://www.garmin.com/xmlschemas/TrackPointExtension/v1">
            <gpxtpx:hr>141</gpxtpx:hr>
          </gpxtpx:TrackPointExtension>
        </extensions>
      </trkpt>
      <trkpt lat="50.54213" lon="2.66004">
        <ele>19</ele>
        <time>2021-06-24T16:39:21Z</time>
        <extensions>
          <gpxtpx:TrackPointExtension xmlns:gpxtpx="http://www.garmin.com/xmlschemas/TrackPointExtension/v1">
            <gpxtpx:hr>141</gpxtpx:hr>
          </gpxtpx:TrackPointExtension>
        </extensions>
      </trkpt>
      <trkpt lat="50.54211" lon="2.66012">
        <ele>19</ele>
        <time>2021-06-24T16:39:22Z</time>
        <extensions>
          <gpxtpx:TrackPointExtension xmlns:gpxtpx="http://www.garmin.com/xmlschemas/TrackPointExtension/v1">
            <gpxtpx:hr>141</gpxtpx:hr>
          </gpxtpx:TrackPointExtension>
        </extensions>
      </trkpt>
      <trkpt lat="50.54208" lon="2.66021">
        <ele>19.2</ele>
        <time>2021-06-24T16:39:23Z</time>
        <extensions>
          <gpxtpx:TrackPointExtension xmlns:gpxtpx="http://www.garmin.com/xmlschemas/TrackPointExtension/v1">
            <gpxtpx:hr>141</gpxtpx:hr>
          </gpxtpx:TrackPointExtension>
        </extensions>
      </trkpt>
      <trkpt lat="50.54205" lon="2.66031">
        <ele>19.2</ele>
        <time>2021-06-24T16:39:24Z</time>
        <extensions>
          <gpxtpx:TrackPointExtension xmlns:gpxtpx="http://www.garmin.com/xmlschemas/TrackPointExtension/v1">
            <gpxtpx:hr>140</gpxtpx:hr>
          </gpxtpx:TrackPointExtension>
        </extensions>
      </trkpt>
      <trkpt lat="50.54202" lon="2.6604">
        <ele>19.2</ele>
        <time>2021-06-24T16:39:25Z</time>
        <extensions>
          <gpxtpx:TrackPointExtension xmlns:gpxtpx="http://www.garmin.com/xmlschemas/TrackPointExtension/v1">
            <gpxtpx:hr>140</gpxtpx:hr>
          </gpxtpx:TrackPointExtension>
        </extensions>
      </trkpt>
      <trkpt lat="50.54199" lon="2.6605">
        <ele>19.4</ele>
        <time>2021-06-24T16:39:26Z</time>
        <extensions>
          <gpxtpx:TrackPointExtension xmlns:gpxtpx="http://www.garmin.com/xmlschemas/TrackPointExtension/v1">
            <gpxtpx:hr>140</gpxtpx:hr>
          </gpxtpx:TrackPointExtension>
        </extensions>
      </trkpt>
      <trkpt lat="50.54196" lon="2.66059">
        <ele>19.4</ele>
        <time>2021-06-24T16:39:27Z</time>
        <extensions>
          <gpxtpx:TrackPointExtension xmlns:gpxtpx="http://www.garmin.com/xmlschemas/TrackPointExtension/v1">
            <gpxtpx:hr>140</gpxtpx:hr>
          </gpxtpx:TrackPointExtension>
        </extensions>
      </trkpt>
      <trkpt lat="50.54192" lon="2.6607">
        <ele>19.4</ele>
        <time>2021-06-24T16:39:28Z</time>
        <extensions>
          <gpxtpx:TrackPointExtension xmlns:gpxtpx="http://www.garmin.com/xmlschemas/TrackPointExtension/v1">
            <gpxtpx:hr>140</gpxtpx:hr>
          </gpxtpx:TrackPointExtension>
        </extensions>
      </trkpt>
      <trkpt lat="50.5419" lon="2.66078">
        <ele>19.4</ele>
        <time>2021-06-24T16:39:29Z</time>
        <extensions>
          <gpxtpx:TrackPointExtension xmlns:gpxtpx="http://www.garmin.com/xmlschemas/TrackPointExtension/v1">
            <gpxtpx:hr>141</gpxtpx:hr>
          </gpxtpx:TrackPointExtension>
        </extensions>
      </trkpt>
      <trkpt lat="50.54187" lon="2.66087">
        <ele>19.6</ele>
        <time>2021-06-24T16:39:30Z</time>
        <extensions>
          <gpxtpx:TrackPointExtension xmlns:gpxtpx="http://www.garmin.com/xmlschemas/TrackPointExtension/v1">
            <gpxtpx:hr>141</gpxtpx:hr>
          </gpxtpx:TrackPointExtension>
        </extensions>
      </trkpt>
      <trkpt lat="50.54184" lon="2.66096">
        <ele>19.6</ele>
        <time>2021-06-24T16:39:31Z</time>
        <extensions>
          <gpxtpx:TrackPointExtension xmlns:gpxtpx="http://www.garmin.com/xmlschemas/TrackPointExtension/v1">
            <gpxtpx:hr>141</gpxtpx:hr>
          </gpxtpx:TrackPointExtension>
        </extensions>
      </trkpt>
      <trkpt lat="50.54182" lon="2.66108">
        <ele>19.6</ele>
        <time>2021-06-24T16:39:32Z</time>
        <extensions>
          <gpxtpx:TrackPointExtension xmlns:gpxtpx="http://www.garmin.com/xmlschemas/TrackPointExtension/v1">
            <gpxtpx:hr>141</gpxtpx:hr>
          </gpxtpx:TrackPointExtension>
        </extensions>
      </trkpt>
      <trkpt lat="50.54179" lon="2.66118">
        <ele>19.6</ele>
        <time>2021-06-24T16:39:33Z</time>
        <extensions>
          <gpxtpx:TrackPointExtension xmlns:gpxtpx="http://www.garmin.com/xmlschemas/TrackPointExtension/v1">
            <gpxtpx:hr>141</gpxtpx:hr>
          </gpxtpx:TrackPointExtension>
        </extensions>
      </trkpt>
      <trkpt lat="50.54176" lon="2.66128">
        <ele>19.8</ele>
        <time>2021-06-24T16:39:34Z</time>
        <extensions>
          <gpxtpx:TrackPointExtension xmlns:gpxtpx="http://www.garmin.com/xmlschemas/TrackPointExtension/v1">
            <gpxtpx:hr>141</gpxtpx:hr>
          </gpxtpx:TrackPointExtension>
        </extensions>
      </trkpt>
      <trkpt lat="50.54174" lon="2.66135">
        <ele>19.8</ele>
        <time>2021-06-24T16:39:35Z</time>
        <extensions>
          <gpxtpx:TrackPointExtension xmlns:gpxtpx="http://www.garmin.com/xmlschemas/TrackPointExtension/v1">
            <gpxtpx:hr>141</gpxtpx:hr>
          </gpxtpx:TrackPointExtension>
        </extensions>
      </trkpt>
      <trkpt lat="50.54171" lon="2.66145">
        <ele>19.8</ele>
        <time>2021-06-24T16:39:36Z</time>
        <extensions>
          <gpxtpx:TrackPointExtension xmlns:gpxtpx="http://www.garmin.com/xmlschemas/TrackPointExtension/v1">
            <gpxtpx:hr>141</gpxtpx:hr>
          </gpxtpx:TrackPointExtension>
        </extensions>
      </trkpt>
      <trkpt lat="50.54168" lon="2.66156">
        <ele>20</ele>
        <time>2021-06-24T16:39:37Z</time>
        <extensions>
          <gpxtpx:TrackPointExtension xmlns:gpxtpx="http://www.garmin.com/xmlschemas/TrackPointExtension/v1">
            <gpxtpx:hr>141</gpxtpx:hr>
          </gpxtpx:TrackPointExtension>
        </extensions>
      </trkpt>
      <trkpt lat="50.54164" lon="2.66166">
        <ele>20.2</ele>
        <time>2021-06-24T16:39:38Z</time>
        <extensions>
          <gpxtpx:TrackPointExtension xmlns:gpxtpx="http://www.garmin.com/xmlschemas/TrackPointExtension/v1">
            <gpxtpx:hr>141</gpxtpx:hr>
          </gpxtpx:TrackPointExtension>
        </extensions>
      </trkpt>
      <trkpt lat="50.54162" lon="2.66175">
        <ele>20.2</ele>
        <time>2021-06-24T16:39:39Z</time>
        <extensions>
          <gpxtpx:TrackPointExtension xmlns:gpxtpx="http://www.garmin.com/xmlschemas/TrackPointExtension/v1">
            <gpxtpx:hr>141</gpxtpx:hr>
          </gpxtpx:TrackPointExtension>
        </extensions>
      </trkpt>
      <trkpt lat="50.54159" lon="2.66182">
        <ele>20.4</ele>
        <time>2021-06-24T16:39:40Z</time>
        <extensions>
          <gpxtpx:TrackPointExtension xmlns:gpxtpx="http://www.garmin.com/xmlschemas/TrackPointExtension/v1">
            <gpxtpx:hr>141</gpxtpx:hr>
          </gpxtpx:TrackPointExtension>
        </extensions>
      </trkpt>
      <trkpt lat="50.54155" lon="2.66194">
        <ele>20.4</ele>
        <time>2021-06-24T16:39:41Z</time>
        <extensions>
          <gpxtpx:TrackPointExtension xmlns:gpxtpx="http://www.garmin.com/xmlschemas/TrackPointExtension/v1">
            <gpxtpx:hr>141</gpxtpx:hr>
          </gpxtpx:TrackPointExtension>
        </extensions>
      </trkpt>
      <trkpt lat="50.54152" lon="2.66203">
        <ele>20.6</ele>
        <time>2021-06-24T16:39:42Z</time>
        <extensions>
          <gpxtpx:TrackPointExtension xmlns:gpxtpx="http://www.garmin.com/xmlschemas/TrackPointExtension/v1">
            <gpxtpx:hr>141</gpxtpx:hr>
          </gpxtpx:TrackPointExtension>
        </extensions>
      </trkpt>
      <trkpt lat="50.54148" lon="2.66213">
        <ele>20.6</ele>
        <time>2021-06-24T16:39:43Z</time>
        <extensions>
          <gpxtpx:TrackPointExtension xmlns:gpxtpx="http://www.garmin.com/xmlschemas/TrackPointExtension/v1">
            <gpxtpx:hr>141</gpxtpx:hr>
          </gpxtpx:TrackPointExtension>
        </extensions>
      </trkpt>
      <trkpt lat="50.54145" lon="2.66221">
        <ele>20.8</ele>
        <time>2021-06-24T16:39:44Z</time>
        <extensions>
          <gpxtpx:TrackPointExtension xmlns:gpxtpx="http://www.garmin.com/xmlschemas/TrackPointExtension/v1">
            <gpxtpx:hr>140</gpxtpx:hr>
          </gpxtpx:TrackPointExtension>
        </extensions>
      </trkpt>
      <trkpt lat="50.54142" lon="2.66229">
        <ele>20.8</ele>
        <time>2021-06-24T16:39:45Z</time>
        <extensions>
          <gpxtpx:TrackPointExtension xmlns:gpxtpx="http://www.garmin.com/xmlschemas/TrackPointExtension/v1">
            <gpxtpx:hr>140</gpxtpx:hr>
          </gpxtpx:TrackPointExtension>
        </extensions>
      </trkpt>
      <trkpt lat="50.54139" lon="2.66238">
        <ele>21</ele>
        <time>2021-06-24T16:39:46Z</time>
        <extensions>
          <gpxtpx:TrackPointExtension xmlns:gpxtpx="http://www.garmin.com/xmlschemas/TrackPointExtension/v1">
            <gpxtpx:hr>140</gpxtpx:hr>
          </gpxtpx:TrackPointExtension>
        </extensions>
      </trkpt>
      <trkpt lat="50.54135" lon="2.6625">
        <ele>21</ele>
        <time>2021-06-24T16:39:47Z</time>
        <extensions>
          <gpxtpx:TrackPointExtension xmlns:gpxtpx="http://www.garmin.com/xmlschemas/TrackPointExtension/v1">
            <gpxtpx:hr>141</gpxtpx:hr>
          </gpxtpx:TrackPointExtension>
        </extensions>
      </trkpt>
      <trkpt lat="50.54132" lon="2.6626">
        <ele>21.2</ele>
        <time>2021-06-24T16:39:48Z</time>
        <extensions>
          <gpxtpx:TrackPointExtension xmlns:gpxtpx="http://www.garmin.com/xmlschemas/TrackPointExtension/v1">
            <gpxtpx:hr>141</gpxtpx:hr>
          </gpxtpx:TrackPointExtension>
        </extensions>
      </trkpt>
      <trkpt lat="50.5413" lon="2.66267">
        <ele>21.2</ele>
        <time>2021-06-24T16:39:49Z</time>
        <extensions>
          <gpxtpx:TrackPointExtension xmlns:gpxtpx="http://www.garmin.com/xmlschemas/TrackPointExtension/v1">
            <gpxtpx:hr>141</gpxtpx:hr>
          </gpxtpx:TrackPointExtension>
        </extensions>
      </trkpt>
      <trkpt lat="50.54125" lon="2.66279">
        <ele>21.4</ele>
        <time>2021-06-24T16:39:50Z</time>
        <extensions>
          <gpxtpx:TrackPointExtension xmlns:gpxtpx="http://www.garmin.com/xmlschemas/TrackPointExtension/v1">
            <gpxtpx:hr>141</gpxtpx:hr>
          </gpxtpx:TrackPointExtension>
        </extensions>
      </trkpt>
      <trkpt lat="50.54122" lon="2.66287">
        <ele>21.4</ele>
        <time>2021-06-24T16:39:51Z</time>
        <extensions>
          <gpxtpx:TrackPointExtension xmlns:gpxtpx="http://www.garmin.com/xmlschemas/TrackPointExtension/v1">
            <gpxtpx:hr>141</gpxtpx:hr>
          </gpxtpx:TrackPointExtension>
        </extensions>
      </trkpt>
      <trkpt lat="50.54119" lon="2.66297">
        <ele>21.6</ele>
        <time>2021-06-24T16:39:52Z</time>
        <extensions>
          <gpxtpx:TrackPointExtension xmlns:gpxtpx="http://www.garmin.com/xmlschemas/TrackPointExtension/v1">
            <gpxtpx:hr>141</gpxtpx:hr>
          </gpxtpx:TrackPointExtension>
        </extensions>
      </trkpt>
      <trkpt lat="50.54116" lon="2.66306">
        <ele>21.6</ele>
        <time>2021-06-24T16:39:53Z</time>
        <extensions>
          <gpxtpx:TrackPointExtension xmlns:gpxtpx="http://www.garmin.com/xmlschemas/TrackPointExtension/v1">
            <gpxtpx:hr>142</gpxtpx:hr>
          </gpxtpx:TrackPointExtension>
        </extensions>
      </trkpt>
      <trkpt lat="50.54113" lon="2.66315">
        <ele>21.6</ele>
        <time>2021-06-24T16:39:54Z</time>
        <extensions>
          <gpxtpx:TrackPointExtension xmlns:gpxtpx="http://www.garmin.com/xmlschemas/TrackPointExtension/v1">
            <gpxtpx:hr>142</gpxtpx:hr>
          </gpxtpx:TrackPointExtension>
        </extensions>
      </trkpt>
      <trkpt lat="50.54109" lon="2.66325">
        <ele>21.8</ele>
        <time>2021-06-24T16:39:55Z</time>
        <extensions>
          <gpxtpx:TrackPointExtension xmlns:gpxtpx="http://www.garmin.com/xmlschemas/TrackPointExtension/v1">
            <gpxtpx:hr>142</gpxtpx:hr>
          </gpxtpx:TrackPointExtension>
        </extensions>
      </trkpt>
      <trkpt lat="50.54107" lon="2.66334">
        <ele>21.8</ele>
        <time>2021-06-24T16:39:56Z</time>
        <extensions>
          <gpxtpx:TrackPointExtension xmlns:gpxtpx="http://www.garmin.com/xmlschemas/TrackPointExtension/v1">
            <gpxtpx:hr>142</gpxtpx:hr>
          </gpxtpx:TrackPointExtension>
        </extensions>
      </trkpt>
      <trkpt lat="50.54104" lon="2.66343">
        <ele>21.8</ele>
        <time>2021-06-24T16:39:57Z</time>
        <extensions>
          <gpxtpx:TrackPointExtension xmlns:gpxtpx="http://www.garmin.com/xmlschemas/TrackPointExtension/v1">
            <gpxtpx:hr>142</gpxtpx:hr>
          </gpxtpx:TrackPointExtension>
        </extensions>
      </trkpt>
      <trkpt lat="50.541" lon="2.66352">
        <ele>22</ele>
        <time>2021-06-24T16:39:58Z</time>
        <extensions>
          <gpxtpx:TrackPointExtension xmlns:gpxtpx="http://www.garmin.com/xmlschemas/TrackPointExtension/v1">
            <gpxtpx:hr>142</gpxtpx:hr>
          </gpxtpx:TrackPointExtension>
        </extensions>
      </trkpt>
      <trkpt lat="50.54097" lon="2.66362">
        <ele>22</ele>
        <time>2021-06-24T16:39:59Z</time>
        <extensions>
          <gpxtpx:TrackPointExtension xmlns:gpxtpx="http://www.garmin.com/xmlschemas/TrackPointExtension/v1">
            <gpxtpx:hr>142</gpxtpx:hr>
          </gpxtpx:TrackPointExtension>
        </extensions>
      </trkpt>
      <trkpt lat="50.54093" lon="2.66371">
        <ele>22.2</ele>
        <time>2021-06-24T16:40:00Z</time>
        <extensions>
          <gpxtpx:TrackPointExtension xmlns:gpxtpx="http://www.garmin.com/xmlschemas/TrackPointExtension/v1">
            <gpxtpx:hr>142</gpxtpx:hr>
          </gpxtpx:TrackPointExtension>
        </extensions>
      </trkpt>
      <trkpt lat="50.54091" lon="2.66381">
        <ele>22.2</ele>
        <time>2021-06-24T16:40:01Z</time>
        <extensions>
          <gpxtpx:TrackPointExtension xmlns:gpxtpx="http://www.garmin.com/xmlschemas/TrackPointExtension/v1">
            <gpxtpx:hr>142</gpxtpx:hr>
          </gpxtpx:TrackPointExtension>
        </extensions>
      </trkpt>
      <trkpt lat="50.54087" lon="2.66391">
        <ele>22.2</ele>
        <time>2021-06-24T16:40:02Z</time>
      </trkpt>
      <trkpt lat="50.54084" lon="2.66401">
        <ele>22.4</ele>
        <time>2021-06-24T16:40:03Z</time>
        <extensions>
          <gpxtpx:TrackPointExtension xmlns:gpxtpx="http://www.garmin.com/xmlschemas/TrackPointExtension/v1">
            <gpxtpx:hr>142</gpxtpx:hr>
          </gpxtpx:TrackPointExtension>
        </extensions>
      </trkpt>
      <trkpt lat="50.54081" lon="2.6641">
        <ele>22.6</ele>
        <time>2021-06-24T16:40:04Z</time>
        <extensions>
          <gpxtpx:TrackPointExtension xmlns:gpxtpx="http://www.garmin.com/xmlschemas/TrackPointExtension/v1">
            <gpxtpx:hr>142</gpxtpx:hr>
          </gpxtpx:TrackPointExtension>
        </extensions>
      </trkpt>
      <trkpt lat="50.54078" lon="2.66419">
        <ele>22.6</ele>
        <time>2021-06-24T16:40:05Z</time>
        <extensions>
          <gpxtpx:TrackPointExtension xmlns:gpxtpx="http://www.garmin.com/xmlschemas/TrackPointExtension/v1">
            <gpxtpx:hr>142</gpxtpx:hr>
          </gpxtpx:TrackPointExtension>
        </extensions>
      </trkpt>
      <trkpt lat="50.54075" lon="2.66428">
        <ele>22.6</ele>
        <time>2021-06-24T16:40:06Z</time>
        <extensions>
          <gpxtpx:TrackPointExtension xmlns:gpxtpx="http://www.garmin.com/xmlschemas/TrackPointExtension/v1">
            <gpxtpx:hr>142</gpxtpx:hr>
          </gpxtpx:TrackPointExtension>
        </extensions>
      </trkpt>
      <trkpt lat="50.54073" lon="2.66435">
        <ele>22.8</ele>
        <time>2021-06-24T16:40:07Z</time>
        <extensions>
          <gpxtpx:TrackPointExtension xmlns:gpxtpx="http://www.garmin.com/xmlschemas/TrackPointExtension/v1">
            <gpxtpx:hr>143</gpxtpx:hr>
          </gpxtpx:TrackPointExtension>
        </extensions>
      </trkpt>
      <trkpt lat="50.5407" lon="2.66444">
        <ele>22.8</ele>
        <time>2021-06-24T16:40:08Z</time>
        <extensions>
          <gpxtpx:TrackPointExtension xmlns:gpxtpx="http://www.garmin.com/xmlschemas/TrackPointExtension/v1">
            <gpxtpx:hr>142</gpxtpx:hr>
          </gpxtpx:TrackPointExtension>
        </extensions>
      </trkpt>
      <trkpt lat="50.54067" lon="2.66454">
        <ele>22.8</ele>
        <time>2021-06-24T16:40:09Z</time>
        <extensions>
          <gpxtpx:TrackPointExtension xmlns:gpxtpx="http://www.garmin.com/xmlschemas/TrackPointExtension/v1">
            <gpxtpx:hr>142</gpxtpx:hr>
          </gpxtpx:TrackPointExtension>
        </extensions>
      </trkpt>
      <trkpt lat="50.54064" lon="2.66463">
        <ele>22.8</ele>
        <time>2021-06-24T16:40:10Z</time>
        <extensions>
          <gpxtpx:TrackPointExtension xmlns:gpxtpx="http://www.garmin.com/xmlschemas/TrackPointExtension/v1">
            <gpxtpx:hr>142</gpxtpx:hr>
          </gpxtpx:TrackPointExtension>
        </extensions>
      </trkpt>
      <trkpt lat="50.54061" lon="2.66473">
        <ele>22.8</ele>
        <time>2021-06-24T16:40:11Z</time>
        <extensions>
          <gpxtpx:TrackPointExtension xmlns:gpxtpx="http://www.garmin.com/xmlschemas/TrackPointExtension/v1">
            <gpxtpx:hr>143</gpxtpx:hr>
          </gpxtpx:TrackPointExtension>
        </extensions>
      </trkpt>
      <trkpt lat="50.54057" lon="2.66482">
        <ele>22.8</ele>
        <time>2021-06-24T16:40:12Z</time>
        <extensions>
          <gpxtpx:TrackPointExtension xmlns:gpxtpx="http://www.garmin.com/xmlschemas/TrackPointExtension/v1">
            <gpxtpx:hr>143</gpxtpx:hr>
          </gpxtpx:TrackPointExtension>
        </extensions>
      </trkpt>
      <trkpt lat="50.54054" lon="2.66491">
        <ele>22.8</ele>
        <time>2021-06-24T16:40:13Z</time>
        <extensions>
          <gpxtpx:TrackPointExtension xmlns:gpxtpx="http://www.garmin.com/xmlschemas/TrackPointExtension/v1">
            <gpxtpx:hr>144</gpxtpx:hr>
          </gpxtpx:TrackPointExtension>
        </extensions>
      </trkpt>
      <trkpt lat="50.54051" lon="2.66501">
        <ele>22.8</ele>
        <time>2021-06-24T16:40:14Z</time>
        <extensions>
          <gpxtpx:TrackPointExtension xmlns:gpxtpx="http://www.garmin.com/xmlschemas/TrackPointExtension/v1">
            <gpxtpx:hr>144</gpxtpx:hr>
          </gpxtpx:TrackPointExtension>
        </extensions>
      </trkpt>
      <trkpt lat="50.54048" lon="2.66511">
        <ele>23</ele>
        <time>2021-06-24T16:40:15Z</time>
        <extensions>
          <gpxtpx:TrackPointExtension xmlns:gpxtpx="http://www.garmin.com/xmlschemas/TrackPointExtension/v1">
            <gpxtpx:hr>145</gpxtpx:hr>
          </gpxtpx:TrackPointExtension>
        </extensions>
      </trkpt>
      <trkpt lat="50.54045" lon="2.66521">
        <ele>23</ele>
        <time>2021-06-24T16:40:16Z</time>
        <extensions>
          <gpxtpx:TrackPointExtension xmlns:gpxtpx="http://www.garmin.com/xmlschemas/TrackPointExtension/v1">
            <gpxtpx:hr>146</gpxtpx:hr>
          </gpxtpx:TrackPointExtension>
        </extensions>
      </trkpt>
      <trkpt lat="50.54042" lon="2.6653">
        <ele>23</ele>
        <time>2021-06-24T16:40:17Z</time>
        <extensions>
          <gpxtpx:TrackPointExtension xmlns:gpxtpx="http://www.garmin.com/xmlschemas/TrackPointExtension/v1">
            <gpxtpx:hr>147</gpxtpx:hr>
          </gpxtpx:TrackPointExtension>
        </extensions>
      </trkpt>
      <trkpt lat="50.54038" lon="2.66542">
        <ele>23</ele>
        <time>2021-06-24T16:40:18Z</time>
        <extensions>
          <gpxtpx:TrackPointExtension xmlns:gpxtpx="http://www.garmin.com/xmlschemas/TrackPointExtension/v1">
            <gpxtpx:hr>147</gpxtpx:hr>
          </gpxtpx:TrackPointExtension>
        </extensions>
      </trkpt>
      <trkpt lat="50.54035" lon="2.66551">
        <ele>23</ele>
        <time>2021-06-24T16:40:19Z</time>
        <extensions>
          <gpxtpx:TrackPointExtension xmlns:gpxtpx="http://www.garmin.com/xmlschemas/TrackPointExtension/v1">
            <gpxtpx:hr>147</gpxtpx:hr>
          </gpxtpx:TrackPointExtension>
        </extensions>
      </trkpt>
      <trkpt lat="50.54032" lon="2.6656">
        <ele>22.8</ele>
        <time>2021-06-24T16:40:20Z</time>
        <extensions>
          <gpxtpx:TrackPointExtension xmlns:gpxtpx="http://www.garmin.com/xmlschemas/TrackPointExtension/v1">
            <gpxtpx:hr>147</gpxtpx:hr>
          </gpxtpx:TrackPointExtension>
        </extensions>
      </trkpt>
      <trkpt lat="50.54029" lon="2.66568">
        <ele>22.8</ele>
        <time>2021-06-24T16:40:21Z</time>
        <extensions>
          <gpxtpx:TrackPointExtension xmlns:gpxtpx="http://www.garmin.com/xmlschemas/TrackPointExtension/v1">
            <gpxtpx:hr>147</gpxtpx:hr>
          </gpxtpx:TrackPointExtension>
        </extensions>
      </trkpt>
      <trkpt lat="50.54027" lon="2.66577">
        <ele>22.8</ele>
        <time>2021-06-24T16:40:22Z</time>
        <extensions>
          <gpxtpx:TrackPointExtension xmlns:gpxtpx="http://www.garmin.com/xmlschemas/TrackPointExtension/v1">
            <gpxtpx:hr>147</gpxtpx:hr>
          </gpxtpx:TrackPointExtension>
        </extensions>
      </trkpt>
      <trkpt lat="50.54023" lon="2.66589">
        <ele>22.6</ele>
        <time>2021-06-24T16:40:23Z</time>
        <extensions>
          <gpxtpx:TrackPointExtension xmlns:gpxtpx="http://www.garmin.com/xmlschemas/TrackPointExtension/v1">
            <gpxtpx:hr>146</gpxtpx:hr>
          </gpxtpx:TrackPointExtension>
        </extensions>
      </trkpt>
      <trkpt lat="50.5402" lon="2.66597">
        <ele>22.6</ele>
        <time>2021-06-24T16:40:24Z</time>
        <extensions>
          <gpxtpx:TrackPointExtension xmlns:gpxtpx="http://www.garmin.com/xmlschemas/TrackPointExtension/v1">
            <gpxtpx:hr>146</gpxtpx:hr>
          </gpxtpx:TrackPointExtension>
        </extensions>
      </trkpt>
      <trkpt lat="50.54017" lon="2.66607">
        <ele>22.6</ele>
        <time>2021-06-24T16:40:25Z</time>
        <extensions>
          <gpxtpx:TrackPointExtension xmlns:gpxtpx="http://www.garmin.com/xmlschemas/TrackPointExtension/v1">
            <gpxtpx:hr>146</gpxtpx:hr>
          </gpxtpx:TrackPointExtension>
        </extensions>
      </trkpt>
      <trkpt lat="50.54014" lon="2.66616">
        <ele>22.6</ele>
        <time>2021-06-24T16:40:26Z</time>
        <extensions>
          <gpxtpx:TrackPointExtension xmlns:gpxtpx="http://www.garmin.com/xmlschemas/TrackPointExtension/v1">
            <gpxtpx:hr>146</gpxtpx:hr>
          </gpxtpx:TrackPointExtension>
        </extensions>
      </trkpt>
      <trkpt lat="50.54011" lon="2.66626">
        <ele>22.6</ele>
        <time>2021-06-24T16:40:27Z</time>
        <extensions>
          <gpxtpx:TrackPointExtension xmlns:gpxtpx="http://www.garmin.com/xmlschemas/TrackPointExtension/v1">
            <gpxtpx:hr>146</gpxtpx:hr>
          </gpxtpx:TrackPointExtension>
        </extensions>
      </trkpt>
      <trkpt lat="50.54007" lon="2.66635">
        <ele>22.6</ele>
        <time>2021-06-24T16:40:28Z</time>
        <extensions>
          <gpxtpx:TrackPointExtension xmlns:gpxtpx="http://www.garmin.com/xmlschemas/TrackPointExtension/v1">
            <gpxtpx:hr>147</gpxtpx:hr>
          </gpxtpx:TrackPointExtension>
        </extensions>
      </trkpt>
      <trkpt lat="50.54004" lon="2.66644">
        <ele>22.6</ele>
        <time>2021-06-24T16:40:29Z</time>
        <extensions>
          <gpxtpx:TrackPointExtension xmlns:gpxtpx="http://www.garmin.com/xmlschemas/TrackPointExtension/v1">
            <gpxtpx:hr>147</gpxtpx:hr>
          </gpxtpx:TrackPointExtension>
        </extensions>
      </trkpt>
      <trkpt lat="50.54001" lon="2.66654">
        <ele>22.8</ele>
        <time>2021-06-24T16:40:30Z</time>
        <extensions>
          <gpxtpx:TrackPointExtension xmlns:gpxtpx="http://www.garmin.com/xmlschemas/TrackPointExtension/v1">
            <gpxtpx:hr>148</gpxtpx:hr>
          </gpxtpx:TrackPointExtension>
        </extensions>
      </trkpt>
      <trkpt lat="50.53998" lon="2.66663">
        <ele>22.8</ele>
        <time>2021-06-24T16:40:31Z</time>
        <extensions>
          <gpxtpx:TrackPointExtension xmlns:gpxtpx="http://www.garmin.com/xmlschemas/TrackPointExtension/v1">
            <gpxtpx:hr>148</gpxtpx:hr>
          </gpxtpx:TrackPointExtension>
        </extensions>
      </trkpt>
      <trkpt lat="50.53995" lon="2.66672">
        <ele>22.8</ele>
        <time>2021-06-24T16:40:32Z</time>
        <extensions>
          <gpxtpx:TrackPointExtension xmlns:gpxtpx="http://www.garmin.com/xmlschemas/TrackPointExtension/v1">
            <gpxtpx:hr>148</gpxtpx:hr>
          </gpxtpx:TrackPointExtension>
        </extensions>
      </trkpt>
      <trkpt lat="50.53992" lon="2.66682">
        <ele>22.8</ele>
        <time>2021-06-24T16:40:33Z</time>
        <extensions>
          <gpxtpx:TrackPointExtension xmlns:gpxtpx="http://www.garmin.com/xmlschemas/TrackPointExtension/v1">
            <gpxtpx:hr>148</gpxtpx:hr>
          </gpxtpx:TrackPointExtension>
        </extensions>
      </trkpt>
      <trkpt lat="50.53989" lon="2.66692">
        <ele>22.8</ele>
        <time>2021-06-24T16:40:34Z</time>
        <extensions>
          <gpxtpx:TrackPointExtension xmlns:gpxtpx="http://www.garmin.com/xmlschemas/TrackPointExtension/v1">
            <gpxtpx:hr>148</gpxtpx:hr>
          </gpxtpx:TrackPointExtension>
        </extensions>
      </trkpt>
      <trkpt lat="50.53986" lon="2.66702">
        <ele>22.8</ele>
        <time>2021-06-24T16:40:35Z</time>
        <extensions>
          <gpxtpx:TrackPointExtension xmlns:gpxtpx="http://www.garmin.com/xmlschemas/TrackPointExtension/v1">
            <gpxtpx:hr>148</gpxtpx:hr>
          </gpxtpx:TrackPointExtension>
        </extensions>
      </trkpt>
      <trkpt lat="50.53983" lon="2.66712">
        <ele>22.6</ele>
        <time>2021-06-24T16:40:36Z</time>
        <extensions>
          <gpxtpx:TrackPointExtension xmlns:gpxtpx="http://www.garmin.com/xmlschemas/TrackPointExtension/v1">
            <gpxtpx:hr>148</gpxtpx:hr>
          </gpxtpx:TrackPointExtension>
        </extensions>
      </trkpt>
      <trkpt lat="50.5398" lon="2.66721">
        <ele>22.6</ele>
        <time>2021-06-24T16:40:37Z</time>
        <extensions>
          <gpxtpx:TrackPointExtension xmlns:gpxtpx="http://www.garmin.com/xmlschemas/TrackPointExtension/v1">
            <gpxtpx:hr>147</gpxtpx:hr>
          </gpxtpx:TrackPointExtension>
        </extensions>
      </trkpt>
      <trkpt lat="50.53976" lon="2.66731">
        <ele>22.6</ele>
        <time>2021-06-24T16:40:38Z</time>
        <extensions>
          <gpxtpx:TrackPointExtension xmlns:gpxtpx="http://www.garmin.com/xmlschemas/TrackPointExtension/v1">
            <gpxtpx:hr>146</gpxtpx:hr>
          </gpxtpx:TrackPointExtension>
        </extensions>
      </trkpt>
      <trkpt lat="50.53973" lon="2.66741">
        <ele>22.6</ele>
        <time>2021-06-24T16:40:39Z</time>
        <extensions>
          <gpxtpx:TrackPointExtension xmlns:gpxtpx="http://www.garmin.com/xmlschemas/TrackPointExtension/v1">
            <gpxtpx:hr>146</gpxtpx:hr>
          </gpxtpx:TrackPointExtension>
        </extensions>
      </trkpt>
      <trkpt lat="50.5397" lon="2.6675">
        <ele>22.6</ele>
        <time>2021-06-24T16:40:40Z</time>
        <extensions>
          <gpxtpx:TrackPointExtension xmlns:gpxtpx="http://www.garmin.com/xmlschemas/TrackPointExtension/v1">
            <gpxtpx:hr>146</gpxtpx:hr>
          </gpxtpx:TrackPointExtension>
        </extensions>
      </trkpt>
      <trkpt lat="50.53967" lon="2.6676">
        <ele>22.6</ele>
        <time>2021-06-24T16:40:41Z</time>
        <extensions>
          <gpxtpx:TrackPointExtension xmlns:gpxtpx="http://www.garmin.com/xmlschemas/TrackPointExtension/v1">
            <gpxtpx:hr>146</gpxtpx:hr>
          </gpxtpx:TrackPointExtension>
        </extensions>
      </trkpt>
      <trkpt lat="50.53964" lon="2.66769">
        <ele>22.6</ele>
        <time>2021-06-24T16:40:42Z</time>
        <extensions>
          <gpxtpx:TrackPointExtension xmlns:gpxtpx="http://www.garmin.com/xmlschemas/TrackPointExtension/v1">
            <gpxtpx:hr>146</gpxtpx:hr>
          </gpxtpx:TrackPointExtension>
        </extensions>
      </trkpt>
      <trkpt lat="50.53961" lon="2.66779">
        <ele>22.6</ele>
        <time>2021-06-24T16:40:43Z</time>
        <extensions>
          <gpxtpx:TrackPointExtension xmlns:gpxtpx="http://www.garmin.com/xmlschemas/TrackPointExtension/v1">
            <gpxtpx:hr>146</gpxtpx:hr>
          </gpxtpx:TrackPointExtension>
        </extensions>
      </trkpt>
      <trkpt lat="50.53957" lon="2.66789">
        <ele>22.6</ele>
        <time>2021-06-24T16:40:44Z</time>
        <extensions>
          <gpxtpx:TrackPointExtension xmlns:gpxtpx="http://www.garmin.com/xmlschemas/TrackPointExtension/v1">
            <gpxtpx:hr>147</gpxtpx:hr>
          </gpxtpx:TrackPointExtension>
        </extensions>
      </trkpt>
      <trkpt lat="50.53954" lon="2.66799">
        <ele>22.4</ele>
        <time>2021-06-24T16:40:45Z</time>
        <extensions>
          <gpxtpx:TrackPointExtension xmlns:gpxtpx="http://www.garmin.com/xmlschemas/TrackPointExtension/v1">
            <gpxtpx:hr>147</gpxtpx:hr>
          </gpxtpx:TrackPointExtension>
        </extensions>
      </trkpt>
      <trkpt lat="50.5395" lon="2.6681">
        <ele>22.4</ele>
        <time>2021-06-24T16:40:46Z</time>
        <extensions>
          <gpxtpx:TrackPointExtension xmlns:gpxtpx="http://www.garmin.com/xmlschemas/TrackPointExtension/v1">
            <gpxtpx:hr>147</gpxtpx:hr>
          </gpxtpx:TrackPointExtension>
        </extensions>
      </trkpt>
      <trkpt lat="50.53948" lon="2.66818">
        <ele>22.4</ele>
        <time>2021-06-24T16:40:47Z</time>
        <extensions>
          <gpxtpx:TrackPointExtension xmlns:gpxtpx="http://www.garmin.com/xmlschemas/TrackPointExtension/v1">
            <gpxtpx:hr>147</gpxtpx:hr>
          </gpxtpx:TrackPointExtension>
        </extensions>
      </trkpt>
      <trkpt lat="50.53945" lon="2.66828">
        <ele>22.4</ele>
        <time>2021-06-24T16:40:48Z</time>
        <extensions>
          <gpxtpx:TrackPointExtension xmlns:gpxtpx="http://www.garmin.com/xmlschemas/TrackPointExtension/v1">
            <gpxtpx:hr>146</gpxtpx:hr>
          </gpxtpx:TrackPointExtension>
        </extensions>
      </trkpt>
      <trkpt lat="50.53944" lon="2.66837">
        <ele>22.4</ele>
        <time>2021-06-24T16:40:49Z</time>
        <extensions>
          <gpxtpx:TrackPointExtension xmlns:gpxtpx="http://www.garmin.com/xmlschemas/TrackPointExtension/v1">
            <gpxtpx:hr>146</gpxtpx:hr>
          </gpxtpx:TrackPointExtension>
        </extensions>
      </trkpt>
      <trkpt lat="50.5394" lon="2.66847">
        <ele>22.2</ele>
        <time>2021-06-24T16:40:50Z</time>
        <extensions>
          <gpxtpx:TrackPointExtension xmlns:gpxtpx="http://www.garmin.com/xmlschemas/TrackPointExtension/v1">
            <gpxtpx:hr>146</gpxtpx:hr>
          </gpxtpx:TrackPointExtension>
        </extensions>
      </trkpt>
      <trkpt lat="50.53938" lon="2.66857">
        <ele>22.2</ele>
        <time>2021-06-24T16:40:51Z</time>
        <extensions>
          <gpxtpx:TrackPointExtension xmlns:gpxtpx="http://www.garmin.com/xmlschemas/TrackPointExtension/v1">
            <gpxtpx:hr>146</gpxtpx:hr>
          </gpxtpx:TrackPointExtension>
        </extensions>
      </trkpt>
      <trkpt lat="50.53934" lon="2.66866">
        <ele>22.2</ele>
        <time>2021-06-24T16:40:52Z</time>
        <extensions>
          <gpxtpx:TrackPointExtension xmlns:gpxtpx="http://www.garmin.com/xmlschemas/TrackPointExtension/v1">
            <gpxtpx:hr>146</gpxtpx:hr>
          </gpxtpx:TrackPointExtension>
        </extensions>
      </trkpt>
      <trkpt lat="50.53932" lon="2.66876">
        <ele>22.2</ele>
        <time>2021-06-24T16:40:53Z</time>
        <extensions>
          <gpxtpx:TrackPointExtension xmlns:gpxtpx="http://www.garmin.com/xmlschemas/TrackPointExtension/v1">
            <gpxtpx:hr>145</gpxtpx:hr>
          </gpxtpx:TrackPointExtension>
        </extensions>
      </trkpt>
      <trkpt lat="50.53928" lon="2.66885">
        <ele>22.4</ele>
        <time>2021-06-24T16:40:54Z</time>
        <extensions>
          <gpxtpx:TrackPointExtension xmlns:gpxtpx="http://www.garmin.com/xmlschemas/TrackPointExtension/v1">
            <gpxtpx:hr>145</gpxtpx:hr>
          </gpxtpx:TrackPointExtension>
        </extensions>
      </trkpt>
      <trkpt lat="50.53925" lon="2.66895">
        <ele>22.4</ele>
        <time>2021-06-24T16:40:55Z</time>
        <extensions>
          <gpxtpx:TrackPointExtension xmlns:gpxtpx="http://www.garmin.com/xmlschemas/TrackPointExtension/v1">
            <gpxtpx:hr>144</gpxtpx:hr>
          </gpxtpx:TrackPointExtension>
        </extensions>
      </trkpt>
      <trkpt lat="50.53922" lon="2.66904">
        <ele>22.4</ele>
        <time>2021-06-24T16:40:56Z</time>
        <extensions>
          <gpxtpx:TrackPointExtension xmlns:gpxtpx="http://www.garmin.com/xmlschemas/TrackPointExtension/v1">
            <gpxtpx:hr>143</gpxtpx:hr>
          </gpxtpx:TrackPointExtension>
        </extensions>
      </trkpt>
      <trkpt lat="50.53919" lon="2.66914">
        <ele>22.4</ele>
        <time>2021-06-24T16:40:57Z</time>
        <extensions>
          <gpxtpx:TrackPointExtension xmlns:gpxtpx="http://www.garmin.com/xmlschemas/TrackPointExtension/v1">
            <gpxtpx:hr>142</gpxtpx:hr>
          </gpxtpx:TrackPointExtension>
        </extensions>
      </trkpt>
      <trkpt lat="50.53916" lon="2.66924">
        <ele>22.4</ele>
        <time>2021-06-24T16:40:58Z</time>
        <extensions>
          <gpxtpx:TrackPointExtension xmlns:gpxtpx="http://www.garmin.com/xmlschemas/TrackPointExtension/v1">
            <gpxtpx:hr>141</gpxtpx:hr>
          </gpxtpx:TrackPointExtension>
        </extensions>
      </trkpt>
      <trkpt lat="50.53914" lon="2.66934">
        <ele>22.4</ele>
        <time>2021-06-24T16:40:59Z</time>
        <extensions>
          <gpxtpx:TrackPointExtension xmlns:gpxtpx="http://www.garmin.com/xmlschemas/TrackPointExtension/v1">
            <gpxtpx:hr>141</gpxtpx:hr>
          </gpxtpx:TrackPointExtension>
        </extensions>
      </trkpt>
      <trkpt lat="50.5391" lon="2.66944">
        <ele>22.4</ele>
        <time>2021-06-24T16:41:00Z</time>
        <extensions>
          <gpxtpx:TrackPointExtension xmlns:gpxtpx="http://www.garmin.com/xmlschemas/TrackPointExtension/v1">
            <gpxtpx:hr>142</gpxtpx:hr>
          </gpxtpx:TrackPointExtension>
        </extensions>
      </trkpt>
      <trkpt lat="50.53908" lon="2.66953">
        <ele>22.4</ele>
        <time>2021-06-24T16:41:01Z</time>
        <extensions>
          <gpxtpx:TrackPointExtension xmlns:gpxtpx="http://www.garmin.com/xmlschemas/TrackPointExtension/v1">
            <gpxtpx:hr>143</gpxtpx:hr>
          </gpxtpx:TrackPointExtension>
        </extensions>
      </trkpt>
      <trkpt lat="50.53904" lon="2.66963">
        <ele>22.4</ele>
        <time>2021-06-24T16:41:02Z</time>
        <extensions>
          <gpxtpx:TrackPointExtension xmlns:gpxtpx="http://www.garmin.com/xmlschemas/TrackPointExtension/v1">
            <gpxtpx:hr>144</gpxtpx:hr>
          </gpxtpx:TrackPointExtension>
        </extensions>
      </trkpt>
      <trkpt lat="50.53901" lon="2.66972">
        <ele>22.4</ele>
        <time>2021-06-24T16:41:03Z</time>
        <extensions>
          <gpxtpx:TrackPointExtension xmlns:gpxtpx="http://www.garmin.com/xmlschemas/TrackPointExtension/v1">
            <gpxtpx:hr>145</gpxtpx:hr>
          </gpxtpx:TrackPointExtension>
        </extensions>
      </trkpt>
      <trkpt lat="50.53898" lon="2.66981">
        <ele>22.4</ele>
        <time>2021-06-24T16:41:04Z</time>
        <extensions>
          <gpxtpx:TrackPointExtension xmlns:gpxtpx="http://www.garmin.com/xmlschemas/TrackPointExtension/v1">
            <gpxtpx:hr>146</gpxtpx:hr>
          </gpxtpx:TrackPointExtension>
        </extensions>
      </trkpt>
      <trkpt lat="50.53895" lon="2.6699">
        <ele>22.6</ele>
        <time>2021-06-24T16:41:05Z</time>
        <extensions>
          <gpxtpx:TrackPointExtension xmlns:gpxtpx="http://www.garmin.com/xmlschemas/TrackPointExtension/v1">
            <gpxtpx:hr>147</gpxtpx:hr>
          </gpxtpx:TrackPointExtension>
        </extensions>
      </trkpt>
      <trkpt lat="50.53892" lon="2.67">
        <ele>22.6</ele>
        <time>2021-06-24T16:41:06Z</time>
        <extensions>
          <gpxtpx:TrackPointExtension xmlns:gpxtpx="http://www.garmin.com/xmlschemas/TrackPointExtension/v1">
            <gpxtpx:hr>148</gpxtpx:hr>
          </gpxtpx:TrackPointExtension>
        </extensions>
      </trkpt>
      <trkpt lat="50.53889" lon="2.67009">
        <ele>22.6</ele>
        <time>2021-06-24T16:41:07Z</time>
        <extensions>
          <gpxtpx:TrackPointExtension xmlns:gpxtpx="http://www.garmin.com/xmlschemas/TrackPointExtension/v1">
            <gpxtpx:hr>148</gpxtpx:hr>
          </gpxtpx:TrackPointExtension>
        </extensions>
      </trkpt>
      <trkpt lat="50.53886" lon="2.67018">
        <ele>22.6</ele>
        <time>2021-06-24T16:41:08Z</time>
        <extensions>
          <gpxtpx:TrackPointExtension xmlns:gpxtpx="http://www.garmin.com/xmlschemas/TrackPointExtension/v1">
            <gpxtpx:hr>149</gpxtpx:hr>
          </gpxtpx:TrackPointExtension>
        </extensions>
      </trkpt>
      <trkpt lat="50.53883" lon="2.67027">
        <ele>22.6</ele>
        <time>2021-06-24T16:41:09Z</time>
        <extensions>
          <gpxtpx:TrackPointExtension xmlns:gpxtpx="http://www.garmin.com/xmlschemas/TrackPointExtension/v1">
            <gpxtpx:hr>150</gpxtpx:hr>
          </gpxtpx:TrackPointExtension>
        </extensions>
      </trkpt>
      <trkpt lat="50.5388" lon="2.67036">
        <ele>22.8</ele>
        <time>2021-06-24T16:41:10Z</time>
        <extensions>
          <gpxtpx:TrackPointExtension xmlns:gpxtpx="http://www.garmin.com/xmlschemas/TrackPointExtension/v1">
            <gpxtpx:hr>150</gpxtpx:hr>
          </gpxtpx:TrackPointExtension>
        </extensions>
      </trkpt>
      <trkpt lat="50.53876" lon="2.67045">
        <ele>22.8</ele>
        <time>2021-06-24T16:41:11Z</time>
        <extensions>
          <gpxtpx:TrackPointExtension xmlns:gpxtpx="http://www.garmin.com/xmlschemas/TrackPointExtension/v1">
            <gpxtpx:hr>150</gpxtpx:hr>
          </gpxtpx:TrackPointExtension>
        </extensions>
      </trkpt>
      <trkpt lat="50.53874" lon="2.67055">
        <ele>22.8</ele>
        <time>2021-06-24T16:41:12Z</time>
        <extensions>
          <gpxtpx:TrackPointExtension xmlns:gpxtpx="http://www.garmin.com/xmlschemas/TrackPointExtension/v1">
            <gpxtpx:hr>150</gpxtpx:hr>
          </gpxtpx:TrackPointExtension>
        </extensions>
      </trkpt>
      <trkpt lat="50.5387" lon="2.67064">
        <ele>22.8</ele>
        <time>2021-06-24T16:41:13Z</time>
        <extensions>
          <gpxtpx:TrackPointExtension xmlns:gpxtpx="http://www.garmin.com/xmlschemas/TrackPointExtension/v1">
            <gpxtpx:hr>150</gpxtpx:hr>
          </gpxtpx:TrackPointExtension>
        </extensions>
      </trkpt>
      <trkpt lat="50.53867" lon="2.67074">
        <ele>22.8</ele>
        <time>2021-06-24T16:41:14Z</time>
        <extensions>
          <gpxtpx:TrackPointExtension xmlns:gpxtpx="http://www.garmin.com/xmlschemas/TrackPointExtension/v1">
            <gpxtpx:hr>150</gpxtpx:hr>
          </gpxtpx:TrackPointExtension>
        </extensions>
      </trkpt>
      <trkpt lat="50.53865" lon="2.67083">
        <ele>22.8</ele>
        <time>2021-06-24T16:41:15Z</time>
        <extensions>
          <gpxtpx:TrackPointExtension xmlns:gpxtpx="http://www.garmin.com/xmlschemas/TrackPointExtension/v1">
            <gpxtpx:hr>149</gpxtpx:hr>
          </gpxtpx:TrackPointExtension>
        </extensions>
      </trkpt>
      <trkpt lat="50.53862" lon="2.67093">
        <ele>22.6</ele>
        <time>2021-06-24T16:41:16Z</time>
        <extensions>
          <gpxtpx:TrackPointExtension xmlns:gpxtpx="http://www.garmin.com/xmlschemas/TrackPointExtension/v1">
            <gpxtpx:hr>149</gpxtpx:hr>
          </gpxtpx:TrackPointExtension>
        </extensions>
      </trkpt>
      <trkpt lat="50.53859" lon="2.67103">
        <ele>22.6</ele>
        <time>2021-06-24T16:41:17Z</time>
        <extensions>
          <gpxtpx:TrackPointExtension xmlns:gpxtpx="http://www.garmin.com/xmlschemas/TrackPointExtension/v1">
            <gpxtpx:hr>149</gpxtpx:hr>
          </gpxtpx:TrackPointExtension>
        </extensions>
      </trkpt>
      <trkpt lat="50.53855" lon="2.67112">
        <ele>22.4</ele>
        <time>2021-06-24T16:41:18Z</time>
        <extensions>
          <gpxtpx:TrackPointExtension xmlns:gpxtpx="http://www.garmin.com/xmlschemas/TrackPointExtension/v1">
            <gpxtpx:hr>148</gpxtpx:hr>
          </gpxtpx:TrackPointExtension>
        </extensions>
      </trkpt>
      <trkpt lat="50.53852" lon="2.67121">
        <ele>22.4</ele>
        <time>2021-06-24T16:41:19Z</time>
        <extensions>
          <gpxtpx:TrackPointExtension xmlns:gpxtpx="http://www.garmin.com/xmlschemas/TrackPointExtension/v1">
            <gpxtpx:hr>148</gpxtpx:hr>
          </gpxtpx:TrackPointExtension>
        </extensions>
      </trkpt>
      <trkpt lat="50.53849" lon="2.67131">
        <ele>22.4</ele>
        <time>2021-06-24T16:41:20Z</time>
        <extensions>
          <gpxtpx:TrackPointExtension xmlns:gpxtpx="http://www.garmin.com/xmlschemas/TrackPointExtension/v1">
            <gpxtpx:hr>148</gpxtpx:hr>
          </gpxtpx:TrackPointExtension>
        </extensions>
      </trkpt>
      <trkpt lat="50.53846" lon="2.6714">
        <ele>22.2</ele>
        <time>2021-06-24T16:41:21Z</time>
        <extensions>
          <gpxtpx:TrackPointExtension xmlns:gpxtpx="http://www.garmin.com/xmlschemas/TrackPointExtension/v1">
            <gpxtpx:hr>148</gpxtpx:hr>
          </gpxtpx:TrackPointExtension>
        </extensions>
      </trkpt>
      <trkpt lat="50.53843" lon="2.6715">
        <ele>22.2</ele>
        <time>2021-06-24T16:41:22Z</time>
        <extensions>
          <gpxtpx:TrackPointExtension xmlns:gpxtpx="http://www.garmin.com/xmlschemas/TrackPointExtension/v1">
            <gpxtpx:hr>148</gpxtpx:hr>
          </gpxtpx:TrackPointExtension>
        </extensions>
      </trkpt>
      <trkpt lat="50.5384" lon="2.67159">
        <ele>22.2</ele>
        <time>2021-06-24T16:41:23Z</time>
        <extensions>
          <gpxtpx:TrackPointExtension xmlns:gpxtpx="http://www.garmin.com/xmlschemas/TrackPointExtension/v1">
            <gpxtpx:hr>148</gpxtpx:hr>
          </gpxtpx:TrackPointExtension>
        </extensions>
      </trkpt>
      <trkpt lat="50.53837" lon="2.67169">
        <ele>22.2</ele>
        <time>2021-06-24T16:41:24Z</time>
        <extensions>
          <gpxtpx:TrackPointExtension xmlns:gpxtpx="http://www.garmin.com/xmlschemas/TrackPointExtension/v1">
            <gpxtpx:hr>148</gpxtpx:hr>
          </gpxtpx:TrackPointExtension>
        </extensions>
      </trkpt>
      <trkpt lat="50.53834" lon="2.67178">
        <ele>22.2</ele>
        <time>2021-06-24T16:41:25Z</time>
        <extensions>
          <gpxtpx:TrackPointExtension xmlns:gpxtpx="http://www.garmin.com/xmlschemas/TrackPointExtension/v1">
            <gpxtpx:hr>149</gpxtpx:hr>
          </gpxtpx:TrackPointExtension>
        </extensions>
      </trkpt>
      <trkpt lat="50.53831" lon="2.67188">
        <ele>22.4</ele>
        <time>2021-06-24T16:41:26Z</time>
        <extensions>
          <gpxtpx:TrackPointExtension xmlns:gpxtpx="http://www.garmin.com/xmlschemas/TrackPointExtension/v1">
            <gpxtpx:hr>149</gpxtpx:hr>
          </gpxtpx:TrackPointExtension>
        </extensions>
      </trkpt>
      <trkpt lat="50.53829" lon="2.67198">
        <ele>22.4</ele>
        <time>2021-06-24T16:41:27Z</time>
        <extensions>
          <gpxtpx:TrackPointExtension xmlns:gpxtpx="http://www.garmin.com/xmlschemas/TrackPointExtension/v1">
            <gpxtpx:hr>149</gpxtpx:hr>
          </gpxtpx:TrackPointExtension>
        </extensions>
      </trkpt>
      <trkpt lat="50.53827" lon="2.67207">
        <ele>22.4</ele>
        <time>2021-06-24T16:41:28Z</time>
        <extensions>
          <gpxtpx:TrackPointExtension xmlns:gpxtpx="http://www.garmin.com/xmlschemas/TrackPointExtension/v1">
            <gpxtpx:hr>149</gpxtpx:hr>
          </gpxtpx:TrackPointExtension>
        </extensions>
      </trkpt>
      <trkpt lat="50.53824" lon="2.67217">
        <ele>22.4</ele>
        <time>2021-06-24T16:41:29Z</time>
        <extensions>
          <gpxtpx:TrackPointExtension xmlns:gpxtpx="http://www.garmin.com/xmlschemas/TrackPointExtension/v1">
            <gpxtpx:hr>149</gpxtpx:hr>
          </gpxtpx:TrackPointExtension>
        </extensions>
      </trkpt>
      <trkpt lat="50.53821" lon="2.67226">
        <ele>22.4</ele>
        <time>2021-06-24T16:41:30Z</time>
        <extensions>
          <gpxtpx:TrackPointExtension xmlns:gpxtpx="http://www.garmin.com/xmlschemas/TrackPointExtension/v1">
            <gpxtpx:hr>149</gpxtpx:hr>
          </gpxtpx:TrackPointExtension>
        </extensions>
      </trkpt>
      <trkpt lat="50.53819" lon="2.67235">
        <ele>22.4</ele>
        <time>2021-06-24T16:41:31Z</time>
        <extensions>
          <gpxtpx:TrackPointExtension xmlns:gpxtpx="http://www.garmin.com/xmlschemas/TrackPointExtension/v1">
            <gpxtpx:hr>149</gpxtpx:hr>
          </gpxtpx:TrackPointExtension>
        </extensions>
      </trkpt>
      <trkpt lat="50.53816" lon="2.67245">
        <ele>22.4</ele>
        <time>2021-06-24T16:41:32Z</time>
        <extensions>
          <gpxtpx:TrackPointExtension xmlns:gpxtpx="http://www.garmin.com/xmlschemas/TrackPointExtension/v1">
            <gpxtpx:hr>149</gpxtpx:hr>
          </gpxtpx:TrackPointExtension>
        </extensions>
      </trkpt>
      <trkpt lat="50.53813" lon="2.67254">
        <ele>22.6</ele>
        <time>2021-06-24T16:41:33Z</time>
        <extensions>
          <gpxtpx:TrackPointExtension xmlns:gpxtpx="http://www.garmin.com/xmlschemas/TrackPointExtension/v1">
            <gpxtpx:hr>149</gpxtpx:hr>
          </gpxtpx:TrackPointExtension>
        </extensions>
      </trkpt>
      <trkpt lat="50.5381" lon="2.67264">
        <ele>22.4</ele>
        <time>2021-06-24T16:41:34Z</time>
        <extensions>
          <gpxtpx:TrackPointExtension xmlns:gpxtpx="http://www.garmin.com/xmlschemas/TrackPointExtension/v1">
            <gpxtpx:hr>149</gpxtpx:hr>
          </gpxtpx:TrackPointExtension>
        </extensions>
      </trkpt>
      <trkpt lat="50.53807" lon="2.67273">
        <ele>22.4</ele>
        <time>2021-06-24T16:41:35Z</time>
        <extensions>
          <gpxtpx:TrackPointExtension xmlns:gpxtpx="http://www.garmin.com/xmlschemas/TrackPointExtension/v1">
            <gpxtpx:hr>148</gpxtpx:hr>
          </gpxtpx:TrackPointExtension>
        </extensions>
      </trkpt>
      <trkpt lat="50.53804" lon="2.67282">
        <ele>22.6</ele>
        <time>2021-06-24T16:41:36Z</time>
        <extensions>
          <gpxtpx:TrackPointExtension xmlns:gpxtpx="http://www.garmin.com/xmlschemas/TrackPointExtension/v1">
            <gpxtpx:hr>148</gpxtpx:hr>
          </gpxtpx:TrackPointExtension>
        </extensions>
      </trkpt>
      <trkpt lat="50.53802" lon="2.67292">
        <ele>22.6</ele>
        <time>2021-06-24T16:41:37Z</time>
        <extensions>
          <gpxtpx:TrackPointExtension xmlns:gpxtpx="http://www.garmin.com/xmlschemas/TrackPointExtension/v1">
            <gpxtpx:hr>148</gpxtpx:hr>
          </gpxtpx:TrackPointExtension>
        </extensions>
      </trkpt>
      <trkpt lat="50.53799" lon="2.67301">
        <ele>22.6</ele>
        <time>2021-06-24T16:41:38Z</time>
        <extensions>
          <gpxtpx:TrackPointExtension xmlns:gpxtpx="http://www.garmin.com/xmlschemas/TrackPointExtension/v1">
            <gpxtpx:hr>147</gpxtpx:hr>
          </gpxtpx:TrackPointExtension>
        </extensions>
      </trkpt>
      <trkpt lat="50.53796" lon="2.6731">
        <ele>22.6</ele>
        <time>2021-06-24T16:41:39Z</time>
        <extensions>
          <gpxtpx:TrackPointExtension xmlns:gpxtpx="http://www.garmin.com/xmlschemas/TrackPointExtension/v1">
            <gpxtpx:hr>147</gpxtpx:hr>
          </gpxtpx:TrackPointExtension>
        </extensions>
      </trkpt>
      <trkpt lat="50.53793" lon="2.6732">
        <ele>22.6</ele>
        <time>2021-06-24T16:41:40Z</time>
        <extensions>
          <gpxtpx:TrackPointExtension xmlns:gpxtpx="http://www.garmin.com/xmlschemas/TrackPointExtension/v1">
            <gpxtpx:hr>147</gpxtpx:hr>
          </gpxtpx:TrackPointExtension>
        </extensions>
      </trkpt>
      <trkpt lat="50.5379" lon="2.6733">
        <ele>22.4</ele>
        <time>2021-06-24T16:41:41Z</time>
        <extensions>
          <gpxtpx:TrackPointExtension xmlns:gpxtpx="http://www.garmin.com/xmlschemas/TrackPointExtension/v1">
            <gpxtpx:hr>147</gpxtpx:hr>
          </gpxtpx:TrackPointExtension>
        </extensions>
      </trkpt>
      <trkpt lat="50.53787" lon="2.67339">
        <ele>22.4</ele>
        <time>2021-06-24T16:41:42Z</time>
        <extensions>
          <gpxtpx:TrackPointExtension xmlns:gpxtpx="http://www.garmin.com/xmlschemas/TrackPointExtension/v1">
            <gpxtpx:hr>147</gpxtpx:hr>
          </gpxtpx:TrackPointExtension>
        </extensions>
      </trkpt>
      <trkpt lat="50.53785" lon="2.67349">
        <ele>22.2</ele>
        <time>2021-06-24T16:41:43Z</time>
        <extensions>
          <gpxtpx:TrackPointExtension xmlns:gpxtpx="http://www.garmin.com/xmlschemas/TrackPointExtension/v1">
            <gpxtpx:hr>147</gpxtpx:hr>
          </gpxtpx:TrackPointExtension>
        </extensions>
      </trkpt>
      <trkpt lat="50.53781" lon="2.67358">
        <ele>22.2</ele>
        <time>2021-06-24T16:41:44Z</time>
        <extensions>
          <gpxtpx:TrackPointExtension xmlns:gpxtpx="http://www.garmin.com/xmlschemas/TrackPointExtension/v1">
            <gpxtpx:hr>147</gpxtpx:hr>
          </gpxtpx:TrackPointExtension>
        </extensions>
      </trkpt>
      <trkpt lat="50.53779" lon="2.67368">
        <ele>22.2</ele>
        <time>2021-06-24T16:41:45Z</time>
        <extensions>
          <gpxtpx:TrackPointExtension xmlns:gpxtpx="http://www.garmin.com/xmlschemas/TrackPointExtension/v1">
            <gpxtpx:hr>147</gpxtpx:hr>
          </gpxtpx:TrackPointExtension>
        </extensions>
      </trkpt>
      <trkpt lat="50.53776" lon="2.67378">
        <ele>22.2</ele>
        <time>2021-06-24T16:41:46Z</time>
        <extensions>
          <gpxtpx:TrackPointExtension xmlns:gpxtpx="http://www.garmin.com/xmlschemas/TrackPointExtension/v1">
            <gpxtpx:hr>147</gpxtpx:hr>
          </gpxtpx:TrackPointExtension>
        </extensions>
      </trkpt>
      <trkpt lat="50.53773" lon="2.67388">
        <ele>22.2</ele>
        <time>2021-06-24T16:41:47Z</time>
        <extensions>
          <gpxtpx:TrackPointExtension xmlns:gpxtpx="http://www.garmin.com/xmlschemas/TrackPointExtension/v1">
            <gpxtpx:hr>148</gpxtpx:hr>
          </gpxtpx:TrackPointExtension>
        </extensions>
      </trkpt>
      <trkpt lat="50.53771" lon="2.67398">
        <ele>22.2</ele>
        <time>2021-06-24T16:41:48Z</time>
        <extensions>
          <gpxtpx:TrackPointExtension xmlns:gpxtpx="http://www.garmin.com/xmlschemas/TrackPointExtension/v1">
            <gpxtpx:hr>148</gpxtpx:hr>
          </gpxtpx:TrackPointExtension>
        </extensions>
      </trkpt>
      <trkpt lat="50.53769" lon="2.67408">
        <ele>22.2</ele>
        <time>2021-06-24T16:41:49Z</time>
        <extensions>
          <gpxtpx:TrackPointExtension xmlns:gpxtpx="http://www.garmin.com/xmlschemas/TrackPointExtension/v1">
            <gpxtpx:hr>148</gpxtpx:hr>
          </gpxtpx:TrackPointExtension>
        </extensions>
      </trkpt>
      <trkpt lat="50.53766" lon="2.67418">
        <ele>22.2</ele>
        <time>2021-06-24T16:41:50Z</time>
        <extensions>
          <gpxtpx:TrackPointExtension xmlns:gpxtpx="http://www.garmin.com/xmlschemas/TrackPointExtension/v1">
            <gpxtpx:hr>148</gpxtpx:hr>
          </gpxtpx:TrackPointExtension>
        </extensions>
      </trkpt>
      <trkpt lat="50.53764" lon="2.67428">
        <ele>22.2</ele>
        <time>2021-06-24T16:41:51Z</time>
        <extensions>
          <gpxtpx:TrackPointExtension xmlns:gpxtpx="http://www.garmin.com/xmlschemas/TrackPointExtension/v1">
            <gpxtpx:hr>148</gpxtpx:hr>
          </gpxtpx:TrackPointExtension>
        </extensions>
      </trkpt>
      <trkpt lat="50.53762" lon="2.67438">
        <ele>22.2</ele>
        <time>2021-06-24T16:41:52Z</time>
        <extensions>
          <gpxtpx:TrackPointExtension xmlns:gpxtpx="http://www.garmin.com/xmlschemas/TrackPointExtension/v1">
            <gpxtpx:hr>148</gpxtpx:hr>
          </gpxtpx:TrackPointExtension>
        </extensions>
      </trkpt>
      <trkpt lat="50.5376" lon="2.67447">
        <ele>22.2</ele>
        <time>2021-06-24T16:41:53Z</time>
        <extensions>
          <gpxtpx:TrackPointExtension xmlns:gpxtpx="http://www.garmin.com/xmlschemas/TrackPointExtension/v1">
            <gpxtpx:hr>147</gpxtpx:hr>
          </gpxtpx:TrackPointExtension>
        </extensions>
      </trkpt>
      <trkpt lat="50.53757" lon="2.67457">
        <ele>22.2</ele>
        <time>2021-06-24T16:41:54Z</time>
        <extensions>
          <gpxtpx:TrackPointExtension xmlns:gpxtpx="http://www.garmin.com/xmlschemas/TrackPointExtension/v1">
            <gpxtpx:hr>147</gpxtpx:hr>
          </gpxtpx:TrackPointExtension>
        </extensions>
      </trkpt>
      <trkpt lat="50.53755" lon="2.67467">
        <ele>22.2</ele>
        <time>2021-06-24T16:41:55Z</time>
        <extensions>
          <gpxtpx:TrackPointExtension xmlns:gpxtpx="http://www.garmin.com/xmlschemas/TrackPointExtension/v1">
            <gpxtpx:hr>146</gpxtpx:hr>
          </gpxtpx:TrackPointExtension>
        </extensions>
      </trkpt>
      <trkpt lat="50.53753" lon="2.67477">
        <ele>22.2</ele>
        <time>2021-06-24T16:41:56Z</time>
        <extensions>
          <gpxtpx:TrackPointExtension xmlns:gpxtpx="http://www.garmin.com/xmlschemas/TrackPointExtension/v1">
            <gpxtpx:hr>146</gpxtpx:hr>
          </gpxtpx:TrackPointExtension>
        </extensions>
      </trkpt>
      <trkpt lat="50.53751" lon="2.67487">
        <ele>22.2</ele>
        <time>2021-06-24T16:41:57Z</time>
        <extensions>
          <gpxtpx:TrackPointExtension xmlns:gpxtpx="http://www.garmin.com/xmlschemas/TrackPointExtension/v1">
            <gpxtpx:hr>145</gpxtpx:hr>
          </gpxtpx:TrackPointExtension>
        </extensions>
      </trkpt>
      <trkpt lat="50.53748" lon="2.67497">
        <ele>22</ele>
        <time>2021-06-24T16:41:58Z</time>
        <extensions>
          <gpxtpx:TrackPointExtension xmlns:gpxtpx="http://www.garmin.com/xmlschemas/TrackPointExtension/v1">
            <gpxtpx:hr>145</gpxtpx:hr>
          </gpxtpx:TrackPointExtension>
        </extensions>
      </trkpt>
      <trkpt lat="50.53747" lon="2.67507">
        <ele>22</ele>
        <time>2021-06-24T16:41:59Z</time>
        <extensions>
          <gpxtpx:TrackPointExtension xmlns:gpxtpx="http://www.garmin.com/xmlschemas/TrackPointExtension/v1">
            <gpxtpx:hr>144</gpxtpx:hr>
          </gpxtpx:TrackPointExtension>
        </extensions>
      </trkpt>
      <trkpt lat="50.53745" lon="2.67517">
        <ele>22</ele>
        <time>2021-06-24T16:42:00Z</time>
        <extensions>
          <gpxtpx:TrackPointExtension xmlns:gpxtpx="http://www.garmin.com/xmlschemas/TrackPointExtension/v1">
            <gpxtpx:hr>144</gpxtpx:hr>
          </gpxtpx:TrackPointExtension>
        </extensions>
      </trkpt>
      <trkpt lat="50.53743" lon="2.67526">
        <ele>22</ele>
        <time>2021-06-24T16:42:01Z</time>
        <extensions>
          <gpxtpx:TrackPointExtension xmlns:gpxtpx="http://www.garmin.com/xmlschemas/TrackPointExtension/v1">
            <gpxtpx:hr>144</gpxtpx:hr>
          </gpxtpx:TrackPointExtension>
        </extensions>
      </trkpt>
      <trkpt lat="50.53741" lon="2.67536">
        <ele>22</ele>
        <time>2021-06-24T16:42:02Z</time>
        <extensions>
          <gpxtpx:TrackPointExtension xmlns:gpxtpx="http://www.garmin.com/xmlschemas/TrackPointExtension/v1">
            <gpxtpx:hr>145</gpxtpx:hr>
          </gpxtpx:TrackPointExtension>
        </extensions>
      </trkpt>
      <trkpt lat="50.5374" lon="2.67546">
        <ele>22</ele>
        <time>2021-06-24T16:42:03Z</time>
        <extensions>
          <gpxtpx:TrackPointExtension xmlns:gpxtpx="http://www.garmin.com/xmlschemas/TrackPointExtension/v1">
            <gpxtpx:hr>145</gpxtpx:hr>
          </gpxtpx:TrackPointExtension>
        </extensions>
      </trkpt>
      <trkpt lat="50.53738" lon="2.67557">
        <ele>22</ele>
        <time>2021-06-24T16:42:04Z</time>
        <extensions>
          <gpxtpx:TrackPointExtension xmlns:gpxtpx="http://www.garmin.com/xmlschemas/TrackPointExtension/v1">
            <gpxtpx:hr>145</gpxtpx:hr>
          </gpxtpx:TrackPointExtension>
        </extensions>
      </trkpt>
      <trkpt lat="50.53736" lon="2.67567">
        <ele>22</ele>
        <time>2021-06-24T16:42:05Z</time>
        <extensions>
          <gpxtpx:TrackPointExtension xmlns:gpxtpx="http://www.garmin.com/xmlschemas/TrackPointExtension/v1">
            <gpxtpx:hr>145</gpxtpx:hr>
          </gpxtpx:TrackPointExtension>
        </extensions>
      </trkpt>
      <trkpt lat="50.53735" lon="2.67577">
        <ele>22</ele>
        <time>2021-06-24T16:42:06Z</time>
        <extensions>
          <gpxtpx:TrackPointExtension xmlns:gpxtpx="http://www.garmin.com/xmlschemas/TrackPointExtension/v1">
            <gpxtpx:hr>145</gpxtpx:hr>
          </gpxtpx:TrackPointExtension>
        </extensions>
      </trkpt>
      <trkpt lat="50.53733" lon="2.67587">
        <ele>22</ele>
        <time>2021-06-24T16:42:07Z</time>
        <extensions>
          <gpxtpx:TrackPointExtension xmlns:gpxtpx="http://www.garmin.com/xmlschemas/TrackPointExtension/v1">
            <gpxtpx:hr>146</gpxtpx:hr>
          </gpxtpx:TrackPointExtension>
        </extensions>
      </trkpt>
      <trkpt lat="50.53732" lon="2.67598">
        <ele>21.8</ele>
        <time>2021-06-24T16:42:08Z</time>
        <extensions>
          <gpxtpx:TrackPointExtension xmlns:gpxtpx="http://www.garmin.com/xmlschemas/TrackPointExtension/v1">
            <gpxtpx:hr>146</gpxtpx:hr>
          </gpxtpx:TrackPointExtension>
        </extensions>
      </trkpt>
      <trkpt lat="50.53731" lon="2.67608">
        <ele>21.8</ele>
        <time>2021-06-24T16:42:09Z</time>
        <extensions>
          <gpxtpx:TrackPointExtension xmlns:gpxtpx="http://www.garmin.com/xmlschemas/TrackPointExtension/v1">
            <gpxtpx:hr>146</gpxtpx:hr>
          </gpxtpx:TrackPointExtension>
        </extensions>
      </trkpt>
      <trkpt lat="50.53729" lon="2.67618">
        <ele>21.8</ele>
        <time>2021-06-24T16:42:10Z</time>
        <extensions>
          <gpxtpx:TrackPointExtension xmlns:gpxtpx="http://www.garmin.com/xmlschemas/TrackPointExtension/v1">
            <gpxtpx:hr>146</gpxtpx:hr>
          </gpxtpx:TrackPointExtension>
        </extensions>
      </trkpt>
      <trkpt lat="50.53728" lon="2.67629">
        <ele>21.8</ele>
        <time>2021-06-24T16:42:11Z</time>
        <extensions>
          <gpxtpx:TrackPointExtension xmlns:gpxtpx="http://www.garmin.com/xmlschemas/TrackPointExtension/v1">
            <gpxtpx:hr>146</gpxtpx:hr>
          </gpxtpx:TrackPointExtension>
        </extensions>
      </trkpt>
      <trkpt lat="50.53727" lon="2.67639">
        <ele>21.8</ele>
        <time>2021-06-24T16:42:12Z</time>
        <extensions>
          <gpxtpx:TrackPointExtension xmlns:gpxtpx="http://www.garmin.com/xmlschemas/TrackPointExtension/v1">
            <gpxtpx:hr>147</gpxtpx:hr>
          </gpxtpx:TrackPointExtension>
        </extensions>
      </trkpt>
      <trkpt lat="50.53725" lon="2.67649">
        <ele>21.6</ele>
        <time>2021-06-24T16:42:13Z</time>
        <extensions>
          <gpxtpx:TrackPointExtension xmlns:gpxtpx="http://www.garmin.com/xmlschemas/TrackPointExtension/v1">
            <gpxtpx:hr>147</gpxtpx:hr>
          </gpxtpx:TrackPointExtension>
        </extensions>
      </trkpt>
      <trkpt lat="50.53725" lon="2.67659">
        <ele>21.6</ele>
        <time>2021-06-24T16:42:14Z</time>
        <extensions>
          <gpxtpx:TrackPointExtension xmlns:gpxtpx="http://www.garmin.com/xmlschemas/TrackPointExtension/v1">
            <gpxtpx:hr>147</gpxtpx:hr>
          </gpxtpx:TrackPointExtension>
        </extensions>
      </trkpt>
      <trkpt lat="50.53724" lon="2.67669">
        <ele>21.6</ele>
        <time>2021-06-24T16:42:15Z</time>
        <extensions>
          <gpxtpx:TrackPointExtension xmlns:gpxtpx="http://www.garmin.com/xmlschemas/TrackPointExtension/v1">
            <gpxtpx:hr>147</gpxtpx:hr>
          </gpxtpx:TrackPointExtension>
        </extensions>
      </trkpt>
      <trkpt lat="50.53722" lon="2.6768">
        <ele>21.4</ele>
        <time>2021-06-24T16:42:16Z</time>
        <extensions>
          <gpxtpx:TrackPointExtension xmlns:gpxtpx="http://www.garmin.com/xmlschemas/TrackPointExtension/v1">
            <gpxtpx:hr>147</gpxtpx:hr>
          </gpxtpx:TrackPointExtension>
        </extensions>
      </trkpt>
      <trkpt lat="50.53721" lon="2.6769">
        <ele>21.4</ele>
        <time>2021-06-24T16:42:17Z</time>
        <extensions>
          <gpxtpx:TrackPointExtension xmlns:gpxtpx="http://www.garmin.com/xmlschemas/TrackPointExtension/v1">
            <gpxtpx:hr>146</gpxtpx:hr>
          </gpxtpx:TrackPointExtension>
        </extensions>
      </trkpt>
      <trkpt lat="50.5372" lon="2.677">
        <ele>21.4</ele>
        <time>2021-06-24T16:42:18Z</time>
        <extensions>
          <gpxtpx:TrackPointExtension xmlns:gpxtpx="http://www.garmin.com/xmlschemas/TrackPointExtension/v1">
            <gpxtpx:hr>146</gpxtpx:hr>
          </gpxtpx:TrackPointExtension>
        </extensions>
      </trkpt>
      <trkpt lat="50.53719" lon="2.67711">
        <ele>21.4</ele>
        <time>2021-06-24T16:42:19Z</time>
        <extensions>
          <gpxtpx:TrackPointExtension xmlns:gpxtpx="http://www.garmin.com/xmlschemas/TrackPointExtension/v1">
            <gpxtpx:hr>146</gpxtpx:hr>
          </gpxtpx:TrackPointExtension>
        </extensions>
      </trkpt>
      <trkpt lat="50.53718" lon="2.67721">
        <ele>21.4</ele>
        <time>2021-06-24T16:42:20Z</time>
        <extensions>
          <gpxtpx:TrackPointExtension xmlns:gpxtpx="http://www.garmin.com/xmlschemas/TrackPointExtension/v1">
            <gpxtpx:hr>146</gpxtpx:hr>
          </gpxtpx:TrackPointExtension>
        </extensions>
      </trkpt>
      <trkpt lat="50.53717" lon="2.67731">
        <ele>21.2</ele>
        <time>2021-06-24T16:42:21Z</time>
        <extensions>
          <gpxtpx:TrackPointExtension xmlns:gpxtpx="http://www.garmin.com/xmlschemas/TrackPointExtension/v1">
            <gpxtpx:hr>146</gpxtpx:hr>
          </gpxtpx:TrackPointExtension>
        </extensions>
      </trkpt>
      <trkpt lat="50.53716" lon="2.67741">
        <ele>21.2</ele>
        <time>2021-06-24T16:42:22Z</time>
        <extensions>
          <gpxtpx:TrackPointExtension xmlns:gpxtpx="http://www.garmin.com/xmlschemas/TrackPointExtension/v1">
            <gpxtpx:hr>146</gpxtpx:hr>
          </gpxtpx:TrackPointExtension>
        </extensions>
      </trkpt>
      <trkpt lat="50.53715" lon="2.67751">
        <ele>21.2</ele>
        <time>2021-06-24T16:42:23Z</time>
        <extensions>
          <gpxtpx:TrackPointExtension xmlns:gpxtpx="http://www.garmin.com/xmlschemas/TrackPointExtension/v1">
            <gpxtpx:hr>146</gpxtpx:hr>
          </gpxtpx:TrackPointExtension>
        </extensions>
      </trkpt>
      <trkpt lat="50.53714" lon="2.67761">
        <ele>21.2</ele>
        <time>2021-06-24T16:42:24Z</time>
        <extensions>
          <gpxtpx:TrackPointExtension xmlns:gpxtpx="http://www.garmin.com/xmlschemas/TrackPointExtension/v1">
            <gpxtpx:hr>146</gpxtpx:hr>
          </gpxtpx:TrackPointExtension>
        </extensions>
      </trkpt>
      <trkpt lat="50.53714" lon="2.67771">
        <ele>21.2</ele>
        <time>2021-06-24T16:42:25Z</time>
        <extensions>
          <gpxtpx:TrackPointExtension xmlns:gpxtpx="http://www.garmin.com/xmlschemas/TrackPointExtension/v1">
            <gpxtpx:hr>146</gpxtpx:hr>
          </gpxtpx:TrackPointExtension>
        </extensions>
      </trkpt>
      <trkpt lat="50.53714" lon="2.67781">
        <ele>21.2</ele>
        <time>2021-06-24T16:42:26Z</time>
        <extensions>
          <gpxtpx:TrackPointExtension xmlns:gpxtpx="http://www.garmin.com/xmlschemas/TrackPointExtension/v1">
            <gpxtpx:hr>146</gpxtpx:hr>
          </gpxtpx:TrackPointExtension>
        </extensions>
      </trkpt>
      <trkpt lat="50.53715" lon="2.67791">
        <ele>21.2</ele>
        <time>2021-06-24T16:42:27Z</time>
        <extensions>
          <gpxtpx:TrackPointExtension xmlns:gpxtpx="http://www.garmin.com/xmlschemas/TrackPointExtension/v1">
            <gpxtpx:hr>146</gpxtpx:hr>
          </gpxtpx:TrackPointExtension>
        </extensions>
      </trkpt>
      <trkpt lat="50.53717" lon="2.67802">
        <ele>21</ele>
        <time>2021-06-24T16:42:28Z</time>
        <extensions>
          <gpxtpx:TrackPointExtension xmlns:gpxtpx="http://www.garmin.com/xmlschemas/TrackPointExtension/v1">
            <gpxtpx:hr>146</gpxtpx:hr>
          </gpxtpx:TrackPointExtension>
        </extensions>
      </trkpt>
      <trkpt lat="50.53719" lon="2.67811">
        <ele>21</ele>
        <time>2021-06-24T16:42:29Z</time>
        <extensions>
          <gpxtpx:TrackPointExtension xmlns:gpxtpx="http://www.garmin.com/xmlschemas/TrackPointExtension/v1">
            <gpxtpx:hr>146</gpxtpx:hr>
          </gpxtpx:TrackPointExtension>
        </extensions>
      </trkpt>
      <trkpt lat="50.53722" lon="2.6782">
        <ele>21</ele>
        <time>2021-06-24T16:42:30Z</time>
        <extensions>
          <gpxtpx:TrackPointExtension xmlns:gpxtpx="http://www.garmin.com/xmlschemas/TrackPointExtension/v1">
            <gpxtpx:hr>147</gpxtpx:hr>
          </gpxtpx:TrackPointExtension>
        </extensions>
      </trkpt>
      <trkpt lat="50.53725" lon="2.67829">
        <ele>21</ele>
        <time>2021-06-24T16:42:31Z</time>
        <extensions>
          <gpxtpx:TrackPointExtension xmlns:gpxtpx="http://www.garmin.com/xmlschemas/TrackPointExtension/v1">
            <gpxtpx:hr>147</gpxtpx:hr>
          </gpxtpx:TrackPointExtension>
        </extensions>
      </trkpt>
      <trkpt lat="50.53728" lon="2.67837">
        <ele>21.2</ele>
        <time>2021-06-24T16:42:32Z</time>
        <extensions>
          <gpxtpx:TrackPointExtension xmlns:gpxtpx="http://www.garmin.com/xmlschemas/TrackPointExtension/v1">
            <gpxtpx:hr>147</gpxtpx:hr>
          </gpxtpx:TrackPointExtension>
        </extensions>
      </trkpt>
      <trkpt lat="50.53732" lon="2.67854">
        <ele>21</ele>
        <time>2021-06-24T16:42:34Z</time>
        <extensions>
          <gpxtpx:TrackPointExtension xmlns:gpxtpx="http://www.garmin.com/xmlschemas/TrackPointExtension/v1">
            <gpxtpx:hr>147</gpxtpx:hr>
          </gpxtpx:TrackPointExtension>
        </extensions>
      </trkpt>
      <trkpt lat="50.53733" lon="2.67862">
        <ele>21</ele>
        <time>2021-06-24T16:42:35Z</time>
        <extensions>
          <gpxtpx:TrackPointExtension xmlns:gpxtpx="http://www.garmin.com/xmlschemas/TrackPointExtension/v1">
            <gpxtpx:hr>148</gpxtpx:hr>
          </gpxtpx:TrackPointExtension>
        </extensions>
      </trkpt>
      <trkpt lat="50.53734" lon="2.67871">
        <ele>21</ele>
        <time>2021-06-24T16:42:36Z</time>
        <extensions>
          <gpxtpx:TrackPointExtension xmlns:gpxtpx="http://www.garmin.com/xmlschemas/TrackPointExtension/v1">
            <gpxtpx:hr>147</gpxtpx:hr>
          </gpxtpx:TrackPointExtension>
        </extensions>
      </trkpt>
      <trkpt lat="50.53735" lon="2.6788">
        <ele>21</ele>
        <time>2021-06-24T16:42:37Z</time>
        <extensions>
          <gpxtpx:TrackPointExtension xmlns:gpxtpx="http://www.garmin.com/xmlschemas/TrackPointExtension/v1">
            <gpxtpx:hr>147</gpxtpx:hr>
          </gpxtpx:TrackPointExtension>
        </extensions>
      </trkpt>
      <trkpt lat="50.53734" lon="2.6789">
        <ele>20.8</ele>
        <time>2021-06-24T16:42:38Z</time>
        <extensions>
          <gpxtpx:TrackPointExtension xmlns:gpxtpx="http://www.garmin.com/xmlschemas/TrackPointExtension/v1">
            <gpxtpx:hr>147</gpxtpx:hr>
          </gpxtpx:TrackPointExtension>
        </extensions>
      </trkpt>
      <trkpt lat="50.53733" lon="2.679">
        <ele>20.8</ele>
        <time>2021-06-24T16:42:39Z</time>
        <extensions>
          <gpxtpx:TrackPointExtension xmlns:gpxtpx="http://www.garmin.com/xmlschemas/TrackPointExtension/v1">
            <gpxtpx:hr>147</gpxtpx:hr>
          </gpxtpx:TrackPointExtension>
        </extensions>
      </trkpt>
      <trkpt lat="50.53732" lon="2.67909">
        <ele>20.8</ele>
        <time>2021-06-24T16:42:40Z</time>
        <extensions>
          <gpxtpx:TrackPointExtension xmlns:gpxtpx="http://www.garmin.com/xmlschemas/TrackPointExtension/v1">
            <gpxtpx:hr>147</gpxtpx:hr>
          </gpxtpx:TrackPointExtension>
        </extensions>
      </trkpt>
      <trkpt lat="50.5373" lon="2.67919">
        <ele>20.8</ele>
        <time>2021-06-24T16:42:41Z</time>
        <extensions>
          <gpxtpx:TrackPointExtension xmlns:gpxtpx="http://www.garmin.com/xmlschemas/TrackPointExtension/v1">
            <gpxtpx:hr>146</gpxtpx:hr>
          </gpxtpx:TrackPointExtension>
        </extensions>
      </trkpt>
      <trkpt lat="50.53727" lon="2.67929">
        <ele>21</ele>
        <time>2021-06-24T16:42:42Z</time>
        <extensions>
          <gpxtpx:TrackPointExtension xmlns:gpxtpx="http://www.garmin.com/xmlschemas/TrackPointExtension/v1">
            <gpxtpx:hr>146</gpxtpx:hr>
          </gpxtpx:TrackPointExtension>
        </extensions>
      </trkpt>
      <trkpt lat="50.53724" lon="2.67938">
        <ele>21</ele>
        <time>2021-06-24T16:42:43Z</time>
        <extensions>
          <gpxtpx:TrackPointExtension xmlns:gpxtpx="http://www.garmin.com/xmlschemas/TrackPointExtension/v1">
            <gpxtpx:hr>146</gpxtpx:hr>
          </gpxtpx:TrackPointExtension>
        </extensions>
      </trkpt>
      <trkpt lat="50.5372" lon="2.67947">
        <ele>21</ele>
        <time>2021-06-24T16:42:44Z</time>
        <extensions>
          <gpxtpx:TrackPointExtension xmlns:gpxtpx="http://www.garmin.com/xmlschemas/TrackPointExtension/v1">
            <gpxtpx:hr>145</gpxtpx:hr>
          </gpxtpx:TrackPointExtension>
        </extensions>
      </trkpt>
      <trkpt lat="50.53717" lon="2.67956">
        <ele>21</ele>
        <time>2021-06-24T16:42:45Z</time>
        <extensions>
          <gpxtpx:TrackPointExtension xmlns:gpxtpx="http://www.garmin.com/xmlschemas/TrackPointExtension/v1">
            <gpxtpx:hr>145</gpxtpx:hr>
          </gpxtpx:TrackPointExtension>
        </extensions>
      </trkpt>
      <trkpt lat="50.53714" lon="2.67965">
        <ele>21</ele>
        <time>2021-06-24T16:42:46Z</time>
        <extensions>
          <gpxtpx:TrackPointExtension xmlns:gpxtpx="http://www.garmin.com/xmlschemas/TrackPointExtension/v1">
            <gpxtpx:hr>145</gpxtpx:hr>
          </gpxtpx:TrackPointExtension>
        </extensions>
      </trkpt>
      <trkpt lat="50.53711" lon="2.67974">
        <ele>21</ele>
        <time>2021-06-24T16:42:47Z</time>
        <extensions>
          <gpxtpx:TrackPointExtension xmlns:gpxtpx="http://www.garmin.com/xmlschemas/TrackPointExtension/v1">
            <gpxtpx:hr>145</gpxtpx:hr>
          </gpxtpx:TrackPointExtension>
        </extensions>
      </trkpt>
      <trkpt lat="50.53709" lon="2.67983">
        <ele>21.2</ele>
        <time>2021-06-24T16:42:48Z</time>
        <extensions>
          <gpxtpx:TrackPointExtension xmlns:gpxtpx="http://www.garmin.com/xmlschemas/TrackPointExtension/v1">
            <gpxtpx:hr>145</gpxtpx:hr>
          </gpxtpx:TrackPointExtension>
        </extensions>
      </trkpt>
      <trkpt lat="50.53708" lon="2.67993">
        <ele>21.2</ele>
        <time>2021-06-24T16:42:49Z</time>
        <extensions>
          <gpxtpx:TrackPointExtension xmlns:gpxtpx="http://www.garmin.com/xmlschemas/TrackPointExtension/v1">
            <gpxtpx:hr>145</gpxtpx:hr>
          </gpxtpx:TrackPointExtension>
        </extensions>
      </trkpt>
      <trkpt lat="50.53707" lon="2.68002">
        <ele>21.2</ele>
        <time>2021-06-24T16:42:50Z</time>
        <extensions>
          <gpxtpx:TrackPointExtension xmlns:gpxtpx="http://www.garmin.com/xmlschemas/TrackPointExtension/v1">
            <gpxtpx:hr>145</gpxtpx:hr>
          </gpxtpx:TrackPointExtension>
        </extensions>
      </trkpt>
      <trkpt lat="50.53708" lon="2.68012">
        <ele>21.2</ele>
        <time>2021-06-24T16:42:51Z</time>
        <extensions>
          <gpxtpx:TrackPointExtension xmlns:gpxtpx="http://www.garmin.com/xmlschemas/TrackPointExtension/v1">
            <gpxtpx:hr>145</gpxtpx:hr>
          </gpxtpx:TrackPointExtension>
        </extensions>
      </trkpt>
      <trkpt lat="50.53708" lon="2.68023">
        <ele>21.2</ele>
        <time>2021-06-24T16:42:52Z</time>
        <extensions>
          <gpxtpx:TrackPointExtension xmlns:gpxtpx="http://www.garmin.com/xmlschemas/TrackPointExtension/v1">
            <gpxtpx:hr>145</gpxtpx:hr>
          </gpxtpx:TrackPointExtension>
        </extensions>
      </trkpt>
      <trkpt lat="50.53708" lon="2.68033">
        <ele>21.2</ele>
        <time>2021-06-24T16:42:53Z</time>
        <extensions>
          <gpxtpx:TrackPointExtension xmlns:gpxtpx="http://www.garmin.com/xmlschemas/TrackPointExtension/v1">
            <gpxtpx:hr>145</gpxtpx:hr>
          </gpxtpx:TrackPointExtension>
        </extensions>
      </trkpt>
      <trkpt lat="50.53709" lon="2.68044">
        <ele>21.2</ele>
        <time>2021-06-24T16:42:54Z</time>
        <extensions>
          <gpxtpx:TrackPointExtension xmlns:gpxtpx="http://www.garmin.com/xmlschemas/TrackPointExtension/v1">
            <gpxtpx:hr>145</gpxtpx:hr>
          </gpxtpx:TrackPointExtension>
        </extensions>
      </trkpt>
      <trkpt lat="50.53709" lon="2.68054">
        <ele>21.2</ele>
        <time>2021-06-24T16:42:55Z</time>
        <extensions>
          <gpxtpx:TrackPointExtension xmlns:gpxtpx="http://www.garmin.com/xmlschemas/TrackPointExtension/v1">
            <gpxtpx:hr>145</gpxtpx:hr>
          </gpxtpx:TrackPointExtension>
        </extensions>
      </trkpt>
      <trkpt lat="50.53709" lon="2.68065">
        <ele>21.2</ele>
        <time>2021-06-24T16:42:56Z</time>
        <extensions>
          <gpxtpx:TrackPointExtension xmlns:gpxtpx="http://www.garmin.com/xmlschemas/TrackPointExtension/v1">
            <gpxtpx:hr>145</gpxtpx:hr>
          </gpxtpx:TrackPointExtension>
        </extensions>
      </trkpt>
      <trkpt lat="50.5371" lon="2.68076">
        <ele>21.2</ele>
        <time>2021-06-24T16:42:57Z</time>
        <extensions>
          <gpxtpx:TrackPointExtension xmlns:gpxtpx="http://www.garmin.com/xmlschemas/TrackPointExtension/v1">
            <gpxtpx:hr>145</gpxtpx:hr>
          </gpxtpx:TrackPointExtension>
        </extensions>
      </trkpt>
      <trkpt lat="50.5371" lon="2.68087">
        <ele>21.2</ele>
        <time>2021-06-24T16:42:58Z</time>
        <extensions>
          <gpxtpx:TrackPointExtension xmlns:gpxtpx="http://www.garmin.com/xmlschemas/TrackPointExtension/v1">
            <gpxtpx:hr>145</gpxtpx:hr>
          </gpxtpx:TrackPointExtension>
        </extensions>
      </trkpt>
      <trkpt lat="50.5371" lon="2.68097">
        <ele>21.2</ele>
        <time>2021-06-24T16:42:59Z</time>
        <extensions>
          <gpxtpx:TrackPointExtension xmlns:gpxtpx="http://www.garmin.com/xmlschemas/TrackPointExtension/v1">
            <gpxtpx:hr>145</gpxtpx:hr>
          </gpxtpx:TrackPointExtension>
        </extensions>
      </trkpt>
      <trkpt lat="50.53711" lon="2.68107">
        <ele>21.2</ele>
        <time>2021-06-24T16:43:00Z</time>
        <extensions>
          <gpxtpx:TrackPointExtension xmlns:gpxtpx="http://www.garmin.com/xmlschemas/TrackPointExtension/v1">
            <gpxtpx:hr>145</gpxtpx:hr>
          </gpxtpx:TrackPointExtension>
        </extensions>
      </trkpt>
      <trkpt lat="50.53712" lon="2.68118">
        <ele>21</ele>
        <time>2021-06-24T16:43:01Z</time>
        <extensions>
          <gpxtpx:TrackPointExtension xmlns:gpxtpx="http://www.garmin.com/xmlschemas/TrackPointExtension/v1">
            <gpxtpx:hr>146</gpxtpx:hr>
          </gpxtpx:TrackPointExtension>
        </extensions>
      </trkpt>
      <trkpt lat="50.53712" lon="2.68128">
        <ele>21</ele>
        <time>2021-06-24T16:43:02Z</time>
        <extensions>
          <gpxtpx:TrackPointExtension xmlns:gpxtpx="http://www.garmin.com/xmlschemas/TrackPointExtension/v1">
            <gpxtpx:hr>146</gpxtpx:hr>
          </gpxtpx:TrackPointExtension>
        </extensions>
      </trkpt>
      <trkpt lat="50.53713" lon="2.68138">
        <ele>21</ele>
        <time>2021-06-24T16:43:03Z</time>
        <extensions>
          <gpxtpx:TrackPointExtension xmlns:gpxtpx="http://www.garmin.com/xmlschemas/TrackPointExtension/v1">
            <gpxtpx:hr>146</gpxtpx:hr>
          </gpxtpx:TrackPointExtension>
        </extensions>
      </trkpt>
      <trkpt lat="50.53714" lon="2.68148">
        <ele>20.8</ele>
        <time>2021-06-24T16:43:04Z</time>
        <extensions>
          <gpxtpx:TrackPointExtension xmlns:gpxtpx="http://www.garmin.com/xmlschemas/TrackPointExtension/v1">
            <gpxtpx:hr>146</gpxtpx:hr>
          </gpxtpx:TrackPointExtension>
        </extensions>
      </trkpt>
      <trkpt lat="50.53714" lon="2.68158">
        <ele>20.8</ele>
        <time>2021-06-24T16:43:05Z</time>
        <extensions>
          <gpxtpx:TrackPointExtension xmlns:gpxtpx="http://www.garmin.com/xmlschemas/TrackPointExtension/v1">
            <gpxtpx:hr>146</gpxtpx:hr>
          </gpxtpx:TrackPointExtension>
        </extensions>
      </trkpt>
      <trkpt lat="50.53714" lon="2.68168">
        <ele>20.6</ele>
        <time>2021-06-24T16:43:06Z</time>
        <extensions>
          <gpxtpx:TrackPointExtension xmlns:gpxtpx="http://www.garmin.com/xmlschemas/TrackPointExtension/v1">
            <gpxtpx:hr>146</gpxtpx:hr>
          </gpxtpx:TrackPointExtension>
        </extensions>
      </trkpt>
      <trkpt lat="50.53715" lon="2.68179">
        <ele>20.6</ele>
        <time>2021-06-24T16:43:07Z</time>
        <extensions>
          <gpxtpx:TrackPointExtension xmlns:gpxtpx="http://www.garmin.com/xmlschemas/TrackPointExtension/v1">
            <gpxtpx:hr>146</gpxtpx:hr>
          </gpxtpx:TrackPointExtension>
        </extensions>
      </trkpt>
      <trkpt lat="50.53716" lon="2.68189">
        <ele>20.6</ele>
        <time>2021-06-24T16:43:08Z</time>
        <extensions>
          <gpxtpx:TrackPointExtension xmlns:gpxtpx="http://www.garmin.com/xmlschemas/TrackPointExtension/v1">
            <gpxtpx:hr>146</gpxtpx:hr>
          </gpxtpx:TrackPointExtension>
        </extensions>
      </trkpt>
      <trkpt lat="50.53716" lon="2.68199">
        <ele>20.4</ele>
        <time>2021-06-24T16:43:09Z</time>
        <extensions>
          <gpxtpx:TrackPointExtension xmlns:gpxtpx="http://www.garmin.com/xmlschemas/TrackPointExtension/v1">
            <gpxtpx:hr>146</gpxtpx:hr>
          </gpxtpx:TrackPointExtension>
        </extensions>
      </trkpt>
      <trkpt lat="50.53717" lon="2.6821">
        <ele>20.4</ele>
        <time>2021-06-24T16:43:10Z</time>
        <extensions>
          <gpxtpx:TrackPointExtension xmlns:gpxtpx="http://www.garmin.com/xmlschemas/TrackPointExtension/v1">
            <gpxtpx:hr>147</gpxtpx:hr>
          </gpxtpx:TrackPointExtension>
        </extensions>
      </trkpt>
      <trkpt lat="50.53717" lon="2.68221">
        <ele>20.4</ele>
        <time>2021-06-24T16:43:11Z</time>
        <extensions>
          <gpxtpx:TrackPointExtension xmlns:gpxtpx="http://www.garmin.com/xmlschemas/TrackPointExtension/v1">
            <gpxtpx:hr>147</gpxtpx:hr>
          </gpxtpx:TrackPointExtension>
        </extensions>
      </trkpt>
      <trkpt lat="50.53718" lon="2.68231">
        <ele>20.4</ele>
        <time>2021-06-24T16:43:12Z</time>
        <extensions>
          <gpxtpx:TrackPointExtension xmlns:gpxtpx="http://www.garmin.com/xmlschemas/TrackPointExtension/v1">
            <gpxtpx:hr>147</gpxtpx:hr>
          </gpxtpx:TrackPointExtension>
        </extensions>
      </trkpt>
      <trkpt lat="50.53718" lon="2.68242">
        <ele>20.2</ele>
        <time>2021-06-24T16:43:13Z</time>
        <extensions>
          <gpxtpx:TrackPointExtension xmlns:gpxtpx="http://www.garmin.com/xmlschemas/TrackPointExtension/v1">
            <gpxtpx:hr>147</gpxtpx:hr>
          </gpxtpx:TrackPointExtension>
        </extensions>
      </trkpt>
      <trkpt lat="50.53719" lon="2.68252">
        <ele>20.2</ele>
        <time>2021-06-24T16:43:14Z</time>
        <extensions>
          <gpxtpx:TrackPointExtension xmlns:gpxtpx="http://www.garmin.com/xmlschemas/TrackPointExtension/v1">
            <gpxtpx:hr>147</gpxtpx:hr>
          </gpxtpx:TrackPointExtension>
        </extensions>
      </trkpt>
      <trkpt lat="50.53719" lon="2.68262">
        <ele>20.2</ele>
        <time>2021-06-24T16:43:15Z</time>
        <extensions>
          <gpxtpx:TrackPointExtension xmlns:gpxtpx="http://www.garmin.com/xmlschemas/TrackPointExtension/v1">
            <gpxtpx:hr>147</gpxtpx:hr>
          </gpxtpx:TrackPointExtension>
        </extensions>
      </trkpt>
      <trkpt lat="50.5372" lon="2.68273">
        <ele>20.2</ele>
        <time>2021-06-24T16:43:16Z</time>
        <extensions>
          <gpxtpx:TrackPointExtension xmlns:gpxtpx="http://www.garmin.com/xmlschemas/TrackPointExtension/v1">
            <gpxtpx:hr>146</gpxtpx:hr>
          </gpxtpx:TrackPointExtension>
        </extensions>
      </trkpt>
      <trkpt lat="50.53721" lon="2.68284">
        <ele>20</ele>
        <time>2021-06-24T16:43:17Z</time>
        <extensions>
          <gpxtpx:TrackPointExtension xmlns:gpxtpx="http://www.garmin.com/xmlschemas/TrackPointExtension/v1">
            <gpxtpx:hr>146</gpxtpx:hr>
          </gpxtpx:TrackPointExtension>
        </extensions>
      </trkpt>
      <trkpt lat="50.53722" lon="2.68295">
        <ele>20</ele>
        <time>2021-06-24T16:43:18Z</time>
        <extensions>
          <gpxtpx:TrackPointExtension xmlns:gpxtpx="http://www.garmin.com/xmlschemas/TrackPointExtension/v1">
            <gpxtpx:hr>146</gpxtpx:hr>
          </gpxtpx:TrackPointExtension>
        </extensions>
      </trkpt>
      <trkpt lat="50.53723" lon="2.68305">
        <ele>20</ele>
        <time>2021-06-24T16:43:19Z</time>
        <extensions>
          <gpxtpx:TrackPointExtension xmlns:gpxtpx="http://www.garmin.com/xmlschemas/TrackPointExtension/v1">
            <gpxtpx:hr>145</gpxtpx:hr>
          </gpxtpx:TrackPointExtension>
        </extensions>
      </trkpt>
      <trkpt lat="50.53723" lon="2.68316">
        <ele>19.8</ele>
        <time>2021-06-24T16:43:20Z</time>
        <extensions>
          <gpxtpx:TrackPointExtension xmlns:gpxtpx="http://www.garmin.com/xmlschemas/TrackPointExtension/v1">
            <gpxtpx:hr>145</gpxtpx:hr>
          </gpxtpx:TrackPointExtension>
        </extensions>
      </trkpt>
      <trkpt lat="50.53724" lon="2.68327">
        <ele>19.8</ele>
        <time>2021-06-24T16:43:21Z</time>
        <extensions>
          <gpxtpx:TrackPointExtension xmlns:gpxtpx="http://www.garmin.com/xmlschemas/TrackPointExtension/v1">
            <gpxtpx:hr>146</gpxtpx:hr>
          </gpxtpx:TrackPointExtension>
        </extensions>
      </trkpt>
      <trkpt lat="50.53725" lon="2.68337">
        <ele>19.8</ele>
        <time>2021-06-24T16:43:22Z</time>
        <extensions>
          <gpxtpx:TrackPointExtension xmlns:gpxtpx="http://www.garmin.com/xmlschemas/TrackPointExtension/v1">
            <gpxtpx:hr>146</gpxtpx:hr>
          </gpxtpx:TrackPointExtension>
        </extensions>
      </trkpt>
      <trkpt lat="50.53725" lon="2.68348">
        <ele>19.8</ele>
        <time>2021-06-24T16:43:23Z</time>
        <extensions>
          <gpxtpx:TrackPointExtension xmlns:gpxtpx="http://www.garmin.com/xmlschemas/TrackPointExtension/v1">
            <gpxtpx:hr>146</gpxtpx:hr>
          </gpxtpx:TrackPointExtension>
        </extensions>
      </trkpt>
      <trkpt lat="50.53725" lon="2.68358">
        <ele>19.8</ele>
        <time>2021-06-24T16:43:24Z</time>
        <extensions>
          <gpxtpx:TrackPointExtension xmlns:gpxtpx="http://www.garmin.com/xmlschemas/TrackPointExtension/v1">
            <gpxtpx:hr>146</gpxtpx:hr>
          </gpxtpx:TrackPointExtension>
        </extensions>
      </trkpt>
      <trkpt lat="50.53726" lon="2.68368">
        <ele>19.8</ele>
        <time>2021-06-24T16:43:25Z</time>
        <extensions>
          <gpxtpx:TrackPointExtension xmlns:gpxtpx="http://www.garmin.com/xmlschemas/TrackPointExtension/v1">
            <gpxtpx:hr>147</gpxtpx:hr>
          </gpxtpx:TrackPointExtension>
        </extensions>
      </trkpt>
      <trkpt lat="50.53726" lon="2.68379">
        <ele>19.8</ele>
        <time>2021-06-24T16:43:26Z</time>
        <extensions>
          <gpxtpx:TrackPointExtension xmlns:gpxtpx="http://www.garmin.com/xmlschemas/TrackPointExtension/v1">
            <gpxtpx:hr>147</gpxtpx:hr>
          </gpxtpx:TrackPointExtension>
        </extensions>
      </trkpt>
      <trkpt lat="50.53727" lon="2.68389">
        <ele>19.8</ele>
        <time>2021-06-24T16:43:27Z</time>
        <extensions>
          <gpxtpx:TrackPointExtension xmlns:gpxtpx="http://www.garmin.com/xmlschemas/TrackPointExtension/v1">
            <gpxtpx:hr>147</gpxtpx:hr>
          </gpxtpx:TrackPointExtension>
        </extensions>
      </trkpt>
      <trkpt lat="50.53728" lon="2.68399">
        <ele>19.8</ele>
        <time>2021-06-24T16:43:28Z</time>
        <extensions>
          <gpxtpx:TrackPointExtension xmlns:gpxtpx="http://www.garmin.com/xmlschemas/TrackPointExtension/v1">
            <gpxtpx:hr>147</gpxtpx:hr>
          </gpxtpx:TrackPointExtension>
        </extensions>
      </trkpt>
      <trkpt lat="50.53729" lon="2.6841">
        <ele>20</ele>
        <time>2021-06-24T16:43:29Z</time>
        <extensions>
          <gpxtpx:TrackPointExtension xmlns:gpxtpx="http://www.garmin.com/xmlschemas/TrackPointExtension/v1">
            <gpxtpx:hr>147</gpxtpx:hr>
          </gpxtpx:TrackPointExtension>
        </extensions>
      </trkpt>
      <trkpt lat="50.53729" lon="2.6842">
        <ele>20</ele>
        <time>2021-06-24T16:43:30Z</time>
        <extensions>
          <gpxtpx:TrackPointExtension xmlns:gpxtpx="http://www.garmin.com/xmlschemas/TrackPointExtension/v1">
            <gpxtpx:hr>147</gpxtpx:hr>
          </gpxtpx:TrackPointExtension>
        </extensions>
      </trkpt>
      <trkpt lat="50.5373" lon="2.6843">
        <ele>20.2</ele>
        <time>2021-06-24T16:43:31Z</time>
        <extensions>
          <gpxtpx:TrackPointExtension xmlns:gpxtpx="http://www.garmin.com/xmlschemas/TrackPointExtension/v1">
            <gpxtpx:hr>147</gpxtpx:hr>
          </gpxtpx:TrackPointExtension>
        </extensions>
      </trkpt>
      <trkpt lat="50.5373" lon="2.68441">
        <ele>20.2</ele>
        <time>2021-06-24T16:43:32Z</time>
        <extensions>
          <gpxtpx:TrackPointExtension xmlns:gpxtpx="http://www.garmin.com/xmlschemas/TrackPointExtension/v1">
            <gpxtpx:hr>146</gpxtpx:hr>
          </gpxtpx:TrackPointExtension>
        </extensions>
      </trkpt>
      <trkpt lat="50.5373" lon="2.68451">
        <ele>20.4</ele>
        <time>2021-06-24T16:43:33Z</time>
        <extensions>
          <gpxtpx:TrackPointExtension xmlns:gpxtpx="http://www.garmin.com/xmlschemas/TrackPointExtension/v1">
            <gpxtpx:hr>146</gpxtpx:hr>
          </gpxtpx:TrackPointExtension>
        </extensions>
      </trkpt>
      <trkpt lat="50.5373" lon="2.68462">
        <ele>20.4</ele>
        <time>2021-06-24T16:43:34Z</time>
        <extensions>
          <gpxtpx:TrackPointExtension xmlns:gpxtpx="http://www.garmin.com/xmlschemas/TrackPointExtension/v1">
            <gpxtpx:hr>146</gpxtpx:hr>
          </gpxtpx:TrackPointExtension>
        </extensions>
      </trkpt>
      <trkpt lat="50.53731" lon="2.68472">
        <ele>20.4</ele>
        <time>2021-06-24T16:43:35Z</time>
        <extensions>
          <gpxtpx:TrackPointExtension xmlns:gpxtpx="http://www.garmin.com/xmlschemas/TrackPointExtension/v1">
            <gpxtpx:hr>146</gpxtpx:hr>
          </gpxtpx:TrackPointExtension>
        </extensions>
      </trkpt>
      <trkpt lat="50.53731" lon="2.68482">
        <ele>20.4</ele>
        <time>2021-06-24T16:43:36Z</time>
        <extensions>
          <gpxtpx:TrackPointExtension xmlns:gpxtpx="http://www.garmin.com/xmlschemas/TrackPointExtension/v1">
            <gpxtpx:hr>146</gpxtpx:hr>
          </gpxtpx:TrackPointExtension>
        </extensions>
      </trkpt>
      <trkpt lat="50.53732" lon="2.68492">
        <ele>20.6</ele>
        <time>2021-06-24T16:43:37Z</time>
        <extensions>
          <gpxtpx:TrackPointExtension xmlns:gpxtpx="http://www.garmin.com/xmlschemas/TrackPointExtension/v1">
            <gpxtpx:hr>146</gpxtpx:hr>
          </gpxtpx:TrackPointExtension>
        </extensions>
      </trkpt>
      <trkpt lat="50.53732" lon="2.68502">
        <ele>20.6</ele>
        <time>2021-06-24T16:43:38Z</time>
        <extensions>
          <gpxtpx:TrackPointExtension xmlns:gpxtpx="http://www.garmin.com/xmlschemas/TrackPointExtension/v1">
            <gpxtpx:hr>146</gpxtpx:hr>
          </gpxtpx:TrackPointExtension>
        </extensions>
      </trkpt>
      <trkpt lat="50.53732" lon="2.68511">
        <ele>20.6</ele>
        <time>2021-06-24T16:43:39Z</time>
        <extensions>
          <gpxtpx:TrackPointExtension xmlns:gpxtpx="http://www.garmin.com/xmlschemas/TrackPointExtension/v1">
            <gpxtpx:hr>146</gpxtpx:hr>
          </gpxtpx:TrackPointExtension>
        </extensions>
      </trkpt>
      <trkpt lat="50.53732" lon="2.68521">
        <ele>20.6</ele>
        <time>2021-06-24T16:43:40Z</time>
        <extensions>
          <gpxtpx:TrackPointExtension xmlns:gpxtpx="http://www.garmin.com/xmlschemas/TrackPointExtension/v1">
            <gpxtpx:hr>147</gpxtpx:hr>
          </gpxtpx:TrackPointExtension>
        </extensions>
      </trkpt>
      <trkpt lat="50.53732" lon="2.68531">
        <ele>20.6</ele>
        <time>2021-06-24T16:43:41Z</time>
        <extensions>
          <gpxtpx:TrackPointExtension xmlns:gpxtpx="http://www.garmin.com/xmlschemas/TrackPointExtension/v1">
            <gpxtpx:hr>146</gpxtpx:hr>
          </gpxtpx:TrackPointExtension>
        </extensions>
      </trkpt>
      <trkpt lat="50.53732" lon="2.6854">
        <ele>20.6</ele>
        <time>2021-06-24T16:43:42Z</time>
        <extensions>
          <gpxtpx:TrackPointExtension xmlns:gpxtpx="http://www.garmin.com/xmlschemas/TrackPointExtension/v1">
            <gpxtpx:hr>146</gpxtpx:hr>
          </gpxtpx:TrackPointExtension>
        </extensions>
      </trkpt>
      <trkpt lat="50.53732" lon="2.6855">
        <ele>20.4</ele>
        <time>2021-06-24T16:43:43Z</time>
        <extensions>
          <gpxtpx:TrackPointExtension xmlns:gpxtpx="http://www.garmin.com/xmlschemas/TrackPointExtension/v1">
            <gpxtpx:hr>146</gpxtpx:hr>
          </gpxtpx:TrackPointExtension>
        </extensions>
      </trkpt>
      <trkpt lat="50.53731" lon="2.68559">
        <ele>20.4</ele>
        <time>2021-06-24T16:43:44Z</time>
        <extensions>
          <gpxtpx:TrackPointExtension xmlns:gpxtpx="http://www.garmin.com/xmlschemas/TrackPointExtension/v1">
            <gpxtpx:hr>146</gpxtpx:hr>
          </gpxtpx:TrackPointExtension>
        </extensions>
      </trkpt>
      <trkpt lat="50.53731" lon="2.68568">
        <ele>20.4</ele>
        <time>2021-06-24T16:43:45Z</time>
        <extensions>
          <gpxtpx:TrackPointExtension xmlns:gpxtpx="http://www.garmin.com/xmlschemas/TrackPointExtension/v1">
            <gpxtpx:hr>145</gpxtpx:hr>
          </gpxtpx:TrackPointExtension>
        </extensions>
      </trkpt>
      <trkpt lat="50.53731" lon="2.68578">
        <ele>20.4</ele>
        <time>2021-06-24T16:43:46Z</time>
        <extensions>
          <gpxtpx:TrackPointExtension xmlns:gpxtpx="http://www.garmin.com/xmlschemas/TrackPointExtension/v1">
            <gpxtpx:hr>145</gpxtpx:hr>
          </gpxtpx:TrackPointExtension>
        </extensions>
      </trkpt>
      <trkpt lat="50.53731" lon="2.68588">
        <ele>20.4</ele>
        <time>2021-06-24T16:43:47Z</time>
        <extensions>
          <gpxtpx:TrackPointExtension xmlns:gpxtpx="http://www.garmin.com/xmlschemas/TrackPointExtension/v1">
            <gpxtpx:hr>145</gpxtpx:hr>
          </gpxtpx:TrackPointExtension>
        </extensions>
      </trkpt>
      <trkpt lat="50.53732" lon="2.68598">
        <ele>20.6</ele>
        <time>2021-06-24T16:43:48Z</time>
        <extensions>
          <gpxtpx:TrackPointExtension xmlns:gpxtpx="http://www.garmin.com/xmlschemas/TrackPointExtension/v1">
            <gpxtpx:hr>145</gpxtpx:hr>
          </gpxtpx:TrackPointExtension>
        </extensions>
      </trkpt>
      <trkpt lat="50.53732" lon="2.68609">
        <ele>20.6</ele>
        <time>2021-06-24T16:43:49Z</time>
        <extensions>
          <gpxtpx:TrackPointExtension xmlns:gpxtpx="http://www.garmin.com/xmlschemas/TrackPointExtension/v1">
            <gpxtpx:hr>145</gpxtpx:hr>
          </gpxtpx:TrackPointExtension>
        </extensions>
      </trkpt>
      <trkpt lat="50.53732" lon="2.68619">
        <ele>20.6</ele>
        <time>2021-06-24T16:43:50Z</time>
        <extensions>
          <gpxtpx:TrackPointExtension xmlns:gpxtpx="http://www.garmin.com/xmlschemas/TrackPointExtension/v1">
            <gpxtpx:hr>145</gpxtpx:hr>
          </gpxtpx:TrackPointExtension>
        </extensions>
      </trkpt>
      <trkpt lat="50.53732" lon="2.68629">
        <ele>20.6</ele>
        <time>2021-06-24T16:43:51Z</time>
        <extensions>
          <gpxtpx:TrackPointExtension xmlns:gpxtpx="http://www.garmin.com/xmlschemas/TrackPointExtension/v1">
            <gpxtpx:hr>145</gpxtpx:hr>
          </gpxtpx:TrackPointExtension>
        </extensions>
      </trkpt>
      <trkpt lat="50.53732" lon="2.68638">
        <ele>20.6</ele>
        <time>2021-06-24T16:43:52Z</time>
        <extensions>
          <gpxtpx:TrackPointExtension xmlns:gpxtpx="http://www.garmin.com/xmlschemas/TrackPointExtension/v1">
            <gpxtpx:hr>144</gpxtpx:hr>
          </gpxtpx:TrackPointExtension>
        </extensions>
      </trkpt>
      <trkpt lat="50.53732" lon="2.68648">
        <ele>20.4</ele>
        <time>2021-06-24T16:43:53Z</time>
        <extensions>
          <gpxtpx:TrackPointExtension xmlns:gpxtpx="http://www.garmin.com/xmlschemas/TrackPointExtension/v1">
            <gpxtpx:hr>144</gpxtpx:hr>
          </gpxtpx:TrackPointExtension>
        </extensions>
      </trkpt>
      <trkpt lat="50.53721" lon="2.68744">
        <ele>21.7</ele>
      </trkpt>
      <trkpt lat="50.53718" lon="2.68757">
        <ele>21.5</ele>
      </trkpt>
      <trkpt lat="50.53712" lon="2.68772">
        <ele>21.3</ele>
      </trkpt>
      <trkpt lat="50.5371" lon="2.68798">
        <ele>20.9</ele>
      </trkpt>
      <trkpt lat="50.53713" lon="2.68833">
        <ele>20.6</ele>
      </trkpt>
      <trkpt lat="50.5371" lon="2.68857">
        <ele>20.5</ele>
      </trkpt>
      <trkpt lat="50.5369" lon="2.68975">
        <ele>20.3</ele>
      </trkpt>
      <trkpt lat="50.53668" lon="2.69075">
        <ele>19.1</ele>
      </trkpt>
      <trkpt lat="50.53661" lon="2.69101">
        <ele>18.9</ele>
      </trkpt>
      <trkpt lat="50.53651" lon="2.69129">
        <ele>18.7</ele>
      </trkpt>
      <trkpt lat="50.53651" lon="2.69132">
        <ele>18.7</ele>
      </trkpt>
      <trkpt lat="50.53648" lon="2.69137">
        <ele>18.7</ele>
      </trkpt>
      <trkpt lat="50.53646" lon="2.69135">
        <ele>18.8</ele>
      </trkpt>
      <trkpt lat="50.5365" lon="2.69122">
        <ele>18.8</ele>
      </trkpt>
      <trkpt lat="50.53653" lon="2.69113">
        <ele>18.9</ele>
      </trkpt>
      <trkpt lat="50.5365" lon="2.69111">
        <ele>18.9</ele>
      </trkpt>
      <trkpt lat="50.53653" lon="2.69113">
        <ele>18.9</ele>
      </trkpt>
      <trkpt lat="50.5365" lon="2.69122">
        <ele>18.8</ele>
      </trkpt>
      <trkpt lat="50.53646" lon="2.69135">
        <ele>18.8</ele>
      </trkpt>
      <trkpt lat="50.53648" lon="2.69137">
        <ele>18.7</ele>
      </trkpt>
      <trkpt lat="50.53651" lon="2.69132">
        <ele>18.7</ele>
      </trkpt>
      <trkpt lat="50.53651" lon="2.69129">
        <ele>18.7</ele>
      </trkpt>
      <trkpt lat="50.53661" lon="2.69101">
        <ele>18.9</ele>
      </trkpt>
      <trkpt lat="50.53668" lon="2.69075">
        <ele>19.1</ele>
      </trkpt>
      <trkpt lat="50.53651" lon="2.69106">
        <ele>19</ele>
      </trkpt>
      <trkpt lat="50.53646" lon="2.69117">
        <ele>18.9</ele>
      </trkpt>
      <trkpt lat="50.53633" lon="2.69169">
        <ele>18.8</ele>
      </trkpt>
      <trkpt lat="50.53625" lon="2.69225">
        <ele>18.6</ele>
      </trkpt>
      <trkpt lat="50.53557" lon="2.69482">
        <ele>18.2</ele>
      </trkpt>
      <trkpt lat="50.53543" lon="2.69526">
        <ele>18.6</ele>
      </trkpt>
      <trkpt lat="50.53508" lon="2.69661">
        <ele>19.1</ele>
      </trkpt>
      <trkpt lat="50.53504" lon="2.69677">
        <ele>19</ele>
      </trkpt>
      <trkpt lat="50.53503" lon="2.69704">
        <ele>19</ele>
      </trkpt>
      <trkpt lat="50.53501" lon="2.69717">
        <ele>19</ele>
      </trkpt>
      <trkpt lat="50.53451" lon="2.69902">
        <ele>19</ele>
      </trkpt>
      <trkpt lat="50.53437" lon="2.69934">
        <ele>18.8</ele>
      </trkpt>
      <trkpt lat="50.53425" lon="2.69979">
        <ele>18.3</ele>
      </trkpt>
      <trkpt lat="50.53291" lon="2.70481">
        <ele>18.2</ele>
      </trkpt>
      <trkpt lat="50.533" lon="2.70494">
        <ele>17.9</ele>
      </trkpt>
      <trkpt lat="50.53262" lon="2.70631">
        <ele>18.1</ele>
      </trkpt>
      <trkpt lat="50.53233" lon="2.7074">
        <ele>19.8</ele>
      </trkpt>
      <trkpt lat="50.53233" lon="2.70742">
        <ele>19.8</ele>
      </trkpt>
      <trkpt lat="50.5327" lon="2.7083">
        <ele>21.7</ele>
      </trkpt>
      <trkpt lat="50.53289" lon="2.70879">
        <ele>23.4</ele>
      </trkpt>
      <trkpt lat="50.53338" lon="2.70966">
        <ele>27.5</ele>
      </trkpt>
      <trkpt lat="50.53346" lon="2.70976">
        <ele>28.1</ele>
      </trkpt>
      <trkpt lat="50.53399" lon="2.71052">
        <ele>29.9</ele>
      </trkpt>
      <trkpt lat="50.53408" lon="2.71075">
        <ele>30</ele>
      </trkpt>
      <trkpt lat="50.53408" lon="2.71088">
        <ele>30</ele>
      </trkpt>
      <trkpt lat="50.53396" lon="2.71128">
        <ele>29.7</ele>
      </trkpt>
      <trkpt lat="50.53353" lon="2.71244">
        <ele>30.7</ele>
      </trkpt>
      <trkpt lat="50.53334" lon="2.71292">
        <ele>31.5</ele>
      </trkpt>
      <trkpt lat="50.53267" lon="2.715">
        <ele>27</ele>
      </trkpt>
      <trkpt lat="50.53253" lon="2.71546">
        <ele>26.2</ele>
      </trkpt>
      <trkpt lat="50.53251" lon="2.71573">
        <ele>26</ele>
      </trkpt>
      <trkpt lat="50.53252" lon="2.716">
        <ele>25.9</ele>
      </trkpt>
      <trkpt lat="50.53254" lon="2.71623">
        <ele>25.7</ele>
      </trkpt>
      <trkpt lat="50.53258" lon="2.7163">
        <ele>25.8</ele>
      </trkpt>
      <trkpt lat="50.53254" lon="2.71623">
        <ele>25.7</ele>
      </trkpt>
      <trkpt lat="50.53237" lon="2.71646">
        <ele>24.9</ele>
      </trkpt>
      <trkpt lat="50.53201" lon="2.71673">
        <ele>23.8</ele>
      </trkpt>
      <trkpt lat="50.53197" lon="2.71684">
        <ele>23.7</ele>
      </trkpt>
      <trkpt lat="50.532" lon="2.71702">
        <ele>23.8</ele>
      </trkpt>
      <trkpt lat="50.53215" lon="2.7174">
        <ele>24.2</ele>
      </trkpt>
      <trkpt lat="50.53222" lon="2.71775">
        <ele>24.4</ele>
      </trkpt>
      <trkpt lat="50.53233" lon="2.71818">
        <ele>25.1</ele>
      </trkpt>
      <trkpt lat="50.53244" lon="2.71832">
        <ele>25.7</ele>
      </trkpt>
      <trkpt lat="50.53255" lon="2.71838">
        <ele>26.1</ele>
      </trkpt>
      <trkpt lat="50.53268" lon="2.72104">
        <ele>28.5</ele>
      </trkpt>
      <trkpt lat="50.53269" lon="2.72129">
        <ele>27.6</ele>
      </trkpt>
      <trkpt lat="50.53151" lon="2.72114">
        <ele>28.1</ele>
      </trkpt>
      <trkpt lat="50.53202" lon="2.72485">
        <ele>25.8</ele>
      </trkpt>
      <trkpt lat="50.53185" lon="2.72496">
        <ele>26.1</ele>
      </trkpt>
      <trkpt lat="50.53149" lon="2.7252">
        <ele>26.2</ele>
      </trkpt>
      <trkpt lat="50.5289" lon="2.72692">
        <ele>23.6</ele>
      </trkpt>
      <trkpt lat="50.52801" lon="2.72724">
        <ele>21</ele>
      </trkpt>
      <trkpt lat="50.52805" lon="2.72742">
        <ele>21</ele>
      </trkpt>
      <trkpt lat="50.5283" lon="2.72858">
        <ele>22.5</ele>
      </trkpt>
      <trkpt lat="50.52864" lon="2.73014">
        <ele>21.4</ele>
      </trkpt>
      <trkpt lat="50.52858" lon="2.73012">
        <ele>21.1</ele>
      </trkpt>
      <trkpt lat="50.52852" lon="2.73013">
        <ele>20.9</ele>
      </trkpt>
      <trkpt lat="50.52851" lon="2.73014">
        <ele>20.8</ele>
      </trkpt>
      <trkpt lat="50.52852" lon="2.73013">
        <ele>20.9</ele>
      </trkpt>
      <trkpt lat="50.52858" lon="2.73012">
        <ele>21.1</ele>
      </trkpt>
      <trkpt lat="50.52864" lon="2.73014">
        <ele>21.4</ele>
      </trkpt>
      <trkpt lat="50.52868" lon="2.73018">
        <ele>21.6</ele>
      </trkpt>
      <trkpt lat="50.52925" lon="2.73128">
        <ele>22.2</ele>
      </trkpt>
      <trkpt lat="50.52956" lon="2.73173">
        <ele>22.7</ele>
      </trkpt>
      <trkpt lat="50.52973" lon="2.73192">
        <ele>23</ele>
      </trkpt>
      <trkpt lat="50.53004" lon="2.73218">
        <ele>23</ele>
      </trkpt>
      <trkpt lat="50.53055" lon="2.73257">
        <ele>20.5</ele>
      </trkpt>
      <trkpt lat="50.53073" lon="2.733">
        <ele>19.5</ele>
      </trkpt>
      <trkpt lat="50.53067" lon="2.73412">
        <ele>19</ele>
      </trkpt>
      <trkpt lat="50.53039" lon="2.73483">
        <ele>18.6</ele>
      </trkpt>
      <trkpt lat="50.53" lon="2.73601">
        <ele>17.8</ele>
      </trkpt>
      <trkpt lat="50.52971" lon="2.73652">
        <ele>17.5</ele>
      </trkpt>
      <trkpt lat="50.52967" lon="2.73659">
        <ele>17.5</ele>
      </trkpt>
      <trkpt lat="50.52943" lon="2.73691">
        <ele>17.8</ele>
      </trkpt>
      <trkpt lat="50.52917" lon="2.73733">
        <ele>18</ele>
      </trkpt>
      <trkpt lat="50.529" lon="2.73769">
        <ele>18.4</ele>
      </trkpt>
      <trkpt lat="50.52889" lon="2.73779">
        <ele>18.7</ele>
      </trkpt>
      <trkpt lat="50.52853" lon="2.73784">
        <ele>19.2</ele>
      </trkpt>
      <trkpt lat="50.52842" lon="2.73784">
        <ele>19.3</ele>
      </trkpt>
      <trkpt lat="50.52834" lon="2.73815">
        <ele>19.8</ele>
      </trkpt>
      <trkpt lat="50.52837" lon="2.73878">
        <ele>20</ele>
      </trkpt>
      <trkpt lat="50.52843" lon="2.73978">
        <ele>19.9</ele>
      </trkpt>
      <trkpt lat="50.52844" lon="2.74001">
        <ele>19.9</ele>
      </trkpt>
      <trkpt lat="50.52845" lon="2.74022">
        <ele>19.9</ele>
      </trkpt>
      <trkpt lat="50.52913" lon="2.74339">
        <ele>22</ele>
      </trkpt>
      <trkpt lat="50.52918" lon="2.7437">
        <ele>22</ele>
      </trkpt>
      <trkpt lat="50.52917" lon="2.74379">
        <ele>22</ele>
      </trkpt>
      <trkpt lat="50.52914" lon="2.74391">
        <ele>22</ele>
      </trkpt>
      <trkpt lat="50.529" lon="2.74403">
        <ele>22</ele>
      </trkpt>
      <trkpt lat="50.52883" lon="2.74423">
        <ele>22</ele>
      </trkpt>
      <trkpt lat="50.52876" lon="2.74437">
        <ele>22.1</ele>
      </trkpt>
      <trkpt lat="50.52873" lon="2.74443">
        <ele>22.2</ele>
      </trkpt>
      <trkpt lat="50.52873" lon="2.74465">
        <ele>22.3</ele>
      </trkpt>
      <trkpt lat="50.52873" lon="2.74466">
        <ele>22.3</ele>
      </trkpt>
      <trkpt lat="50.52873" lon="2.74465">
        <ele>22.3</ele>
      </trkpt>
      <trkpt lat="50.52873" lon="2.74443">
        <ele>22.2</ele>
      </trkpt>
      <trkpt lat="50.52859" lon="2.74446">
        <ele>22.1</ele>
      </trkpt>
      <trkpt lat="50.52848" lon="2.74449">
        <ele>22.1</ele>
      </trkpt>
      <trkpt lat="50.52772" lon="2.74476">
        <ele>21.3</ele>
      </trkpt>
      <trkpt lat="50.52751" lon="2.74483">
        <ele>21</ele>
      </trkpt>
      <trkpt lat="50.52697" lon="2.74503">
        <ele>21</ele>
      </trkpt>
      <trkpt lat="50.52617" lon="2.74532">
        <ele>20.4</ele>
      </trkpt>
      <trkpt lat="50.52562" lon="2.74564">
        <ele>20</ele>
      </trkpt>
      <trkpt lat="50.5255" lon="2.74572">
        <ele>20</ele>
      </trkpt>
      <trkpt lat="50.52545" lon="2.74575">
        <ele>20</ele>
      </trkpt>
      <trkpt lat="50.52461" lon="2.74628">
        <ele>20.3</ele>
      </trkpt>
      <trkpt lat="50.52388" lon="2.74674">
        <ele>21.3</ele>
      </trkpt>
      <trkpt lat="50.52374" lon="2.74686">
        <ele>21.5</ele>
      </trkpt>
      <trkpt lat="50.52358" lon="2.74698">
        <ele>21.7</ele>
      </trkpt>
      <trkpt lat="50.52352" lon="2.74702">
        <ele>21.8</ele>
      </trkpt>
      <trkpt lat="50.52328" lon="2.74719">
        <ele>21.9</ele>
      </trkpt>
      <trkpt lat="50.52319" lon="2.74724">
        <ele>21.8</ele>
      </trkpt>
      <trkpt lat="50.52301" lon="2.74735">
        <ele>21.6</ele>
      </trkpt>
      <trkpt lat="50.52296" lon="2.74739">
        <ele>21.6</ele>
      </trkpt>
      <trkpt lat="50.52237" lon="2.74765">
        <ele>21</ele>
      </trkpt>
      <trkpt lat="50.52214" lon="2.74772">
        <ele>21.2</ele>
      </trkpt>
      <trkpt lat="50.52207" lon="2.74774">
        <ele>21.2</ele>
      </trkpt>
      <trkpt lat="50.52199" lon="2.74776">
        <ele>21.3</ele>
      </trkpt>
      <trkpt lat="50.52191" lon="2.74779">
        <ele>21.4</ele>
      </trkpt>
      <trkpt lat="50.5218" lon="2.74779">
        <ele>21.5</ele>
      </trkpt>
      <trkpt lat="50.52173" lon="2.74782">
        <ele>21.5</ele>
      </trkpt>
      <trkpt lat="50.5218" lon="2.74779">
        <ele>21.5</ele>
      </trkpt>
      <trkpt lat="50.52181" lon="2.74773">
        <ele>21.6</ele>
      </trkpt>
      <trkpt lat="50.52181" lon="2.74765">
        <ele>21.6</ele>
      </trkpt>
      <trkpt lat="50.52182" lon="2.74749">
        <ele>21.8</ele>
      </trkpt>
      <trkpt lat="50.52187" lon="2.74645">
        <ele>22</ele>
      </trkpt>
      <trkpt lat="50.52189" lon="2.74603">
        <ele>22.3</ele>
      </trkpt>
      <trkpt lat="50.52191" lon="2.7457">
        <ele>22.4</ele>
      </trkpt>
      <trkpt lat="50.52188" lon="2.74537">
        <ele>22.5</ele>
      </trkpt>
      <trkpt lat="50.52184" lon="2.74517">
        <ele>22.6</ele>
      </trkpt>
      <trkpt lat="50.5218" lon="2.74503">
        <ele>22.7</ele>
      </trkpt>
      <trkpt lat="50.5218" lon="2.74502">
        <ele>22.7</ele>
      </trkpt>
      <trkpt lat="50.52175" lon="2.74483">
        <ele>22.6</ele>
      </trkpt>
      <trkpt lat="50.52152" lon="2.74487">
        <ele>22.5</ele>
      </trkpt>
      <trkpt lat="50.52128" lon="2.74493">
        <ele>22</ele>
      </trkpt>
      <trkpt lat="50.52071" lon="2.74507">
        <ele>20.7</ele>
      </trkpt>
      <trkpt lat="50.51843" lon="2.74557">
        <ele>19.1</ele>
      </trkpt>
      <trkpt lat="50.51821" lon="2.74559">
        <ele>19.1</ele>
      </trkpt>
      <trkpt lat="50.51764" lon="2.74558">
        <ele>19.8</ele>
      </trkpt>
      <trkpt lat="50.51647" lon="2.74542">
        <ele>20</ele>
      </trkpt>
      <trkpt lat="50.51607" lon="2.74538">
        <ele>20</ele>
      </trkpt>
      <trkpt lat="50.51593" lon="2.74534">
        <ele>20</ele>
      </trkpt>
      <trkpt lat="50.51581" lon="2.74534">
        <ele>20</ele>
      </trkpt>
      <trkpt lat="50.51587" lon="2.74515">
        <ele>20</ele>
      </trkpt>
      <trkpt lat="50.51592" lon="2.74493">
        <ele>20</ele>
      </trkpt>
      <trkpt lat="50.51593" lon="2.7448">
        <ele>20</ele>
      </trkpt>
      <trkpt lat="50.51589" lon="2.74464">
        <ele>20</ele>
      </trkpt>
      <trkpt lat="50.51557" lon="2.74361">
        <ele>20.6</ele>
      </trkpt>
      <trkpt lat="50.51554" lon="2.74349">
        <ele>20.7</ele>
      </trkpt>
      <trkpt lat="50.51555" lon="2.74342">
        <ele>20.7</ele>
      </trkpt>
      <trkpt lat="50.51555" lon="2.74339">
        <ele>20.7</ele>
      </trkpt>
      <trkpt lat="50.51554" lon="2.74335">
        <ele>20.7</ele>
      </trkpt>
      <trkpt lat="50.51554" lon="2.74332">
        <ele>20.7</ele>
      </trkpt>
      <trkpt lat="50.5156" lon="2.74326">
        <ele>20.6</ele>
      </trkpt>
      <trkpt lat="50.51561" lon="2.74322">
        <ele>20.7</ele>
      </trkpt>
      <trkpt lat="50.5156" lon="2.74282">
        <ele>21.2</ele>
      </trkpt>
      <trkpt lat="50.51558" lon="2.74251">
        <ele>21.6</ele>
      </trkpt>
      <trkpt lat="50.51558" lon="2.74243">
        <ele>21.7</ele>
      </trkpt>
      <trkpt lat="50.51543" lon="2.74263">
        <ele>21.8</ele>
      </trkpt>
      <trkpt lat="50.51529" lon="2.74279">
        <ele>22</ele>
      </trkpt>
      <trkpt lat="50.51529" lon="2.74279">
        <ele>22</ele>
      </trkpt>
      <trkpt lat="50.51543" lon="2.74263">
        <ele>21.8</ele>
      </trkpt>
      <trkpt lat="50.51558" lon="2.74243">
        <ele>21.7</ele>
      </trkpt>
      <trkpt lat="50.51565" lon="2.74232">
        <ele>21.7</ele>
      </trkpt>
      <trkpt lat="50.51583" lon="2.74201">
        <ele>21.6</ele>
      </trkpt>
      <trkpt lat="50.51589" lon="2.74188">
        <ele>21.7</ele>
      </trkpt>
      <trkpt lat="50.51625" lon="2.74055">
        <ele>22</ele>
      </trkpt>
      <trkpt lat="50.51635" lon="2.74029">
        <ele>22</ele>
      </trkpt>
      <trkpt lat="50.5165" lon="2.74003">
        <ele>22</ele>
      </trkpt>
      <trkpt lat="50.5166" lon="2.7398">
        <ele>22.3</ele>
      </trkpt>
      <trkpt lat="50.51684" lon="2.73861">
        <ele>22.4</ele>
      </trkpt>
      <trkpt lat="50.51686" lon="2.7385">
        <ele>22.3</ele>
      </trkpt>
      <trkpt lat="50.51686" lon="2.73841">
        <ele>22.3</ele>
      </trkpt>
      <trkpt lat="50.51686" lon="2.73829">
        <ele>22.3</ele>
      </trkpt>
      <trkpt lat="50.51681" lon="2.73769">
        <ele>21.8</ele>
      </trkpt>
      <trkpt lat="50.51666" lon="2.73702">
        <ele>21.4</ele>
      </trkpt>
      <trkpt lat="50.51649" lon="2.73592">
        <ele>21.9</ele>
      </trkpt>
      <trkpt lat="50.51639" lon="2.73497">
        <ele>21.9</ele>
      </trkpt>
      <trkpt lat="50.51629" lon="2.73441">
        <ele>20.9</ele>
      </trkpt>
      <trkpt lat="50.51614" lon="2.73336">
        <ele>20.3</ele>
      </trkpt>
      <trkpt lat="50.51588" lon="2.73215">
        <ele>19.5</ele>
      </trkpt>
      <trkpt lat="50.51581" lon="2.73191">
        <ele>19.3</ele>
      </trkpt>
      <trkpt lat="50.51565" lon="2.73159">
        <ele>19.6</ele>
      </trkpt>
      <trkpt lat="50.51542" lon="2.73133">
        <ele>20.2</ele>
      </trkpt>
      <trkpt lat="50.51519" lon="2.73119">
        <ele>20.4</ele>
      </trkpt>
      <trkpt lat="50.51497" lon="2.73114">
        <ele>20.4</ele>
      </trkpt>
      <trkpt lat="50.51476" lon="2.73113">
        <ele>20.4</ele>
      </trkpt>
      <trkpt lat="50.51466" lon="2.73086">
        <ele>20</ele>
      </trkpt>
      <trkpt lat="50.51443" lon="2.73013">
        <ele>19.4</ele>
      </trkpt>
      <trkpt lat="50.51415" lon="2.72937">
        <ele>19</ele>
      </trkpt>
      <trkpt lat="50.51407" lon="2.72922">
        <ele>19.2</ele>
      </trkpt>
      <trkpt lat="50.514" lon="2.72912">
        <ele>19.4</ele>
      </trkpt>
      <trkpt lat="50.51403" lon="2.72896">
        <ele>19.4</ele>
      </trkpt>
      <trkpt lat="50.51415" lon="2.72786">
        <ele>19.6</ele>
      </trkpt>
      <trkpt lat="50.51415" lon="2.72702">
        <ele>20</ele>
      </trkpt>
      <trkpt lat="50.51416" lon="2.72653">
        <ele>20.3</ele>
      </trkpt>
      <trkpt lat="50.51386" lon="2.72651">
        <ele>20.6</ele>
      </trkpt>
      <trkpt lat="50.51335" lon="2.72634">
        <ele>21</ele>
      </trkpt>
      <trkpt lat="50.51279" lon="2.72597">
        <ele>21.5</ele>
      </trkpt>
      <trkpt lat="50.51271" lon="2.72595">
        <ele>21.6</ele>
      </trkpt>
      <trkpt lat="50.51269" lon="2.72562">
        <ele>21.8</ele>
      </trkpt>
      <trkpt lat="50.51268" lon="2.72519">
        <ele>21.8</ele>
      </trkpt>
      <trkpt lat="50.51243" lon="2.72508">
        <ele>21.9</ele>
      </trkpt>
      <trkpt lat="50.51247" lon="2.72492">
        <ele>22.1</ele>
      </trkpt>
      <trkpt lat="50.51264" lon="2.72382">
        <ele>22.8</ele>
      </trkpt>
      <trkpt lat="50.51279" lon="2.72317">
        <ele>22.5</ele>
      </trkpt>
      <trkpt lat="50.51204" lon="2.72288">
        <ele>22.5</ele>
      </trkpt>
      <trkpt lat="50.51181" lon="2.72213">
        <ele>22.8</ele>
      </trkpt>
      <trkpt lat="50.51166" lon="2.72161">
        <ele>22.9</ele>
      </trkpt>
      <trkpt lat="50.5111" lon="2.72016">
        <ele>22</ele>
      </trkpt>
      <trkpt lat="50.51045" lon="2.71881">
        <ele>23</ele>
      </trkpt>
      <trkpt lat="50.50993" lon="2.71753">
        <ele>24</ele>
      </trkpt>
      <trkpt lat="50.50988" lon="2.71749">
        <ele>23.8</ele>
      </trkpt>
      <trkpt lat="50.50995" lon="2.71709">
        <ele>23.4</ele>
      </trkpt>
      <trkpt lat="50.50991" lon="2.71694">
        <ele>23.2</ele>
      </trkpt>
      <trkpt lat="50.50986" lon="2.71688">
        <ele>23.1</ele>
      </trkpt>
      <trkpt lat="50.50969" lon="2.71678">
        <ele>22.8</ele>
      </trkpt>
      <trkpt lat="50.50959" lon="2.71667">
        <ele>22.5</ele>
      </trkpt>
      <trkpt lat="50.50966" lon="2.71657">
        <ele>22.8</ele>
      </trkpt>
      <trkpt lat="50.50977" lon="2.71645">
        <ele>23.1</ele>
      </trkpt>
      <trkpt lat="50.50973" lon="2.71637">
        <ele>23.1</ele>
      </trkpt>
      <trkpt lat="50.50965" lon="2.71638">
        <ele>23.1</ele>
      </trkpt>
      <trkpt lat="50.5095" lon="2.71651">
        <ele>22.7</ele>
      </trkpt>
      <trkpt lat="50.50705" lon="2.70847">
        <ele>25</ele>
      </trkpt>
      <trkpt lat="50.50543" lon="2.70253">
        <ele>24.5</ele>
      </trkpt>
      <trkpt lat="50.50524" lon="2.70198">
        <ele>24.7</ele>
      </trkpt>
      <trkpt lat="50.50511" lon="2.70166">
        <ele>24.9</ele>
      </trkpt>
      <trkpt lat="50.50493" lon="2.70136">
        <ele>24.6</ele>
      </trkpt>
      <trkpt lat="50.50417" lon="2.69994">
        <ele>23.1</ele>
      </trkpt>
      <trkpt lat="50.50394" lon="2.69948">
        <ele>23.6</ele>
      </trkpt>
      <trkpt lat="50.50383" lon="2.69926">
        <ele>23.9</ele>
      </trkpt>
      <trkpt lat="50.50375" lon="2.6991">
        <ele>24</ele>
      </trkpt>
      <trkpt lat="50.50354" lon="2.69866">
        <ele>24.2</ele>
      </trkpt>
      <trkpt lat="50.5033" lon="2.69817">
        <ele>24</ele>
      </trkpt>
      <trkpt lat="50.50314" lon="2.69786">
        <ele>24.1</ele>
      </trkpt>
      <trkpt lat="50.50312" lon="2.69781">
        <ele>24.1</ele>
      </trkpt>
      <trkpt lat="50.50307" lon="2.69771">
        <ele>24.1</ele>
      </trkpt>
      <trkpt lat="50.50283" lon="2.69716">
        <ele>24</ele>
      </trkpt>
      <trkpt lat="50.50274" lon="2.6969">
        <ele>24</ele>
      </trkpt>
      <trkpt lat="50.50272" lon="2.69674">
        <ele>24</ele>
      </trkpt>
      <trkpt lat="50.5027" lon="2.69555">
        <ele>23</ele>
      </trkpt>
      <trkpt lat="50.50238" lon="2.69415">
        <ele>24.3</ele>
      </trkpt>
      <trkpt lat="50.50235" lon="2.69406">
        <ele>24.4</ele>
      </trkpt>
      <trkpt lat="50.50245" lon="2.6939">
        <ele>24.1</ele>
      </trkpt>
      <trkpt lat="50.5025" lon="2.69382">
        <ele>24</ele>
      </trkpt>
      <trkpt lat="50.50245" lon="2.69373">
        <ele>24.1</ele>
      </trkpt>
      <trkpt lat="50.50207" lon="2.69296">
        <ele>24.8</ele>
      </trkpt>
      <trkpt lat="50.50189" lon="2.69249">
        <ele>24.7</ele>
      </trkpt>
      <trkpt lat="50.50183" lon="2.69231">
        <ele>24.8</ele>
      </trkpt>
      <trkpt lat="50.50174" lon="2.69206">
        <ele>24.9</ele>
      </trkpt>
      <trkpt lat="50.50133" lon="2.69092">
        <ele>25</ele>
      </trkpt>
      <trkpt lat="50.50065" lon="2.68908">
        <ele>26</ele>
      </trkpt>
      <trkpt lat="50.50052" lon="2.68868">
        <ele>26</ele>
      </trkpt>
      <trkpt lat="50.50037" lon="2.68753">
        <ele>25.6</ele>
      </trkpt>
      <trkpt lat="50.50037" lon="2.68734">
        <ele>25.6</ele>
      </trkpt>
      <trkpt lat="50.50039" lon="2.68718">
        <ele>25.5</ele>
      </trkpt>
      <trkpt lat="50.50043" lon="2.68706">
        <ele>25.5</ele>
      </trkpt>
      <trkpt lat="50.50047" lon="2.68691">
        <ele>25.4</ele>
      </trkpt>
      <trkpt lat="50.50048" lon="2.6868">
        <ele>25.4</ele>
      </trkpt>
      <trkpt lat="50.50048" lon="2.68674">
        <ele>25.4</ele>
      </trkpt>
      <trkpt lat="50.50044" lon="2.6863">
        <ele>25.7</ele>
      </trkpt>
      <trkpt lat="50.50043" lon="2.68615">
        <ele>25.8</ele>
      </trkpt>
      <trkpt lat="50.5004" lon="2.68584">
        <ele>26</ele>
      </trkpt>
      <trkpt lat="50.50039" lon="2.68576">
        <ele>26</ele>
      </trkpt>
      <trkpt lat="50.50039" lon="2.6857">
        <ele>26.1</ele>
      </trkpt>
      <trkpt lat="50.50038" lon="2.68565">
        <ele>26.1</ele>
      </trkpt>
      <trkpt lat="50.5004" lon="2.68564">
        <ele>26.1</ele>
      </trkpt>
      <trkpt lat="50.50042" lon="2.68564">
        <ele>26.1</ele>
      </trkpt>
      <trkpt lat="50.5013" lon="2.68538">
        <ele>25.7</ele>
      </trkpt>
      <trkpt lat="50.50175" lon="2.68521">
        <ele>25</ele>
      </trkpt>
      <trkpt lat="50.50173" lon="2.68466">
        <ele>25</ele>
      </trkpt>
      <trkpt lat="50.50178" lon="2.68459">
        <ele>25</ele>
      </trkpt>
      <trkpt lat="50.50272" lon="2.68387">
        <ele>24.7</ele>
      </trkpt>
      <trkpt lat="50.50276" lon="2.68314">
        <ele>24.5</ele>
      </trkpt>
      <trkpt lat="50.5028" lon="2.68198">
        <ele>23.2</ele>
      </trkpt>
      <trkpt lat="50.50291" lon="2.68091">
        <ele>20.7</ele>
      </trkpt>
      <trkpt lat="50.50308" lon="2.68043">
        <ele>23</ele>
      </trkpt>
      <trkpt lat="50.5036" lon="2.68007">
        <ele>26</ele>
      </trkpt>
      <trkpt lat="50.50369" lon="2.67999">
        <ele>26</ele>
      </trkpt>
      <trkpt lat="50.50376" lon="2.67995">
        <ele>26</ele>
      </trkpt>
      <trkpt lat="50.50399" lon="2.67987">
        <ele>25</ele>
      </trkpt>
      <trkpt lat="50.50419" lon="2.67973">
        <ele>24</ele>
      </trkpt>
      <trkpt lat="50.50438" lon="2.67965">
        <ele>25</ele>
      </trkpt>
      <trkpt lat="50.50451" lon="2.67953">
        <ele>26</ele>
      </trkpt>
      <trkpt lat="50.50458" lon="2.67942">
        <ele>27</ele>
      </trkpt>
      <trkpt lat="50.50474" lon="2.67909">
        <ele>30</ele>
      </trkpt>
      <trkpt lat="50.50473" lon="2.67905">
        <ele>30</ele>
      </trkpt>
      <trkpt lat="50.50463" lon="2.67906">
        <ele>30</ele>
      </trkpt>
      <trkpt lat="50.50444" lon="2.67898">
        <ele>30</ele>
      </trkpt>
      <trkpt lat="50.50435" lon="2.67888">
        <ele>30</ele>
      </trkpt>
      <trkpt lat="50.50417" lon="2.67856">
        <ele>30</ele>
      </trkpt>
      <trkpt lat="50.50374" lon="2.67764">
        <ele>30</ele>
      </trkpt>
      <trkpt lat="50.50364" lon="2.67738">
        <ele>31</ele>
      </trkpt>
      <trkpt lat="50.50361" lon="2.6772">
        <ele>31</ele>
      </trkpt>
      <trkpt lat="50.50358" lon="2.67716">
        <ele>30</ele>
      </trkpt>
      <trkpt lat="50.50351" lon="2.67714">
        <ele>30</ele>
      </trkpt>
      <trkpt lat="50.50333" lon="2.67727">
        <ele>30</ele>
      </trkpt>
      <trkpt lat="50.5033" lon="2.67732">
        <ele>30</ele>
      </trkpt>
      <trkpt lat="50.50321" lon="2.67763">
        <ele>30</ele>
      </trkpt>
      <trkpt lat="50.50311" lon="2.67787">
        <ele>30</ele>
      </trkpt>
      <trkpt lat="50.50302" lon="2.67792">
        <ele>31</ele>
      </trkpt>
      <trkpt lat="50.50298" lon="2.6779">
        <ele>31</ele>
      </trkpt>
      <trkpt lat="50.50296" lon="2.67779">
        <ele>33</ele>
      </trkpt>
      <trkpt lat="50.50295" lon="2.67757">
        <ele>34</ele>
      </trkpt>
      <trkpt lat="50.50291" lon="2.67739">
        <ele>34</ele>
      </trkpt>
      <trkpt lat="50.50288" lon="2.67712">
        <ele>34</ele>
      </trkpt>
      <trkpt lat="50.50288" lon="2.67704">
        <ele>33</ele>
      </trkpt>
      <trkpt lat="50.50295" lon="2.67675">
        <ele>33</ele>
      </trkpt>
      <trkpt lat="50.50308" lon="2.67634">
        <ele>34</ele>
      </trkpt>
      <trkpt lat="50.50315" lon="2.6762">
        <ele>34</ele>
      </trkpt>
      <trkpt lat="50.50321" lon="2.67603">
        <ele>34</ele>
      </trkpt>
      <trkpt lat="50.50337" lon="2.6752">
        <ele>36</ele>
      </trkpt>
      <trkpt lat="50.50341" lon="2.67513">
        <ele>36</ele>
      </trkpt>
      <trkpt lat="50.50351" lon="2.67503">
        <ele>37</ele>
      </trkpt>
      <trkpt lat="50.5038" lon="2.67494">
        <ele>38</ele>
      </trkpt>
      <trkpt lat="50.50393" lon="2.67488">
        <ele>39</ele>
      </trkpt>
      <trkpt lat="50.5041" lon="2.67483">
        <ele>40</ele>
      </trkpt>
      <trkpt lat="50.50445" lon="2.67469">
        <ele>40</ele>
      </trkpt>
      <trkpt lat="50.50461" lon="2.67466">
        <ele>39</ele>
      </trkpt>
      <trkpt lat="50.50462" lon="2.67467">
        <ele>39</ele>
      </trkpt>
      <trkpt lat="50.50461" lon="2.67474">
        <ele>39</ele>
      </trkpt>
      <trkpt lat="50.50455" lon="2.67478">
        <ele>39</ele>
      </trkpt>
      <trkpt lat="50.50435" lon="2.675">
        <ele>38</ele>
      </trkpt>
      <trkpt lat="50.50422" lon="2.67506">
        <ele>37</ele>
      </trkpt>
      <trkpt lat="50.50404" lon="2.67507">
        <ele>35</ele>
      </trkpt>
      <trkpt lat="50.50389" lon="2.67516">
        <ele>35</ele>
      </trkpt>
      <trkpt lat="50.50389" lon="2.67518">
        <ele>35</ele>
      </trkpt>
      <trkpt lat="50.50402" lon="2.67524">
        <ele>35</ele>
      </trkpt>
      <trkpt lat="50.50473" lon="2.67536">
        <ele>36</ele>
      </trkpt>
      <trkpt lat="50.50485" lon="2.67549">
        <ele>35</ele>
      </trkpt>
      <trkpt lat="50.5049" lon="2.67558">
        <ele>35</ele>
      </trkpt>
      <trkpt lat="50.50526" lon="2.67636">
        <ele>35</ele>
      </trkpt>
      <trkpt lat="50.50529" lon="2.67644">
        <ele>34</ele>
      </trkpt>
      <trkpt lat="50.50529" lon="2.67651">
        <ele>34</ele>
      </trkpt>
      <trkpt lat="50.50524" lon="2.67659">
        <ele>33</ele>
      </trkpt>
      <trkpt lat="50.50516" lon="2.67666">
        <ele>32</ele>
      </trkpt>
      <trkpt lat="50.50514" lon="2.67677">
        <ele>31</ele>
      </trkpt>
      <trkpt lat="50.50516" lon="2.67682">
        <ele>31</ele>
      </trkpt>
      <trkpt lat="50.50524" lon="2.67681">
        <ele>31</ele>
      </trkpt>
      <trkpt lat="50.50549" lon="2.6766">
        <ele>31</ele>
      </trkpt>
      <trkpt lat="50.50555" lon="2.67656">
        <ele>31</ele>
      </trkpt>
      <trkpt lat="50.50568" lon="2.67655">
        <ele>32</ele>
      </trkpt>
      <trkpt lat="50.50578" lon="2.67658">
        <ele>31</ele>
      </trkpt>
      <trkpt lat="50.506" lon="2.67635">
        <ele>28</ele>
      </trkpt>
      <trkpt lat="50.50607" lon="2.67618">
        <ele>23</ele>
      </trkpt>
      <trkpt lat="50.50613" lon="2.67602">
        <ele>24</ele>
      </trkpt>
      <trkpt lat="50.50624" lon="2.67587">
        <ele>24</ele>
      </trkpt>
      <trkpt lat="50.50632" lon="2.67572">
        <ele>24</ele>
      </trkpt>
      <trkpt lat="50.50634" lon="2.67566">
        <ele>24</ele>
      </trkpt>
      <trkpt lat="50.50639" lon="2.67543">
        <ele>24</ele>
      </trkpt>
      <trkpt lat="50.50631" lon="2.67505">
        <ele>24</ele>
      </trkpt>
      <trkpt lat="50.50628" lon="2.67494">
        <ele>25</ele>
      </trkpt>
      <trkpt lat="50.50626" lon="2.67493">
        <ele>26</ele>
      </trkpt>
      <trkpt lat="50.50621" lon="2.67512">
        <ele>29</ele>
      </trkpt>
      <trkpt lat="50.5062" lon="2.67512">
        <ele>28</ele>
      </trkpt>
      <trkpt lat="50.50617" lon="2.67497">
        <ele>28</ele>
      </trkpt>
      <trkpt lat="50.50615" lon="2.67495">
        <ele>29</ele>
      </trkpt>
      <trkpt lat="50.50607" lon="2.6752">
        <ele>31</ele>
      </trkpt>
      <trkpt lat="50.50601" lon="2.6755">
        <ele>32</ele>
      </trkpt>
      <trkpt lat="50.50588" lon="2.67576">
        <ele>34</ele>
      </trkpt>
      <trkpt lat="50.50578" lon="2.67589">
        <ele>35</ele>
      </trkpt>
      <trkpt lat="50.50567" lon="2.676">
        <ele>36</ele>
      </trkpt>
      <trkpt lat="50.50563" lon="2.676">
        <ele>37</ele>
      </trkpt>
      <trkpt lat="50.50562" lon="2.67586">
        <ele>37</ele>
      </trkpt>
      <trkpt lat="50.5057" lon="2.67563">
        <ele>37</ele>
      </trkpt>
      <trkpt lat="50.50578" lon="2.6755">
        <ele>38</ele>
      </trkpt>
      <trkpt lat="50.50579" lon="2.67544">
        <ele>38</ele>
      </trkpt>
      <trkpt lat="50.50581" lon="2.67518">
        <ele>38</ele>
      </trkpt>
      <trkpt lat="50.50576" lon="2.67489">
        <ele>38</ele>
      </trkpt>
      <trkpt lat="50.5056" lon="2.67472">
        <ele>38</ele>
      </trkpt>
      <trkpt lat="50.5055" lon="2.6747">
        <ele>39</ele>
      </trkpt>
      <trkpt lat="50.50525" lon="2.67471">
        <ele>42</ele>
      </trkpt>
      <trkpt lat="50.50511" lon="2.67473">
        <ele>42</ele>
      </trkpt>
      <trkpt lat="50.50503" lon="2.67469">
        <ele>41</ele>
      </trkpt>
      <trkpt lat="50.505" lon="2.67463">
        <ele>40</ele>
      </trkpt>
      <trkpt lat="50.50502" lon="2.67459">
        <ele>39</ele>
      </trkpt>
      <trkpt lat="50.50535" lon="2.67434">
        <ele>32</ele>
      </trkpt>
      <trkpt lat="50.50543" lon="2.67426">
        <ele>30</ele>
      </trkpt>
      <trkpt lat="50.50564" lon="2.67412">
        <ele>28</ele>
      </trkpt>
      <trkpt lat="50.50582" lon="2.67385">
        <ele>24</ele>
      </trkpt>
      <trkpt lat="50.5059" lon="2.67376">
        <ele>23</ele>
      </trkpt>
      <trkpt lat="50.50593" lon="2.67371">
        <ele>23</ele>
      </trkpt>
      <trkpt lat="50.50595" lon="2.67361">
        <ele>22</ele>
      </trkpt>
      <trkpt lat="50.5059" lon="2.67352">
        <ele>22</ele>
      </trkpt>
      <trkpt lat="50.50568" lon="2.67344">
        <ele>21</ele>
      </trkpt>
      <trkpt lat="50.50552" lon="2.67324">
        <ele>20</ele>
      </trkpt>
      <trkpt lat="50.5053" lon="2.67314">
        <ele>18</ele>
      </trkpt>
      <trkpt lat="50.50503" lon="2.67303">
        <ele>17</ele>
      </trkpt>
      <trkpt lat="50.50484" lon="2.67299">
        <ele>16</ele>
      </trkpt>
      <trkpt lat="50.50474" lon="2.67301">
        <ele>16</ele>
      </trkpt>
      <trkpt lat="50.50423" lon="2.67339">
        <ele>14</ele>
      </trkpt>
      <trkpt lat="50.50399" lon="2.67358">
        <ele>12</ele>
      </trkpt>
      <trkpt lat="50.50355" lon="2.67397">
        <ele>12</ele>
      </trkpt>
      <trkpt lat="50.50345" lon="2.67403">
        <ele>12</ele>
      </trkpt>
      <trkpt lat="50.5034" lon="2.67396">
        <ele>12</ele>
      </trkpt>
      <trkpt lat="50.50336" lon="2.67383">
        <ele>12</ele>
      </trkpt>
      <trkpt lat="50.50331" lon="2.67353">
        <ele>12</ele>
      </trkpt>
      <trkpt lat="50.50328" lon="2.67327">
        <ele>13</ele>
      </trkpt>
      <trkpt lat="50.5032" lon="2.67288">
        <ele>12</ele>
      </trkpt>
      <trkpt lat="50.50321" lon="2.67268">
        <ele>13</ele>
      </trkpt>
      <trkpt lat="50.50319" lon="2.67253">
        <ele>13</ele>
      </trkpt>
      <trkpt lat="50.50296" lon="2.67192">
        <ele>12</ele>
      </trkpt>
      <trkpt lat="50.50295" lon="2.67187">
        <ele>12</ele>
      </trkpt>
      <trkpt lat="50.50296" lon="2.67182">
        <ele>12</ele>
      </trkpt>
      <trkpt lat="50.50325" lon="2.67145">
        <ele>13</ele>
      </trkpt>
      <trkpt lat="50.50364" lon="2.67099">
        <ele>14</ele>
      </trkpt>
      <trkpt lat="50.5041" lon="2.6706">
        <ele>15</ele>
      </trkpt>
      <trkpt lat="50.5043" lon="2.67057">
        <ele>15</ele>
      </trkpt>
      <trkpt lat="50.50434" lon="2.67055">
        <ele>15</ele>
      </trkpt>
      <trkpt lat="50.50448" lon="2.67036">
        <ele>15</ele>
      </trkpt>
      <trkpt lat="50.50463" lon="2.6701">
        <ele>14</ele>
      </trkpt>
      <trkpt lat="50.50475" lon="2.66999">
        <ele>14</ele>
      </trkpt>
      <trkpt lat="50.50482" lon="2.66995">
        <ele>13</ele>
      </trkpt>
      <trkpt lat="50.50488" lon="2.6698">
        <ele>13</ele>
      </trkpt>
      <trkpt lat="50.50478" lon="2.66949">
        <ele>11</ele>
      </trkpt>
      <trkpt lat="50.50476" lon="2.66936">
        <ele>11</ele>
      </trkpt>
      <trkpt lat="50.50484" lon="2.66933">
        <ele>12</ele>
      </trkpt>
      <trkpt lat="50.50503" lon="2.66947">
        <ele>13</ele>
      </trkpt>
      <trkpt lat="50.5051" lon="2.6698">
        <ele>13</ele>
      </trkpt>
      <trkpt lat="50.50563" lon="2.67155">
        <ele>14</ele>
      </trkpt>
      <trkpt lat="50.50574" lon="2.67166">
        <ele>13</ele>
      </trkpt>
      <trkpt lat="50.50578" lon="2.67166">
        <ele>13</ele>
      </trkpt>
      <trkpt lat="50.50582" lon="2.67164">
        <ele>13</ele>
      </trkpt>
      <trkpt lat="50.50589" lon="2.6715">
        <ele>12</ele>
      </trkpt>
      <trkpt lat="50.50591" lon="2.67138">
        <ele>10</ele>
      </trkpt>
      <trkpt lat="50.50581" lon="2.67095">
        <ele>5</ele>
      </trkpt>
      <trkpt lat="50.50596" lon="2.67073">
        <ele>5</ele>
      </trkpt>
      <trkpt lat="50.50625" lon="2.67046">
        <ele>4</ele>
      </trkpt>
      <trkpt lat="50.50633" lon="2.67026">
        <ele>3</ele>
      </trkpt>
      <trkpt lat="50.50643" lon="2.66992">
        <ele>3</ele>
      </trkpt>
      <trkpt lat="50.50646" lon="2.66985">
        <ele>4</ele>
      </trkpt>
      <trkpt lat="50.50657" lon="2.66971">
        <ele>5</ele>
      </trkpt>
      <trkpt lat="50.50679" lon="2.66954">
        <ele>7</ele>
      </trkpt>
      <trkpt lat="50.50685" lon="2.66953">
        <ele>8</ele>
      </trkpt>
      <trkpt lat="50.50691" lon="2.66955">
        <ele>8</ele>
      </trkpt>
      <trkpt lat="50.50709" lon="2.66951">
        <ele>10</ele>
      </trkpt>
      <trkpt lat="50.50722" lon="2.66951">
        <ele>11</ele>
      </trkpt>
      <trkpt lat="50.50754" lon="2.66957">
        <ele>12</ele>
      </trkpt>
      <trkpt lat="50.5077" lon="2.66957">
        <ele>13</ele>
      </trkpt>
      <trkpt lat="50.50791" lon="2.66955">
        <ele>14</ele>
      </trkpt>
      <trkpt lat="50.50799" lon="2.66958">
        <ele>15</ele>
      </trkpt>
      <trkpt lat="50.50814" lon="2.66971">
        <ele>16</ele>
      </trkpt>
      <trkpt lat="50.50838" lon="2.66984">
        <ele>16</ele>
      </trkpt>
      <trkpt lat="50.50846" lon="2.66991">
        <ele>17</ele>
      </trkpt>
      <trkpt lat="50.50864" lon="2.66998">
        <ele>17</ele>
      </trkpt>
      <trkpt lat="50.50868" lon="2.66998">
        <ele>17</ele>
      </trkpt>
      <trkpt lat="50.50893" lon="2.67012">
        <ele>19</ele>
      </trkpt>
      <trkpt lat="50.50906" lon="2.67025">
        <ele>21</ele>
      </trkpt>
      <trkpt lat="50.50912" lon="2.6704">
        <ele>21</ele>
      </trkpt>
      <trkpt lat="50.50913" lon="2.67048">
        <ele>22</ele>
      </trkpt>
      <trkpt lat="50.50918" lon="2.67059">
        <ele>22</ele>
      </trkpt>
      <trkpt lat="50.50941" lon="2.6705">
        <ele>23</ele>
      </trkpt>
      <trkpt lat="50.50974" lon="2.67026">
        <ele>24</ele>
      </trkpt>
      <trkpt lat="50.50986" lon="2.67014">
        <ele>24</ele>
      </trkpt>
      <trkpt lat="50.50989" lon="2.67007">
        <ele>24</ele>
      </trkpt>
      <trkpt lat="50.5099" lon="2.66991">
        <ele>23</ele>
      </trkpt>
      <trkpt lat="50.50978" lon="2.66826">
        <ele>21</ele>
      </trkpt>
      <trkpt lat="50.50973" lon="2.66792">
        <ele>21</ele>
      </trkpt>
      <trkpt lat="50.50969" lon="2.66776">
        <ele>20</ele>
      </trkpt>
      <trkpt lat="50.50959" lon="2.66748">
        <ele>19</ele>
      </trkpt>
      <trkpt lat="50.50907" lon="2.66625">
        <ele>18</ele>
      </trkpt>
      <trkpt lat="50.5089" lon="2.66587">
        <ele>18</ele>
      </trkpt>
      <trkpt lat="50.50882" lon="2.66574">
        <ele>18</ele>
      </trkpt>
      <trkpt lat="50.50859" lon="2.66552">
        <ele>18</ele>
      </trkpt>
      <trkpt lat="50.50851" lon="2.66547">
        <ele>18</ele>
      </trkpt>
      <trkpt lat="50.50816" lon="2.66517">
        <ele>19</ele>
      </trkpt>
      <trkpt lat="50.50798" lon="2.66521">
        <ele>19</ele>
      </trkpt>
      <trkpt lat="50.5078" lon="2.66538">
        <ele>22</ele>
      </trkpt>
      <trkpt lat="50.50769" lon="2.66555">
        <ele>23</ele>
      </trkpt>
      <trkpt lat="50.50742" lon="2.66605">
        <ele>26</ele>
      </trkpt>
      <trkpt lat="50.50721" lon="2.66634">
        <ele>25</ele>
      </trkpt>
      <trkpt lat="50.50706" lon="2.66643">
        <ele>25</ele>
      </trkpt>
      <trkpt lat="50.507" lon="2.66639">
        <ele>25</ele>
      </trkpt>
      <trkpt lat="50.50692" lon="2.66617">
        <ele>25</ele>
      </trkpt>
      <trkpt lat="50.50691" lon="2.66601">
        <ele>26</ele>
      </trkpt>
      <trkpt lat="50.50699" lon="2.66527">
        <ele>26</ele>
      </trkpt>
      <trkpt lat="50.50698" lon="2.66513">
        <ele>26</ele>
      </trkpt>
      <trkpt lat="50.50694" lon="2.66492">
        <ele>26</ele>
      </trkpt>
      <trkpt lat="50.50677" lon="2.66449">
        <ele>25</ele>
      </trkpt>
      <trkpt lat="50.50651" lon="2.66395">
        <ele>23</ele>
      </trkpt>
      <trkpt lat="50.50607" lon="2.66329">
        <ele>24</ele>
      </trkpt>
      <trkpt lat="50.50603" lon="2.66319">
        <ele>23</ele>
      </trkpt>
      <trkpt lat="50.50603" lon="2.6631">
        <ele>22</ele>
      </trkpt>
      <trkpt lat="50.50601" lon="2.663">
        <ele>22</ele>
      </trkpt>
      <trkpt lat="50.50594" lon="2.66291">
        <ele>22</ele>
      </trkpt>
      <trkpt lat="50.50576" lon="2.66269">
        <ele>21</ele>
      </trkpt>
      <trkpt lat="50.50564" lon="2.66267">
        <ele>21</ele>
      </trkpt>
      <trkpt lat="50.50543" lon="2.66291">
        <ele>20</ele>
      </trkpt>
      <trkpt lat="50.50532" lon="2.66301">
        <ele>20</ele>
      </trkpt>
      <trkpt lat="50.50528" lon="2.66302">
        <ele>21</ele>
      </trkpt>
      <trkpt lat="50.50515" lon="2.66302">
        <ele>20</ele>
      </trkpt>
      <trkpt lat="50.50473" lon="2.66287">
        <ele>20</ele>
      </trkpt>
      <trkpt lat="50.50461" lon="2.66286">
        <ele>20</ele>
      </trkpt>
      <trkpt lat="50.50444" lon="2.66289">
        <ele>20</ele>
      </trkpt>
      <trkpt lat="50.50435" lon="2.66287">
        <ele>20</ele>
      </trkpt>
      <trkpt lat="50.50406" lon="2.66271">
        <ele>20</ele>
      </trkpt>
      <trkpt lat="50.50366" lon="2.66231">
        <ele>20</ele>
      </trkpt>
      <trkpt lat="50.50348" lon="2.66217">
        <ele>21</ele>
      </trkpt>
      <trkpt lat="50.50324" lon="2.66184">
        <ele>21</ele>
      </trkpt>
      <trkpt lat="50.50307" lon="2.66166">
        <ele>21</ele>
      </trkpt>
      <trkpt lat="50.50288" lon="2.6614">
        <ele>22</ele>
      </trkpt>
      <trkpt lat="50.50268" lon="2.661">
        <ele>22</ele>
      </trkpt>
      <trkpt lat="50.50262" lon="2.66094">
        <ele>22</ele>
      </trkpt>
      <trkpt lat="50.50251" lon="2.66087">
        <ele>22</ele>
      </trkpt>
      <trkpt lat="50.50241" lon="2.66073">
        <ele>22</ele>
      </trkpt>
      <trkpt lat="50.50227" lon="2.6605">
        <ele>23</ele>
      </trkpt>
      <trkpt lat="50.50218" lon="2.66041">
        <ele>23</ele>
      </trkpt>
      <trkpt lat="50.50201" lon="2.66034">
        <ele>22</ele>
      </trkpt>
      <trkpt lat="50.5018" lon="2.66028">
        <ele>23</ele>
      </trkpt>
      <trkpt lat="50.50172" lon="2.66022">
        <ele>24</ele>
      </trkpt>
      <trkpt lat="50.50177" lon="2.65999">
        <ele>24</ele>
      </trkpt>
      <trkpt lat="50.5017" lon="2.65978">
        <ele>24</ele>
      </trkpt>
      <trkpt lat="50.50162" lon="2.65973">
        <ele>24</ele>
      </trkpt>
      <trkpt lat="50.50143" lon="2.65985">
        <ele>24</ele>
      </trkpt>
      <trkpt lat="50.50116" lon="2.65997">
        <ele>25</ele>
      </trkpt>
      <trkpt lat="50.50087" lon="2.66016">
        <ele>26</ele>
      </trkpt>
      <trkpt lat="50.5007" lon="2.66024">
        <ele>27</ele>
      </trkpt>
      <trkpt lat="50.50051" lon="2.66036">
        <ele>27</ele>
      </trkpt>
      <trkpt lat="50.50047" lon="2.66035">
        <ele>27</ele>
      </trkpt>
      <trkpt lat="50.50043" lon="2.66019">
        <ele>28</ele>
      </trkpt>
      <trkpt lat="50.50047" lon="2.65995">
        <ele>27</ele>
      </trkpt>
      <trkpt lat="50.50051" lon="2.65992">
        <ele>28</ele>
      </trkpt>
      <trkpt lat="50.50161" lon="2.65959">
        <ele>27</ele>
      </trkpt>
      <trkpt lat="50.50188" lon="2.65945">
        <ele>27</ele>
      </trkpt>
      <trkpt lat="50.50192" lon="2.65939">
        <ele>27</ele>
      </trkpt>
      <trkpt lat="50.50209" lon="2.65903">
        <ele>26</ele>
      </trkpt>
      <trkpt lat="50.50244" lon="2.65811">
        <ele>26</ele>
      </trkpt>
      <trkpt lat="50.50279" lon="2.65715">
        <ele>27</ele>
      </trkpt>
      <trkpt lat="50.50303" lon="2.65632">
        <ele>27</ele>
      </trkpt>
      <trkpt lat="50.50318" lon="2.65575">
        <ele>27</ele>
      </trkpt>
      <trkpt lat="50.50346" lon="2.655">
        <ele>27</ele>
      </trkpt>
      <trkpt lat="50.50365" lon="2.65442">
        <ele>26</ele>
      </trkpt>
      <trkpt lat="50.50377" lon="2.65413">
        <ele>27</ele>
      </trkpt>
      <trkpt lat="50.50387" lon="2.65395">
        <ele>27</ele>
      </trkpt>
      <trkpt lat="50.5041" lon="2.65357">
        <ele>28</ele>
      </trkpt>
      <trkpt lat="50.5043" lon="2.65335">
        <ele>29</ele>
      </trkpt>
      <trkpt lat="50.5045" lon="2.65316">
        <ele>30</ele>
      </trkpt>
      <trkpt lat="50.50466" lon="2.65304">
        <ele>30</ele>
      </trkpt>
      <trkpt lat="50.50486" lon="2.65282">
        <ele>31</ele>
      </trkpt>
      <trkpt lat="50.50524" lon="2.65231">
        <ele>33</ele>
      </trkpt>
      <trkpt lat="50.50577" lon="2.65166">
        <ele>36</ele>
      </trkpt>
      <trkpt lat="50.50592" lon="2.65145">
        <ele>36</ele>
      </trkpt>
      <trkpt lat="50.50596" lon="2.65125">
        <ele>36</ele>
      </trkpt>
      <trkpt lat="50.50589" lon="2.65117">
        <ele>36</ele>
      </trkpt>
      <trkpt lat="50.50517" lon="2.65149">
        <ele>32</ele>
      </trkpt>
      <trkpt lat="50.50478" lon="2.65168">
        <ele>29</ele>
      </trkpt>
      <trkpt lat="50.50465" lon="2.65179">
        <ele>29</ele>
      </trkpt>
      <trkpt lat="50.50441" lon="2.65187">
        <ele>28</ele>
      </trkpt>
      <trkpt lat="50.50434" lon="2.65191">
        <ele>28</ele>
      </trkpt>
      <trkpt lat="50.50428" lon="2.65189">
        <ele>29</ele>
      </trkpt>
      <trkpt lat="50.50414" lon="2.65189">
        <ele>28</ele>
      </trkpt>
      <trkpt lat="50.50384" lon="2.65205">
        <ele>28</ele>
      </trkpt>
      <trkpt lat="50.50361" lon="2.65221">
        <ele>28</ele>
      </trkpt>
      <trkpt lat="50.50353" lon="2.65226">
        <ele>28</ele>
      </trkpt>
      <trkpt lat="50.50349" lon="2.6522">
        <ele>29</ele>
      </trkpt>
      <trkpt lat="50.50353" lon="2.65194">
        <ele>29</ele>
      </trkpt>
      <trkpt lat="50.50374" lon="2.65128">
        <ele>29</ele>
      </trkpt>
      <trkpt lat="50.50389" lon="2.65073">
        <ele>29</ele>
      </trkpt>
      <trkpt lat="50.50387" lon="2.65064">
        <ele>29</ele>
      </trkpt>
      <trkpt lat="50.50308" lon="2.64927">
        <ele>29</ele>
      </trkpt>
      <trkpt lat="50.50258" lon="2.64835">
        <ele>28</ele>
      </trkpt>
      <trkpt lat="50.50215" lon="2.64764">
        <ele>30</ele>
      </trkpt>
      <trkpt lat="50.50221" lon="2.64753">
        <ele>31</ele>
      </trkpt>
      <trkpt lat="50.50354" lon="2.64577">
        <ele>42</ele>
      </trkpt>
      <trkpt lat="50.50369" lon="2.64564">
        <ele>43</ele>
      </trkpt>
      <trkpt lat="50.50384" lon="2.64555">
        <ele>44</ele>
      </trkpt>
      <trkpt lat="50.50393" lon="2.64544">
        <ele>44</ele>
      </trkpt>
      <trkpt lat="50.50394" lon="2.64539">
        <ele>44</ele>
      </trkpt>
      <trkpt lat="50.50393" lon="2.64535">
        <ele>44</ele>
      </trkpt>
      <trkpt lat="50.50387" lon="2.64535">
        <ele>44</ele>
      </trkpt>
      <trkpt lat="50.50379" lon="2.64541">
        <ele>43</ele>
      </trkpt>
      <trkpt lat="50.5037" lon="2.6455">
        <ele>42</ele>
      </trkpt>
      <trkpt lat="50.50364" lon="2.64553">
        <ele>41</ele>
      </trkpt>
      <trkpt lat="50.50342" lon="2.6457">
        <ele>38</ele>
      </trkpt>
      <trkpt lat="50.50297" lon="2.64619">
        <ele>37</ele>
      </trkpt>
      <trkpt lat="50.50263" lon="2.64658">
        <ele>34</ele>
      </trkpt>
      <trkpt lat="50.50255" lon="2.64669">
        <ele>34</ele>
      </trkpt>
      <trkpt lat="50.50212" lon="2.64718">
        <ele>30</ele>
      </trkpt>
      <trkpt lat="50.50197" lon="2.64739">
        <ele>29</ele>
      </trkpt>
      <trkpt lat="50.50173" lon="2.64763">
        <ele>28</ele>
      </trkpt>
      <trkpt lat="50.50141" lon="2.64805">
        <ele>30</ele>
      </trkpt>
      <trkpt lat="50.50111" lon="2.64836">
        <ele>33</ele>
      </trkpt>
      <trkpt lat="50.50098" lon="2.64853">
        <ele>34</ele>
      </trkpt>
      <trkpt lat="50.50094" lon="2.64856">
        <ele>34</ele>
      </trkpt>
      <trkpt lat="50.50084" lon="2.64856">
        <ele>34</ele>
      </trkpt>
      <trkpt lat="50.50081" lon="2.64854">
        <ele>34</ele>
      </trkpt>
      <trkpt lat="50.50072" lon="2.64855">
        <ele>34</ele>
      </trkpt>
      <trkpt lat="50.50057" lon="2.64862">
        <ele>36</ele>
      </trkpt>
      <trkpt lat="50.5004" lon="2.64867">
        <ele>37</ele>
      </trkpt>
      <trkpt lat="50.50016" lon="2.6488">
        <ele>39</ele>
      </trkpt>
      <trkpt lat="50.49996" lon="2.6489">
        <ele>38</ele>
      </trkpt>
      <trkpt lat="50.49985" lon="2.64893">
        <ele>36</ele>
      </trkpt>
      <trkpt lat="50.49969" lon="2.64903">
        <ele>31</ele>
      </trkpt>
      <trkpt lat="50.49966" lon="2.64919">
        <ele>31</ele>
      </trkpt>
      <trkpt lat="50.49953" lon="2.64947">
        <ele>31</ele>
      </trkpt>
      <trkpt lat="50.49946" lon="2.6495">
        <ele>31</ele>
      </trkpt>
      <trkpt lat="50.49941" lon="2.64945">
        <ele>32</ele>
      </trkpt>
      <trkpt lat="50.49937" lon="2.64931">
        <ele>32</ele>
      </trkpt>
      <trkpt lat="50.49925" lon="2.6486">
        <ele>32</ele>
      </trkpt>
      <trkpt lat="50.49914" lon="2.6481">
        <ele>32</ele>
      </trkpt>
      <trkpt lat="50.49895" lon="2.64738">
        <ele>33</ele>
      </trkpt>
      <trkpt lat="50.49876" lon="2.64678">
        <ele>31</ele>
      </trkpt>
      <trkpt lat="50.49855" lon="2.64619">
        <ele>30</ele>
      </trkpt>
      <trkpt lat="50.49838" lon="2.64575">
        <ele>30</ele>
      </trkpt>
      <trkpt lat="50.49831" lon="2.64553">
        <ele>30</ele>
      </trkpt>
      <trkpt lat="50.49827" lon="2.6455">
        <ele>30</ele>
      </trkpt>
      <trkpt lat="50.49813" lon="2.64564">
        <ele>30</ele>
      </trkpt>
      <trkpt lat="50.49715" lon="2.64673">
        <ele>30</ele>
      </trkpt>
      <trkpt lat="50.497" lon="2.64691">
        <ele>30</ele>
      </trkpt>
      <trkpt lat="50.49669" lon="2.64725">
        <ele>31</ele>
      </trkpt>
      <trkpt lat="50.49628" lon="2.64767">
        <ele>31</ele>
      </trkpt>
      <trkpt lat="50.49556" lon="2.64834">
        <ele>32</ele>
      </trkpt>
      <trkpt lat="50.49553" lon="2.64846">
        <ele>31</ele>
      </trkpt>
      <trkpt lat="50.49555" lon="2.64859">
        <ele>32</ele>
      </trkpt>
      <trkpt lat="50.49571" lon="2.64902">
        <ele>32</ele>
      </trkpt>
      <trkpt lat="50.49581" lon="2.64937">
        <ele>32</ele>
      </trkpt>
      <trkpt lat="50.4959" lon="2.64963">
        <ele>31</ele>
      </trkpt>
      <trkpt lat="50.49594" lon="2.64978">
        <ele>32</ele>
      </trkpt>
      <trkpt lat="50.496" lon="2.64992">
        <ele>32</ele>
      </trkpt>
      <trkpt lat="50.49603" lon="2.65013">
        <ele>32</ele>
      </trkpt>
      <trkpt lat="50.49603" lon="2.65016">
        <ele>32</ele>
      </trkpt>
      <trkpt lat="50.49612" lon="2.65031">
        <ele>30</ele>
      </trkpt>
      <trkpt lat="50.49628" lon="2.65072">
        <ele>30</ele>
      </trkpt>
      <trkpt lat="50.49634" lon="2.65093">
        <ele>31</ele>
      </trkpt>
      <trkpt lat="50.49643" lon="2.65107">
        <ele>31</ele>
      </trkpt>
      <trkpt lat="50.49641" lon="2.65121">
        <ele>31</ele>
      </trkpt>
      <trkpt lat="50.49628" lon="2.65151">
        <ele>31</ele>
      </trkpt>
      <trkpt lat="50.49607" lon="2.65223">
        <ele>30</ele>
      </trkpt>
      <trkpt lat="50.49609" lon="2.65226">
        <ele>29</ele>
      </trkpt>
      <trkpt lat="50.49614" lon="2.65225">
        <ele>28</ele>
      </trkpt>
      <trkpt lat="50.49618" lon="2.652">
        <ele>28</ele>
      </trkpt>
      <trkpt lat="50.49627" lon="2.65185">
        <ele>28</ele>
      </trkpt>
      <trkpt lat="50.49648" lon="2.65163">
        <ele>29</ele>
      </trkpt>
      <trkpt lat="50.49654" lon="2.65145">
        <ele>31</ele>
      </trkpt>
      <trkpt lat="50.49671" lon="2.65108">
        <ele>34</ele>
      </trkpt>
      <trkpt lat="50.49687" lon="2.65092">
        <ele>38</ele>
      </trkpt>
      <trkpt lat="50.49693" lon="2.65088">
        <ele>38</ele>
      </trkpt>
      <trkpt lat="50.49704" lon="2.65084">
        <ele>40</ele>
      </trkpt>
      <trkpt lat="50.49742" lon="2.65084">
        <ele>45</ele>
      </trkpt>
      <trkpt lat="50.49755" lon="2.65089">
        <ele>46</ele>
      </trkpt>
      <trkpt lat="50.49762" lon="2.65096">
        <ele>48</ele>
      </trkpt>
      <trkpt lat="50.4977" lon="2.65107">
        <ele>48</ele>
      </trkpt>
      <trkpt lat="50.49776" lon="2.65118">
        <ele>49</ele>
      </trkpt>
      <trkpt lat="50.49788" lon="2.65153">
        <ele>52</ele>
      </trkpt>
      <trkpt lat="50.49793" lon="2.65177">
        <ele>54</ele>
      </trkpt>
      <trkpt lat="50.4979" lon="2.65184">
        <ele>55</ele>
      </trkpt>
      <trkpt lat="50.49787" lon="2.65188">
        <ele>55</ele>
      </trkpt>
      <trkpt lat="50.49774" lon="2.65183">
        <ele>55</ele>
      </trkpt>
      <trkpt lat="50.49771" lon="2.65178">
        <ele>55</ele>
      </trkpt>
      <trkpt lat="50.49746" lon="2.6516">
        <ele>55</ele>
      </trkpt>
      <trkpt lat="50.4972" lon="2.65151">
        <ele>56</ele>
      </trkpt>
      <trkpt lat="50.49705" lon="2.65151">
        <ele>56</ele>
      </trkpt>
      <trkpt lat="50.49701" lon="2.65153">
        <ele>56</ele>
      </trkpt>
      <trkpt lat="50.49686" lon="2.65182">
        <ele>58</ele>
      </trkpt>
      <trkpt lat="50.49684" lon="2.65207">
        <ele>59</ele>
      </trkpt>
      <trkpt lat="50.49687" lon="2.65228">
        <ele>59</ele>
      </trkpt>
      <trkpt lat="50.49696" lon="2.65237">
        <ele>59</ele>
      </trkpt>
      <trkpt lat="50.49698" lon="2.6526">
        <ele>59</ele>
      </trkpt>
      <trkpt lat="50.49695" lon="2.65263">
        <ele>59</ele>
      </trkpt>
      <trkpt lat="50.4969" lon="2.65276">
        <ele>60</ele>
      </trkpt>
      <trkpt lat="50.49686" lon="2.65308">
        <ele>60</ele>
      </trkpt>
      <trkpt lat="50.49686" lon="2.65322">
        <ele>60</ele>
      </trkpt>
      <trkpt lat="50.49692" lon="2.65334">
        <ele>60</ele>
      </trkpt>
      <trkpt lat="50.49706" lon="2.65344">
        <ele>60</ele>
      </trkpt>
      <trkpt lat="50.49717" lon="2.65349">
        <ele>60</ele>
      </trkpt>
      <trkpt lat="50.49757" lon="2.65325">
        <ele>60</ele>
      </trkpt>
      <trkpt lat="50.49766" lon="2.65308">
        <ele>58</ele>
      </trkpt>
      <trkpt lat="50.49773" lon="2.65291">
        <ele>59</ele>
      </trkpt>
      <trkpt lat="50.49777" lon="2.65286">
        <ele>59</ele>
      </trkpt>
      <trkpt lat="50.49786" lon="2.65287">
        <ele>58</ele>
      </trkpt>
      <trkpt lat="50.49797" lon="2.65305">
        <ele>57</ele>
      </trkpt>
      <trkpt lat="50.49799" lon="2.65329">
        <ele>56</ele>
      </trkpt>
      <trkpt lat="50.49797" lon="2.65345">
        <ele>56</ele>
      </trkpt>
      <trkpt lat="50.4979" lon="2.65374">
        <ele>53</ele>
      </trkpt>
      <trkpt lat="50.49782" lon="2.65391">
        <ele>52</ele>
      </trkpt>
      <trkpt lat="50.49756" lon="2.6542">
        <ele>48</ele>
      </trkpt>
      <trkpt lat="50.49738" lon="2.65431">
        <ele>46</ele>
      </trkpt>
      <trkpt lat="50.49712" lon="2.65439">
        <ele>43</ele>
      </trkpt>
      <trkpt lat="50.49685" lon="2.65433">
        <ele>41</ele>
      </trkpt>
      <trkpt lat="50.4967" lon="2.65424">
        <ele>40</ele>
      </trkpt>
      <trkpt lat="50.49659" lon="2.65412">
        <ele>40</ele>
      </trkpt>
      <trkpt lat="50.49657" lon="2.65407">
        <ele>39</ele>
      </trkpt>
      <trkpt lat="50.49641" lon="2.65392">
        <ele>39</ele>
      </trkpt>
      <trkpt lat="50.49611" lon="2.65353">
        <ele>37</ele>
      </trkpt>
      <trkpt lat="50.49604" lon="2.65333">
        <ele>38</ele>
      </trkpt>
      <trkpt lat="50.49601" lon="2.65318">
        <ele>38</ele>
      </trkpt>
      <trkpt lat="50.49599" lon="2.65302">
        <ele>38</ele>
      </trkpt>
      <trkpt lat="50.49602" lon="2.65273">
        <ele>38</ele>
      </trkpt>
      <trkpt lat="50.49609" lon="2.65241">
        <ele>40</ele>
      </trkpt>
      <trkpt lat="50.49603" lon="2.65234">
        <ele>39</ele>
      </trkpt>
      <trkpt lat="50.49577" lon="2.65234">
        <ele>32</ele>
      </trkpt>
      <trkpt lat="50.49575" lon="2.65219">
        <ele>32</ele>
      </trkpt>
      <trkpt lat="50.49577" lon="2.652">
        <ele>33</ele>
      </trkpt>
      <trkpt lat="50.49577" lon="2.65182">
        <ele>33</ele>
      </trkpt>
      <trkpt lat="50.49572" lon="2.65169">
        <ele>33</ele>
      </trkpt>
      <trkpt lat="50.49563" lon="2.65162">
        <ele>33</ele>
      </trkpt>
      <trkpt lat="50.49566" lon="2.65155">
        <ele>34</ele>
      </trkpt>
      <trkpt lat="50.49567" lon="2.65154">
        <ele>34</ele>
      </trkpt>
      <trkpt lat="50.49567" lon="2.65136">
        <ele>34</ele>
      </trkpt>
      <trkpt lat="50.49563" lon="2.65122">
        <ele>34</ele>
      </trkpt>
      <trkpt lat="50.49555" lon="2.65103">
        <ele>34</ele>
      </trkpt>
      <trkpt lat="50.49546" lon="2.65081">
        <ele>34</ele>
      </trkpt>
      <trkpt lat="50.4954" lon="2.65069">
        <ele>35</ele>
      </trkpt>
      <trkpt lat="50.49536" lon="2.65065">
        <ele>35</ele>
      </trkpt>
      <trkpt lat="50.4953" lon="2.65055">
        <ele>35</ele>
      </trkpt>
      <trkpt lat="50.49494" lon="2.64941">
        <ele>35</ele>
      </trkpt>
      <trkpt lat="50.49487" lon="2.6491">
        <ele>35</ele>
      </trkpt>
      <trkpt lat="50.49484" lon="2.64905">
        <ele>35</ele>
      </trkpt>
      <trkpt lat="50.49476" lon="2.64902">
        <ele>35</ele>
      </trkpt>
      <trkpt lat="50.49439" lon="2.64931">
        <ele>36</ele>
      </trkpt>
      <trkpt lat="50.49337" lon="2.65002">
        <ele>38</ele>
      </trkpt>
      <trkpt lat="50.49298" lon="2.65032">
        <ele>38</ele>
      </trkpt>
      <trkpt lat="50.4926" lon="2.65059">
        <ele>39</ele>
      </trkpt>
      <trkpt lat="50.4922" lon="2.65092">
        <ele>39</ele>
      </trkpt>
      <trkpt lat="50.49053" lon="2.65243">
        <ele>38</ele>
      </trkpt>
      <trkpt lat="50.49022" lon="2.65272">
        <ele>38</ele>
      </trkpt>
      <trkpt lat="50.48938" lon="2.65364">
        <ele>37</ele>
      </trkpt>
      <trkpt lat="50.48909" lon="2.654">
        <ele>37</ele>
      </trkpt>
      <trkpt lat="50.48856" lon="2.65488">
        <ele>39</ele>
      </trkpt>
      <trkpt lat="50.48807" lon="2.65606">
        <ele>35</ele>
      </trkpt>
      <trkpt lat="50.48792" lon="2.65649">
        <ele>34</ele>
      </trkpt>
      <trkpt lat="50.4878" lon="2.65688">
        <ele>34</ele>
      </trkpt>
      <trkpt lat="50.48775" lon="2.65699">
        <ele>34</ele>
      </trkpt>
      <trkpt lat="50.4876" lon="2.6571">
        <ele>34</ele>
      </trkpt>
      <trkpt lat="50.48733" lon="2.65728">
        <ele>32</ele>
      </trkpt>
      <trkpt lat="50.4871" lon="2.65739">
        <ele>31</ele>
      </trkpt>
      <trkpt lat="50.48703" lon="2.65755">
        <ele>31</ele>
      </trkpt>
      <trkpt lat="50.487" lon="2.65771">
        <ele>31</ele>
      </trkpt>
      <trkpt lat="50.48703" lon="2.65784">
        <ele>30</ele>
      </trkpt>
      <trkpt lat="50.48707" lon="2.65823">
        <ele>30</ele>
      </trkpt>
      <trkpt lat="50.48708" lon="2.65837">
        <ele>30</ele>
      </trkpt>
      <trkpt lat="50.48705" lon="2.65865">
        <ele>30</ele>
      </trkpt>
      <trkpt lat="50.48706" lon="2.65884">
        <ele>30</ele>
      </trkpt>
      <trkpt lat="50.48716" lon="2.65912">
        <ele>30</ele>
      </trkpt>
      <trkpt lat="50.48733" lon="2.65942">
        <ele>30</ele>
      </trkpt>
      <trkpt lat="50.48754" lon="2.65972">
        <ele>28</ele>
      </trkpt>
      <trkpt lat="50.48778" lon="2.66001">
        <ele>27</ele>
      </trkpt>
      <trkpt lat="50.48821" lon="2.66039">
        <ele>27</ele>
      </trkpt>
      <trkpt lat="50.48842" lon="2.66068">
        <ele>27</ele>
      </trkpt>
      <trkpt lat="50.48847" lon="2.66087">
        <ele>27</ele>
      </trkpt>
      <trkpt lat="50.48844" lon="2.66101">
        <ele>27</ele>
      </trkpt>
      <trkpt lat="50.48834" lon="2.66126">
        <ele>27</ele>
      </trkpt>
      <trkpt lat="50.48822" lon="2.6615">
        <ele>26</ele>
      </trkpt>
      <trkpt lat="50.48812" lon="2.66166">
        <ele>26</ele>
      </trkpt>
      <trkpt lat="50.48787" lon="2.662">
        <ele>25</ele>
      </trkpt>
      <trkpt lat="50.48777" lon="2.66225">
        <ele>25</ele>
      </trkpt>
      <trkpt lat="50.48773" lon="2.66246">
        <ele>25</ele>
      </trkpt>
      <trkpt lat="50.48775" lon="2.66253">
        <ele>26</ele>
      </trkpt>
      <trkpt lat="50.48809" lon="2.66274">
        <ele>26</ele>
      </trkpt>
      <trkpt lat="50.4881" lon="2.66284">
        <ele>26</ele>
      </trkpt>
      <trkpt lat="50.48798" lon="2.66347">
        <ele>26</ele>
      </trkpt>
      <trkpt lat="50.4877" lon="2.66434">
        <ele>27</ele>
      </trkpt>
      <trkpt lat="50.48759" lon="2.66454">
        <ele>27</ele>
      </trkpt>
      <trkpt lat="50.48741" lon="2.66469">
        <ele>26</ele>
      </trkpt>
      <trkpt lat="50.48706" lon="2.66519">
        <ele>25</ele>
      </trkpt>
      <trkpt lat="50.48679" lon="2.66541">
        <ele>24</ele>
      </trkpt>
      <trkpt lat="50.48646" lon="2.66594">
        <ele>24</ele>
      </trkpt>
      <trkpt lat="50.48646" lon="2.66607">
        <ele>24</ele>
      </trkpt>
      <trkpt lat="50.48656" lon="2.6662">
        <ele>24</ele>
      </trkpt>
      <trkpt lat="50.4867" lon="2.66647">
        <ele>24</ele>
      </trkpt>
      <trkpt lat="50.48675" lon="2.66665">
        <ele>24</ele>
      </trkpt>
      <trkpt lat="50.48665" lon="2.66695">
        <ele>24</ele>
      </trkpt>
      <trkpt lat="50.48653" lon="2.66725">
        <ele>23</ele>
      </trkpt>
      <trkpt lat="50.48639" lon="2.66746">
        <ele>23</ele>
      </trkpt>
      <trkpt lat="50.48635" lon="2.6675">
        <ele>24</ele>
      </trkpt>
      <trkpt lat="50.48623" lon="2.66742">
        <ele>24</ele>
      </trkpt>
      <trkpt lat="50.48615" lon="2.6674">
        <ele>25</ele>
      </trkpt>
      <trkpt lat="50.48606" lon="2.66747">
        <ele>25</ele>
      </trkpt>
      <trkpt lat="50.48588" lon="2.6674">
        <ele>26</ele>
      </trkpt>
      <trkpt lat="50.48579" lon="2.66748">
        <ele>26</ele>
      </trkpt>
      <trkpt lat="50.48543" lon="2.66799">
        <ele>26</ele>
      </trkpt>
      <trkpt lat="50.48541" lon="2.66804">
        <ele>26</ele>
      </trkpt>
      <trkpt lat="50.48541" lon="2.66809">
        <ele>26</ele>
      </trkpt>
      <trkpt lat="50.48551" lon="2.66839">
        <ele>27</ele>
      </trkpt>
      <trkpt lat="50.4855" lon="2.66843">
        <ele>27</ele>
      </trkpt>
      <trkpt lat="50.48535" lon="2.66876">
        <ele>28</ele>
      </trkpt>
      <trkpt lat="50.48531" lon="2.66885">
        <ele>29</ele>
      </trkpt>
      <trkpt lat="50.48511" lon="2.66925">
        <ele>29</ele>
      </trkpt>
      <trkpt lat="50.48421" lon="2.67069">
        <ele>30</ele>
      </trkpt>
      <trkpt lat="50.48413" lon="2.67096">
        <ele>30</ele>
      </trkpt>
      <trkpt lat="50.48393" lon="2.67168">
        <ele>29</ele>
      </trkpt>
      <trkpt lat="50.48369" lon="2.67239">
        <ele>29</ele>
      </trkpt>
      <trkpt lat="50.48331" lon="2.67335">
        <ele>26</ele>
      </trkpt>
      <trkpt lat="50.48316" lon="2.67366">
        <ele>26</ele>
      </trkpt>
      <trkpt lat="50.48292" lon="2.67388">
        <ele>27</ele>
      </trkpt>
      <trkpt lat="50.48282" lon="2.67392">
        <ele>27</ele>
      </trkpt>
      <trkpt lat="50.48277" lon="2.67392">
        <ele>27</ele>
      </trkpt>
      <trkpt lat="50.48269" lon="2.67383">
        <ele>28</ele>
      </trkpt>
      <trkpt lat="50.4826" lon="2.67351">
        <ele>30</ele>
      </trkpt>
      <trkpt lat="50.48254" lon="2.67333">
        <ele>30</ele>
      </trkpt>
      <trkpt lat="50.48251" lon="2.67326">
        <ele>31</ele>
      </trkpt>
      <trkpt lat="50.4824" lon="2.67317">
        <ele>31</ele>
      </trkpt>
      <trkpt lat="50.48203" lon="2.67314">
        <ele>32</ele>
      </trkpt>
      <trkpt lat="50.48137" lon="2.67303">
        <ele>34</ele>
      </trkpt>
      <trkpt lat="50.48125" lon="2.67291">
        <ele>35</ele>
      </trkpt>
      <trkpt lat="50.4812" lon="2.67287">
        <ele>36</ele>
      </trkpt>
      <trkpt lat="50.48118" lon="2.67288">
        <ele>36</ele>
      </trkpt>
      <trkpt lat="50.48097" lon="2.67314">
        <ele>36</ele>
      </trkpt>
      <trkpt lat="50.48077" lon="2.67345">
        <ele>36</ele>
      </trkpt>
      <trkpt lat="50.48066" lon="2.67354">
        <ele>36</ele>
      </trkpt>
      <trkpt lat="50.48055" lon="2.67357">
        <ele>36</ele>
      </trkpt>
      <trkpt lat="50.48049" lon="2.67357">
        <ele>37</ele>
      </trkpt>
      <trkpt lat="50.48044" lon="2.6736">
        <ele>37</ele>
      </trkpt>
      <trkpt lat="50.48031" lon="2.67397">
        <ele>37</ele>
      </trkpt>
      <trkpt lat="50.48024" lon="2.67408">
        <ele>37</ele>
      </trkpt>
      <trkpt lat="50.48018" lon="2.67408">
        <ele>37</ele>
      </trkpt>
      <trkpt lat="50.47993" lon="2.67386">
        <ele>37</ele>
      </trkpt>
      <trkpt lat="50.47971" lon="2.67371">
        <ele>37</ele>
      </trkpt>
      <trkpt lat="50.47965" lon="2.6737">
        <ele>37</ele>
      </trkpt>
      <trkpt lat="50.47948" lon="2.6736">
        <ele>37</ele>
      </trkpt>
      <trkpt lat="50.47938" lon="2.67351">
        <ele>37</ele>
      </trkpt>
      <trkpt lat="50.47919" lon="2.67319">
        <ele>37</ele>
      </trkpt>
      <trkpt lat="50.47879" lon="2.67281">
        <ele>40</ele>
      </trkpt>
    </trkseg>
  </trk>
</gpx>